<?xml version="1.0" encoding="UTF-8" standalone="no" ?>
<gpx xmlns="http://www.topografix.com/GPX/1/1" xmlns:xsi="http://www.w3.org/2001/XMLSchema-instance" xsi:schemaLocation="http://www.topografix.com/GPX/1/1 http://www.topografix.com/GPX/1/1/gpx.xsd" version="1.1" creator="VisuGPX - https://www.visugpx.com">
  <metadata>
    <name>2018-07-12 Bike ride-Georges de Reneins O v50k</name>
    <desc><![CDATA[2018-07-12 Bike ride-Georges de Reneins O v50k]]></desc>
  </metadata>
  <wpt lat="45.92451" lon="4.73744">
    <ele>174</ele>
    <name><![CDATA[2018-07-12 10:20 (Start)]]></name>
  </wpt>
  <wpt lat="45.92458" lon="4.73708">
    <ele>174</ele>
    <name><![CDATA[2018-07-12 10:20 (End)]]></name>
  </wpt>
  <trk>
    <name><![CDATA[2018-07-12 10:20]]></name>
    <trkseg>
      <trkpt lat="45.92451" lon="4.73744">
        <ele>174</ele>
        <time>2018-07-12T08:20:41.861Z</time>
      </trkpt>
      <trkpt lat="45.92451" lon="4.73732">
        <ele>174</ele>
        <time>2018-07-12T08:20:49.021Z</time>
      </trkpt>
      <trkpt lat="45.92453" lon="4.73721">
        <ele>174</ele>
        <time>2018-07-12T08:20:50.022Z</time>
      </trkpt>
      <trkpt lat="45.9246" lon="4.73714">
        <ele>174</ele>
        <time>2018-07-12T08:20:53Z</time>
      </trkpt>
      <trkpt lat="45.9246" lon="4.73713">
        <ele>174</ele>
        <time>2018-07-12T08:20:54Z</time>
      </trkpt>
      <trkpt lat="45.92461" lon="4.73712">
        <ele>174</ele>
        <time>2018-07-12T08:20:55Z</time>
      </trkpt>
      <trkpt lat="45.92461" lon="4.73711">
        <ele>174</ele>
        <time>2018-07-12T08:20:56Z</time>
      </trkpt>
      <trkpt lat="45.92461" lon="4.73709">
        <ele>174</ele>
        <time>2018-07-12T08:20:58Z</time>
      </trkpt>
      <trkpt lat="45.92461" lon="4.73709">
        <ele>174</ele>
        <time>2018-07-12T08:20:59Z</time>
      </trkpt>
      <trkpt lat="45.92468" lon="4.73702">
        <ele>174</ele>
        <time>2018-07-12T08:21:06Z</time>
      </trkpt>
      <trkpt lat="45.92469" lon="4.73699">
        <ele>174</ele>
        <time>2018-07-12T08:21:07Z</time>
      </trkpt>
      <trkpt lat="45.92468" lon="4.73686">
        <ele>174</ele>
        <time>2018-07-12T08:21:11Z</time>
      </trkpt>
      <trkpt lat="45.92468" lon="4.73683">
        <ele>174</ele>
        <time>2018-07-12T08:21:12Z</time>
      </trkpt>
      <trkpt lat="45.92468" lon="4.73678">
        <ele>174</ele>
        <time>2018-07-12T08:21:13Z</time>
      </trkpt>
      <trkpt lat="45.92468" lon="4.73664">
        <ele>174</ele>
        <time>2018-07-12T08:21:14Z</time>
      </trkpt>
      <trkpt lat="45.92468" lon="4.73654">
        <ele>174</ele>
        <time>2018-07-12T08:21:16Z</time>
      </trkpt>
      <trkpt lat="45.92469" lon="4.73648">
        <ele>174</ele>
        <time>2018-07-12T08:21:17Z</time>
      </trkpt>
      <trkpt lat="45.9247" lon="4.73635">
        <ele>174</ele>
        <time>2018-07-12T08:21:19Z</time>
      </trkpt>
      <trkpt lat="45.92472" lon="4.73628">
        <ele>174</ele>
        <time>2018-07-12T08:21:20Z</time>
      </trkpt>
      <trkpt lat="45.9247" lon="4.7362">
        <ele>174</ele>
        <time>2018-07-12T08:21:21Z</time>
      </trkpt>
      <trkpt lat="45.92468" lon="4.73614">
        <ele>174</ele>
        <time>2018-07-12T08:21:22Z</time>
      </trkpt>
      <trkpt lat="45.92467" lon="4.73607">
        <ele>174</ele>
        <time>2018-07-12T08:21:23Z</time>
      </trkpt>
      <trkpt lat="45.92467" lon="4.73601">
        <ele>174</ele>
        <time>2018-07-12T08:21:24Z</time>
      </trkpt>
      <trkpt lat="45.92467" lon="4.73594">
        <ele>174</ele>
        <time>2018-07-12T08:21:25Z</time>
      </trkpt>
      <trkpt lat="45.92465" lon="4.73587">
        <ele>174</ele>
        <time>2018-07-12T08:21:26Z</time>
      </trkpt>
      <trkpt lat="45.92463" lon="4.73581">
        <ele>173</ele>
        <time>2018-07-12T08:21:27Z</time>
      </trkpt>
      <trkpt lat="45.92462" lon="4.73574">
        <ele>173</ele>
        <time>2018-07-12T08:21:28Z</time>
      </trkpt>
      <trkpt lat="45.92461" lon="4.73563">
        <ele>173</ele>
        <time>2018-07-12T08:21:30Z</time>
      </trkpt>
      <trkpt lat="45.92461" lon="4.73557">
        <ele>173</ele>
        <time>2018-07-12T08:21:31Z</time>
      </trkpt>
      <trkpt lat="45.92461" lon="4.73548">
        <ele>173</ele>
        <time>2018-07-12T08:21:34Z</time>
      </trkpt>
      <trkpt lat="45.92462" lon="4.73544">
        <ele>173</ele>
        <time>2018-07-12T08:21:35Z</time>
      </trkpt>
      <trkpt lat="45.92463" lon="4.7354">
        <ele>174</ele>
        <time>2018-07-12T08:21:36Z</time>
      </trkpt>
      <trkpt lat="45.92467" lon="4.73526">
        <ele>174</ele>
        <time>2018-07-12T08:21:37Z</time>
      </trkpt>
      <trkpt lat="45.92467" lon="4.7352">
        <ele>174</ele>
        <time>2018-07-12T08:21:38Z</time>
      </trkpt>
      <trkpt lat="45.92467" lon="4.73513">
        <ele>174</ele>
        <time>2018-07-12T08:21:39Z</time>
      </trkpt>
      <trkpt lat="45.92466" lon="4.73506">
        <ele>174</ele>
        <time>2018-07-12T08:21:40Z</time>
      </trkpt>
      <trkpt lat="45.92466" lon="4.73497">
        <ele>173</ele>
        <time>2018-07-12T08:21:41Z</time>
      </trkpt>
      <trkpt lat="45.92467" lon="4.7349">
        <ele>173</ele>
        <time>2018-07-12T08:21:42Z</time>
      </trkpt>
      <trkpt lat="45.92467" lon="4.73483">
        <ele>173</ele>
        <time>2018-07-12T08:21:43Z</time>
      </trkpt>
      <trkpt lat="45.92467" lon="4.73476">
        <ele>173</ele>
        <time>2018-07-12T08:21:44Z</time>
      </trkpt>
      <trkpt lat="45.92467" lon="4.73469">
        <ele>173</ele>
        <time>2018-07-12T08:21:45Z</time>
      </trkpt>
      <trkpt lat="45.92465" lon="4.73462">
        <ele>173</ele>
        <time>2018-07-12T08:21:47.371Z</time>
      </trkpt>
      <trkpt lat="45.92464" lon="4.73455">
        <ele>173</ele>
        <time>2018-07-12T08:21:47Z</time>
      </trkpt>
      <trkpt lat="45.92464" lon="4.73448">
        <ele>173</ele>
        <time>2018-07-12T08:21:48Z</time>
      </trkpt>
      <trkpt lat="45.92463" lon="4.73442">
        <ele>173</ele>
        <time>2018-07-12T08:21:49Z</time>
      </trkpt>
      <trkpt lat="45.92461" lon="4.73433">
        <ele>173</ele>
        <time>2018-07-12T08:21:50Z</time>
      </trkpt>
      <trkpt lat="45.92457" lon="4.73428">
        <ele>173</ele>
        <time>2018-07-12T08:21:51Z</time>
      </trkpt>
      <trkpt lat="45.92453" lon="4.73423">
        <ele>173</ele>
        <time>2018-07-12T08:21:52Z</time>
      </trkpt>
      <trkpt lat="45.92448" lon="4.7342">
        <ele>173</ele>
        <time>2018-07-12T08:21:53Z</time>
      </trkpt>
      <trkpt lat="45.92443" lon="4.73417">
        <ele>173</ele>
        <time>2018-07-12T08:21:54Z</time>
      </trkpt>
      <trkpt lat="45.92438" lon="4.73415">
        <ele>172</ele>
        <time>2018-07-12T08:21:55Z</time>
      </trkpt>
      <trkpt lat="45.92434" lon="4.7341">
        <ele>172</ele>
        <time>2018-07-12T08:21:56Z</time>
      </trkpt>
      <trkpt lat="45.9243" lon="4.73406">
        <ele>172</ele>
        <time>2018-07-12T08:21:57Z</time>
      </trkpt>
      <trkpt lat="45.92426" lon="4.73401">
        <ele>172</ele>
        <time>2018-07-12T08:21:58Z</time>
      </trkpt>
      <trkpt lat="45.92424" lon="4.73395">
        <ele>172</ele>
        <time>2018-07-12T08:21:59Z</time>
      </trkpt>
      <trkpt lat="45.92422" lon="4.73388">
        <ele>172</ele>
        <time>2018-07-12T08:22:00Z</time>
      </trkpt>
      <trkpt lat="45.92421" lon="4.73381">
        <ele>172</ele>
        <time>2018-07-12T08:22:01Z</time>
      </trkpt>
      <trkpt lat="45.9242" lon="4.73375">
        <ele>172</ele>
        <time>2018-07-12T08:22:02Z</time>
      </trkpt>
      <trkpt lat="45.92418" lon="4.73367">
        <ele>172</ele>
        <time>2018-07-12T08:22:03Z</time>
      </trkpt>
      <trkpt lat="45.92418" lon="4.73358">
        <ele>171</ele>
        <time>2018-07-12T08:22:04Z</time>
      </trkpt>
      <trkpt lat="45.92417" lon="4.73349">
        <ele>171</ele>
        <time>2018-07-12T08:22:05Z</time>
      </trkpt>
      <trkpt lat="45.92416" lon="4.73341">
        <ele>171</ele>
        <time>2018-07-12T08:22:06Z</time>
      </trkpt>
      <trkpt lat="45.92415" lon="4.73333">
        <ele>171</ele>
        <time>2018-07-12T08:22:07Z</time>
      </trkpt>
      <trkpt lat="45.92414" lon="4.73325">
        <ele>171</ele>
        <time>2018-07-12T08:22:08Z</time>
      </trkpt>
      <trkpt lat="45.92413" lon="4.73317">
        <ele>171</ele>
        <time>2018-07-12T08:22:09Z</time>
      </trkpt>
      <trkpt lat="45.92413" lon="4.73309">
        <ele>171</ele>
        <time>2018-07-12T08:22:10Z</time>
      </trkpt>
      <trkpt lat="45.92413" lon="4.73301">
        <ele>171</ele>
        <time>2018-07-12T08:22:11Z</time>
      </trkpt>
      <trkpt lat="45.92412" lon="4.73293">
        <ele>171</ele>
        <time>2018-07-12T08:22:12Z</time>
      </trkpt>
      <trkpt lat="45.92412" lon="4.73285">
        <ele>171</ele>
        <time>2018-07-12T08:22:13Z</time>
      </trkpt>
      <trkpt lat="45.92411" lon="4.73278">
        <ele>171</ele>
        <time>2018-07-12T08:22:14Z</time>
      </trkpt>
      <trkpt lat="45.9241" lon="4.7327">
        <ele>171</ele>
        <time>2018-07-12T08:22:15Z</time>
      </trkpt>
      <trkpt lat="45.9241" lon="4.73262">
        <ele>171</ele>
        <time>2018-07-12T08:22:16Z</time>
      </trkpt>
      <trkpt lat="45.92409" lon="4.73255">
        <ele>171</ele>
        <time>2018-07-12T08:22:17Z</time>
      </trkpt>
      <trkpt lat="45.92409" lon="4.73247">
        <ele>171</ele>
        <time>2018-07-12T08:22:18Z</time>
      </trkpt>
      <trkpt lat="45.92409" lon="4.73239">
        <ele>171</ele>
        <time>2018-07-12T08:22:19Z</time>
      </trkpt>
      <trkpt lat="45.92408" lon="4.73231">
        <ele>171</ele>
        <time>2018-07-12T08:22:20Z</time>
      </trkpt>
      <trkpt lat="45.92408" lon="4.73224">
        <ele>171</ele>
        <time>2018-07-12T08:22:21Z</time>
      </trkpt>
      <trkpt lat="45.92407" lon="4.73215">
        <ele>171</ele>
        <time>2018-07-12T08:22:22Z</time>
      </trkpt>
      <trkpt lat="45.92406" lon="4.73206">
        <ele>171</ele>
        <time>2018-07-12T08:22:23Z</time>
      </trkpt>
      <trkpt lat="45.92407" lon="4.73198">
        <ele>171</ele>
        <time>2018-07-12T08:22:24Z</time>
      </trkpt>
      <trkpt lat="45.92407" lon="4.7319">
        <ele>171</ele>
        <time>2018-07-12T08:22:25Z</time>
      </trkpt>
      <trkpt lat="45.92407" lon="4.73182">
        <ele>171</ele>
        <time>2018-07-12T08:22:26Z</time>
      </trkpt>
      <trkpt lat="45.92406" lon="4.73174">
        <ele>171</ele>
        <time>2018-07-12T08:22:27Z</time>
      </trkpt>
      <trkpt lat="45.92407" lon="4.73166">
        <ele>170</ele>
        <time>2018-07-12T08:22:28Z</time>
      </trkpt>
      <trkpt lat="45.92407" lon="4.73159">
        <ele>170</ele>
        <time>2018-07-12T08:22:29Z</time>
      </trkpt>
      <trkpt lat="45.92407" lon="4.73152">
        <ele>171</ele>
        <time>2018-07-12T08:22:30Z</time>
      </trkpt>
      <trkpt lat="45.92406" lon="4.73145">
        <ele>171</ele>
        <time>2018-07-12T08:22:31Z</time>
      </trkpt>
      <trkpt lat="45.92406" lon="4.73138">
        <ele>171</ele>
        <time>2018-07-12T08:22:32Z</time>
      </trkpt>
      <trkpt lat="45.92407" lon="4.7313">
        <ele>171</ele>
        <time>2018-07-12T08:22:33Z</time>
      </trkpt>
      <trkpt lat="45.92408" lon="4.73124">
        <ele>171</ele>
        <time>2018-07-12T08:22:34Z</time>
      </trkpt>
      <trkpt lat="45.92409" lon="4.73117">
        <ele>171</ele>
        <time>2018-07-12T08:22:35Z</time>
      </trkpt>
      <trkpt lat="45.92412" lon="4.73111">
        <ele>171</ele>
        <time>2018-07-12T08:22:36Z</time>
      </trkpt>
      <trkpt lat="45.92415" lon="4.73106">
        <ele>171</ele>
        <time>2018-07-12T08:22:37Z</time>
      </trkpt>
      <trkpt lat="45.92423" lon="4.73099">
        <ele>171</ele>
        <time>2018-07-12T08:22:39Z</time>
      </trkpt>
      <trkpt lat="45.92427" lon="4.73096">
        <ele>171</ele>
        <time>2018-07-12T08:22:40Z</time>
      </trkpt>
      <trkpt lat="45.92432" lon="4.73093">
        <ele>171</ele>
        <time>2018-07-12T08:22:41Z</time>
      </trkpt>
      <trkpt lat="45.92436" lon="4.73088">
        <ele>171</ele>
        <time>2018-07-12T08:22:42Z</time>
      </trkpt>
      <trkpt lat="45.92441" lon="4.73084">
        <ele>171</ele>
        <time>2018-07-12T08:22:43Z</time>
      </trkpt>
      <trkpt lat="45.92446" lon="4.73081">
        <ele>170</ele>
        <time>2018-07-12T08:22:44Z</time>
      </trkpt>
      <trkpt lat="45.92451" lon="4.73077">
        <ele>170</ele>
        <time>2018-07-12T08:22:45Z</time>
      </trkpt>
      <trkpt lat="45.92456" lon="4.73072">
        <ele>170</ele>
        <time>2018-07-12T08:22:46Z</time>
      </trkpt>
      <trkpt lat="45.92461" lon="4.73066">
        <ele>170</ele>
        <time>2018-07-12T08:22:47Z</time>
      </trkpt>
      <trkpt lat="45.92464" lon="4.73062">
        <ele>170</ele>
        <time>2018-07-12T08:22:48Z</time>
      </trkpt>
      <trkpt lat="45.92469" lon="4.73059">
        <ele>170</ele>
        <time>2018-07-12T08:22:49Z</time>
      </trkpt>
      <trkpt lat="45.92473" lon="4.73055">
        <ele>170</ele>
        <time>2018-07-12T08:22:50Z</time>
      </trkpt>
      <trkpt lat="45.92479" lon="4.73052">
        <ele>170</ele>
        <time>2018-07-12T08:22:51Z</time>
      </trkpt>
      <trkpt lat="45.92483" lon="4.73048">
        <ele>170</ele>
        <time>2018-07-12T08:22:52Z</time>
      </trkpt>
      <trkpt lat="45.92487" lon="4.73039">
        <ele>170</ele>
        <time>2018-07-12T08:22:53Z</time>
      </trkpt>
      <trkpt lat="45.92491" lon="4.73034">
        <ele>170</ele>
        <time>2018-07-12T08:22:54Z</time>
      </trkpt>
      <trkpt lat="45.92496" lon="4.73026">
        <ele>170</ele>
        <time>2018-07-12T08:22:55Z</time>
      </trkpt>
      <trkpt lat="45.92501" lon="4.73022">
        <ele>169</ele>
        <time>2018-07-12T08:22:56Z</time>
      </trkpt>
      <trkpt lat="45.92507" lon="4.73018">
        <ele>169</ele>
        <time>2018-07-12T08:22:57Z</time>
      </trkpt>
      <trkpt lat="45.92513" lon="4.73014">
        <ele>169</ele>
        <time>2018-07-12T08:22:58Z</time>
      </trkpt>
      <trkpt lat="45.92518" lon="4.73009">
        <ele>169</ele>
        <time>2018-07-12T08:22:59Z</time>
      </trkpt>
      <trkpt lat="45.92523" lon="4.73004">
        <ele>169</ele>
        <time>2018-07-12T08:23:00Z</time>
      </trkpt>
      <trkpt lat="45.92528" lon="4.72999">
        <ele>169</ele>
        <time>2018-07-12T08:23:01Z</time>
      </trkpt>
      <trkpt lat="45.92532" lon="4.72995">
        <ele>169</ele>
        <time>2018-07-12T08:23:02Z</time>
      </trkpt>
      <trkpt lat="45.92538" lon="4.7299">
        <ele>169</ele>
        <time>2018-07-12T08:23:03Z</time>
      </trkpt>
      <trkpt lat="45.92543" lon="4.72985">
        <ele>169</ele>
        <time>2018-07-12T08:23:04Z</time>
      </trkpt>
      <trkpt lat="45.92548" lon="4.72982">
        <ele>169</ele>
        <time>2018-07-12T08:23:05Z</time>
      </trkpt>
      <trkpt lat="45.92553" lon="4.72978">
        <ele>169</ele>
        <time>2018-07-12T08:23:06Z</time>
      </trkpt>
      <trkpt lat="45.92558" lon="4.72973">
        <ele>169</ele>
        <time>2018-07-12T08:23:07Z</time>
      </trkpt>
      <trkpt lat="45.92563" lon="4.7297">
        <ele>169</ele>
        <time>2018-07-12T08:23:08Z</time>
      </trkpt>
      <trkpt lat="45.92568" lon="4.72965">
        <ele>169</ele>
        <time>2018-07-12T08:23:09Z</time>
      </trkpt>
      <trkpt lat="45.92572" lon="4.72959">
        <ele>169</ele>
        <time>2018-07-12T08:23:10Z</time>
      </trkpt>
      <trkpt lat="45.92577" lon="4.72955">
        <ele>169</ele>
        <time>2018-07-12T08:23:11Z</time>
      </trkpt>
      <trkpt lat="45.92582" lon="4.72951">
        <ele>169</ele>
        <time>2018-07-12T08:23:12Z</time>
      </trkpt>
      <trkpt lat="45.92587" lon="4.72946">
        <ele>169</ele>
        <time>2018-07-12T08:23:13Z</time>
      </trkpt>
      <trkpt lat="45.9259" lon="4.72939">
        <ele>169</ele>
        <time>2018-07-12T08:23:14Z</time>
      </trkpt>
      <trkpt lat="45.92595" lon="4.72933">
        <ele>169</ele>
        <time>2018-07-12T08:23:15Z</time>
      </trkpt>
      <trkpt lat="45.926" lon="4.72927">
        <ele>169</ele>
        <time>2018-07-12T08:23:16Z</time>
      </trkpt>
      <trkpt lat="45.92606" lon="4.72922">
        <ele>169</ele>
        <time>2018-07-12T08:23:17Z</time>
      </trkpt>
      <trkpt lat="45.9261" lon="4.72918">
        <ele>169</ele>
        <time>2018-07-12T08:23:18Z</time>
      </trkpt>
      <trkpt lat="45.92616" lon="4.72913">
        <ele>169</ele>
        <time>2018-07-12T08:23:19Z</time>
      </trkpt>
      <trkpt lat="45.92621" lon="4.72909">
        <ele>169</ele>
        <time>2018-07-12T08:23:20Z</time>
      </trkpt>
      <trkpt lat="45.92626" lon="4.72904">
        <ele>169</ele>
        <time>2018-07-12T08:23:21Z</time>
      </trkpt>
      <trkpt lat="45.92631" lon="4.72899">
        <ele>169</ele>
        <time>2018-07-12T08:23:22Z</time>
      </trkpt>
      <trkpt lat="45.92637" lon="4.72895">
        <ele>169</ele>
        <time>2018-07-12T08:23:23Z</time>
      </trkpt>
      <trkpt lat="45.92642" lon="4.72891">
        <ele>169</ele>
        <time>2018-07-12T08:23:24Z</time>
      </trkpt>
      <trkpt lat="45.92648" lon="4.72886">
        <ele>169</ele>
        <time>2018-07-12T08:23:25Z</time>
      </trkpt>
      <trkpt lat="45.92653" lon="4.72883">
        <ele>169</ele>
        <time>2018-07-12T08:23:26Z</time>
      </trkpt>
      <trkpt lat="45.92658" lon="4.72879">
        <ele>169</ele>
        <time>2018-07-12T08:23:27Z</time>
      </trkpt>
      <trkpt lat="45.92663" lon="4.72876">
        <ele>169</ele>
        <time>2018-07-12T08:23:28Z</time>
      </trkpt>
      <trkpt lat="45.92668" lon="4.72871">
        <ele>169</ele>
        <time>2018-07-12T08:23:29Z</time>
      </trkpt>
      <trkpt lat="45.92673" lon="4.72868">
        <ele>169</ele>
        <time>2018-07-12T08:23:30Z</time>
      </trkpt>
      <trkpt lat="45.92678" lon="4.72865">
        <ele>169</ele>
        <time>2018-07-12T08:23:31Z</time>
      </trkpt>
      <trkpt lat="45.92682" lon="4.72861">
        <ele>169</ele>
        <time>2018-07-12T08:23:32Z</time>
      </trkpt>
      <trkpt lat="45.92688" lon="4.72858">
        <ele>169</ele>
        <time>2018-07-12T08:23:33Z</time>
      </trkpt>
      <trkpt lat="45.92694" lon="4.72853">
        <ele>169</ele>
        <time>2018-07-12T08:23:34Z</time>
      </trkpt>
      <trkpt lat="45.927" lon="4.7285">
        <ele>169</ele>
        <time>2018-07-12T08:23:35Z</time>
      </trkpt>
      <trkpt lat="45.92706" lon="4.72846">
        <ele>169</ele>
        <time>2018-07-12T08:23:36Z</time>
      </trkpt>
      <trkpt lat="45.92712" lon="4.72843">
        <ele>169</ele>
        <time>2018-07-12T08:23:37Z</time>
      </trkpt>
      <trkpt lat="45.92717" lon="4.72838">
        <ele>169</ele>
        <time>2018-07-12T08:23:38Z</time>
      </trkpt>
      <trkpt lat="45.92722" lon="4.72834">
        <ele>169</ele>
        <time>2018-07-12T08:23:39Z</time>
      </trkpt>
      <trkpt lat="45.92725" lon="4.7283">
        <ele>170</ele>
        <time>2018-07-12T08:23:40Z</time>
      </trkpt>
      <trkpt lat="45.92732" lon="4.72826">
        <ele>170</ele>
        <time>2018-07-12T08:23:41Z</time>
      </trkpt>
      <trkpt lat="45.92737" lon="4.72822">
        <ele>169</ele>
        <time>2018-07-12T08:23:42Z</time>
      </trkpt>
      <trkpt lat="45.92742" lon="4.72819">
        <ele>169</ele>
        <time>2018-07-12T08:23:43Z</time>
      </trkpt>
      <trkpt lat="45.92748" lon="4.72819">
        <ele>169</ele>
        <time>2018-07-12T08:23:44Z</time>
      </trkpt>
      <trkpt lat="45.92754" lon="4.72814">
        <ele>170</ele>
        <time>2018-07-12T08:23:45Z</time>
      </trkpt>
      <trkpt lat="45.92759" lon="4.7281">
        <ele>170</ele>
        <time>2018-07-12T08:23:46Z</time>
      </trkpt>
      <trkpt lat="45.92764" lon="4.72807">
        <ele>170</ele>
        <time>2018-07-12T08:23:47Z</time>
      </trkpt>
      <trkpt lat="45.92769" lon="4.72803">
        <ele>170</ele>
        <time>2018-07-12T08:23:48Z</time>
      </trkpt>
      <trkpt lat="45.92774" lon="4.72799">
        <ele>170</ele>
        <time>2018-07-12T08:23:49Z</time>
      </trkpt>
      <trkpt lat="45.92778" lon="4.72795">
        <ele>170</ele>
        <time>2018-07-12T08:23:50Z</time>
      </trkpt>
      <trkpt lat="45.92783" lon="4.72791">
        <ele>170</ele>
        <time>2018-07-12T08:23:51Z</time>
      </trkpt>
      <trkpt lat="45.92788" lon="4.72789">
        <ele>170</ele>
        <time>2018-07-12T08:23:52Z</time>
      </trkpt>
      <trkpt lat="45.92793" lon="4.72786">
        <ele>171</ele>
        <time>2018-07-12T08:23:53Z</time>
      </trkpt>
      <trkpt lat="45.92797" lon="4.72785">
        <ele>171</ele>
        <time>2018-07-12T08:23:54Z</time>
      </trkpt>
      <trkpt lat="45.92805" lon="4.72786">
        <ele>171</ele>
        <time>2018-07-12T08:23:56Z</time>
      </trkpt>
      <trkpt lat="45.92806" lon="4.72791">
        <ele>171</ele>
        <time>2018-07-12T08:23:57Z</time>
      </trkpt>
      <trkpt lat="45.92807" lon="4.72797">
        <ele>171</ele>
        <time>2018-07-12T08:23:58Z</time>
      </trkpt>
      <trkpt lat="45.92808" lon="4.72804">
        <ele>171</ele>
        <time>2018-07-12T08:23:59Z</time>
      </trkpt>
      <trkpt lat="45.92809" lon="4.72816">
        <ele>171</ele>
        <time>2018-07-12T08:24:01Z</time>
      </trkpt>
      <trkpt lat="45.92806" lon="4.72825">
        <ele>171</ele>
        <time>2018-07-12T08:24:02Z</time>
      </trkpt>
      <trkpt lat="45.92811" lon="4.72831">
        <ele>171</ele>
        <time>2018-07-12T08:24:03Z</time>
      </trkpt>
      <trkpt lat="45.92811" lon="4.72837">
        <ele>170</ele>
        <time>2018-07-12T08:24:04Z</time>
      </trkpt>
      <trkpt lat="45.92812" lon="4.72844">
        <ele>170</ele>
        <time>2018-07-12T08:24:05Z</time>
      </trkpt>
      <trkpt lat="45.92813" lon="4.72852">
        <ele>170</ele>
        <time>2018-07-12T08:24:06Z</time>
      </trkpt>
      <trkpt lat="45.92815" lon="4.72859">
        <ele>170</ele>
        <time>2018-07-12T08:24:07Z</time>
      </trkpt>
      <trkpt lat="45.92816" lon="4.72866">
        <ele>170</ele>
        <time>2018-07-12T08:24:08Z</time>
      </trkpt>
      <trkpt lat="45.92818" lon="4.72873">
        <ele>170</ele>
        <time>2018-07-12T08:24:09Z</time>
      </trkpt>
      <trkpt lat="45.92819" lon="4.72881">
        <ele>170</ele>
        <time>2018-07-12T08:24:10Z</time>
      </trkpt>
      <trkpt lat="45.9282" lon="4.72889">
        <ele>170</ele>
        <time>2018-07-12T08:24:11Z</time>
      </trkpt>
      <trkpt lat="45.92822" lon="4.72899">
        <ele>170</ele>
        <time>2018-07-12T08:24:12Z</time>
      </trkpt>
      <trkpt lat="45.92823" lon="4.72908">
        <ele>170</ele>
        <time>2018-07-12T08:24:13Z</time>
      </trkpt>
      <trkpt lat="45.92826" lon="4.72916">
        <ele>170</ele>
        <time>2018-07-12T08:24:14Z</time>
      </trkpt>
      <trkpt lat="45.92827" lon="4.72923">
        <ele>170</ele>
        <time>2018-07-12T08:24:15Z</time>
      </trkpt>
      <trkpt lat="45.92828" lon="4.72933">
        <ele>170</ele>
        <time>2018-07-12T08:24:16Z</time>
      </trkpt>
      <trkpt lat="45.92828" lon="4.7294">
        <ele>170</ele>
        <time>2018-07-12T08:24:17Z</time>
      </trkpt>
      <trkpt lat="45.92829" lon="4.72947">
        <ele>170</ele>
        <time>2018-07-12T08:24:18Z</time>
      </trkpt>
      <trkpt lat="45.92831" lon="4.72955">
        <ele>170</ele>
        <time>2018-07-12T08:24:19Z</time>
      </trkpt>
      <trkpt lat="45.92831" lon="4.72962">
        <ele>170</ele>
        <time>2018-07-12T08:24:20Z</time>
      </trkpt>
      <trkpt lat="45.92832" lon="4.7297">
        <ele>170</ele>
        <time>2018-07-12T08:24:21Z</time>
      </trkpt>
      <trkpt lat="45.92832" lon="4.72977">
        <ele>170</ele>
        <time>2018-07-12T08:24:22Z</time>
      </trkpt>
      <trkpt lat="45.92833" lon="4.72986">
        <ele>170</ele>
        <time>2018-07-12T08:24:23Z</time>
      </trkpt>
      <trkpt lat="45.92834" lon="4.72994">
        <ele>170</ele>
        <time>2018-07-12T08:24:24Z</time>
      </trkpt>
      <trkpt lat="45.92836" lon="4.73003">
        <ele>170</ele>
        <time>2018-07-12T08:24:25Z</time>
      </trkpt>
      <trkpt lat="45.92836" lon="4.73011">
        <ele>171</ele>
        <time>2018-07-12T08:24:26Z</time>
      </trkpt>
      <trkpt lat="45.92836" lon="4.73019">
        <ele>171</ele>
        <time>2018-07-12T08:24:27Z</time>
      </trkpt>
      <trkpt lat="45.92837" lon="4.73027">
        <ele>171</ele>
        <time>2018-07-12T08:24:28Z</time>
      </trkpt>
      <trkpt lat="45.92838" lon="4.73034">
        <ele>171</ele>
        <time>2018-07-12T08:24:29Z</time>
      </trkpt>
      <trkpt lat="45.92839" lon="4.73041">
        <ele>171</ele>
        <time>2018-07-12T08:24:30Z</time>
      </trkpt>
      <trkpt lat="45.92841" lon="4.73049">
        <ele>171</ele>
        <time>2018-07-12T08:24:31Z</time>
      </trkpt>
      <trkpt lat="45.92842" lon="4.73056">
        <ele>171</ele>
        <time>2018-07-12T08:24:32Z</time>
      </trkpt>
      <trkpt lat="45.92843" lon="4.73064">
        <ele>171</ele>
        <time>2018-07-12T08:24:33Z</time>
      </trkpt>
      <trkpt lat="45.92845" lon="4.73071">
        <ele>171</ele>
        <time>2018-07-12T08:24:34Z</time>
      </trkpt>
      <trkpt lat="45.92845" lon="4.7308">
        <ele>171</ele>
        <time>2018-07-12T08:24:35Z</time>
      </trkpt>
      <trkpt lat="45.92845" lon="4.73087">
        <ele>171</ele>
        <time>2018-07-12T08:24:36Z</time>
      </trkpt>
      <trkpt lat="45.92847" lon="4.73093">
        <ele>171</ele>
        <time>2018-07-12T08:24:37Z</time>
      </trkpt>
      <trkpt lat="45.9285" lon="4.73099">
        <ele>171</ele>
        <time>2018-07-12T08:24:38Z</time>
      </trkpt>
      <trkpt lat="45.92855" lon="4.73102">
        <ele>171</ele>
        <time>2018-07-12T08:24:40Z</time>
      </trkpt>
      <trkpt lat="45.9286" lon="4.73101">
        <ele>171</ele>
        <time>2018-07-12T08:24:41Z</time>
      </trkpt>
      <trkpt lat="45.92865" lon="4.73095">
        <ele>171</ele>
        <time>2018-07-12T08:24:43Z</time>
      </trkpt>
      <trkpt lat="45.92868" lon="4.73089">
        <ele>172</ele>
        <time>2018-07-12T08:24:44Z</time>
      </trkpt>
      <trkpt lat="45.92873" lon="4.73082">
        <ele>172</ele>
        <time>2018-07-12T08:24:46Z</time>
      </trkpt>
      <trkpt lat="45.92877" lon="4.73077">
        <ele>172</ele>
        <time>2018-07-12T08:24:47Z</time>
      </trkpt>
      <trkpt lat="45.92885" lon="4.73073">
        <ele>172</ele>
        <time>2018-07-12T08:24:49Z</time>
      </trkpt>
      <trkpt lat="45.9289" lon="4.7307">
        <ele>172</ele>
        <time>2018-07-12T08:24:50Z</time>
      </trkpt>
      <trkpt lat="45.92896" lon="4.73064">
        <ele>172</ele>
        <time>2018-07-12T08:24:51Z</time>
      </trkpt>
      <trkpt lat="45.92901" lon="4.73057">
        <ele>172</ele>
        <time>2018-07-12T08:24:52Z</time>
      </trkpt>
      <trkpt lat="45.92904" lon="4.73051">
        <ele>172</ele>
        <time>2018-07-12T08:24:53Z</time>
      </trkpt>
      <trkpt lat="45.92908" lon="4.73045">
        <ele>172</ele>
        <time>2018-07-12T08:24:54Z</time>
      </trkpt>
      <trkpt lat="45.92912" lon="4.73038">
        <ele>172</ele>
        <time>2018-07-12T08:24:55Z</time>
      </trkpt>
      <trkpt lat="45.92916" lon="4.73031">
        <ele>172</ele>
        <time>2018-07-12T08:24:56Z</time>
      </trkpt>
      <trkpt lat="45.92919" lon="4.73025">
        <ele>172</ele>
        <time>2018-07-12T08:24:57Z</time>
      </trkpt>
      <trkpt lat="45.92924" lon="4.73019">
        <ele>172</ele>
        <time>2018-07-12T08:24:58Z</time>
      </trkpt>
      <trkpt lat="45.92928" lon="4.73013">
        <ele>172</ele>
        <time>2018-07-12T08:24:59Z</time>
      </trkpt>
      <trkpt lat="45.92933" lon="4.73008">
        <ele>171</ele>
        <time>2018-07-12T08:25:00Z</time>
      </trkpt>
      <trkpt lat="45.92938" lon="4.73004">
        <ele>171</ele>
        <time>2018-07-12T08:25:01Z</time>
      </trkpt>
      <trkpt lat="45.9294" lon="4.72997">
        <ele>171</ele>
        <time>2018-07-12T08:25:02Z</time>
      </trkpt>
      <trkpt lat="45.92945" lon="4.72993">
        <ele>171</ele>
        <time>2018-07-12T08:25:03Z</time>
      </trkpt>
      <trkpt lat="45.92949" lon="4.72988">
        <ele>171</ele>
        <time>2018-07-12T08:25:04Z</time>
      </trkpt>
      <trkpt lat="45.92954" lon="4.72983">
        <ele>171</ele>
        <time>2018-07-12T08:25:05Z</time>
      </trkpt>
      <trkpt lat="45.92957" lon="4.72977">
        <ele>171</ele>
        <time>2018-07-12T08:25:06Z</time>
      </trkpt>
      <trkpt lat="45.92962" lon="4.72972">
        <ele>171</ele>
        <time>2018-07-12T08:25:07Z</time>
      </trkpt>
      <trkpt lat="45.92967" lon="4.72967">
        <ele>171</ele>
        <time>2018-07-12T08:25:08Z</time>
      </trkpt>
      <trkpt lat="45.92972" lon="4.72962">
        <ele>171</ele>
        <time>2018-07-12T08:25:09Z</time>
      </trkpt>
      <trkpt lat="45.92977" lon="4.72957">
        <ele>171</ele>
        <time>2018-07-12T08:25:10Z</time>
      </trkpt>
      <trkpt lat="45.92981" lon="4.72952">
        <ele>171</ele>
        <time>2018-07-12T08:25:11Z</time>
      </trkpt>
      <trkpt lat="45.92983" lon="4.72948">
        <ele>171</ele>
        <time>2018-07-12T08:25:12Z</time>
      </trkpt>
      <trkpt lat="45.92987" lon="4.72943">
        <ele>171</ele>
        <time>2018-07-12T08:25:13Z</time>
      </trkpt>
      <trkpt lat="45.92991" lon="4.72937">
        <ele>171</ele>
        <time>2018-07-12T08:25:14Z</time>
      </trkpt>
      <trkpt lat="45.92995" lon="4.72933">
        <ele>171</ele>
        <time>2018-07-12T08:25:15Z</time>
      </trkpt>
      <trkpt lat="45.93" lon="4.72926">
        <ele>170</ele>
        <time>2018-07-12T08:25:16Z</time>
      </trkpt>
      <trkpt lat="45.93005" lon="4.72922">
        <ele>171</ele>
        <time>2018-07-12T08:25:17Z</time>
      </trkpt>
      <trkpt lat="45.93009" lon="4.72917">
        <ele>170</ele>
        <time>2018-07-12T08:25:18Z</time>
      </trkpt>
      <trkpt lat="45.93013" lon="4.72912">
        <ele>171</ele>
        <time>2018-07-12T08:25:19Z</time>
      </trkpt>
      <trkpt lat="45.93017" lon="4.72906">
        <ele>172</ele>
        <time>2018-07-12T08:25:20Z</time>
      </trkpt>
      <trkpt lat="45.93021" lon="4.72901">
        <ele>172</ele>
        <time>2018-07-12T08:25:21Z</time>
      </trkpt>
      <trkpt lat="45.93026" lon="4.72895">
        <ele>172</ele>
        <time>2018-07-12T08:25:22Z</time>
      </trkpt>
      <trkpt lat="45.93029" lon="4.72888">
        <ele>172</ele>
        <time>2018-07-12T08:25:23Z</time>
      </trkpt>
      <trkpt lat="45.93034" lon="4.72883">
        <ele>172</ele>
        <time>2018-07-12T08:25:24Z</time>
      </trkpt>
      <trkpt lat="45.9304" lon="4.72878">
        <ele>172</ele>
        <time>2018-07-12T08:25:25Z</time>
      </trkpt>
      <trkpt lat="45.93044" lon="4.72873">
        <ele>172</ele>
        <time>2018-07-12T08:25:26Z</time>
      </trkpt>
      <trkpt lat="45.93056" lon="4.72857">
        <ele>172</ele>
        <time>2018-07-12T08:25:29Z</time>
      </trkpt>
      <trkpt lat="45.93059" lon="4.72853">
        <ele>172</ele>
        <time>2018-07-12T08:25:30Z</time>
      </trkpt>
      <trkpt lat="45.93063" lon="4.72847">
        <ele>172</ele>
        <time>2018-07-12T08:25:31Z</time>
      </trkpt>
      <trkpt lat="45.93067" lon="4.72842">
        <ele>173</ele>
        <time>2018-07-12T08:25:32Z</time>
      </trkpt>
      <trkpt lat="45.93072" lon="4.72836">
        <ele>173</ele>
        <time>2018-07-12T08:25:33Z</time>
      </trkpt>
      <trkpt lat="45.93076" lon="4.72831">
        <ele>173</ele>
        <time>2018-07-12T08:25:34Z</time>
      </trkpt>
      <trkpt lat="45.93081" lon="4.72825">
        <ele>173</ele>
        <time>2018-07-12T08:25:35Z</time>
      </trkpt>
      <trkpt lat="45.93086" lon="4.72817">
        <ele>172</ele>
        <time>2018-07-12T08:25:36Z</time>
      </trkpt>
      <trkpt lat="45.93091" lon="4.7281">
        <ele>172</ele>
        <time>2018-07-12T08:25:37Z</time>
      </trkpt>
      <trkpt lat="45.93093" lon="4.72796">
        <ele>171</ele>
        <time>2018-07-12T08:25:38Z</time>
      </trkpt>
      <trkpt lat="45.93104" lon="4.728">
        <ele>171</ele>
        <time>2018-07-12T08:25:39Z</time>
      </trkpt>
      <trkpt lat="45.93111" lon="4.72798">
        <ele>171</ele>
        <time>2018-07-12T08:25:40Z</time>
      </trkpt>
      <trkpt lat="45.93113" lon="4.72794">
        <ele>171</ele>
        <time>2018-07-12T08:25:41Z</time>
      </trkpt>
      <trkpt lat="45.93118" lon="4.72787">
        <ele>171</ele>
        <time>2018-07-12T08:25:42Z</time>
      </trkpt>
      <trkpt lat="45.93124" lon="4.72783">
        <ele>171</ele>
        <time>2018-07-12T08:25:43Z</time>
      </trkpt>
      <trkpt lat="45.93126" lon="4.72782">
        <ele>171</ele>
        <time>2018-07-12T08:25:44Z</time>
      </trkpt>
      <trkpt lat="45.93136" lon="4.72774">
        <ele>171</ele>
        <time>2018-07-12T08:25:45Z</time>
      </trkpt>
      <trkpt lat="45.9314" lon="4.7277">
        <ele>171</ele>
        <time>2018-07-12T08:25:46Z</time>
      </trkpt>
      <trkpt lat="45.93145" lon="4.72765">
        <ele>171</ele>
        <time>2018-07-12T08:25:47Z</time>
      </trkpt>
      <trkpt lat="45.9315" lon="4.72759">
        <ele>170</ele>
        <time>2018-07-12T08:25:48Z</time>
      </trkpt>
      <trkpt lat="45.93154" lon="4.72754">
        <ele>170</ele>
        <time>2018-07-12T08:25:49Z</time>
      </trkpt>
      <trkpt lat="45.93157" lon="4.72746">
        <ele>170</ele>
        <time>2018-07-12T08:25:50Z</time>
      </trkpt>
      <trkpt lat="45.93161" lon="4.72741">
        <ele>170</ele>
        <time>2018-07-12T08:25:51Z</time>
      </trkpt>
      <trkpt lat="45.93166" lon="4.72734">
        <ele>170</ele>
        <time>2018-07-12T08:25:52Z</time>
      </trkpt>
      <trkpt lat="45.9317" lon="4.72729">
        <ele>170</ele>
        <time>2018-07-12T08:25:53Z</time>
      </trkpt>
      <trkpt lat="45.93174" lon="4.72724">
        <ele>170</ele>
        <time>2018-07-12T08:25:54Z</time>
      </trkpt>
      <trkpt lat="45.93181" lon="4.72718">
        <ele>169</ele>
        <time>2018-07-12T08:25:55Z</time>
      </trkpt>
      <trkpt lat="45.93185" lon="4.7271">
        <ele>169</ele>
        <time>2018-07-12T08:25:56Z</time>
      </trkpt>
      <trkpt lat="45.9319" lon="4.72705">
        <ele>169</ele>
        <time>2018-07-12T08:25:57Z</time>
      </trkpt>
      <trkpt lat="45.93195" lon="4.727">
        <ele>169</ele>
        <time>2018-07-12T08:25:58Z</time>
      </trkpt>
      <trkpt lat="45.93199" lon="4.72696">
        <ele>169</ele>
        <time>2018-07-12T08:25:59Z</time>
      </trkpt>
      <trkpt lat="45.93202" lon="4.72689">
        <ele>169</ele>
        <time>2018-07-12T08:26:00Z</time>
      </trkpt>
      <trkpt lat="45.93207" lon="4.72685">
        <ele>169</ele>
        <time>2018-07-12T08:26:01Z</time>
      </trkpt>
      <trkpt lat="45.93211" lon="4.7268">
        <ele>169</ele>
        <time>2018-07-12T08:26:02Z</time>
      </trkpt>
      <trkpt lat="45.93215" lon="4.72674">
        <ele>169</ele>
        <time>2018-07-12T08:26:03Z</time>
      </trkpt>
      <trkpt lat="45.93222" lon="4.72667">
        <ele>169</ele>
        <time>2018-07-12T08:26:05Z</time>
      </trkpt>
      <trkpt lat="45.93226" lon="4.72661">
        <ele>170</ele>
        <time>2018-07-12T08:26:06Z</time>
      </trkpt>
      <trkpt lat="45.9323" lon="4.72655">
        <ele>170</ele>
        <time>2018-07-12T08:26:07Z</time>
      </trkpt>
      <trkpt lat="45.93236" lon="4.72649">
        <ele>170</ele>
        <time>2018-07-12T08:26:08Z</time>
      </trkpt>
      <trkpt lat="45.93241" lon="4.72643">
        <ele>170</ele>
        <time>2018-07-12T08:26:09Z</time>
      </trkpt>
      <trkpt lat="45.93246" lon="4.72637">
        <ele>170</ele>
        <time>2018-07-12T08:26:10Z</time>
      </trkpt>
      <trkpt lat="45.93251" lon="4.72631">
        <ele>170</ele>
        <time>2018-07-12T08:26:11Z</time>
      </trkpt>
      <trkpt lat="45.93256" lon="4.72625">
        <ele>170</ele>
        <time>2018-07-12T08:26:12Z</time>
      </trkpt>
      <trkpt lat="45.93261" lon="4.7262">
        <ele>170</ele>
        <time>2018-07-12T08:26:13Z</time>
      </trkpt>
      <trkpt lat="45.93265" lon="4.72614">
        <ele>170</ele>
        <time>2018-07-12T08:26:14Z</time>
      </trkpt>
      <trkpt lat="45.9327" lon="4.72609">
        <ele>170</ele>
        <time>2018-07-12T08:26:15Z</time>
      </trkpt>
      <trkpt lat="45.93274" lon="4.72604">
        <ele>170</ele>
        <time>2018-07-12T08:26:16Z</time>
      </trkpt>
      <trkpt lat="45.93279" lon="4.72599">
        <ele>170</ele>
        <time>2018-07-12T08:26:17Z</time>
      </trkpt>
      <trkpt lat="45.93282" lon="4.72593">
        <ele>170</ele>
        <time>2018-07-12T08:26:18Z</time>
      </trkpt>
      <trkpt lat="45.93287" lon="4.72588">
        <ele>170</ele>
        <time>2018-07-12T08:26:19Z</time>
      </trkpt>
      <trkpt lat="45.93292" lon="4.72583">
        <ele>171</ele>
        <time>2018-07-12T08:26:20Z</time>
      </trkpt>
      <trkpt lat="45.93297" lon="4.72578">
        <ele>171</ele>
        <time>2018-07-12T08:26:22Z</time>
      </trkpt>
      <trkpt lat="45.93303" lon="4.72571">
        <ele>171</ele>
        <time>2018-07-12T08:26:23Z</time>
      </trkpt>
      <trkpt lat="45.93309" lon="4.72565">
        <ele>171</ele>
        <time>2018-07-12T08:26:24Z</time>
      </trkpt>
      <trkpt lat="45.93314" lon="4.7256">
        <ele>171</ele>
        <time>2018-07-12T08:26:25Z</time>
      </trkpt>
      <trkpt lat="45.93318" lon="4.72554">
        <ele>172</ele>
        <time>2018-07-12T08:26:26Z</time>
      </trkpt>
      <trkpt lat="45.93323" lon="4.72549">
        <ele>172</ele>
        <time>2018-07-12T08:26:27Z</time>
      </trkpt>
      <trkpt lat="45.93329" lon="4.72541">
        <ele>172</ele>
        <time>2018-07-12T08:26:28Z</time>
      </trkpt>
      <trkpt lat="45.93334" lon="4.72537">
        <ele>171</ele>
        <time>2018-07-12T08:26:29Z</time>
      </trkpt>
      <trkpt lat="45.9334" lon="4.72531">
        <ele>172</ele>
        <time>2018-07-12T08:26:30Z</time>
      </trkpt>
      <trkpt lat="45.93346" lon="4.72526">
        <ele>172</ele>
        <time>2018-07-12T08:26:31Z</time>
      </trkpt>
      <trkpt lat="45.93348" lon="4.72521">
        <ele>172</ele>
        <time>2018-07-12T08:26:32Z</time>
      </trkpt>
      <trkpt lat="45.93354" lon="4.72515">
        <ele>172</ele>
        <time>2018-07-12T08:26:33Z</time>
      </trkpt>
      <trkpt lat="45.93359" lon="4.72508">
        <ele>172</ele>
        <time>2018-07-12T08:26:34Z</time>
      </trkpt>
      <trkpt lat="45.93364" lon="4.72502">
        <ele>172</ele>
        <time>2018-07-12T08:26:35Z</time>
      </trkpt>
      <trkpt lat="45.93369" lon="4.72497">
        <ele>173</ele>
        <time>2018-07-12T08:26:36Z</time>
      </trkpt>
      <trkpt lat="45.93374" lon="4.72492">
        <ele>173</ele>
        <time>2018-07-12T08:26:37Z</time>
      </trkpt>
      <trkpt lat="45.93378" lon="4.72487">
        <ele>173</ele>
        <time>2018-07-12T08:26:38Z</time>
      </trkpt>
      <trkpt lat="45.93384" lon="4.72482">
        <ele>173</ele>
        <time>2018-07-12T08:26:39Z</time>
      </trkpt>
      <trkpt lat="45.93388" lon="4.72478">
        <ele>173</ele>
        <time>2018-07-12T08:26:40Z</time>
      </trkpt>
      <trkpt lat="45.93392" lon="4.72473">
        <ele>173</ele>
        <time>2018-07-12T08:26:41Z</time>
      </trkpt>
      <trkpt lat="45.93395" lon="4.72468">
        <ele>173</ele>
        <time>2018-07-12T08:26:42Z</time>
      </trkpt>
      <trkpt lat="45.934" lon="4.72461">
        <ele>173</ele>
        <time>2018-07-12T08:26:43Z</time>
      </trkpt>
      <trkpt lat="45.93401" lon="4.72453">
        <ele>173</ele>
        <time>2018-07-12T08:26:44Z</time>
      </trkpt>
      <trkpt lat="45.93404" lon="4.72446">
        <ele>173</ele>
        <time>2018-07-12T08:26:45Z</time>
      </trkpt>
      <trkpt lat="45.93406" lon="4.7244">
        <ele>173</ele>
        <time>2018-07-12T08:26:46Z</time>
      </trkpt>
      <trkpt lat="45.93408" lon="4.72434">
        <ele>173</ele>
        <time>2018-07-12T08:26:47Z</time>
      </trkpt>
      <trkpt lat="45.93411" lon="4.72427">
        <ele>174</ele>
        <time>2018-07-12T08:26:48Z</time>
      </trkpt>
      <trkpt lat="45.93416" lon="4.72422">
        <ele>174</ele>
        <time>2018-07-12T08:26:49Z</time>
      </trkpt>
      <trkpt lat="45.93421" lon="4.72419">
        <ele>174</ele>
        <time>2018-07-12T08:26:50Z</time>
      </trkpt>
      <trkpt lat="45.93426" lon="4.72415">
        <ele>174</ele>
        <time>2018-07-12T08:26:51Z</time>
      </trkpt>
      <trkpt lat="45.93431" lon="4.72411">
        <ele>174</ele>
        <time>2018-07-12T08:26:52Z</time>
      </trkpt>
      <trkpt lat="45.93436" lon="4.72408">
        <ele>174</ele>
        <time>2018-07-12T08:26:53Z</time>
      </trkpt>
      <trkpt lat="45.93443" lon="4.72405">
        <ele>173</ele>
        <time>2018-07-12T08:26:54Z</time>
      </trkpt>
      <trkpt lat="45.93448" lon="4.72401">
        <ele>173</ele>
        <time>2018-07-12T08:26:55Z</time>
      </trkpt>
      <trkpt lat="45.93453" lon="4.72398">
        <ele>173</ele>
        <time>2018-07-12T08:26:56Z</time>
      </trkpt>
      <trkpt lat="45.93459" lon="4.72392">
        <ele>173</ele>
        <time>2018-07-12T08:26:57Z</time>
      </trkpt>
      <trkpt lat="45.93462" lon="4.72389">
        <ele>173</ele>
        <time>2018-07-12T08:26:58Z</time>
      </trkpt>
      <trkpt lat="45.93467" lon="4.72383">
        <ele>173</ele>
        <time>2018-07-12T08:26:59Z</time>
      </trkpt>
      <trkpt lat="45.93472" lon="4.72378">
        <ele>173</ele>
        <time>2018-07-12T08:27:00Z</time>
      </trkpt>
      <trkpt lat="45.93475" lon="4.72371">
        <ele>173</ele>
        <time>2018-07-12T08:27:01Z</time>
      </trkpt>
      <trkpt lat="45.93481" lon="4.72366">
        <ele>173</ele>
        <time>2018-07-12T08:27:02Z</time>
      </trkpt>
      <trkpt lat="45.93484" lon="4.72362">
        <ele>173</ele>
        <time>2018-07-12T08:27:03Z</time>
      </trkpt>
      <trkpt lat="45.93491" lon="4.72355">
        <ele>173</ele>
        <time>2018-07-12T08:27:04Z</time>
      </trkpt>
      <trkpt lat="45.93496" lon="4.72348">
        <ele>173</ele>
        <time>2018-07-12T08:27:05Z</time>
      </trkpt>
      <trkpt lat="45.93498" lon="4.72342">
        <ele>173</ele>
        <time>2018-07-12T08:27:06Z</time>
      </trkpt>
      <trkpt lat="45.93503" lon="4.72334">
        <ele>173</ele>
        <time>2018-07-12T08:27:07Z</time>
      </trkpt>
      <trkpt lat="45.93503" lon="4.72326">
        <ele>173</ele>
        <time>2018-07-12T08:27:08Z</time>
      </trkpt>
      <trkpt lat="45.93507" lon="4.72321">
        <ele>173</ele>
        <time>2018-07-12T08:27:09Z</time>
      </trkpt>
      <trkpt lat="45.93511" lon="4.72314">
        <ele>173</ele>
        <time>2018-07-12T08:27:10Z</time>
      </trkpt>
      <trkpt lat="45.93514" lon="4.72308">
        <ele>173</ele>
        <time>2018-07-12T08:27:11Z</time>
      </trkpt>
      <trkpt lat="45.93516" lon="4.72302">
        <ele>172</ele>
        <time>2018-07-12T08:27:12Z</time>
      </trkpt>
      <trkpt lat="45.93521" lon="4.72295">
        <ele>172</ele>
        <time>2018-07-12T08:27:13Z</time>
      </trkpt>
      <trkpt lat="45.93524" lon="4.72289">
        <ele>172</ele>
        <time>2018-07-12T08:27:14Z</time>
      </trkpt>
      <trkpt lat="45.93524" lon="4.72283">
        <ele>172</ele>
        <time>2018-07-12T08:27:15Z</time>
      </trkpt>
      <trkpt lat="45.93528" lon="4.72275">
        <ele>172</ele>
        <time>2018-07-12T08:27:16Z</time>
      </trkpt>
      <trkpt lat="45.9353" lon="4.72268">
        <ele>172</ele>
        <time>2018-07-12T08:27:17Z</time>
      </trkpt>
      <trkpt lat="45.93533" lon="4.72261">
        <ele>172</ele>
        <time>2018-07-12T08:27:18Z</time>
      </trkpt>
      <trkpt lat="45.93536" lon="4.72254">
        <ele>172</ele>
        <time>2018-07-12T08:27:19Z</time>
      </trkpt>
      <trkpt lat="45.93538" lon="4.72248">
        <ele>172</ele>
        <time>2018-07-12T08:27:20Z</time>
      </trkpt>
      <trkpt lat="45.93541" lon="4.7224">
        <ele>172</ele>
        <time>2018-07-12T08:27:21Z</time>
      </trkpt>
      <trkpt lat="45.93544" lon="4.72234">
        <ele>172</ele>
        <time>2018-07-12T08:27:22Z</time>
      </trkpt>
      <trkpt lat="45.93548" lon="4.72226">
        <ele>172</ele>
        <time>2018-07-12T08:27:23Z</time>
      </trkpt>
      <trkpt lat="45.93552" lon="4.72219">
        <ele>173</ele>
        <time>2018-07-12T08:27:24Z</time>
      </trkpt>
      <trkpt lat="45.93557" lon="4.72213">
        <ele>173</ele>
        <time>2018-07-12T08:27:25Z</time>
      </trkpt>
      <trkpt lat="45.93561" lon="4.72208">
        <ele>173</ele>
        <time>2018-07-12T08:27:26Z</time>
      </trkpt>
      <trkpt lat="45.93566" lon="4.72204">
        <ele>173</ele>
        <time>2018-07-12T08:27:27Z</time>
      </trkpt>
      <trkpt lat="45.9357" lon="4.722">
        <ele>173</ele>
        <time>2018-07-12T08:27:28Z</time>
      </trkpt>
      <trkpt lat="45.93576" lon="4.72194">
        <ele>173</ele>
        <time>2018-07-12T08:27:29Z</time>
      </trkpt>
      <trkpt lat="45.93581" lon="4.72188">
        <ele>173</ele>
        <time>2018-07-12T08:27:30Z</time>
      </trkpt>
      <trkpt lat="45.93587" lon="4.72184">
        <ele>173</ele>
        <time>2018-07-12T08:27:31Z</time>
      </trkpt>
      <trkpt lat="45.93592" lon="4.72181">
        <ele>173</ele>
        <time>2018-07-12T08:27:32Z</time>
      </trkpt>
      <trkpt lat="45.93597" lon="4.72177">
        <ele>173</ele>
        <time>2018-07-12T08:27:33Z</time>
      </trkpt>
      <trkpt lat="45.93602" lon="4.72173">
        <ele>173</ele>
        <time>2018-07-12T08:27:34Z</time>
      </trkpt>
      <trkpt lat="45.93607" lon="4.7217">
        <ele>173</ele>
        <time>2018-07-12T08:27:35Z</time>
      </trkpt>
      <trkpt lat="45.93613" lon="4.72167">
        <ele>173</ele>
        <time>2018-07-12T08:27:36Z</time>
      </trkpt>
      <trkpt lat="45.93618" lon="4.72161">
        <ele>173</ele>
        <time>2018-07-12T08:27:37Z</time>
      </trkpt>
      <trkpt lat="45.93623" lon="4.72156">
        <ele>173</ele>
        <time>2018-07-12T08:27:38Z</time>
      </trkpt>
      <trkpt lat="45.9363" lon="4.72147">
        <ele>173</ele>
        <time>2018-07-12T08:27:39Z</time>
      </trkpt>
      <trkpt lat="45.93636" lon="4.72139">
        <ele>173</ele>
        <time>2018-07-12T08:27:40Z</time>
      </trkpt>
      <trkpt lat="45.9364" lon="4.72133">
        <ele>173</ele>
        <time>2018-07-12T08:27:41Z</time>
      </trkpt>
      <trkpt lat="45.93644" lon="4.72127">
        <ele>173</ele>
        <time>2018-07-12T08:27:42Z</time>
      </trkpt>
      <trkpt lat="45.93649" lon="4.72122">
        <ele>173</ele>
        <time>2018-07-12T08:27:43Z</time>
      </trkpt>
      <trkpt lat="45.93653" lon="4.72115">
        <ele>173</ele>
        <time>2018-07-12T08:27:44Z</time>
      </trkpt>
      <trkpt lat="45.93657" lon="4.72108">
        <ele>173</ele>
        <time>2018-07-12T08:27:45Z</time>
      </trkpt>
      <trkpt lat="45.93663" lon="4.72101">
        <ele>173</ele>
        <time>2018-07-12T08:27:46Z</time>
      </trkpt>
      <trkpt lat="45.93665" lon="4.72096">
        <ele>172</ele>
        <time>2018-07-12T08:27:47Z</time>
      </trkpt>
      <trkpt lat="45.93669" lon="4.72089">
        <ele>172</ele>
        <time>2018-07-12T08:27:48Z</time>
      </trkpt>
      <trkpt lat="45.93673" lon="4.72083">
        <ele>172</ele>
        <time>2018-07-12T08:27:49Z</time>
      </trkpt>
      <trkpt lat="45.93677" lon="4.72077">
        <ele>172</ele>
        <time>2018-07-12T08:27:50Z</time>
      </trkpt>
      <trkpt lat="45.93681" lon="4.72069">
        <ele>172</ele>
        <time>2018-07-12T08:27:51Z</time>
      </trkpt>
      <trkpt lat="45.93686" lon="4.72063">
        <ele>172</ele>
        <time>2018-07-12T08:27:52Z</time>
      </trkpt>
      <trkpt lat="45.9369" lon="4.72057">
        <ele>172</ele>
        <time>2018-07-12T08:27:53Z</time>
      </trkpt>
      <trkpt lat="45.93692" lon="4.7205">
        <ele>172</ele>
        <time>2018-07-12T08:27:54Z</time>
      </trkpt>
      <trkpt lat="45.93698" lon="4.72044">
        <ele>173</ele>
        <time>2018-07-12T08:27:55Z</time>
      </trkpt>
      <trkpt lat="45.93701" lon="4.72038">
        <ele>172</ele>
        <time>2018-07-12T08:27:56Z</time>
      </trkpt>
      <trkpt lat="45.93705" lon="4.72033">
        <ele>172</ele>
        <time>2018-07-12T08:27:57Z</time>
      </trkpt>
      <trkpt lat="45.93708" lon="4.72027">
        <ele>172</ele>
        <time>2018-07-12T08:27:58Z</time>
      </trkpt>
      <trkpt lat="45.93713" lon="4.72023">
        <ele>172</ele>
        <time>2018-07-12T08:27:59Z</time>
      </trkpt>
      <trkpt lat="45.93713" lon="4.72015">
        <ele>172</ele>
        <time>2018-07-12T08:28:00Z</time>
      </trkpt>
      <trkpt lat="45.93717" lon="4.72009">
        <ele>172</ele>
        <time>2018-07-12T08:28:01Z</time>
      </trkpt>
      <trkpt lat="45.93719" lon="4.72002">
        <ele>172</ele>
        <time>2018-07-12T08:28:02Z</time>
      </trkpt>
      <trkpt lat="45.93722" lon="4.71997">
        <ele>172</ele>
        <time>2018-07-12T08:28:03Z</time>
      </trkpt>
      <trkpt lat="45.93724" lon="4.71988">
        <ele>172</ele>
        <time>2018-07-12T08:28:04Z</time>
      </trkpt>
      <trkpt lat="45.93728" lon="4.71981">
        <ele>172</ele>
        <time>2018-07-12T08:28:05Z</time>
      </trkpt>
      <trkpt lat="45.9373" lon="4.71975">
        <ele>172</ele>
        <time>2018-07-12T08:28:06Z</time>
      </trkpt>
      <trkpt lat="45.93733" lon="4.71968">
        <ele>172</ele>
        <time>2018-07-12T08:28:07Z</time>
      </trkpt>
      <trkpt lat="45.9374" lon="4.71963">
        <ele>172</ele>
        <time>2018-07-12T08:28:10Z</time>
      </trkpt>
      <trkpt lat="45.93742" lon="4.71963">
        <ele>172</ele>
        <time>2018-07-12T08:28:11Z</time>
      </trkpt>
      <trkpt lat="45.93748" lon="4.71961">
        <ele>172</ele>
        <time>2018-07-12T08:28:14Z</time>
      </trkpt>
      <trkpt lat="45.93754" lon="4.71956">
        <ele>171</ele>
        <time>2018-07-12T08:28:15Z</time>
      </trkpt>
      <trkpt lat="45.9376" lon="4.71948">
        <ele>171</ele>
        <time>2018-07-12T08:28:17Z</time>
      </trkpt>
      <trkpt lat="45.93763" lon="4.71941">
        <ele>171</ele>
        <time>2018-07-12T08:28:18Z</time>
      </trkpt>
      <trkpt lat="45.93766" lon="4.71936">
        <ele>171</ele>
        <time>2018-07-12T08:28:19Z</time>
      </trkpt>
      <trkpt lat="45.93769" lon="4.71929">
        <ele>171</ele>
        <time>2018-07-12T08:28:20Z</time>
      </trkpt>
      <trkpt lat="45.93771" lon="4.71923">
        <ele>171</ele>
        <time>2018-07-12T08:28:21Z</time>
      </trkpt>
      <trkpt lat="45.93774" lon="4.71916">
        <ele>172</ele>
        <time>2018-07-12T08:28:22Z</time>
      </trkpt>
      <trkpt lat="45.93776" lon="4.71909">
        <ele>172</ele>
        <time>2018-07-12T08:28:23Z</time>
      </trkpt>
      <trkpt lat="45.93777" lon="4.71902">
        <ele>172</ele>
        <time>2018-07-12T08:28:24Z</time>
      </trkpt>
      <trkpt lat="45.93778" lon="4.71894">
        <ele>172</ele>
        <time>2018-07-12T08:28:25Z</time>
      </trkpt>
      <trkpt lat="45.9378" lon="4.71882">
        <ele>172</ele>
        <time>2018-07-12T08:28:26Z</time>
      </trkpt>
      <trkpt lat="45.93786" lon="4.71874">
        <ele>172</ele>
        <time>2018-07-12T08:28:27Z</time>
      </trkpt>
      <trkpt lat="45.93787" lon="4.71865">
        <ele>172</ele>
        <time>2018-07-12T08:28:28Z</time>
      </trkpt>
      <trkpt lat="45.93791" lon="4.71857">
        <ele>172</ele>
        <time>2018-07-12T08:28:29Z</time>
      </trkpt>
      <trkpt lat="45.93795" lon="4.7185">
        <ele>172</ele>
        <time>2018-07-12T08:28:30Z</time>
      </trkpt>
      <trkpt lat="45.93799" lon="4.71843">
        <ele>172</ele>
        <time>2018-07-12T08:28:31Z</time>
      </trkpt>
      <trkpt lat="45.93804" lon="4.71837">
        <ele>172</ele>
        <time>2018-07-12T08:28:32Z</time>
      </trkpt>
      <trkpt lat="45.93809" lon="4.7183">
        <ele>173</ele>
        <time>2018-07-12T08:28:33Z</time>
      </trkpt>
      <trkpt lat="45.93812" lon="4.71825">
        <ele>173</ele>
        <time>2018-07-12T08:28:34Z</time>
      </trkpt>
      <trkpt lat="45.93816" lon="4.71819">
        <ele>173</ele>
        <time>2018-07-12T08:28:35Z</time>
      </trkpt>
      <trkpt lat="45.9382" lon="4.71811">
        <ele>173</ele>
        <time>2018-07-12T08:28:36Z</time>
      </trkpt>
      <trkpt lat="45.93825" lon="4.71803">
        <ele>174</ele>
        <time>2018-07-12T08:28:37Z</time>
      </trkpt>
      <trkpt lat="45.9383" lon="4.71796">
        <ele>174</ele>
        <time>2018-07-12T08:28:38Z</time>
      </trkpt>
      <trkpt lat="45.93833" lon="4.7179">
        <ele>174</ele>
        <time>2018-07-12T08:28:39Z</time>
      </trkpt>
      <trkpt lat="45.93838" lon="4.71783">
        <ele>173</ele>
        <time>2018-07-12T08:28:40Z</time>
      </trkpt>
      <trkpt lat="45.9384" lon="4.71776">
        <ele>173</ele>
        <time>2018-07-12T08:28:41Z</time>
      </trkpt>
      <trkpt lat="45.93846" lon="4.71768">
        <ele>173</ele>
        <time>2018-07-12T08:28:42Z</time>
      </trkpt>
      <trkpt lat="45.93852" lon="4.71763">
        <ele>173</ele>
        <time>2018-07-12T08:28:43Z</time>
      </trkpt>
      <trkpt lat="45.93856" lon="4.71757">
        <ele>173</ele>
        <time>2018-07-12T08:28:44Z</time>
      </trkpt>
      <trkpt lat="45.93861" lon="4.71751">
        <ele>173</ele>
        <time>2018-07-12T08:28:45Z</time>
      </trkpt>
      <trkpt lat="45.93866" lon="4.71746">
        <ele>174</ele>
        <time>2018-07-12T08:28:46Z</time>
      </trkpt>
      <trkpt lat="45.93872" lon="4.71741">
        <ele>174</ele>
        <time>2018-07-12T08:28:47Z</time>
      </trkpt>
      <trkpt lat="45.93877" lon="4.71736">
        <ele>174</ele>
        <time>2018-07-12T08:28:48Z</time>
      </trkpt>
      <trkpt lat="45.93881" lon="4.7173">
        <ele>174</ele>
        <time>2018-07-12T08:28:49Z</time>
      </trkpt>
      <trkpt lat="45.93886" lon="4.71725">
        <ele>174</ele>
        <time>2018-07-12T08:28:50Z</time>
      </trkpt>
      <trkpt lat="45.93892" lon="4.71718">
        <ele>174</ele>
        <time>2018-07-12T08:28:51Z</time>
      </trkpt>
      <trkpt lat="45.93898" lon="4.71714">
        <ele>174</ele>
        <time>2018-07-12T08:28:52Z</time>
      </trkpt>
      <trkpt lat="45.93903" lon="4.71709">
        <ele>174</ele>
        <time>2018-07-12T08:28:53Z</time>
      </trkpt>
      <trkpt lat="45.93909" lon="4.71705">
        <ele>174</ele>
        <time>2018-07-12T08:28:54Z</time>
      </trkpt>
      <trkpt lat="45.93915" lon="4.71704">
        <ele>174</ele>
        <time>2018-07-12T08:28:55Z</time>
      </trkpt>
      <trkpt lat="45.93923" lon="4.71701">
        <ele>174</ele>
        <time>2018-07-12T08:28:56Z</time>
      </trkpt>
      <trkpt lat="45.93929" lon="4.71698">
        <ele>174</ele>
        <time>2018-07-12T08:28:57Z</time>
      </trkpt>
      <trkpt lat="45.93935" lon="4.71696">
        <ele>174</ele>
        <time>2018-07-12T08:28:58Z</time>
      </trkpt>
      <trkpt lat="45.93941" lon="4.71694">
        <ele>175</ele>
        <time>2018-07-12T08:28:59Z</time>
      </trkpt>
      <trkpt lat="45.93946" lon="4.71691">
        <ele>175</ele>
        <time>2018-07-12T08:29:00Z</time>
      </trkpt>
      <trkpt lat="45.93954" lon="4.71689">
        <ele>175</ele>
        <time>2018-07-12T08:29:01Z</time>
      </trkpt>
      <trkpt lat="45.9396" lon="4.71685">
        <ele>175</ele>
        <time>2018-07-12T08:29:02Z</time>
      </trkpt>
      <trkpt lat="45.93967" lon="4.71681">
        <ele>175</ele>
        <time>2018-07-12T08:29:03Z</time>
      </trkpt>
      <trkpt lat="45.93972" lon="4.7168">
        <ele>175</ele>
        <time>2018-07-12T08:29:04Z</time>
      </trkpt>
      <trkpt lat="45.93978" lon="4.71676">
        <ele>175</ele>
        <time>2018-07-12T08:29:05Z</time>
      </trkpt>
      <trkpt lat="45.93983" lon="4.71674">
        <ele>176</ele>
        <time>2018-07-12T08:29:06Z</time>
      </trkpt>
      <trkpt lat="45.93988" lon="4.71674">
        <ele>176</ele>
        <time>2018-07-12T08:29:07Z</time>
      </trkpt>
      <trkpt lat="45.93993" lon="4.71679">
        <ele>176</ele>
        <time>2018-07-12T08:29:08Z</time>
      </trkpt>
      <trkpt lat="45.94001" lon="4.71683">
        <ele>176</ele>
        <time>2018-07-12T08:29:10Z</time>
      </trkpt>
      <trkpt lat="45.94006" lon="4.71683">
        <ele>176</ele>
        <time>2018-07-12T08:29:11Z</time>
      </trkpt>
      <trkpt lat="45.94011" lon="4.7168">
        <ele>176</ele>
        <time>2018-07-12T08:29:12Z</time>
      </trkpt>
      <trkpt lat="45.94014" lon="4.71675">
        <ele>176</ele>
        <time>2018-07-12T08:29:13Z</time>
      </trkpt>
      <trkpt lat="45.94018" lon="4.71668">
        <ele>176</ele>
        <time>2018-07-12T08:29:14Z</time>
      </trkpt>
      <trkpt lat="45.9402" lon="4.71663">
        <ele>176</ele>
        <time>2018-07-12T08:29:15Z</time>
      </trkpt>
      <trkpt lat="45.94024" lon="4.71658">
        <ele>175</ele>
        <time>2018-07-12T08:29:16Z</time>
      </trkpt>
      <trkpt lat="45.94031" lon="4.71655">
        <ele>175</ele>
        <time>2018-07-12T08:29:17Z</time>
      </trkpt>
      <trkpt lat="45.94038" lon="4.7165">
        <ele>175</ele>
        <time>2018-07-12T08:29:19Z</time>
      </trkpt>
      <trkpt lat="45.94045" lon="4.71647">
        <ele>175</ele>
        <time>2018-07-12T08:29:20Z</time>
      </trkpt>
      <trkpt lat="45.94051" lon="4.71645">
        <ele>175</ele>
        <time>2018-07-12T08:29:21Z</time>
      </trkpt>
      <trkpt lat="45.94057" lon="4.71643">
        <ele>174</ele>
        <time>2018-07-12T08:29:22Z</time>
      </trkpt>
      <trkpt lat="45.94064" lon="4.71639">
        <ele>174</ele>
        <time>2018-07-12T08:29:23Z</time>
      </trkpt>
      <trkpt lat="45.94071" lon="4.71636">
        <ele>174</ele>
        <time>2018-07-12T08:29:24Z</time>
      </trkpt>
      <trkpt lat="45.94074" lon="4.71635">
        <ele>174</ele>
        <time>2018-07-12T08:29:25Z</time>
      </trkpt>
      <trkpt lat="45.94081" lon="4.71633">
        <ele>174</ele>
        <time>2018-07-12T08:29:26Z</time>
      </trkpt>
      <trkpt lat="45.94086" lon="4.71631">
        <ele>173</ele>
        <time>2018-07-12T08:29:27Z</time>
      </trkpt>
      <trkpt lat="45.94092" lon="4.71629">
        <ele>173</ele>
        <time>2018-07-12T08:29:28Z</time>
      </trkpt>
      <trkpt lat="45.941" lon="4.71626">
        <ele>173</ele>
        <time>2018-07-12T08:29:29Z</time>
      </trkpt>
      <trkpt lat="45.94106" lon="4.71623">
        <ele>173</ele>
        <time>2018-07-12T08:29:30Z</time>
      </trkpt>
      <trkpt lat="45.94112" lon="4.71621">
        <ele>173</ele>
        <time>2018-07-12T08:29:31Z</time>
      </trkpt>
      <trkpt lat="45.9412" lon="4.71619">
        <ele>173</ele>
        <time>2018-07-12T08:29:32Z</time>
      </trkpt>
      <trkpt lat="45.94126" lon="4.71617">
        <ele>173</ele>
        <time>2018-07-12T08:29:33Z</time>
      </trkpt>
      <trkpt lat="45.94133" lon="4.71614">
        <ele>173</ele>
        <time>2018-07-12T08:29:34Z</time>
      </trkpt>
      <trkpt lat="45.9414" lon="4.71612">
        <ele>173</ele>
        <time>2018-07-12T08:29:35Z</time>
      </trkpt>
      <trkpt lat="45.94147" lon="4.71608">
        <ele>173</ele>
        <time>2018-07-12T08:29:36Z</time>
      </trkpt>
      <trkpt lat="45.94154" lon="4.71605">
        <ele>173</ele>
        <time>2018-07-12T08:29:37Z</time>
      </trkpt>
      <trkpt lat="45.9416" lon="4.71602">
        <ele>173</ele>
        <time>2018-07-12T08:29:38Z</time>
      </trkpt>
      <trkpt lat="45.94165" lon="4.716">
        <ele>173</ele>
        <time>2018-07-12T08:29:39Z</time>
      </trkpt>
      <trkpt lat="45.94171" lon="4.71598">
        <ele>173</ele>
        <time>2018-07-12T08:29:40Z</time>
      </trkpt>
      <trkpt lat="45.94177" lon="4.71596">
        <ele>173</ele>
        <time>2018-07-12T08:29:41Z</time>
      </trkpt>
      <trkpt lat="45.94184" lon="4.71594">
        <ele>173</ele>
        <time>2018-07-12T08:29:42Z</time>
      </trkpt>
      <trkpt lat="45.9419" lon="4.71591">
        <ele>173</ele>
        <time>2018-07-12T08:29:43Z</time>
      </trkpt>
      <trkpt lat="45.94197" lon="4.71588">
        <ele>173</ele>
        <time>2018-07-12T08:29:44Z</time>
      </trkpt>
      <trkpt lat="45.94202" lon="4.71587">
        <ele>173</ele>
        <time>2018-07-12T08:29:45Z</time>
      </trkpt>
      <trkpt lat="45.94207" lon="4.71584">
        <ele>173</ele>
        <time>2018-07-12T08:29:46Z</time>
      </trkpt>
      <trkpt lat="45.94214" lon="4.71582">
        <ele>174</ele>
        <time>2018-07-12T08:29:48Z</time>
      </trkpt>
      <trkpt lat="45.94219" lon="4.7158">
        <ele>174</ele>
        <time>2018-07-12T08:29:49Z</time>
      </trkpt>
      <trkpt lat="45.94227" lon="4.71577">
        <ele>174</ele>
        <time>2018-07-12T08:29:51Z</time>
      </trkpt>
      <trkpt lat="45.9423" lon="4.71576">
        <ele>174</ele>
        <time>2018-07-12T08:29:52Z</time>
      </trkpt>
      <trkpt lat="45.94235" lon="4.71573">
        <ele>174</ele>
        <time>2018-07-12T08:29:53Z</time>
      </trkpt>
      <trkpt lat="45.9424" lon="4.71572">
        <ele>174</ele>
        <time>2018-07-12T08:29:54Z</time>
      </trkpt>
      <trkpt lat="45.94246" lon="4.7157">
        <ele>174</ele>
        <time>2018-07-12T08:29:55Z</time>
      </trkpt>
      <trkpt lat="45.94252" lon="4.71567">
        <ele>175</ele>
        <time>2018-07-12T08:29:56Z</time>
      </trkpt>
      <trkpt lat="45.94257" lon="4.71565">
        <ele>175</ele>
        <time>2018-07-12T08:29:57Z</time>
      </trkpt>
      <trkpt lat="45.94262" lon="4.71563">
        <ele>175</ele>
        <time>2018-07-12T08:29:58Z</time>
      </trkpt>
      <trkpt lat="45.94269" lon="4.71561">
        <ele>175</ele>
        <time>2018-07-12T08:29:59Z</time>
      </trkpt>
      <trkpt lat="45.94274" lon="4.71555">
        <ele>175</ele>
        <time>2018-07-12T08:30:00Z</time>
      </trkpt>
      <trkpt lat="45.94278" lon="4.71554">
        <ele>175</ele>
        <time>2018-07-12T08:30:01Z</time>
      </trkpt>
      <trkpt lat="45.94283" lon="4.71552">
        <ele>175</ele>
        <time>2018-07-12T08:30:02Z</time>
      </trkpt>
      <trkpt lat="45.9429" lon="4.71547">
        <ele>175</ele>
        <time>2018-07-12T08:30:03Z</time>
      </trkpt>
      <trkpt lat="45.94296" lon="4.71545">
        <ele>175</ele>
        <time>2018-07-12T08:30:04Z</time>
      </trkpt>
      <trkpt lat="45.94303" lon="4.71543">
        <ele>175</ele>
        <time>2018-07-12T08:30:05Z</time>
      </trkpt>
      <trkpt lat="45.94308" lon="4.71541">
        <ele>175</ele>
        <time>2018-07-12T08:30:06Z</time>
      </trkpt>
      <trkpt lat="45.94312" lon="4.7154">
        <ele>175</ele>
        <time>2018-07-12T08:30:07Z</time>
      </trkpt>
      <trkpt lat="45.94317" lon="4.71538">
        <ele>175</ele>
        <time>2018-07-12T08:30:08Z</time>
      </trkpt>
      <trkpt lat="45.94323" lon="4.71536">
        <ele>176</ele>
        <time>2018-07-12T08:30:09Z</time>
      </trkpt>
      <trkpt lat="45.94331" lon="4.71537">
        <ele>176</ele>
        <time>2018-07-12T08:30:10Z</time>
      </trkpt>
      <trkpt lat="45.94334" lon="4.71539">
        <ele>176</ele>
        <time>2018-07-12T08:30:11Z</time>
      </trkpt>
      <trkpt lat="45.94341" lon="4.71535">
        <ele>176</ele>
        <time>2018-07-12T08:30:12Z</time>
      </trkpt>
      <trkpt lat="45.9435" lon="4.71534">
        <ele>176</ele>
        <time>2018-07-12T08:30:14Z</time>
      </trkpt>
      <trkpt lat="45.94355" lon="4.71531">
        <ele>176</ele>
        <time>2018-07-12T08:30:15Z</time>
      </trkpt>
      <trkpt lat="45.94363" lon="4.71528">
        <ele>176</ele>
        <time>2018-07-12T08:30:17Z</time>
      </trkpt>
      <trkpt lat="45.94368" lon="4.71525">
        <ele>176</ele>
        <time>2018-07-12T08:30:18Z</time>
      </trkpt>
      <trkpt lat="45.94376" lon="4.71522">
        <ele>176</ele>
        <time>2018-07-12T08:30:20Z</time>
      </trkpt>
      <trkpt lat="45.94377" lon="4.71521">
        <ele>176</ele>
        <time>2018-07-12T08:30:21Z</time>
      </trkpt>
      <trkpt lat="45.94383" lon="4.7152">
        <ele>177</ele>
        <time>2018-07-12T08:30:23Z</time>
      </trkpt>
      <trkpt lat="45.94386" lon="4.71518">
        <ele>177</ele>
        <time>2018-07-12T08:30:24Z</time>
      </trkpt>
      <trkpt lat="45.94391" lon="4.71515">
        <ele>177</ele>
        <time>2018-07-12T08:30:26Z</time>
      </trkpt>
      <trkpt lat="45.94394" lon="4.71514">
        <ele>177</ele>
        <time>2018-07-12T08:30:27Z</time>
      </trkpt>
      <trkpt lat="45.94402" lon="4.71511">
        <ele>177</ele>
        <time>2018-07-12T08:30:30Z</time>
      </trkpt>
      <trkpt lat="45.94412" lon="4.71506">
        <ele>178</ele>
        <time>2018-07-12T08:30:31Z</time>
      </trkpt>
      <trkpt lat="45.94419" lon="4.715">
        <ele>178</ele>
        <time>2018-07-12T08:30:36Z</time>
      </trkpt>
      <trkpt lat="45.94432" lon="4.71494">
        <ele>178</ele>
        <time>2018-07-12T08:30:37Z</time>
      </trkpt>
      <trkpt lat="45.94439" lon="4.71493">
        <ele>178</ele>
        <time>2018-07-12T08:30:39Z</time>
      </trkpt>
      <trkpt lat="45.94445" lon="4.71491">
        <ele>179</ele>
        <time>2018-07-12T08:30:40Z</time>
      </trkpt>
      <trkpt lat="45.94451" lon="4.71489">
        <ele>179</ele>
        <time>2018-07-12T08:30:41Z</time>
      </trkpt>
      <trkpt lat="45.94458" lon="4.71484">
        <ele>179</ele>
        <time>2018-07-12T08:30:42Z</time>
      </trkpt>
      <trkpt lat="45.94463" lon="4.71482">
        <ele>179</ele>
        <time>2018-07-12T08:30:43Z</time>
      </trkpt>
      <trkpt lat="45.94467" lon="4.71479">
        <ele>179</ele>
        <time>2018-07-12T08:30:44Z</time>
      </trkpt>
      <trkpt lat="45.94473" lon="4.71477">
        <ele>179</ele>
        <time>2018-07-12T08:30:45Z</time>
      </trkpt>
      <trkpt lat="45.94477" lon="4.71477">
        <ele>179</ele>
        <time>2018-07-12T08:30:46Z</time>
      </trkpt>
      <trkpt lat="45.94482" lon="4.71474">
        <ele>179</ele>
        <time>2018-07-12T08:30:47Z</time>
      </trkpt>
      <trkpt lat="45.94487" lon="4.71471">
        <ele>179</ele>
        <time>2018-07-12T08:30:48Z</time>
      </trkpt>
      <trkpt lat="45.94495" lon="4.71469">
        <ele>179</ele>
        <time>2018-07-12T08:30:50Z</time>
      </trkpt>
      <trkpt lat="45.94499" lon="4.71468">
        <ele>179</ele>
        <time>2018-07-12T08:30:51Z</time>
      </trkpt>
      <trkpt lat="45.94503" lon="4.71466">
        <ele>179</ele>
        <time>2018-07-12T08:30:52Z</time>
      </trkpt>
      <trkpt lat="45.94507" lon="4.71464">
        <ele>180</ele>
        <time>2018-07-12T08:30:53Z</time>
      </trkpt>
      <trkpt lat="45.94513" lon="4.71461">
        <ele>180</ele>
        <time>2018-07-12T08:30:54Z</time>
      </trkpt>
      <trkpt lat="45.94519" lon="4.7146">
        <ele>180</ele>
        <time>2018-07-12T08:30:55Z</time>
      </trkpt>
      <trkpt lat="45.94525" lon="4.71455">
        <ele>180</ele>
        <time>2018-07-12T08:30:56Z</time>
      </trkpt>
      <trkpt lat="45.94531" lon="4.71454">
        <ele>180</ele>
        <time>2018-07-12T08:30:57Z</time>
      </trkpt>
      <trkpt lat="45.94537" lon="4.71451">
        <ele>180</ele>
        <time>2018-07-12T08:30:59Z</time>
      </trkpt>
      <trkpt lat="45.94541" lon="4.71451">
        <ele>180</ele>
        <time>2018-07-12T08:31:00Z</time>
      </trkpt>
      <trkpt lat="45.94546" lon="4.71449">
        <ele>180</ele>
        <time>2018-07-12T08:31:01Z</time>
      </trkpt>
      <trkpt lat="45.94552" lon="4.71446">
        <ele>181</ele>
        <time>2018-07-12T08:31:02Z</time>
      </trkpt>
      <trkpt lat="45.94558" lon="4.71447">
        <ele>181</ele>
        <time>2018-07-12T08:31:03Z</time>
      </trkpt>
      <trkpt lat="45.94565" lon="4.71445">
        <ele>181</ele>
        <time>2018-07-12T08:31:04Z</time>
      </trkpt>
      <trkpt lat="45.9457" lon="4.71445">
        <ele>181</ele>
        <time>2018-07-12T08:31:05Z</time>
      </trkpt>
      <trkpt lat="45.94575" lon="4.71445">
        <ele>181</ele>
        <time>2018-07-12T08:31:06Z</time>
      </trkpt>
      <trkpt lat="45.94581" lon="4.71447">
        <ele>181</ele>
        <time>2018-07-12T08:31:07Z</time>
      </trkpt>
      <trkpt lat="45.94588" lon="4.71446">
        <ele>181</ele>
        <time>2018-07-12T08:31:08Z</time>
      </trkpt>
      <trkpt lat="45.94595" lon="4.71445">
        <ele>181</ele>
        <time>2018-07-12T08:31:09Z</time>
      </trkpt>
      <trkpt lat="45.94599" lon="4.71446">
        <ele>181</ele>
        <time>2018-07-12T08:31:10Z</time>
      </trkpt>
      <trkpt lat="45.94605" lon="4.71446">
        <ele>181</ele>
        <time>2018-07-12T08:31:11Z</time>
      </trkpt>
      <trkpt lat="45.94611" lon="4.71446">
        <ele>181</ele>
        <time>2018-07-12T08:31:12Z</time>
      </trkpt>
      <trkpt lat="45.94617" lon="4.71447">
        <ele>181</ele>
        <time>2018-07-12T08:31:13Z</time>
      </trkpt>
      <trkpt lat="45.94622" lon="4.71447">
        <ele>181</ele>
        <time>2018-07-12T08:31:14Z</time>
      </trkpt>
      <trkpt lat="45.94627" lon="4.71448">
        <ele>181</ele>
        <time>2018-07-12T08:31:15Z</time>
      </trkpt>
      <trkpt lat="45.94632" lon="4.71449">
        <ele>181</ele>
        <time>2018-07-12T08:31:16Z</time>
      </trkpt>
      <trkpt lat="45.94638" lon="4.71449">
        <ele>181</ele>
        <time>2018-07-12T08:31:17Z</time>
      </trkpt>
      <trkpt lat="45.94644" lon="4.71449">
        <ele>181</ele>
        <time>2018-07-12T08:31:18Z</time>
      </trkpt>
      <trkpt lat="45.94649" lon="4.71449">
        <ele>181</ele>
        <time>2018-07-12T08:31:19Z</time>
      </trkpt>
      <trkpt lat="45.94655" lon="4.71449">
        <ele>181</ele>
        <time>2018-07-12T08:31:20Z</time>
      </trkpt>
      <trkpt lat="45.94661" lon="4.71451">
        <ele>181</ele>
        <time>2018-07-12T08:31:21Z</time>
      </trkpt>
      <trkpt lat="45.94666" lon="4.71451">
        <ele>181</ele>
        <time>2018-07-12T08:31:22Z</time>
      </trkpt>
      <trkpt lat="45.94673" lon="4.71451">
        <ele>182</ele>
        <time>2018-07-12T08:31:23Z</time>
      </trkpt>
      <trkpt lat="45.94679" lon="4.71451">
        <ele>182</ele>
        <time>2018-07-12T08:31:24Z</time>
      </trkpt>
      <trkpt lat="45.94686" lon="4.71452">
        <ele>182</ele>
        <time>2018-07-12T08:31:25Z</time>
      </trkpt>
      <trkpt lat="45.94691" lon="4.71452">
        <ele>182</ele>
        <time>2018-07-12T08:31:26Z</time>
      </trkpt>
      <trkpt lat="45.94696" lon="4.71455">
        <ele>182</ele>
        <time>2018-07-12T08:31:27Z</time>
      </trkpt>
      <trkpt lat="45.94702" lon="4.71457">
        <ele>181</ele>
        <time>2018-07-12T08:31:28Z</time>
      </trkpt>
      <trkpt lat="45.94707" lon="4.71458">
        <ele>181</ele>
        <time>2018-07-12T08:31:29Z</time>
      </trkpt>
      <trkpt lat="45.94712" lon="4.71459">
        <ele>182</ele>
        <time>2018-07-12T08:31:30Z</time>
      </trkpt>
      <trkpt lat="45.94717" lon="4.71459">
        <ele>182</ele>
        <time>2018-07-12T08:31:31Z</time>
      </trkpt>
      <trkpt lat="45.94721" lon="4.7146">
        <ele>182</ele>
        <time>2018-07-12T08:31:32Z</time>
      </trkpt>
      <trkpt lat="45.94726" lon="4.71462">
        <ele>182</ele>
        <time>2018-07-12T08:31:33Z</time>
      </trkpt>
      <trkpt lat="45.94733" lon="4.71461">
        <ele>182</ele>
        <time>2018-07-12T08:31:34Z</time>
      </trkpt>
      <trkpt lat="45.9474" lon="4.71462">
        <ele>182</ele>
        <time>2018-07-12T08:31:35Z</time>
      </trkpt>
      <trkpt lat="45.94746" lon="4.71462">
        <ele>182</ele>
        <time>2018-07-12T08:31:36Z</time>
      </trkpt>
      <trkpt lat="45.94752" lon="4.71462">
        <ele>183</ele>
        <time>2018-07-12T08:31:37Z</time>
      </trkpt>
      <trkpt lat="45.94758" lon="4.71463">
        <ele>183</ele>
        <time>2018-07-12T08:31:38Z</time>
      </trkpt>
      <trkpt lat="45.94764" lon="4.71463">
        <ele>183</ele>
        <time>2018-07-12T08:31:39Z</time>
      </trkpt>
      <trkpt lat="45.9477" lon="4.71463">
        <ele>183</ele>
        <time>2018-07-12T08:31:40Z</time>
      </trkpt>
      <trkpt lat="45.94776" lon="4.71463">
        <ele>183</ele>
        <time>2018-07-12T08:31:41Z</time>
      </trkpt>
      <trkpt lat="45.94784" lon="4.71463">
        <ele>183</ele>
        <time>2018-07-12T08:31:42Z</time>
      </trkpt>
      <trkpt lat="45.94789" lon="4.71464">
        <ele>183</ele>
        <time>2018-07-12T08:31:43Z</time>
      </trkpt>
      <trkpt lat="45.94794" lon="4.71465">
        <ele>183</ele>
        <time>2018-07-12T08:31:44Z</time>
      </trkpt>
      <trkpt lat="45.948" lon="4.71464">
        <ele>183</ele>
        <time>2018-07-12T08:31:45Z</time>
      </trkpt>
      <trkpt lat="45.94805" lon="4.71464">
        <ele>183</ele>
        <time>2018-07-12T08:31:46Z</time>
      </trkpt>
      <trkpt lat="45.94811" lon="4.71466">
        <ele>183</ele>
        <time>2018-07-12T08:31:47Z</time>
      </trkpt>
      <trkpt lat="45.94816" lon="4.71467">
        <ele>183</ele>
        <time>2018-07-12T08:31:48Z</time>
      </trkpt>
      <trkpt lat="45.94823" lon="4.71468">
        <ele>183</ele>
        <time>2018-07-12T08:31:49Z</time>
      </trkpt>
      <trkpt lat="45.94829" lon="4.71468">
        <ele>183</ele>
        <time>2018-07-12T08:31:50Z</time>
      </trkpt>
      <trkpt lat="45.94834" lon="4.7147">
        <ele>183</ele>
        <time>2018-07-12T08:31:51Z</time>
      </trkpt>
      <trkpt lat="45.94841" lon="4.71469">
        <ele>183</ele>
        <time>2018-07-12T08:31:52Z</time>
      </trkpt>
      <trkpt lat="45.94847" lon="4.7147">
        <ele>183</ele>
        <time>2018-07-12T08:31:53Z</time>
      </trkpt>
      <trkpt lat="45.94852" lon="4.71471">
        <ele>183</ele>
        <time>2018-07-12T08:31:54Z</time>
      </trkpt>
      <trkpt lat="45.94858" lon="4.71472">
        <ele>183</ele>
        <time>2018-07-12T08:31:55Z</time>
      </trkpt>
      <trkpt lat="45.94862" lon="4.71476">
        <ele>183</ele>
        <time>2018-07-12T08:31:56Z</time>
      </trkpt>
      <trkpt lat="45.94869" lon="4.71474">
        <ele>183</ele>
        <time>2018-07-12T08:31:57Z</time>
      </trkpt>
      <trkpt lat="45.94875" lon="4.71476">
        <ele>183</ele>
        <time>2018-07-12T08:31:58Z</time>
      </trkpt>
      <trkpt lat="45.94881" lon="4.71477">
        <ele>183</ele>
        <time>2018-07-12T08:31:59Z</time>
      </trkpt>
      <trkpt lat="45.94888" lon="4.71478">
        <ele>183</ele>
        <time>2018-07-12T08:32:00Z</time>
      </trkpt>
      <trkpt lat="45.94894" lon="4.71477">
        <ele>183</ele>
        <time>2018-07-12T08:32:01Z</time>
      </trkpt>
      <trkpt lat="45.949" lon="4.71478">
        <ele>182</ele>
        <time>2018-07-12T08:32:02Z</time>
      </trkpt>
      <trkpt lat="45.94904" lon="4.7148">
        <ele>182</ele>
        <time>2018-07-12T08:32:03Z</time>
      </trkpt>
      <trkpt lat="45.94911" lon="4.71479">
        <ele>182</ele>
        <time>2018-07-12T08:32:04Z</time>
      </trkpt>
      <trkpt lat="45.94916" lon="4.71479">
        <ele>182</ele>
        <time>2018-07-12T08:32:05Z</time>
      </trkpt>
      <trkpt lat="45.94921" lon="4.71479">
        <ele>182</ele>
        <time>2018-07-12T08:32:06Z</time>
      </trkpt>
      <trkpt lat="45.94926" lon="4.71478">
        <ele>182</ele>
        <time>2018-07-12T08:32:07Z</time>
      </trkpt>
      <trkpt lat="45.94932" lon="4.71477">
        <ele>182</ele>
        <time>2018-07-12T08:32:08Z</time>
      </trkpt>
      <trkpt lat="45.9494" lon="4.71478">
        <ele>183</ele>
        <time>2018-07-12T08:32:10Z</time>
      </trkpt>
      <trkpt lat="45.94945" lon="4.7148">
        <ele>183</ele>
        <time>2018-07-12T08:32:11Z</time>
      </trkpt>
      <trkpt lat="45.94952" lon="4.71487">
        <ele>182</ele>
        <time>2018-07-12T08:32:13Z</time>
      </trkpt>
      <trkpt lat="45.94956" lon="4.7149">
        <ele>182</ele>
        <time>2018-07-12T08:32:14Z</time>
      </trkpt>
      <trkpt lat="45.94961" lon="4.71492">
        <ele>182</ele>
        <time>2018-07-12T08:32:15Z</time>
      </trkpt>
      <trkpt lat="45.94966" lon="4.71492">
        <ele>182</ele>
        <time>2018-07-12T08:32:16Z</time>
      </trkpt>
      <trkpt lat="45.94973" lon="4.71489">
        <ele>182</ele>
        <time>2018-07-12T08:32:17Z</time>
      </trkpt>
      <trkpt lat="45.94979" lon="4.71486">
        <ele>182</ele>
        <time>2018-07-12T08:32:18Z</time>
      </trkpt>
      <trkpt lat="45.94984" lon="4.71483">
        <ele>182</ele>
        <time>2018-07-12T08:32:19Z</time>
      </trkpt>
      <trkpt lat="45.9499" lon="4.71482">
        <ele>182</ele>
        <time>2018-07-12T08:32:20Z</time>
      </trkpt>
      <trkpt lat="45.94997" lon="4.7148">
        <ele>182</ele>
        <time>2018-07-12T08:32:21Z</time>
      </trkpt>
      <trkpt lat="45.95002" lon="4.71479">
        <ele>181</ele>
        <time>2018-07-12T08:32:22Z</time>
      </trkpt>
      <trkpt lat="45.95008" lon="4.7148">
        <ele>181</ele>
        <time>2018-07-12T08:32:23Z</time>
      </trkpt>
      <trkpt lat="45.95013" lon="4.7148">
        <ele>181</ele>
        <time>2018-07-12T08:32:24Z</time>
      </trkpt>
      <trkpt lat="45.9502" lon="4.7148">
        <ele>181</ele>
        <time>2018-07-12T08:32:25Z</time>
      </trkpt>
      <trkpt lat="45.95025" lon="4.7148">
        <ele>181</ele>
        <time>2018-07-12T08:32:26Z</time>
      </trkpt>
      <trkpt lat="45.95031" lon="4.71482">
        <ele>181</ele>
        <time>2018-07-12T08:32:27Z</time>
      </trkpt>
      <trkpt lat="45.95038" lon="4.71482">
        <ele>181</ele>
        <time>2018-07-12T08:32:28Z</time>
      </trkpt>
      <trkpt lat="45.95047" lon="4.71482">
        <ele>181</ele>
        <time>2018-07-12T08:32:29Z</time>
      </trkpt>
      <trkpt lat="45.95054" lon="4.71485">
        <ele>181</ele>
        <time>2018-07-12T08:32:30Z</time>
      </trkpt>
      <trkpt lat="45.9506" lon="4.71488">
        <ele>181</ele>
        <time>2018-07-12T08:32:31Z</time>
      </trkpt>
      <trkpt lat="45.9507" lon="4.71491">
        <ele>180</ele>
        <time>2018-07-12T08:32:32Z</time>
      </trkpt>
      <trkpt lat="45.95078" lon="4.71487">
        <ele>180</ele>
        <time>2018-07-12T08:32:33Z</time>
      </trkpt>
      <trkpt lat="45.95087" lon="4.71486">
        <ele>179</ele>
        <time>2018-07-12T08:32:34Z</time>
      </trkpt>
      <trkpt lat="45.95097" lon="4.71484">
        <ele>179</ele>
        <time>2018-07-12T08:32:35Z</time>
      </trkpt>
      <trkpt lat="45.95106" lon="4.71484">
        <ele>179</ele>
        <time>2018-07-12T08:32:36Z</time>
      </trkpt>
      <trkpt lat="45.95113" lon="4.71484">
        <ele>179</ele>
        <time>2018-07-12T08:32:37Z</time>
      </trkpt>
      <trkpt lat="45.95122" lon="4.71486">
        <ele>178</ele>
        <time>2018-07-12T08:32:38Z</time>
      </trkpt>
      <trkpt lat="45.9513" lon="4.71486">
        <ele>178</ele>
        <time>2018-07-12T08:32:39Z</time>
      </trkpt>
      <trkpt lat="45.9514" lon="4.71485">
        <ele>178</ele>
        <time>2018-07-12T08:32:40Z</time>
      </trkpt>
      <trkpt lat="45.95146" lon="4.71487">
        <ele>178</ele>
        <time>2018-07-12T08:32:41Z</time>
      </trkpt>
      <trkpt lat="45.95157" lon="4.71487">
        <ele>178</ele>
        <time>2018-07-12T08:32:42Z</time>
      </trkpt>
      <trkpt lat="45.95164" lon="4.71488">
        <ele>178</ele>
        <time>2018-07-12T08:32:43Z</time>
      </trkpt>
      <trkpt lat="45.95173" lon="4.71489">
        <ele>177</ele>
        <time>2018-07-12T08:32:44Z</time>
      </trkpt>
      <trkpt lat="45.9518" lon="4.7149">
        <ele>177</ele>
        <time>2018-07-12T08:32:45Z</time>
      </trkpt>
      <trkpt lat="45.95189" lon="4.71491">
        <ele>177</ele>
        <time>2018-07-12T08:32:46Z</time>
      </trkpt>
      <trkpt lat="45.95196" lon="4.71494">
        <ele>177</ele>
        <time>2018-07-12T08:32:47Z</time>
      </trkpt>
      <trkpt lat="45.95204" lon="4.71492">
        <ele>177</ele>
        <time>2018-07-12T08:32:48Z</time>
      </trkpt>
      <trkpt lat="45.95212" lon="4.7149">
        <ele>177</ele>
        <time>2018-07-12T08:32:49Z</time>
      </trkpt>
      <trkpt lat="45.95218" lon="4.71494">
        <ele>177</ele>
        <time>2018-07-12T08:32:50Z</time>
      </trkpt>
      <trkpt lat="45.95225" lon="4.71495">
        <ele>177</ele>
        <time>2018-07-12T08:32:51Z</time>
      </trkpt>
      <trkpt lat="45.95236" lon="4.71494">
        <ele>177</ele>
        <time>2018-07-12T08:32:52Z</time>
      </trkpt>
      <trkpt lat="45.95243" lon="4.71494">
        <ele>177</ele>
        <time>2018-07-12T08:32:53Z</time>
      </trkpt>
      <trkpt lat="45.95252" lon="4.71494">
        <ele>177</ele>
        <time>2018-07-12T08:32:54Z</time>
      </trkpt>
      <trkpt lat="45.95259" lon="4.71495">
        <ele>177</ele>
        <time>2018-07-12T08:32:55Z</time>
      </trkpt>
      <trkpt lat="45.95265" lon="4.71496">
        <ele>176</ele>
        <time>2018-07-12T08:32:56Z</time>
      </trkpt>
      <trkpt lat="45.95273" lon="4.71498">
        <ele>176</ele>
        <time>2018-07-12T08:32:57Z</time>
      </trkpt>
      <trkpt lat="45.9528" lon="4.71499">
        <ele>176</ele>
        <time>2018-07-12T08:32:58Z</time>
      </trkpt>
      <trkpt lat="45.95289" lon="4.71498">
        <ele>176</ele>
        <time>2018-07-12T08:32:59Z</time>
      </trkpt>
      <trkpt lat="45.95296" lon="4.71502">
        <ele>175</ele>
        <time>2018-07-12T08:33:00Z</time>
      </trkpt>
      <trkpt lat="45.95304" lon="4.71502">
        <ele>174</ele>
        <time>2018-07-12T08:33:01Z</time>
      </trkpt>
      <trkpt lat="45.95311" lon="4.71502">
        <ele>174</ele>
        <time>2018-07-12T08:33:02Z</time>
      </trkpt>
      <trkpt lat="45.9532" lon="4.71502">
        <ele>174</ele>
        <time>2018-07-12T08:33:03Z</time>
      </trkpt>
      <trkpt lat="45.95326" lon="4.71502">
        <ele>174</ele>
        <time>2018-07-12T08:33:04Z</time>
      </trkpt>
      <trkpt lat="45.95332" lon="4.71501">
        <ele>174</ele>
        <time>2018-07-12T08:33:05Z</time>
      </trkpt>
      <trkpt lat="45.9534" lon="4.71498">
        <ele>174</ele>
        <time>2018-07-12T08:33:06Z</time>
      </trkpt>
      <trkpt lat="45.95347" lon="4.71498">
        <ele>174</ele>
        <time>2018-07-12T08:33:07Z</time>
      </trkpt>
      <trkpt lat="45.95354" lon="4.71498">
        <ele>175</ele>
        <time>2018-07-12T08:33:08Z</time>
      </trkpt>
      <trkpt lat="45.95361" lon="4.71499">
        <ele>175</ele>
        <time>2018-07-12T08:33:09Z</time>
      </trkpt>
      <trkpt lat="45.95367" lon="4.71499">
        <ele>175</ele>
        <time>2018-07-12T08:33:10Z</time>
      </trkpt>
      <trkpt lat="45.95373" lon="4.71501">
        <ele>174</ele>
        <time>2018-07-12T08:33:11Z</time>
      </trkpt>
      <trkpt lat="45.95381" lon="4.71501">
        <ele>174</ele>
        <time>2018-07-12T08:33:12Z</time>
      </trkpt>
      <trkpt lat="45.95388" lon="4.71501">
        <ele>174</ele>
        <time>2018-07-12T08:33:13Z</time>
      </trkpt>
      <trkpt lat="45.95394" lon="4.71502">
        <ele>174</ele>
        <time>2018-07-12T08:33:14Z</time>
      </trkpt>
      <trkpt lat="45.95399" lon="4.71503">
        <ele>174</ele>
        <time>2018-07-12T08:33:15Z</time>
      </trkpt>
      <trkpt lat="45.95407" lon="4.71503">
        <ele>174</ele>
        <time>2018-07-12T08:33:16Z</time>
      </trkpt>
      <trkpt lat="45.95415" lon="4.71504">
        <ele>174</ele>
        <time>2018-07-12T08:33:17Z</time>
      </trkpt>
      <trkpt lat="45.95421" lon="4.71504">
        <ele>174</ele>
        <time>2018-07-12T08:33:18Z</time>
      </trkpt>
      <trkpt lat="45.95428" lon="4.71503">
        <ele>174</ele>
        <time>2018-07-12T08:33:19Z</time>
      </trkpt>
      <trkpt lat="45.95434" lon="4.71503">
        <ele>175</ele>
        <time>2018-07-12T08:33:20Z</time>
      </trkpt>
      <trkpt lat="45.9544" lon="4.71505">
        <ele>175</ele>
        <time>2018-07-12T08:33:21Z</time>
      </trkpt>
      <trkpt lat="45.95447" lon="4.71507">
        <ele>175</ele>
        <time>2018-07-12T08:33:22Z</time>
      </trkpt>
      <trkpt lat="45.95454" lon="4.71508">
        <ele>175</ele>
        <time>2018-07-12T08:33:23Z</time>
      </trkpt>
      <trkpt lat="45.95461" lon="4.71509">
        <ele>175</ele>
        <time>2018-07-12T08:33:24Z</time>
      </trkpt>
      <trkpt lat="45.95467" lon="4.71509">
        <ele>175</ele>
        <time>2018-07-12T08:33:25Z</time>
      </trkpt>
      <trkpt lat="45.95473" lon="4.7151">
        <ele>176</ele>
        <time>2018-07-12T08:33:26Z</time>
      </trkpt>
      <trkpt lat="45.95477" lon="4.71511">
        <ele>176</ele>
        <time>2018-07-12T08:33:27Z</time>
      </trkpt>
      <trkpt lat="45.95482" lon="4.71512">
        <ele>176</ele>
        <time>2018-07-12T08:33:28Z</time>
      </trkpt>
      <trkpt lat="45.9549" lon="4.71513">
        <ele>176</ele>
        <time>2018-07-12T08:33:29Z</time>
      </trkpt>
      <trkpt lat="45.95496" lon="4.71512">
        <ele>176</ele>
        <time>2018-07-12T08:33:30Z</time>
      </trkpt>
      <trkpt lat="45.95502" lon="4.71513">
        <ele>177</ele>
        <time>2018-07-12T08:33:31Z</time>
      </trkpt>
      <trkpt lat="45.95506" lon="4.71513">
        <ele>177</ele>
        <time>2018-07-12T08:33:32Z</time>
      </trkpt>
      <trkpt lat="45.95512" lon="4.71514">
        <ele>177</ele>
        <time>2018-07-12T08:33:33Z</time>
      </trkpt>
      <trkpt lat="45.95517" lon="4.71514">
        <ele>177</ele>
        <time>2018-07-12T08:33:34Z</time>
      </trkpt>
      <trkpt lat="45.95523" lon="4.71515">
        <ele>177</ele>
        <time>2018-07-12T08:33:35Z</time>
      </trkpt>
      <trkpt lat="45.95529" lon="4.71515">
        <ele>177</ele>
        <time>2018-07-12T08:33:36Z</time>
      </trkpt>
      <trkpt lat="45.95534" lon="4.71514">
        <ele>177</ele>
        <time>2018-07-12T08:33:37Z</time>
      </trkpt>
      <trkpt lat="45.95542" lon="4.71515">
        <ele>177</ele>
        <time>2018-07-12T08:33:38Z</time>
      </trkpt>
      <trkpt lat="45.95548" lon="4.71516">
        <ele>178</ele>
        <time>2018-07-12T08:33:39Z</time>
      </trkpt>
      <trkpt lat="45.95554" lon="4.71517">
        <ele>178</ele>
        <time>2018-07-12T08:33:40Z</time>
      </trkpt>
      <trkpt lat="45.9556" lon="4.71517">
        <ele>178</ele>
        <time>2018-07-12T08:33:41Z</time>
      </trkpt>
      <trkpt lat="45.95563" lon="4.71517">
        <ele>178</ele>
        <time>2018-07-12T08:33:42Z</time>
      </trkpt>
      <trkpt lat="45.95569" lon="4.71518">
        <ele>178</ele>
        <time>2018-07-12T08:33:43Z</time>
      </trkpt>
      <trkpt lat="45.95574" lon="4.71519">
        <ele>178</ele>
        <time>2018-07-12T08:33:44Z</time>
      </trkpt>
      <trkpt lat="45.95579" lon="4.71519">
        <ele>178</ele>
        <time>2018-07-12T08:33:45Z</time>
      </trkpt>
      <trkpt lat="45.95584" lon="4.71519">
        <ele>179</ele>
        <time>2018-07-12T08:33:46Z</time>
      </trkpt>
      <trkpt lat="45.9559" lon="4.71519">
        <ele>179</ele>
        <time>2018-07-12T08:33:47Z</time>
      </trkpt>
      <trkpt lat="45.95595" lon="4.7152">
        <ele>179</ele>
        <time>2018-07-12T08:33:48Z</time>
      </trkpt>
      <trkpt lat="45.956" lon="4.71519">
        <ele>179</ele>
        <time>2018-07-12T08:33:49Z</time>
      </trkpt>
      <trkpt lat="45.95605" lon="4.71519">
        <ele>179</ele>
        <time>2018-07-12T08:33:50Z</time>
      </trkpt>
      <trkpt lat="45.95612" lon="4.7152">
        <ele>179</ele>
        <time>2018-07-12T08:33:51Z</time>
      </trkpt>
      <trkpt lat="45.95616" lon="4.71521">
        <ele>179</ele>
        <time>2018-07-12T08:33:52Z</time>
      </trkpt>
      <trkpt lat="45.95621" lon="4.71522">
        <ele>179</ele>
        <time>2018-07-12T08:33:53Z</time>
      </trkpt>
      <trkpt lat="45.95627" lon="4.71523">
        <ele>179</ele>
        <time>2018-07-12T08:33:54Z</time>
      </trkpt>
      <trkpt lat="45.95632" lon="4.71524">
        <ele>179</ele>
        <time>2018-07-12T08:33:55Z</time>
      </trkpt>
      <trkpt lat="45.95637" lon="4.71524">
        <ele>179</ele>
        <time>2018-07-12T08:33:56Z</time>
      </trkpt>
      <trkpt lat="45.95643" lon="4.71525">
        <ele>179</ele>
        <time>2018-07-12T08:33:57Z</time>
      </trkpt>
      <trkpt lat="45.95648" lon="4.71525">
        <ele>180</ele>
        <time>2018-07-12T08:33:58Z</time>
      </trkpt>
      <trkpt lat="45.95656" lon="4.71525">
        <ele>180</ele>
        <time>2018-07-12T08:34:00Z</time>
      </trkpt>
      <trkpt lat="45.95662" lon="4.71523">
        <ele>180</ele>
        <time>2018-07-12T08:34:01Z</time>
      </trkpt>
      <trkpt lat="45.95669" lon="4.71524">
        <ele>180</ele>
        <time>2018-07-12T08:34:02Z</time>
      </trkpt>
      <trkpt lat="45.95674" lon="4.71524">
        <ele>180</ele>
        <time>2018-07-12T08:34:03Z</time>
      </trkpt>
      <trkpt lat="45.95682" lon="4.71522">
        <ele>180</ele>
        <time>2018-07-12T08:34:05Z</time>
      </trkpt>
      <trkpt lat="45.95688" lon="4.71521">
        <ele>180</ele>
        <time>2018-07-12T08:34:06Z</time>
      </trkpt>
      <trkpt lat="45.95693" lon="4.7152">
        <ele>180</ele>
        <time>2018-07-12T08:34:07Z</time>
      </trkpt>
      <trkpt lat="45.95699" lon="4.7152">
        <ele>180</ele>
        <time>2018-07-12T08:34:08Z</time>
      </trkpt>
      <trkpt lat="45.95704" lon="4.71521">
        <ele>180</ele>
        <time>2018-07-12T08:34:09Z</time>
      </trkpt>
      <trkpt lat="45.95709" lon="4.71521">
        <ele>180</ele>
        <time>2018-07-12T08:34:10Z</time>
      </trkpt>
      <trkpt lat="45.95717" lon="4.71522">
        <ele>180</ele>
        <time>2018-07-12T08:34:12Z</time>
      </trkpt>
      <trkpt lat="45.95722" lon="4.71524">
        <ele>180</ele>
        <time>2018-07-12T08:34:13Z</time>
      </trkpt>
      <trkpt lat="45.95727" lon="4.71525">
        <ele>180</ele>
        <time>2018-07-12T08:34:14Z</time>
      </trkpt>
      <trkpt lat="45.95732" lon="4.71525">
        <ele>180</ele>
        <time>2018-07-12T08:34:15Z</time>
      </trkpt>
      <trkpt lat="45.95737" lon="4.71527">
        <ele>180</ele>
        <time>2018-07-12T08:34:16Z</time>
      </trkpt>
      <trkpt lat="45.95742" lon="4.71529">
        <ele>180</ele>
        <time>2018-07-12T08:34:17Z</time>
      </trkpt>
      <trkpt lat="45.95746" lon="4.71532">
        <ele>180</ele>
        <time>2018-07-12T08:34:18Z</time>
      </trkpt>
      <trkpt lat="45.95751" lon="4.71533">
        <ele>180</ele>
        <time>2018-07-12T08:34:19Z</time>
      </trkpt>
      <trkpt lat="45.95756" lon="4.71534">
        <ele>180</ele>
        <time>2018-07-12T08:34:20Z</time>
      </trkpt>
      <trkpt lat="45.95762" lon="4.71534">
        <ele>180</ele>
        <time>2018-07-12T08:34:21Z</time>
      </trkpt>
      <trkpt lat="45.95767" lon="4.71535">
        <ele>180</ele>
        <time>2018-07-12T08:34:22Z</time>
      </trkpt>
      <trkpt lat="45.95773" lon="4.71534">
        <ele>180</ele>
        <time>2018-07-12T08:34:23Z</time>
      </trkpt>
      <trkpt lat="45.95779" lon="4.71534">
        <ele>180</ele>
        <time>2018-07-12T08:34:24Z</time>
      </trkpt>
      <trkpt lat="45.95784" lon="4.71534">
        <ele>180</ele>
        <time>2018-07-12T08:34:25Z</time>
      </trkpt>
      <trkpt lat="45.95789" lon="4.71535">
        <ele>180</ele>
        <time>2018-07-12T08:34:26Z</time>
      </trkpt>
      <trkpt lat="45.95795" lon="4.71532">
        <ele>181</ele>
        <time>2018-07-12T08:34:27Z</time>
      </trkpt>
      <trkpt lat="45.95802" lon="4.7153">
        <ele>181</ele>
        <time>2018-07-12T08:34:29Z</time>
      </trkpt>
      <trkpt lat="45.95809" lon="4.7153">
        <ele>181</ele>
        <time>2018-07-12T08:34:30Z</time>
      </trkpt>
      <trkpt lat="45.95814" lon="4.7153">
        <ele>181</ele>
        <time>2018-07-12T08:34:31Z</time>
      </trkpt>
      <trkpt lat="45.95819" lon="4.71532">
        <ele>181</ele>
        <time>2018-07-12T08:34:32Z</time>
      </trkpt>
      <trkpt lat="45.95823" lon="4.71533">
        <ele>181</ele>
        <time>2018-07-12T08:34:33Z</time>
      </trkpt>
      <trkpt lat="45.95829" lon="4.71535">
        <ele>181</ele>
        <time>2018-07-12T08:34:34Z</time>
      </trkpt>
      <trkpt lat="45.95834" lon="4.71536">
        <ele>181</ele>
        <time>2018-07-12T08:34:35Z</time>
      </trkpt>
      <trkpt lat="45.95838" lon="4.71537">
        <ele>181</ele>
        <time>2018-07-12T08:34:36Z</time>
      </trkpt>
      <trkpt lat="45.95843" lon="4.71537">
        <ele>181</ele>
        <time>2018-07-12T08:34:37Z</time>
      </trkpt>
      <trkpt lat="45.95847" lon="4.71538">
        <ele>181</ele>
        <time>2018-07-12T08:34:38Z</time>
      </trkpt>
      <trkpt lat="45.95851" lon="4.71539">
        <ele>181</ele>
        <time>2018-07-12T08:34:39Z</time>
      </trkpt>
      <trkpt lat="45.95856" lon="4.7154">
        <ele>181</ele>
        <time>2018-07-12T08:34:40Z</time>
      </trkpt>
      <trkpt lat="45.95862" lon="4.7154">
        <ele>181</ele>
        <time>2018-07-12T08:34:41Z</time>
      </trkpt>
      <trkpt lat="45.95865" lon="4.7154">
        <ele>181</ele>
        <time>2018-07-12T08:34:42Z</time>
      </trkpt>
      <trkpt lat="45.95873" lon="4.71541">
        <ele>181</ele>
        <time>2018-07-12T08:34:44Z</time>
      </trkpt>
      <trkpt lat="45.95879" lon="4.71541">
        <ele>181</ele>
        <time>2018-07-12T08:34:45Z</time>
      </trkpt>
      <trkpt lat="45.95884" lon="4.71542">
        <ele>181</ele>
        <time>2018-07-12T08:34:46Z</time>
      </trkpt>
      <trkpt lat="45.9589" lon="4.71541">
        <ele>181</ele>
        <time>2018-07-12T08:34:47Z</time>
      </trkpt>
      <trkpt lat="45.95895" lon="4.71541">
        <ele>181</ele>
        <time>2018-07-12T08:34:48Z</time>
      </trkpt>
      <trkpt lat="45.959" lon="4.71541">
        <ele>181</ele>
        <time>2018-07-12T08:34:49Z</time>
      </trkpt>
      <trkpt lat="45.95904" lon="4.71542">
        <ele>181</ele>
        <time>2018-07-12T08:34:50Z</time>
      </trkpt>
      <trkpt lat="45.9591" lon="4.71543">
        <ele>181</ele>
        <time>2018-07-12T08:34:51Z</time>
      </trkpt>
      <trkpt lat="45.95916" lon="4.71543">
        <ele>181</ele>
        <time>2018-07-12T08:34:52Z</time>
      </trkpt>
      <trkpt lat="45.95921" lon="4.71543">
        <ele>183</ele>
        <time>2018-07-12T08:34:53Z</time>
      </trkpt>
      <trkpt lat="45.95929" lon="4.71544">
        <ele>183</ele>
        <time>2018-07-12T08:34:55Z</time>
      </trkpt>
      <trkpt lat="45.95932" lon="4.71545">
        <ele>183</ele>
        <time>2018-07-12T08:34:56Z</time>
      </trkpt>
      <trkpt lat="45.9594" lon="4.71546">
        <ele>183</ele>
        <time>2018-07-12T08:34:58Z</time>
      </trkpt>
      <trkpt lat="45.95944" lon="4.71547">
        <ele>183</ele>
        <time>2018-07-12T08:34:59Z</time>
      </trkpt>
      <trkpt lat="45.95952" lon="4.71547">
        <ele>183</ele>
        <time>2018-07-12T08:35:01Z</time>
      </trkpt>
      <trkpt lat="45.95957" lon="4.71548">
        <ele>183</ele>
        <time>2018-07-12T08:35:02Z</time>
      </trkpt>
      <trkpt lat="45.95962" lon="4.71548">
        <ele>183</ele>
        <time>2018-07-12T08:35:04Z</time>
      </trkpt>
      <trkpt lat="45.95969" lon="4.71549">
        <ele>183</ele>
        <time>2018-07-12T08:35:05Z</time>
      </trkpt>
      <trkpt lat="45.95974" lon="4.71551">
        <ele>183</ele>
        <time>2018-07-12T08:35:06Z</time>
      </trkpt>
      <trkpt lat="45.95979" lon="4.71552">
        <ele>183</ele>
        <time>2018-07-12T08:35:07Z</time>
      </trkpt>
      <trkpt lat="45.95984" lon="4.71551">
        <ele>183</ele>
        <time>2018-07-12T08:35:08Z</time>
      </trkpt>
      <trkpt lat="45.95988" lon="4.71551">
        <ele>183</ele>
        <time>2018-07-12T08:35:09Z</time>
      </trkpt>
      <trkpt lat="45.95993" lon="4.71549">
        <ele>183</ele>
        <time>2018-07-12T08:35:10Z</time>
      </trkpt>
      <trkpt lat="45.95997" lon="4.71546">
        <ele>184</ele>
        <time>2018-07-12T08:35:11Z</time>
      </trkpt>
      <trkpt lat="45.96002" lon="4.71543">
        <ele>185</ele>
        <time>2018-07-12T08:35:12Z</time>
      </trkpt>
      <trkpt lat="45.96007" lon="4.71541">
        <ele>185</ele>
        <time>2018-07-12T08:35:13Z</time>
      </trkpt>
      <trkpt lat="45.96011" lon="4.7154">
        <ele>185</ele>
        <time>2018-07-12T08:35:14Z</time>
      </trkpt>
      <trkpt lat="45.96017" lon="4.7154">
        <ele>185</ele>
        <time>2018-07-12T08:35:15Z</time>
      </trkpt>
      <trkpt lat="45.96021" lon="4.71541">
        <ele>185</ele>
        <time>2018-07-12T08:35:16Z</time>
      </trkpt>
      <trkpt lat="45.96028" lon="4.71539">
        <ele>185</ele>
        <time>2018-07-12T08:35:17Z</time>
      </trkpt>
      <trkpt lat="45.96036" lon="4.71541">
        <ele>185</ele>
        <time>2018-07-12T08:35:19Z</time>
      </trkpt>
      <trkpt lat="45.96038" lon="4.71542">
        <ele>185</ele>
        <time>2018-07-12T08:35:20Z</time>
      </trkpt>
      <trkpt lat="45.96045" lon="4.71542">
        <ele>185</ele>
        <time>2018-07-12T08:35:22Z</time>
      </trkpt>
      <trkpt lat="45.9605" lon="4.71544">
        <ele>185</ele>
        <time>2018-07-12T08:35:23Z</time>
      </trkpt>
      <trkpt lat="45.96058" lon="4.71544">
        <ele>185</ele>
        <time>2018-07-12T08:35:25Z</time>
      </trkpt>
      <trkpt lat="45.96063" lon="4.71549">
        <ele>185</ele>
        <time>2018-07-12T08:35:26Z</time>
      </trkpt>
      <trkpt lat="45.96067" lon="4.7155">
        <ele>185</ele>
        <time>2018-07-12T08:35:27Z</time>
      </trkpt>
      <trkpt lat="45.96072" lon="4.7155">
        <ele>185</ele>
        <time>2018-07-12T08:35:28Z</time>
      </trkpt>
      <trkpt lat="45.96078" lon="4.71551">
        <ele>185</ele>
        <time>2018-07-12T08:35:29Z</time>
      </trkpt>
      <trkpt lat="45.96083" lon="4.7155">
        <ele>185</ele>
        <time>2018-07-12T08:35:30Z</time>
      </trkpt>
      <trkpt lat="45.96089" lon="4.71552">
        <ele>185</ele>
        <time>2018-07-12T08:35:31Z</time>
      </trkpt>
      <trkpt lat="45.96094" lon="4.71553">
        <ele>185</ele>
        <time>2018-07-12T08:35:32Z</time>
      </trkpt>
      <trkpt lat="45.961" lon="4.71554">
        <ele>184</ele>
        <time>2018-07-12T08:35:33Z</time>
      </trkpt>
      <trkpt lat="45.96106" lon="4.71554">
        <ele>184</ele>
        <time>2018-07-12T08:35:34Z</time>
      </trkpt>
      <trkpt lat="45.96112" lon="4.71555">
        <ele>184</ele>
        <time>2018-07-12T08:35:35Z</time>
      </trkpt>
      <trkpt lat="45.96117" lon="4.71556">
        <ele>184</ele>
        <time>2018-07-12T08:35:36Z</time>
      </trkpt>
      <trkpt lat="45.96123" lon="4.71558">
        <ele>184</ele>
        <time>2018-07-12T08:35:37Z</time>
      </trkpt>
      <trkpt lat="45.96127" lon="4.71558">
        <ele>184</ele>
        <time>2018-07-12T08:35:38Z</time>
      </trkpt>
      <trkpt lat="45.96133" lon="4.71558">
        <ele>184</ele>
        <time>2018-07-12T08:35:39Z</time>
      </trkpt>
      <trkpt lat="45.96139" lon="4.71558">
        <ele>184</ele>
        <time>2018-07-12T08:35:40Z</time>
      </trkpt>
      <trkpt lat="45.96144" lon="4.7156">
        <ele>184</ele>
        <time>2018-07-12T08:35:41Z</time>
      </trkpt>
      <trkpt lat="45.96149" lon="4.71561">
        <ele>183</ele>
        <time>2018-07-12T08:35:42Z</time>
      </trkpt>
      <trkpt lat="45.96154" lon="4.71561">
        <ele>183</ele>
        <time>2018-07-12T08:35:43Z</time>
      </trkpt>
      <trkpt lat="45.96161" lon="4.71562">
        <ele>183</ele>
        <time>2018-07-12T08:35:44Z</time>
      </trkpt>
      <trkpt lat="45.96166" lon="4.71562">
        <ele>183</ele>
        <time>2018-07-12T08:35:45Z</time>
      </trkpt>
      <trkpt lat="45.96171" lon="4.71564">
        <ele>182</ele>
        <time>2018-07-12T08:35:46Z</time>
      </trkpt>
      <trkpt lat="45.96177" lon="4.71564">
        <ele>183</ele>
        <time>2018-07-12T08:35:47Z</time>
      </trkpt>
      <trkpt lat="45.96183" lon="4.71564">
        <ele>183</ele>
        <time>2018-07-12T08:35:48Z</time>
      </trkpt>
      <trkpt lat="45.9619" lon="4.71564">
        <ele>183</ele>
        <time>2018-07-12T08:35:49Z</time>
      </trkpt>
      <trkpt lat="45.96195" lon="4.71566">
        <ele>183</ele>
        <time>2018-07-12T08:35:50Z</time>
      </trkpt>
      <trkpt lat="45.96201" lon="4.71566">
        <ele>183</ele>
        <time>2018-07-12T08:35:51Z</time>
      </trkpt>
      <trkpt lat="45.96207" lon="4.71568">
        <ele>183</ele>
        <time>2018-07-12T08:35:52Z</time>
      </trkpt>
      <trkpt lat="45.96212" lon="4.71569">
        <ele>183</ele>
        <time>2018-07-12T08:35:53Z</time>
      </trkpt>
      <trkpt lat="45.96217" lon="4.7157">
        <ele>183</ele>
        <time>2018-07-12T08:35:54Z</time>
      </trkpt>
      <trkpt lat="45.96222" lon="4.71571">
        <ele>183</ele>
        <time>2018-07-12T08:35:55Z</time>
      </trkpt>
      <trkpt lat="45.96227" lon="4.71571">
        <ele>183</ele>
        <time>2018-07-12T08:35:56Z</time>
      </trkpt>
      <trkpt lat="45.96232" lon="4.71572">
        <ele>183</ele>
        <time>2018-07-12T08:35:57Z</time>
      </trkpt>
      <trkpt lat="45.96237" lon="4.71573">
        <ele>183</ele>
        <time>2018-07-12T08:35:58Z</time>
      </trkpt>
      <trkpt lat="45.96242" lon="4.71575">
        <ele>182</ele>
        <time>2018-07-12T08:35:59Z</time>
      </trkpt>
      <trkpt lat="45.96247" lon="4.71576">
        <ele>182</ele>
        <time>2018-07-12T08:36:00Z</time>
      </trkpt>
      <trkpt lat="45.96253" lon="4.71577">
        <ele>182</ele>
        <time>2018-07-12T08:36:01Z</time>
      </trkpt>
      <trkpt lat="45.96259" lon="4.71578">
        <ele>182</ele>
        <time>2018-07-12T08:36:02Z</time>
      </trkpt>
      <trkpt lat="45.96267" lon="4.71578">
        <ele>183</ele>
        <time>2018-07-12T08:36:03Z</time>
      </trkpt>
      <trkpt lat="45.96273" lon="4.71579">
        <ele>183</ele>
        <time>2018-07-12T08:36:04Z</time>
      </trkpt>
      <trkpt lat="45.96279" lon="4.7158">
        <ele>184</ele>
        <time>2018-07-12T08:36:05Z</time>
      </trkpt>
      <trkpt lat="45.96285" lon="4.71581">
        <ele>184</ele>
        <time>2018-07-12T08:36:06Z</time>
      </trkpt>
      <trkpt lat="45.9629" lon="4.71582">
        <ele>184</ele>
        <time>2018-07-12T08:36:07Z</time>
      </trkpt>
      <trkpt lat="45.96295" lon="4.71582">
        <ele>184</ele>
        <time>2018-07-12T08:36:08Z</time>
      </trkpt>
      <trkpt lat="45.96302" lon="4.7158">
        <ele>184</ele>
        <time>2018-07-12T08:36:09Z</time>
      </trkpt>
      <trkpt lat="45.96306" lon="4.71581">
        <ele>184</ele>
        <time>2018-07-12T08:36:10Z</time>
      </trkpt>
      <trkpt lat="45.96312" lon="4.71581">
        <ele>184</ele>
        <time>2018-07-12T08:36:11Z</time>
      </trkpt>
      <trkpt lat="45.96318" lon="4.71582">
        <ele>184</ele>
        <time>2018-07-12T08:36:12Z</time>
      </trkpt>
      <trkpt lat="45.96324" lon="4.71584">
        <ele>182</ele>
        <time>2018-07-12T08:36:13Z</time>
      </trkpt>
      <trkpt lat="45.9633" lon="4.71586">
        <ele>183</ele>
        <time>2018-07-12T08:36:14Z</time>
      </trkpt>
      <trkpt lat="45.96336" lon="4.71587">
        <ele>183</ele>
        <time>2018-07-12T08:36:15Z</time>
      </trkpt>
      <trkpt lat="45.96342" lon="4.71586">
        <ele>183</ele>
        <time>2018-07-12T08:36:16Z</time>
      </trkpt>
      <trkpt lat="45.96348" lon="4.71587">
        <ele>182</ele>
        <time>2018-07-12T08:36:17Z</time>
      </trkpt>
      <trkpt lat="45.96355" lon="4.71586">
        <ele>182</ele>
        <time>2018-07-12T08:36:18Z</time>
      </trkpt>
      <trkpt lat="45.96361" lon="4.71587">
        <ele>182</ele>
        <time>2018-07-12T08:36:19Z</time>
      </trkpt>
      <trkpt lat="45.96367" lon="4.71588">
        <ele>182</ele>
        <time>2018-07-12T08:36:20Z</time>
      </trkpt>
      <trkpt lat="45.96373" lon="4.7159">
        <ele>182</ele>
        <time>2018-07-12T08:36:21Z</time>
      </trkpt>
      <trkpt lat="45.96378" lon="4.7159">
        <ele>182</ele>
        <time>2018-07-12T08:36:22Z</time>
      </trkpt>
      <trkpt lat="45.96385" lon="4.71591">
        <ele>183</ele>
        <time>2018-07-12T08:36:23Z</time>
      </trkpt>
      <trkpt lat="45.96391" lon="4.71592">
        <ele>183</ele>
        <time>2018-07-12T08:36:24Z</time>
      </trkpt>
      <trkpt lat="45.96396" lon="4.71594">
        <ele>183</ele>
        <time>2018-07-12T08:36:25Z</time>
      </trkpt>
      <trkpt lat="45.96402" lon="4.71595">
        <ele>183</ele>
        <time>2018-07-12T08:36:26Z</time>
      </trkpt>
      <trkpt lat="45.96407" lon="4.71596">
        <ele>183</ele>
        <time>2018-07-12T08:36:27Z</time>
      </trkpt>
      <trkpt lat="45.96413" lon="4.71597">
        <ele>183</ele>
        <time>2018-07-12T08:36:28Z</time>
      </trkpt>
      <trkpt lat="45.96419" lon="4.71599">
        <ele>184</ele>
        <time>2018-07-12T08:36:29Z</time>
      </trkpt>
      <trkpt lat="45.96426" lon="4.716">
        <ele>184</ele>
        <time>2018-07-12T08:36:30Z</time>
      </trkpt>
      <trkpt lat="45.9643" lon="4.71601">
        <ele>184</ele>
        <time>2018-07-12T08:36:31Z</time>
      </trkpt>
      <trkpt lat="45.96435" lon="4.71602">
        <ele>183</ele>
        <time>2018-07-12T08:36:32Z</time>
      </trkpt>
      <trkpt lat="45.96442" lon="4.71603">
        <ele>183</ele>
        <time>2018-07-12T08:36:33Z</time>
      </trkpt>
      <trkpt lat="45.96447" lon="4.71605">
        <ele>183</ele>
        <time>2018-07-12T08:36:34Z</time>
      </trkpt>
      <trkpt lat="45.96453" lon="4.71606">
        <ele>183</ele>
        <time>2018-07-12T08:36:35Z</time>
      </trkpt>
      <trkpt lat="45.96459" lon="4.71606">
        <ele>183</ele>
        <time>2018-07-12T08:36:36Z</time>
      </trkpt>
      <trkpt lat="45.96465" lon="4.71607">
        <ele>183</ele>
        <time>2018-07-12T08:36:37Z</time>
      </trkpt>
      <trkpt lat="45.9647" lon="4.71608">
        <ele>183</ele>
        <time>2018-07-12T08:36:38Z</time>
      </trkpt>
      <trkpt lat="45.96475" lon="4.71609">
        <ele>183</ele>
        <time>2018-07-12T08:36:39Z</time>
      </trkpt>
      <trkpt lat="45.9648" lon="4.71611">
        <ele>183</ele>
        <time>2018-07-12T08:36:40Z</time>
      </trkpt>
      <trkpt lat="45.96489" lon="4.71611">
        <ele>183</ele>
        <time>2018-07-12T08:36:42Z</time>
      </trkpt>
      <trkpt lat="45.96494" lon="4.71611">
        <ele>183</ele>
        <time>2018-07-12T08:36:43Z</time>
      </trkpt>
      <trkpt lat="45.96501" lon="4.71613">
        <ele>184</ele>
        <time>2018-07-12T08:36:45Z</time>
      </trkpt>
      <trkpt lat="45.96506" lon="4.71614">
        <ele>184</ele>
        <time>2018-07-12T08:36:46Z</time>
      </trkpt>
      <trkpt lat="45.96512" lon="4.71621">
        <ele>184</ele>
        <time>2018-07-12T08:36:48Z</time>
      </trkpt>
      <trkpt lat="45.96515" lon="4.71625">
        <ele>184</ele>
        <time>2018-07-12T08:36:49Z</time>
      </trkpt>
      <trkpt lat="45.96519" lon="4.7163">
        <ele>184</ele>
        <time>2018-07-12T08:36:50Z</time>
      </trkpt>
      <trkpt lat="45.96524" lon="4.71634">
        <ele>184</ele>
        <time>2018-07-12T08:36:51Z</time>
      </trkpt>
      <trkpt lat="45.96528" lon="4.71637">
        <ele>184</ele>
        <time>2018-07-12T08:36:52Z</time>
      </trkpt>
      <trkpt lat="45.96534" lon="4.71637">
        <ele>184</ele>
        <time>2018-07-12T08:36:53Z</time>
      </trkpt>
      <trkpt lat="45.9654" lon="4.71636">
        <ele>184</ele>
        <time>2018-07-12T08:36:54Z</time>
      </trkpt>
      <trkpt lat="45.96545" lon="4.71634">
        <ele>184</ele>
        <time>2018-07-12T08:36:55Z</time>
      </trkpt>
      <trkpt lat="45.96549" lon="4.7163">
        <ele>184</ele>
        <time>2018-07-12T08:36:56Z</time>
      </trkpt>
      <trkpt lat="45.96553" lon="4.71627">
        <ele>184</ele>
        <time>2018-07-12T08:36:57Z</time>
      </trkpt>
      <trkpt lat="45.96558" lon="4.71626">
        <ele>185</ele>
        <time>2018-07-12T08:36:58Z</time>
      </trkpt>
      <trkpt lat="45.96564" lon="4.71626">
        <ele>185</ele>
        <time>2018-07-12T08:36:59Z</time>
      </trkpt>
      <trkpt lat="45.9657" lon="4.71627">
        <ele>185</ele>
        <time>2018-07-12T08:37:00Z</time>
      </trkpt>
      <trkpt lat="45.96573" lon="4.71623">
        <ele>185</ele>
        <time>2018-07-12T08:37:01Z</time>
      </trkpt>
      <trkpt lat="45.96579" lon="4.71626">
        <ele>185</ele>
        <time>2018-07-12T08:37:02Z</time>
      </trkpt>
      <trkpt lat="45.96586" lon="4.71627">
        <ele>187</ele>
        <time>2018-07-12T08:37:03Z</time>
      </trkpt>
      <trkpt lat="45.96591" lon="4.71628">
        <ele>187</ele>
        <time>2018-07-12T08:37:04Z</time>
      </trkpt>
      <trkpt lat="45.96596" lon="4.71629">
        <ele>187</ele>
        <time>2018-07-12T08:37:05Z</time>
      </trkpt>
      <trkpt lat="45.96603" lon="4.71633">
        <ele>187</ele>
        <time>2018-07-12T08:37:07Z</time>
      </trkpt>
      <trkpt lat="45.96609" lon="4.71634">
        <ele>187</ele>
        <time>2018-07-12T08:37:08Z</time>
      </trkpt>
      <trkpt lat="45.96615" lon="4.7164">
        <ele>187</ele>
        <time>2018-07-12T08:37:10Z</time>
      </trkpt>
      <trkpt lat="45.96622" lon="4.7164">
        <ele>187</ele>
        <time>2018-07-12T08:37:11Z</time>
      </trkpt>
      <trkpt lat="45.96628" lon="4.7164">
        <ele>187</ele>
        <time>2018-07-12T08:37:12Z</time>
      </trkpt>
      <trkpt lat="45.96634" lon="4.71639">
        <ele>188</ele>
        <time>2018-07-12T08:37:13Z</time>
      </trkpt>
      <trkpt lat="45.96641" lon="4.71639">
        <ele>188</ele>
        <time>2018-07-12T08:37:14Z</time>
      </trkpt>
      <trkpt lat="45.96646" lon="4.71639">
        <ele>188</ele>
        <time>2018-07-12T08:37:15Z</time>
      </trkpt>
      <trkpt lat="45.96652" lon="4.7164">
        <ele>188</ele>
        <time>2018-07-12T08:37:16Z</time>
      </trkpt>
      <trkpt lat="45.96658" lon="4.7164">
        <ele>188</ele>
        <time>2018-07-12T08:37:17Z</time>
      </trkpt>
      <trkpt lat="45.96662" lon="4.71641">
        <ele>188</ele>
        <time>2018-07-12T08:37:18Z</time>
      </trkpt>
      <trkpt lat="45.96668" lon="4.71643">
        <ele>189</ele>
        <time>2018-07-12T08:37:19Z</time>
      </trkpt>
      <trkpt lat="45.96673" lon="4.71644">
        <ele>189</ele>
        <time>2018-07-12T08:37:20Z</time>
      </trkpt>
      <trkpt lat="45.96679" lon="4.71645">
        <ele>189</ele>
        <time>2018-07-12T08:37:21Z</time>
      </trkpt>
      <trkpt lat="45.96685" lon="4.71645">
        <ele>189</ele>
        <time>2018-07-12T08:37:22Z</time>
      </trkpt>
      <trkpt lat="45.96689" lon="4.71647">
        <ele>189</ele>
        <time>2018-07-12T08:37:23Z</time>
      </trkpt>
      <trkpt lat="45.96694" lon="4.71646">
        <ele>190</ele>
        <time>2018-07-12T08:37:24Z</time>
      </trkpt>
      <trkpt lat="45.96698" lon="4.71648">
        <ele>190</ele>
        <time>2018-07-12T08:37:25Z</time>
      </trkpt>
      <trkpt lat="45.96703" lon="4.71649">
        <ele>190</ele>
        <time>2018-07-12T08:37:26Z</time>
      </trkpt>
      <trkpt lat="45.9671" lon="4.7165">
        <ele>190</ele>
        <time>2018-07-12T08:37:27Z</time>
      </trkpt>
      <trkpt lat="45.96715" lon="4.71651">
        <ele>190</ele>
        <time>2018-07-12T08:37:28Z</time>
      </trkpt>
      <trkpt lat="45.96719" lon="4.71651">
        <ele>190</ele>
        <time>2018-07-12T08:37:29Z</time>
      </trkpt>
      <trkpt lat="45.96725" lon="4.71651">
        <ele>190</ele>
        <time>2018-07-12T08:37:30Z</time>
      </trkpt>
      <trkpt lat="45.9673" lon="4.71653">
        <ele>190</ele>
        <time>2018-07-12T08:37:31Z</time>
      </trkpt>
      <trkpt lat="45.96735" lon="4.71651">
        <ele>190</ele>
        <time>2018-07-12T08:37:32Z</time>
      </trkpt>
      <trkpt lat="45.96741" lon="4.71652">
        <ele>190</ele>
        <time>2018-07-12T08:37:33Z</time>
      </trkpt>
      <trkpt lat="45.9675" lon="4.71652">
        <ele>190</ele>
        <time>2018-07-12T08:37:35Z</time>
      </trkpt>
      <trkpt lat="45.96755" lon="4.71652">
        <ele>191</ele>
        <time>2018-07-12T08:37:36Z</time>
      </trkpt>
      <trkpt lat="45.9676" lon="4.71654">
        <ele>191</ele>
        <time>2018-07-12T08:37:37Z</time>
      </trkpt>
      <trkpt lat="45.96765" lon="4.71655">
        <ele>191</ele>
        <time>2018-07-12T08:37:38Z</time>
      </trkpt>
      <trkpt lat="45.96771" lon="4.71656">
        <ele>192</ele>
        <time>2018-07-12T08:37:39Z</time>
      </trkpt>
      <trkpt lat="45.96775" lon="4.71658">
        <ele>192</ele>
        <time>2018-07-12T08:37:40Z</time>
      </trkpt>
      <trkpt lat="45.9678" lon="4.71659">
        <ele>192</ele>
        <time>2018-07-12T08:37:41Z</time>
      </trkpt>
      <trkpt lat="45.96784" lon="4.7166">
        <ele>192</ele>
        <time>2018-07-12T08:37:42Z</time>
      </trkpt>
      <trkpt lat="45.96789" lon="4.71661">
        <ele>192</ele>
        <time>2018-07-12T08:37:43Z</time>
      </trkpt>
      <trkpt lat="45.96795" lon="4.71662">
        <ele>192</ele>
        <time>2018-07-12T08:37:44Z</time>
      </trkpt>
      <trkpt lat="45.968" lon="4.71664">
        <ele>192</ele>
        <time>2018-07-12T08:37:45Z</time>
      </trkpt>
      <trkpt lat="45.96807" lon="4.71665">
        <ele>192</ele>
        <time>2018-07-12T08:37:46Z</time>
      </trkpt>
      <trkpt lat="45.96812" lon="4.71667">
        <ele>192</ele>
        <time>2018-07-12T08:37:47Z</time>
      </trkpt>
      <trkpt lat="45.96817" lon="4.71667">
        <ele>190</ele>
        <time>2018-07-12T08:37:48Z</time>
      </trkpt>
      <trkpt lat="45.96823" lon="4.71669">
        <ele>190</ele>
        <time>2018-07-12T08:37:50Z</time>
      </trkpt>
      <trkpt lat="45.96828" lon="4.71669">
        <ele>191</ele>
        <time>2018-07-12T08:37:51Z</time>
      </trkpt>
      <trkpt lat="45.96834" lon="4.71671">
        <ele>191</ele>
        <time>2018-07-12T08:37:52Z</time>
      </trkpt>
      <trkpt lat="45.96839" lon="4.71673">
        <ele>191</ele>
        <time>2018-07-12T08:37:53Z</time>
      </trkpt>
      <trkpt lat="45.96845" lon="4.71672">
        <ele>191</ele>
        <time>2018-07-12T08:37:54Z</time>
      </trkpt>
      <trkpt lat="45.96851" lon="4.71673">
        <ele>191</ele>
        <time>2018-07-12T08:37:55Z</time>
      </trkpt>
      <trkpt lat="45.96857" lon="4.71672">
        <ele>190</ele>
        <time>2018-07-12T08:37:56Z</time>
      </trkpt>
      <trkpt lat="45.96862" lon="4.71671">
        <ele>190</ele>
        <time>2018-07-12T08:37:57Z</time>
      </trkpt>
      <trkpt lat="45.96866" lon="4.71673">
        <ele>190</ele>
        <time>2018-07-12T08:37:58Z</time>
      </trkpt>
      <trkpt lat="45.96872" lon="4.71671">
        <ele>190</ele>
        <time>2018-07-12T08:37:59Z</time>
      </trkpt>
      <trkpt lat="45.96877" lon="4.71671">
        <ele>191</ele>
        <time>2018-07-12T08:38:00Z</time>
      </trkpt>
      <trkpt lat="45.96882" lon="4.71673">
        <ele>191</ele>
        <time>2018-07-12T08:38:01Z</time>
      </trkpt>
      <trkpt lat="45.96887" lon="4.71674">
        <ele>191</ele>
        <time>2018-07-12T08:38:02Z</time>
      </trkpt>
      <trkpt lat="45.96892" lon="4.71676">
        <ele>191</ele>
        <time>2018-07-12T08:38:03Z</time>
      </trkpt>
      <trkpt lat="45.96896" lon="4.71677">
        <ele>191</ele>
        <time>2018-07-12T08:38:04Z</time>
      </trkpt>
      <trkpt lat="45.96902" lon="4.71677">
        <ele>192</ele>
        <time>2018-07-12T08:38:05Z</time>
      </trkpt>
      <trkpt lat="45.9691" lon="4.7168">
        <ele>192</ele>
        <time>2018-07-12T08:38:07Z</time>
      </trkpt>
      <trkpt lat="45.96915" lon="4.7168">
        <ele>192</ele>
        <time>2018-07-12T08:38:08Z</time>
      </trkpt>
      <trkpt lat="45.96921" lon="4.71681">
        <ele>193</ele>
        <time>2018-07-12T08:38:10Z</time>
      </trkpt>
      <trkpt lat="45.96925" lon="4.71682">
        <ele>193</ele>
        <time>2018-07-12T08:38:11Z</time>
      </trkpt>
      <trkpt lat="45.96931" lon="4.71681">
        <ele>192</ele>
        <time>2018-07-12T08:38:12Z</time>
      </trkpt>
      <trkpt lat="45.96936" lon="4.71681">
        <ele>192</ele>
        <time>2018-07-12T08:38:13Z</time>
      </trkpt>
      <trkpt lat="45.96941" lon="4.71682">
        <ele>192</ele>
        <time>2018-07-12T08:38:14Z</time>
      </trkpt>
      <trkpt lat="45.96946" lon="4.71682">
        <ele>192</ele>
        <time>2018-07-12T08:38:15Z</time>
      </trkpt>
      <trkpt lat="45.96952" lon="4.71682">
        <ele>192</ele>
        <time>2018-07-12T08:38:16Z</time>
      </trkpt>
      <trkpt lat="45.96956" lon="4.71684">
        <ele>192</ele>
        <time>2018-07-12T08:38:17Z</time>
      </trkpt>
      <trkpt lat="45.96964" lon="4.71686">
        <ele>192</ele>
        <time>2018-07-12T08:38:19Z</time>
      </trkpt>
      <trkpt lat="45.96968" lon="4.71686">
        <ele>192</ele>
        <time>2018-07-12T08:38:20Z</time>
      </trkpt>
      <trkpt lat="45.96976" lon="4.71688">
        <ele>192</ele>
        <time>2018-07-12T08:38:22Z</time>
      </trkpt>
      <trkpt lat="45.96983" lon="4.71686">
        <ele>192</ele>
        <time>2018-07-12T08:38:23Z</time>
      </trkpt>
      <trkpt lat="45.96988" lon="4.71686">
        <ele>192</ele>
        <time>2018-07-12T08:38:24Z</time>
      </trkpt>
      <trkpt lat="45.96992" lon="4.71687">
        <ele>192</ele>
        <time>2018-07-12T08:38:25Z</time>
      </trkpt>
      <trkpt lat="45.97" lon="4.71685">
        <ele>193</ele>
        <time>2018-07-12T08:38:27Z</time>
      </trkpt>
      <trkpt lat="45.97003" lon="4.71689">
        <ele>193</ele>
        <time>2018-07-12T08:38:28Z</time>
      </trkpt>
      <trkpt lat="45.9701" lon="4.71689">
        <ele>193</ele>
        <time>2018-07-12T08:38:29Z</time>
      </trkpt>
      <trkpt lat="45.97014" lon="4.71691">
        <ele>193</ele>
        <time>2018-07-12T08:38:30Z</time>
      </trkpt>
      <trkpt lat="45.97019" lon="4.71692">
        <ele>192</ele>
        <time>2018-07-12T08:38:31Z</time>
      </trkpt>
      <trkpt lat="45.97025" lon="4.7169">
        <ele>192</ele>
        <time>2018-07-12T08:38:32Z</time>
      </trkpt>
      <trkpt lat="45.97031" lon="4.71691">
        <ele>192</ele>
        <time>2018-07-12T08:38:33Z</time>
      </trkpt>
      <trkpt lat="45.97036" lon="4.71692">
        <ele>192</ele>
        <time>2018-07-12T08:38:34Z</time>
      </trkpt>
      <trkpt lat="45.9704" lon="4.71692">
        <ele>192</ele>
        <time>2018-07-12T08:38:35Z</time>
      </trkpt>
      <trkpt lat="45.97046" lon="4.71692">
        <ele>193</ele>
        <time>2018-07-12T08:38:36Z</time>
      </trkpt>
      <trkpt lat="45.97051" lon="4.71693">
        <ele>193</ele>
        <time>2018-07-12T08:38:37Z</time>
      </trkpt>
      <trkpt lat="45.97057" lon="4.71693">
        <ele>193</ele>
        <time>2018-07-12T08:38:38Z</time>
      </trkpt>
      <trkpt lat="45.97062" lon="4.71693">
        <ele>193</ele>
        <time>2018-07-12T08:38:39Z</time>
      </trkpt>
      <trkpt lat="45.97068" lon="4.71692">
        <ele>193</ele>
        <time>2018-07-12T08:38:40Z</time>
      </trkpt>
      <trkpt lat="45.97075" lon="4.71691">
        <ele>193</ele>
        <time>2018-07-12T08:38:41Z</time>
      </trkpt>
      <trkpt lat="45.97081" lon="4.7169">
        <ele>193</ele>
        <time>2018-07-12T08:38:42Z</time>
      </trkpt>
      <trkpt lat="45.97086" lon="4.71691">
        <ele>194</ele>
        <time>2018-07-12T08:38:43Z</time>
      </trkpt>
      <trkpt lat="45.97092" lon="4.7169">
        <ele>194</ele>
        <time>2018-07-12T08:38:44Z</time>
      </trkpt>
      <trkpt lat="45.97097" lon="4.71691">
        <ele>194</ele>
        <time>2018-07-12T08:38:45Z</time>
      </trkpt>
      <trkpt lat="45.97101" lon="4.71692">
        <ele>194</ele>
        <time>2018-07-12T08:38:46Z</time>
      </trkpt>
      <trkpt lat="45.97107" lon="4.71693">
        <ele>194</ele>
        <time>2018-07-12T08:38:47Z</time>
      </trkpt>
      <trkpt lat="45.97112" lon="4.71694">
        <ele>194</ele>
        <time>2018-07-12T08:38:48Z</time>
      </trkpt>
      <trkpt lat="45.97117" lon="4.71696">
        <ele>194</ele>
        <time>2018-07-12T08:38:49Z</time>
      </trkpt>
      <trkpt lat="45.97122" lon="4.71697">
        <ele>194</ele>
        <time>2018-07-12T08:38:50Z</time>
      </trkpt>
      <trkpt lat="45.9713" lon="4.71698">
        <ele>194</ele>
        <time>2018-07-12T08:38:52Z</time>
      </trkpt>
      <trkpt lat="45.97134" lon="4.71698">
        <ele>194</ele>
        <time>2018-07-12T08:38:53Z</time>
      </trkpt>
      <trkpt lat="45.97141" lon="4.71697">
        <ele>195</ele>
        <time>2018-07-12T08:38:54Z</time>
      </trkpt>
      <trkpt lat="45.97146" lon="4.71697">
        <ele>195</ele>
        <time>2018-07-12T08:38:55Z</time>
      </trkpt>
      <trkpt lat="45.97154" lon="4.71699">
        <ele>195</ele>
        <time>2018-07-12T08:38:57Z</time>
      </trkpt>
      <trkpt lat="45.97159" lon="4.71699">
        <ele>195</ele>
        <time>2018-07-12T08:38:58Z</time>
      </trkpt>
      <trkpt lat="45.97166" lon="4.717">
        <ele>195</ele>
        <time>2018-07-12T08:38:59Z</time>
      </trkpt>
      <trkpt lat="45.97173" lon="4.717">
        <ele>196</ele>
        <time>2018-07-12T08:39:00Z</time>
      </trkpt>
      <trkpt lat="45.97179" lon="4.717">
        <ele>196</ele>
        <time>2018-07-12T08:39:01Z</time>
      </trkpt>
      <trkpt lat="45.97186" lon="4.71699">
        <ele>196</ele>
        <time>2018-07-12T08:39:02Z</time>
      </trkpt>
      <trkpt lat="45.97193" lon="4.717">
        <ele>196</ele>
        <time>2018-07-12T08:39:03Z</time>
      </trkpt>
      <trkpt lat="45.97199" lon="4.717">
        <ele>196</ele>
        <time>2018-07-12T08:39:04Z</time>
      </trkpt>
      <trkpt lat="45.97206" lon="4.71701">
        <ele>196</ele>
        <time>2018-07-12T08:39:05Z</time>
      </trkpt>
      <trkpt lat="45.97211" lon="4.71702">
        <ele>196</ele>
        <time>2018-07-12T08:39:06Z</time>
      </trkpt>
      <trkpt lat="45.97217" lon="4.71703">
        <ele>196</ele>
        <time>2018-07-12T08:39:07Z</time>
      </trkpt>
      <trkpt lat="45.97223" lon="4.71703">
        <ele>197</ele>
        <time>2018-07-12T08:39:08Z</time>
      </trkpt>
      <trkpt lat="45.97231" lon="4.71704">
        <ele>197</ele>
        <time>2018-07-12T08:39:09Z</time>
      </trkpt>
      <trkpt lat="45.97236" lon="4.71704">
        <ele>197</ele>
        <time>2018-07-12T08:39:10Z</time>
      </trkpt>
      <trkpt lat="45.97241" lon="4.71705">
        <ele>197</ele>
        <time>2018-07-12T08:39:11Z</time>
      </trkpt>
      <trkpt lat="45.97247" lon="4.71705">
        <ele>197</ele>
        <time>2018-07-12T08:39:12Z</time>
      </trkpt>
      <trkpt lat="45.97253" lon="4.71707">
        <ele>197</ele>
        <time>2018-07-12T08:39:13Z</time>
      </trkpt>
      <trkpt lat="45.97259" lon="4.71708">
        <ele>197</ele>
        <time>2018-07-12T08:39:14Z</time>
      </trkpt>
      <trkpt lat="45.97266" lon="4.71708">
        <ele>196</ele>
        <time>2018-07-12T08:39:15Z</time>
      </trkpt>
      <trkpt lat="45.9727" lon="4.71711">
        <ele>196</ele>
        <time>2018-07-12T08:39:16Z</time>
      </trkpt>
      <trkpt lat="45.97278" lon="4.71714">
        <ele>196</ele>
        <time>2018-07-12T08:39:18Z</time>
      </trkpt>
      <trkpt lat="45.97283" lon="4.71716">
        <ele>196</ele>
        <time>2018-07-12T08:39:19Z</time>
      </trkpt>
      <trkpt lat="45.97289" lon="4.7172">
        <ele>196</ele>
        <time>2018-07-12T08:39:20Z</time>
      </trkpt>
      <trkpt lat="45.97292" lon="4.71724">
        <ele>196</ele>
        <time>2018-07-12T08:39:21Z</time>
      </trkpt>
      <trkpt lat="45.97297" lon="4.71728">
        <ele>196</ele>
        <time>2018-07-12T08:39:22Z</time>
      </trkpt>
      <trkpt lat="45.97303" lon="4.7173">
        <ele>196</ele>
        <time>2018-07-12T08:39:23Z</time>
      </trkpt>
      <trkpt lat="45.97308" lon="4.7173">
        <ele>196</ele>
        <time>2018-07-12T08:39:24Z</time>
      </trkpt>
      <trkpt lat="45.97312" lon="4.71725">
        <ele>196</ele>
        <time>2018-07-12T08:39:25Z</time>
      </trkpt>
      <trkpt lat="45.97317" lon="4.7172">
        <ele>196</ele>
        <time>2018-07-12T08:39:26Z</time>
      </trkpt>
      <trkpt lat="45.97323" lon="4.71717">
        <ele>196</ele>
        <time>2018-07-12T08:39:27Z</time>
      </trkpt>
      <trkpt lat="45.97328" lon="4.71714">
        <ele>196</ele>
        <time>2018-07-12T08:39:28Z</time>
      </trkpt>
      <trkpt lat="45.97337" lon="4.71713">
        <ele>195</ele>
        <time>2018-07-12T08:39:29Z</time>
      </trkpt>
      <trkpt lat="45.97342" lon="4.71714">
        <ele>195</ele>
        <time>2018-07-12T08:39:30Z</time>
      </trkpt>
      <trkpt lat="45.97347" lon="4.71715">
        <ele>195</ele>
        <time>2018-07-12T08:39:31Z</time>
      </trkpt>
      <trkpt lat="45.97355" lon="4.71716">
        <ele>195</ele>
        <time>2018-07-12T08:39:32Z</time>
      </trkpt>
      <trkpt lat="45.97361" lon="4.71717">
        <ele>195</ele>
        <time>2018-07-12T08:39:33Z</time>
      </trkpt>
      <trkpt lat="45.97365" lon="4.71718">
        <ele>195</ele>
        <time>2018-07-12T08:39:34Z</time>
      </trkpt>
      <trkpt lat="45.97371" lon="4.71718">
        <ele>195</ele>
        <time>2018-07-12T08:39:35Z</time>
      </trkpt>
      <trkpt lat="45.97377" lon="4.71718">
        <ele>195</ele>
        <time>2018-07-12T08:39:36Z</time>
      </trkpt>
      <trkpt lat="45.97384" lon="4.71718">
        <ele>195</ele>
        <time>2018-07-12T08:39:37Z</time>
      </trkpt>
      <trkpt lat="45.97388" lon="4.71719">
        <ele>195</ele>
        <time>2018-07-12T08:39:38Z</time>
      </trkpt>
      <trkpt lat="45.97395" lon="4.71718">
        <ele>195</ele>
        <time>2018-07-12T08:39:39Z</time>
      </trkpt>
      <trkpt lat="45.974" lon="4.71721">
        <ele>195</ele>
        <time>2018-07-12T08:39:40Z</time>
      </trkpt>
      <trkpt lat="45.97405" lon="4.71721">
        <ele>195</ele>
        <time>2018-07-12T08:39:41Z</time>
      </trkpt>
      <trkpt lat="45.97411" lon="4.71721">
        <ele>195</ele>
        <time>2018-07-12T08:39:42Z</time>
      </trkpt>
      <trkpt lat="45.97416" lon="4.71721">
        <ele>195</ele>
        <time>2018-07-12T08:39:43Z</time>
      </trkpt>
      <trkpt lat="45.9742" lon="4.71723">
        <ele>196</ele>
        <time>2018-07-12T08:39:44Z</time>
      </trkpt>
      <trkpt lat="45.97426" lon="4.71723">
        <ele>196</ele>
        <time>2018-07-12T08:39:45Z</time>
      </trkpt>
      <trkpt lat="45.97431" lon="4.71723">
        <ele>196</ele>
        <time>2018-07-12T08:39:46Z</time>
      </trkpt>
      <trkpt lat="45.97437" lon="4.71723">
        <ele>196</ele>
        <time>2018-07-12T08:39:47Z</time>
      </trkpt>
      <trkpt lat="45.97443" lon="4.71723">
        <ele>196</ele>
        <time>2018-07-12T08:39:48Z</time>
      </trkpt>
      <trkpt lat="45.97448" lon="4.71724">
        <ele>196</ele>
        <time>2018-07-12T08:39:49Z</time>
      </trkpt>
      <trkpt lat="45.97454" lon="4.71725">
        <ele>197</ele>
        <time>2018-07-12T08:39:50Z</time>
      </trkpt>
      <trkpt lat="45.97462" lon="4.71723">
        <ele>197</ele>
        <time>2018-07-12T08:39:51Z</time>
      </trkpt>
      <trkpt lat="45.97468" lon="4.71724">
        <ele>197</ele>
        <time>2018-07-12T08:39:52Z</time>
      </trkpt>
      <trkpt lat="45.97474" lon="4.71724">
        <ele>197</ele>
        <time>2018-07-12T08:39:53Z</time>
      </trkpt>
      <trkpt lat="45.97477" lon="4.71727">
        <ele>197</ele>
        <time>2018-07-12T08:39:54Z</time>
      </trkpt>
      <trkpt lat="45.97484" lon="4.71726">
        <ele>197</ele>
        <time>2018-07-12T08:39:55Z</time>
      </trkpt>
      <trkpt lat="45.9749" lon="4.71727">
        <ele>197</ele>
        <time>2018-07-12T08:39:56Z</time>
      </trkpt>
      <trkpt lat="45.97494" lon="4.71731">
        <ele>197</ele>
        <time>2018-07-12T08:39:57Z</time>
      </trkpt>
      <trkpt lat="45.975" lon="4.71731">
        <ele>198</ele>
        <time>2018-07-12T08:39:58Z</time>
      </trkpt>
      <trkpt lat="45.9751" lon="4.7173">
        <ele>198</ele>
        <time>2018-07-12T08:39:59Z</time>
      </trkpt>
      <trkpt lat="45.97516" lon="4.71731">
        <ele>198</ele>
        <time>2018-07-12T08:40:00Z</time>
      </trkpt>
      <trkpt lat="45.97523" lon="4.71733">
        <ele>198</ele>
        <time>2018-07-12T08:40:01Z</time>
      </trkpt>
      <trkpt lat="45.97531" lon="4.71734">
        <ele>198</ele>
        <time>2018-07-12T08:40:02Z</time>
      </trkpt>
      <trkpt lat="45.97537" lon="4.71734">
        <ele>198</ele>
        <time>2018-07-12T08:40:03Z</time>
      </trkpt>
      <trkpt lat="45.97542" lon="4.71733">
        <ele>198</ele>
        <time>2018-07-12T08:40:04Z</time>
      </trkpt>
      <trkpt lat="45.97547" lon="4.71733">
        <ele>198</ele>
        <time>2018-07-12T08:40:05Z</time>
      </trkpt>
      <trkpt lat="45.97553" lon="4.71734">
        <ele>197</ele>
        <time>2018-07-12T08:40:06Z</time>
      </trkpt>
      <trkpt lat="45.97558" lon="4.71734">
        <ele>197</ele>
        <time>2018-07-12T08:40:07Z</time>
      </trkpt>
      <trkpt lat="45.97564" lon="4.71734">
        <ele>197</ele>
        <time>2018-07-12T08:40:08Z</time>
      </trkpt>
      <trkpt lat="45.97571" lon="4.71734">
        <ele>197</ele>
        <time>2018-07-12T08:40:09Z</time>
      </trkpt>
      <trkpt lat="45.97578" lon="4.71734">
        <ele>197</ele>
        <time>2018-07-12T08:40:10Z</time>
      </trkpt>
      <trkpt lat="45.97582" lon="4.71732">
        <ele>197</ele>
        <time>2018-07-12T08:40:11Z</time>
      </trkpt>
      <trkpt lat="45.97589" lon="4.71732">
        <ele>196</ele>
        <time>2018-07-12T08:40:12Z</time>
      </trkpt>
      <trkpt lat="45.97595" lon="4.71734">
        <ele>196</ele>
        <time>2018-07-12T08:40:13Z</time>
      </trkpt>
      <trkpt lat="45.976" lon="4.71738">
        <ele>196</ele>
        <time>2018-07-12T08:40:14Z</time>
      </trkpt>
      <trkpt lat="45.97605" lon="4.71742">
        <ele>196</ele>
        <time>2018-07-12T08:40:15Z</time>
      </trkpt>
      <trkpt lat="45.97609" lon="4.71746">
        <ele>196</ele>
        <time>2018-07-12T08:40:16Z</time>
      </trkpt>
      <trkpt lat="45.97613" lon="4.7175">
        <ele>194</ele>
        <time>2018-07-12T08:40:17Z</time>
      </trkpt>
      <trkpt lat="45.97618" lon="4.71751">
        <ele>194</ele>
        <time>2018-07-12T08:40:18Z</time>
      </trkpt>
      <trkpt lat="45.97624" lon="4.71751">
        <ele>194</ele>
        <time>2018-07-12T08:40:19Z</time>
      </trkpt>
      <trkpt lat="45.97633" lon="4.71748">
        <ele>196</ele>
        <time>2018-07-12T08:40:20Z</time>
      </trkpt>
      <trkpt lat="45.97639" lon="4.71745">
        <ele>196</ele>
        <time>2018-07-12T08:40:21Z</time>
      </trkpt>
      <trkpt lat="45.97645" lon="4.71742">
        <ele>196</ele>
        <time>2018-07-12T08:40:22Z</time>
      </trkpt>
      <trkpt lat="45.97651" lon="4.71741">
        <ele>196</ele>
        <time>2018-07-12T08:40:23Z</time>
      </trkpt>
      <trkpt lat="45.97656" lon="4.71741">
        <ele>195</ele>
        <time>2018-07-12T08:40:24Z</time>
      </trkpt>
      <trkpt lat="45.97663" lon="4.71741">
        <ele>195</ele>
        <time>2018-07-12T08:40:25Z</time>
      </trkpt>
      <trkpt lat="45.97667" lon="4.71743">
        <ele>195</ele>
        <time>2018-07-12T08:40:26Z</time>
      </trkpt>
      <trkpt lat="45.97679" lon="4.71739">
        <ele>195</ele>
        <time>2018-07-12T08:40:27Z</time>
      </trkpt>
      <trkpt lat="45.97686" lon="4.71739">
        <ele>196</ele>
        <time>2018-07-12T08:40:28Z</time>
      </trkpt>
      <trkpt lat="45.97689" lon="4.71742">
        <ele>196</ele>
        <time>2018-07-12T08:40:29Z</time>
      </trkpt>
      <trkpt lat="45.97693" lon="4.71743">
        <ele>196</ele>
        <time>2018-07-12T08:40:30Z</time>
      </trkpt>
      <trkpt lat="45.97698" lon="4.71745">
        <ele>196</ele>
        <time>2018-07-12T08:40:31Z</time>
      </trkpt>
      <trkpt lat="45.97703" lon="4.71744">
        <ele>196</ele>
        <time>2018-07-12T08:40:32Z</time>
      </trkpt>
      <trkpt lat="45.97712" lon="4.71744">
        <ele>196</ele>
        <time>2018-07-12T08:40:33Z</time>
      </trkpt>
      <trkpt lat="45.97714" lon="4.71748">
        <ele>196</ele>
        <time>2018-07-12T08:40:34Z</time>
      </trkpt>
      <trkpt lat="45.97721" lon="4.71747">
        <ele>196</ele>
        <time>2018-07-12T08:40:35Z</time>
      </trkpt>
      <trkpt lat="45.97724" lon="4.7175">
        <ele>195</ele>
        <time>2018-07-12T08:40:36Z</time>
      </trkpt>
      <trkpt lat="45.9773" lon="4.71751">
        <ele>195</ele>
        <time>2018-07-12T08:40:37Z</time>
      </trkpt>
      <trkpt lat="45.97737" lon="4.71752">
        <ele>195</ele>
        <time>2018-07-12T08:40:38Z</time>
      </trkpt>
      <trkpt lat="45.97743" lon="4.71752">
        <ele>196</ele>
        <time>2018-07-12T08:40:39Z</time>
      </trkpt>
      <trkpt lat="45.9775" lon="4.71757">
        <ele>196</ele>
        <time>2018-07-12T08:40:41Z</time>
      </trkpt>
      <trkpt lat="45.97756" lon="4.71756">
        <ele>196</ele>
        <time>2018-07-12T08:40:42Z</time>
      </trkpt>
      <trkpt lat="45.97763" lon="4.71754">
        <ele>196</ele>
        <time>2018-07-12T08:40:43Z</time>
      </trkpt>
      <trkpt lat="45.97771" lon="4.71753">
        <ele>195</ele>
        <time>2018-07-12T08:40:44Z</time>
      </trkpt>
      <trkpt lat="45.97779" lon="4.71757">
        <ele>195</ele>
        <time>2018-07-12T08:40:46Z</time>
      </trkpt>
      <trkpt lat="45.97785" lon="4.71758">
        <ele>195</ele>
        <time>2018-07-12T08:40:47Z</time>
      </trkpt>
      <trkpt lat="45.9779" lon="4.71757">
        <ele>195</ele>
        <time>2018-07-12T08:40:48Z</time>
      </trkpt>
      <trkpt lat="45.97796" lon="4.71758">
        <ele>195</ele>
        <time>2018-07-12T08:40:49Z</time>
      </trkpt>
      <trkpt lat="45.97801" lon="4.71758">
        <ele>195</ele>
        <time>2018-07-12T08:40:50Z</time>
      </trkpt>
      <trkpt lat="45.97806" lon="4.71759">
        <ele>195</ele>
        <time>2018-07-12T08:40:51Z</time>
      </trkpt>
      <trkpt lat="45.97812" lon="4.7176">
        <ele>195</ele>
        <time>2018-07-12T08:40:52Z</time>
      </trkpt>
      <trkpt lat="45.97819" lon="4.71759">
        <ele>195</ele>
        <time>2018-07-12T08:40:53Z</time>
      </trkpt>
      <trkpt lat="45.97826" lon="4.71758">
        <ele>195</ele>
        <time>2018-07-12T08:40:54Z</time>
      </trkpt>
      <trkpt lat="45.9783" lon="4.71759">
        <ele>195</ele>
        <time>2018-07-12T08:40:55Z</time>
      </trkpt>
      <trkpt lat="45.97836" lon="4.7176">
        <ele>195</ele>
        <time>2018-07-12T08:40:56Z</time>
      </trkpt>
      <trkpt lat="45.97842" lon="4.7176">
        <ele>195</ele>
        <time>2018-07-12T08:40:57Z</time>
      </trkpt>
      <trkpt lat="45.97849" lon="4.7176">
        <ele>195</ele>
        <time>2018-07-12T08:40:58Z</time>
      </trkpt>
      <trkpt lat="45.97854" lon="4.71763">
        <ele>195</ele>
        <time>2018-07-12T08:40:59Z</time>
      </trkpt>
      <trkpt lat="45.97858" lon="4.71767">
        <ele>195</ele>
        <time>2018-07-12T08:41:00Z</time>
      </trkpt>
      <trkpt lat="45.97862" lon="4.71772">
        <ele>194</ele>
        <time>2018-07-12T08:41:01Z</time>
      </trkpt>
      <trkpt lat="45.97867" lon="4.71777">
        <ele>194</ele>
        <time>2018-07-12T08:41:02Z</time>
      </trkpt>
      <trkpt lat="45.97871" lon="4.7178">
        <ele>194</ele>
        <time>2018-07-12T08:41:03Z</time>
      </trkpt>
      <trkpt lat="45.97875" lon="4.71782">
        <ele>194</ele>
        <time>2018-07-12T08:41:04Z</time>
      </trkpt>
      <trkpt lat="45.97881" lon="4.7178">
        <ele>194</ele>
        <time>2018-07-12T08:41:05Z</time>
      </trkpt>
      <trkpt lat="45.97888" lon="4.71776">
        <ele>194</ele>
        <time>2018-07-12T08:41:06Z</time>
      </trkpt>
      <trkpt lat="45.9789" lon="4.71772">
        <ele>194</ele>
        <time>2018-07-12T08:41:07Z</time>
      </trkpt>
      <trkpt lat="45.97893" lon="4.71767">
        <ele>194</ele>
        <time>2018-07-12T08:41:08Z</time>
      </trkpt>
      <trkpt lat="45.97897" lon="4.7176">
        <ele>195</ele>
        <time>2018-07-12T08:41:09Z</time>
      </trkpt>
      <trkpt lat="45.97892" lon="4.71755">
        <ele>195</ele>
        <time>2018-07-12T08:41:10Z</time>
      </trkpt>
      <trkpt lat="45.97896" lon="4.71746">
        <ele>196</ele>
        <time>2018-07-12T08:41:11Z</time>
      </trkpt>
      <trkpt lat="45.97897" lon="4.71737">
        <ele>196</ele>
        <time>2018-07-12T08:41:12Z</time>
      </trkpt>
      <trkpt lat="45.97896" lon="4.71728">
        <ele>196</ele>
        <time>2018-07-12T08:41:13Z</time>
      </trkpt>
      <trkpt lat="45.97896" lon="4.71719">
        <ele>196</ele>
        <time>2018-07-12T08:41:14Z</time>
      </trkpt>
      <trkpt lat="45.97901" lon="4.7171">
        <ele>196</ele>
        <time>2018-07-12T08:41:15Z</time>
      </trkpt>
      <trkpt lat="45.97903" lon="4.71703">
        <ele>196</ele>
        <time>2018-07-12T08:41:16Z</time>
      </trkpt>
      <trkpt lat="45.97904" lon="4.71697">
        <ele>196</ele>
        <time>2018-07-12T08:41:17Z</time>
      </trkpt>
      <trkpt lat="45.97907" lon="4.71691">
        <ele>196</ele>
        <time>2018-07-12T08:41:18Z</time>
      </trkpt>
      <trkpt lat="45.97911" lon="4.71685">
        <ele>196</ele>
        <time>2018-07-12T08:41:19Z</time>
      </trkpt>
      <trkpt lat="45.97922" lon="4.71679">
        <ele>197</ele>
        <time>2018-07-12T08:41:20Z</time>
      </trkpt>
      <trkpt lat="45.97928" lon="4.71674">
        <ele>197</ele>
        <time>2018-07-12T08:41:21Z</time>
      </trkpt>
      <trkpt lat="45.97933" lon="4.7167">
        <ele>197</ele>
        <time>2018-07-12T08:41:22Z</time>
      </trkpt>
      <trkpt lat="45.97939" lon="4.71667">
        <ele>197</ele>
        <time>2018-07-12T08:41:23Z</time>
      </trkpt>
      <trkpt lat="45.97944" lon="4.71665">
        <ele>197</ele>
        <time>2018-07-12T08:41:24Z</time>
      </trkpt>
      <trkpt lat="45.97949" lon="4.71661">
        <ele>197</ele>
        <time>2018-07-12T08:41:25Z</time>
      </trkpt>
      <trkpt lat="45.97955" lon="4.71659">
        <ele>197</ele>
        <time>2018-07-12T08:41:26Z</time>
      </trkpt>
      <trkpt lat="45.97958" lon="4.71656">
        <ele>197</ele>
        <time>2018-07-12T08:41:27Z</time>
      </trkpt>
      <trkpt lat="45.97965" lon="4.71653">
        <ele>197</ele>
        <time>2018-07-12T08:41:28Z</time>
      </trkpt>
      <trkpt lat="45.97971" lon="4.71644">
        <ele>197</ele>
        <time>2018-07-12T08:41:30Z</time>
      </trkpt>
      <trkpt lat="45.97977" lon="4.71641">
        <ele>197</ele>
        <time>2018-07-12T08:41:31Z</time>
      </trkpt>
      <trkpt lat="45.97982" lon="4.71638">
        <ele>197</ele>
        <time>2018-07-12T08:41:32Z</time>
      </trkpt>
      <trkpt lat="45.97986" lon="4.71635">
        <ele>197</ele>
        <time>2018-07-12T08:41:33Z</time>
      </trkpt>
      <trkpt lat="45.97992" lon="4.71629">
        <ele>198</ele>
        <time>2018-07-12T08:41:35Z</time>
      </trkpt>
      <trkpt lat="45.97999" lon="4.71627">
        <ele>198</ele>
        <time>2018-07-12T08:41:36Z</time>
      </trkpt>
      <trkpt lat="45.98003" lon="4.71624">
        <ele>198</ele>
        <time>2018-07-12T08:41:37Z</time>
      </trkpt>
      <trkpt lat="45.98008" lon="4.7162">
        <ele>198</ele>
        <time>2018-07-12T08:41:38Z</time>
      </trkpt>
      <trkpt lat="45.98013" lon="4.71615">
        <ele>198</ele>
        <time>2018-07-12T08:41:39Z</time>
      </trkpt>
      <trkpt lat="45.98017" lon="4.7161">
        <ele>198</ele>
        <time>2018-07-12T08:41:40Z</time>
      </trkpt>
      <trkpt lat="45.98023" lon="4.71604">
        <ele>198</ele>
        <time>2018-07-12T08:41:42Z</time>
      </trkpt>
      <trkpt lat="45.98027" lon="4.71602">
        <ele>198</ele>
        <time>2018-07-12T08:41:43Z</time>
      </trkpt>
      <trkpt lat="45.98031" lon="4.71598">
        <ele>198</ele>
        <time>2018-07-12T08:41:44Z</time>
      </trkpt>
      <trkpt lat="45.98036" lon="4.71596">
        <ele>198</ele>
        <time>2018-07-12T08:41:45Z</time>
      </trkpt>
      <trkpt lat="45.98043" lon="4.71589">
        <ele>198</ele>
        <time>2018-07-12T08:41:49Z</time>
      </trkpt>
      <trkpt lat="45.98044" lon="4.71589">
        <ele>198</ele>
        <time>2018-07-12T08:41:50Z</time>
      </trkpt>
      <trkpt lat="45.98045" lon="4.71586">
        <ele>198</ele>
        <time>2018-07-12T08:42:02Z</time>
      </trkpt>
      <trkpt lat="45.98046" lon="4.71586">
        <ele>198</ele>
        <time>2018-07-12T08:42:03Z</time>
      </trkpt>
      <trkpt lat="45.98047" lon="4.71585">
        <ele>198</ele>
        <time>2018-07-12T08:42:05Z</time>
      </trkpt>
      <trkpt lat="45.98048" lon="4.71584">
        <ele>198</ele>
        <time>2018-07-12T08:42:06Z</time>
      </trkpt>
      <trkpt lat="45.98053" lon="4.71581">
        <ele>198</ele>
        <time>2018-07-12T08:42:13Z</time>
      </trkpt>
      <trkpt lat="45.98063" lon="4.71577">
        <ele>198</ele>
        <time>2018-07-12T08:42:14Z</time>
      </trkpt>
      <trkpt lat="45.9807" lon="4.71574">
        <ele>198</ele>
        <time>2018-07-12T08:42:16Z</time>
      </trkpt>
      <trkpt lat="45.98077" lon="4.7157">
        <ele>198</ele>
        <time>2018-07-12T08:42:17Z</time>
      </trkpt>
      <trkpt lat="45.98083" lon="4.71566">
        <ele>198</ele>
        <time>2018-07-12T08:42:18Z</time>
      </trkpt>
      <trkpt lat="45.98085" lon="4.71563">
        <ele>198</ele>
        <time>2018-07-12T08:42:19Z</time>
      </trkpt>
      <trkpt lat="45.98091" lon="4.71559">
        <ele>198</ele>
        <time>2018-07-12T08:42:20Z</time>
      </trkpt>
      <trkpt lat="45.98094" lon="4.71554">
        <ele>198</ele>
        <time>2018-07-12T08:42:21Z</time>
      </trkpt>
      <trkpt lat="45.98099" lon="4.71552">
        <ele>197</ele>
        <time>2018-07-12T08:42:22Z</time>
      </trkpt>
      <trkpt lat="45.98107" lon="4.71547">
        <ele>197</ele>
        <time>2018-07-12T08:42:23Z</time>
      </trkpt>
      <trkpt lat="45.98113" lon="4.71544">
        <ele>197</ele>
        <time>2018-07-12T08:42:24Z</time>
      </trkpt>
      <trkpt lat="45.98118" lon="4.71541">
        <ele>197</ele>
        <time>2018-07-12T08:42:25Z</time>
      </trkpt>
      <trkpt lat="45.98123" lon="4.71538">
        <ele>197</ele>
        <time>2018-07-12T08:42:26Z</time>
      </trkpt>
      <trkpt lat="45.98128" lon="4.71534">
        <ele>197</ele>
        <time>2018-07-12T08:42:27Z</time>
      </trkpt>
      <trkpt lat="45.98133" lon="4.71529">
        <ele>197</ele>
        <time>2018-07-12T08:42:28Z</time>
      </trkpt>
      <trkpt lat="45.98138" lon="4.71525">
        <ele>197</ele>
        <time>2018-07-12T08:42:29Z</time>
      </trkpt>
      <trkpt lat="45.98144" lon="4.71522">
        <ele>197</ele>
        <time>2018-07-12T08:42:30Z</time>
      </trkpt>
      <trkpt lat="45.98151" lon="4.71518">
        <ele>197</ele>
        <time>2018-07-12T08:42:31Z</time>
      </trkpt>
      <trkpt lat="45.98157" lon="4.71513">
        <ele>197</ele>
        <time>2018-07-12T08:42:32Z</time>
      </trkpt>
      <trkpt lat="45.98162" lon="4.71508">
        <ele>197</ele>
        <time>2018-07-12T08:42:33Z</time>
      </trkpt>
      <trkpt lat="45.9817" lon="4.71508">
        <ele>197</ele>
        <time>2018-07-12T08:42:35Z</time>
      </trkpt>
      <trkpt lat="45.98175" lon="4.7151">
        <ele>197</ele>
        <time>2018-07-12T08:42:36Z</time>
      </trkpt>
      <trkpt lat="45.98181" lon="4.71507">
        <ele>197</ele>
        <time>2018-07-12T08:42:37Z</time>
      </trkpt>
      <trkpt lat="45.98186" lon="4.71504">
        <ele>197</ele>
        <time>2018-07-12T08:42:38Z</time>
      </trkpt>
      <trkpt lat="45.98188" lon="4.71504">
        <ele>197</ele>
        <time>2018-07-12T08:42:39Z</time>
      </trkpt>
      <trkpt lat="45.98195" lon="4.71505">
        <ele>197</ele>
        <time>2018-07-12T08:42:40Z</time>
      </trkpt>
      <trkpt lat="45.98202" lon="4.71506">
        <ele>197</ele>
        <time>2018-07-12T08:42:41Z</time>
      </trkpt>
      <trkpt lat="45.98209" lon="4.71506">
        <ele>196</ele>
        <time>2018-07-12T08:42:42Z</time>
      </trkpt>
      <trkpt lat="45.98214" lon="4.71507">
        <ele>196</ele>
        <time>2018-07-12T08:42:43Z</time>
      </trkpt>
      <trkpt lat="45.9822" lon="4.7151">
        <ele>196</ele>
        <time>2018-07-12T08:42:44Z</time>
      </trkpt>
      <trkpt lat="45.98224" lon="4.71513">
        <ele>196</ele>
        <time>2018-07-12T08:42:45Z</time>
      </trkpt>
      <trkpt lat="45.9823" lon="4.71515">
        <ele>196</ele>
        <time>2018-07-12T08:42:46Z</time>
      </trkpt>
      <trkpt lat="45.98236" lon="4.71518">
        <ele>196</ele>
        <time>2018-07-12T08:42:47Z</time>
      </trkpt>
      <trkpt lat="45.98242" lon="4.71521">
        <ele>196</ele>
        <time>2018-07-12T08:42:48Z</time>
      </trkpt>
      <trkpt lat="45.98248" lon="4.71525">
        <ele>196</ele>
        <time>2018-07-12T08:42:49Z</time>
      </trkpt>
      <trkpt lat="45.98252" lon="4.71528">
        <ele>197</ele>
        <time>2018-07-12T08:42:50Z</time>
      </trkpt>
      <trkpt lat="45.98257" lon="4.7153">
        <ele>197</ele>
        <time>2018-07-12T08:42:51Z</time>
      </trkpt>
      <trkpt lat="45.98261" lon="4.71531">
        <ele>197</ele>
        <time>2018-07-12T08:42:52Z</time>
      </trkpt>
      <trkpt lat="45.98263" lon="4.71534">
        <ele>197</ele>
        <time>2018-07-12T08:42:53Z</time>
      </trkpt>
      <trkpt lat="45.9827" lon="4.71536">
        <ele>197</ele>
        <time>2018-07-12T08:42:54Z</time>
      </trkpt>
      <trkpt lat="45.98275" lon="4.71541">
        <ele>198</ele>
        <time>2018-07-12T08:42:55Z</time>
      </trkpt>
      <trkpt lat="45.98284" lon="4.71548">
        <ele>198</ele>
        <time>2018-07-12T08:42:56Z</time>
      </trkpt>
      <trkpt lat="45.9829" lon="4.71551">
        <ele>198</ele>
        <time>2018-07-12T08:42:57Z</time>
      </trkpt>
      <trkpt lat="45.98297" lon="4.71554">
        <ele>198</ele>
        <time>2018-07-12T08:42:58Z</time>
      </trkpt>
      <trkpt lat="45.98302" lon="4.71556">
        <ele>198</ele>
        <time>2018-07-12T08:42:59Z</time>
      </trkpt>
      <trkpt lat="45.98307" lon="4.71561">
        <ele>198</ele>
        <time>2018-07-12T08:43:00Z</time>
      </trkpt>
      <trkpt lat="45.98313" lon="4.71564">
        <ele>198</ele>
        <time>2018-07-12T08:43:01Z</time>
      </trkpt>
      <trkpt lat="45.98319" lon="4.71567">
        <ele>198</ele>
        <time>2018-07-12T08:43:02Z</time>
      </trkpt>
      <trkpt lat="45.98323" lon="4.71572">
        <ele>198</ele>
        <time>2018-07-12T08:43:03Z</time>
      </trkpt>
      <trkpt lat="45.98328" lon="4.71575">
        <ele>199</ele>
        <time>2018-07-12T08:43:04Z</time>
      </trkpt>
      <trkpt lat="45.98332" lon="4.71579">
        <ele>199</ele>
        <time>2018-07-12T08:43:05Z</time>
      </trkpt>
      <trkpt lat="45.98338" lon="4.71581">
        <ele>199</ele>
        <time>2018-07-12T08:43:06Z</time>
      </trkpt>
      <trkpt lat="45.98344" lon="4.71584">
        <ele>199</ele>
        <time>2018-07-12T08:43:07Z</time>
      </trkpt>
      <trkpt lat="45.98348" lon="4.71587">
        <ele>198</ele>
        <time>2018-07-12T08:43:08Z</time>
      </trkpt>
      <trkpt lat="45.98353" lon="4.71589">
        <ele>198</ele>
        <time>2018-07-12T08:43:09Z</time>
      </trkpt>
      <trkpt lat="45.98358" lon="4.71592">
        <ele>198</ele>
        <time>2018-07-12T08:43:10Z</time>
      </trkpt>
      <trkpt lat="45.98366" lon="4.71596">
        <ele>198</ele>
        <time>2018-07-12T08:43:11Z</time>
      </trkpt>
      <trkpt lat="45.9837" lon="4.71599">
        <ele>198</ele>
        <time>2018-07-12T08:43:12Z</time>
      </trkpt>
      <trkpt lat="45.98379" lon="4.71599">
        <ele>198</ele>
        <time>2018-07-12T08:43:13Z</time>
      </trkpt>
      <trkpt lat="45.98386" lon="4.71597">
        <ele>198</ele>
        <time>2018-07-12T08:43:14Z</time>
      </trkpt>
      <trkpt lat="45.98391" lon="4.71595">
        <ele>198</ele>
        <time>2018-07-12T08:43:15Z</time>
      </trkpt>
      <trkpt lat="45.98395" lon="4.71593">
        <ele>198</ele>
        <time>2018-07-12T08:43:16Z</time>
      </trkpt>
      <trkpt lat="45.984" lon="4.71589">
        <ele>197</ele>
        <time>2018-07-12T08:43:17Z</time>
      </trkpt>
      <trkpt lat="45.98404" lon="4.71584">
        <ele>197</ele>
        <time>2018-07-12T08:43:18Z</time>
      </trkpt>
      <trkpt lat="45.98409" lon="4.7158">
        <ele>197</ele>
        <time>2018-07-12T08:43:19Z</time>
      </trkpt>
      <trkpt lat="45.98413" lon="4.71575">
        <ele>197</ele>
        <time>2018-07-12T08:43:20Z</time>
      </trkpt>
      <trkpt lat="45.98418" lon="4.71567">
        <ele>197</ele>
        <time>2018-07-12T08:43:22Z</time>
      </trkpt>
      <trkpt lat="45.98423" lon="4.71564">
        <ele>197</ele>
        <time>2018-07-12T08:43:23Z</time>
      </trkpt>
      <trkpt lat="45.9843" lon="4.71557">
        <ele>197</ele>
        <time>2018-07-12T08:43:25Z</time>
      </trkpt>
      <trkpt lat="45.98433" lon="4.71554">
        <ele>197</ele>
        <time>2018-07-12T08:43:26Z</time>
      </trkpt>
      <trkpt lat="45.98438" lon="4.71547">
        <ele>197</ele>
        <time>2018-07-12T08:43:29Z</time>
      </trkpt>
      <trkpt lat="45.98439" lon="4.71544">
        <ele>197</ele>
        <time>2018-07-12T08:43:30Z</time>
      </trkpt>
      <trkpt lat="45.98446" lon="4.7154">
        <ele>197</ele>
        <time>2018-07-12T08:43:33Z</time>
      </trkpt>
      <trkpt lat="45.98447" lon="4.71539">
        <ele>197</ele>
        <time>2018-07-12T08:43:34Z</time>
      </trkpt>
      <trkpt lat="45.98451" lon="4.71534">
        <ele>197</ele>
        <time>2018-07-12T08:43:37Z</time>
      </trkpt>
      <trkpt lat="45.98459" lon="4.71527">
        <ele>197</ele>
        <time>2018-07-12T08:43:38Z</time>
      </trkpt>
      <trkpt lat="45.98464" lon="4.71526">
        <ele>197</ele>
        <time>2018-07-12T08:43:39Z</time>
      </trkpt>
      <trkpt lat="45.98469" lon="4.71525">
        <ele>197</ele>
        <time>2018-07-12T08:43:40Z</time>
      </trkpt>
      <trkpt lat="45.98476" lon="4.71523">
        <ele>196</ele>
        <time>2018-07-12T08:43:41Z</time>
      </trkpt>
      <trkpt lat="45.98481" lon="4.71521">
        <ele>196</ele>
        <time>2018-07-12T08:43:42Z</time>
      </trkpt>
      <trkpt lat="45.98489" lon="4.7152">
        <ele>196</ele>
        <time>2018-07-12T08:43:44Z</time>
      </trkpt>
      <trkpt lat="45.985" lon="4.7152">
        <ele>196</ele>
        <time>2018-07-12T08:43:45Z</time>
      </trkpt>
      <trkpt lat="45.98508" lon="4.7152">
        <ele>195</ele>
        <time>2018-07-12T08:43:46Z</time>
      </trkpt>
      <trkpt lat="45.98517" lon="4.71519">
        <ele>195</ele>
        <time>2018-07-12T08:43:47Z</time>
      </trkpt>
      <trkpt lat="45.98523" lon="4.71518">
        <ele>194</ele>
        <time>2018-07-12T08:43:48Z</time>
      </trkpt>
      <trkpt lat="45.98528" lon="4.7152">
        <ele>194</ele>
        <time>2018-07-12T08:43:49Z</time>
      </trkpt>
      <trkpt lat="45.98534" lon="4.71518">
        <ele>194</ele>
        <time>2018-07-12T08:43:50Z</time>
      </trkpt>
      <trkpt lat="45.98541" lon="4.71517">
        <ele>194</ele>
        <time>2018-07-12T08:43:51Z</time>
      </trkpt>
      <trkpt lat="45.98548" lon="4.71514">
        <ele>194</ele>
        <time>2018-07-12T08:43:52Z</time>
      </trkpt>
      <trkpt lat="45.98554" lon="4.71511">
        <ele>194</ele>
        <time>2018-07-12T08:43:53Z</time>
      </trkpt>
      <trkpt lat="45.98562" lon="4.71512">
        <ele>193</ele>
        <time>2018-07-12T08:43:54Z</time>
      </trkpt>
      <trkpt lat="45.9857" lon="4.71509">
        <ele>193</ele>
        <time>2018-07-12T08:43:55Z</time>
      </trkpt>
      <trkpt lat="45.98575" lon="4.71508">
        <ele>193</ele>
        <time>2018-07-12T08:43:56Z</time>
      </trkpt>
      <trkpt lat="45.98582" lon="4.71507">
        <ele>193</ele>
        <time>2018-07-12T08:43:57Z</time>
      </trkpt>
      <trkpt lat="45.98592" lon="4.71508">
        <ele>192</ele>
        <time>2018-07-12T08:43:58Z</time>
      </trkpt>
      <trkpt lat="45.986" lon="4.71504">
        <ele>192</ele>
        <time>2018-07-12T08:44:00Z</time>
      </trkpt>
      <trkpt lat="45.98608" lon="4.71502">
        <ele>191</ele>
        <time>2018-07-12T08:44:01Z</time>
      </trkpt>
      <trkpt lat="45.98617" lon="4.71501">
        <ele>191</ele>
        <time>2018-07-12T08:44:02Z</time>
      </trkpt>
      <trkpt lat="45.98624" lon="4.71498">
        <ele>190</ele>
        <time>2018-07-12T08:44:03Z</time>
      </trkpt>
      <trkpt lat="45.9863" lon="4.71496">
        <ele>190</ele>
        <time>2018-07-12T08:44:04Z</time>
      </trkpt>
      <trkpt lat="45.98637" lon="4.715">
        <ele>190</ele>
        <time>2018-07-12T08:44:05Z</time>
      </trkpt>
      <trkpt lat="45.98646" lon="4.71496">
        <ele>190</ele>
        <time>2018-07-12T08:44:07Z</time>
      </trkpt>
      <trkpt lat="45.9865" lon="4.71496">
        <ele>190</ele>
        <time>2018-07-12T08:44:08Z</time>
      </trkpt>
      <trkpt lat="45.98655" lon="4.71497">
        <ele>190</ele>
        <time>2018-07-12T08:44:09Z</time>
      </trkpt>
      <trkpt lat="45.9866" lon="4.71492">
        <ele>189</ele>
        <time>2018-07-12T08:44:10Z</time>
      </trkpt>
      <trkpt lat="45.98668" lon="4.71495">
        <ele>189</ele>
        <time>2018-07-12T08:44:15Z</time>
      </trkpt>
      <trkpt lat="45.98678" lon="4.71497">
        <ele>188</ele>
        <time>2018-07-12T08:44:16Z</time>
      </trkpt>
      <trkpt lat="45.9868" lon="4.71498">
        <ele>188</ele>
        <time>2018-07-12T08:44:17Z</time>
      </trkpt>
      <trkpt lat="45.98688" lon="4.71498">
        <ele>187</ele>
        <time>2018-07-12T08:44:18Z</time>
      </trkpt>
      <trkpt lat="45.98693" lon="4.71499">
        <ele>187</ele>
        <time>2018-07-12T08:44:19Z</time>
      </trkpt>
      <trkpt lat="45.98696" lon="4.71505">
        <ele>187</ele>
        <time>2018-07-12T08:44:20Z</time>
      </trkpt>
      <trkpt lat="45.98703" lon="4.71505">
        <ele>187</ele>
        <time>2018-07-12T08:44:21Z</time>
      </trkpt>
      <trkpt lat="45.9871" lon="4.71505">
        <ele>187</ele>
        <time>2018-07-12T08:44:22Z</time>
      </trkpt>
      <trkpt lat="45.98718" lon="4.71504">
        <ele>187</ele>
        <time>2018-07-12T08:44:23Z</time>
      </trkpt>
      <trkpt lat="45.98726" lon="4.71504">
        <ele>186</ele>
        <time>2018-07-12T08:44:24Z</time>
      </trkpt>
      <trkpt lat="45.98732" lon="4.71504">
        <ele>186</ele>
        <time>2018-07-12T08:44:25Z</time>
      </trkpt>
      <trkpt lat="45.98737" lon="4.71504">
        <ele>185</ele>
        <time>2018-07-12T08:44:26Z</time>
      </trkpt>
      <trkpt lat="45.98744" lon="4.71503">
        <ele>185</ele>
        <time>2018-07-12T08:44:27Z</time>
      </trkpt>
      <trkpt lat="45.98749" lon="4.71502">
        <ele>184</ele>
        <time>2018-07-12T08:44:28Z</time>
      </trkpt>
      <trkpt lat="45.98755" lon="4.71503">
        <ele>184</ele>
        <time>2018-07-12T08:44:29Z</time>
      </trkpt>
      <trkpt lat="45.98759" lon="4.71502">
        <ele>184</ele>
        <time>2018-07-12T08:44:30Z</time>
      </trkpt>
      <trkpt lat="45.98765" lon="4.71502">
        <ele>184</ele>
        <time>2018-07-12T08:44:31Z</time>
      </trkpt>
      <trkpt lat="45.9877" lon="4.71503">
        <ele>184</ele>
        <time>2018-07-12T08:44:32Z</time>
      </trkpt>
      <trkpt lat="45.98777" lon="4.71502">
        <ele>184</ele>
        <time>2018-07-12T08:44:33Z</time>
      </trkpt>
      <trkpt lat="45.98781" lon="4.71503">
        <ele>184</ele>
        <time>2018-07-12T08:44:34Z</time>
      </trkpt>
      <trkpt lat="45.98789" lon="4.71501">
        <ele>184</ele>
        <time>2018-07-12T08:44:35Z</time>
      </trkpt>
      <trkpt lat="45.98795" lon="4.71503">
        <ele>184</ele>
        <time>2018-07-12T08:44:36Z</time>
      </trkpt>
      <trkpt lat="45.98801" lon="4.71503">
        <ele>184</ele>
        <time>2018-07-12T08:44:37Z</time>
      </trkpt>
      <trkpt lat="45.98807" lon="4.71503">
        <ele>184</ele>
        <time>2018-07-12T08:44:38Z</time>
      </trkpt>
      <trkpt lat="45.98815" lon="4.71504">
        <ele>184</ele>
        <time>2018-07-12T08:44:41Z</time>
      </trkpt>
      <trkpt lat="45.98817" lon="4.71504">
        <ele>184</ele>
        <time>2018-07-12T08:44:42Z</time>
      </trkpt>
      <trkpt lat="45.98824" lon="4.71506">
        <ele>184</ele>
        <time>2018-07-12T08:44:46Z</time>
      </trkpt>
      <trkpt lat="45.98834" lon="4.71506">
        <ele>184</ele>
        <time>2018-07-12T08:44:47Z</time>
      </trkpt>
      <trkpt lat="45.98839" lon="4.71507">
        <ele>184</ele>
        <time>2018-07-12T08:44:48Z</time>
      </trkpt>
      <trkpt lat="45.98844" lon="4.71507">
        <ele>184</ele>
        <time>2018-07-12T08:44:49Z</time>
      </trkpt>
      <trkpt lat="45.98849" lon="4.71508">
        <ele>185</ele>
        <time>2018-07-12T08:44:50Z</time>
      </trkpt>
      <trkpt lat="45.98854" lon="4.71508">
        <ele>185</ele>
        <time>2018-07-12T08:44:51Z</time>
      </trkpt>
      <trkpt lat="45.98861" lon="4.71509">
        <ele>185</ele>
        <time>2018-07-12T08:44:52Z</time>
      </trkpt>
      <trkpt lat="45.98868" lon="4.71508">
        <ele>185</ele>
        <time>2018-07-12T08:44:53Z</time>
      </trkpt>
      <trkpt lat="45.98874" lon="4.71508">
        <ele>185</ele>
        <time>2018-07-12T08:44:54Z</time>
      </trkpt>
      <trkpt lat="45.98878" lon="4.71511">
        <ele>185</ele>
        <time>2018-07-12T08:44:55Z</time>
      </trkpt>
      <trkpt lat="45.98884" lon="4.71511">
        <ele>185</ele>
        <time>2018-07-12T08:44:56Z</time>
      </trkpt>
      <trkpt lat="45.98888" lon="4.71511">
        <ele>185</ele>
        <time>2018-07-12T08:44:57Z</time>
      </trkpt>
      <trkpt lat="45.98892" lon="4.71512">
        <ele>185</ele>
        <time>2018-07-12T08:44:58Z</time>
      </trkpt>
      <trkpt lat="45.98897" lon="4.71516">
        <ele>185</ele>
        <time>2018-07-12T08:44:59Z</time>
      </trkpt>
      <trkpt lat="45.98903" lon="4.71515">
        <ele>185</ele>
        <time>2018-07-12T08:45:00Z</time>
      </trkpt>
      <trkpt lat="45.98908" lon="4.71514">
        <ele>185</ele>
        <time>2018-07-12T08:45:01Z</time>
      </trkpt>
      <trkpt lat="45.98913" lon="4.71514">
        <ele>185</ele>
        <time>2018-07-12T08:45:02Z</time>
      </trkpt>
      <trkpt lat="45.98919" lon="4.71514">
        <ele>185</ele>
        <time>2018-07-12T08:45:03Z</time>
      </trkpt>
      <trkpt lat="45.98925" lon="4.71514">
        <ele>186</ele>
        <time>2018-07-12T08:45:04Z</time>
      </trkpt>
      <trkpt lat="45.98929" lon="4.71516">
        <ele>186</ele>
        <time>2018-07-12T08:45:05Z</time>
      </trkpt>
      <trkpt lat="45.98935" lon="4.71517">
        <ele>186</ele>
        <time>2018-07-12T08:45:06Z</time>
      </trkpt>
      <trkpt lat="45.9894" lon="4.71518">
        <ele>186</ele>
        <time>2018-07-12T08:45:07Z</time>
      </trkpt>
      <trkpt lat="45.98949" lon="4.71518">
        <ele>186</ele>
        <time>2018-07-12T08:45:09Z</time>
      </trkpt>
      <trkpt lat="45.98954" lon="4.71518">
        <ele>186</ele>
        <time>2018-07-12T08:45:10Z</time>
      </trkpt>
      <trkpt lat="45.98961" lon="4.71515">
        <ele>186</ele>
        <time>2018-07-12T08:45:12Z</time>
      </trkpt>
      <trkpt lat="45.98966" lon="4.71516">
        <ele>186</ele>
        <time>2018-07-12T08:45:13Z</time>
      </trkpt>
      <trkpt lat="45.98972" lon="4.71516">
        <ele>186</ele>
        <time>2018-07-12T08:45:14Z</time>
      </trkpt>
      <trkpt lat="45.98976" lon="4.71517">
        <ele>186</ele>
        <time>2018-07-12T08:45:15Z</time>
      </trkpt>
      <trkpt lat="45.98983" lon="4.7152">
        <ele>186</ele>
        <time>2018-07-12T08:45:17Z</time>
      </trkpt>
      <trkpt lat="45.98988" lon="4.71519">
        <ele>186</ele>
        <time>2018-07-12T08:45:18Z</time>
      </trkpt>
      <trkpt lat="45.98996" lon="4.71522">
        <ele>186</ele>
        <time>2018-07-12T08:45:20Z</time>
      </trkpt>
      <trkpt lat="45.99002" lon="4.71525">
        <ele>188</ele>
        <time>2018-07-12T08:45:21Z</time>
      </trkpt>
      <trkpt lat="45.99008" lon="4.71524">
        <ele>188</ele>
        <time>2018-07-12T08:45:22Z</time>
      </trkpt>
      <trkpt lat="45.99013" lon="4.71523">
        <ele>188</ele>
        <time>2018-07-12T08:45:23Z</time>
      </trkpt>
      <trkpt lat="45.99018" lon="4.71522">
        <ele>188</ele>
        <time>2018-07-12T08:45:24Z</time>
      </trkpt>
      <trkpt lat="45.99022" lon="4.71523">
        <ele>188</ele>
        <time>2018-07-12T08:45:25Z</time>
      </trkpt>
      <trkpt lat="45.9903" lon="4.71526">
        <ele>188</ele>
        <time>2018-07-12T08:45:28Z</time>
      </trkpt>
      <trkpt lat="45.99037" lon="4.71526">
        <ele>188</ele>
        <time>2018-07-12T08:45:29Z</time>
      </trkpt>
      <trkpt lat="45.99043" lon="4.71524">
        <ele>189</ele>
        <time>2018-07-12T08:45:30Z</time>
      </trkpt>
      <trkpt lat="45.99047" lon="4.71523">
        <ele>189</ele>
        <time>2018-07-12T08:45:31Z</time>
      </trkpt>
      <trkpt lat="45.99049" lon="4.71522">
        <ele>189</ele>
        <time>2018-07-12T08:45:32Z</time>
      </trkpt>
      <trkpt lat="45.99058" lon="4.71521">
        <ele>189</ele>
        <time>2018-07-12T08:45:33Z</time>
      </trkpt>
      <trkpt lat="45.99066" lon="4.71523">
        <ele>189</ele>
        <time>2018-07-12T08:45:35Z</time>
      </trkpt>
      <trkpt lat="45.99071" lon="4.71523">
        <ele>189</ele>
        <time>2018-07-12T08:45:36Z</time>
      </trkpt>
      <trkpt lat="45.99079" lon="4.71523">
        <ele>189</ele>
        <time>2018-07-12T08:45:38Z</time>
      </trkpt>
      <trkpt lat="45.99083" lon="4.71523">
        <ele>189</ele>
        <time>2018-07-12T08:45:39Z</time>
      </trkpt>
      <trkpt lat="45.99092" lon="4.7152">
        <ele>191</ele>
        <time>2018-07-12T08:45:41Z</time>
      </trkpt>
      <trkpt lat="45.99097" lon="4.71519">
        <ele>191</ele>
        <time>2018-07-12T08:45:42Z</time>
      </trkpt>
      <trkpt lat="45.99104" lon="4.71516">
        <ele>191</ele>
        <time>2018-07-12T08:45:44Z</time>
      </trkpt>
      <trkpt lat="45.99111" lon="4.71518">
        <ele>191</ele>
        <time>2018-07-12T08:45:45Z</time>
      </trkpt>
      <trkpt lat="45.99119" lon="4.71518">
        <ele>192</ele>
        <time>2018-07-12T08:45:48Z</time>
      </trkpt>
      <trkpt lat="45.99121" lon="4.71518">
        <ele>192</ele>
        <time>2018-07-12T08:45:49Z</time>
      </trkpt>
      <trkpt lat="45.99129" lon="4.71516">
        <ele>192</ele>
        <time>2018-07-12T08:46:25Z</time>
      </trkpt>
      <trkpt lat="45.99131" lon="4.71516">
        <ele>192</ele>
        <time>2018-07-12T08:46:26Z</time>
      </trkpt>
      <trkpt lat="45.99139" lon="4.71519">
        <ele>192</ele>
        <time>2018-07-12T08:46:30Z</time>
      </trkpt>
      <trkpt lat="45.99141" lon="4.71519">
        <ele>192</ele>
        <time>2018-07-12T08:46:31Z</time>
      </trkpt>
      <trkpt lat="45.99148" lon="4.7152">
        <ele>192</ele>
        <time>2018-07-12T08:46:34Z</time>
      </trkpt>
      <trkpt lat="45.99151" lon="4.71521">
        <ele>192</ele>
        <time>2018-07-12T08:46:35Z</time>
      </trkpt>
      <trkpt lat="45.99158" lon="4.71521">
        <ele>192</ele>
        <time>2018-07-12T08:46:38Z</time>
      </trkpt>
      <trkpt lat="45.99167" lon="4.7152">
        <ele>194</ele>
        <time>2018-07-12T08:46:39Z</time>
      </trkpt>
      <trkpt lat="45.99169" lon="4.71519">
        <ele>194</ele>
        <time>2018-07-12T08:46:40Z</time>
      </trkpt>
      <trkpt lat="45.99176" lon="4.71516">
        <ele>194</ele>
        <time>2018-07-12T08:46:41Z</time>
      </trkpt>
      <trkpt lat="45.99183" lon="4.71515">
        <ele>194</ele>
        <time>2018-07-12T08:46:45Z</time>
      </trkpt>
      <trkpt lat="45.99186" lon="4.71515">
        <ele>194</ele>
        <time>2018-07-12T08:46:46Z</time>
      </trkpt>
      <trkpt lat="45.99193" lon="4.71514">
        <ele>195</ele>
        <time>2018-07-12T08:46:48Z</time>
      </trkpt>
      <trkpt lat="45.99196" lon="4.71514">
        <ele>195</ele>
        <time>2018-07-12T08:46:49Z</time>
      </trkpt>
      <trkpt lat="45.99201" lon="4.71515">
        <ele>195</ele>
        <time>2018-07-12T08:46:51Z</time>
      </trkpt>
      <trkpt lat="45.99211" lon="4.71516">
        <ele>195</ele>
        <time>2018-07-12T08:46:52Z</time>
      </trkpt>
      <trkpt lat="45.99215" lon="4.71518">
        <ele>195</ele>
        <time>2018-07-12T08:46:53Z</time>
      </trkpt>
      <trkpt lat="45.99221" lon="4.71519">
        <ele>195</ele>
        <time>2018-07-12T08:46:54Z</time>
      </trkpt>
      <trkpt lat="45.99225" lon="4.7152">
        <ele>195</ele>
        <time>2018-07-12T08:46:55Z</time>
      </trkpt>
      <trkpt lat="45.9923" lon="4.7152">
        <ele>196</ele>
        <time>2018-07-12T08:46:56Z</time>
      </trkpt>
      <trkpt lat="45.99234" lon="4.71521">
        <ele>196</ele>
        <time>2018-07-12T08:46:58Z</time>
      </trkpt>
      <trkpt lat="45.9924" lon="4.71523">
        <ele>196</ele>
        <time>2018-07-12T08:46:59Z</time>
      </trkpt>
      <trkpt lat="45.99245" lon="4.71522">
        <ele>196</ele>
        <time>2018-07-12T08:47:01Z</time>
      </trkpt>
      <trkpt lat="45.9925" lon="4.71523">
        <ele>198</ele>
        <time>2018-07-12T08:47:02Z</time>
      </trkpt>
      <trkpt lat="45.99256" lon="4.71525">
        <ele>198</ele>
        <time>2018-07-12T08:47:04Z</time>
      </trkpt>
      <trkpt lat="45.99261" lon="4.71524">
        <ele>198</ele>
        <time>2018-07-12T08:47:05Z</time>
      </trkpt>
      <trkpt lat="45.99269" lon="4.71523">
        <ele>198</ele>
        <time>2018-07-12T08:47:07Z</time>
      </trkpt>
      <trkpt lat="45.99273" lon="4.71522">
        <ele>198</ele>
        <time>2018-07-12T08:47:08Z</time>
      </trkpt>
      <trkpt lat="45.99278" lon="4.71521">
        <ele>199</ele>
        <time>2018-07-12T08:47:09Z</time>
      </trkpt>
      <trkpt lat="45.99284" lon="4.71519">
        <ele>199</ele>
        <time>2018-07-12T08:47:10Z</time>
      </trkpt>
      <trkpt lat="45.99289" lon="4.71518">
        <ele>199</ele>
        <time>2018-07-12T08:47:11Z</time>
      </trkpt>
      <trkpt lat="45.99294" lon="4.71517">
        <ele>199</ele>
        <time>2018-07-12T08:47:12Z</time>
      </trkpt>
      <trkpt lat="45.99303" lon="4.71516">
        <ele>199</ele>
        <time>2018-07-12T08:47:14Z</time>
      </trkpt>
      <trkpt lat="45.99307" lon="4.71515">
        <ele>199</ele>
        <time>2018-07-12T08:47:15Z</time>
      </trkpt>
      <trkpt lat="45.99311" lon="4.71514">
        <ele>199</ele>
        <time>2018-07-12T08:47:16Z</time>
      </trkpt>
      <trkpt lat="45.99317" lon="4.71511">
        <ele>200</ele>
        <time>2018-07-12T08:47:17Z</time>
      </trkpt>
      <trkpt lat="45.9932" lon="4.71512">
        <ele>200</ele>
        <time>2018-07-12T08:47:18Z</time>
      </trkpt>
      <trkpt lat="45.99327" lon="4.71509">
        <ele>200</ele>
        <time>2018-07-12T08:47:19Z</time>
      </trkpt>
      <trkpt lat="45.99331" lon="4.71511">
        <ele>200</ele>
        <time>2018-07-12T08:47:20Z</time>
      </trkpt>
      <trkpt lat="45.99336" lon="4.71512">
        <ele>200</ele>
        <time>2018-07-12T08:47:21Z</time>
      </trkpt>
      <trkpt lat="45.99342" lon="4.7151">
        <ele>200</ele>
        <time>2018-07-12T08:47:22Z</time>
      </trkpt>
      <trkpt lat="45.99346" lon="4.71512">
        <ele>200</ele>
        <time>2018-07-12T08:47:23Z</time>
      </trkpt>
      <trkpt lat="45.99355" lon="4.71513">
        <ele>200</ele>
        <time>2018-07-12T08:47:25Z</time>
      </trkpt>
      <trkpt lat="45.99359" lon="4.71513">
        <ele>200</ele>
        <time>2018-07-12T08:47:26Z</time>
      </trkpt>
      <trkpt lat="45.99365" lon="4.71514">
        <ele>200</ele>
        <time>2018-07-12T08:47:27Z</time>
      </trkpt>
      <trkpt lat="45.9937" lon="4.71513">
        <ele>200</ele>
        <time>2018-07-12T08:47:28Z</time>
      </trkpt>
      <trkpt lat="45.99376" lon="4.7151">
        <ele>200</ele>
        <time>2018-07-12T08:47:29Z</time>
      </trkpt>
      <trkpt lat="45.99381" lon="4.71511">
        <ele>200</ele>
        <time>2018-07-12T08:47:30Z</time>
      </trkpt>
      <trkpt lat="45.99386" lon="4.7151">
        <ele>200</ele>
        <time>2018-07-12T08:47:31Z</time>
      </trkpt>
      <trkpt lat="45.99391" lon="4.7151">
        <ele>200</ele>
        <time>2018-07-12T08:47:32Z</time>
      </trkpt>
      <trkpt lat="45.99399" lon="4.71512">
        <ele>200</ele>
        <time>2018-07-12T08:47:34Z</time>
      </trkpt>
      <trkpt lat="45.99402" lon="4.71511">
        <ele>200</ele>
        <time>2018-07-12T08:47:35Z</time>
      </trkpt>
      <trkpt lat="45.99406" lon="4.71512">
        <ele>200</ele>
        <time>2018-07-12T08:47:36Z</time>
      </trkpt>
      <trkpt lat="45.99412" lon="4.71513">
        <ele>200</ele>
        <time>2018-07-12T08:47:37Z</time>
      </trkpt>
      <trkpt lat="45.99418" lon="4.71511">
        <ele>199</ele>
        <time>2018-07-12T08:47:38Z</time>
      </trkpt>
      <trkpt lat="45.99423" lon="4.71513">
        <ele>199</ele>
        <time>2018-07-12T08:47:39Z</time>
      </trkpt>
      <trkpt lat="45.99428" lon="4.71513">
        <ele>199</ele>
        <time>2018-07-12T08:47:40Z</time>
      </trkpt>
      <trkpt lat="45.99433" lon="4.71515">
        <ele>199</ele>
        <time>2018-07-12T08:47:41Z</time>
      </trkpt>
      <trkpt lat="45.99438" lon="4.71515">
        <ele>199</ele>
        <time>2018-07-12T08:47:42Z</time>
      </trkpt>
      <trkpt lat="45.99444" lon="4.71511">
        <ele>199</ele>
        <time>2018-07-12T08:47:43Z</time>
      </trkpt>
      <trkpt lat="45.99452" lon="4.71512">
        <ele>199</ele>
        <time>2018-07-12T08:47:45Z</time>
      </trkpt>
      <trkpt lat="45.99457" lon="4.71511">
        <ele>199</ele>
        <time>2018-07-12T08:47:46Z</time>
      </trkpt>
      <trkpt lat="45.99463" lon="4.71511">
        <ele>199</ele>
        <time>2018-07-12T08:47:47Z</time>
      </trkpt>
      <trkpt lat="45.99468" lon="4.7151">
        <ele>199</ele>
        <time>2018-07-12T08:47:48Z</time>
      </trkpt>
      <trkpt lat="45.99474" lon="4.71509">
        <ele>199</ele>
        <time>2018-07-12T08:47:49Z</time>
      </trkpt>
      <trkpt lat="45.99478" lon="4.71509">
        <ele>199</ele>
        <time>2018-07-12T08:47:50Z</time>
      </trkpt>
      <trkpt lat="45.99484" lon="4.71507">
        <ele>199</ele>
        <time>2018-07-12T08:47:51Z</time>
      </trkpt>
      <trkpt lat="45.9949" lon="4.71509">
        <ele>199</ele>
        <time>2018-07-12T08:47:52Z</time>
      </trkpt>
      <trkpt lat="45.99496" lon="4.71509">
        <ele>199</ele>
        <time>2018-07-12T08:47:53Z</time>
      </trkpt>
      <trkpt lat="45.99501" lon="4.71509">
        <ele>199</ele>
        <time>2018-07-12T08:47:54Z</time>
      </trkpt>
      <trkpt lat="45.99506" lon="4.71508">
        <ele>199</ele>
        <time>2018-07-12T08:47:55Z</time>
      </trkpt>
      <trkpt lat="45.99511" lon="4.7151">
        <ele>199</ele>
        <time>2018-07-12T08:47:56Z</time>
      </trkpt>
      <trkpt lat="45.99516" lon="4.71508">
        <ele>199</ele>
        <time>2018-07-12T08:47:57Z</time>
      </trkpt>
      <trkpt lat="45.9952" lon="4.71508">
        <ele>198</ele>
        <time>2018-07-12T08:47:58Z</time>
      </trkpt>
      <trkpt lat="45.99526" lon="4.71508">
        <ele>198</ele>
        <time>2018-07-12T08:47:59Z</time>
      </trkpt>
      <trkpt lat="45.99532" lon="4.71509">
        <ele>198</ele>
        <time>2018-07-12T08:48:00Z</time>
      </trkpt>
      <trkpt lat="45.99537" lon="4.7151">
        <ele>198</ele>
        <time>2018-07-12T08:48:01Z</time>
      </trkpt>
      <trkpt lat="45.99541" lon="4.71509">
        <ele>198</ele>
        <time>2018-07-12T08:48:02Z</time>
      </trkpt>
      <trkpt lat="45.99545" lon="4.71508">
        <ele>198</ele>
        <time>2018-07-12T08:48:03Z</time>
      </trkpt>
      <trkpt lat="45.9955" lon="4.71509">
        <ele>198</ele>
        <time>2018-07-12T08:48:04Z</time>
      </trkpt>
      <trkpt lat="45.99558" lon="4.71511">
        <ele>198</ele>
        <time>2018-07-12T08:48:06Z</time>
      </trkpt>
      <trkpt lat="45.99564" lon="4.71511">
        <ele>197</ele>
        <time>2018-07-12T08:48:07Z</time>
      </trkpt>
      <trkpt lat="45.9957" lon="4.71517">
        <ele>197</ele>
        <time>2018-07-12T08:48:12Z</time>
      </trkpt>
      <trkpt lat="45.99572" lon="4.7152">
        <ele>197</ele>
        <time>2018-07-12T08:48:13Z</time>
      </trkpt>
      <trkpt lat="45.99576" lon="4.71529">
        <ele>198</ele>
        <time>2018-07-12T08:48:14Z</time>
      </trkpt>
      <trkpt lat="45.9958" lon="4.71532">
        <ele>198</ele>
        <time>2018-07-12T08:48:15Z</time>
      </trkpt>
      <trkpt lat="45.99586" lon="4.71538">
        <ele>198</ele>
        <time>2018-07-12T08:48:17Z</time>
      </trkpt>
      <trkpt lat="45.99591" lon="4.71538">
        <ele>198</ele>
        <time>2018-07-12T08:48:18Z</time>
      </trkpt>
      <trkpt lat="45.99599" lon="4.71536">
        <ele>198</ele>
        <time>2018-07-12T08:48:20Z</time>
      </trkpt>
      <trkpt lat="45.99602" lon="4.71529">
        <ele>197</ele>
        <time>2018-07-12T08:48:21Z</time>
      </trkpt>
      <trkpt lat="45.99605" lon="4.71521">
        <ele>197</ele>
        <time>2018-07-12T08:48:22Z</time>
      </trkpt>
      <trkpt lat="45.99607" lon="4.71514">
        <ele>197</ele>
        <time>2018-07-12T08:48:23Z</time>
      </trkpt>
      <trkpt lat="45.99606" lon="4.71507">
        <ele>197</ele>
        <time>2018-07-12T08:48:24Z</time>
      </trkpt>
      <trkpt lat="45.99605" lon="4.71499">
        <ele>197</ele>
        <time>2018-07-12T08:48:25Z</time>
      </trkpt>
      <trkpt lat="45.99607" lon="4.71492">
        <ele>197</ele>
        <time>2018-07-12T08:48:26Z</time>
      </trkpt>
      <trkpt lat="45.99609" lon="4.71483">
        <ele>197</ele>
        <time>2018-07-12T08:48:27Z</time>
      </trkpt>
      <trkpt lat="45.99609" lon="4.71476">
        <ele>197</ele>
        <time>2018-07-12T08:48:28Z</time>
      </trkpt>
      <trkpt lat="45.99611" lon="4.7147">
        <ele>197</ele>
        <time>2018-07-12T08:48:29Z</time>
      </trkpt>
      <trkpt lat="45.99616" lon="4.7146">
        <ele>197</ele>
        <time>2018-07-12T08:48:30Z</time>
      </trkpt>
      <trkpt lat="45.99617" lon="4.71452">
        <ele>197</ele>
        <time>2018-07-12T08:48:31Z</time>
      </trkpt>
      <trkpt lat="45.9962" lon="4.71446">
        <ele>197</ele>
        <time>2018-07-12T08:48:32Z</time>
      </trkpt>
      <trkpt lat="45.99622" lon="4.7144">
        <ele>197</ele>
        <time>2018-07-12T08:48:33Z</time>
      </trkpt>
      <trkpt lat="45.99625" lon="4.71433">
        <ele>197</ele>
        <time>2018-07-12T08:48:34Z</time>
      </trkpt>
      <trkpt lat="45.9963" lon="4.71427">
        <ele>197</ele>
        <time>2018-07-12T08:48:35Z</time>
      </trkpt>
      <trkpt lat="45.99633" lon="4.71421">
        <ele>197</ele>
        <time>2018-07-12T08:48:36Z</time>
      </trkpt>
      <trkpt lat="45.99636" lon="4.71415">
        <ele>198</ele>
        <time>2018-07-12T08:48:37Z</time>
      </trkpt>
      <trkpt lat="45.9964" lon="4.71408">
        <ele>198</ele>
        <time>2018-07-12T08:48:38Z</time>
      </trkpt>
      <trkpt lat="45.99643" lon="4.71402">
        <ele>198</ele>
        <time>2018-07-12T08:48:39Z</time>
      </trkpt>
      <trkpt lat="45.99648" lon="4.71395">
        <ele>198</ele>
        <time>2018-07-12T08:48:40Z</time>
      </trkpt>
      <trkpt lat="45.99651" lon="4.71389">
        <ele>198</ele>
        <time>2018-07-12T08:48:41Z</time>
      </trkpt>
      <trkpt lat="45.99654" lon="4.71382">
        <ele>198</ele>
        <time>2018-07-12T08:48:42Z</time>
      </trkpt>
      <trkpt lat="45.99655" lon="4.71375">
        <ele>198</ele>
        <time>2018-07-12T08:48:43Z</time>
      </trkpt>
      <trkpt lat="45.99659" lon="4.7137">
        <ele>197</ele>
        <time>2018-07-12T08:48:44Z</time>
      </trkpt>
      <trkpt lat="45.99663" lon="4.71365">
        <ele>197</ele>
        <time>2018-07-12T08:48:45Z</time>
      </trkpt>
      <trkpt lat="45.99667" lon="4.71359">
        <ele>197</ele>
        <time>2018-07-12T08:48:46Z</time>
      </trkpt>
      <trkpt lat="45.99672" lon="4.71351">
        <ele>197</ele>
        <time>2018-07-12T08:48:47Z</time>
      </trkpt>
      <trkpt lat="45.99675" lon="4.71343">
        <ele>197</ele>
        <time>2018-07-12T08:48:48Z</time>
      </trkpt>
      <trkpt lat="45.99679" lon="4.71337">
        <ele>197</ele>
        <time>2018-07-12T08:48:49Z</time>
      </trkpt>
      <trkpt lat="45.99681" lon="4.71332">
        <ele>197</ele>
        <time>2018-07-12T08:48:50Z</time>
      </trkpt>
      <trkpt lat="45.99684" lon="4.71327">
        <ele>197</ele>
        <time>2018-07-12T08:48:51Z</time>
      </trkpt>
      <trkpt lat="45.99689" lon="4.71316">
        <ele>197</ele>
        <time>2018-07-12T08:48:53Z</time>
      </trkpt>
      <trkpt lat="45.99691" lon="4.71312">
        <ele>198</ele>
        <time>2018-07-12T08:48:54Z</time>
      </trkpt>
      <trkpt lat="45.99697" lon="4.71302">
        <ele>198</ele>
        <time>2018-07-12T08:48:56Z</time>
      </trkpt>
      <trkpt lat="45.99698" lon="4.71298">
        <ele>198</ele>
        <time>2018-07-12T08:48:57Z</time>
      </trkpt>
      <trkpt lat="45.99704" lon="4.71291">
        <ele>198</ele>
        <time>2018-07-12T08:48:58Z</time>
      </trkpt>
      <trkpt lat="45.99704" lon="4.71286">
        <ele>198</ele>
        <time>2018-07-12T08:48:59Z</time>
      </trkpt>
      <trkpt lat="45.99707" lon="4.71279">
        <ele>198</ele>
        <time>2018-07-12T08:49:00Z</time>
      </trkpt>
      <trkpt lat="45.9971" lon="4.71274">
        <ele>198</ele>
        <time>2018-07-12T08:49:01Z</time>
      </trkpt>
      <trkpt lat="45.99715" lon="4.71267">
        <ele>198</ele>
        <time>2018-07-12T08:49:02Z</time>
      </trkpt>
      <trkpt lat="45.9972" lon="4.71259">
        <ele>198</ele>
        <time>2018-07-12T08:49:03Z</time>
      </trkpt>
      <trkpt lat="45.99724" lon="4.71251">
        <ele>198</ele>
        <time>2018-07-12T08:49:05Z</time>
      </trkpt>
      <trkpt lat="45.9973" lon="4.71241">
        <ele>198</ele>
        <time>2018-07-12T08:49:06Z</time>
      </trkpt>
      <trkpt lat="45.99733" lon="4.71234">
        <ele>198</ele>
        <time>2018-07-12T08:49:07Z</time>
      </trkpt>
      <trkpt lat="45.99737" lon="4.71229">
        <ele>198</ele>
        <time>2018-07-12T08:49:08Z</time>
      </trkpt>
      <trkpt lat="45.99739" lon="4.71224">
        <ele>198</ele>
        <time>2018-07-12T08:49:09Z</time>
      </trkpt>
      <trkpt lat="45.99742" lon="4.71219">
        <ele>198</ele>
        <time>2018-07-12T08:49:10Z</time>
      </trkpt>
      <trkpt lat="45.99746" lon="4.71213">
        <ele>198</ele>
        <time>2018-07-12T08:49:11Z</time>
      </trkpt>
      <trkpt lat="45.99749" lon="4.71207">
        <ele>198</ele>
        <time>2018-07-12T08:49:12Z</time>
      </trkpt>
      <trkpt lat="45.99751" lon="4.71198">
        <ele>198</ele>
        <time>2018-07-12T08:49:13Z</time>
      </trkpt>
      <trkpt lat="45.99754" lon="4.71192">
        <ele>198</ele>
        <time>2018-07-12T08:49:14Z</time>
      </trkpt>
      <trkpt lat="45.99759" lon="4.71186">
        <ele>198</ele>
        <time>2018-07-12T08:49:15Z</time>
      </trkpt>
      <trkpt lat="45.99763" lon="4.71179">
        <ele>198</ele>
        <time>2018-07-12T08:49:16Z</time>
      </trkpt>
      <trkpt lat="45.99767" lon="4.71174">
        <ele>198</ele>
        <time>2018-07-12T08:49:17Z</time>
      </trkpt>
      <trkpt lat="45.99771" lon="4.71167">
        <ele>198</ele>
        <time>2018-07-12T08:49:18Z</time>
      </trkpt>
      <trkpt lat="45.99775" lon="4.7116">
        <ele>198</ele>
        <time>2018-07-12T08:49:19Z</time>
      </trkpt>
      <trkpt lat="45.99778" lon="4.71153">
        <ele>198</ele>
        <time>2018-07-12T08:49:20Z</time>
      </trkpt>
      <trkpt lat="45.99783" lon="4.71144">
        <ele>198</ele>
        <time>2018-07-12T08:49:22Z</time>
      </trkpt>
      <trkpt lat="45.99785" lon="4.71139">
        <ele>198</ele>
        <time>2018-07-12T08:49:23Z</time>
      </trkpt>
      <trkpt lat="45.99789" lon="4.71133">
        <ele>198</ele>
        <time>2018-07-12T08:49:24Z</time>
      </trkpt>
      <trkpt lat="45.99793" lon="4.71127">
        <ele>198</ele>
        <time>2018-07-12T08:49:25Z</time>
      </trkpt>
      <trkpt lat="45.99793" lon="4.71122">
        <ele>198</ele>
        <time>2018-07-12T08:49:26Z</time>
      </trkpt>
      <trkpt lat="45.99795" lon="4.71114">
        <ele>198</ele>
        <time>2018-07-12T08:49:27Z</time>
      </trkpt>
      <trkpt lat="45.99797" lon="4.71106">
        <ele>198</ele>
        <time>2018-07-12T08:49:28Z</time>
      </trkpt>
      <trkpt lat="45.99797" lon="4.71098">
        <ele>198</ele>
        <time>2018-07-12T08:49:29Z</time>
      </trkpt>
      <trkpt lat="45.99799" lon="4.71088">
        <ele>198</ele>
        <time>2018-07-12T08:49:30Z</time>
      </trkpt>
      <trkpt lat="45.998" lon="4.7108">
        <ele>199</ele>
        <time>2018-07-12T08:49:31Z</time>
      </trkpt>
      <trkpt lat="45.99802" lon="4.71073">
        <ele>199</ele>
        <time>2018-07-12T08:49:32Z</time>
      </trkpt>
      <trkpt lat="45.99804" lon="4.71065">
        <ele>199</ele>
        <time>2018-07-12T08:49:33Z</time>
      </trkpt>
      <trkpt lat="45.99808" lon="4.71059">
        <ele>199</ele>
        <time>2018-07-12T08:49:34Z</time>
      </trkpt>
      <trkpt lat="45.9981" lon="4.7105">
        <ele>199</ele>
        <time>2018-07-12T08:49:35Z</time>
      </trkpt>
      <trkpt lat="45.99811" lon="4.71044">
        <ele>199</ele>
        <time>2018-07-12T08:49:36Z</time>
      </trkpt>
      <trkpt lat="45.99813" lon="4.71037">
        <ele>199</ele>
        <time>2018-07-12T08:49:37Z</time>
      </trkpt>
      <trkpt lat="45.99813" lon="4.7103">
        <ele>199</ele>
        <time>2018-07-12T08:49:38Z</time>
      </trkpt>
      <trkpt lat="45.99813" lon="4.71023">
        <ele>199</ele>
        <time>2018-07-12T08:49:39Z</time>
      </trkpt>
      <trkpt lat="45.99813" lon="4.71016">
        <ele>200</ele>
        <time>2018-07-12T08:49:40Z</time>
      </trkpt>
      <trkpt lat="45.99815" lon="4.71009">
        <ele>200</ele>
        <time>2018-07-12T08:49:41Z</time>
      </trkpt>
      <trkpt lat="45.99817" lon="4.71001">
        <ele>200</ele>
        <time>2018-07-12T08:49:42Z</time>
      </trkpt>
      <trkpt lat="45.99818" lon="4.70994">
        <ele>200</ele>
        <time>2018-07-12T08:49:43Z</time>
      </trkpt>
      <trkpt lat="45.9982" lon="4.70985">
        <ele>200</ele>
        <time>2018-07-12T08:49:44Z</time>
      </trkpt>
      <trkpt lat="45.99821" lon="4.70975">
        <ele>200</ele>
        <time>2018-07-12T08:49:45Z</time>
      </trkpt>
      <trkpt lat="45.99821" lon="4.70967">
        <ele>200</ele>
        <time>2018-07-12T08:49:46Z</time>
      </trkpt>
      <trkpt lat="45.99823" lon="4.7096">
        <ele>200</ele>
        <time>2018-07-12T08:49:47Z</time>
      </trkpt>
      <trkpt lat="45.99825" lon="4.70952">
        <ele>199</ele>
        <time>2018-07-12T08:49:48Z</time>
      </trkpt>
      <trkpt lat="45.99827" lon="4.70944">
        <ele>199</ele>
        <time>2018-07-12T08:49:49Z</time>
      </trkpt>
      <trkpt lat="45.99828" lon="4.70936">
        <ele>199</ele>
        <time>2018-07-12T08:49:50Z</time>
      </trkpt>
      <trkpt lat="45.9983" lon="4.70929">
        <ele>199</ele>
        <time>2018-07-12T08:49:51Z</time>
      </trkpt>
      <trkpt lat="45.99833" lon="4.70922">
        <ele>199</ele>
        <time>2018-07-12T08:49:52Z</time>
      </trkpt>
      <trkpt lat="45.99835" lon="4.70916">
        <ele>199</ele>
        <time>2018-07-12T08:49:53Z</time>
      </trkpt>
      <trkpt lat="45.99837" lon="4.70906">
        <ele>199</ele>
        <time>2018-07-12T08:49:54Z</time>
      </trkpt>
      <trkpt lat="45.99838" lon="4.709">
        <ele>199</ele>
        <time>2018-07-12T08:49:55Z</time>
      </trkpt>
      <trkpt lat="45.99839" lon="4.70893">
        <ele>199</ele>
        <time>2018-07-12T08:49:56Z</time>
      </trkpt>
      <trkpt lat="45.99842" lon="4.70886">
        <ele>199</ele>
        <time>2018-07-12T08:49:57Z</time>
      </trkpt>
      <trkpt lat="45.99845" lon="4.70876">
        <ele>200</ele>
        <time>2018-07-12T08:49:58Z</time>
      </trkpt>
      <trkpt lat="45.99847" lon="4.70868">
        <ele>200</ele>
        <time>2018-07-12T08:49:59Z</time>
      </trkpt>
      <trkpt lat="45.99849" lon="4.70859">
        <ele>200</ele>
        <time>2018-07-12T08:50:00Z</time>
      </trkpt>
      <trkpt lat="45.9985" lon="4.7085">
        <ele>200</ele>
        <time>2018-07-12T08:50:01Z</time>
      </trkpt>
      <trkpt lat="45.99853" lon="4.70843">
        <ele>200</ele>
        <time>2018-07-12T08:50:02Z</time>
      </trkpt>
      <trkpt lat="45.99855" lon="4.70832">
        <ele>201</ele>
        <time>2018-07-12T08:50:03Z</time>
      </trkpt>
      <trkpt lat="45.99856" lon="4.70822">
        <ele>201</ele>
        <time>2018-07-12T08:50:04Z</time>
      </trkpt>
      <trkpt lat="45.99858" lon="4.70812">
        <ele>201</ele>
        <time>2018-07-12T08:50:05Z</time>
      </trkpt>
      <trkpt lat="45.9986" lon="4.70801">
        <ele>201</ele>
        <time>2018-07-12T08:50:06Z</time>
      </trkpt>
      <trkpt lat="45.99862" lon="4.70794">
        <ele>200</ele>
        <time>2018-07-12T08:50:07Z</time>
      </trkpt>
      <trkpt lat="45.99861" lon="4.70788">
        <ele>200</ele>
        <time>2018-07-12T08:50:08Z</time>
      </trkpt>
      <trkpt lat="45.99864" lon="4.70779">
        <ele>200</ele>
        <time>2018-07-12T08:50:09Z</time>
      </trkpt>
      <trkpt lat="45.99865" lon="4.70772">
        <ele>200</ele>
        <time>2018-07-12T08:50:10Z</time>
      </trkpt>
      <trkpt lat="45.99865" lon="4.70765">
        <ele>200</ele>
        <time>2018-07-12T08:50:11Z</time>
      </trkpt>
      <trkpt lat="45.99868" lon="4.70758">
        <ele>200</ele>
        <time>2018-07-12T08:50:12Z</time>
      </trkpt>
      <trkpt lat="45.99867" lon="4.70751">
        <ele>200</ele>
        <time>2018-07-12T08:50:13Z</time>
      </trkpt>
      <trkpt lat="45.99868" lon="4.70743">
        <ele>200</ele>
        <time>2018-07-12T08:50:14Z</time>
      </trkpt>
      <trkpt lat="45.99868" lon="4.70736">
        <ele>200</ele>
        <time>2018-07-12T08:50:15Z</time>
      </trkpt>
      <trkpt lat="45.99868" lon="4.70729">
        <ele>200</ele>
        <time>2018-07-12T08:50:16Z</time>
      </trkpt>
      <trkpt lat="45.99871" lon="4.70722">
        <ele>200</ele>
        <time>2018-07-12T08:50:17Z</time>
      </trkpt>
      <trkpt lat="45.99872" lon="4.70715">
        <ele>200</ele>
        <time>2018-07-12T08:50:18Z</time>
      </trkpt>
      <trkpt lat="45.99874" lon="4.70709">
        <ele>200</ele>
        <time>2018-07-12T08:50:19Z</time>
      </trkpt>
      <trkpt lat="45.99877" lon="4.70701">
        <ele>200</ele>
        <time>2018-07-12T08:50:20Z</time>
      </trkpt>
      <trkpt lat="45.99876" lon="4.70695">
        <ele>200</ele>
        <time>2018-07-12T08:50:21Z</time>
      </trkpt>
      <trkpt lat="45.99877" lon="4.70688">
        <ele>200</ele>
        <time>2018-07-12T08:50:22Z</time>
      </trkpt>
      <trkpt lat="45.99877" lon="4.70682">
        <ele>200</ele>
        <time>2018-07-12T08:50:23Z</time>
      </trkpt>
      <trkpt lat="45.99879" lon="4.70669">
        <ele>200</ele>
        <time>2018-07-12T08:50:26Z</time>
      </trkpt>
      <trkpt lat="45.99883" lon="4.7066">
        <ele>200</ele>
        <time>2018-07-12T08:50:27Z</time>
      </trkpt>
      <trkpt lat="45.99889" lon="4.70652">
        <ele>200</ele>
        <time>2018-07-12T08:50:31Z</time>
      </trkpt>
      <trkpt lat="45.99898" lon="4.70646">
        <ele>200</ele>
        <time>2018-07-12T08:50:32Z</time>
      </trkpt>
      <trkpt lat="45.99907" lon="4.70644">
        <ele>200</ele>
        <time>2018-07-12T08:50:34Z</time>
      </trkpt>
      <trkpt lat="45.9991" lon="4.70645">
        <ele>200</ele>
        <time>2018-07-12T08:50:35Z</time>
      </trkpt>
      <trkpt lat="45.99919" lon="4.70642">
        <ele>199</ele>
        <time>2018-07-12T08:50:37Z</time>
      </trkpt>
      <trkpt lat="45.99921" lon="4.70641">
        <ele>199</ele>
        <time>2018-07-12T08:50:38Z</time>
      </trkpt>
      <trkpt lat="45.9993" lon="4.70639">
        <ele>199</ele>
        <time>2018-07-12T08:50:39Z</time>
      </trkpt>
      <trkpt lat="45.99937" lon="4.70639">
        <ele>199</ele>
        <time>2018-07-12T08:50:40Z</time>
      </trkpt>
      <trkpt lat="45.99942" lon="4.70637">
        <ele>199</ele>
        <time>2018-07-12T08:50:41Z</time>
      </trkpt>
      <trkpt lat="45.99948" lon="4.70634">
        <ele>199</ele>
        <time>2018-07-12T08:50:42Z</time>
      </trkpt>
      <trkpt lat="45.99954" lon="4.70631">
        <ele>199</ele>
        <time>2018-07-12T08:50:43Z</time>
      </trkpt>
      <trkpt lat="45.99959" lon="4.70631">
        <ele>199</ele>
        <time>2018-07-12T08:50:44Z</time>
      </trkpt>
      <trkpt lat="45.99965" lon="4.70629">
        <ele>199</ele>
        <time>2018-07-12T08:50:45Z</time>
      </trkpt>
      <trkpt lat="45.9997" lon="4.70628">
        <ele>199</ele>
        <time>2018-07-12T08:50:46Z</time>
      </trkpt>
      <trkpt lat="45.99978" lon="4.70625">
        <ele>199</ele>
        <time>2018-07-12T08:50:48Z</time>
      </trkpt>
      <trkpt lat="45.99983" lon="4.70624">
        <ele>199</ele>
        <time>2018-07-12T08:50:49Z</time>
      </trkpt>
      <trkpt lat="45.99988" lon="4.70625">
        <ele>199</ele>
        <time>2018-07-12T08:50:50Z</time>
      </trkpt>
      <trkpt lat="45.99994" lon="4.70622">
        <ele>199</ele>
        <time>2018-07-12T08:50:51Z</time>
      </trkpt>
      <trkpt lat="46" lon="4.7062">
        <ele>199</ele>
        <time>2018-07-12T08:50:52Z</time>
      </trkpt>
      <trkpt lat="46.00006" lon="4.7062">
        <ele>199</ele>
        <time>2018-07-12T08:50:53Z</time>
      </trkpt>
      <trkpt lat="46.00012" lon="4.70618">
        <ele>199</ele>
        <time>2018-07-12T08:50:54Z</time>
      </trkpt>
      <trkpt lat="46.00018" lon="4.70617">
        <ele>199</ele>
        <time>2018-07-12T08:50:55Z</time>
      </trkpt>
      <trkpt lat="46.00024" lon="4.70613">
        <ele>199</ele>
        <time>2018-07-12T08:50:56Z</time>
      </trkpt>
      <trkpt lat="46.00029" lon="4.70611">
        <ele>199</ele>
        <time>2018-07-12T08:50:57Z</time>
      </trkpt>
      <trkpt lat="46.00033" lon="4.70611">
        <ele>199</ele>
        <time>2018-07-12T08:50:58Z</time>
      </trkpt>
      <trkpt lat="46.00038" lon="4.70609">
        <ele>199</ele>
        <time>2018-07-12T08:50:59Z</time>
      </trkpt>
      <trkpt lat="46.00045" lon="4.70608">
        <ele>198</ele>
        <time>2018-07-12T08:51:00Z</time>
      </trkpt>
      <trkpt lat="46.0005" lon="4.70607">
        <ele>198</ele>
        <time>2018-07-12T08:51:01Z</time>
      </trkpt>
      <trkpt lat="46.00057" lon="4.70606">
        <ele>198</ele>
        <time>2018-07-12T08:51:02Z</time>
      </trkpt>
      <trkpt lat="46.00063" lon="4.70605">
        <ele>198</ele>
        <time>2018-07-12T08:51:03Z</time>
      </trkpt>
      <trkpt lat="46.0007" lon="4.70604">
        <ele>198</ele>
        <time>2018-07-12T08:51:04Z</time>
      </trkpt>
      <trkpt lat="46.00076" lon="4.70603">
        <ele>198</ele>
        <time>2018-07-12T08:51:05Z</time>
      </trkpt>
      <trkpt lat="46.00082" lon="4.706">
        <ele>198</ele>
        <time>2018-07-12T08:51:06Z</time>
      </trkpt>
      <trkpt lat="46.00087" lon="4.70599">
        <ele>198</ele>
        <time>2018-07-12T08:51:07Z</time>
      </trkpt>
      <trkpt lat="46.00092" lon="4.70598">
        <ele>198</ele>
        <time>2018-07-12T08:51:08Z</time>
      </trkpt>
      <trkpt lat="46.00099" lon="4.70595">
        <ele>198</ele>
        <time>2018-07-12T08:51:09Z</time>
      </trkpt>
      <trkpt lat="46.00104" lon="4.70591">
        <ele>198</ele>
        <time>2018-07-12T08:51:10Z</time>
      </trkpt>
      <trkpt lat="46.0011" lon="4.70588">
        <ele>198</ele>
        <time>2018-07-12T08:51:11Z</time>
      </trkpt>
      <trkpt lat="46.00113" lon="4.70583">
        <ele>198</ele>
        <time>2018-07-12T08:51:12Z</time>
      </trkpt>
      <trkpt lat="46.0012" lon="4.70576">
        <ele>198</ele>
        <time>2018-07-12T08:51:13Z</time>
      </trkpt>
      <trkpt lat="46.00123" lon="4.70573">
        <ele>198</ele>
        <time>2018-07-12T08:51:15Z</time>
      </trkpt>
      <trkpt lat="46.00127" lon="4.70567">
        <ele>198</ele>
        <time>2018-07-12T08:51:16Z</time>
      </trkpt>
      <trkpt lat="46.00135" lon="4.70561">
        <ele>198</ele>
        <time>2018-07-12T08:51:18Z</time>
      </trkpt>
      <trkpt lat="46.00138" lon="4.70558">
        <ele>198</ele>
        <time>2018-07-12T08:51:19Z</time>
      </trkpt>
      <trkpt lat="46.00144" lon="4.70558">
        <ele>198</ele>
        <time>2018-07-12T08:51:20Z</time>
      </trkpt>
      <trkpt lat="46.00149" lon="4.70554">
        <ele>198</ele>
        <time>2018-07-12T08:51:21Z</time>
      </trkpt>
      <trkpt lat="46.00153" lon="4.7055">
        <ele>198</ele>
        <time>2018-07-12T08:51:22Z</time>
      </trkpt>
      <trkpt lat="46.00158" lon="4.70547">
        <ele>198</ele>
        <time>2018-07-12T08:51:23Z</time>
      </trkpt>
      <trkpt lat="46.00163" lon="4.70542">
        <ele>198</ele>
        <time>2018-07-12T08:51:24Z</time>
      </trkpt>
      <trkpt lat="46.0017" lon="4.70538">
        <ele>198</ele>
        <time>2018-07-12T08:51:25Z</time>
      </trkpt>
      <trkpt lat="46.00175" lon="4.70535">
        <ele>198</ele>
        <time>2018-07-12T08:51:26Z</time>
      </trkpt>
      <trkpt lat="46.00181" lon="4.70535">
        <ele>198</ele>
        <time>2018-07-12T08:51:27Z</time>
      </trkpt>
      <trkpt lat="46.00186" lon="4.70535">
        <ele>198</ele>
        <time>2018-07-12T08:51:28Z</time>
      </trkpt>
      <trkpt lat="46.00191" lon="4.70532">
        <ele>198</ele>
        <time>2018-07-12T08:51:29Z</time>
      </trkpt>
      <trkpt lat="46.00197" lon="4.70532">
        <ele>198</ele>
        <time>2018-07-12T08:51:30Z</time>
      </trkpt>
      <trkpt lat="46.00202" lon="4.7053">
        <ele>198</ele>
        <time>2018-07-12T08:51:31Z</time>
      </trkpt>
      <trkpt lat="46.00207" lon="4.7053">
        <ele>198</ele>
        <time>2018-07-12T08:51:32Z</time>
      </trkpt>
      <trkpt lat="46.00213" lon="4.70529">
        <ele>198</ele>
        <time>2018-07-12T08:51:33Z</time>
      </trkpt>
      <trkpt lat="46.00218" lon="4.70527">
        <ele>198</ele>
        <time>2018-07-12T08:51:34Z</time>
      </trkpt>
      <trkpt lat="46.00223" lon="4.70524">
        <ele>198</ele>
        <time>2018-07-12T08:51:35Z</time>
      </trkpt>
      <trkpt lat="46.00229" lon="4.70522">
        <ele>198</ele>
        <time>2018-07-12T08:51:36Z</time>
      </trkpt>
      <trkpt lat="46.00234" lon="4.70521">
        <ele>198</ele>
        <time>2018-07-12T08:51:37Z</time>
      </trkpt>
      <trkpt lat="46.00242" lon="4.7052">
        <ele>198</ele>
        <time>2018-07-12T08:51:39Z</time>
      </trkpt>
      <trkpt lat="46.00245" lon="4.70521">
        <ele>198</ele>
        <time>2018-07-12T08:51:40Z</time>
      </trkpt>
      <trkpt lat="46.0025" lon="4.7052">
        <ele>197</ele>
        <time>2018-07-12T08:51:41Z</time>
      </trkpt>
      <trkpt lat="46.00258" lon="4.70514">
        <ele>198</ele>
        <time>2018-07-12T08:51:42Z</time>
      </trkpt>
      <trkpt lat="46.00264" lon="4.70513">
        <ele>197</ele>
        <time>2018-07-12T08:51:43Z</time>
      </trkpt>
      <trkpt lat="46.0027" lon="4.70512">
        <ele>197</ele>
        <time>2018-07-12T08:51:44Z</time>
      </trkpt>
      <trkpt lat="46.00275" lon="4.70512">
        <ele>197</ele>
        <time>2018-07-12T08:51:45Z</time>
      </trkpt>
      <trkpt lat="46.0028" lon="4.70511">
        <ele>197</ele>
        <time>2018-07-12T08:51:46Z</time>
      </trkpt>
      <trkpt lat="46.00285" lon="4.7051">
        <ele>197</ele>
        <time>2018-07-12T08:51:47Z</time>
      </trkpt>
      <trkpt lat="46.00291" lon="4.70508">
        <ele>197</ele>
        <time>2018-07-12T08:51:48Z</time>
      </trkpt>
      <trkpt lat="46.00296" lon="4.70508">
        <ele>197</ele>
        <time>2018-07-12T08:51:49Z</time>
      </trkpt>
      <trkpt lat="46.00302" lon="4.70508">
        <ele>197</ele>
        <time>2018-07-12T08:51:50Z</time>
      </trkpt>
      <trkpt lat="46.00307" lon="4.70507">
        <ele>197</ele>
        <time>2018-07-12T08:51:51Z</time>
      </trkpt>
      <trkpt lat="46.00312" lon="4.70506">
        <ele>197</ele>
        <time>2018-07-12T08:51:52Z</time>
      </trkpt>
      <trkpt lat="46.00317" lon="4.70504">
        <ele>198</ele>
        <time>2018-07-12T08:51:53Z</time>
      </trkpt>
      <trkpt lat="46.00321" lon="4.70504">
        <ele>198</ele>
        <time>2018-07-12T08:51:54Z</time>
      </trkpt>
      <trkpt lat="46.00326" lon="4.70504">
        <ele>198</ele>
        <time>2018-07-12T08:51:55Z</time>
      </trkpt>
      <trkpt lat="46.00332" lon="4.70502">
        <ele>198</ele>
        <time>2018-07-12T08:51:56Z</time>
      </trkpt>
      <trkpt lat="46.00338" lon="4.70501">
        <ele>198</ele>
        <time>2018-07-12T08:51:57Z</time>
      </trkpt>
      <trkpt lat="46.00343" lon="4.705">
        <ele>199</ele>
        <time>2018-07-12T08:51:58Z</time>
      </trkpt>
      <trkpt lat="46.00348" lon="4.70499">
        <ele>199</ele>
        <time>2018-07-12T08:51:59Z</time>
      </trkpt>
      <trkpt lat="46.00352" lon="4.705">
        <ele>198</ele>
        <time>2018-07-12T08:52:00Z</time>
      </trkpt>
      <trkpt lat="46.00357" lon="4.70499">
        <ele>200</ele>
        <time>2018-07-12T08:52:01Z</time>
      </trkpt>
      <trkpt lat="46.00361" lon="4.70497">
        <ele>200</ele>
        <time>2018-07-12T08:52:02Z</time>
      </trkpt>
      <trkpt lat="46.00366" lon="4.70496">
        <ele>200</ele>
        <time>2018-07-12T08:52:03Z</time>
      </trkpt>
      <trkpt lat="46.00371" lon="4.70495">
        <ele>200</ele>
        <time>2018-07-12T08:52:04Z</time>
      </trkpt>
      <trkpt lat="46.00377" lon="4.70493">
        <ele>200</ele>
        <time>2018-07-12T08:52:05Z</time>
      </trkpt>
      <trkpt lat="46.00382" lon="4.70492">
        <ele>200</ele>
        <time>2018-07-12T08:52:06Z</time>
      </trkpt>
      <trkpt lat="46.00387" lon="4.70494">
        <ele>200</ele>
        <time>2018-07-12T08:52:07Z</time>
      </trkpt>
      <trkpt lat="46.00392" lon="4.70494">
        <ele>200</ele>
        <time>2018-07-12T08:52:08Z</time>
      </trkpt>
      <trkpt lat="46.00398" lon="4.70493">
        <ele>200</ele>
        <time>2018-07-12T08:52:09Z</time>
      </trkpt>
      <trkpt lat="46.00404" lon="4.70492">
        <ele>200</ele>
        <time>2018-07-12T08:52:10Z</time>
      </trkpt>
      <trkpt lat="46.00409" lon="4.70492">
        <ele>200</ele>
        <time>2018-07-12T08:52:11Z</time>
      </trkpt>
      <trkpt lat="46.00414" lon="4.70493">
        <ele>200</ele>
        <time>2018-07-12T08:52:12Z</time>
      </trkpt>
      <trkpt lat="46.00421" lon="4.70493">
        <ele>201</ele>
        <time>2018-07-12T08:52:13Z</time>
      </trkpt>
      <trkpt lat="46.00426" lon="4.70492">
        <ele>201</ele>
        <time>2018-07-12T08:52:14Z</time>
      </trkpt>
      <trkpt lat="46.00431" lon="4.70495">
        <ele>201</ele>
        <time>2018-07-12T08:52:15Z</time>
      </trkpt>
      <trkpt lat="46.00436" lon="4.70496">
        <ele>202</ele>
        <time>2018-07-12T08:52:16Z</time>
      </trkpt>
      <trkpt lat="46.0044" lon="4.70498">
        <ele>202</ele>
        <time>2018-07-12T08:52:17Z</time>
      </trkpt>
      <trkpt lat="46.00445" lon="4.70499">
        <ele>202</ele>
        <time>2018-07-12T08:52:18Z</time>
      </trkpt>
      <trkpt lat="46.0045" lon="4.705">
        <ele>202</ele>
        <time>2018-07-12T08:52:19Z</time>
      </trkpt>
      <trkpt lat="46.00454" lon="4.70503">
        <ele>201</ele>
        <time>2018-07-12T08:52:20Z</time>
      </trkpt>
      <trkpt lat="46.00458" lon="4.70514">
        <ele>201</ele>
        <time>2018-07-12T08:52:22Z</time>
      </trkpt>
      <trkpt lat="46.00461" lon="4.70519">
        <ele>201</ele>
        <time>2018-07-12T08:52:23Z</time>
      </trkpt>
      <trkpt lat="46.00463" lon="4.70525">
        <ele>201</ele>
        <time>2018-07-12T08:52:24Z</time>
      </trkpt>
      <trkpt lat="46.00466" lon="4.70531">
        <ele>201</ele>
        <time>2018-07-12T08:52:25Z</time>
      </trkpt>
      <trkpt lat="46.00468" lon="4.70538">
        <ele>201</ele>
        <time>2018-07-12T08:52:26Z</time>
      </trkpt>
      <trkpt lat="46.00473" lon="4.70544">
        <ele>201</ele>
        <time>2018-07-12T08:52:27Z</time>
      </trkpt>
      <trkpt lat="46.00477" lon="4.70547">
        <ele>201</ele>
        <time>2018-07-12T08:52:28Z</time>
      </trkpt>
      <trkpt lat="46.00482" lon="4.70549">
        <ele>201</ele>
        <time>2018-07-12T08:52:29Z</time>
      </trkpt>
      <trkpt lat="46.00487" lon="4.70547">
        <ele>201</ele>
        <time>2018-07-12T08:52:30Z</time>
      </trkpt>
      <trkpt lat="46.00491" lon="4.70544">
        <ele>201</ele>
        <time>2018-07-12T08:52:31Z</time>
      </trkpt>
      <trkpt lat="46.00494" lon="4.70538">
        <ele>201</ele>
        <time>2018-07-12T08:52:32Z</time>
      </trkpt>
      <trkpt lat="46.00498" lon="4.70529">
        <ele>201</ele>
        <time>2018-07-12T08:52:33Z</time>
      </trkpt>
      <trkpt lat="46.005" lon="4.70524">
        <ele>203</ele>
        <time>2018-07-12T08:52:34Z</time>
      </trkpt>
      <trkpt lat="46.00508" lon="4.70517">
        <ele>204</ele>
        <time>2018-07-12T08:52:35Z</time>
      </trkpt>
      <trkpt lat="46.00512" lon="4.70513">
        <ele>204</ele>
        <time>2018-07-12T08:52:36Z</time>
      </trkpt>
      <trkpt lat="46.00516" lon="4.70508">
        <ele>204</ele>
        <time>2018-07-12T08:52:37Z</time>
      </trkpt>
      <trkpt lat="46.00521" lon="4.70509">
        <ele>204</ele>
        <time>2018-07-12T08:52:39Z</time>
      </trkpt>
      <trkpt lat="46.00525" lon="4.7051">
        <ele>204</ele>
        <time>2018-07-12T08:52:40Z</time>
      </trkpt>
      <trkpt lat="46.00534" lon="4.7051">
        <ele>204</ele>
        <time>2018-07-12T08:52:42Z</time>
      </trkpt>
      <trkpt lat="46.00538" lon="4.7051">
        <ele>204</ele>
        <time>2018-07-12T08:52:43Z</time>
      </trkpt>
      <trkpt lat="46.00547" lon="4.70511">
        <ele>204</ele>
        <time>2018-07-12T08:52:45Z</time>
      </trkpt>
      <trkpt lat="46.00551" lon="4.70511">
        <ele>204</ele>
        <time>2018-07-12T08:52:46Z</time>
      </trkpt>
      <trkpt lat="46.00558" lon="4.7051">
        <ele>205</ele>
        <time>2018-07-12T08:52:48Z</time>
      </trkpt>
      <trkpt lat="46.00563" lon="4.70509">
        <ele>205</ele>
        <time>2018-07-12T08:52:49Z</time>
      </trkpt>
      <trkpt lat="46.00569" lon="4.70508">
        <ele>205</ele>
        <time>2018-07-12T08:52:51Z</time>
      </trkpt>
      <trkpt lat="46.00575" lon="4.70508">
        <ele>206</ele>
        <time>2018-07-12T08:52:52Z</time>
      </trkpt>
      <trkpt lat="46.00583" lon="4.70506">
        <ele>207</ele>
        <time>2018-07-12T08:52:54Z</time>
      </trkpt>
      <trkpt lat="46.00587" lon="4.70506">
        <ele>207</ele>
        <time>2018-07-12T08:52:55Z</time>
      </trkpt>
      <trkpt lat="46.00594" lon="4.70505">
        <ele>207</ele>
        <time>2018-07-12T08:52:57Z</time>
      </trkpt>
      <trkpt lat="46.00599" lon="4.70505">
        <ele>207</ele>
        <time>2018-07-12T08:52:58Z</time>
      </trkpt>
      <trkpt lat="46.00606" lon="4.70502">
        <ele>207</ele>
        <time>2018-07-12T08:53:00Z</time>
      </trkpt>
      <trkpt lat="46.00611" lon="4.70502">
        <ele>207</ele>
        <time>2018-07-12T08:53:01Z</time>
      </trkpt>
      <trkpt lat="46.00612" lon="4.705">
        <ele>207</ele>
        <time>2018-07-12T08:53:02Z</time>
      </trkpt>
      <trkpt lat="46.00619" lon="4.70498">
        <ele>210</ele>
        <time>2018-07-12T08:53:03Z</time>
      </trkpt>
      <trkpt lat="46.00624" lon="4.70499">
        <ele>211</ele>
        <time>2018-07-12T08:53:04Z</time>
      </trkpt>
      <trkpt lat="46.00632" lon="4.705">
        <ele>208</ele>
        <time>2018-07-12T08:53:05Z</time>
      </trkpt>
      <trkpt lat="46.00637" lon="4.70499">
        <ele>211</ele>
        <time>2018-07-12T08:53:06Z</time>
      </trkpt>
      <trkpt lat="46.00642" lon="4.70498">
        <ele>211</ele>
        <time>2018-07-12T08:53:07Z</time>
      </trkpt>
      <trkpt lat="46.00646" lon="4.70498">
        <ele>211</ele>
        <time>2018-07-12T08:53:08Z</time>
      </trkpt>
      <trkpt lat="46.00651" lon="4.70495">
        <ele>211</ele>
        <time>2018-07-12T08:53:09Z</time>
      </trkpt>
      <trkpt lat="46.00659" lon="4.70495">
        <ele>212</ele>
        <time>2018-07-12T08:53:11Z</time>
      </trkpt>
      <trkpt lat="46.00663" lon="4.70496">
        <ele>212</ele>
        <time>2018-07-12T08:53:12Z</time>
      </trkpt>
      <trkpt lat="46.00669" lon="4.70496">
        <ele>212</ele>
        <time>2018-07-12T08:53:13Z</time>
      </trkpt>
      <trkpt lat="46.00674" lon="4.70497">
        <ele>212</ele>
        <time>2018-07-12T08:53:14Z</time>
      </trkpt>
      <trkpt lat="46.0068" lon="4.70496">
        <ele>211</ele>
        <time>2018-07-12T08:53:15Z</time>
      </trkpt>
      <trkpt lat="46.00685" lon="4.70498">
        <ele>211</ele>
        <time>2018-07-12T08:53:16Z</time>
      </trkpt>
      <trkpt lat="46.00692" lon="4.70498">
        <ele>211</ele>
        <time>2018-07-12T08:53:17Z</time>
      </trkpt>
      <trkpt lat="46.00697" lon="4.70499">
        <ele>211</ele>
        <time>2018-07-12T08:53:18Z</time>
      </trkpt>
      <trkpt lat="46.00701" lon="4.705">
        <ele>208</ele>
        <time>2018-07-12T08:53:19Z</time>
      </trkpt>
      <trkpt lat="46.00707" lon="4.70501">
        <ele>208</ele>
        <time>2018-07-12T08:53:20Z</time>
      </trkpt>
      <trkpt lat="46.00711" lon="4.70504">
        <ele>207</ele>
        <time>2018-07-12T08:53:21Z</time>
      </trkpt>
      <trkpt lat="46.00717" lon="4.70506">
        <ele>207</ele>
        <time>2018-07-12T08:53:22Z</time>
      </trkpt>
      <trkpt lat="46.00724" lon="4.70506">
        <ele>207</ele>
        <time>2018-07-12T08:53:23Z</time>
      </trkpt>
      <trkpt lat="46.00729" lon="4.70509">
        <ele>207</ele>
        <time>2018-07-12T08:53:24Z</time>
      </trkpt>
      <trkpt lat="46.00736" lon="4.70512">
        <ele>207</ele>
        <time>2018-07-12T08:53:25Z</time>
      </trkpt>
      <trkpt lat="46.00743" lon="4.70515">
        <ele>207</ele>
        <time>2018-07-12T08:53:26Z</time>
      </trkpt>
      <trkpt lat="46.00749" lon="4.70516">
        <ele>207</ele>
        <time>2018-07-12T08:53:27Z</time>
      </trkpt>
      <trkpt lat="46.00755" lon="4.70518">
        <ele>206</ele>
        <time>2018-07-12T08:53:28Z</time>
      </trkpt>
      <trkpt lat="46.00761" lon="4.70522">
        <ele>205</ele>
        <time>2018-07-12T08:53:29Z</time>
      </trkpt>
      <trkpt lat="46.00766" lon="4.70524">
        <ele>205</ele>
        <time>2018-07-12T08:53:30Z</time>
      </trkpt>
      <trkpt lat="46.00773" lon="4.70525">
        <ele>205</ele>
        <time>2018-07-12T08:53:31Z</time>
      </trkpt>
      <trkpt lat="46.00779" lon="4.70527">
        <ele>204</ele>
        <time>2018-07-12T08:53:32Z</time>
      </trkpt>
      <trkpt lat="46.00785" lon="4.7053">
        <ele>204</ele>
        <time>2018-07-12T08:53:33Z</time>
      </trkpt>
      <trkpt lat="46.00792" lon="4.70531">
        <ele>204</ele>
        <time>2018-07-12T08:53:34Z</time>
      </trkpt>
      <trkpt lat="46.00799" lon="4.70533">
        <ele>204</ele>
        <time>2018-07-12T08:53:35Z</time>
      </trkpt>
      <trkpt lat="46.00805" lon="4.70536">
        <ele>204</ele>
        <time>2018-07-12T08:53:36Z</time>
      </trkpt>
      <trkpt lat="46.00812" lon="4.70538">
        <ele>203</ele>
        <time>2018-07-12T08:53:37Z</time>
      </trkpt>
      <trkpt lat="46.00818" lon="4.70541">
        <ele>203</ele>
        <time>2018-07-12T08:53:38Z</time>
      </trkpt>
      <trkpt lat="46.00824" lon="4.70544">
        <ele>203</ele>
        <time>2018-07-12T08:53:39Z</time>
      </trkpt>
      <trkpt lat="46.00828" lon="4.70545">
        <ele>203</ele>
        <time>2018-07-12T08:53:40Z</time>
      </trkpt>
      <trkpt lat="46.00833" lon="4.70549">
        <ele>203</ele>
        <time>2018-07-12T08:53:41Z</time>
      </trkpt>
      <trkpt lat="46.00839" lon="4.70551">
        <ele>201</ele>
        <time>2018-07-12T08:53:42Z</time>
      </trkpt>
      <trkpt lat="46.00846" lon="4.70551">
        <ele>201</ele>
        <time>2018-07-12T08:53:43Z</time>
      </trkpt>
      <trkpt lat="46.00853" lon="4.70554">
        <ele>201</ele>
        <time>2018-07-12T08:53:44Z</time>
      </trkpt>
      <trkpt lat="46.00859" lon="4.70557">
        <ele>201</ele>
        <time>2018-07-12T08:53:45Z</time>
      </trkpt>
      <trkpt lat="46.00866" lon="4.70561">
        <ele>201</ele>
        <time>2018-07-12T08:53:46Z</time>
      </trkpt>
      <trkpt lat="46.00872" lon="4.70564">
        <ele>201</ele>
        <time>2018-07-12T08:53:47Z</time>
      </trkpt>
      <trkpt lat="46.00879" lon="4.70567">
        <ele>200</ele>
        <time>2018-07-12T08:53:48Z</time>
      </trkpt>
      <trkpt lat="46.00886" lon="4.7057">
        <ele>200</ele>
        <time>2018-07-12T08:53:49Z</time>
      </trkpt>
      <trkpt lat="46.00892" lon="4.70573">
        <ele>200</ele>
        <time>2018-07-12T08:53:50Z</time>
      </trkpt>
      <trkpt lat="46.00897" lon="4.70576">
        <ele>200</ele>
        <time>2018-07-12T08:53:51Z</time>
      </trkpt>
      <trkpt lat="46.00905" lon="4.70577">
        <ele>199</ele>
        <time>2018-07-12T08:53:52Z</time>
      </trkpt>
      <trkpt lat="46.00911" lon="4.70581">
        <ele>199</ele>
        <time>2018-07-12T08:53:53Z</time>
      </trkpt>
      <trkpt lat="46.00917" lon="4.70585">
        <ele>198</ele>
        <time>2018-07-12T08:53:54Z</time>
      </trkpt>
      <trkpt lat="46.00923" lon="4.70586">
        <ele>198</ele>
        <time>2018-07-12T08:53:55Z</time>
      </trkpt>
      <trkpt lat="46.00929" lon="4.70589">
        <ele>198</ele>
        <time>2018-07-12T08:53:56Z</time>
      </trkpt>
      <trkpt lat="46.00934" lon="4.70594">
        <ele>198</ele>
        <time>2018-07-12T08:53:57Z</time>
      </trkpt>
      <trkpt lat="46.0094" lon="4.70597">
        <ele>198</ele>
        <time>2018-07-12T08:53:58Z</time>
      </trkpt>
      <trkpt lat="46.00946" lon="4.70598">
        <ele>197</ele>
        <time>2018-07-12T08:53:59Z</time>
      </trkpt>
      <trkpt lat="46.00952" lon="4.70601">
        <ele>197</ele>
        <time>2018-07-12T08:54:00Z</time>
      </trkpt>
      <trkpt lat="46.00957" lon="4.70604">
        <ele>197</ele>
        <time>2018-07-12T08:54:01Z</time>
      </trkpt>
      <trkpt lat="46.00962" lon="4.70607">
        <ele>197</ele>
        <time>2018-07-12T08:54:02Z</time>
      </trkpt>
      <trkpt lat="46.00968" lon="4.70609">
        <ele>197</ele>
        <time>2018-07-12T08:54:03Z</time>
      </trkpt>
      <trkpt lat="46.00976" lon="4.70611">
        <ele>197</ele>
        <time>2018-07-12T08:54:04Z</time>
      </trkpt>
      <trkpt lat="46.00983" lon="4.70613">
        <ele>197</ele>
        <time>2018-07-12T08:54:05Z</time>
      </trkpt>
      <trkpt lat="46.00989" lon="4.70617">
        <ele>197</ele>
        <time>2018-07-12T08:54:06Z</time>
      </trkpt>
      <trkpt lat="46.00996" lon="4.7062">
        <ele>197</ele>
        <time>2018-07-12T08:54:07Z</time>
      </trkpt>
      <trkpt lat="46.01002" lon="4.70623">
        <ele>196</ele>
        <time>2018-07-12T08:54:08Z</time>
      </trkpt>
      <trkpt lat="46.01009" lon="4.70626">
        <ele>196</ele>
        <time>2018-07-12T08:54:09Z</time>
      </trkpt>
      <trkpt lat="46.01015" lon="4.70628">
        <ele>196</ele>
        <time>2018-07-12T08:54:10Z</time>
      </trkpt>
      <trkpt lat="46.01019" lon="4.70633">
        <ele>196</ele>
        <time>2018-07-12T08:54:11Z</time>
      </trkpt>
      <trkpt lat="46.01025" lon="4.70636">
        <ele>196</ele>
        <time>2018-07-12T08:54:12Z</time>
      </trkpt>
      <trkpt lat="46.01032" lon="4.70639">
        <ele>196</ele>
        <time>2018-07-12T08:54:13Z</time>
      </trkpt>
      <trkpt lat="46.01036" lon="4.70642">
        <ele>196</ele>
        <time>2018-07-12T08:54:14Z</time>
      </trkpt>
      <trkpt lat="46.01046" lon="4.70643">
        <ele>195</ele>
        <time>2018-07-12T08:54:15Z</time>
      </trkpt>
      <trkpt lat="46.01052" lon="4.70644">
        <ele>195</ele>
        <time>2018-07-12T08:54:16Z</time>
      </trkpt>
      <trkpt lat="46.01057" lon="4.70648">
        <ele>195</ele>
        <time>2018-07-12T08:54:17Z</time>
      </trkpt>
      <trkpt lat="46.01062" lon="4.7065">
        <ele>195</ele>
        <time>2018-07-12T08:54:18Z</time>
      </trkpt>
      <trkpt lat="46.01068" lon="4.70652">
        <ele>195</ele>
        <time>2018-07-12T08:54:19Z</time>
      </trkpt>
      <trkpt lat="46.01074" lon="4.70655">
        <ele>195</ele>
        <time>2018-07-12T08:54:20Z</time>
      </trkpt>
      <trkpt lat="46.0108" lon="4.70657">
        <ele>195</ele>
        <time>2018-07-12T08:54:21Z</time>
      </trkpt>
      <trkpt lat="46.01083" lon="4.70661">
        <ele>195</ele>
        <time>2018-07-12T08:54:22Z</time>
      </trkpt>
      <trkpt lat="46.0109" lon="4.70664">
        <ele>195</ele>
        <time>2018-07-12T08:54:23Z</time>
      </trkpt>
      <trkpt lat="46.01097" lon="4.70667">
        <ele>195</ele>
        <time>2018-07-12T08:54:24Z</time>
      </trkpt>
      <trkpt lat="46.01102" lon="4.70671">
        <ele>195</ele>
        <time>2018-07-12T08:54:25Z</time>
      </trkpt>
      <trkpt lat="46.01107" lon="4.70674">
        <ele>195</ele>
        <time>2018-07-12T08:54:26Z</time>
      </trkpt>
      <trkpt lat="46.01114" lon="4.70676">
        <ele>195</ele>
        <time>2018-07-12T08:54:27Z</time>
      </trkpt>
      <trkpt lat="46.0112" lon="4.70679">
        <ele>195</ele>
        <time>2018-07-12T08:54:28Z</time>
      </trkpt>
      <trkpt lat="46.01128" lon="4.70681">
        <ele>194</ele>
        <time>2018-07-12T08:54:29Z</time>
      </trkpt>
      <trkpt lat="46.01134" lon="4.70682">
        <ele>194</ele>
        <time>2018-07-12T08:54:30Z</time>
      </trkpt>
      <trkpt lat="46.0114" lon="4.70685">
        <ele>194</ele>
        <time>2018-07-12T08:54:31Z</time>
      </trkpt>
      <trkpt lat="46.01146" lon="4.70688">
        <ele>194</ele>
        <time>2018-07-12T08:54:32Z</time>
      </trkpt>
      <trkpt lat="46.01151" lon="4.70692">
        <ele>194</ele>
        <time>2018-07-12T08:54:33Z</time>
      </trkpt>
      <trkpt lat="46.01156" lon="4.70695">
        <ele>194</ele>
        <time>2018-07-12T08:54:34Z</time>
      </trkpt>
      <trkpt lat="46.01162" lon="4.70698">
        <ele>194</ele>
        <time>2018-07-12T08:54:35Z</time>
      </trkpt>
      <trkpt lat="46.01169" lon="4.70701">
        <ele>194</ele>
        <time>2018-07-12T08:54:36Z</time>
      </trkpt>
      <trkpt lat="46.01175" lon="4.70703">
        <ele>194</ele>
        <time>2018-07-12T08:54:37Z</time>
      </trkpt>
      <trkpt lat="46.01183" lon="4.70705">
        <ele>194</ele>
        <time>2018-07-12T08:54:38Z</time>
      </trkpt>
      <trkpt lat="46.01189" lon="4.70708">
        <ele>194</ele>
        <time>2018-07-12T08:54:39Z</time>
      </trkpt>
      <trkpt lat="46.01196" lon="4.70711">
        <ele>194</ele>
        <time>2018-07-12T08:54:40Z</time>
      </trkpt>
      <trkpt lat="46.01203" lon="4.70713">
        <ele>194</ele>
        <time>2018-07-12T08:54:41Z</time>
      </trkpt>
      <trkpt lat="46.01209" lon="4.70715">
        <ele>194</ele>
        <time>2018-07-12T08:54:42Z</time>
      </trkpt>
      <trkpt lat="46.01214" lon="4.70718">
        <ele>194</ele>
        <time>2018-07-12T08:54:43Z</time>
      </trkpt>
      <trkpt lat="46.01219" lon="4.70721">
        <ele>194</ele>
        <time>2018-07-12T08:54:44Z</time>
      </trkpt>
      <trkpt lat="46.01225" lon="4.70722">
        <ele>194</ele>
        <time>2018-07-12T08:54:45Z</time>
      </trkpt>
      <trkpt lat="46.01231" lon="4.70723">
        <ele>194</ele>
        <time>2018-07-12T08:54:46Z</time>
      </trkpt>
      <trkpt lat="46.01235" lon="4.70725">
        <ele>194</ele>
        <time>2018-07-12T08:54:47Z</time>
      </trkpt>
      <trkpt lat="46.01241" lon="4.70727">
        <ele>193</ele>
        <time>2018-07-12T08:54:48Z</time>
      </trkpt>
      <trkpt lat="46.01245" lon="4.7073">
        <ele>193</ele>
        <time>2018-07-12T08:54:49Z</time>
      </trkpt>
      <trkpt lat="46.01251" lon="4.70731">
        <ele>192</ele>
        <time>2018-07-12T08:54:50Z</time>
      </trkpt>
      <trkpt lat="46.01257" lon="4.70733">
        <ele>192</ele>
        <time>2018-07-12T08:54:51Z</time>
      </trkpt>
      <trkpt lat="46.01263" lon="4.70735">
        <ele>192</ele>
        <time>2018-07-12T08:54:52Z</time>
      </trkpt>
      <trkpt lat="46.01269" lon="4.70737">
        <ele>192</ele>
        <time>2018-07-12T08:54:53Z</time>
      </trkpt>
      <trkpt lat="46.01276" lon="4.70739">
        <ele>192</ele>
        <time>2018-07-12T08:54:54Z</time>
      </trkpt>
      <trkpt lat="46.01283" lon="4.7074">
        <ele>191</ele>
        <time>2018-07-12T08:54:55Z</time>
      </trkpt>
      <trkpt lat="46.01289" lon="4.70741">
        <ele>191</ele>
        <time>2018-07-12T08:54:56Z</time>
      </trkpt>
      <trkpt lat="46.01296" lon="4.70742">
        <ele>191</ele>
        <time>2018-07-12T08:54:57Z</time>
      </trkpt>
      <trkpt lat="46.01303" lon="4.70743">
        <ele>191</ele>
        <time>2018-07-12T08:54:58Z</time>
      </trkpt>
      <trkpt lat="46.01309" lon="4.70743">
        <ele>191</ele>
        <time>2018-07-12T08:54:59Z</time>
      </trkpt>
      <trkpt lat="46.01314" lon="4.70742">
        <ele>190</ele>
        <time>2018-07-12T08:55:00Z</time>
      </trkpt>
      <trkpt lat="46.01322" lon="4.70741">
        <ele>190</ele>
        <time>2018-07-12T08:55:01Z</time>
      </trkpt>
      <trkpt lat="46.01328" lon="4.70739">
        <ele>190</ele>
        <time>2018-07-12T08:55:02Z</time>
      </trkpt>
      <trkpt lat="46.01332" lon="4.70741">
        <ele>190</ele>
        <time>2018-07-12T08:55:03Z</time>
      </trkpt>
      <trkpt lat="46.0134" lon="4.70742">
        <ele>189</ele>
        <time>2018-07-12T08:55:07Z</time>
      </trkpt>
      <trkpt lat="46.01342" lon="4.70743">
        <ele>189</ele>
        <time>2018-07-12T08:55:08Z</time>
      </trkpt>
      <trkpt lat="46.01344" lon="4.70745">
        <ele>189</ele>
        <time>2018-07-12T08:55:09Z</time>
      </trkpt>
      <trkpt lat="46.01351" lon="4.70749">
        <ele>189</ele>
        <time>2018-07-12T08:55:10Z</time>
      </trkpt>
      <trkpt lat="46.01359" lon="4.70748">
        <ele>189</ele>
        <time>2018-07-12T08:55:12Z</time>
      </trkpt>
      <trkpt lat="46.01364" lon="4.70749">
        <ele>189</ele>
        <time>2018-07-12T08:55:13Z</time>
      </trkpt>
      <trkpt lat="46.0137" lon="4.70748">
        <ele>189</ele>
        <time>2018-07-12T08:55:14Z</time>
      </trkpt>
      <trkpt lat="46.01375" lon="4.70747">
        <ele>189</ele>
        <time>2018-07-12T08:55:15Z</time>
      </trkpt>
      <trkpt lat="46.0138" lon="4.70747">
        <ele>189</ele>
        <time>2018-07-12T08:55:16Z</time>
      </trkpt>
      <trkpt lat="46.01385" lon="4.70748">
        <ele>189</ele>
        <time>2018-07-12T08:55:17Z</time>
      </trkpt>
      <trkpt lat="46.01389" lon="4.70747">
        <ele>189</ele>
        <time>2018-07-12T08:55:18Z</time>
      </trkpt>
      <trkpt lat="46.01394" lon="4.70747">
        <ele>189</ele>
        <time>2018-07-12T08:55:19Z</time>
      </trkpt>
      <trkpt lat="46.01399" lon="4.70747">
        <ele>189</ele>
        <time>2018-07-12T08:55:20Z</time>
      </trkpt>
      <trkpt lat="46.01405" lon="4.70745">
        <ele>189</ele>
        <time>2018-07-12T08:55:21Z</time>
      </trkpt>
      <trkpt lat="46.01413" lon="4.70743">
        <ele>189</ele>
        <time>2018-07-12T08:55:24Z</time>
      </trkpt>
      <trkpt lat="46.01415" lon="4.70743">
        <ele>189</ele>
        <time>2018-07-12T08:55:25Z</time>
      </trkpt>
      <trkpt lat="46.01422" lon="4.70741">
        <ele>189</ele>
        <time>2018-07-12T08:55:33Z</time>
      </trkpt>
      <trkpt lat="46.01425" lon="4.7074">
        <ele>189</ele>
        <time>2018-07-12T08:55:34Z</time>
      </trkpt>
      <trkpt lat="46.01428" lon="4.7074">
        <ele>189</ele>
        <time>2018-07-12T08:55:35Z</time>
      </trkpt>
      <trkpt lat="46.01436" lon="4.70739">
        <ele>189</ele>
        <time>2018-07-12T08:55:36Z</time>
      </trkpt>
      <trkpt lat="46.01444" lon="4.70738">
        <ele>189</ele>
        <time>2018-07-12T08:55:38Z</time>
      </trkpt>
      <trkpt lat="46.01448" lon="4.70738">
        <ele>189</ele>
        <time>2018-07-12T08:55:39Z</time>
      </trkpt>
      <trkpt lat="46.01456" lon="4.70738">
        <ele>189</ele>
        <time>2018-07-12T08:55:41Z</time>
      </trkpt>
      <trkpt lat="46.01462" lon="4.70738">
        <ele>190</ele>
        <time>2018-07-12T08:55:42Z</time>
      </trkpt>
      <trkpt lat="46.01468" lon="4.70734">
        <ele>190</ele>
        <time>2018-07-12T08:55:43Z</time>
      </trkpt>
      <trkpt lat="46.01474" lon="4.70734">
        <ele>190</ele>
        <time>2018-07-12T08:55:44Z</time>
      </trkpt>
      <trkpt lat="46.0148" lon="4.70733">
        <ele>190</ele>
        <time>2018-07-12T08:55:45Z</time>
      </trkpt>
      <trkpt lat="46.01487" lon="4.70733">
        <ele>190</ele>
        <time>2018-07-12T08:55:46Z</time>
      </trkpt>
      <trkpt lat="46.01492" lon="4.70732">
        <ele>190</ele>
        <time>2018-07-12T08:55:47Z</time>
      </trkpt>
      <trkpt lat="46.01499" lon="4.70731">
        <ele>190</ele>
        <time>2018-07-12T08:55:48Z</time>
      </trkpt>
      <trkpt lat="46.01507" lon="4.70731">
        <ele>190</ele>
        <time>2018-07-12T08:55:49Z</time>
      </trkpt>
      <trkpt lat="46.01514" lon="4.70729">
        <ele>190</ele>
        <time>2018-07-12T08:55:50Z</time>
      </trkpt>
      <trkpt lat="46.01523" lon="4.70727">
        <ele>190</ele>
        <time>2018-07-12T08:55:51Z</time>
      </trkpt>
      <trkpt lat="46.0153" lon="4.70726">
        <ele>190</ele>
        <time>2018-07-12T08:55:52Z</time>
      </trkpt>
      <trkpt lat="46.01536" lon="4.70726">
        <ele>190</ele>
        <time>2018-07-12T08:55:53Z</time>
      </trkpt>
      <trkpt lat="46.01543" lon="4.70725">
        <ele>190</ele>
        <time>2018-07-12T08:55:54Z</time>
      </trkpt>
      <trkpt lat="46.01549" lon="4.70725">
        <ele>190</ele>
        <time>2018-07-12T08:55:55Z</time>
      </trkpt>
      <trkpt lat="46.01555" lon="4.70725">
        <ele>190</ele>
        <time>2018-07-12T08:55:56Z</time>
      </trkpt>
      <trkpt lat="46.01563" lon="4.70719">
        <ele>190</ele>
        <time>2018-07-12T08:55:57Z</time>
      </trkpt>
      <trkpt lat="46.0157" lon="4.70718">
        <ele>190</ele>
        <time>2018-07-12T08:55:58Z</time>
      </trkpt>
      <trkpt lat="46.01576" lon="4.70718">
        <ele>190</ele>
        <time>2018-07-12T08:55:59Z</time>
      </trkpt>
      <trkpt lat="46.01582" lon="4.70717">
        <ele>190</ele>
        <time>2018-07-12T08:56:00Z</time>
      </trkpt>
      <trkpt lat="46.01589" lon="4.70717">
        <ele>190</ele>
        <time>2018-07-12T08:56:01Z</time>
      </trkpt>
      <trkpt lat="46.01596" lon="4.70717">
        <ele>190</ele>
        <time>2018-07-12T08:56:02Z</time>
      </trkpt>
      <trkpt lat="46.01603" lon="4.70717">
        <ele>190</ele>
        <time>2018-07-12T08:56:03Z</time>
      </trkpt>
      <trkpt lat="46.0161" lon="4.70716">
        <ele>190</ele>
        <time>2018-07-12T08:56:04Z</time>
      </trkpt>
      <trkpt lat="46.01617" lon="4.70716">
        <ele>190</ele>
        <time>2018-07-12T08:56:05Z</time>
      </trkpt>
      <trkpt lat="46.01624" lon="4.70715">
        <ele>190</ele>
        <time>2018-07-12T08:56:06Z</time>
      </trkpt>
      <trkpt lat="46.01631" lon="4.70716">
        <ele>190</ele>
        <time>2018-07-12T08:56:07Z</time>
      </trkpt>
      <trkpt lat="46.01638" lon="4.70715">
        <ele>190</ele>
        <time>2018-07-12T08:56:08Z</time>
      </trkpt>
      <trkpt lat="46.01645" lon="4.70714">
        <ele>190</ele>
        <time>2018-07-12T08:56:09Z</time>
      </trkpt>
      <trkpt lat="46.01651" lon="4.70714">
        <ele>190</ele>
        <time>2018-07-12T08:56:10Z</time>
      </trkpt>
      <trkpt lat="46.01657" lon="4.70714">
        <ele>190</ele>
        <time>2018-07-12T08:56:11Z</time>
      </trkpt>
      <trkpt lat="46.01663" lon="4.70713">
        <ele>190</ele>
        <time>2018-07-12T08:56:12Z</time>
      </trkpt>
      <trkpt lat="46.01668" lon="4.70714">
        <ele>189</ele>
        <time>2018-07-12T08:56:13Z</time>
      </trkpt>
      <trkpt lat="46.01675" lon="4.70713">
        <ele>189</ele>
        <time>2018-07-12T08:56:14Z</time>
      </trkpt>
      <trkpt lat="46.0168" lon="4.70712">
        <ele>189</ele>
        <time>2018-07-12T08:56:15Z</time>
      </trkpt>
      <trkpt lat="46.01686" lon="4.70712">
        <ele>189</ele>
        <time>2018-07-12T08:56:16Z</time>
      </trkpt>
      <trkpt lat="46.01692" lon="4.70712">
        <ele>189</ele>
        <time>2018-07-12T08:56:17Z</time>
      </trkpt>
      <trkpt lat="46.01697" lon="4.70712">
        <ele>189</ele>
        <time>2018-07-12T08:56:18Z</time>
      </trkpt>
      <trkpt lat="46.01705" lon="4.7071">
        <ele>189</ele>
        <time>2018-07-12T08:56:19Z</time>
      </trkpt>
      <trkpt lat="46.01711" lon="4.70708">
        <ele>188</ele>
        <time>2018-07-12T08:56:20Z</time>
      </trkpt>
      <trkpt lat="46.01717" lon="4.70707">
        <ele>188</ele>
        <time>2018-07-12T08:56:21Z</time>
      </trkpt>
      <trkpt lat="46.01723" lon="4.70707">
        <ele>188</ele>
        <time>2018-07-12T08:56:22Z</time>
      </trkpt>
      <trkpt lat="46.0173" lon="4.70706">
        <ele>188</ele>
        <time>2018-07-12T08:56:23Z</time>
      </trkpt>
      <trkpt lat="46.01736" lon="4.70706">
        <ele>188</ele>
        <time>2018-07-12T08:56:24Z</time>
      </trkpt>
      <trkpt lat="46.01743" lon="4.70706">
        <ele>188</ele>
        <time>2018-07-12T08:56:25Z</time>
      </trkpt>
      <trkpt lat="46.01751" lon="4.70704">
        <ele>187</ele>
        <time>2018-07-12T08:56:26Z</time>
      </trkpt>
      <trkpt lat="46.01758" lon="4.70703">
        <ele>187</ele>
        <time>2018-07-12T08:56:27Z</time>
      </trkpt>
      <trkpt lat="46.01765" lon="4.70702">
        <ele>187</ele>
        <time>2018-07-12T08:56:28Z</time>
      </trkpt>
      <trkpt lat="46.01771" lon="4.70703">
        <ele>187</ele>
        <time>2018-07-12T08:56:29Z</time>
      </trkpt>
      <trkpt lat="46.01779" lon="4.70703">
        <ele>187</ele>
        <time>2018-07-12T08:56:30Z</time>
      </trkpt>
      <trkpt lat="46.01785" lon="4.70702">
        <ele>187</ele>
        <time>2018-07-12T08:56:31Z</time>
      </trkpt>
      <trkpt lat="46.01792" lon="4.70703">
        <ele>187</ele>
        <time>2018-07-12T08:56:32Z</time>
      </trkpt>
      <trkpt lat="46.01799" lon="4.70702">
        <ele>187</ele>
        <time>2018-07-12T08:56:33Z</time>
      </trkpt>
      <trkpt lat="46.01805" lon="4.70702">
        <ele>187</ele>
        <time>2018-07-12T08:56:34Z</time>
      </trkpt>
      <trkpt lat="46.01811" lon="4.707">
        <ele>187</ele>
        <time>2018-07-12T08:56:35Z</time>
      </trkpt>
      <trkpt lat="46.01817" lon="4.707">
        <ele>187</ele>
        <time>2018-07-12T08:56:36Z</time>
      </trkpt>
      <trkpt lat="46.01826" lon="4.70699">
        <ele>187</ele>
        <time>2018-07-12T08:56:38Z</time>
      </trkpt>
      <trkpt lat="46.01833" lon="4.70699">
        <ele>187</ele>
        <time>2018-07-12T08:56:39Z</time>
      </trkpt>
      <trkpt lat="46.01839" lon="4.70698">
        <ele>185</ele>
        <time>2018-07-12T08:56:40Z</time>
      </trkpt>
      <trkpt lat="46.01844" lon="4.70697">
        <ele>185</ele>
        <time>2018-07-12T08:56:41Z</time>
      </trkpt>
      <trkpt lat="46.0185" lon="4.70697">
        <ele>185</ele>
        <time>2018-07-12T08:56:42Z</time>
      </trkpt>
      <trkpt lat="46.01857" lon="4.70696">
        <ele>185</ele>
        <time>2018-07-12T08:56:43Z</time>
      </trkpt>
      <trkpt lat="46.01864" lon="4.70696">
        <ele>185</ele>
        <time>2018-07-12T08:56:44Z</time>
      </trkpt>
      <trkpt lat="46.01871" lon="4.70697">
        <ele>185</ele>
        <time>2018-07-12T08:56:45Z</time>
      </trkpt>
      <trkpt lat="46.01878" lon="4.70697">
        <ele>185</ele>
        <time>2018-07-12T08:56:46Z</time>
      </trkpt>
      <trkpt lat="46.01885" lon="4.70697">
        <ele>184</ele>
        <time>2018-07-12T08:56:47Z</time>
      </trkpt>
      <trkpt lat="46.01892" lon="4.70698">
        <ele>184</ele>
        <time>2018-07-12T08:56:48Z</time>
      </trkpt>
      <trkpt lat="46.01898" lon="4.70697">
        <ele>184</ele>
        <time>2018-07-12T08:56:49Z</time>
      </trkpt>
      <trkpt lat="46.01906" lon="4.70698">
        <ele>184</ele>
        <time>2018-07-12T08:56:50Z</time>
      </trkpt>
      <trkpt lat="46.01912" lon="4.707">
        <ele>184</ele>
        <time>2018-07-12T08:56:51Z</time>
      </trkpt>
      <trkpt lat="46.01918" lon="4.70701">
        <ele>182</ele>
        <time>2018-07-12T08:56:52Z</time>
      </trkpt>
      <trkpt lat="46.01924" lon="4.70702">
        <ele>182</ele>
        <time>2018-07-12T08:56:53Z</time>
      </trkpt>
      <trkpt lat="46.01931" lon="4.70703">
        <ele>182</ele>
        <time>2018-07-12T08:56:54Z</time>
      </trkpt>
      <trkpt lat="46.01936" lon="4.70702">
        <ele>182</ele>
        <time>2018-07-12T08:56:55Z</time>
      </trkpt>
      <trkpt lat="46.01943" lon="4.70703">
        <ele>182</ele>
        <time>2018-07-12T08:56:56Z</time>
      </trkpt>
      <trkpt lat="46.01948" lon="4.70703">
        <ele>181</ele>
        <time>2018-07-12T08:56:57Z</time>
      </trkpt>
      <trkpt lat="46.01954" lon="4.70704">
        <ele>181</ele>
        <time>2018-07-12T08:56:58Z</time>
      </trkpt>
      <trkpt lat="46.01961" lon="4.70705">
        <ele>181</ele>
        <time>2018-07-12T08:56:59Z</time>
      </trkpt>
      <trkpt lat="46.01968" lon="4.70707">
        <ele>181</ele>
        <time>2018-07-12T08:57:00Z</time>
      </trkpt>
      <trkpt lat="46.01974" lon="4.70708">
        <ele>181</ele>
        <time>2018-07-12T08:57:01Z</time>
      </trkpt>
      <trkpt lat="46.0198" lon="4.7071">
        <ele>181</ele>
        <time>2018-07-12T08:57:02Z</time>
      </trkpt>
      <trkpt lat="46.01987" lon="4.70711">
        <ele>181</ele>
        <time>2018-07-12T08:57:03Z</time>
      </trkpt>
      <trkpt lat="46.01993" lon="4.70713">
        <ele>181</ele>
        <time>2018-07-12T08:57:04Z</time>
      </trkpt>
      <trkpt lat="46.02" lon="4.70713">
        <ele>181</ele>
        <time>2018-07-12T08:57:05Z</time>
      </trkpt>
      <trkpt lat="46.02006" lon="4.70714">
        <ele>179</ele>
        <time>2018-07-12T08:57:06Z</time>
      </trkpt>
      <trkpt lat="46.02013" lon="4.70715">
        <ele>179</ele>
        <time>2018-07-12T08:57:07Z</time>
      </trkpt>
      <trkpt lat="46.0202" lon="4.70718">
        <ele>179</ele>
        <time>2018-07-12T08:57:08Z</time>
      </trkpt>
      <trkpt lat="46.02028" lon="4.70719">
        <ele>179</ele>
        <time>2018-07-12T08:57:09Z</time>
      </trkpt>
      <trkpt lat="46.02036" lon="4.7072">
        <ele>179</ele>
        <time>2018-07-12T08:57:10Z</time>
      </trkpt>
      <trkpt lat="46.02043" lon="4.70722">
        <ele>179</ele>
        <time>2018-07-12T08:57:11Z</time>
      </trkpt>
      <trkpt lat="46.0205" lon="4.70723">
        <ele>179</ele>
        <time>2018-07-12T08:57:12Z</time>
      </trkpt>
      <trkpt lat="46.02057" lon="4.70725">
        <ele>179</ele>
        <time>2018-07-12T08:57:13Z</time>
      </trkpt>
      <trkpt lat="46.02064" lon="4.70727">
        <ele>179</ele>
        <time>2018-07-12T08:57:14Z</time>
      </trkpt>
      <trkpt lat="46.02071" lon="4.70729">
        <ele>178</ele>
        <time>2018-07-12T08:57:15Z</time>
      </trkpt>
      <trkpt lat="46.02078" lon="4.7073">
        <ele>178</ele>
        <time>2018-07-12T08:57:16Z</time>
      </trkpt>
      <trkpt lat="46.02085" lon="4.70731">
        <ele>178</ele>
        <time>2018-07-12T08:57:17Z</time>
      </trkpt>
      <trkpt lat="46.02092" lon="4.70732">
        <ele>178</ele>
        <time>2018-07-12T08:57:18Z</time>
      </trkpt>
      <trkpt lat="46.02099" lon="4.70732">
        <ele>178</ele>
        <time>2018-07-12T08:57:19Z</time>
      </trkpt>
      <trkpt lat="46.02105" lon="4.70735">
        <ele>178</ele>
        <time>2018-07-12T08:57:20Z</time>
      </trkpt>
      <trkpt lat="46.02112" lon="4.70737">
        <ele>178</ele>
        <time>2018-07-12T08:57:21Z</time>
      </trkpt>
      <trkpt lat="46.02119" lon="4.70737">
        <ele>179</ele>
        <time>2018-07-12T08:57:22Z</time>
      </trkpt>
      <trkpt lat="46.02126" lon="4.70738">
        <ele>179</ele>
        <time>2018-07-12T08:57:23Z</time>
      </trkpt>
      <trkpt lat="46.02133" lon="4.70739">
        <ele>179</ele>
        <time>2018-07-12T08:57:24Z</time>
      </trkpt>
      <trkpt lat="46.0214" lon="4.7074">
        <ele>179</ele>
        <time>2018-07-12T08:57:25Z</time>
      </trkpt>
      <trkpt lat="46.02146" lon="4.70741">
        <ele>179</ele>
        <time>2018-07-12T08:57:26Z</time>
      </trkpt>
      <trkpt lat="46.02153" lon="4.70741">
        <ele>179</ele>
        <time>2018-07-12T08:57:27Z</time>
      </trkpt>
      <trkpt lat="46.02161" lon="4.70742">
        <ele>179</ele>
        <time>2018-07-12T08:57:28Z</time>
      </trkpt>
      <trkpt lat="46.02167" lon="4.70744">
        <ele>179</ele>
        <time>2018-07-12T08:57:29Z</time>
      </trkpt>
      <trkpt lat="46.02175" lon="4.70747">
        <ele>179</ele>
        <time>2018-07-12T08:57:30Z</time>
      </trkpt>
      <trkpt lat="46.02182" lon="4.70748">
        <ele>180</ele>
        <time>2018-07-12T08:57:31Z</time>
      </trkpt>
      <trkpt lat="46.02187" lon="4.70749">
        <ele>180</ele>
        <time>2018-07-12T08:57:32Z</time>
      </trkpt>
      <trkpt lat="46.02193" lon="4.7075">
        <ele>179</ele>
        <time>2018-07-12T08:57:33Z</time>
      </trkpt>
      <trkpt lat="46.02198" lon="4.70751">
        <ele>179</ele>
        <time>2018-07-12T08:57:34Z</time>
      </trkpt>
      <trkpt lat="46.02204" lon="4.70753">
        <ele>179</ele>
        <time>2018-07-12T08:57:35Z</time>
      </trkpt>
      <trkpt lat="46.02209" lon="4.70751">
        <ele>180</ele>
        <time>2018-07-12T08:57:36Z</time>
      </trkpt>
      <trkpt lat="46.02216" lon="4.70753">
        <ele>180</ele>
        <time>2018-07-12T08:57:37Z</time>
      </trkpt>
      <trkpt lat="46.02222" lon="4.70755">
        <ele>180</ele>
        <time>2018-07-12T08:57:38Z</time>
      </trkpt>
      <trkpt lat="46.02227" lon="4.70758">
        <ele>180</ele>
        <time>2018-07-12T08:57:39Z</time>
      </trkpt>
      <trkpt lat="46.02233" lon="4.70759">
        <ele>180</ele>
        <time>2018-07-12T08:57:40Z</time>
      </trkpt>
      <trkpt lat="46.02241" lon="4.70759">
        <ele>180</ele>
        <time>2018-07-12T08:57:41Z</time>
      </trkpt>
      <trkpt lat="46.02248" lon="4.7076">
        <ele>180</ele>
        <time>2018-07-12T08:57:42Z</time>
      </trkpt>
      <trkpt lat="46.02253" lon="4.70761">
        <ele>181</ele>
        <time>2018-07-12T08:57:43Z</time>
      </trkpt>
      <trkpt lat="46.0226" lon="4.70763">
        <ele>181</ele>
        <time>2018-07-12T08:57:44Z</time>
      </trkpt>
      <trkpt lat="46.02267" lon="4.70765">
        <ele>181</ele>
        <time>2018-07-12T08:57:45Z</time>
      </trkpt>
      <trkpt lat="46.02273" lon="4.70764">
        <ele>181</ele>
        <time>2018-07-12T08:57:46Z</time>
      </trkpt>
      <trkpt lat="46.02279" lon="4.70765">
        <ele>181</ele>
        <time>2018-07-12T08:57:47Z</time>
      </trkpt>
      <trkpt lat="46.02288" lon="4.70763">
        <ele>181</ele>
        <time>2018-07-12T08:57:48Z</time>
      </trkpt>
      <trkpt lat="46.02294" lon="4.70765">
        <ele>180</ele>
        <time>2018-07-12T08:57:49Z</time>
      </trkpt>
      <trkpt lat="46.023" lon="4.70767">
        <ele>180</ele>
        <time>2018-07-12T08:57:50Z</time>
      </trkpt>
      <trkpt lat="46.02304" lon="4.7077">
        <ele>180</ele>
        <time>2018-07-12T08:57:51Z</time>
      </trkpt>
      <trkpt lat="46.0231" lon="4.70769">
        <ele>180</ele>
        <time>2018-07-12T08:57:52Z</time>
      </trkpt>
      <trkpt lat="46.02316" lon="4.70771">
        <ele>180</ele>
        <time>2018-07-12T08:57:53Z</time>
      </trkpt>
      <trkpt lat="46.0232" lon="4.70772">
        <ele>180</ele>
        <time>2018-07-12T08:57:54Z</time>
      </trkpt>
      <trkpt lat="46.02326" lon="4.70772">
        <ele>180</ele>
        <time>2018-07-12T08:57:55Z</time>
      </trkpt>
      <trkpt lat="46.02331" lon="4.70774">
        <ele>180</ele>
        <time>2018-07-12T08:57:56Z</time>
      </trkpt>
      <trkpt lat="46.02337" lon="4.70776">
        <ele>182</ele>
        <time>2018-07-12T08:57:57Z</time>
      </trkpt>
      <trkpt lat="46.02343" lon="4.70774">
        <ele>182</ele>
        <time>2018-07-12T08:57:58Z</time>
      </trkpt>
      <trkpt lat="46.02348" lon="4.70776">
        <ele>183</ele>
        <time>2018-07-12T08:57:59Z</time>
      </trkpt>
      <trkpt lat="46.02353" lon="4.70776">
        <ele>183</ele>
        <time>2018-07-12T08:58:00Z</time>
      </trkpt>
      <trkpt lat="46.02358" lon="4.70777">
        <ele>183</ele>
        <time>2018-07-12T08:58:01Z</time>
      </trkpt>
      <trkpt lat="46.02362" lon="4.70779">
        <ele>183</ele>
        <time>2018-07-12T08:58:02Z</time>
      </trkpt>
      <trkpt lat="46.02367" lon="4.7078">
        <ele>183</ele>
        <time>2018-07-12T08:58:03Z</time>
      </trkpt>
      <trkpt lat="46.02371" lon="4.70781">
        <ele>184</ele>
        <time>2018-07-12T08:58:04Z</time>
      </trkpt>
      <trkpt lat="46.02375" lon="4.70783">
        <ele>184</ele>
        <time>2018-07-12T08:58:05Z</time>
      </trkpt>
      <trkpt lat="46.0238" lon="4.70783">
        <ele>184</ele>
        <time>2018-07-12T08:58:06Z</time>
      </trkpt>
      <trkpt lat="46.02389" lon="4.70783">
        <ele>184</ele>
        <time>2018-07-12T08:58:08Z</time>
      </trkpt>
      <trkpt lat="46.02393" lon="4.70784">
        <ele>185</ele>
        <time>2018-07-12T08:58:09Z</time>
      </trkpt>
      <trkpt lat="46.02402" lon="4.70784">
        <ele>185</ele>
        <time>2018-07-12T08:58:11Z</time>
      </trkpt>
      <trkpt lat="46.02408" lon="4.70782">
        <ele>185</ele>
        <time>2018-07-12T08:58:12Z</time>
      </trkpt>
      <trkpt lat="46.02415" lon="4.70781">
        <ele>185</ele>
        <time>2018-07-12T08:58:14Z</time>
      </trkpt>
      <trkpt lat="46.02419" lon="4.7078">
        <ele>189</ele>
        <time>2018-07-12T08:58:15Z</time>
      </trkpt>
      <trkpt lat="46.02428" lon="4.70777">
        <ele>189</ele>
        <time>2018-07-12T08:58:17Z</time>
      </trkpt>
      <trkpt lat="46.02429" lon="4.70775">
        <ele>189</ele>
        <time>2018-07-12T08:58:18Z</time>
      </trkpt>
      <trkpt lat="46.02433" lon="4.70764">
        <ele>189</ele>
        <time>2018-07-12T08:58:20Z</time>
      </trkpt>
      <trkpt lat="46.02436" lon="4.70759">
        <ele>189</ele>
        <time>2018-07-12T08:58:21Z</time>
      </trkpt>
      <trkpt lat="46.02438" lon="4.70752">
        <ele>189</ele>
        <time>2018-07-12T08:58:22Z</time>
      </trkpt>
      <trkpt lat="46.0244" lon="4.70745">
        <ele>189</ele>
        <time>2018-07-12T08:58:23Z</time>
      </trkpt>
      <trkpt lat="46.02442" lon="4.7074">
        <ele>190</ele>
        <time>2018-07-12T08:58:24Z</time>
      </trkpt>
      <trkpt lat="46.02444" lon="4.70732">
        <ele>190</ele>
        <time>2018-07-12T08:58:25Z</time>
      </trkpt>
      <trkpt lat="46.02446" lon="4.70726">
        <ele>190</ele>
        <time>2018-07-12T08:58:26Z</time>
      </trkpt>
      <trkpt lat="46.02448" lon="4.70719">
        <ele>190</ele>
        <time>2018-07-12T08:58:27Z</time>
      </trkpt>
      <trkpt lat="46.02451" lon="4.70707">
        <ele>190</ele>
        <time>2018-07-12T08:58:29Z</time>
      </trkpt>
      <trkpt lat="46.02453" lon="4.707">
        <ele>190</ele>
        <time>2018-07-12T08:58:30Z</time>
      </trkpt>
      <trkpt lat="46.02455" lon="4.70692">
        <ele>190</ele>
        <time>2018-07-12T08:58:31Z</time>
      </trkpt>
      <trkpt lat="46.02457" lon="4.70685">
        <ele>190</ele>
        <time>2018-07-12T08:58:32Z</time>
      </trkpt>
      <trkpt lat="46.02459" lon="4.70678">
        <ele>190</ele>
        <time>2018-07-12T08:58:33Z</time>
      </trkpt>
      <trkpt lat="46.02461" lon="4.7067">
        <ele>190</ele>
        <time>2018-07-12T08:58:34Z</time>
      </trkpt>
      <trkpt lat="46.02463" lon="4.70664">
        <ele>189</ele>
        <time>2018-07-12T08:58:35Z</time>
      </trkpt>
      <trkpt lat="46.02464" lon="4.70657">
        <ele>189</ele>
        <time>2018-07-12T08:58:36Z</time>
      </trkpt>
      <trkpt lat="46.02466" lon="4.7065">
        <ele>188</ele>
        <time>2018-07-12T08:58:37Z</time>
      </trkpt>
      <trkpt lat="46.02467" lon="4.70644">
        <ele>188</ele>
        <time>2018-07-12T08:58:38Z</time>
      </trkpt>
      <trkpt lat="46.02471" lon="4.70633">
        <ele>188</ele>
        <time>2018-07-12T08:58:40Z</time>
      </trkpt>
      <trkpt lat="46.02472" lon="4.70628">
        <ele>188</ele>
        <time>2018-07-12T08:58:41Z</time>
      </trkpt>
      <trkpt lat="46.02478" lon="4.70618">
        <ele>188</ele>
        <time>2018-07-12T08:58:43Z</time>
      </trkpt>
      <trkpt lat="46.02481" lon="4.70616">
        <ele>188</ele>
        <time>2018-07-12T08:58:44Z</time>
      </trkpt>
      <trkpt lat="46.02486" lon="4.70617">
        <ele>188</ele>
        <time>2018-07-12T08:58:45Z</time>
      </trkpt>
      <trkpt lat="46.02491" lon="4.70618">
        <ele>188</ele>
        <time>2018-07-12T08:58:46Z</time>
      </trkpt>
      <trkpt lat="46.02499" lon="4.70622">
        <ele>188</ele>
        <time>2018-07-12T08:58:48Z</time>
      </trkpt>
      <trkpt lat="46.02504" lon="4.70625">
        <ele>189</ele>
        <time>2018-07-12T08:58:49Z</time>
      </trkpt>
      <trkpt lat="46.02509" lon="4.70627">
        <ele>189</ele>
        <time>2018-07-12T08:58:50Z</time>
      </trkpt>
      <trkpt lat="46.02514" lon="4.70629">
        <ele>189</ele>
        <time>2018-07-12T08:58:51Z</time>
      </trkpt>
      <trkpt lat="46.02522" lon="4.70629">
        <ele>189</ele>
        <time>2018-07-12T08:58:52Z</time>
      </trkpt>
      <trkpt lat="46.02527" lon="4.70631">
        <ele>189</ele>
        <time>2018-07-12T08:58:53Z</time>
      </trkpt>
      <trkpt lat="46.02533" lon="4.70632">
        <ele>189</ele>
        <time>2018-07-12T08:58:54Z</time>
      </trkpt>
      <trkpt lat="46.02537" lon="4.70633">
        <ele>189</ele>
        <time>2018-07-12T08:58:55Z</time>
      </trkpt>
      <trkpt lat="46.02541" lon="4.70634">
        <ele>189</ele>
        <time>2018-07-12T08:58:56Z</time>
      </trkpt>
      <trkpt lat="46.02547" lon="4.70635">
        <ele>189</ele>
        <time>2018-07-12T08:58:57Z</time>
      </trkpt>
      <trkpt lat="46.02553" lon="4.70637">
        <ele>189</ele>
        <time>2018-07-12T08:58:58Z</time>
      </trkpt>
      <trkpt lat="46.02558" lon="4.70639">
        <ele>189</ele>
        <time>2018-07-12T08:58:59Z</time>
      </trkpt>
      <trkpt lat="46.02563" lon="4.70644">
        <ele>189</ele>
        <time>2018-07-12T08:59:01Z</time>
      </trkpt>
      <trkpt lat="46.0257" lon="4.70646">
        <ele>190</ele>
        <time>2018-07-12T08:59:02Z</time>
      </trkpt>
      <trkpt lat="46.02575" lon="4.70646">
        <ele>190</ele>
        <time>2018-07-12T08:59:03Z</time>
      </trkpt>
      <trkpt lat="46.0258" lon="4.70647">
        <ele>190</ele>
        <time>2018-07-12T08:59:04Z</time>
      </trkpt>
      <trkpt lat="46.02585" lon="4.70648">
        <ele>190</ele>
        <time>2018-07-12T08:59:05Z</time>
      </trkpt>
      <trkpt lat="46.02591" lon="4.70649">
        <ele>190</ele>
        <time>2018-07-12T08:59:06Z</time>
      </trkpt>
      <trkpt lat="46.02596" lon="4.7065">
        <ele>190</ele>
        <time>2018-07-12T08:59:07Z</time>
      </trkpt>
      <trkpt lat="46.02602" lon="4.70653">
        <ele>190</ele>
        <time>2018-07-12T08:59:08Z</time>
      </trkpt>
      <trkpt lat="46.02607" lon="4.70654">
        <ele>190</ele>
        <time>2018-07-12T08:59:09Z</time>
      </trkpt>
      <trkpt lat="46.02612" lon="4.70654">
        <ele>190</ele>
        <time>2018-07-12T08:59:10Z</time>
      </trkpt>
      <trkpt lat="46.02617" lon="4.70655">
        <ele>190</ele>
        <time>2018-07-12T08:59:11Z</time>
      </trkpt>
      <trkpt lat="46.02622" lon="4.70656">
        <ele>190</ele>
        <time>2018-07-12T08:59:12Z</time>
      </trkpt>
      <trkpt lat="46.02627" lon="4.70657">
        <ele>190</ele>
        <time>2018-07-12T08:59:13Z</time>
      </trkpt>
      <trkpt lat="46.02632" lon="4.70658">
        <ele>190</ele>
        <time>2018-07-12T08:59:14Z</time>
      </trkpt>
      <trkpt lat="46.02638" lon="4.70659">
        <ele>190</ele>
        <time>2018-07-12T08:59:15Z</time>
      </trkpt>
      <trkpt lat="46.02644" lon="4.70658">
        <ele>190</ele>
        <time>2018-07-12T08:59:16Z</time>
      </trkpt>
      <trkpt lat="46.02648" lon="4.70657">
        <ele>190</ele>
        <time>2018-07-12T08:59:17Z</time>
      </trkpt>
      <trkpt lat="46.02654" lon="4.70657">
        <ele>190</ele>
        <time>2018-07-12T08:59:18Z</time>
      </trkpt>
      <trkpt lat="46.02659" lon="4.70657">
        <ele>190</ele>
        <time>2018-07-12T08:59:19Z</time>
      </trkpt>
      <trkpt lat="46.02664" lon="4.70657">
        <ele>190</ele>
        <time>2018-07-12T08:59:20Z</time>
      </trkpt>
      <trkpt lat="46.02669" lon="4.70658">
        <ele>190</ele>
        <time>2018-07-12T08:59:21Z</time>
      </trkpt>
      <trkpt lat="46.02675" lon="4.70658">
        <ele>190</ele>
        <time>2018-07-12T08:59:22Z</time>
      </trkpt>
      <trkpt lat="46.02679" lon="4.70659">
        <ele>190</ele>
        <time>2018-07-12T08:59:23Z</time>
      </trkpt>
      <trkpt lat="46.02684" lon="4.70661">
        <ele>190</ele>
        <time>2018-07-12T08:59:24Z</time>
      </trkpt>
      <trkpt lat="46.02692" lon="4.70662">
        <ele>189</ele>
        <time>2018-07-12T08:59:26Z</time>
      </trkpt>
      <trkpt lat="46.02695" lon="4.70662">
        <ele>189</ele>
        <time>2018-07-12T08:59:27Z</time>
      </trkpt>
      <trkpt lat="46.02701" lon="4.70663">
        <ele>189</ele>
        <time>2018-07-12T08:59:28Z</time>
      </trkpt>
      <trkpt lat="46.02705" lon="4.70664">
        <ele>189</ele>
        <time>2018-07-12T08:59:29Z</time>
      </trkpt>
      <trkpt lat="46.02711" lon="4.70665">
        <ele>189</ele>
        <time>2018-07-12T08:59:30Z</time>
      </trkpt>
      <trkpt lat="46.02716" lon="4.70666">
        <ele>189</ele>
        <time>2018-07-12T08:59:31Z</time>
      </trkpt>
      <trkpt lat="46.02722" lon="4.70668">
        <ele>189</ele>
        <time>2018-07-12T08:59:32Z</time>
      </trkpt>
      <trkpt lat="46.02727" lon="4.70669">
        <ele>189</ele>
        <time>2018-07-12T08:59:33Z</time>
      </trkpt>
      <trkpt lat="46.02733" lon="4.7067">
        <ele>189</ele>
        <time>2018-07-12T08:59:34Z</time>
      </trkpt>
      <trkpt lat="46.02738" lon="4.70671">
        <ele>189</ele>
        <time>2018-07-12T08:59:35Z</time>
      </trkpt>
      <trkpt lat="46.02744" lon="4.70673">
        <ele>189</ele>
        <time>2018-07-12T08:59:36Z</time>
      </trkpt>
      <trkpt lat="46.02749" lon="4.70673">
        <ele>189</ele>
        <time>2018-07-12T08:59:37Z</time>
      </trkpt>
      <trkpt lat="46.02753" lon="4.70674">
        <ele>189</ele>
        <time>2018-07-12T08:59:38Z</time>
      </trkpt>
      <trkpt lat="46.02759" lon="4.70674">
        <ele>189</ele>
        <time>2018-07-12T08:59:39Z</time>
      </trkpt>
      <trkpt lat="46.02764" lon="4.70675">
        <ele>189</ele>
        <time>2018-07-12T08:59:40Z</time>
      </trkpt>
      <trkpt lat="46.02769" lon="4.70675">
        <ele>189</ele>
        <time>2018-07-12T08:59:41Z</time>
      </trkpt>
      <trkpt lat="46.02775" lon="4.70669">
        <ele>189</ele>
        <time>2018-07-12T08:59:42Z</time>
      </trkpt>
      <trkpt lat="46.0278" lon="4.70671">
        <ele>189</ele>
        <time>2018-07-12T08:59:43Z</time>
      </trkpt>
      <trkpt lat="46.02785" lon="4.70672">
        <ele>189</ele>
        <time>2018-07-12T08:59:44Z</time>
      </trkpt>
      <trkpt lat="46.02789" lon="4.70672">
        <ele>189</ele>
        <time>2018-07-12T08:59:45Z</time>
      </trkpt>
      <trkpt lat="46.02793" lon="4.70671">
        <ele>189</ele>
        <time>2018-07-12T08:59:46Z</time>
      </trkpt>
      <trkpt lat="46.02799" lon="4.70671">
        <ele>189</ele>
        <time>2018-07-12T08:59:47Z</time>
      </trkpt>
      <trkpt lat="46.02805" lon="4.7067">
        <ele>189</ele>
        <time>2018-07-12T08:59:48Z</time>
      </trkpt>
      <trkpt lat="46.02809" lon="4.70672">
        <ele>189</ele>
        <time>2018-07-12T08:59:49Z</time>
      </trkpt>
      <trkpt lat="46.02814" lon="4.70671">
        <ele>189</ele>
        <time>2018-07-12T08:59:50Z</time>
      </trkpt>
      <trkpt lat="46.0282" lon="4.70669">
        <ele>189</ele>
        <time>2018-07-12T08:59:51Z</time>
      </trkpt>
      <trkpt lat="46.02825" lon="4.70668">
        <ele>189</ele>
        <time>2018-07-12T08:59:52Z</time>
      </trkpt>
      <trkpt lat="46.02831" lon="4.70667">
        <ele>189</ele>
        <time>2018-07-12T08:59:53Z</time>
      </trkpt>
      <trkpt lat="46.02836" lon="4.70666">
        <ele>189</ele>
        <time>2018-07-12T08:59:54Z</time>
      </trkpt>
      <trkpt lat="46.02842" lon="4.70666">
        <ele>189</ele>
        <time>2018-07-12T08:59:55Z</time>
      </trkpt>
      <trkpt lat="46.02847" lon="4.70664">
        <ele>190</ele>
        <time>2018-07-12T08:59:56Z</time>
      </trkpt>
      <trkpt lat="46.02852" lon="4.70662">
        <ele>190</ele>
        <time>2018-07-12T08:59:57Z</time>
      </trkpt>
      <trkpt lat="46.02858" lon="4.70661">
        <ele>190</ele>
        <time>2018-07-12T08:59:58Z</time>
      </trkpt>
      <trkpt lat="46.02863" lon="4.70661">
        <ele>190</ele>
        <time>2018-07-12T08:59:59Z</time>
      </trkpt>
      <trkpt lat="46.02868" lon="4.7066">
        <ele>190</ele>
        <time>2018-07-12T09:00:00Z</time>
      </trkpt>
      <trkpt lat="46.0288" lon="4.70661">
        <ele>190</ele>
        <time>2018-07-12T09:00:02Z</time>
      </trkpt>
      <trkpt lat="46.02887" lon="4.7066">
        <ele>190</ele>
        <time>2018-07-12T09:00:03Z</time>
      </trkpt>
      <trkpt lat="46.02891" lon="4.70661">
        <ele>190</ele>
        <time>2018-07-12T09:00:04Z</time>
      </trkpt>
      <trkpt lat="46.02897" lon="4.7066">
        <ele>191</ele>
        <time>2018-07-12T09:00:05Z</time>
      </trkpt>
      <trkpt lat="46.02902" lon="4.70659">
        <ele>191</ele>
        <time>2018-07-12T09:00:06Z</time>
      </trkpt>
      <trkpt lat="46.02907" lon="4.70659">
        <ele>191</ele>
        <time>2018-07-12T09:00:07Z</time>
      </trkpt>
      <trkpt lat="46.02913" lon="4.70658">
        <ele>191</ele>
        <time>2018-07-12T09:00:08Z</time>
      </trkpt>
      <trkpt lat="46.02918" lon="4.70655">
        <ele>191</ele>
        <time>2018-07-12T09:00:09Z</time>
      </trkpt>
      <trkpt lat="46.02921" lon="4.70649">
        <ele>191</ele>
        <time>2018-07-12T09:00:10Z</time>
      </trkpt>
      <trkpt lat="46.02925" lon="4.70641">
        <ele>192</ele>
        <time>2018-07-12T09:00:11Z</time>
      </trkpt>
      <trkpt lat="46.02928" lon="4.70636">
        <ele>192</ele>
        <time>2018-07-12T09:00:12Z</time>
      </trkpt>
      <trkpt lat="46.02927" lon="4.70626">
        <ele>192</ele>
        <time>2018-07-12T09:00:14Z</time>
      </trkpt>
      <trkpt lat="46.02929" lon="4.70619">
        <ele>192</ele>
        <time>2018-07-12T09:00:15Z</time>
      </trkpt>
      <trkpt lat="46.02931" lon="4.70612">
        <ele>192</ele>
        <time>2018-07-12T09:00:16Z</time>
      </trkpt>
      <trkpt lat="46.02935" lon="4.70605">
        <ele>192</ele>
        <time>2018-07-12T09:00:17Z</time>
      </trkpt>
      <trkpt lat="46.02937" lon="4.70596">
        <ele>192</ele>
        <time>2018-07-12T09:00:18Z</time>
      </trkpt>
      <trkpt lat="46.02939" lon="4.70588">
        <ele>192</ele>
        <time>2018-07-12T09:00:19Z</time>
      </trkpt>
      <trkpt lat="46.02941" lon="4.70582">
        <ele>191</ele>
        <time>2018-07-12T09:00:20Z</time>
      </trkpt>
      <trkpt lat="46.02942" lon="4.70575">
        <ele>191</ele>
        <time>2018-07-12T09:00:21Z</time>
      </trkpt>
      <trkpt lat="46.02945" lon="4.70568">
        <ele>191</ele>
        <time>2018-07-12T09:00:22Z</time>
      </trkpt>
      <trkpt lat="46.02948" lon="4.70563">
        <ele>191</ele>
        <time>2018-07-12T09:00:23Z</time>
      </trkpt>
      <trkpt lat="46.02952" lon="4.70556">
        <ele>191</ele>
        <time>2018-07-12T09:00:24Z</time>
      </trkpt>
      <trkpt lat="46.02957" lon="4.7055">
        <ele>191</ele>
        <time>2018-07-12T09:00:25Z</time>
      </trkpt>
      <trkpt lat="46.0296" lon="4.70546">
        <ele>191</ele>
        <time>2018-07-12T09:00:26Z</time>
      </trkpt>
      <trkpt lat="46.02966" lon="4.7054">
        <ele>191</ele>
        <time>2018-07-12T09:00:27Z</time>
      </trkpt>
      <trkpt lat="46.0297" lon="4.70536">
        <ele>191</ele>
        <time>2018-07-12T09:00:28Z</time>
      </trkpt>
      <trkpt lat="46.02976" lon="4.70531">
        <ele>191</ele>
        <time>2018-07-12T09:00:29Z</time>
      </trkpt>
      <trkpt lat="46.0298" lon="4.70528">
        <ele>191</ele>
        <time>2018-07-12T09:00:30Z</time>
      </trkpt>
      <trkpt lat="46.02984" lon="4.70524">
        <ele>191</ele>
        <time>2018-07-12T09:00:31Z</time>
      </trkpt>
      <trkpt lat="46.02988" lon="4.70521">
        <ele>191</ele>
        <time>2018-07-12T09:00:32Z</time>
      </trkpt>
      <trkpt lat="46.02993" lon="4.70517">
        <ele>191</ele>
        <time>2018-07-12T09:00:33Z</time>
      </trkpt>
      <trkpt lat="46.03" lon="4.70511">
        <ele>191</ele>
        <time>2018-07-12T09:00:35Z</time>
      </trkpt>
      <trkpt lat="46.03004" lon="4.70508">
        <ele>191</ele>
        <time>2018-07-12T09:00:36Z</time>
      </trkpt>
      <trkpt lat="46.0301" lon="4.705">
        <ele>191</ele>
        <time>2018-07-12T09:00:38Z</time>
      </trkpt>
      <trkpt lat="46.03013" lon="4.70496">
        <ele>191</ele>
        <time>2018-07-12T09:00:39Z</time>
      </trkpt>
      <trkpt lat="46.03016" lon="4.70493">
        <ele>191</ele>
        <time>2018-07-12T09:00:40Z</time>
      </trkpt>
      <trkpt lat="46.03022" lon="4.70487">
        <ele>191</ele>
        <time>2018-07-12T09:00:41Z</time>
      </trkpt>
      <trkpt lat="46.03026" lon="4.70481">
        <ele>191</ele>
        <time>2018-07-12T09:00:43Z</time>
      </trkpt>
      <trkpt lat="46.0303" lon="4.70478">
        <ele>191</ele>
        <time>2018-07-12T09:00:44Z</time>
      </trkpt>
      <trkpt lat="46.03035" lon="4.70472">
        <ele>191</ele>
        <time>2018-07-12T09:00:46Z</time>
      </trkpt>
      <trkpt lat="46.03039" lon="4.70468">
        <ele>191</ele>
        <time>2018-07-12T09:00:47Z</time>
      </trkpt>
      <trkpt lat="46.03046" lon="4.70462">
        <ele>191</ele>
        <time>2018-07-12T09:00:49Z</time>
      </trkpt>
      <trkpt lat="46.0305" lon="4.7046">
        <ele>191</ele>
        <time>2018-07-12T09:00:50Z</time>
      </trkpt>
      <trkpt lat="46.03055" lon="4.70456">
        <ele>191</ele>
        <time>2018-07-12T09:00:51Z</time>
      </trkpt>
      <trkpt lat="46.03059" lon="4.70452">
        <ele>191</ele>
        <time>2018-07-12T09:00:52Z</time>
      </trkpt>
      <trkpt lat="46.03063" lon="4.70448">
        <ele>191</ele>
        <time>2018-07-12T09:00:53Z</time>
      </trkpt>
      <trkpt lat="46.03071" lon="4.70441">
        <ele>191</ele>
        <time>2018-07-12T09:00:54Z</time>
      </trkpt>
      <trkpt lat="46.03076" lon="4.70438">
        <ele>191</ele>
        <time>2018-07-12T09:00:55Z</time>
      </trkpt>
      <trkpt lat="46.0308" lon="4.70436">
        <ele>191</ele>
        <time>2018-07-12T09:00:56Z</time>
      </trkpt>
      <trkpt lat="46.03088" lon="4.7043">
        <ele>192</ele>
        <time>2018-07-12T09:00:58Z</time>
      </trkpt>
      <trkpt lat="46.03093" lon="4.70428">
        <ele>192</ele>
        <time>2018-07-12T09:00:59Z</time>
      </trkpt>
      <trkpt lat="46.03098" lon="4.70427">
        <ele>192</ele>
        <time>2018-07-12T09:01:00Z</time>
      </trkpt>
      <trkpt lat="46.03102" lon="4.70424">
        <ele>192</ele>
        <time>2018-07-12T09:01:01Z</time>
      </trkpt>
      <trkpt lat="46.03106" lon="4.70422">
        <ele>192</ele>
        <time>2018-07-12T09:01:02Z</time>
      </trkpt>
      <trkpt lat="46.0311" lon="4.7042">
        <ele>192</ele>
        <time>2018-07-12T09:01:03Z</time>
      </trkpt>
      <trkpt lat="46.03115" lon="4.70418">
        <ele>192</ele>
        <time>2018-07-12T09:01:04Z</time>
      </trkpt>
      <trkpt lat="46.03119" lon="4.70417">
        <ele>192</ele>
        <time>2018-07-12T09:01:05Z</time>
      </trkpt>
      <trkpt lat="46.03124" lon="4.70415">
        <ele>192</ele>
        <time>2018-07-12T09:01:06Z</time>
      </trkpt>
      <trkpt lat="46.03128" lon="4.70411">
        <ele>192</ele>
        <time>2018-07-12T09:01:07Z</time>
      </trkpt>
      <trkpt lat="46.03133" lon="4.70409">
        <ele>192</ele>
        <time>2018-07-12T09:01:08Z</time>
      </trkpt>
      <trkpt lat="46.03138" lon="4.70407">
        <ele>192</ele>
        <time>2018-07-12T09:01:09Z</time>
      </trkpt>
      <trkpt lat="46.03143" lon="4.70404">
        <ele>192</ele>
        <time>2018-07-12T09:01:10Z</time>
      </trkpt>
      <trkpt lat="46.03148" lon="4.70402">
        <ele>192</ele>
        <time>2018-07-12T09:01:11Z</time>
      </trkpt>
      <trkpt lat="46.03152" lon="4.704">
        <ele>192</ele>
        <time>2018-07-12T09:01:12Z</time>
      </trkpt>
      <trkpt lat="46.03157" lon="4.70396">
        <ele>192</ele>
        <time>2018-07-12T09:01:13Z</time>
      </trkpt>
      <trkpt lat="46.03164" lon="4.70393">
        <ele>192</ele>
        <time>2018-07-12T09:01:15Z</time>
      </trkpt>
      <trkpt lat="46.0317" lon="4.70391">
        <ele>192</ele>
        <time>2018-07-12T09:01:16Z</time>
      </trkpt>
      <trkpt lat="46.03175" lon="4.70389">
        <ele>192</ele>
        <time>2018-07-12T09:01:17Z</time>
      </trkpt>
      <trkpt lat="46.0318" lon="4.70387">
        <ele>192</ele>
        <time>2018-07-12T09:01:18Z</time>
      </trkpt>
      <trkpt lat="46.03185" lon="4.70384">
        <ele>192</ele>
        <time>2018-07-12T09:01:19Z</time>
      </trkpt>
      <trkpt lat="46.03189" lon="4.70381">
        <ele>192</ele>
        <time>2018-07-12T09:01:20Z</time>
      </trkpt>
      <trkpt lat="46.03194" lon="4.70379">
        <ele>192</ele>
        <time>2018-07-12T09:01:21Z</time>
      </trkpt>
      <trkpt lat="46.03199" lon="4.70377">
        <ele>192</ele>
        <time>2018-07-12T09:01:22Z</time>
      </trkpt>
      <trkpt lat="46.03207" lon="4.70372">
        <ele>192</ele>
        <time>2018-07-12T09:01:24Z</time>
      </trkpt>
      <trkpt lat="46.03211" lon="4.70371">
        <ele>192</ele>
        <time>2018-07-12T09:01:25Z</time>
      </trkpt>
      <trkpt lat="46.03216" lon="4.70369">
        <ele>192</ele>
        <time>2018-07-12T09:01:26Z</time>
      </trkpt>
      <trkpt lat="46.03222" lon="4.70368">
        <ele>192</ele>
        <time>2018-07-12T09:01:27Z</time>
      </trkpt>
      <trkpt lat="46.03227" lon="4.70365">
        <ele>192</ele>
        <time>2018-07-12T09:01:28Z</time>
      </trkpt>
      <trkpt lat="46.03232" lon="4.70363">
        <ele>192</ele>
        <time>2018-07-12T09:01:29Z</time>
      </trkpt>
      <trkpt lat="46.03235" lon="4.70359">
        <ele>192</ele>
        <time>2018-07-12T09:01:30Z</time>
      </trkpt>
      <trkpt lat="46.03241" lon="4.70357">
        <ele>192</ele>
        <time>2018-07-12T09:01:31Z</time>
      </trkpt>
      <trkpt lat="46.03245" lon="4.70355">
        <ele>192</ele>
        <time>2018-07-12T09:01:32Z</time>
      </trkpt>
      <trkpt lat="46.03249" lon="4.70353">
        <ele>192</ele>
        <time>2018-07-12T09:01:33Z</time>
      </trkpt>
      <trkpt lat="46.03254" lon="4.70352">
        <ele>191</ele>
        <time>2018-07-12T09:01:34Z</time>
      </trkpt>
      <trkpt lat="46.03259" lon="4.7035">
        <ele>191</ele>
        <time>2018-07-12T09:01:35Z</time>
      </trkpt>
      <trkpt lat="46.03264" lon="4.70347">
        <ele>191</ele>
        <time>2018-07-12T09:01:36Z</time>
      </trkpt>
      <trkpt lat="46.03269" lon="4.70345">
        <ele>191</ele>
        <time>2018-07-12T09:01:37Z</time>
      </trkpt>
      <trkpt lat="46.03275" lon="4.70343">
        <ele>191</ele>
        <time>2018-07-12T09:01:38Z</time>
      </trkpt>
      <trkpt lat="46.03281" lon="4.70341">
        <ele>191</ele>
        <time>2018-07-12T09:01:39Z</time>
      </trkpt>
      <trkpt lat="46.03286" lon="4.70339">
        <ele>191</ele>
        <time>2018-07-12T09:01:40Z</time>
      </trkpt>
      <trkpt lat="46.03291" lon="4.70337">
        <ele>191</ele>
        <time>2018-07-12T09:01:41Z</time>
      </trkpt>
      <trkpt lat="46.03296" lon="4.70334">
        <ele>191</ele>
        <time>2018-07-12T09:01:42Z</time>
      </trkpt>
      <trkpt lat="46.03301" lon="4.70333">
        <ele>192</ele>
        <time>2018-07-12T09:01:43Z</time>
      </trkpt>
      <trkpt lat="46.03306" lon="4.70333">
        <ele>192</ele>
        <time>2018-07-12T09:01:44Z</time>
      </trkpt>
      <trkpt lat="46.03311" lon="4.70331">
        <ele>192</ele>
        <time>2018-07-12T09:01:45Z</time>
      </trkpt>
      <trkpt lat="46.03317" lon="4.70328">
        <ele>192</ele>
        <time>2018-07-12T09:01:46Z</time>
      </trkpt>
      <trkpt lat="46.03321" lon="4.70326">
        <ele>192</ele>
        <time>2018-07-12T09:01:47Z</time>
      </trkpt>
      <trkpt lat="46.03328" lon="4.70324">
        <ele>192</ele>
        <time>2018-07-12T09:01:48Z</time>
      </trkpt>
      <trkpt lat="46.03334" lon="4.70322">
        <ele>191</ele>
        <time>2018-07-12T09:01:49Z</time>
      </trkpt>
      <trkpt lat="46.0334" lon="4.70321">
        <ele>191</ele>
        <time>2018-07-12T09:01:50Z</time>
      </trkpt>
      <trkpt lat="46.03346" lon="4.70319">
        <ele>191</ele>
        <time>2018-07-12T09:01:51Z</time>
      </trkpt>
      <trkpt lat="46.03351" lon="4.70316">
        <ele>191</ele>
        <time>2018-07-12T09:01:52Z</time>
      </trkpt>
      <trkpt lat="46.03357" lon="4.70314">
        <ele>191</ele>
        <time>2018-07-12T09:01:53Z</time>
      </trkpt>
      <trkpt lat="46.03363" lon="4.70311">
        <ele>191</ele>
        <time>2018-07-12T09:01:54Z</time>
      </trkpt>
      <trkpt lat="46.03368" lon="4.70307">
        <ele>191</ele>
        <time>2018-07-12T09:01:55Z</time>
      </trkpt>
      <trkpt lat="46.03373" lon="4.70304">
        <ele>191</ele>
        <time>2018-07-12T09:01:56Z</time>
      </trkpt>
      <trkpt lat="46.03379" lon="4.70302">
        <ele>191</ele>
        <time>2018-07-12T09:01:57Z</time>
      </trkpt>
      <trkpt lat="46.03385" lon="4.70298">
        <ele>191</ele>
        <time>2018-07-12T09:01:58Z</time>
      </trkpt>
      <trkpt lat="46.0339" lon="4.70294">
        <ele>191</ele>
        <time>2018-07-12T09:01:59Z</time>
      </trkpt>
      <trkpt lat="46.03397" lon="4.70293">
        <ele>191</ele>
        <time>2018-07-12T09:02:00Z</time>
      </trkpt>
      <trkpt lat="46.03404" lon="4.7029">
        <ele>191</ele>
        <time>2018-07-12T09:02:01Z</time>
      </trkpt>
      <trkpt lat="46.0341" lon="4.70288">
        <ele>191</ele>
        <time>2018-07-12T09:02:02Z</time>
      </trkpt>
      <trkpt lat="46.03415" lon="4.70284">
        <ele>191</ele>
        <time>2018-07-12T09:02:03Z</time>
      </trkpt>
      <trkpt lat="46.03421" lon="4.70282">
        <ele>189</ele>
        <time>2018-07-12T09:02:04Z</time>
      </trkpt>
      <trkpt lat="46.03425" lon="4.70277">
        <ele>189</ele>
        <time>2018-07-12T09:02:05Z</time>
      </trkpt>
      <trkpt lat="46.03432" lon="4.70275">
        <ele>189</ele>
        <time>2018-07-12T09:02:06Z</time>
      </trkpt>
      <trkpt lat="46.03439" lon="4.7027">
        <ele>189</ele>
        <time>2018-07-12T09:02:07Z</time>
      </trkpt>
      <trkpt lat="46.03445" lon="4.70268">
        <ele>189</ele>
        <time>2018-07-12T09:02:08Z</time>
      </trkpt>
      <trkpt lat="46.03451" lon="4.70267">
        <ele>188</ele>
        <time>2018-07-12T09:02:09Z</time>
      </trkpt>
      <trkpt lat="46.03457" lon="4.70267">
        <ele>188</ele>
        <time>2018-07-12T09:02:10Z</time>
      </trkpt>
      <trkpt lat="46.03463" lon="4.70267">
        <ele>188</ele>
        <time>2018-07-12T09:02:11Z</time>
      </trkpt>
      <trkpt lat="46.03469" lon="4.70264">
        <ele>188</ele>
        <time>2018-07-12T09:02:12Z</time>
      </trkpt>
      <trkpt lat="46.03474" lon="4.70262">
        <ele>188</ele>
        <time>2018-07-12T09:02:13Z</time>
      </trkpt>
      <trkpt lat="46.03478" lon="4.70262">
        <ele>188</ele>
        <time>2018-07-12T09:02:14Z</time>
      </trkpt>
      <trkpt lat="46.03485" lon="4.7026">
        <ele>188</ele>
        <time>2018-07-12T09:02:15Z</time>
      </trkpt>
      <trkpt lat="46.03489" lon="4.70257">
        <ele>187</ele>
        <time>2018-07-12T09:02:16Z</time>
      </trkpt>
      <trkpt lat="46.03495" lon="4.70255">
        <ele>187</ele>
        <time>2018-07-12T09:02:17Z</time>
      </trkpt>
      <trkpt lat="46.03502" lon="4.70252">
        <ele>187</ele>
        <time>2018-07-12T09:02:18Z</time>
      </trkpt>
      <trkpt lat="46.03507" lon="4.70252">
        <ele>187</ele>
        <time>2018-07-12T09:02:19Z</time>
      </trkpt>
      <trkpt lat="46.03514" lon="4.70252">
        <ele>187</ele>
        <time>2018-07-12T09:02:20Z</time>
      </trkpt>
      <trkpt lat="46.0352" lon="4.70251">
        <ele>187</ele>
        <time>2018-07-12T09:02:21Z</time>
      </trkpt>
      <trkpt lat="46.03526" lon="4.70247">
        <ele>189</ele>
        <time>2018-07-12T09:02:22Z</time>
      </trkpt>
      <trkpt lat="46.03535" lon="4.70242">
        <ele>189</ele>
        <time>2018-07-12T09:02:23Z</time>
      </trkpt>
      <trkpt lat="46.03541" lon="4.7024">
        <ele>189</ele>
        <time>2018-07-12T09:02:24.884Z</time>
      </trkpt>
      <trkpt lat="46.03549" lon="4.70238">
        <ele>190</ele>
        <time>2018-07-12T09:02:25Z</time>
      </trkpt>
      <trkpt lat="46.03554" lon="4.70237">
        <ele>190</ele>
        <time>2018-07-12T09:02:26Z</time>
      </trkpt>
      <trkpt lat="46.0356" lon="4.70235">
        <ele>190</ele>
        <time>2018-07-12T09:02:27Z</time>
      </trkpt>
      <trkpt lat="46.03565" lon="4.70234">
        <ele>190</ele>
        <time>2018-07-12T09:02:28Z</time>
      </trkpt>
      <trkpt lat="46.0357" lon="4.70231">
        <ele>190</ele>
        <time>2018-07-12T09:02:29Z</time>
      </trkpt>
      <trkpt lat="46.03575" lon="4.70227">
        <ele>190</ele>
        <time>2018-07-12T09:02:30Z</time>
      </trkpt>
      <trkpt lat="46.0358" lon="4.70226">
        <ele>190</ele>
        <time>2018-07-12T09:02:31Z</time>
      </trkpt>
      <trkpt lat="46.03586" lon="4.70225">
        <ele>190</ele>
        <time>2018-07-12T09:02:32Z</time>
      </trkpt>
      <trkpt lat="46.0359" lon="4.70224">
        <ele>190</ele>
        <time>2018-07-12T09:02:33Z</time>
      </trkpt>
      <trkpt lat="46.03596" lon="4.70223">
        <ele>190</ele>
        <time>2018-07-12T09:02:34Z</time>
      </trkpt>
      <trkpt lat="46.03601" lon="4.70221">
        <ele>190</ele>
        <time>2018-07-12T09:02:35Z</time>
      </trkpt>
      <trkpt lat="46.03606" lon="4.70218">
        <ele>190</ele>
        <time>2018-07-12T09:02:36Z</time>
      </trkpt>
      <trkpt lat="46.0361" lon="4.70214">
        <ele>191</ele>
        <time>2018-07-12T09:02:37Z</time>
      </trkpt>
      <trkpt lat="46.03616" lon="4.70213">
        <ele>190</ele>
        <time>2018-07-12T09:02:38Z</time>
      </trkpt>
      <trkpt lat="46.03622" lon="4.70211">
        <ele>190</ele>
        <time>2018-07-12T09:02:39Z</time>
      </trkpt>
      <trkpt lat="46.03628" lon="4.7021">
        <ele>190</ele>
        <time>2018-07-12T09:02:40Z</time>
      </trkpt>
      <trkpt lat="46.03635" lon="4.70207">
        <ele>190</ele>
        <time>2018-07-12T09:02:41Z</time>
      </trkpt>
      <trkpt lat="46.0364" lon="4.70206">
        <ele>190</ele>
        <time>2018-07-12T09:02:42Z</time>
      </trkpt>
      <trkpt lat="46.03646" lon="4.70205">
        <ele>190</ele>
        <time>2018-07-12T09:02:43Z</time>
      </trkpt>
      <trkpt lat="46.03651" lon="4.702">
        <ele>191</ele>
        <time>2018-07-12T09:02:44Z</time>
      </trkpt>
      <trkpt lat="46.03657" lon="4.70199">
        <ele>191</ele>
        <time>2018-07-12T09:02:45Z</time>
      </trkpt>
      <trkpt lat="46.03663" lon="4.70196">
        <ele>191</ele>
        <time>2018-07-12T09:02:46Z</time>
      </trkpt>
      <trkpt lat="46.0367" lon="4.70193">
        <ele>190</ele>
        <time>2018-07-12T09:02:47Z</time>
      </trkpt>
      <trkpt lat="46.03675" lon="4.70192">
        <ele>190</ele>
        <time>2018-07-12T09:02:48Z</time>
      </trkpt>
      <trkpt lat="46.03681" lon="4.7019">
        <ele>189</ele>
        <time>2018-07-12T09:02:49Z</time>
      </trkpt>
      <trkpt lat="46.03687" lon="4.70189">
        <ele>189</ele>
        <time>2018-07-12T09:02:50Z</time>
      </trkpt>
      <trkpt lat="46.03693" lon="4.70185">
        <ele>189</ele>
        <time>2018-07-12T09:02:51Z</time>
      </trkpt>
      <trkpt lat="46.03699" lon="4.70184">
        <ele>189</ele>
        <time>2018-07-12T09:02:52Z</time>
      </trkpt>
      <trkpt lat="46.03706" lon="4.70183">
        <ele>189</ele>
        <time>2018-07-12T09:02:53Z</time>
      </trkpt>
      <trkpt lat="46.03714" lon="4.70184">
        <ele>188</ele>
        <time>2018-07-12T09:02:54Z</time>
      </trkpt>
      <trkpt lat="46.03719" lon="4.70181">
        <ele>188</ele>
        <time>2018-07-12T09:02:55Z</time>
      </trkpt>
      <trkpt lat="46.03724" lon="4.70182">
        <ele>188</ele>
        <time>2018-07-12T09:02:56Z</time>
      </trkpt>
      <trkpt lat="46.03729" lon="4.70182">
        <ele>188</ele>
        <time>2018-07-12T09:02:57Z</time>
      </trkpt>
      <trkpt lat="46.03736" lon="4.70179">
        <ele>188</ele>
        <time>2018-07-12T09:02:58Z</time>
      </trkpt>
      <trkpt lat="46.03741" lon="4.70179">
        <ele>188</ele>
        <time>2018-07-12T09:02:59Z</time>
      </trkpt>
      <trkpt lat="46.03746" lon="4.70178">
        <ele>187</ele>
        <time>2018-07-12T09:03:00Z</time>
      </trkpt>
      <trkpt lat="46.03751" lon="4.70178">
        <ele>188</ele>
        <time>2018-07-12T09:03:01Z</time>
      </trkpt>
      <trkpt lat="46.03761" lon="4.70172">
        <ele>188</ele>
        <time>2018-07-12T09:03:02Z</time>
      </trkpt>
      <trkpt lat="46.03767" lon="4.70169">
        <ele>188</ele>
        <time>2018-07-12T09:03:03Z</time>
      </trkpt>
      <trkpt lat="46.03772" lon="4.70166">
        <ele>188</ele>
        <time>2018-07-12T09:03:04Z</time>
      </trkpt>
      <trkpt lat="46.03781" lon="4.70159">
        <ele>189</ele>
        <time>2018-07-12T09:03:05Z</time>
      </trkpt>
      <trkpt lat="46.03787" lon="4.70158">
        <ele>189</ele>
        <time>2018-07-12T09:03:07Z</time>
      </trkpt>
      <trkpt lat="46.0379" lon="4.70158">
        <ele>189</ele>
        <time>2018-07-12T09:03:08Z</time>
      </trkpt>
      <trkpt lat="46.03797" lon="4.70155">
        <ele>189</ele>
        <time>2018-07-12T09:03:09Z</time>
      </trkpt>
      <trkpt lat="46.03802" lon="4.70154">
        <ele>190</ele>
        <time>2018-07-12T09:03:10Z</time>
      </trkpt>
      <trkpt lat="46.03808" lon="4.7015">
        <ele>190</ele>
        <time>2018-07-12T09:03:11Z</time>
      </trkpt>
      <trkpt lat="46.03815" lon="4.70148">
        <ele>190</ele>
        <time>2018-07-12T09:03:12Z</time>
      </trkpt>
      <trkpt lat="46.03821" lon="4.70146">
        <ele>190</ele>
        <time>2018-07-12T09:03:13Z</time>
      </trkpt>
      <trkpt lat="46.0383" lon="4.70142">
        <ele>190</ele>
        <time>2018-07-12T09:03:14Z</time>
      </trkpt>
      <trkpt lat="46.03834" lon="4.70138">
        <ele>192</ele>
        <time>2018-07-12T09:03:15Z</time>
      </trkpt>
      <trkpt lat="46.0384" lon="4.70139">
        <ele>192</ele>
        <time>2018-07-12T09:03:16Z</time>
      </trkpt>
      <trkpt lat="46.03845" lon="4.70138">
        <ele>192</ele>
        <time>2018-07-12T09:03:17Z</time>
      </trkpt>
      <trkpt lat="46.03852" lon="4.70132">
        <ele>192</ele>
        <time>2018-07-12T09:03:18Z</time>
      </trkpt>
      <trkpt lat="46.03858" lon="4.70132">
        <ele>193</ele>
        <time>2018-07-12T09:03:19Z</time>
      </trkpt>
      <trkpt lat="46.03864" lon="4.70133">
        <ele>193</ele>
        <time>2018-07-12T09:03:20Z</time>
      </trkpt>
      <trkpt lat="46.03873" lon="4.70131">
        <ele>193</ele>
        <time>2018-07-12T09:03:22.808Z</time>
      </trkpt>
      <trkpt lat="46.03884" lon="4.7012">
        <ele>193</ele>
        <time>2018-07-12T09:03:23Z</time>
      </trkpt>
      <trkpt lat="46.03888" lon="4.7012">
        <ele>193</ele>
        <time>2018-07-12T09:03:24Z</time>
      </trkpt>
      <trkpt lat="46.03894" lon="4.7012">
        <ele>193</ele>
        <time>2018-07-12T09:03:25Z</time>
      </trkpt>
      <trkpt lat="46.03903" lon="4.70119">
        <ele>194</ele>
        <time>2018-07-12T09:03:27Z</time>
      </trkpt>
      <trkpt lat="46.03905" lon="4.70117">
        <ele>194</ele>
        <time>2018-07-12T09:03:28Z</time>
      </trkpt>
      <trkpt lat="46.03914" lon="4.70118">
        <ele>194</ele>
        <time>2018-07-12T09:03:29Z</time>
      </trkpt>
      <trkpt lat="46.0392" lon="4.70114">
        <ele>196</ele>
        <time>2018-07-12T09:03:30Z</time>
      </trkpt>
      <trkpt lat="46.03928" lon="4.70109">
        <ele>196</ele>
        <time>2018-07-12T09:03:31Z</time>
      </trkpt>
      <trkpt lat="46.03934" lon="4.70107">
        <ele>196</ele>
        <time>2018-07-12T09:03:32Z</time>
      </trkpt>
      <trkpt lat="46.03938" lon="4.70104">
        <ele>196</ele>
        <time>2018-07-12T09:03:33Z</time>
      </trkpt>
      <trkpt lat="46.03944" lon="4.70101">
        <ele>196</ele>
        <time>2018-07-12T09:03:35Z</time>
      </trkpt>
      <trkpt lat="46.03951" lon="4.70098">
        <ele>196</ele>
        <time>2018-07-12T09:03:36Z</time>
      </trkpt>
      <trkpt lat="46.03954" lon="4.70093">
        <ele>196</ele>
        <time>2018-07-12T09:03:37Z</time>
      </trkpt>
      <trkpt lat="46.03959" lon="4.70092">
        <ele>196</ele>
        <time>2018-07-12T09:03:38Z</time>
      </trkpt>
      <trkpt lat="46.03965" lon="4.70095">
        <ele>196</ele>
        <time>2018-07-12T09:03:40Z</time>
      </trkpt>
      <trkpt lat="46.0397" lon="4.70093">
        <ele>196</ele>
        <time>2018-07-12T09:03:41Z</time>
      </trkpt>
      <trkpt lat="46.03978" lon="4.70091">
        <ele>196</ele>
        <time>2018-07-12T09:03:43Z</time>
      </trkpt>
      <trkpt lat="46.03983" lon="4.70091">
        <ele>196</ele>
        <time>2018-07-12T09:03:44Z</time>
      </trkpt>
      <trkpt lat="46.03988" lon="4.70093">
        <ele>196</ele>
        <time>2018-07-12T09:03:45Z</time>
      </trkpt>
      <trkpt lat="46.03994" lon="4.70092">
        <ele>196</ele>
        <time>2018-07-12T09:03:46Z</time>
      </trkpt>
      <trkpt lat="46.03998" lon="4.70089">
        <ele>196</ele>
        <time>2018-07-12T09:03:47Z</time>
      </trkpt>
      <trkpt lat="46.04003" lon="4.70088">
        <ele>196</ele>
        <time>2018-07-12T09:03:48Z</time>
      </trkpt>
      <trkpt lat="46.04009" lon="4.70085">
        <ele>196</ele>
        <time>2018-07-12T09:03:49Z</time>
      </trkpt>
      <trkpt lat="46.04013" lon="4.70086">
        <ele>196</ele>
        <time>2018-07-12T09:03:50Z</time>
      </trkpt>
      <trkpt lat="46.04022" lon="4.70086">
        <ele>195</ele>
        <time>2018-07-12T09:03:52Z</time>
      </trkpt>
      <trkpt lat="46.04026" lon="4.70087">
        <ele>195</ele>
        <time>2018-07-12T09:03:53Z</time>
      </trkpt>
      <trkpt lat="46.04031" lon="4.70087">
        <ele>195</ele>
        <time>2018-07-12T09:03:54Z</time>
      </trkpt>
      <trkpt lat="46.04037" lon="4.70089">
        <ele>195</ele>
        <time>2018-07-12T09:03:55Z</time>
      </trkpt>
      <trkpt lat="46.04043" lon="4.70092">
        <ele>195</ele>
        <time>2018-07-12T09:03:56Z</time>
      </trkpt>
      <trkpt lat="46.04049" lon="4.7009">
        <ele>195</ele>
        <time>2018-07-12T09:03:57Z</time>
      </trkpt>
      <trkpt lat="46.04055" lon="4.7009">
        <ele>195</ele>
        <time>2018-07-12T09:03:59Z</time>
      </trkpt>
      <trkpt lat="46.0406" lon="4.7009">
        <ele>195</ele>
        <time>2018-07-12T09:04:00Z</time>
      </trkpt>
      <trkpt lat="46.04065" lon="4.7009">
        <ele>195</ele>
        <time>2018-07-12T09:04:01Z</time>
      </trkpt>
      <trkpt lat="46.04072" lon="4.70088">
        <ele>194</ele>
        <time>2018-07-12T09:04:02Z</time>
      </trkpt>
      <trkpt lat="46.04081" lon="4.70086">
        <ele>194</ele>
        <time>2018-07-12T09:04:04Z</time>
      </trkpt>
      <trkpt lat="46.04089" lon="4.70083">
        <ele>194</ele>
        <time>2018-07-12T09:04:05Z</time>
      </trkpt>
      <trkpt lat="46.04091" lon="4.70083">
        <ele>193</ele>
        <time>2018-07-12T09:04:06Z</time>
      </trkpt>
      <trkpt lat="46.04099" lon="4.7008">
        <ele>193</ele>
        <time>2018-07-12T09:04:07Z</time>
      </trkpt>
      <trkpt lat="46.04105" lon="4.70077">
        <ele>193</ele>
        <time>2018-07-12T09:04:08Z</time>
      </trkpt>
      <trkpt lat="46.04109" lon="4.70073">
        <ele>193</ele>
        <time>2018-07-12T09:04:09Z</time>
      </trkpt>
      <trkpt lat="46.04114" lon="4.70071">
        <ele>192</ele>
        <time>2018-07-12T09:04:10Z</time>
      </trkpt>
      <trkpt lat="46.04121" lon="4.70066">
        <ele>192</ele>
        <time>2018-07-12T09:04:11Z</time>
      </trkpt>
      <trkpt lat="46.04125" lon="4.70063">
        <ele>192</ele>
        <time>2018-07-12T09:04:12Z</time>
      </trkpt>
      <trkpt lat="46.04129" lon="4.7006">
        <ele>192</ele>
        <time>2018-07-12T09:04:13Z</time>
      </trkpt>
      <trkpt lat="46.04134" lon="4.70057">
        <ele>192</ele>
        <time>2018-07-12T09:04:14Z</time>
      </trkpt>
      <trkpt lat="46.04139" lon="4.70053">
        <ele>192</ele>
        <time>2018-07-12T09:04:15Z</time>
      </trkpt>
      <trkpt lat="46.04144" lon="4.70049">
        <ele>191</ele>
        <time>2018-07-12T09:04:16Z</time>
      </trkpt>
      <trkpt lat="46.04154" lon="4.70041">
        <ele>191</ele>
        <time>2018-07-12T09:04:17Z</time>
      </trkpt>
      <trkpt lat="46.04164" lon="4.70037">
        <ele>191</ele>
        <time>2018-07-12T09:04:18Z</time>
      </trkpt>
      <trkpt lat="46.04168" lon="4.70034">
        <ele>189</ele>
        <time>2018-07-12T09:04:19Z</time>
      </trkpt>
      <trkpt lat="46.04178" lon="4.70028">
        <ele>189</ele>
        <time>2018-07-12T09:04:20Z</time>
      </trkpt>
      <trkpt lat="46.04183" lon="4.70024">
        <ele>189</ele>
        <time>2018-07-12T09:04:22Z</time>
      </trkpt>
      <trkpt lat="46.04191" lon="4.70017">
        <ele>188</ele>
        <time>2018-07-12T09:04:23Z</time>
      </trkpt>
      <trkpt lat="46.04195" lon="4.70013">
        <ele>188</ele>
        <time>2018-07-12T09:04:24Z</time>
      </trkpt>
      <trkpt lat="46.04199" lon="4.7001">
        <ele>188</ele>
        <time>2018-07-12T09:04:25Z</time>
      </trkpt>
      <trkpt lat="46.04204" lon="4.70005">
        <ele>188</ele>
        <time>2018-07-12T09:04:26Z</time>
      </trkpt>
      <trkpt lat="46.04209" lon="4.7">
        <ele>188</ele>
        <time>2018-07-12T09:04:27Z</time>
      </trkpt>
      <trkpt lat="46.04213" lon="4.69996">
        <ele>188</ele>
        <time>2018-07-12T09:04:28Z</time>
      </trkpt>
      <trkpt lat="46.04218" lon="4.6999">
        <ele>188</ele>
        <time>2018-07-12T09:04:29Z</time>
      </trkpt>
      <trkpt lat="46.04225" lon="4.69985">
        <ele>188</ele>
        <time>2018-07-12T09:04:31Z</time>
      </trkpt>
      <trkpt lat="46.0423" lon="4.69979">
        <ele>188</ele>
        <time>2018-07-12T09:04:32Z</time>
      </trkpt>
      <trkpt lat="46.04234" lon="4.69974">
        <ele>188</ele>
        <time>2018-07-12T09:04:33Z</time>
      </trkpt>
      <trkpt lat="46.04237" lon="4.69969">
        <ele>188</ele>
        <time>2018-07-12T09:04:34Z</time>
      </trkpt>
      <trkpt lat="46.04241" lon="4.69965">
        <ele>188</ele>
        <time>2018-07-12T09:04:35Z</time>
      </trkpt>
      <trkpt lat="46.04245" lon="4.69961">
        <ele>188</ele>
        <time>2018-07-12T09:04:36Z</time>
      </trkpt>
      <trkpt lat="46.04248" lon="4.69958">
        <ele>188</ele>
        <time>2018-07-12T09:04:37Z</time>
      </trkpt>
      <trkpt lat="46.04253" lon="4.69954">
        <ele>188</ele>
        <time>2018-07-12T09:04:38Z</time>
      </trkpt>
      <trkpt lat="46.04258" lon="4.6995">
        <ele>188</ele>
        <time>2018-07-12T09:04:39Z</time>
      </trkpt>
      <trkpt lat="46.04263" lon="4.69946">
        <ele>188</ele>
        <time>2018-07-12T09:04:40Z</time>
      </trkpt>
      <trkpt lat="46.04267" lon="4.69942">
        <ele>188</ele>
        <time>2018-07-12T09:04:41Z</time>
      </trkpt>
      <trkpt lat="46.04271" lon="4.69938">
        <ele>189</ele>
        <time>2018-07-12T09:04:42Z</time>
      </trkpt>
      <trkpt lat="46.04275" lon="4.69934">
        <ele>189</ele>
        <time>2018-07-12T09:04:43Z</time>
      </trkpt>
      <trkpt lat="46.04279" lon="4.6993">
        <ele>189</ele>
        <time>2018-07-12T09:04:44Z</time>
      </trkpt>
      <trkpt lat="46.04283" lon="4.69926">
        <ele>189</ele>
        <time>2018-07-12T09:04:45Z</time>
      </trkpt>
      <trkpt lat="46.04288" lon="4.69922">
        <ele>189</ele>
        <time>2018-07-12T09:04:46Z</time>
      </trkpt>
      <trkpt lat="46.04291" lon="4.69917">
        <ele>189</ele>
        <time>2018-07-12T09:04:47Z</time>
      </trkpt>
      <trkpt lat="46.04296" lon="4.69912">
        <ele>190</ele>
        <time>2018-07-12T09:04:48Z</time>
      </trkpt>
      <trkpt lat="46.04303" lon="4.69906">
        <ele>190</ele>
        <time>2018-07-12T09:04:50Z</time>
      </trkpt>
      <trkpt lat="46.04306" lon="4.699">
        <ele>190</ele>
        <time>2018-07-12T09:04:51Z</time>
      </trkpt>
      <trkpt lat="46.04311" lon="4.69891">
        <ele>190</ele>
        <time>2018-07-12T09:04:53Z</time>
      </trkpt>
      <trkpt lat="46.04314" lon="4.69886">
        <ele>190</ele>
        <time>2018-07-12T09:04:54Z</time>
      </trkpt>
      <trkpt lat="46.04317" lon="4.69881">
        <ele>190</ele>
        <time>2018-07-12T09:04:55Z</time>
      </trkpt>
      <trkpt lat="46.04321" lon="4.69875">
        <ele>190</ele>
        <time>2018-07-12T09:04:56Z</time>
      </trkpt>
      <trkpt lat="46.04323" lon="4.69865">
        <ele>191</ele>
        <time>2018-07-12T09:04:58Z</time>
      </trkpt>
      <trkpt lat="46.04326" lon="4.69857">
        <ele>191</ele>
        <time>2018-07-12T09:04:59Z</time>
      </trkpt>
      <trkpt lat="46.04332" lon="4.69849">
        <ele>191</ele>
        <time>2018-07-12T09:05:01Z</time>
      </trkpt>
      <trkpt lat="46.04336" lon="4.69844">
        <ele>192</ele>
        <time>2018-07-12T09:05:02Z</time>
      </trkpt>
      <trkpt lat="46.04342" lon="4.69838">
        <ele>192</ele>
        <time>2018-07-12T09:05:04Z</time>
      </trkpt>
      <trkpt lat="46.04345" lon="4.69836">
        <ele>192</ele>
        <time>2018-07-12T09:05:05Z</time>
      </trkpt>
      <trkpt lat="46.04352" lon="4.6983">
        <ele>193</ele>
        <time>2018-07-12T09:05:07Z</time>
      </trkpt>
      <trkpt lat="46.04357" lon="4.69826">
        <ele>193</ele>
        <time>2018-07-12T09:05:08Z</time>
      </trkpt>
      <trkpt lat="46.04364" lon="4.69822">
        <ele>193</ele>
        <time>2018-07-12T09:05:10Z</time>
      </trkpt>
      <trkpt lat="46.04368" lon="4.69819">
        <ele>194</ele>
        <time>2018-07-12T09:05:11Z</time>
      </trkpt>
      <trkpt lat="46.04376" lon="4.69814">
        <ele>194</ele>
        <time>2018-07-12T09:05:13Z</time>
      </trkpt>
      <trkpt lat="46.04379" lon="4.69812">
        <ele>194</ele>
        <time>2018-07-12T09:05:14Z</time>
      </trkpt>
      <trkpt lat="46.04386" lon="4.69808">
        <ele>194</ele>
        <time>2018-07-12T09:05:16Z</time>
      </trkpt>
      <trkpt lat="46.04388" lon="4.69807">
        <ele>194</ele>
        <time>2018-07-12T09:05:17Z</time>
      </trkpt>
      <trkpt lat="46.04396" lon="4.69804">
        <ele>194</ele>
        <time>2018-07-12T09:05:19Z</time>
      </trkpt>
      <trkpt lat="46.04398" lon="4.69803">
        <ele>194</ele>
        <time>2018-07-12T09:05:20Z</time>
      </trkpt>
      <trkpt lat="46.04406" lon="4.69801">
        <ele>194</ele>
        <time>2018-07-12T09:05:23Z</time>
      </trkpt>
      <trkpt lat="46.04409" lon="4.69801">
        <ele>194</ele>
        <time>2018-07-12T09:05:24Z</time>
      </trkpt>
      <trkpt lat="46.04412" lon="4.69801">
        <ele>194</ele>
        <time>2018-07-12T09:05:25Z</time>
      </trkpt>
      <trkpt lat="46.04421" lon="4.698">
        <ele>196</ele>
        <time>2018-07-12T09:05:26Z</time>
      </trkpt>
      <trkpt lat="46.04427" lon="4.698">
        <ele>196</ele>
        <time>2018-07-12T09:05:28Z</time>
      </trkpt>
      <trkpt lat="46.04432" lon="4.698">
        <ele>196</ele>
        <time>2018-07-12T09:05:29Z</time>
      </trkpt>
      <trkpt lat="46.04439" lon="4.69799">
        <ele>196</ele>
        <time>2018-07-12T09:05:31Z</time>
      </trkpt>
      <trkpt lat="46.04443" lon="4.69798">
        <ele>196</ele>
        <time>2018-07-12T09:05:32Z</time>
      </trkpt>
      <trkpt lat="46.0445" lon="4.69796">
        <ele>196</ele>
        <time>2018-07-12T09:05:34Z</time>
      </trkpt>
      <trkpt lat="46.04454" lon="4.69795">
        <ele>196</ele>
        <time>2018-07-12T09:05:35Z</time>
      </trkpt>
      <trkpt lat="46.04462" lon="4.69793">
        <ele>197</ele>
        <time>2018-07-12T09:05:37Z</time>
      </trkpt>
      <trkpt lat="46.04466" lon="4.69793">
        <ele>197</ele>
        <time>2018-07-12T09:05:38Z</time>
      </trkpt>
      <trkpt lat="46.04473" lon="4.69791">
        <ele>197</ele>
        <time>2018-07-12T09:05:40Z</time>
      </trkpt>
      <trkpt lat="46.04477" lon="4.6979">
        <ele>197</ele>
        <time>2018-07-12T09:05:41Z</time>
      </trkpt>
      <trkpt lat="46.04485" lon="4.69789">
        <ele>197</ele>
        <time>2018-07-12T09:05:43Z</time>
      </trkpt>
      <trkpt lat="46.0449" lon="4.69787">
        <ele>197</ele>
        <time>2018-07-12T09:05:44Z</time>
      </trkpt>
      <trkpt lat="46.04495" lon="4.69786">
        <ele>197</ele>
        <time>2018-07-12T09:05:45Z</time>
      </trkpt>
      <trkpt lat="46.04499" lon="4.69785">
        <ele>197</ele>
        <time>2018-07-12T09:05:46Z</time>
      </trkpt>
      <trkpt lat="46.04507" lon="4.69783">
        <ele>199</ele>
        <time>2018-07-12T09:05:48Z</time>
      </trkpt>
      <trkpt lat="46.04511" lon="4.69783">
        <ele>199</ele>
        <time>2018-07-12T09:05:49Z</time>
      </trkpt>
      <trkpt lat="46.04519" lon="4.69785">
        <ele>199</ele>
        <time>2018-07-12T09:05:51Z</time>
      </trkpt>
      <trkpt lat="46.04522" lon="4.69786">
        <ele>199</ele>
        <time>2018-07-12T09:05:52Z</time>
      </trkpt>
      <trkpt lat="46.04529" lon="4.69789">
        <ele>199</ele>
        <time>2018-07-12T09:05:54Z</time>
      </trkpt>
      <trkpt lat="46.04534" lon="4.69789">
        <ele>199</ele>
        <time>2018-07-12T09:05:55Z</time>
      </trkpt>
      <trkpt lat="46.04542" lon="4.6979">
        <ele>199</ele>
        <time>2018-07-12T09:05:57Z</time>
      </trkpt>
      <trkpt lat="46.04546" lon="4.6979">
        <ele>199</ele>
        <time>2018-07-12T09:05:58Z</time>
      </trkpt>
      <trkpt lat="46.04554" lon="4.69791">
        <ele>199</ele>
        <time>2018-07-12T09:06:00Z</time>
      </trkpt>
      <trkpt lat="46.04558" lon="4.69792">
        <ele>199</ele>
        <time>2018-07-12T09:06:01Z</time>
      </trkpt>
      <trkpt lat="46.04567" lon="4.69794">
        <ele>200</ele>
        <time>2018-07-12T09:06:03Z</time>
      </trkpt>
      <trkpt lat="46.04571" lon="4.69794">
        <ele>200</ele>
        <time>2018-07-12T09:06:04Z</time>
      </trkpt>
      <trkpt lat="46.0458" lon="4.69797">
        <ele>200</ele>
        <time>2018-07-12T09:06:06Z</time>
      </trkpt>
      <trkpt lat="46.04584" lon="4.69799">
        <ele>201</ele>
        <time>2018-07-12T09:06:07Z</time>
      </trkpt>
      <trkpt lat="46.04588" lon="4.69801">
        <ele>201</ele>
        <time>2018-07-12T09:06:08Z</time>
      </trkpt>
      <trkpt lat="46.04593" lon="4.69803">
        <ele>201</ele>
        <time>2018-07-12T09:06:09Z</time>
      </trkpt>
      <trkpt lat="46.04597" lon="4.69804">
        <ele>201</ele>
        <time>2018-07-12T09:06:11Z</time>
      </trkpt>
      <trkpt lat="46.04603" lon="4.69806">
        <ele>201</ele>
        <time>2018-07-12T09:06:12Z</time>
      </trkpt>
      <trkpt lat="46.0461" lon="4.69809">
        <ele>201</ele>
        <time>2018-07-12T09:06:14Z</time>
      </trkpt>
      <trkpt lat="46.04613" lon="4.6981">
        <ele>201</ele>
        <time>2018-07-12T09:06:15Z</time>
      </trkpt>
      <trkpt lat="46.04621" lon="4.69814">
        <ele>202</ele>
        <time>2018-07-12T09:06:17Z</time>
      </trkpt>
      <trkpt lat="46.04625" lon="4.69816">
        <ele>202</ele>
        <time>2018-07-12T09:06:18Z</time>
      </trkpt>
      <trkpt lat="46.04633" lon="4.69819">
        <ele>202</ele>
        <time>2018-07-12T09:06:20Z</time>
      </trkpt>
      <trkpt lat="46.04637" lon="4.6982">
        <ele>202</ele>
        <time>2018-07-12T09:06:21Z</time>
      </trkpt>
      <trkpt lat="46.04645" lon="4.69823">
        <ele>202</ele>
        <time>2018-07-12T09:06:23Z</time>
      </trkpt>
      <trkpt lat="46.04649" lon="4.69824">
        <ele>202</ele>
        <time>2018-07-12T09:06:24Z</time>
      </trkpt>
      <trkpt lat="46.04657" lon="4.69826">
        <ele>202</ele>
        <time>2018-07-12T09:06:26Z</time>
      </trkpt>
      <trkpt lat="46.0466" lon="4.69828">
        <ele>203</ele>
        <time>2018-07-12T09:06:27Z</time>
      </trkpt>
      <trkpt lat="46.04668" lon="4.69831">
        <ele>203</ele>
        <time>2018-07-12T09:06:29Z</time>
      </trkpt>
      <trkpt lat="46.04672" lon="4.69832">
        <ele>203</ele>
        <time>2018-07-12T09:06:30Z</time>
      </trkpt>
      <trkpt lat="46.04676" lon="4.69834">
        <ele>203</ele>
        <time>2018-07-12T09:06:31Z</time>
      </trkpt>
      <trkpt lat="46.04681" lon="4.69835">
        <ele>203</ele>
        <time>2018-07-12T09:06:32Z</time>
      </trkpt>
      <trkpt lat="46.04689" lon="4.69837">
        <ele>202</ele>
        <time>2018-07-12T09:06:34Z</time>
      </trkpt>
      <trkpt lat="46.04694" lon="4.69838">
        <ele>202</ele>
        <time>2018-07-12T09:06:35Z</time>
      </trkpt>
      <trkpt lat="46.047" lon="4.69837">
        <ele>202</ele>
        <time>2018-07-12T09:06:36Z</time>
      </trkpt>
      <trkpt lat="46.04703" lon="4.69838">
        <ele>202</ele>
        <time>2018-07-12T09:06:37Z</time>
      </trkpt>
      <trkpt lat="46.04711" lon="4.69838">
        <ele>203</ele>
        <time>2018-07-12T09:06:39Z</time>
      </trkpt>
      <trkpt lat="46.04716" lon="4.69839">
        <ele>203</ele>
        <time>2018-07-12T09:06:40Z</time>
      </trkpt>
      <trkpt lat="46.04724" lon="4.69841">
        <ele>203</ele>
        <time>2018-07-12T09:06:42Z</time>
      </trkpt>
      <trkpt lat="46.04729" lon="4.69841">
        <ele>203</ele>
        <time>2018-07-12T09:06:43Z</time>
      </trkpt>
      <trkpt lat="46.04737" lon="4.69841">
        <ele>204</ele>
        <time>2018-07-12T09:06:45Z</time>
      </trkpt>
      <trkpt lat="46.04742" lon="4.69842">
        <ele>204</ele>
        <time>2018-07-12T09:06:46Z</time>
      </trkpt>
      <trkpt lat="46.04749" lon="4.69841">
        <ele>204</ele>
        <time>2018-07-12T09:06:48Z</time>
      </trkpt>
      <trkpt lat="46.04753" lon="4.69844">
        <ele>205</ele>
        <time>2018-07-12T09:06:49Z</time>
      </trkpt>
      <trkpt lat="46.04758" lon="4.69844">
        <ele>205</ele>
        <time>2018-07-12T09:06:51Z</time>
      </trkpt>
      <trkpt lat="46.04763" lon="4.69844">
        <ele>205</ele>
        <time>2018-07-12T09:06:52Z</time>
      </trkpt>
      <trkpt lat="46.04772" lon="4.69845">
        <ele>204</ele>
        <time>2018-07-12T09:06:54Z</time>
      </trkpt>
      <trkpt lat="46.04776" lon="4.69846">
        <ele>204</ele>
        <time>2018-07-12T09:06:55Z</time>
      </trkpt>
      <trkpt lat="46.04784" lon="4.69845">
        <ele>205</ele>
        <time>2018-07-12T09:06:57Z</time>
      </trkpt>
      <trkpt lat="46.04788" lon="4.69844">
        <ele>205</ele>
        <time>2018-07-12T09:06:58Z</time>
      </trkpt>
      <trkpt lat="46.04793" lon="4.69839">
        <ele>205</ele>
        <time>2018-07-12T09:07:00Z</time>
      </trkpt>
      <trkpt lat="46.04797" lon="4.69832">
        <ele>206</ele>
        <time>2018-07-12T09:07:01Z</time>
      </trkpt>
      <trkpt lat="46.04799" lon="4.6982">
        <ele>206</ele>
        <time>2018-07-12T09:07:03Z</time>
      </trkpt>
      <trkpt lat="46.048" lon="4.69814">
        <ele>206</ele>
        <time>2018-07-12T09:07:04Z</time>
      </trkpt>
      <trkpt lat="46.04806" lon="4.69807">
        <ele>206</ele>
        <time>2018-07-12T09:07:08Z</time>
      </trkpt>
      <trkpt lat="46.04814" lon="4.69808">
        <ele>207</ele>
        <time>2018-07-12T09:07:09Z</time>
      </trkpt>
      <trkpt lat="46.0482" lon="4.69815">
        <ele>207</ele>
        <time>2018-07-12T09:07:11Z</time>
      </trkpt>
      <trkpt lat="46.04824" lon="4.69818">
        <ele>207</ele>
        <time>2018-07-12T09:07:12Z</time>
      </trkpt>
      <trkpt lat="46.04831" lon="4.69817">
        <ele>207</ele>
        <time>2018-07-12T09:07:13Z</time>
      </trkpt>
      <trkpt lat="46.04835" lon="4.69819">
        <ele>207</ele>
        <time>2018-07-12T09:07:14Z</time>
      </trkpt>
      <trkpt lat="46.04841" lon="4.69821">
        <ele>207</ele>
        <time>2018-07-12T09:07:16Z</time>
      </trkpt>
      <trkpt lat="46.04845" lon="4.69823">
        <ele>207</ele>
        <time>2018-07-12T09:07:17Z</time>
      </trkpt>
      <trkpt lat="46.04852" lon="4.69828">
        <ele>207</ele>
        <time>2018-07-12T09:07:19Z</time>
      </trkpt>
      <trkpt lat="46.04857" lon="4.69832">
        <ele>207</ele>
        <time>2018-07-12T09:07:20Z</time>
      </trkpt>
      <trkpt lat="46.04862" lon="4.69833">
        <ele>207</ele>
        <time>2018-07-12T09:07:21Z</time>
      </trkpt>
      <trkpt lat="46.04867" lon="4.69837">
        <ele>206</ele>
        <time>2018-07-12T09:07:22Z</time>
      </trkpt>
      <trkpt lat="46.04872" lon="4.69842">
        <ele>206</ele>
        <time>2018-07-12T09:07:24Z</time>
      </trkpt>
      <trkpt lat="46.04875" lon="4.69845">
        <ele>206</ele>
        <time>2018-07-12T09:07:25Z</time>
      </trkpt>
      <trkpt lat="46.04879" lon="4.69848">
        <ele>206</ele>
        <time>2018-07-12T09:07:26Z</time>
      </trkpt>
      <trkpt lat="46.04883" lon="4.6985">
        <ele>206</ele>
        <time>2018-07-12T09:07:27Z</time>
      </trkpt>
      <trkpt lat="46.0489" lon="4.69854">
        <ele>206</ele>
        <time>2018-07-12T09:07:29Z</time>
      </trkpt>
      <trkpt lat="46.04895" lon="4.69855">
        <ele>206</ele>
        <time>2018-07-12T09:07:30Z</time>
      </trkpt>
      <trkpt lat="46.04898" lon="4.69858">
        <ele>206</ele>
        <time>2018-07-12T09:07:31Z</time>
      </trkpt>
      <trkpt lat="46.04903" lon="4.69863">
        <ele>206</ele>
        <time>2018-07-12T09:07:32Z</time>
      </trkpt>
      <trkpt lat="46.0491" lon="4.69868">
        <ele>206</ele>
        <time>2018-07-12T09:07:34Z</time>
      </trkpt>
      <trkpt lat="46.04914" lon="4.69871">
        <ele>206</ele>
        <time>2018-07-12T09:07:35Z</time>
      </trkpt>
      <trkpt lat="46.04918" lon="4.6988">
        <ele>207</ele>
        <time>2018-07-12T09:07:37Z</time>
      </trkpt>
      <trkpt lat="46.04926" lon="4.6988">
        <ele>207</ele>
        <time>2018-07-12T09:07:38Z</time>
      </trkpt>
      <trkpt lat="46.04932" lon="4.69885">
        <ele>207</ele>
        <time>2018-07-12T09:07:40Z</time>
      </trkpt>
      <trkpt lat="46.04937" lon="4.69888">
        <ele>207</ele>
        <time>2018-07-12T09:07:41Z</time>
      </trkpt>
      <trkpt lat="46.04943" lon="4.69895">
        <ele>207</ele>
        <time>2018-07-12T09:07:43Z</time>
      </trkpt>
      <trkpt lat="46.04946" lon="4.69899">
        <ele>207</ele>
        <time>2018-07-12T09:07:44Z</time>
      </trkpt>
      <trkpt lat="46.04953" lon="4.69907">
        <ele>207</ele>
        <time>2018-07-12T09:07:46Z</time>
      </trkpt>
      <trkpt lat="46.04956" lon="4.69911">
        <ele>207</ele>
        <time>2018-07-12T09:07:47Z</time>
      </trkpt>
      <trkpt lat="46.04961" lon="4.69915">
        <ele>206</ele>
        <time>2018-07-12T09:07:48Z</time>
      </trkpt>
      <trkpt lat="46.04965" lon="4.6992">
        <ele>206</ele>
        <time>2018-07-12T09:07:49Z</time>
      </trkpt>
      <trkpt lat="46.04967" lon="4.69926">
        <ele>206</ele>
        <time>2018-07-12T09:07:50Z</time>
      </trkpt>
      <trkpt lat="46.0497" lon="4.69931">
        <ele>206</ele>
        <time>2018-07-12T09:07:51Z</time>
      </trkpt>
      <trkpt lat="46.04974" lon="4.69936">
        <ele>206</ele>
        <time>2018-07-12T09:07:52Z</time>
      </trkpt>
      <trkpt lat="46.04977" lon="4.69941">
        <ele>206</ele>
        <time>2018-07-12T09:07:53Z</time>
      </trkpt>
      <trkpt lat="46.04978" lon="4.69947">
        <ele>206</ele>
        <time>2018-07-12T09:07:54Z</time>
      </trkpt>
      <trkpt lat="46.04982" lon="4.69951">
        <ele>206</ele>
        <time>2018-07-12T09:07:55Z</time>
      </trkpt>
      <trkpt lat="46.04986" lon="4.69957">
        <ele>206</ele>
        <time>2018-07-12T09:07:56Z</time>
      </trkpt>
      <trkpt lat="46.04989" lon="4.69962">
        <ele>205</ele>
        <time>2018-07-12T09:07:57Z</time>
      </trkpt>
      <trkpt lat="46.04992" lon="4.69967">
        <ele>205</ele>
        <time>2018-07-12T09:07:58Z</time>
      </trkpt>
      <trkpt lat="46.04996" lon="4.69972">
        <ele>205</ele>
        <time>2018-07-12T09:07:59Z</time>
      </trkpt>
      <trkpt lat="46.05001" lon="4.69982">
        <ele>205</ele>
        <time>2018-07-12T09:08:01Z</time>
      </trkpt>
      <trkpt lat="46.05006" lon="4.69988">
        <ele>205</ele>
        <time>2018-07-12T09:08:02Z</time>
      </trkpt>
      <trkpt lat="46.0501" lon="4.69997">
        <ele>205</ele>
        <time>2018-07-12T09:08:04Z</time>
      </trkpt>
      <trkpt lat="46.05014" lon="4.70001">
        <ele>204</ele>
        <time>2018-07-12T09:08:05Z</time>
      </trkpt>
      <trkpt lat="46.05019" lon="4.70011">
        <ele>204</ele>
        <time>2018-07-12T09:08:07Z</time>
      </trkpt>
      <trkpt lat="46.05024" lon="4.70015">
        <ele>204</ele>
        <time>2018-07-12T09:08:08Z</time>
      </trkpt>
      <trkpt lat="46.0503" lon="4.7002">
        <ele>204</ele>
        <time>2018-07-12T09:08:10Z</time>
      </trkpt>
      <trkpt lat="46.05035" lon="4.70021">
        <ele>204</ele>
        <time>2018-07-12T09:08:11Z</time>
      </trkpt>
      <trkpt lat="46.05039" lon="4.70024">
        <ele>204</ele>
        <time>2018-07-12T09:08:12Z</time>
      </trkpt>
      <trkpt lat="46.05043" lon="4.70028">
        <ele>204</ele>
        <time>2018-07-12T09:08:13Z</time>
      </trkpt>
      <trkpt lat="46.0505" lon="4.70032">
        <ele>204</ele>
        <time>2018-07-12T09:08:15Z</time>
      </trkpt>
      <trkpt lat="46.05056" lon="4.70034">
        <ele>204</ele>
        <time>2018-07-12T09:08:16Z</time>
      </trkpt>
      <trkpt lat="46.05062" lon="4.70035">
        <ele>204</ele>
        <time>2018-07-12T09:08:17Z</time>
      </trkpt>
      <trkpt lat="46.05067" lon="4.70035">
        <ele>204</ele>
        <time>2018-07-12T09:08:18Z</time>
      </trkpt>
      <trkpt lat="46.05072" lon="4.70034">
        <ele>204</ele>
        <time>2018-07-12T09:08:19Z</time>
      </trkpt>
      <trkpt lat="46.05076" lon="4.7003">
        <ele>204</ele>
        <time>2018-07-12T09:08:20Z</time>
      </trkpt>
      <trkpt lat="46.05081" lon="4.70026">
        <ele>204</ele>
        <time>2018-07-12T09:08:21Z</time>
      </trkpt>
      <trkpt lat="46.05085" lon="4.7002">
        <ele>203</ele>
        <time>2018-07-12T09:08:22Z</time>
      </trkpt>
      <trkpt lat="46.05088" lon="4.70013">
        <ele>204</ele>
        <time>2018-07-12T09:08:23Z</time>
      </trkpt>
      <trkpt lat="46.05091" lon="4.70006">
        <ele>204</ele>
        <time>2018-07-12T09:08:24Z</time>
      </trkpt>
      <trkpt lat="46.05093" lon="4.69999">
        <ele>204</ele>
        <time>2018-07-12T09:08:25Z</time>
      </trkpt>
      <trkpt lat="46.05095" lon="4.69991">
        <ele>204</ele>
        <time>2018-07-12T09:08:26Z</time>
      </trkpt>
      <trkpt lat="46.05096" lon="4.69983">
        <ele>204</ele>
        <time>2018-07-12T09:08:27Z</time>
      </trkpt>
      <trkpt lat="46.05099" lon="4.69973">
        <ele>203</ele>
        <time>2018-07-12T09:08:28Z</time>
      </trkpt>
      <trkpt lat="46.051" lon="4.69965">
        <ele>203</ele>
        <time>2018-07-12T09:08:29Z</time>
      </trkpt>
      <trkpt lat="46.05103" lon="4.6996">
        <ele>203</ele>
        <time>2018-07-12T09:08:30Z</time>
      </trkpt>
      <trkpt lat="46.05105" lon="4.69952">
        <ele>203</ele>
        <time>2018-07-12T09:08:31Z</time>
      </trkpt>
      <trkpt lat="46.05106" lon="4.69945">
        <ele>203</ele>
        <time>2018-07-12T09:08:32Z</time>
      </trkpt>
      <trkpt lat="46.05108" lon="4.69939">
        <ele>203</ele>
        <time>2018-07-12T09:08:33Z</time>
      </trkpt>
      <trkpt lat="46.0511" lon="4.69932">
        <ele>203</ele>
        <time>2018-07-12T09:08:34Z</time>
      </trkpt>
      <trkpt lat="46.05111" lon="4.69925">
        <ele>203</ele>
        <time>2018-07-12T09:08:35Z</time>
      </trkpt>
      <trkpt lat="46.05113" lon="4.69917">
        <ele>203</ele>
        <time>2018-07-12T09:08:36Z</time>
      </trkpt>
      <trkpt lat="46.05113" lon="4.6991">
        <ele>204</ele>
        <time>2018-07-12T09:08:37Z</time>
      </trkpt>
      <trkpt lat="46.05115" lon="4.69902">
        <ele>204</ele>
        <time>2018-07-12T09:08:38Z</time>
      </trkpt>
      <trkpt lat="46.05116" lon="4.69894">
        <ele>204</ele>
        <time>2018-07-12T09:08:39Z</time>
      </trkpt>
      <trkpt lat="46.05117" lon="4.69884">
        <ele>204</ele>
        <time>2018-07-12T09:08:40Z</time>
      </trkpt>
      <trkpt lat="46.05119" lon="4.69878">
        <ele>204</ele>
        <time>2018-07-12T09:08:41Z</time>
      </trkpt>
      <trkpt lat="46.05121" lon="4.6987">
        <ele>204</ele>
        <time>2018-07-12T09:08:42Z</time>
      </trkpt>
      <trkpt lat="46.05121" lon="4.69862">
        <ele>204</ele>
        <time>2018-07-12T09:08:43Z</time>
      </trkpt>
      <trkpt lat="46.05122" lon="4.69856">
        <ele>204</ele>
        <time>2018-07-12T09:08:44Z</time>
      </trkpt>
      <trkpt lat="46.05124" lon="4.69843">
        <ele>204</ele>
        <time>2018-07-12T09:08:46Z</time>
      </trkpt>
      <trkpt lat="46.05125" lon="4.69837">
        <ele>204</ele>
        <time>2018-07-12T09:08:47Z</time>
      </trkpt>
      <trkpt lat="46.05128" lon="4.69831">
        <ele>204</ele>
        <time>2018-07-12T09:08:48Z</time>
      </trkpt>
      <trkpt lat="46.05131" lon="4.69826">
        <ele>204</ele>
        <time>2018-07-12T09:08:49Z</time>
      </trkpt>
      <trkpt lat="46.05139" lon="4.6982">
        <ele>204</ele>
        <time>2018-07-12T09:08:51Z</time>
      </trkpt>
      <trkpt lat="46.05144" lon="4.6982">
        <ele>204</ele>
        <time>2018-07-12T09:08:52Z</time>
      </trkpt>
      <trkpt lat="46.05149" lon="4.69821">
        <ele>204</ele>
        <time>2018-07-12T09:08:53Z</time>
      </trkpt>
      <trkpt lat="46.05153" lon="4.69824">
        <ele>204</ele>
        <time>2018-07-12T09:08:54Z</time>
      </trkpt>
      <trkpt lat="46.05158" lon="4.69826">
        <ele>203</ele>
        <time>2018-07-12T09:08:55Z</time>
      </trkpt>
      <trkpt lat="46.05162" lon="4.69828">
        <ele>203</ele>
        <time>2018-07-12T09:08:56Z</time>
      </trkpt>
      <trkpt lat="46.05171" lon="4.69829">
        <ele>203</ele>
        <time>2018-07-12T09:08:58Z</time>
      </trkpt>
      <trkpt lat="46.05176" lon="4.69831">
        <ele>203</ele>
        <time>2018-07-12T09:08:59Z</time>
      </trkpt>
      <trkpt lat="46.0518" lon="4.69834">
        <ele>202</ele>
        <time>2018-07-12T09:09:00Z</time>
      </trkpt>
      <trkpt lat="46.05185" lon="4.69836">
        <ele>202</ele>
        <time>2018-07-12T09:09:01Z</time>
      </trkpt>
      <trkpt lat="46.05189" lon="4.69838">
        <ele>202</ele>
        <time>2018-07-12T09:09:02Z</time>
      </trkpt>
      <trkpt lat="46.05195" lon="4.6984">
        <ele>202</ele>
        <time>2018-07-12T09:09:03Z</time>
      </trkpt>
      <trkpt lat="46.05201" lon="4.69842">
        <ele>201</ele>
        <time>2018-07-12T09:09:04Z</time>
      </trkpt>
      <trkpt lat="46.05206" lon="4.69844">
        <ele>201</ele>
        <time>2018-07-12T09:09:05Z</time>
      </trkpt>
      <trkpt lat="46.05212" lon="4.69847">
        <ele>201</ele>
        <time>2018-07-12T09:09:06Z</time>
      </trkpt>
      <trkpt lat="46.05217" lon="4.6985">
        <ele>201</ele>
        <time>2018-07-12T09:09:07Z</time>
      </trkpt>
      <trkpt lat="46.05223" lon="4.69852">
        <ele>201</ele>
        <time>2018-07-12T09:09:08Z</time>
      </trkpt>
      <trkpt lat="46.05229" lon="4.69855">
        <ele>201</ele>
        <time>2018-07-12T09:09:09Z</time>
      </trkpt>
      <trkpt lat="46.05235" lon="4.69857">
        <ele>201</ele>
        <time>2018-07-12T09:09:10Z</time>
      </trkpt>
      <trkpt lat="46.05242" lon="4.69857">
        <ele>201</ele>
        <time>2018-07-12T09:09:11Z</time>
      </trkpt>
      <trkpt lat="46.05247" lon="4.69857">
        <ele>200</ele>
        <time>2018-07-12T09:09:12Z</time>
      </trkpt>
      <trkpt lat="46.05253" lon="4.69859">
        <ele>199</ele>
        <time>2018-07-12T09:09:13Z</time>
      </trkpt>
      <trkpt lat="46.05259" lon="4.69861">
        <ele>199</ele>
        <time>2018-07-12T09:09:14Z</time>
      </trkpt>
      <trkpt lat="46.05264" lon="4.69863">
        <ele>199</ele>
        <time>2018-07-12T09:09:15Z</time>
      </trkpt>
      <trkpt lat="46.05269" lon="4.69863">
        <ele>199</ele>
        <time>2018-07-12T09:09:16Z</time>
      </trkpt>
      <trkpt lat="46.05275" lon="4.69865">
        <ele>199</ele>
        <time>2018-07-12T09:09:17Z</time>
      </trkpt>
      <trkpt lat="46.05281" lon="4.69868">
        <ele>199</ele>
        <time>2018-07-12T09:09:18Z</time>
      </trkpt>
      <trkpt lat="46.05285" lon="4.6987">
        <ele>199</ele>
        <time>2018-07-12T09:09:19Z</time>
      </trkpt>
      <trkpt lat="46.05291" lon="4.69872">
        <ele>199</ele>
        <time>2018-07-12T09:09:20Z</time>
      </trkpt>
      <trkpt lat="46.05297" lon="4.69873">
        <ele>199</ele>
        <time>2018-07-12T09:09:21Z</time>
      </trkpt>
      <trkpt lat="46.05302" lon="4.69875">
        <ele>199</ele>
        <time>2018-07-12T09:09:22Z</time>
      </trkpt>
      <trkpt lat="46.05308" lon="4.69876">
        <ele>199</ele>
        <time>2018-07-12T09:09:23Z</time>
      </trkpt>
      <trkpt lat="46.05313" lon="4.69878">
        <ele>199</ele>
        <time>2018-07-12T09:09:24Z</time>
      </trkpt>
      <trkpt lat="46.05319" lon="4.6988">
        <ele>199</ele>
        <time>2018-07-12T09:09:25Z</time>
      </trkpt>
      <trkpt lat="46.05326" lon="4.6988">
        <ele>199</ele>
        <time>2018-07-12T09:09:26Z</time>
      </trkpt>
      <trkpt lat="46.05332" lon="4.69882">
        <ele>199</ele>
        <time>2018-07-12T09:09:27Z</time>
      </trkpt>
      <trkpt lat="46.05339" lon="4.69883">
        <ele>199</ele>
        <time>2018-07-12T09:09:28Z</time>
      </trkpt>
      <trkpt lat="46.05345" lon="4.69884">
        <ele>199</ele>
        <time>2018-07-12T09:09:29Z</time>
      </trkpt>
      <trkpt lat="46.05351" lon="4.69886">
        <ele>199</ele>
        <time>2018-07-12T09:09:30Z</time>
      </trkpt>
      <trkpt lat="46.05357" lon="4.69889">
        <ele>199</ele>
        <time>2018-07-12T09:09:31Z</time>
      </trkpt>
      <trkpt lat="46.05363" lon="4.69892">
        <ele>199</ele>
        <time>2018-07-12T09:09:32Z</time>
      </trkpt>
      <trkpt lat="46.05366" lon="4.69891">
        <ele>199</ele>
        <time>2018-07-12T09:09:33Z</time>
      </trkpt>
      <trkpt lat="46.05372" lon="4.69895">
        <ele>199</ele>
        <time>2018-07-12T09:09:34Z</time>
      </trkpt>
      <trkpt lat="46.05378" lon="4.69897">
        <ele>199</ele>
        <time>2018-07-12T09:09:35Z</time>
      </trkpt>
      <trkpt lat="46.05384" lon="4.69902">
        <ele>199</ele>
        <time>2018-07-12T09:09:37Z</time>
      </trkpt>
      <trkpt lat="46.05389" lon="4.69903">
        <ele>199</ele>
        <time>2018-07-12T09:09:38Z</time>
      </trkpt>
      <trkpt lat="46.05394" lon="4.69904">
        <ele>199</ele>
        <time>2018-07-12T09:09:39Z</time>
      </trkpt>
      <trkpt lat="46.054" lon="4.69904">
        <ele>199</ele>
        <time>2018-07-12T09:09:40Z</time>
      </trkpt>
      <trkpt lat="46.05408" lon="4.69903">
        <ele>199</ele>
        <time>2018-07-12T09:09:41Z</time>
      </trkpt>
      <trkpt lat="46.05416" lon="4.69903">
        <ele>199</ele>
        <time>2018-07-12T09:09:42Z</time>
      </trkpt>
      <trkpt lat="46.05422" lon="4.69904">
        <ele>199</ele>
        <time>2018-07-12T09:09:43Z</time>
      </trkpt>
      <trkpt lat="46.05428" lon="4.69899">
        <ele>199</ele>
        <time>2018-07-12T09:09:44Z</time>
      </trkpt>
      <trkpt lat="46.05434" lon="4.69896">
        <ele>199</ele>
        <time>2018-07-12T09:09:45Z</time>
      </trkpt>
      <trkpt lat="46.05439" lon="4.69893">
        <ele>199</ele>
        <time>2018-07-12T09:09:46Z</time>
      </trkpt>
      <trkpt lat="46.05444" lon="4.69892">
        <ele>199</ele>
        <time>2018-07-12T09:09:47Z</time>
      </trkpt>
      <trkpt lat="46.0545" lon="4.6989">
        <ele>199</ele>
        <time>2018-07-12T09:09:48Z</time>
      </trkpt>
      <trkpt lat="46.05455" lon="4.69889">
        <ele>199</ele>
        <time>2018-07-12T09:09:49Z</time>
      </trkpt>
      <trkpt lat="46.0546" lon="4.69888">
        <ele>199</ele>
        <time>2018-07-12T09:09:50Z</time>
      </trkpt>
      <trkpt lat="46.05466" lon="4.69883">
        <ele>199</ele>
        <time>2018-07-12T09:09:51Z</time>
      </trkpt>
      <trkpt lat="46.05471" lon="4.69882">
        <ele>199</ele>
        <time>2018-07-12T09:09:52Z</time>
      </trkpt>
      <trkpt lat="46.05476" lon="4.69881">
        <ele>199</ele>
        <time>2018-07-12T09:09:53Z</time>
      </trkpt>
      <trkpt lat="46.05481" lon="4.69879">
        <ele>199</ele>
        <time>2018-07-12T09:09:54Z</time>
      </trkpt>
      <trkpt lat="46.05491" lon="4.69873">
        <ele>199</ele>
        <time>2018-07-12T09:09:55Z</time>
      </trkpt>
      <trkpt lat="46.05497" lon="4.6987">
        <ele>199</ele>
        <time>2018-07-12T09:09:56Z</time>
      </trkpt>
      <trkpt lat="46.05502" lon="4.69869">
        <ele>199</ele>
        <time>2018-07-12T09:09:57Z</time>
      </trkpt>
      <trkpt lat="46.05508" lon="4.69869">
        <ele>199</ele>
        <time>2018-07-12T09:09:58Z</time>
      </trkpt>
      <trkpt lat="46.05513" lon="4.69867">
        <ele>199</ele>
        <time>2018-07-12T09:09:59Z</time>
      </trkpt>
      <trkpt lat="46.05517" lon="4.69865">
        <ele>199</ele>
        <time>2018-07-12T09:10:00Z</time>
      </trkpt>
      <trkpt lat="46.05523" lon="4.69864">
        <ele>200</ele>
        <time>2018-07-12T09:10:01Z</time>
      </trkpt>
      <trkpt lat="46.0553" lon="4.69861">
        <ele>200</ele>
        <time>2018-07-12T09:10:03Z</time>
      </trkpt>
      <trkpt lat="46.05535" lon="4.69859">
        <ele>200</ele>
        <time>2018-07-12T09:10:04Z</time>
      </trkpt>
      <trkpt lat="46.0554" lon="4.69859">
        <ele>200</ele>
        <time>2018-07-12T09:10:05Z</time>
      </trkpt>
      <trkpt lat="46.05544" lon="4.69857">
        <ele>200</ele>
        <time>2018-07-12T09:10:06Z</time>
      </trkpt>
      <trkpt lat="46.05553" lon="4.69853">
        <ele>200</ele>
        <time>2018-07-12T09:10:08Z</time>
      </trkpt>
      <trkpt lat="46.05557" lon="4.69852">
        <ele>200</ele>
        <time>2018-07-12T09:10:09Z</time>
      </trkpt>
      <trkpt lat="46.05564" lon="4.6985">
        <ele>200</ele>
        <time>2018-07-12T09:10:11Z</time>
      </trkpt>
      <trkpt lat="46.05569" lon="4.69852">
        <ele>200</ele>
        <time>2018-07-12T09:10:12Z</time>
      </trkpt>
      <trkpt lat="46.05573" lon="4.6986">
        <ele>200</ele>
        <time>2018-07-12T09:10:14Z</time>
      </trkpt>
      <trkpt lat="46.05575" lon="4.69866">
        <ele>200</ele>
        <time>2018-07-12T09:10:15Z</time>
      </trkpt>
      <trkpt lat="46.05578" lon="4.69871">
        <ele>200</ele>
        <time>2018-07-12T09:10:16Z</time>
      </trkpt>
      <trkpt lat="46.05581" lon="4.69878">
        <ele>200</ele>
        <time>2018-07-12T09:10:17Z</time>
      </trkpt>
      <trkpt lat="46.05584" lon="4.69884">
        <ele>201</ele>
        <time>2018-07-12T09:10:18Z</time>
      </trkpt>
      <trkpt lat="46.05586" lon="4.6989">
        <ele>201</ele>
        <time>2018-07-12T09:10:19Z</time>
      </trkpt>
      <trkpt lat="46.05593" lon="4.69895">
        <ele>201</ele>
        <time>2018-07-12T09:10:20Z</time>
      </trkpt>
      <trkpt lat="46.05597" lon="4.69901">
        <ele>201</ele>
        <time>2018-07-12T09:10:21Z</time>
      </trkpt>
      <trkpt lat="46.056" lon="4.69912">
        <ele>201</ele>
        <time>2018-07-12T09:10:22Z</time>
      </trkpt>
      <trkpt lat="46.05603" lon="4.69918">
        <ele>201</ele>
        <time>2018-07-12T09:10:23Z</time>
      </trkpt>
      <trkpt lat="46.0561" lon="4.69923">
        <ele>201</ele>
        <time>2018-07-12T09:10:24Z</time>
      </trkpt>
      <trkpt lat="46.05612" lon="4.6993">
        <ele>201</ele>
        <time>2018-07-12T09:10:25Z</time>
      </trkpt>
      <trkpt lat="46.05615" lon="4.69938">
        <ele>201</ele>
        <time>2018-07-12T09:10:26Z</time>
      </trkpt>
      <trkpt lat="46.05618" lon="4.69943">
        <ele>201</ele>
        <time>2018-07-12T09:10:27Z</time>
      </trkpt>
      <trkpt lat="46.05621" lon="4.69949">
        <ele>200</ele>
        <time>2018-07-12T09:10:28Z</time>
      </trkpt>
      <trkpt lat="46.05625" lon="4.69956">
        <ele>200</ele>
        <time>2018-07-12T09:10:29Z</time>
      </trkpt>
      <trkpt lat="46.05628" lon="4.69962">
        <ele>200</ele>
        <time>2018-07-12T09:10:30Z</time>
      </trkpt>
      <trkpt lat="46.05631" lon="4.69969">
        <ele>200</ele>
        <time>2018-07-12T09:10:31Z</time>
      </trkpt>
      <trkpt lat="46.05634" lon="4.69975">
        <ele>200</ele>
        <time>2018-07-12T09:10:32Z</time>
      </trkpt>
      <trkpt lat="46.05637" lon="4.69981">
        <ele>200</ele>
        <time>2018-07-12T09:10:33Z</time>
      </trkpt>
      <trkpt lat="46.0564" lon="4.6999">
        <ele>200</ele>
        <time>2018-07-12T09:10:35Z</time>
      </trkpt>
      <trkpt lat="46.05642" lon="4.69994">
        <ele>200</ele>
        <time>2018-07-12T09:10:36Z</time>
      </trkpt>
      <trkpt lat="46.0565" lon="4.70001">
        <ele>200</ele>
        <time>2018-07-12T09:10:37Z</time>
      </trkpt>
      <trkpt lat="46.05654" lon="4.70007">
        <ele>200</ele>
        <time>2018-07-12T09:10:38Z</time>
      </trkpt>
      <trkpt lat="46.05657" lon="4.70014">
        <ele>200</ele>
        <time>2018-07-12T09:10:39Z</time>
      </trkpt>
      <trkpt lat="46.05663" lon="4.70021">
        <ele>200</ele>
        <time>2018-07-12T09:10:40Z</time>
      </trkpt>
      <trkpt lat="46.05667" lon="4.70027">
        <ele>199</ele>
        <time>2018-07-12T09:10:41Z</time>
      </trkpt>
      <trkpt lat="46.05672" lon="4.70032">
        <ele>199</ele>
        <time>2018-07-12T09:10:42Z</time>
      </trkpt>
      <trkpt lat="46.05676" lon="4.70038">
        <ele>199</ele>
        <time>2018-07-12T09:10:43Z</time>
      </trkpt>
      <trkpt lat="46.05679" lon="4.70044">
        <ele>199</ele>
        <time>2018-07-12T09:10:44Z</time>
      </trkpt>
      <trkpt lat="46.05683" lon="4.7005">
        <ele>199</ele>
        <time>2018-07-12T09:10:45Z</time>
      </trkpt>
      <trkpt lat="46.05686" lon="4.70056">
        <ele>199</ele>
        <time>2018-07-12T09:10:46Z</time>
      </trkpt>
      <trkpt lat="46.05686" lon="4.70063">
        <ele>199</ele>
        <time>2018-07-12T09:10:47Z</time>
      </trkpt>
      <trkpt lat="46.0569" lon="4.70069">
        <ele>199</ele>
        <time>2018-07-12T09:10:48Z</time>
      </trkpt>
      <trkpt lat="46.05694" lon="4.70075">
        <ele>199</ele>
        <time>2018-07-12T09:10:49Z</time>
      </trkpt>
      <trkpt lat="46.05696" lon="4.70081">
        <ele>199</ele>
        <time>2018-07-12T09:10:50Z</time>
      </trkpt>
      <trkpt lat="46.05699" lon="4.7009">
        <ele>198</ele>
        <time>2018-07-12T09:10:51Z</time>
      </trkpt>
      <trkpt lat="46.05703" lon="4.70097">
        <ele>198</ele>
        <time>2018-07-12T09:10:52Z</time>
      </trkpt>
      <trkpt lat="46.05706" lon="4.70104">
        <ele>198</ele>
        <time>2018-07-12T09:10:53Z</time>
      </trkpt>
      <trkpt lat="46.0571" lon="4.7011">
        <ele>198</ele>
        <time>2018-07-12T09:10:54Z</time>
      </trkpt>
      <trkpt lat="46.0571" lon="4.70119">
        <ele>198</ele>
        <time>2018-07-12T09:10:55Z</time>
      </trkpt>
      <trkpt lat="46.05714" lon="4.70126">
        <ele>198</ele>
        <time>2018-07-12T09:10:56Z</time>
      </trkpt>
      <trkpt lat="46.05719" lon="4.70131">
        <ele>198</ele>
        <time>2018-07-12T09:10:57Z</time>
      </trkpt>
      <trkpt lat="46.05723" lon="4.70138">
        <ele>198</ele>
        <time>2018-07-12T09:10:58Z</time>
      </trkpt>
      <trkpt lat="46.05728" lon="4.70146">
        <ele>198</ele>
        <time>2018-07-12T09:10:59Z</time>
      </trkpt>
      <trkpt lat="46.05731" lon="4.70151">
        <ele>198</ele>
        <time>2018-07-12T09:11:00Z</time>
      </trkpt>
      <trkpt lat="46.05735" lon="4.70159">
        <ele>199</ele>
        <time>2018-07-12T09:11:01Z</time>
      </trkpt>
      <trkpt lat="46.05738" lon="4.70166">
        <ele>199</ele>
        <time>2018-07-12T09:11:02Z</time>
      </trkpt>
      <trkpt lat="46.0574" lon="4.70172">
        <ele>198</ele>
        <time>2018-07-12T09:11:03Z</time>
      </trkpt>
      <trkpt lat="46.05745" lon="4.70179">
        <ele>198</ele>
        <time>2018-07-12T09:11:04Z</time>
      </trkpt>
      <trkpt lat="46.05748" lon="4.70186">
        <ele>198</ele>
        <time>2018-07-12T09:11:05Z</time>
      </trkpt>
      <trkpt lat="46.05752" lon="4.70195">
        <ele>198</ele>
        <time>2018-07-12T09:11:06Z</time>
      </trkpt>
      <trkpt lat="46.05756" lon="4.70202">
        <ele>198</ele>
        <time>2018-07-12T09:11:07Z</time>
      </trkpt>
      <trkpt lat="46.05759" lon="4.7021">
        <ele>198</ele>
        <time>2018-07-12T09:11:08Z</time>
      </trkpt>
      <trkpt lat="46.05764" lon="4.70217">
        <ele>198</ele>
        <time>2018-07-12T09:11:09Z</time>
      </trkpt>
      <trkpt lat="46.05768" lon="4.70225">
        <ele>198</ele>
        <time>2018-07-12T09:11:10Z</time>
      </trkpt>
      <trkpt lat="46.05772" lon="4.70232">
        <ele>198</ele>
        <time>2018-07-12T09:11:11Z</time>
      </trkpt>
      <trkpt lat="46.05775" lon="4.70238">
        <ele>198</ele>
        <time>2018-07-12T09:11:12Z</time>
      </trkpt>
      <trkpt lat="46.05779" lon="4.70245">
        <ele>198</ele>
        <time>2018-07-12T09:11:13Z</time>
      </trkpt>
      <trkpt lat="46.05784" lon="4.70251">
        <ele>198</ele>
        <time>2018-07-12T09:11:14Z</time>
      </trkpt>
      <trkpt lat="46.05788" lon="4.70258">
        <ele>198</ele>
        <time>2018-07-12T09:11:15Z</time>
      </trkpt>
      <trkpt lat="46.05792" lon="4.70263">
        <ele>197</ele>
        <time>2018-07-12T09:11:16Z</time>
      </trkpt>
      <trkpt lat="46.05795" lon="4.70269">
        <ele>197</ele>
        <time>2018-07-12T09:11:17Z</time>
      </trkpt>
      <trkpt lat="46.05798" lon="4.70271">
        <ele>197</ele>
        <time>2018-07-12T09:11:18Z</time>
      </trkpt>
      <trkpt lat="46.05803" lon="4.70278">
        <ele>197</ele>
        <time>2018-07-12T09:11:19Z</time>
      </trkpt>
      <trkpt lat="46.05807" lon="4.70284">
        <ele>197</ele>
        <time>2018-07-12T09:11:20Z</time>
      </trkpt>
      <trkpt lat="46.05811" lon="4.70291">
        <ele>197</ele>
        <time>2018-07-12T09:11:21Z</time>
      </trkpt>
      <trkpt lat="46.05815" lon="4.70297">
        <ele>197</ele>
        <time>2018-07-12T09:11:22Z</time>
      </trkpt>
      <trkpt lat="46.05819" lon="4.70303">
        <ele>197</ele>
        <time>2018-07-12T09:11:23Z</time>
      </trkpt>
      <trkpt lat="46.05823" lon="4.70311">
        <ele>197</ele>
        <time>2018-07-12T09:11:24Z</time>
      </trkpt>
      <trkpt lat="46.05826" lon="4.70319">
        <ele>197</ele>
        <time>2018-07-12T09:11:25Z</time>
      </trkpt>
      <trkpt lat="46.0583" lon="4.70325">
        <ele>197</ele>
        <time>2018-07-12T09:11:26Z</time>
      </trkpt>
      <trkpt lat="46.05835" lon="4.70331">
        <ele>197</ele>
        <time>2018-07-12T09:11:27Z</time>
      </trkpt>
      <trkpt lat="46.05841" lon="4.70339">
        <ele>197</ele>
        <time>2018-07-12T09:11:28Z</time>
      </trkpt>
      <trkpt lat="46.05845" lon="4.70345">
        <ele>197</ele>
        <time>2018-07-12T09:11:29Z</time>
      </trkpt>
      <trkpt lat="46.05851" lon="4.70352">
        <ele>196</ele>
        <time>2018-07-12T09:11:30Z</time>
      </trkpt>
      <trkpt lat="46.05855" lon="4.70358">
        <ele>196</ele>
        <time>2018-07-12T09:11:31Z</time>
      </trkpt>
      <trkpt lat="46.0586" lon="4.70365">
        <ele>196</ele>
        <time>2018-07-12T09:11:32Z</time>
      </trkpt>
      <trkpt lat="46.05864" lon="4.70371">
        <ele>196</ele>
        <time>2018-07-12T09:11:33Z</time>
      </trkpt>
      <trkpt lat="46.05869" lon="4.70379">
        <ele>196</ele>
        <time>2018-07-12T09:11:34Z</time>
      </trkpt>
      <trkpt lat="46.05873" lon="4.70387">
        <ele>196</ele>
        <time>2018-07-12T09:11:35Z</time>
      </trkpt>
      <trkpt lat="46.05876" lon="4.70394">
        <ele>196</ele>
        <time>2018-07-12T09:11:36Z</time>
      </trkpt>
      <trkpt lat="46.05881" lon="4.70399">
        <ele>196</ele>
        <time>2018-07-12T09:11:37Z</time>
      </trkpt>
      <trkpt lat="46.05885" lon="4.70403">
        <ele>196</ele>
        <time>2018-07-12T09:11:38Z</time>
      </trkpt>
      <trkpt lat="46.05886" lon="4.7041">
        <ele>196</ele>
        <time>2018-07-12T09:11:39Z</time>
      </trkpt>
      <trkpt lat="46.0589" lon="4.70417">
        <ele>195</ele>
        <time>2018-07-12T09:11:40Z</time>
      </trkpt>
      <trkpt lat="46.05894" lon="4.70423">
        <ele>195</ele>
        <time>2018-07-12T09:11:41Z</time>
      </trkpt>
      <trkpt lat="46.05898" lon="4.70429">
        <ele>195</ele>
        <time>2018-07-12T09:11:42Z</time>
      </trkpt>
      <trkpt lat="46.05902" lon="4.70436">
        <ele>195</ele>
        <time>2018-07-12T09:11:43Z</time>
      </trkpt>
      <trkpt lat="46.05906" lon="4.70443">
        <ele>195</ele>
        <time>2018-07-12T09:11:44Z</time>
      </trkpt>
      <trkpt lat="46.0591" lon="4.70449">
        <ele>195</ele>
        <time>2018-07-12T09:11:45Z</time>
      </trkpt>
      <trkpt lat="46.05913" lon="4.70457">
        <ele>195</ele>
        <time>2018-07-12T09:11:46Z</time>
      </trkpt>
      <trkpt lat="46.05916" lon="4.70463">
        <ele>195</ele>
        <time>2018-07-12T09:11:47Z</time>
      </trkpt>
      <trkpt lat="46.05919" lon="4.70471">
        <ele>195</ele>
        <time>2018-07-12T09:11:48Z</time>
      </trkpt>
      <trkpt lat="46.05921" lon="4.70479">
        <ele>195</ele>
        <time>2018-07-12T09:11:49Z</time>
      </trkpt>
      <trkpt lat="46.05923" lon="4.70488">
        <ele>196</ele>
        <time>2018-07-12T09:11:50Z</time>
      </trkpt>
      <trkpt lat="46.05925" lon="4.70497">
        <ele>196</ele>
        <time>2018-07-12T09:11:51Z</time>
      </trkpt>
      <trkpt lat="46.05926" lon="4.70506">
        <ele>195</ele>
        <time>2018-07-12T09:11:52Z</time>
      </trkpt>
      <trkpt lat="46.05927" lon="4.70515">
        <ele>195</ele>
        <time>2018-07-12T09:11:53Z</time>
      </trkpt>
      <trkpt lat="46.05926" lon="4.70524">
        <ele>195</ele>
        <time>2018-07-12T09:11:54Z</time>
      </trkpt>
      <trkpt lat="46.05923" lon="4.70532">
        <ele>195</ele>
        <time>2018-07-12T09:11:55Z</time>
      </trkpt>
      <trkpt lat="46.05921" lon="4.70541">
        <ele>195</ele>
        <time>2018-07-12T09:11:56Z</time>
      </trkpt>
      <trkpt lat="46.05918" lon="4.70549">
        <ele>195</ele>
        <time>2018-07-12T09:11:57Z</time>
      </trkpt>
      <trkpt lat="46.05916" lon="4.70557">
        <ele>195</ele>
        <time>2018-07-12T09:11:58Z</time>
      </trkpt>
      <trkpt lat="46.05912" lon="4.70565">
        <ele>195</ele>
        <time>2018-07-12T09:11:59Z</time>
      </trkpt>
      <trkpt lat="46.05911" lon="4.70575">
        <ele>195</ele>
        <time>2018-07-12T09:12:00Z</time>
      </trkpt>
      <trkpt lat="46.05909" lon="4.70583">
        <ele>195</ele>
        <time>2018-07-12T09:12:01Z</time>
      </trkpt>
      <trkpt lat="46.05908" lon="4.70592">
        <ele>194</ele>
        <time>2018-07-12T09:12:02Z</time>
      </trkpt>
      <trkpt lat="46.05907" lon="4.70604">
        <ele>194</ele>
        <time>2018-07-12T09:12:03Z</time>
      </trkpt>
      <trkpt lat="46.05905" lon="4.70613">
        <ele>194</ele>
        <time>2018-07-12T09:12:04Z</time>
      </trkpt>
      <trkpt lat="46.05905" lon="4.70621">
        <ele>194</ele>
        <time>2018-07-12T09:12:05Z</time>
      </trkpt>
      <trkpt lat="46.05904" lon="4.70629">
        <ele>194</ele>
        <time>2018-07-12T09:12:06Z</time>
      </trkpt>
      <trkpt lat="46.05903" lon="4.70637">
        <ele>194</ele>
        <time>2018-07-12T09:12:07Z</time>
      </trkpt>
      <trkpt lat="46.05902" lon="4.70643">
        <ele>194</ele>
        <time>2018-07-12T09:12:08Z</time>
      </trkpt>
      <trkpt lat="46.05902" lon="4.70651">
        <ele>194</ele>
        <time>2018-07-12T09:12:09Z</time>
      </trkpt>
      <trkpt lat="46.05901" lon="4.7066">
        <ele>194</ele>
        <time>2018-07-12T09:12:10Z</time>
      </trkpt>
      <trkpt lat="46.05899" lon="4.70668">
        <ele>194</ele>
        <time>2018-07-12T09:12:11Z</time>
      </trkpt>
      <trkpt lat="46.05902" lon="4.70679">
        <ele>194</ele>
        <time>2018-07-12T09:12:12Z</time>
      </trkpt>
      <trkpt lat="46.05904" lon="4.70687">
        <ele>194</ele>
        <time>2018-07-12T09:12:13Z</time>
      </trkpt>
      <trkpt lat="46.05905" lon="4.70696">
        <ele>194</ele>
        <time>2018-07-12T09:12:14Z</time>
      </trkpt>
      <trkpt lat="46.05906" lon="4.70705">
        <ele>194</ele>
        <time>2018-07-12T09:12:15Z</time>
      </trkpt>
      <trkpt lat="46.05909" lon="4.70713">
        <ele>194</ele>
        <time>2018-07-12T09:12:16Z</time>
      </trkpt>
      <trkpt lat="46.05909" lon="4.70722">
        <ele>194</ele>
        <time>2018-07-12T09:12:17Z</time>
      </trkpt>
      <trkpt lat="46.05908" lon="4.70731">
        <ele>194</ele>
        <time>2018-07-12T09:12:18Z</time>
      </trkpt>
      <trkpt lat="46.0591" lon="4.70739">
        <ele>194</ele>
        <time>2018-07-12T09:12:19Z</time>
      </trkpt>
      <trkpt lat="46.05913" lon="4.70747">
        <ele>194</ele>
        <time>2018-07-12T09:12:20Z</time>
      </trkpt>
      <trkpt lat="46.05915" lon="4.70755">
        <ele>194</ele>
        <time>2018-07-12T09:12:21Z</time>
      </trkpt>
      <trkpt lat="46.05915" lon="4.70762">
        <ele>194</ele>
        <time>2018-07-12T09:12:22Z</time>
      </trkpt>
      <trkpt lat="46.05916" lon="4.70771">
        <ele>194</ele>
        <time>2018-07-12T09:12:23Z</time>
      </trkpt>
      <trkpt lat="46.05917" lon="4.70778">
        <ele>194</ele>
        <time>2018-07-12T09:12:24Z</time>
      </trkpt>
      <trkpt lat="46.05919" lon="4.70786">
        <ele>194</ele>
        <time>2018-07-12T09:12:25Z</time>
      </trkpt>
      <trkpt lat="46.05918" lon="4.70795">
        <ele>194</ele>
        <time>2018-07-12T09:12:26Z</time>
      </trkpt>
      <trkpt lat="46.05919" lon="4.70804">
        <ele>194</ele>
        <time>2018-07-12T09:12:27Z</time>
      </trkpt>
      <trkpt lat="46.05921" lon="4.70814">
        <ele>194</ele>
        <time>2018-07-12T09:12:28Z</time>
      </trkpt>
      <trkpt lat="46.05921" lon="4.70823">
        <ele>195</ele>
        <time>2018-07-12T09:12:29Z</time>
      </trkpt>
      <trkpt lat="46.05921" lon="4.70832">
        <ele>195</ele>
        <time>2018-07-12T09:12:30Z</time>
      </trkpt>
      <trkpt lat="46.05923" lon="4.70841">
        <ele>195</ele>
        <time>2018-07-12T09:12:31Z</time>
      </trkpt>
      <trkpt lat="46.05924" lon="4.70848">
        <ele>194</ele>
        <time>2018-07-12T09:12:32Z</time>
      </trkpt>
      <trkpt lat="46.05924" lon="4.70856">
        <ele>194</ele>
        <time>2018-07-12T09:12:33Z</time>
      </trkpt>
      <trkpt lat="46.05925" lon="4.70863">
        <ele>194</ele>
        <time>2018-07-12T09:12:34Z</time>
      </trkpt>
      <trkpt lat="46.05926" lon="4.7087">
        <ele>194</ele>
        <time>2018-07-12T09:12:35Z</time>
      </trkpt>
      <trkpt lat="46.05929" lon="4.70877">
        <ele>194</ele>
        <time>2018-07-12T09:12:36Z</time>
      </trkpt>
      <trkpt lat="46.0593" lon="4.70884">
        <ele>194</ele>
        <time>2018-07-12T09:12:37Z</time>
      </trkpt>
      <trkpt lat="46.05931" lon="4.70893">
        <ele>194</ele>
        <time>2018-07-12T09:12:38Z</time>
      </trkpt>
      <trkpt lat="46.05932" lon="4.709">
        <ele>194</ele>
        <time>2018-07-12T09:12:39Z</time>
      </trkpt>
      <trkpt lat="46.05934" lon="4.70908">
        <ele>194</ele>
        <time>2018-07-12T09:12:40Z</time>
      </trkpt>
      <trkpt lat="46.05935" lon="4.70917">
        <ele>194</ele>
        <time>2018-07-12T09:12:41Z</time>
      </trkpt>
      <trkpt lat="46.05936" lon="4.70925">
        <ele>194</ele>
        <time>2018-07-12T09:12:42Z</time>
      </trkpt>
      <trkpt lat="46.05938" lon="4.70934">
        <ele>194</ele>
        <time>2018-07-12T09:12:43Z</time>
      </trkpt>
      <trkpt lat="46.05939" lon="4.70942">
        <ele>193</ele>
        <time>2018-07-12T09:12:44Z</time>
      </trkpt>
      <trkpt lat="46.05941" lon="4.7095">
        <ele>193</ele>
        <time>2018-07-12T09:12:45Z</time>
      </trkpt>
      <trkpt lat="46.05943" lon="4.70958">
        <ele>193</ele>
        <time>2018-07-12T09:12:46Z</time>
      </trkpt>
      <trkpt lat="46.05945" lon="4.70966">
        <ele>193</ele>
        <time>2018-07-12T09:12:47Z</time>
      </trkpt>
      <trkpt lat="46.05948" lon="4.70972">
        <ele>193</ele>
        <time>2018-07-12T09:12:48Z</time>
      </trkpt>
      <trkpt lat="46.0595" lon="4.7098">
        <ele>193</ele>
        <time>2018-07-12T09:12:49Z</time>
      </trkpt>
      <trkpt lat="46.05952" lon="4.70987">
        <ele>193</ele>
        <time>2018-07-12T09:12:50Z</time>
      </trkpt>
      <trkpt lat="46.05953" lon="4.70993">
        <ele>193</ele>
        <time>2018-07-12T09:12:51Z</time>
      </trkpt>
      <trkpt lat="46.05955" lon="4.71">
        <ele>193</ele>
        <time>2018-07-12T09:12:52Z</time>
      </trkpt>
      <trkpt lat="46.05957" lon="4.71008">
        <ele>193</ele>
        <time>2018-07-12T09:12:53Z</time>
      </trkpt>
      <trkpt lat="46.05959" lon="4.71015">
        <ele>193</ele>
        <time>2018-07-12T09:12:54Z</time>
      </trkpt>
      <trkpt lat="46.05962" lon="4.71022">
        <ele>193</ele>
        <time>2018-07-12T09:12:55Z</time>
      </trkpt>
      <trkpt lat="46.05965" lon="4.7103">
        <ele>193</ele>
        <time>2018-07-12T09:12:56Z</time>
      </trkpt>
      <trkpt lat="46.05968" lon="4.71037">
        <ele>193</ele>
        <time>2018-07-12T09:12:57Z</time>
      </trkpt>
      <trkpt lat="46.05972" lon="4.71044">
        <ele>192</ele>
        <time>2018-07-12T09:12:58Z</time>
      </trkpt>
      <trkpt lat="46.05975" lon="4.71051">
        <ele>193</ele>
        <time>2018-07-12T09:12:59Z</time>
      </trkpt>
      <trkpt lat="46.05977" lon="4.71058">
        <ele>193</ele>
        <time>2018-07-12T09:13:00Z</time>
      </trkpt>
      <trkpt lat="46.0598" lon="4.71065">
        <ele>193</ele>
        <time>2018-07-12T09:13:01Z</time>
      </trkpt>
      <trkpt lat="46.05983" lon="4.71071">
        <ele>193</ele>
        <time>2018-07-12T09:13:02Z</time>
      </trkpt>
      <trkpt lat="46.05986" lon="4.71078">
        <ele>193</ele>
        <time>2018-07-12T09:13:03Z</time>
      </trkpt>
      <trkpt lat="46.05989" lon="4.71084">
        <ele>193</ele>
        <time>2018-07-12T09:13:04Z</time>
      </trkpt>
      <trkpt lat="46.05992" lon="4.71091">
        <ele>193</ele>
        <time>2018-07-12T09:13:05Z</time>
      </trkpt>
      <trkpt lat="46.05994" lon="4.71096">
        <ele>193</ele>
        <time>2018-07-12T09:13:06Z</time>
      </trkpt>
      <trkpt lat="46.05998" lon="4.71101">
        <ele>193</ele>
        <time>2018-07-12T09:13:07Z</time>
      </trkpt>
      <trkpt lat="46.06001" lon="4.71109">
        <ele>193</ele>
        <time>2018-07-12T09:13:08Z</time>
      </trkpt>
      <trkpt lat="46.06005" lon="4.71116">
        <ele>193</ele>
        <time>2018-07-12T09:13:09Z</time>
      </trkpt>
      <trkpt lat="46.06008" lon="4.71124">
        <ele>193</ele>
        <time>2018-07-12T09:13:10Z</time>
      </trkpt>
      <trkpt lat="46.06011" lon="4.71133">
        <ele>193</ele>
        <time>2018-07-12T09:13:11Z</time>
      </trkpt>
      <trkpt lat="46.06014" lon="4.71142">
        <ele>193</ele>
        <time>2018-07-12T09:13:12Z</time>
      </trkpt>
      <trkpt lat="46.06016" lon="4.71151">
        <ele>194</ele>
        <time>2018-07-12T09:13:13Z</time>
      </trkpt>
      <trkpt lat="46.06019" lon="4.71159">
        <ele>194</ele>
        <time>2018-07-12T09:13:14Z</time>
      </trkpt>
      <trkpt lat="46.06022" lon="4.71168">
        <ele>194</ele>
        <time>2018-07-12T09:13:15Z</time>
      </trkpt>
      <trkpt lat="46.06025" lon="4.71175">
        <ele>193</ele>
        <time>2018-07-12T09:13:16Z</time>
      </trkpt>
      <trkpt lat="46.06027" lon="4.71183">
        <ele>193</ele>
        <time>2018-07-12T09:13:17Z</time>
      </trkpt>
      <trkpt lat="46.0603" lon="4.71191">
        <ele>193</ele>
        <time>2018-07-12T09:13:18Z</time>
      </trkpt>
      <trkpt lat="46.06033" lon="4.71198">
        <ele>193</ele>
        <time>2018-07-12T09:13:19Z</time>
      </trkpt>
      <trkpt lat="46.06035" lon="4.71206">
        <ele>193</ele>
        <time>2018-07-12T09:13:20Z</time>
      </trkpt>
      <trkpt lat="46.06037" lon="4.71214">
        <ele>193</ele>
        <time>2018-07-12T09:13:21Z</time>
      </trkpt>
      <trkpt lat="46.0604" lon="4.71222">
        <ele>193</ele>
        <time>2018-07-12T09:13:22Z</time>
      </trkpt>
      <trkpt lat="46.06042" lon="4.71229">
        <ele>193</ele>
        <time>2018-07-12T09:13:23Z</time>
      </trkpt>
      <trkpt lat="46.06045" lon="4.71237">
        <ele>193</ele>
        <time>2018-07-12T09:13:24Z</time>
      </trkpt>
      <trkpt lat="46.06048" lon="4.71245">
        <ele>193</ele>
        <time>2018-07-12T09:13:25Z</time>
      </trkpt>
      <trkpt lat="46.06049" lon="4.71252">
        <ele>193</ele>
        <time>2018-07-12T09:13:26Z</time>
      </trkpt>
      <trkpt lat="46.06052" lon="4.7126">
        <ele>193</ele>
        <time>2018-07-12T09:13:27Z</time>
      </trkpt>
      <trkpt lat="46.06056" lon="4.71265">
        <ele>193</ele>
        <time>2018-07-12T09:13:28Z</time>
      </trkpt>
      <trkpt lat="46.06059" lon="4.71274">
        <ele>193</ele>
        <time>2018-07-12T09:13:29Z</time>
      </trkpt>
      <trkpt lat="46.06062" lon="4.7128">
        <ele>193</ele>
        <time>2018-07-12T09:13:30Z</time>
      </trkpt>
      <trkpt lat="46.06065" lon="4.71287">
        <ele>193</ele>
        <time>2018-07-12T09:13:31Z</time>
      </trkpt>
      <trkpt lat="46.06067" lon="4.71295">
        <ele>193</ele>
        <time>2018-07-12T09:13:32Z</time>
      </trkpt>
      <trkpt lat="46.06069" lon="4.71302">
        <ele>193</ele>
        <time>2018-07-12T09:13:33Z</time>
      </trkpt>
      <trkpt lat="46.06071" lon="4.71309">
        <ele>193</ele>
        <time>2018-07-12T09:13:34Z</time>
      </trkpt>
      <trkpt lat="46.06072" lon="4.71316">
        <ele>193</ele>
        <time>2018-07-12T09:13:35Z</time>
      </trkpt>
      <trkpt lat="46.06075" lon="4.71322">
        <ele>193</ele>
        <time>2018-07-12T09:13:36Z</time>
      </trkpt>
      <trkpt lat="46.06077" lon="4.7133">
        <ele>193</ele>
        <time>2018-07-12T09:13:37Z</time>
      </trkpt>
      <trkpt lat="46.06079" lon="4.71337">
        <ele>193</ele>
        <time>2018-07-12T09:13:38Z</time>
      </trkpt>
      <trkpt lat="46.06082" lon="4.71346">
        <ele>193</ele>
        <time>2018-07-12T09:13:39Z</time>
      </trkpt>
      <trkpt lat="46.06083" lon="4.71353">
        <ele>193</ele>
        <time>2018-07-12T09:13:40Z</time>
      </trkpt>
      <trkpt lat="46.06086" lon="4.71361">
        <ele>193</ele>
        <time>2018-07-12T09:13:41Z</time>
      </trkpt>
      <trkpt lat="46.06087" lon="4.71369">
        <ele>193</ele>
        <time>2018-07-12T09:13:42Z</time>
      </trkpt>
      <trkpt lat="46.06088" lon="4.71377">
        <ele>193</ele>
        <time>2018-07-12T09:13:43Z</time>
      </trkpt>
      <trkpt lat="46.0609" lon="4.71385">
        <ele>193</ele>
        <time>2018-07-12T09:13:44Z</time>
      </trkpt>
      <trkpt lat="46.06092" lon="4.71393">
        <ele>193</ele>
        <time>2018-07-12T09:13:45Z</time>
      </trkpt>
      <trkpt lat="46.06094" lon="4.71401">
        <ele>193</ele>
        <time>2018-07-12T09:13:46Z</time>
      </trkpt>
      <trkpt lat="46.06098" lon="4.71408">
        <ele>193</ele>
        <time>2018-07-12T09:13:47Z</time>
      </trkpt>
      <trkpt lat="46.06102" lon="4.71415">
        <ele>193</ele>
        <time>2018-07-12T09:13:48Z</time>
      </trkpt>
      <trkpt lat="46.06105" lon="4.71424">
        <ele>193</ele>
        <time>2018-07-12T09:13:49Z</time>
      </trkpt>
      <trkpt lat="46.06103" lon="4.71432">
        <ele>193</ele>
        <time>2018-07-12T09:13:50Z</time>
      </trkpt>
      <trkpt lat="46.06108" lon="4.71437">
        <ele>193</ele>
        <time>2018-07-12T09:13:51Z</time>
      </trkpt>
      <trkpt lat="46.0611" lon="4.71444">
        <ele>193</ele>
        <time>2018-07-12T09:13:52Z</time>
      </trkpt>
      <trkpt lat="46.06112" lon="4.71452">
        <ele>193</ele>
        <time>2018-07-12T09:13:53Z</time>
      </trkpt>
      <trkpt lat="46.06115" lon="4.71459">
        <ele>193</ele>
        <time>2018-07-12T09:13:54Z</time>
      </trkpt>
      <trkpt lat="46.06115" lon="4.71468">
        <ele>193</ele>
        <time>2018-07-12T09:13:55Z</time>
      </trkpt>
      <trkpt lat="46.06117" lon="4.71476">
        <ele>193</ele>
        <time>2018-07-12T09:13:56Z</time>
      </trkpt>
      <trkpt lat="46.06119" lon="4.71484">
        <ele>193</ele>
        <time>2018-07-12T09:13:57Z</time>
      </trkpt>
      <trkpt lat="46.06121" lon="4.71491">
        <ele>193</ele>
        <time>2018-07-12T09:13:58Z</time>
      </trkpt>
      <trkpt lat="46.06126" lon="4.715">
        <ele>192</ele>
        <time>2018-07-12T09:13:59Z</time>
      </trkpt>
      <trkpt lat="46.06129" lon="4.71507">
        <ele>192</ele>
        <time>2018-07-12T09:14:00Z</time>
      </trkpt>
      <trkpt lat="46.06131" lon="4.71513">
        <ele>192</ele>
        <time>2018-07-12T09:14:01Z</time>
      </trkpt>
      <trkpt lat="46.06134" lon="4.7152">
        <ele>192</ele>
        <time>2018-07-12T09:14:02Z</time>
      </trkpt>
      <trkpt lat="46.06137" lon="4.71527">
        <ele>192</ele>
        <time>2018-07-12T09:14:03Z</time>
      </trkpt>
      <trkpt lat="46.06145" lon="4.71533">
        <ele>192</ele>
        <time>2018-07-12T09:14:04Z</time>
      </trkpt>
      <trkpt lat="46.06149" lon="4.7154">
        <ele>192</ele>
        <time>2018-07-12T09:14:05Z</time>
      </trkpt>
      <trkpt lat="46.06154" lon="4.71547">
        <ele>192</ele>
        <time>2018-07-12T09:14:06Z</time>
      </trkpt>
      <trkpt lat="46.06158" lon="4.71553">
        <ele>192</ele>
        <time>2018-07-12T09:14:07Z</time>
      </trkpt>
      <trkpt lat="46.06169" lon="4.71559">
        <ele>191</ele>
        <time>2018-07-12T09:14:08Z</time>
      </trkpt>
      <trkpt lat="46.06174" lon="4.71566">
        <ele>191</ele>
        <time>2018-07-12T09:14:09Z</time>
      </trkpt>
      <trkpt lat="46.06178" lon="4.71572">
        <ele>191</ele>
        <time>2018-07-12T09:14:10Z</time>
      </trkpt>
      <trkpt lat="46.06183" lon="4.71579">
        <ele>191</ele>
        <time>2018-07-12T09:14:11Z</time>
      </trkpt>
      <trkpt lat="46.06186" lon="4.71586">
        <ele>191</ele>
        <time>2018-07-12T09:14:12Z</time>
      </trkpt>
      <trkpt lat="46.06193" lon="4.71592">
        <ele>191</ele>
        <time>2018-07-12T09:14:13Z</time>
      </trkpt>
      <trkpt lat="46.06198" lon="4.71598">
        <ele>191</ele>
        <time>2018-07-12T09:14:14Z</time>
      </trkpt>
      <trkpt lat="46.062" lon="4.71605">
        <ele>191</ele>
        <time>2018-07-12T09:14:15Z</time>
      </trkpt>
      <trkpt lat="46.06205" lon="4.7161">
        <ele>191</ele>
        <time>2018-07-12T09:14:16Z</time>
      </trkpt>
      <trkpt lat="46.06208" lon="4.71616">
        <ele>191</ele>
        <time>2018-07-12T09:14:17Z</time>
      </trkpt>
      <trkpt lat="46.06211" lon="4.71623">
        <ele>191</ele>
        <time>2018-07-12T09:14:18Z</time>
      </trkpt>
      <trkpt lat="46.06214" lon="4.71629">
        <ele>191</ele>
        <time>2018-07-12T09:14:19Z</time>
      </trkpt>
      <trkpt lat="46.06219" lon="4.71635">
        <ele>191</ele>
        <time>2018-07-12T09:14:20Z</time>
      </trkpt>
      <trkpt lat="46.06224" lon="4.71641">
        <ele>191</ele>
        <time>2018-07-12T09:14:21Z</time>
      </trkpt>
      <trkpt lat="46.06228" lon="4.71646">
        <ele>191</ele>
        <time>2018-07-12T09:14:22Z</time>
      </trkpt>
      <trkpt lat="46.06231" lon="4.71652">
        <ele>191</ele>
        <time>2018-07-12T09:14:23Z</time>
      </trkpt>
      <trkpt lat="46.06234" lon="4.71658">
        <ele>191</ele>
        <time>2018-07-12T09:14:24Z</time>
      </trkpt>
      <trkpt lat="46.06238" lon="4.71665">
        <ele>190</ele>
        <time>2018-07-12T09:14:25Z</time>
      </trkpt>
      <trkpt lat="46.06241" lon="4.71672">
        <ele>191</ele>
        <time>2018-07-12T09:14:26Z</time>
      </trkpt>
      <trkpt lat="46.06243" lon="4.71681">
        <ele>191</ele>
        <time>2018-07-12T09:14:27Z</time>
      </trkpt>
      <trkpt lat="46.06246" lon="4.7169">
        <ele>191</ele>
        <time>2018-07-12T09:14:28Z</time>
      </trkpt>
      <trkpt lat="46.06249" lon="4.71697">
        <ele>191</ele>
        <time>2018-07-12T09:14:29Z</time>
      </trkpt>
      <trkpt lat="46.06251" lon="4.71706">
        <ele>190</ele>
        <time>2018-07-12T09:14:30Z</time>
      </trkpt>
      <trkpt lat="46.06256" lon="4.71714">
        <ele>190</ele>
        <time>2018-07-12T09:14:31Z</time>
      </trkpt>
      <trkpt lat="46.06259" lon="4.71722">
        <ele>190</ele>
        <time>2018-07-12T09:14:32Z</time>
      </trkpt>
      <trkpt lat="46.06263" lon="4.71728">
        <ele>190</ele>
        <time>2018-07-12T09:14:33Z</time>
      </trkpt>
      <trkpt lat="46.06265" lon="4.71736">
        <ele>190</ele>
        <time>2018-07-12T09:14:34Z</time>
      </trkpt>
      <trkpt lat="46.06265" lon="4.71742">
        <ele>190</ele>
        <time>2018-07-12T09:14:35Z</time>
      </trkpt>
      <trkpt lat="46.06268" lon="4.7175">
        <ele>190</ele>
        <time>2018-07-12T09:14:36Z</time>
      </trkpt>
      <trkpt lat="46.06271" lon="4.71758">
        <ele>190</ele>
        <time>2018-07-12T09:14:37Z</time>
      </trkpt>
      <trkpt lat="46.06276" lon="4.71764">
        <ele>190</ele>
        <time>2018-07-12T09:14:38Z</time>
      </trkpt>
      <trkpt lat="46.06277" lon="4.71773">
        <ele>190</ele>
        <time>2018-07-12T09:14:39Z</time>
      </trkpt>
      <trkpt lat="46.06279" lon="4.71782">
        <ele>190</ele>
        <time>2018-07-12T09:14:40Z</time>
      </trkpt>
      <trkpt lat="46.0628" lon="4.7179">
        <ele>190</ele>
        <time>2018-07-12T09:14:41Z</time>
      </trkpt>
      <trkpt lat="46.06283" lon="4.71799">
        <ele>190</ele>
        <time>2018-07-12T09:14:42Z</time>
      </trkpt>
      <trkpt lat="46.06284" lon="4.71807">
        <ele>190</ele>
        <time>2018-07-12T09:14:43Z</time>
      </trkpt>
      <trkpt lat="46.06285" lon="4.71818">
        <ele>189</ele>
        <time>2018-07-12T09:14:44Z</time>
      </trkpt>
      <trkpt lat="46.06287" lon="4.71827">
        <ele>189</ele>
        <time>2018-07-12T09:14:45Z</time>
      </trkpt>
      <trkpt lat="46.0629" lon="4.71837">
        <ele>189</ele>
        <time>2018-07-12T09:14:46Z</time>
      </trkpt>
      <trkpt lat="46.06292" lon="4.71845">
        <ele>189</ele>
        <time>2018-07-12T09:14:47Z</time>
      </trkpt>
      <trkpt lat="46.06294" lon="4.71856">
        <ele>189</ele>
        <time>2018-07-12T09:14:48Z</time>
      </trkpt>
      <trkpt lat="46.06295" lon="4.71866">
        <ele>189</ele>
        <time>2018-07-12T09:14:49Z</time>
      </trkpt>
      <trkpt lat="46.063" lon="4.71878">
        <ele>189</ele>
        <time>2018-07-12T09:14:50Z</time>
      </trkpt>
      <trkpt lat="46.06306" lon="4.71915">
        <ele>189</ele>
        <time>2018-07-12T09:14:54Z</time>
      </trkpt>
      <trkpt lat="46.06307" lon="4.71921">
        <ele>190</ele>
        <time>2018-07-12T09:14:55Z</time>
      </trkpt>
      <trkpt lat="46.06311" lon="4.7193">
        <ele>190</ele>
        <time>2018-07-12T09:14:56Z</time>
      </trkpt>
      <trkpt lat="46.06315" lon="4.71938">
        <ele>190</ele>
        <time>2018-07-12T09:14:57Z</time>
      </trkpt>
      <trkpt lat="46.06316" lon="4.71945">
        <ele>190</ele>
        <time>2018-07-12T09:14:58Z</time>
      </trkpt>
      <trkpt lat="46.06319" lon="4.71952">
        <ele>190</ele>
        <time>2018-07-12T09:14:59Z</time>
      </trkpt>
      <trkpt lat="46.06321" lon="4.71958">
        <ele>190</ele>
        <time>2018-07-12T09:15:00Z</time>
      </trkpt>
      <trkpt lat="46.06323" lon="4.71965">
        <ele>190</ele>
        <time>2018-07-12T09:15:01Z</time>
      </trkpt>
      <trkpt lat="46.06324" lon="4.71972">
        <ele>190</ele>
        <time>2018-07-12T09:15:02Z</time>
      </trkpt>
      <trkpt lat="46.06326" lon="4.71979">
        <ele>190</ele>
        <time>2018-07-12T09:15:03Z</time>
      </trkpt>
      <trkpt lat="46.06329" lon="4.71986">
        <ele>190</ele>
        <time>2018-07-12T09:15:04Z</time>
      </trkpt>
      <trkpt lat="46.06332" lon="4.71994">
        <ele>189</ele>
        <time>2018-07-12T09:15:05Z</time>
      </trkpt>
      <trkpt lat="46.06334" lon="4.72002">
        <ele>189</ele>
        <time>2018-07-12T09:15:06Z</time>
      </trkpt>
      <trkpt lat="46.06336" lon="4.7201">
        <ele>189</ele>
        <time>2018-07-12T09:15:07Z</time>
      </trkpt>
      <trkpt lat="46.06339" lon="4.72017">
        <ele>189</ele>
        <time>2018-07-12T09:15:08Z</time>
      </trkpt>
      <trkpt lat="46.06341" lon="4.72025">
        <ele>189</ele>
        <time>2018-07-12T09:15:09Z</time>
      </trkpt>
      <trkpt lat="46.06343" lon="4.72032">
        <ele>189</ele>
        <time>2018-07-12T09:15:10Z</time>
      </trkpt>
      <trkpt lat="46.06344" lon="4.7204">
        <ele>189</ele>
        <time>2018-07-12T09:15:11Z</time>
      </trkpt>
      <trkpt lat="46.06344" lon="4.72046">
        <ele>189</ele>
        <time>2018-07-12T09:15:12Z</time>
      </trkpt>
      <trkpt lat="46.06346" lon="4.72054">
        <ele>189</ele>
        <time>2018-07-12T09:15:13Z</time>
      </trkpt>
      <trkpt lat="46.06348" lon="4.7206">
        <ele>189</ele>
        <time>2018-07-12T09:15:14Z</time>
      </trkpt>
      <trkpt lat="46.06349" lon="4.72067">
        <ele>189</ele>
        <time>2018-07-12T09:15:15Z</time>
      </trkpt>
      <trkpt lat="46.06351" lon="4.72073">
        <ele>189</ele>
        <time>2018-07-12T09:15:16Z</time>
      </trkpt>
      <trkpt lat="46.06353" lon="4.72079">
        <ele>189</ele>
        <time>2018-07-12T09:15:17Z</time>
      </trkpt>
      <trkpt lat="46.06356" lon="4.72086">
        <ele>189</ele>
        <time>2018-07-12T09:15:18Z</time>
      </trkpt>
      <trkpt lat="46.06357" lon="4.72094">
        <ele>189</ele>
        <time>2018-07-12T09:15:19Z</time>
      </trkpt>
      <trkpt lat="46.06359" lon="4.72101">
        <ele>189</ele>
        <time>2018-07-12T09:15:20Z</time>
      </trkpt>
      <trkpt lat="46.0636" lon="4.72108">
        <ele>189</ele>
        <time>2018-07-12T09:15:21Z</time>
      </trkpt>
      <trkpt lat="46.06363" lon="4.72115">
        <ele>189</ele>
        <time>2018-07-12T09:15:22Z</time>
      </trkpt>
      <trkpt lat="46.06365" lon="4.72121">
        <ele>189</ele>
        <time>2018-07-12T09:15:23Z</time>
      </trkpt>
      <trkpt lat="46.06367" lon="4.72128">
        <ele>189</ele>
        <time>2018-07-12T09:15:24Z</time>
      </trkpt>
      <trkpt lat="46.0637" lon="4.72135">
        <ele>189</ele>
        <time>2018-07-12T09:15:25Z</time>
      </trkpt>
      <trkpt lat="46.06373" lon="4.72141">
        <ele>189</ele>
        <time>2018-07-12T09:15:26Z</time>
      </trkpt>
      <trkpt lat="46.06375" lon="4.72147">
        <ele>189</ele>
        <time>2018-07-12T09:15:27Z</time>
      </trkpt>
      <trkpt lat="46.06378" lon="4.72153">
        <ele>189</ele>
        <time>2018-07-12T09:15:28Z</time>
      </trkpt>
      <trkpt lat="46.06381" lon="4.72161">
        <ele>189</ele>
        <time>2018-07-12T09:15:29Z</time>
      </trkpt>
      <trkpt lat="46.06384" lon="4.72167">
        <ele>189</ele>
        <time>2018-07-12T09:15:30Z</time>
      </trkpt>
      <trkpt lat="46.06386" lon="4.72174">
        <ele>189</ele>
        <time>2018-07-12T09:15:31Z</time>
      </trkpt>
      <trkpt lat="46.06388" lon="4.72181">
        <ele>189</ele>
        <time>2018-07-12T09:15:32Z</time>
      </trkpt>
      <trkpt lat="46.0639" lon="4.72188">
        <ele>189</ele>
        <time>2018-07-12T09:15:33Z</time>
      </trkpt>
      <trkpt lat="46.06395" lon="4.72196">
        <ele>189</ele>
        <time>2018-07-12T09:15:34Z</time>
      </trkpt>
      <trkpt lat="46.06397" lon="4.72202">
        <ele>190</ele>
        <time>2018-07-12T09:15:35Z</time>
      </trkpt>
      <trkpt lat="46.06399" lon="4.72209">
        <ele>190</ele>
        <time>2018-07-12T09:15:36Z</time>
      </trkpt>
      <trkpt lat="46.06403" lon="4.72221">
        <ele>190</ele>
        <time>2018-07-12T09:15:38Z</time>
      </trkpt>
      <trkpt lat="46.06404" lon="4.72227">
        <ele>190</ele>
        <time>2018-07-12T09:15:39Z</time>
      </trkpt>
      <trkpt lat="46.06406" lon="4.72233">
        <ele>190</ele>
        <time>2018-07-12T09:15:40Z</time>
      </trkpt>
      <trkpt lat="46.06408" lon="4.7224">
        <ele>190</ele>
        <time>2018-07-12T09:15:41Z</time>
      </trkpt>
      <trkpt lat="46.06411" lon="4.72246">
        <ele>189</ele>
        <time>2018-07-12T09:15:42Z</time>
      </trkpt>
      <trkpt lat="46.06413" lon="4.72252">
        <ele>190</ele>
        <time>2018-07-12T09:15:43Z</time>
      </trkpt>
      <trkpt lat="46.06413" lon="4.72259">
        <ele>190</ele>
        <time>2018-07-12T09:15:44Z</time>
      </trkpt>
      <trkpt lat="46.06417" lon="4.72264">
        <ele>189</ele>
        <time>2018-07-12T09:15:45Z</time>
      </trkpt>
      <trkpt lat="46.06417" lon="4.72276">
        <ele>190</ele>
        <time>2018-07-12T09:15:47Z</time>
      </trkpt>
      <trkpt lat="46.06417" lon="4.72278">
        <ele>190</ele>
        <time>2018-07-12T09:15:48Z</time>
      </trkpt>
      <trkpt lat="46.06423" lon="4.72283">
        <ele>190</ele>
        <time>2018-07-12T09:15:50Z</time>
      </trkpt>
      <trkpt lat="46.0643" lon="4.72285">
        <ele>190</ele>
        <time>2018-07-12T09:15:51Z</time>
      </trkpt>
      <trkpt lat="46.06435" lon="4.72287">
        <ele>190</ele>
        <time>2018-07-12T09:15:52Z</time>
      </trkpt>
      <trkpt lat="46.06441" lon="4.72291">
        <ele>190</ele>
        <time>2018-07-12T09:15:53Z</time>
      </trkpt>
      <trkpt lat="46.06446" lon="4.72296">
        <ele>190</ele>
        <time>2018-07-12T09:15:54Z</time>
      </trkpt>
      <trkpt lat="46.06446" lon="4.72305">
        <ele>191</ele>
        <time>2018-07-12T09:15:55Z</time>
      </trkpt>
      <trkpt lat="46.06444" lon="4.72317">
        <ele>191</ele>
        <time>2018-07-12T09:15:57Z</time>
      </trkpt>
      <trkpt lat="46.06443" lon="4.72323">
        <ele>191</ele>
        <time>2018-07-12T09:15:58Z</time>
      </trkpt>
      <trkpt lat="46.06444" lon="4.72335">
        <ele>194</ele>
        <time>2018-07-12T09:16:00Z</time>
      </trkpt>
      <trkpt lat="46.06442" lon="4.72341">
        <ele>194</ele>
        <time>2018-07-12T09:16:01Z</time>
      </trkpt>
      <trkpt lat="46.06442" lon="4.72354">
        <ele>194</ele>
        <time>2018-07-12T09:16:03Z</time>
      </trkpt>
      <trkpt lat="46.0644" lon="4.7236">
        <ele>194</ele>
        <time>2018-07-12T09:16:04Z</time>
      </trkpt>
      <trkpt lat="46.06436" lon="4.72369">
        <ele>194</ele>
        <time>2018-07-12T09:16:06Z</time>
      </trkpt>
      <trkpt lat="46.06437" lon="4.72379">
        <ele>195</ele>
        <time>2018-07-12T09:16:07Z</time>
      </trkpt>
      <trkpt lat="46.06435" lon="4.72386">
        <ele>195</ele>
        <time>2018-07-12T09:16:09Z</time>
      </trkpt>
      <trkpt lat="46.06433" lon="4.72394">
        <ele>195</ele>
        <time>2018-07-12T09:16:10Z</time>
      </trkpt>
      <trkpt lat="46.06432" lon="4.72405">
        <ele>195</ele>
        <time>2018-07-12T09:16:12Z</time>
      </trkpt>
      <trkpt lat="46.0643" lon="4.72411">
        <ele>195</ele>
        <time>2018-07-12T09:16:13Z</time>
      </trkpt>
      <trkpt lat="46.0643" lon="4.72418">
        <ele>196</ele>
        <time>2018-07-12T09:16:14Z</time>
      </trkpt>
      <trkpt lat="46.06428" lon="4.72424">
        <ele>196</ele>
        <time>2018-07-12T09:16:15Z</time>
      </trkpt>
      <trkpt lat="46.06425" lon="4.72436">
        <ele>197</ele>
        <time>2018-07-12T09:16:17Z</time>
      </trkpt>
      <trkpt lat="46.06407" lon="4.72443">
        <ele>197</ele>
        <time>2018-07-12T09:16:18Z</time>
      </trkpt>
      <trkpt lat="46.06403" lon="4.72452">
        <ele>197</ele>
        <time>2018-07-12T09:16:21Z</time>
      </trkpt>
      <trkpt lat="46.064" lon="4.72456">
        <ele>197</ele>
        <time>2018-07-12T09:16:22Z</time>
      </trkpt>
      <trkpt lat="46.06397" lon="4.72463">
        <ele>197</ele>
        <time>2018-07-12T09:16:25Z</time>
      </trkpt>
      <trkpt lat="46.06397" lon="4.72471">
        <ele>198</ele>
        <time>2018-07-12T09:16:26Z</time>
      </trkpt>
      <trkpt lat="46.06398" lon="4.72483">
        <ele>198</ele>
        <time>2018-07-12T09:16:28Z</time>
      </trkpt>
      <trkpt lat="46.06399" lon="4.72489">
        <ele>198</ele>
        <time>2018-07-12T09:16:29Z</time>
      </trkpt>
      <trkpt lat="46.06401" lon="4.72496">
        <ele>198</ele>
        <time>2018-07-12T09:16:30Z</time>
      </trkpt>
      <trkpt lat="46.06405" lon="4.72504">
        <ele>198</ele>
        <time>2018-07-12T09:16:31Z</time>
      </trkpt>
      <trkpt lat="46.06407" lon="4.7251">
        <ele>198</ele>
        <time>2018-07-12T09:16:32Z</time>
      </trkpt>
      <trkpt lat="46.06405" lon="4.72517">
        <ele>198</ele>
        <time>2018-07-12T09:16:33Z</time>
      </trkpt>
      <trkpt lat="46.06407" lon="4.72525">
        <ele>197</ele>
        <time>2018-07-12T09:16:34Z</time>
      </trkpt>
      <trkpt lat="46.06408" lon="4.72533">
        <ele>197</ele>
        <time>2018-07-12T09:16:35Z</time>
      </trkpt>
      <trkpt lat="46.06411" lon="4.72542">
        <ele>197</ele>
        <time>2018-07-12T09:16:36Z</time>
      </trkpt>
      <trkpt lat="46.06413" lon="4.72551">
        <ele>196</ele>
        <time>2018-07-12T09:16:37Z</time>
      </trkpt>
      <trkpt lat="46.06415" lon="4.72559">
        <ele>196</ele>
        <time>2018-07-12T09:16:39.609Z</time>
      </trkpt>
      <trkpt lat="46.06416" lon="4.72567">
        <ele>196</ele>
        <time>2018-07-12T09:16:39Z</time>
      </trkpt>
      <trkpt lat="46.06417" lon="4.72576">
        <ele>195</ele>
        <time>2018-07-12T09:16:40Z</time>
      </trkpt>
      <trkpt lat="46.06417" lon="4.72585">
        <ele>195</ele>
        <time>2018-07-12T09:16:41Z</time>
      </trkpt>
      <trkpt lat="46.06419" lon="4.72594">
        <ele>194</ele>
        <time>2018-07-12T09:16:42Z</time>
      </trkpt>
      <trkpt lat="46.06423" lon="4.72603">
        <ele>193</ele>
        <time>2018-07-12T09:16:43Z</time>
      </trkpt>
      <trkpt lat="46.06426" lon="4.72612">
        <ele>193</ele>
        <time>2018-07-12T09:16:44Z</time>
      </trkpt>
      <trkpt lat="46.06427" lon="4.7262">
        <ele>193</ele>
        <time>2018-07-12T09:16:45Z</time>
      </trkpt>
      <trkpt lat="46.06429" lon="4.7263">
        <ele>193</ele>
        <time>2018-07-12T09:16:46Z</time>
      </trkpt>
      <trkpt lat="46.06431" lon="4.72641">
        <ele>192</ele>
        <time>2018-07-12T09:16:47Z</time>
      </trkpt>
      <trkpt lat="46.06432" lon="4.7265">
        <ele>192</ele>
        <time>2018-07-12T09:16:48Z</time>
      </trkpt>
      <trkpt lat="46.06433" lon="4.72661">
        <ele>192</ele>
        <time>2018-07-12T09:16:49Z</time>
      </trkpt>
      <trkpt lat="46.06435" lon="4.72671">
        <ele>191</ele>
        <time>2018-07-12T09:16:50Z</time>
      </trkpt>
      <trkpt lat="46.06436" lon="4.72681">
        <ele>191</ele>
        <time>2018-07-12T09:16:51Z</time>
      </trkpt>
      <trkpt lat="46.06437" lon="4.72692">
        <ele>190</ele>
        <time>2018-07-12T09:16:52Z</time>
      </trkpt>
      <trkpt lat="46.06439" lon="4.727">
        <ele>190</ele>
        <time>2018-07-12T09:16:53Z</time>
      </trkpt>
      <trkpt lat="46.06442" lon="4.7271">
        <ele>190</ele>
        <time>2018-07-12T09:16:54Z</time>
      </trkpt>
      <trkpt lat="46.06444" lon="4.72721">
        <ele>190</ele>
        <time>2018-07-12T09:16:55Z</time>
      </trkpt>
      <trkpt lat="46.0645" lon="4.72732">
        <ele>189</ele>
        <time>2018-07-12T09:16:56Z</time>
      </trkpt>
      <trkpt lat="46.06452" lon="4.72741">
        <ele>189</ele>
        <time>2018-07-12T09:16:57Z</time>
      </trkpt>
      <trkpt lat="46.06451" lon="4.7275">
        <ele>189</ele>
        <time>2018-07-12T09:16:58Z</time>
      </trkpt>
      <trkpt lat="46.06453" lon="4.72759">
        <ele>188</ele>
        <time>2018-07-12T09:16:59Z</time>
      </trkpt>
      <trkpt lat="46.06453" lon="4.72768">
        <ele>188</ele>
        <time>2018-07-12T09:17:00Z</time>
      </trkpt>
      <trkpt lat="46.06454" lon="4.72777">
        <ele>188</ele>
        <time>2018-07-12T09:17:01Z</time>
      </trkpt>
      <trkpt lat="46.06451" lon="4.72786">
        <ele>188</ele>
        <time>2018-07-12T09:17:02Z</time>
      </trkpt>
      <trkpt lat="46.06453" lon="4.72796">
        <ele>188</ele>
        <time>2018-07-12T09:17:03Z</time>
      </trkpt>
      <trkpt lat="46.06456" lon="4.72805">
        <ele>188</ele>
        <time>2018-07-12T09:17:04Z</time>
      </trkpt>
      <trkpt lat="46.06454" lon="4.72814">
        <ele>188</ele>
        <time>2018-07-12T09:17:05Z</time>
      </trkpt>
      <trkpt lat="46.06456" lon="4.72824">
        <ele>188</ele>
        <time>2018-07-12T09:17:06Z</time>
      </trkpt>
      <trkpt lat="46.06458" lon="4.72833">
        <ele>188</ele>
        <time>2018-07-12T09:17:07Z</time>
      </trkpt>
      <trkpt lat="46.0646" lon="4.72843">
        <ele>188</ele>
        <time>2018-07-12T09:17:08Z</time>
      </trkpt>
      <trkpt lat="46.06462" lon="4.72854">
        <ele>188</ele>
        <time>2018-07-12T09:17:09Z</time>
      </trkpt>
      <trkpt lat="46.06464" lon="4.72864">
        <ele>188</ele>
        <time>2018-07-12T09:17:10Z</time>
      </trkpt>
      <trkpt lat="46.06466" lon="4.72874">
        <ele>188</ele>
        <time>2018-07-12T09:17:11Z</time>
      </trkpt>
      <trkpt lat="46.0647" lon="4.72877">
        <ele>188</ele>
        <time>2018-07-12T09:17:12Z</time>
      </trkpt>
      <trkpt lat="46.06471" lon="4.72885">
        <ele>188</ele>
        <time>2018-07-12T09:17:13Z</time>
      </trkpt>
      <trkpt lat="46.06473" lon="4.72896">
        <ele>188</ele>
        <time>2018-07-12T09:17:14Z</time>
      </trkpt>
      <trkpt lat="46.06475" lon="4.72905">
        <ele>188</ele>
        <time>2018-07-12T09:17:15Z</time>
      </trkpt>
      <trkpt lat="46.06473" lon="4.72913">
        <ele>188</ele>
        <time>2018-07-12T09:17:16Z</time>
      </trkpt>
      <trkpt lat="46.06475" lon="4.72922">
        <ele>188</ele>
        <time>2018-07-12T09:17:17Z</time>
      </trkpt>
      <trkpt lat="46.06478" lon="4.72931">
        <ele>188</ele>
        <time>2018-07-12T09:17:18Z</time>
      </trkpt>
      <trkpt lat="46.0648" lon="4.72941">
        <ele>188</ele>
        <time>2018-07-12T09:17:19Z</time>
      </trkpt>
      <trkpt lat="46.0648" lon="4.72951">
        <ele>188</ele>
        <time>2018-07-12T09:17:20Z</time>
      </trkpt>
      <trkpt lat="46.06482" lon="4.7296">
        <ele>188</ele>
        <time>2018-07-12T09:17:21Z</time>
      </trkpt>
      <trkpt lat="46.06482" lon="4.72968">
        <ele>188</ele>
        <time>2018-07-12T09:17:22Z</time>
      </trkpt>
      <trkpt lat="46.06481" lon="4.72975">
        <ele>188</ele>
        <time>2018-07-12T09:17:23Z</time>
      </trkpt>
      <trkpt lat="46.0648" lon="4.72983">
        <ele>189</ele>
        <time>2018-07-12T09:17:24Z</time>
      </trkpt>
      <trkpt lat="46.06481" lon="4.72989">
        <ele>189</ele>
        <time>2018-07-12T09:17:25Z</time>
      </trkpt>
      <trkpt lat="46.06485" lon="4.72995">
        <ele>189</ele>
        <time>2018-07-12T09:17:26Z</time>
      </trkpt>
      <trkpt lat="46.06489" lon="4.72999">
        <ele>189</ele>
        <time>2018-07-12T09:17:27Z</time>
      </trkpt>
      <trkpt lat="46.06492" lon="4.73004">
        <ele>189</ele>
        <time>2018-07-12T09:17:28Z</time>
      </trkpt>
      <trkpt lat="46.06496" lon="4.73009">
        <ele>189</ele>
        <time>2018-07-12T09:17:29Z</time>
      </trkpt>
      <trkpt lat="46.06499" lon="4.73014">
        <ele>189</ele>
        <time>2018-07-12T09:17:30Z</time>
      </trkpt>
      <trkpt lat="46.06503" lon="4.73021">
        <ele>189</ele>
        <time>2018-07-12T09:17:31Z</time>
      </trkpt>
      <trkpt lat="46.06507" lon="4.73029">
        <ele>189</ele>
        <time>2018-07-12T09:17:32Z</time>
      </trkpt>
      <trkpt lat="46.0651" lon="4.73035">
        <ele>189</ele>
        <time>2018-07-12T09:17:33Z</time>
      </trkpt>
      <trkpt lat="46.06512" lon="4.73043">
        <ele>188</ele>
        <time>2018-07-12T09:17:34Z</time>
      </trkpt>
      <trkpt lat="46.06515" lon="4.73051">
        <ele>188</ele>
        <time>2018-07-12T09:17:35Z</time>
      </trkpt>
      <trkpt lat="46.06518" lon="4.73059">
        <ele>188</ele>
        <time>2018-07-12T09:17:36Z</time>
      </trkpt>
      <trkpt lat="46.0652" lon="4.73067">
        <ele>188</ele>
        <time>2018-07-12T09:17:37Z</time>
      </trkpt>
      <trkpt lat="46.06522" lon="4.73075">
        <ele>188</ele>
        <time>2018-07-12T09:17:38Z</time>
      </trkpt>
      <trkpt lat="46.06525" lon="4.73083">
        <ele>188</ele>
        <time>2018-07-12T09:17:39Z</time>
      </trkpt>
      <trkpt lat="46.06527" lon="4.7309">
        <ele>188</ele>
        <time>2018-07-12T09:17:40Z</time>
      </trkpt>
      <trkpt lat="46.06529" lon="4.73097">
        <ele>188</ele>
        <time>2018-07-12T09:17:41Z</time>
      </trkpt>
      <trkpt lat="46.06532" lon="4.73105">
        <ele>188</ele>
        <time>2018-07-12T09:17:42Z</time>
      </trkpt>
      <trkpt lat="46.06534" lon="4.73112">
        <ele>188</ele>
        <time>2018-07-12T09:17:43Z</time>
      </trkpt>
      <trkpt lat="46.06536" lon="4.73119">
        <ele>188</ele>
        <time>2018-07-12T09:17:44Z</time>
      </trkpt>
      <trkpt lat="46.06538" lon="4.73127">
        <ele>188</ele>
        <time>2018-07-12T09:17:45Z</time>
      </trkpt>
      <trkpt lat="46.06539" lon="4.73135">
        <ele>188</ele>
        <time>2018-07-12T09:17:46Z</time>
      </trkpt>
      <trkpt lat="46.06539" lon="4.73144">
        <ele>188</ele>
        <time>2018-07-12T09:17:47Z</time>
      </trkpt>
      <trkpt lat="46.06542" lon="4.73154">
        <ele>187</ele>
        <time>2018-07-12T09:17:48Z</time>
      </trkpt>
      <trkpt lat="46.06542" lon="4.73164">
        <ele>187</ele>
        <time>2018-07-12T09:17:49Z</time>
      </trkpt>
      <trkpt lat="46.06544" lon="4.73173">
        <ele>187</ele>
        <time>2018-07-12T09:17:50Z</time>
      </trkpt>
      <trkpt lat="46.06543" lon="4.73183">
        <ele>187</ele>
        <time>2018-07-12T09:17:51Z</time>
      </trkpt>
      <trkpt lat="46.06545" lon="4.73193">
        <ele>187</ele>
        <time>2018-07-12T09:17:52Z</time>
      </trkpt>
      <trkpt lat="46.06548" lon="4.73203">
        <ele>186</ele>
        <time>2018-07-12T09:17:53Z</time>
      </trkpt>
      <trkpt lat="46.0655" lon="4.73212">
        <ele>186</ele>
        <time>2018-07-12T09:17:54Z</time>
      </trkpt>
      <trkpt lat="46.06553" lon="4.73221">
        <ele>186</ele>
        <time>2018-07-12T09:17:55Z</time>
      </trkpt>
      <trkpt lat="46.06556" lon="4.73229">
        <ele>186</ele>
        <time>2018-07-12T09:17:56Z</time>
      </trkpt>
      <trkpt lat="46.06558" lon="4.73237">
        <ele>186</ele>
        <time>2018-07-12T09:17:57Z</time>
      </trkpt>
      <trkpt lat="46.06561" lon="4.73245">
        <ele>186</ele>
        <time>2018-07-12T09:17:58Z</time>
      </trkpt>
      <trkpt lat="46.06562" lon="4.73252">
        <ele>184</ele>
        <time>2018-07-12T09:17:59Z</time>
      </trkpt>
      <trkpt lat="46.06564" lon="4.7326">
        <ele>184</ele>
        <time>2018-07-12T09:18:00Z</time>
      </trkpt>
      <trkpt lat="46.06567" lon="4.73268">
        <ele>184</ele>
        <time>2018-07-12T09:18:01Z</time>
      </trkpt>
      <trkpt lat="46.0657" lon="4.73276">
        <ele>184</ele>
        <time>2018-07-12T09:18:02Z</time>
      </trkpt>
      <trkpt lat="46.06573" lon="4.73284">
        <ele>184</ele>
        <time>2018-07-12T09:18:03Z</time>
      </trkpt>
      <trkpt lat="46.06576" lon="4.73293">
        <ele>184</ele>
        <time>2018-07-12T09:18:04Z</time>
      </trkpt>
      <trkpt lat="46.06578" lon="4.73301">
        <ele>183</ele>
        <time>2018-07-12T09:18:05Z</time>
      </trkpt>
      <trkpt lat="46.0658" lon="4.7331">
        <ele>183</ele>
        <time>2018-07-12T09:18:06Z</time>
      </trkpt>
      <trkpt lat="46.06583" lon="4.73318">
        <ele>182</ele>
        <time>2018-07-12T09:18:07Z</time>
      </trkpt>
      <trkpt lat="46.06586" lon="4.73327">
        <ele>182</ele>
        <time>2018-07-12T09:18:08Z</time>
      </trkpt>
      <trkpt lat="46.06587" lon="4.73335">
        <ele>182</ele>
        <time>2018-07-12T09:18:09Z</time>
      </trkpt>
      <trkpt lat="46.06591" lon="4.7334">
        <ele>182</ele>
        <time>2018-07-12T09:18:10Z</time>
      </trkpt>
      <trkpt lat="46.06596" lon="4.73345">
        <ele>182</ele>
        <time>2018-07-12T09:18:11Z</time>
      </trkpt>
      <trkpt lat="46.06602" lon="4.73349">
        <ele>182</ele>
        <time>2018-07-12T09:18:12Z</time>
      </trkpt>
      <trkpt lat="46.06608" lon="4.73351">
        <ele>182</ele>
        <time>2018-07-12T09:18:13Z</time>
      </trkpt>
      <trkpt lat="46.06616" lon="4.73354">
        <ele>182</ele>
        <time>2018-07-12T09:18:14Z</time>
      </trkpt>
      <trkpt lat="46.06624" lon="4.73358">
        <ele>182</ele>
        <time>2018-07-12T09:18:15Z</time>
      </trkpt>
      <trkpt lat="46.06631" lon="4.73363">
        <ele>182</ele>
        <time>2018-07-12T09:18:16Z</time>
      </trkpt>
      <trkpt lat="46.06637" lon="4.73368">
        <ele>182</ele>
        <time>2018-07-12T09:18:17Z</time>
      </trkpt>
      <trkpt lat="46.06642" lon="4.73375">
        <ele>182</ele>
        <time>2018-07-12T09:18:18Z</time>
      </trkpt>
      <trkpt lat="46.06648" lon="4.73382">
        <ele>182</ele>
        <time>2018-07-12T09:18:19Z</time>
      </trkpt>
      <trkpt lat="46.06653" lon="4.73389">
        <ele>182</ele>
        <time>2018-07-12T09:18:20Z</time>
      </trkpt>
      <trkpt lat="46.06658" lon="4.73396">
        <ele>182</ele>
        <time>2018-07-12T09:18:21Z</time>
      </trkpt>
      <trkpt lat="46.06663" lon="4.73402">
        <ele>182</ele>
        <time>2018-07-12T09:18:22Z</time>
      </trkpt>
      <trkpt lat="46.06668" lon="4.73407">
        <ele>181</ele>
        <time>2018-07-12T09:18:23Z</time>
      </trkpt>
      <trkpt lat="46.06673" lon="4.73413">
        <ele>182</ele>
        <time>2018-07-12T09:18:24Z</time>
      </trkpt>
      <trkpt lat="46.06678" lon="4.7342">
        <ele>181</ele>
        <time>2018-07-12T09:18:25Z</time>
      </trkpt>
      <trkpt lat="46.06681" lon="4.73428">
        <ele>181</ele>
        <time>2018-07-12T09:18:26Z</time>
      </trkpt>
      <trkpt lat="46.06686" lon="4.73435">
        <ele>181</ele>
        <time>2018-07-12T09:18:27Z</time>
      </trkpt>
      <trkpt lat="46.06692" lon="4.7344">
        <ele>181</ele>
        <time>2018-07-12T09:18:28Z</time>
      </trkpt>
      <trkpt lat="46.06696" lon="4.73447">
        <ele>180</ele>
        <time>2018-07-12T09:18:29Z</time>
      </trkpt>
      <trkpt lat="46.06702" lon="4.73454">
        <ele>180</ele>
        <time>2018-07-12T09:18:30Z</time>
      </trkpt>
      <trkpt lat="46.06706" lon="4.73461">
        <ele>180</ele>
        <time>2018-07-12T09:18:31Z</time>
      </trkpt>
      <trkpt lat="46.06711" lon="4.73468">
        <ele>180</ele>
        <time>2018-07-12T09:18:32Z</time>
      </trkpt>
      <trkpt lat="46.06716" lon="4.73475">
        <ele>180</ele>
        <time>2018-07-12T09:18:33Z</time>
      </trkpt>
      <trkpt lat="46.06721" lon="4.73482">
        <ele>180</ele>
        <time>2018-07-12T09:18:34Z</time>
      </trkpt>
      <trkpt lat="46.06726" lon="4.73489">
        <ele>180</ele>
        <time>2018-07-12T09:18:35Z</time>
      </trkpt>
      <trkpt lat="46.06731" lon="4.73495">
        <ele>180</ele>
        <time>2018-07-12T09:18:36Z</time>
      </trkpt>
      <trkpt lat="46.06736" lon="4.73502">
        <ele>180</ele>
        <time>2018-07-12T09:18:37Z</time>
      </trkpt>
      <trkpt lat="46.0674" lon="4.73509">
        <ele>180</ele>
        <time>2018-07-12T09:18:38Z</time>
      </trkpt>
      <trkpt lat="46.06744" lon="4.73517">
        <ele>180</ele>
        <time>2018-07-12T09:18:39Z</time>
      </trkpt>
      <trkpt lat="46.06748" lon="4.73524">
        <ele>180</ele>
        <time>2018-07-12T09:18:40Z</time>
      </trkpt>
      <trkpt lat="46.06753" lon="4.7353">
        <ele>179</ele>
        <time>2018-07-12T09:18:41Z</time>
      </trkpt>
      <trkpt lat="46.06757" lon="4.73535">
        <ele>179</ele>
        <time>2018-07-12T09:18:42Z</time>
      </trkpt>
      <trkpt lat="46.0676" lon="4.73542">
        <ele>179</ele>
        <time>2018-07-12T09:18:43Z</time>
      </trkpt>
      <trkpt lat="46.06764" lon="4.73549">
        <ele>179</ele>
        <time>2018-07-12T09:18:44Z</time>
      </trkpt>
      <trkpt lat="46.0677" lon="4.73555">
        <ele>179</ele>
        <time>2018-07-12T09:18:45Z</time>
      </trkpt>
      <trkpt lat="46.06773" lon="4.73562">
        <ele>179</ele>
        <time>2018-07-12T09:18:46Z</time>
      </trkpt>
      <trkpt lat="46.06776" lon="4.73569">
        <ele>180</ele>
        <time>2018-07-12T09:18:47Z</time>
      </trkpt>
      <trkpt lat="46.06778" lon="4.73576">
        <ele>180</ele>
        <time>2018-07-12T09:18:48Z</time>
      </trkpt>
      <trkpt lat="46.06781" lon="4.73583">
        <ele>179</ele>
        <time>2018-07-12T09:18:49Z</time>
      </trkpt>
      <trkpt lat="46.06787" lon="4.7359">
        <ele>179</ele>
        <time>2018-07-12T09:18:50Z</time>
      </trkpt>
      <trkpt lat="46.06791" lon="4.73596">
        <ele>179</ele>
        <time>2018-07-12T09:18:51Z</time>
      </trkpt>
      <trkpt lat="46.06794" lon="4.73603">
        <ele>179</ele>
        <time>2018-07-12T09:18:52Z</time>
      </trkpt>
      <trkpt lat="46.06807" lon="4.73607">
        <ele>178</ele>
        <time>2018-07-12T09:18:53Z</time>
      </trkpt>
      <trkpt lat="46.06808" lon="4.73614">
        <ele>178</ele>
        <time>2018-07-12T09:18:54Z</time>
      </trkpt>
      <trkpt lat="46.06814" lon="4.73621">
        <ele>178</ele>
        <time>2018-07-12T09:18:55Z</time>
      </trkpt>
      <trkpt lat="46.0682" lon="4.73627">
        <ele>178</ele>
        <time>2018-07-12T09:18:56Z</time>
      </trkpt>
      <trkpt lat="46.06825" lon="4.73633">
        <ele>178</ele>
        <time>2018-07-12T09:18:57Z</time>
      </trkpt>
      <trkpt lat="46.06832" lon="4.7364">
        <ele>177</ele>
        <time>2018-07-12T09:18:58Z</time>
      </trkpt>
      <trkpt lat="46.06836" lon="4.73646">
        <ele>176</ele>
        <time>2018-07-12T09:18:59Z</time>
      </trkpt>
      <trkpt lat="46.06841" lon="4.73651">
        <ele>176</ele>
        <time>2018-07-12T09:19:00Z</time>
      </trkpt>
      <trkpt lat="46.06846" lon="4.73656">
        <ele>176</ele>
        <time>2018-07-12T09:19:01Z</time>
      </trkpt>
      <trkpt lat="46.06852" lon="4.73663">
        <ele>176</ele>
        <time>2018-07-12T09:19:02Z</time>
      </trkpt>
      <trkpt lat="46.06856" lon="4.73671">
        <ele>176</ele>
        <time>2018-07-12T09:19:03Z</time>
      </trkpt>
      <trkpt lat="46.06861" lon="4.73677">
        <ele>176</ele>
        <time>2018-07-12T09:19:04Z</time>
      </trkpt>
      <trkpt lat="46.06867" lon="4.73684">
        <ele>176</ele>
        <time>2018-07-12T09:19:05Z</time>
      </trkpt>
      <trkpt lat="46.06873" lon="4.73688">
        <ele>176</ele>
        <time>2018-07-12T09:19:06Z</time>
      </trkpt>
      <trkpt lat="46.06879" lon="4.73695">
        <ele>176</ele>
        <time>2018-07-12T09:19:07Z</time>
      </trkpt>
      <trkpt lat="46.06883" lon="4.73701">
        <ele>176</ele>
        <time>2018-07-12T09:19:08Z</time>
      </trkpt>
      <trkpt lat="46.06888" lon="4.73707">
        <ele>176</ele>
        <time>2018-07-12T09:19:09Z</time>
      </trkpt>
      <trkpt lat="46.06894" lon="4.73714">
        <ele>176</ele>
        <time>2018-07-12T09:19:10Z</time>
      </trkpt>
      <trkpt lat="46.06903" lon="4.73721">
        <ele>176</ele>
        <time>2018-07-12T09:19:11Z</time>
      </trkpt>
      <trkpt lat="46.06907" lon="4.73728">
        <ele>177</ele>
        <time>2018-07-12T09:19:12Z</time>
      </trkpt>
      <trkpt lat="46.0691" lon="4.73736">
        <ele>177</ele>
        <time>2018-07-12T09:19:13Z</time>
      </trkpt>
      <trkpt lat="46.06913" lon="4.73744">
        <ele>177</ele>
        <time>2018-07-12T09:19:14Z</time>
      </trkpt>
      <trkpt lat="46.06917" lon="4.7375">
        <ele>177</ele>
        <time>2018-07-12T09:19:15Z</time>
      </trkpt>
      <trkpt lat="46.06922" lon="4.73757">
        <ele>177</ele>
        <time>2018-07-12T09:19:16Z</time>
      </trkpt>
      <trkpt lat="46.06927" lon="4.73763">
        <ele>177</ele>
        <time>2018-07-12T09:19:17Z</time>
      </trkpt>
      <trkpt lat="46.06932" lon="4.73768">
        <ele>176</ele>
        <time>2018-07-12T09:19:18Z</time>
      </trkpt>
      <trkpt lat="46.06938" lon="4.73773">
        <ele>176</ele>
        <time>2018-07-12T09:19:19Z</time>
      </trkpt>
      <trkpt lat="46.06943" lon="4.73776">
        <ele>176</ele>
        <time>2018-07-12T09:19:20Z</time>
      </trkpt>
      <trkpt lat="46.06945" lon="4.73781">
        <ele>176</ele>
        <time>2018-07-12T09:19:21Z</time>
      </trkpt>
      <trkpt lat="46.06951" lon="4.73784">
        <ele>176</ele>
        <time>2018-07-12T09:19:22Z</time>
      </trkpt>
      <trkpt lat="46.06958" lon="4.73786">
        <ele>176</ele>
        <time>2018-07-12T09:19:23Z</time>
      </trkpt>
      <trkpt lat="46.06965" lon="4.73787">
        <ele>176</ele>
        <time>2018-07-12T09:19:24Z</time>
      </trkpt>
      <trkpt lat="46.06976" lon="4.73787">
        <ele>176</ele>
        <time>2018-07-12T09:19:25Z</time>
      </trkpt>
      <trkpt lat="46.06982" lon="4.73789">
        <ele>176</ele>
        <time>2018-07-12T09:19:26Z</time>
      </trkpt>
      <trkpt lat="46.0699" lon="4.73788">
        <ele>176</ele>
        <time>2018-07-12T09:19:27Z</time>
      </trkpt>
      <trkpt lat="46.06998" lon="4.7379">
        <ele>176</ele>
        <time>2018-07-12T09:19:28Z</time>
      </trkpt>
      <trkpt lat="46.07003" lon="4.73791">
        <ele>177</ele>
        <time>2018-07-12T09:19:29Z</time>
      </trkpt>
      <trkpt lat="46.07011" lon="4.73791">
        <ele>177</ele>
        <time>2018-07-12T09:19:30Z</time>
      </trkpt>
      <trkpt lat="46.07018" lon="4.73792">
        <ele>177</ele>
        <time>2018-07-12T09:19:31Z</time>
      </trkpt>
      <trkpt lat="46.07025" lon="4.73792">
        <ele>177</ele>
        <time>2018-07-12T09:19:32Z</time>
      </trkpt>
      <trkpt lat="46.07031" lon="4.73793">
        <ele>177</ele>
        <time>2018-07-12T09:19:33Z</time>
      </trkpt>
      <trkpt lat="46.07037" lon="4.73795">
        <ele>177</ele>
        <time>2018-07-12T09:19:34Z</time>
      </trkpt>
      <trkpt lat="46.07044" lon="4.73796">
        <ele>177</ele>
        <time>2018-07-12T09:19:35Z</time>
      </trkpt>
      <trkpt lat="46.0705" lon="4.73797">
        <ele>177</ele>
        <time>2018-07-12T09:19:36Z</time>
      </trkpt>
      <trkpt lat="46.07056" lon="4.73798">
        <ele>177</ele>
        <time>2018-07-12T09:19:37Z</time>
      </trkpt>
      <trkpt lat="46.07061" lon="4.73801">
        <ele>178</ele>
        <time>2018-07-12T09:19:38Z</time>
      </trkpt>
      <trkpt lat="46.07067" lon="4.73803">
        <ele>178</ele>
        <time>2018-07-12T09:19:39Z</time>
      </trkpt>
      <trkpt lat="46.07073" lon="4.73807">
        <ele>178</ele>
        <time>2018-07-12T09:19:40Z</time>
      </trkpt>
      <trkpt lat="46.07079" lon="4.7381">
        <ele>178</ele>
        <time>2018-07-12T09:19:41Z</time>
      </trkpt>
      <trkpt lat="46.07084" lon="4.73814">
        <ele>178</ele>
        <time>2018-07-12T09:19:42Z</time>
      </trkpt>
      <trkpt lat="46.07089" lon="4.73817">
        <ele>178</ele>
        <time>2018-07-12T09:19:43Z</time>
      </trkpt>
      <trkpt lat="46.07095" lon="4.73821">
        <ele>178</ele>
        <time>2018-07-12T09:19:44Z</time>
      </trkpt>
      <trkpt lat="46.071" lon="4.73825">
        <ele>178</ele>
        <time>2018-07-12T09:19:45Z</time>
      </trkpt>
      <trkpt lat="46.07105" lon="4.73829">
        <ele>178</ele>
        <time>2018-07-12T09:19:46Z</time>
      </trkpt>
      <trkpt lat="46.07111" lon="4.73834">
        <ele>177</ele>
        <time>2018-07-12T09:19:47Z</time>
      </trkpt>
      <trkpt lat="46.07116" lon="4.73839">
        <ele>177</ele>
        <time>2018-07-12T09:19:48Z</time>
      </trkpt>
      <trkpt lat="46.07119" lon="4.73843">
        <ele>177</ele>
        <time>2018-07-12T09:19:49Z</time>
      </trkpt>
      <trkpt lat="46.0712" lon="4.7385">
        <ele>177</ele>
        <time>2018-07-12T09:19:50Z</time>
      </trkpt>
      <trkpt lat="46.07123" lon="4.73856">
        <ele>177</ele>
        <time>2018-07-12T09:19:51Z</time>
      </trkpt>
      <trkpt lat="46.07129" lon="4.73863">
        <ele>176</ele>
        <time>2018-07-12T09:19:52Z</time>
      </trkpt>
      <trkpt lat="46.07133" lon="4.73868">
        <ele>176</ele>
        <time>2018-07-12T09:19:53Z</time>
      </trkpt>
      <trkpt lat="46.07137" lon="4.73876">
        <ele>176</ele>
        <time>2018-07-12T09:19:54Z</time>
      </trkpt>
      <trkpt lat="46.07141" lon="4.73883">
        <ele>176</ele>
        <time>2018-07-12T09:19:55Z</time>
      </trkpt>
      <trkpt lat="46.07145" lon="4.7389">
        <ele>177</ele>
        <time>2018-07-12T09:19:56Z</time>
      </trkpt>
      <trkpt lat="46.07149" lon="4.73898">
        <ele>177</ele>
        <time>2018-07-12T09:19:57Z</time>
      </trkpt>
      <trkpt lat="46.07152" lon="4.73906">
        <ele>177</ele>
        <time>2018-07-12T09:19:58Z</time>
      </trkpt>
      <trkpt lat="46.07155" lon="4.73912">
        <ele>177</ele>
        <time>2018-07-12T09:19:59Z</time>
      </trkpt>
      <trkpt lat="46.07158" lon="4.7392">
        <ele>177</ele>
        <time>2018-07-12T09:20:00Z</time>
      </trkpt>
      <trkpt lat="46.07161" lon="4.73928">
        <ele>177</ele>
        <time>2018-07-12T09:20:01Z</time>
      </trkpt>
      <trkpt lat="46.07165" lon="4.73936">
        <ele>177</ele>
        <time>2018-07-12T09:20:02Z</time>
      </trkpt>
      <trkpt lat="46.07167" lon="4.73943">
        <ele>177</ele>
        <time>2018-07-12T09:20:03Z</time>
      </trkpt>
      <trkpt lat="46.07169" lon="4.73951">
        <ele>177</ele>
        <time>2018-07-12T09:20:04Z</time>
      </trkpt>
      <trkpt lat="46.07172" lon="4.73959">
        <ele>178</ele>
        <time>2018-07-12T09:20:05Z</time>
      </trkpt>
      <trkpt lat="46.07174" lon="4.73967">
        <ele>178</ele>
        <time>2018-07-12T09:20:06Z</time>
      </trkpt>
      <trkpt lat="46.07175" lon="4.73974">
        <ele>178</ele>
        <time>2018-07-12T09:20:07Z</time>
      </trkpt>
      <trkpt lat="46.07178" lon="4.73981">
        <ele>178</ele>
        <time>2018-07-12T09:20:08Z</time>
      </trkpt>
      <trkpt lat="46.0718" lon="4.73989">
        <ele>178</ele>
        <time>2018-07-12T09:20:09Z</time>
      </trkpt>
      <trkpt lat="46.07183" lon="4.73995">
        <ele>178</ele>
        <time>2018-07-12T09:20:10Z</time>
      </trkpt>
      <trkpt lat="46.07185" lon="4.74001">
        <ele>178</ele>
        <time>2018-07-12T09:20:11Z</time>
      </trkpt>
      <trkpt lat="46.07188" lon="4.74008">
        <ele>178</ele>
        <time>2018-07-12T09:20:12Z</time>
      </trkpt>
      <trkpt lat="46.0719" lon="4.74014">
        <ele>178</ele>
        <time>2018-07-12T09:20:13Z</time>
      </trkpt>
      <trkpt lat="46.07191" lon="4.74025">
        <ele>178</ele>
        <time>2018-07-12T09:20:15Z</time>
      </trkpt>
      <trkpt lat="46.07193" lon="4.74031">
        <ele>178</ele>
        <time>2018-07-12T09:20:16Z</time>
      </trkpt>
      <trkpt lat="46.07196" lon="4.7404">
        <ele>178</ele>
        <time>2018-07-12T09:20:18Z</time>
      </trkpt>
      <trkpt lat="46.07196" lon="4.74046">
        <ele>178</ele>
        <time>2018-07-12T09:20:19Z</time>
      </trkpt>
      <trkpt lat="46.07199" lon="4.74056">
        <ele>178</ele>
        <time>2018-07-12T09:20:21Z</time>
      </trkpt>
      <trkpt lat="46.072" lon="4.74057">
        <ele>178</ele>
        <time>2018-07-12T09:20:22Z</time>
      </trkpt>
      <trkpt lat="46.07205" lon="4.74067">
        <ele>178</ele>
        <time>2018-07-12T09:20:24Z</time>
      </trkpt>
      <trkpt lat="46.07206" lon="4.74073">
        <ele>178</ele>
        <time>2018-07-12T09:20:25Z</time>
      </trkpt>
      <trkpt lat="46.07209" lon="4.74083">
        <ele>177</ele>
        <time>2018-07-12T09:20:27Z</time>
      </trkpt>
      <trkpt lat="46.07211" lon="4.74089">
        <ele>177</ele>
        <time>2018-07-12T09:20:28Z</time>
      </trkpt>
      <trkpt lat="46.07215" lon="4.74099">
        <ele>177</ele>
        <time>2018-07-12T09:20:30Z</time>
      </trkpt>
      <trkpt lat="46.07217" lon="4.74105">
        <ele>177</ele>
        <time>2018-07-12T09:20:31Z</time>
      </trkpt>
      <trkpt lat="46.0722" lon="4.74111">
        <ele>177</ele>
        <time>2018-07-12T09:20:32Z</time>
      </trkpt>
      <trkpt lat="46.07222" lon="4.74117">
        <ele>177</ele>
        <time>2018-07-12T09:20:33Z</time>
      </trkpt>
      <trkpt lat="46.07225" lon="4.74124">
        <ele>177</ele>
        <time>2018-07-12T09:20:34Z</time>
      </trkpt>
      <trkpt lat="46.07227" lon="4.7413">
        <ele>177</ele>
        <time>2018-07-12T09:20:35Z</time>
      </trkpt>
      <trkpt lat="46.07229" lon="4.74137">
        <ele>177</ele>
        <time>2018-07-12T09:20:36Z</time>
      </trkpt>
      <trkpt lat="46.07231" lon="4.74144">
        <ele>177</ele>
        <time>2018-07-12T09:20:37Z</time>
      </trkpt>
      <trkpt lat="46.07233" lon="4.7415">
        <ele>177</ele>
        <time>2018-07-12T09:20:38Z</time>
      </trkpt>
      <trkpt lat="46.07235" lon="4.74157">
        <ele>177</ele>
        <time>2018-07-12T09:20:39Z</time>
      </trkpt>
      <trkpt lat="46.07237" lon="4.74164">
        <ele>177</ele>
        <time>2018-07-12T09:20:40Z</time>
      </trkpt>
      <trkpt lat="46.0724" lon="4.74172">
        <ele>176</ele>
        <time>2018-07-12T09:20:41Z</time>
      </trkpt>
      <trkpt lat="46.07243" lon="4.74181">
        <ele>176</ele>
        <time>2018-07-12T09:20:42Z</time>
      </trkpt>
      <trkpt lat="46.07245" lon="4.74189">
        <ele>176</ele>
        <time>2018-07-12T09:20:43Z</time>
      </trkpt>
      <trkpt lat="46.07247" lon="4.74197">
        <ele>176</ele>
        <time>2018-07-12T09:20:44Z</time>
      </trkpt>
      <trkpt lat="46.07249" lon="4.74205">
        <ele>176</ele>
        <time>2018-07-12T09:20:45Z</time>
      </trkpt>
      <trkpt lat="46.07252" lon="4.74214">
        <ele>176</ele>
        <time>2018-07-12T09:20:46Z</time>
      </trkpt>
      <trkpt lat="46.07255" lon="4.74222">
        <ele>176</ele>
        <time>2018-07-12T09:20:47Z</time>
      </trkpt>
      <trkpt lat="46.07258" lon="4.74231">
        <ele>175</ele>
        <time>2018-07-12T09:20:48Z</time>
      </trkpt>
      <trkpt lat="46.07261" lon="4.7424">
        <ele>175</ele>
        <time>2018-07-12T09:20:49Z</time>
      </trkpt>
      <trkpt lat="46.07265" lon="4.74249">
        <ele>175</ele>
        <time>2018-07-12T09:20:50Z</time>
      </trkpt>
      <trkpt lat="46.07268" lon="4.74259">
        <ele>175</ele>
        <time>2018-07-12T09:20:51Z</time>
      </trkpt>
      <trkpt lat="46.0727" lon="4.7427">
        <ele>175</ele>
        <time>2018-07-12T09:20:52Z</time>
      </trkpt>
      <trkpt lat="46.07274" lon="4.7428">
        <ele>175</ele>
        <time>2018-07-12T09:20:53Z</time>
      </trkpt>
      <trkpt lat="46.07278" lon="4.74288">
        <ele>174</ele>
        <time>2018-07-12T09:20:54Z</time>
      </trkpt>
      <trkpt lat="46.0728" lon="4.74298">
        <ele>174</ele>
        <time>2018-07-12T09:20:55Z</time>
      </trkpt>
      <trkpt lat="46.07281" lon="4.74311">
        <ele>174</ele>
        <time>2018-07-12T09:20:56Z</time>
      </trkpt>
      <trkpt lat="46.07283" lon="4.74323">
        <ele>174</ele>
        <time>2018-07-12T09:20:57Z</time>
      </trkpt>
      <trkpt lat="46.07287" lon="4.74334">
        <ele>174</ele>
        <time>2018-07-12T09:20:58Z</time>
      </trkpt>
      <trkpt lat="46.07289" lon="4.74347">
        <ele>174</ele>
        <time>2018-07-12T09:20:59Z</time>
      </trkpt>
      <trkpt lat="46.07291" lon="4.74356">
        <ele>174</ele>
        <time>2018-07-12T09:21:00Z</time>
      </trkpt>
      <trkpt lat="46.07292" lon="4.74367">
        <ele>174</ele>
        <time>2018-07-12T09:21:01Z</time>
      </trkpt>
      <trkpt lat="46.07293" lon="4.74378">
        <ele>174</ele>
        <time>2018-07-12T09:21:02Z</time>
      </trkpt>
      <trkpt lat="46.07294" lon="4.74389">
        <ele>174</ele>
        <time>2018-07-12T09:21:03Z</time>
      </trkpt>
      <trkpt lat="46.07294" lon="4.744">
        <ele>174</ele>
        <time>2018-07-12T09:21:04Z</time>
      </trkpt>
      <trkpt lat="46.07294" lon="4.74411">
        <ele>174</ele>
        <time>2018-07-12T09:21:05Z</time>
      </trkpt>
      <trkpt lat="46.07297" lon="4.74421">
        <ele>175</ele>
        <time>2018-07-12T09:21:06Z</time>
      </trkpt>
      <trkpt lat="46.073" lon="4.74429">
        <ele>175</ele>
        <time>2018-07-12T09:21:07Z</time>
      </trkpt>
      <trkpt lat="46.07302" lon="4.74438">
        <ele>175</ele>
        <time>2018-07-12T09:21:08Z</time>
      </trkpt>
      <trkpt lat="46.07304" lon="4.74445">
        <ele>175</ele>
        <time>2018-07-12T09:21:09Z</time>
      </trkpt>
      <trkpt lat="46.07306" lon="4.74455">
        <ele>175</ele>
        <time>2018-07-12T09:21:10Z</time>
      </trkpt>
      <trkpt lat="46.07308" lon="4.74463">
        <ele>175</ele>
        <time>2018-07-12T09:21:11Z</time>
      </trkpt>
      <trkpt lat="46.0731" lon="4.74472">
        <ele>175</ele>
        <time>2018-07-12T09:21:12Z</time>
      </trkpt>
      <trkpt lat="46.07313" lon="4.7448">
        <ele>175</ele>
        <time>2018-07-12T09:21:13Z</time>
      </trkpt>
      <trkpt lat="46.07316" lon="4.74488">
        <ele>175</ele>
        <time>2018-07-12T09:21:14Z</time>
      </trkpt>
      <trkpt lat="46.0732" lon="4.74497">
        <ele>175</ele>
        <time>2018-07-12T09:21:15Z</time>
      </trkpt>
      <trkpt lat="46.07323" lon="4.74504">
        <ele>176</ele>
        <time>2018-07-12T09:21:16Z</time>
      </trkpt>
      <trkpt lat="46.07327" lon="4.74512">
        <ele>176</ele>
        <time>2018-07-12T09:21:17Z</time>
      </trkpt>
      <trkpt lat="46.07331" lon="4.7452">
        <ele>176</ele>
        <time>2018-07-12T09:21:18Z</time>
      </trkpt>
      <trkpt lat="46.07336" lon="4.74527">
        <ele>175</ele>
        <time>2018-07-12T09:21:19Z</time>
      </trkpt>
      <trkpt lat="46.07339" lon="4.74533">
        <ele>175</ele>
        <time>2018-07-12T09:21:20Z</time>
      </trkpt>
      <trkpt lat="46.07344" lon="4.74541">
        <ele>175</ele>
        <time>2018-07-12T09:21:21Z</time>
      </trkpt>
      <trkpt lat="46.07349" lon="4.74548">
        <ele>175</ele>
        <time>2018-07-12T09:21:22Z</time>
      </trkpt>
      <trkpt lat="46.07351" lon="4.74554">
        <ele>175</ele>
        <time>2018-07-12T09:21:23Z</time>
      </trkpt>
      <trkpt lat="46.07355" lon="4.74561">
        <ele>175</ele>
        <time>2018-07-12T09:21:24Z</time>
      </trkpt>
      <trkpt lat="46.0736" lon="4.74568">
        <ele>175</ele>
        <time>2018-07-12T09:21:25Z</time>
      </trkpt>
      <trkpt lat="46.07362" lon="4.74576">
        <ele>175</ele>
        <time>2018-07-12T09:21:26Z</time>
      </trkpt>
      <trkpt lat="46.07367" lon="4.74583">
        <ele>175</ele>
        <time>2018-07-12T09:21:27Z</time>
      </trkpt>
      <trkpt lat="46.07372" lon="4.74589">
        <ele>175</ele>
        <time>2018-07-12T09:21:28Z</time>
      </trkpt>
      <trkpt lat="46.07378" lon="4.74596">
        <ele>174</ele>
        <time>2018-07-12T09:21:29Z</time>
      </trkpt>
      <trkpt lat="46.07381" lon="4.74603">
        <ele>174</ele>
        <time>2018-07-12T09:21:30Z</time>
      </trkpt>
      <trkpt lat="46.07385" lon="4.74615">
        <ele>174</ele>
        <time>2018-07-12T09:21:32Z</time>
      </trkpt>
      <trkpt lat="46.07387" lon="4.74622">
        <ele>174</ele>
        <time>2018-07-12T09:21:33Z</time>
      </trkpt>
      <trkpt lat="46.0739" lon="4.74629">
        <ele>174</ele>
        <time>2018-07-12T09:21:34Z</time>
      </trkpt>
      <trkpt lat="46.07394" lon="4.74635">
        <ele>174</ele>
        <time>2018-07-12T09:21:35Z</time>
      </trkpt>
      <trkpt lat="46.07397" lon="4.74643">
        <ele>174</ele>
        <time>2018-07-12T09:21:36Z</time>
      </trkpt>
      <trkpt lat="46.074" lon="4.74651">
        <ele>173</ele>
        <time>2018-07-12T09:21:37Z</time>
      </trkpt>
      <trkpt lat="46.07403" lon="4.74658">
        <ele>173</ele>
        <time>2018-07-12T09:21:38Z</time>
      </trkpt>
      <trkpt lat="46.07414" lon="4.74665">
        <ele>172</ele>
        <time>2018-07-12T09:21:39Z</time>
      </trkpt>
      <trkpt lat="46.07417" lon="4.74673">
        <ele>172</ele>
        <time>2018-07-12T09:21:40Z</time>
      </trkpt>
      <trkpt lat="46.0742" lon="4.74679">
        <ele>172</ele>
        <time>2018-07-12T09:21:41Z</time>
      </trkpt>
      <trkpt lat="46.07423" lon="4.74685">
        <ele>172</ele>
        <time>2018-07-12T09:21:42Z</time>
      </trkpt>
      <trkpt lat="46.07426" lon="4.74691">
        <ele>173</ele>
        <time>2018-07-12T09:21:43Z</time>
      </trkpt>
      <trkpt lat="46.0743" lon="4.74697">
        <ele>173</ele>
        <time>2018-07-12T09:21:44Z</time>
      </trkpt>
      <trkpt lat="46.07434" lon="4.74703">
        <ele>173</ele>
        <time>2018-07-12T09:21:45Z</time>
      </trkpt>
      <trkpt lat="46.07437" lon="4.7471">
        <ele>173</ele>
        <time>2018-07-12T09:21:46Z</time>
      </trkpt>
      <trkpt lat="46.07439" lon="4.74717">
        <ele>173</ele>
        <time>2018-07-12T09:21:47Z</time>
      </trkpt>
      <trkpt lat="46.07444" lon="4.74728">
        <ele>173</ele>
        <time>2018-07-12T09:21:49Z</time>
      </trkpt>
      <trkpt lat="46.07446" lon="4.74735">
        <ele>173</ele>
        <time>2018-07-12T09:21:50Z</time>
      </trkpt>
      <trkpt lat="46.0745" lon="4.74741">
        <ele>173</ele>
        <time>2018-07-12T09:21:51Z</time>
      </trkpt>
      <trkpt lat="46.07453" lon="4.74746">
        <ele>173</ele>
        <time>2018-07-12T09:21:52Z</time>
      </trkpt>
      <trkpt lat="46.07458" lon="4.74752">
        <ele>174</ele>
        <time>2018-07-12T09:21:53Z</time>
      </trkpt>
      <trkpt lat="46.07462" lon="4.74756">
        <ele>173</ele>
        <time>2018-07-12T09:21:54Z</time>
      </trkpt>
      <trkpt lat="46.07467" lon="4.74762">
        <ele>173</ele>
        <time>2018-07-12T09:21:55Z</time>
      </trkpt>
      <trkpt lat="46.07473" lon="4.74767">
        <ele>173</ele>
        <time>2018-07-12T09:21:56Z</time>
      </trkpt>
      <trkpt lat="46.07478" lon="4.74771">
        <ele>173</ele>
        <time>2018-07-12T09:21:57Z</time>
      </trkpt>
      <trkpt lat="46.07486" lon="4.74775">
        <ele>173</ele>
        <time>2018-07-12T09:21:58Z</time>
      </trkpt>
      <trkpt lat="46.07492" lon="4.74781">
        <ele>173</ele>
        <time>2018-07-12T09:21:59Z</time>
      </trkpt>
      <trkpt lat="46.07497" lon="4.74785">
        <ele>173</ele>
        <time>2018-07-12T09:22:00Z</time>
      </trkpt>
      <trkpt lat="46.07502" lon="4.7479">
        <ele>172</ele>
        <time>2018-07-12T09:22:01Z</time>
      </trkpt>
      <trkpt lat="46.07508" lon="4.74794">
        <ele>172</ele>
        <time>2018-07-12T09:22:02Z</time>
      </trkpt>
      <trkpt lat="46.07513" lon="4.74797">
        <ele>172</ele>
        <time>2018-07-12T09:22:03Z</time>
      </trkpt>
      <trkpt lat="46.07519" lon="4.74802">
        <ele>172</ele>
        <time>2018-07-12T09:22:04Z</time>
      </trkpt>
      <trkpt lat="46.07525" lon="4.74804">
        <ele>172</ele>
        <time>2018-07-12T09:22:05Z</time>
      </trkpt>
      <trkpt lat="46.07529" lon="4.74808">
        <ele>172</ele>
        <time>2018-07-12T09:22:06Z</time>
      </trkpt>
      <trkpt lat="46.07533" lon="4.74811">
        <ele>172</ele>
        <time>2018-07-12T09:22:07Z</time>
      </trkpt>
      <trkpt lat="46.07539" lon="4.74814">
        <ele>172</ele>
        <time>2018-07-12T09:22:08Z</time>
      </trkpt>
      <trkpt lat="46.07543" lon="4.74818">
        <ele>172</ele>
        <time>2018-07-12T09:22:09Z</time>
      </trkpt>
      <trkpt lat="46.07547" lon="4.74822">
        <ele>172</ele>
        <time>2018-07-12T09:22:10Z</time>
      </trkpt>
      <trkpt lat="46.07554" lon="4.74829">
        <ele>172</ele>
        <time>2018-07-12T09:22:12Z</time>
      </trkpt>
      <trkpt lat="46.07559" lon="4.74833">
        <ele>172</ele>
        <time>2018-07-12T09:22:13Z</time>
      </trkpt>
      <trkpt lat="46.07562" lon="4.74836">
        <ele>171</ele>
        <time>2018-07-12T09:22:14Z</time>
      </trkpt>
      <trkpt lat="46.07569" lon="4.74839">
        <ele>171</ele>
        <time>2018-07-12T09:22:15Z</time>
      </trkpt>
      <trkpt lat="46.07573" lon="4.74844">
        <ele>171</ele>
        <time>2018-07-12T09:22:16Z</time>
      </trkpt>
      <trkpt lat="46.0758" lon="4.74849">
        <ele>171</ele>
        <time>2018-07-12T09:22:17Z</time>
      </trkpt>
      <trkpt lat="46.07586" lon="4.74853">
        <ele>171</ele>
        <time>2018-07-12T09:22:18Z</time>
      </trkpt>
      <trkpt lat="46.07591" lon="4.74857">
        <ele>171</ele>
        <time>2018-07-12T09:22:19Z</time>
      </trkpt>
      <trkpt lat="46.07596" lon="4.74862">
        <ele>171</ele>
        <time>2018-07-12T09:22:20Z</time>
      </trkpt>
      <trkpt lat="46.07601" lon="4.74867">
        <ele>171</ele>
        <time>2018-07-12T09:22:21Z</time>
      </trkpt>
      <trkpt lat="46.07606" lon="4.7487">
        <ele>171</ele>
        <time>2018-07-12T09:22:22Z</time>
      </trkpt>
      <trkpt lat="46.07613" lon="4.74873">
        <ele>171</ele>
        <time>2018-07-12T09:22:23Z</time>
      </trkpt>
      <trkpt lat="46.07618" lon="4.74877">
        <ele>171</ele>
        <time>2018-07-12T09:22:24Z</time>
      </trkpt>
      <trkpt lat="46.07621" lon="4.74882">
        <ele>171</ele>
        <time>2018-07-12T09:22:25Z</time>
      </trkpt>
      <trkpt lat="46.07628" lon="4.74888">
        <ele>171</ele>
        <time>2018-07-12T09:22:27Z</time>
      </trkpt>
      <trkpt lat="46.07634" lon="4.74892">
        <ele>171</ele>
        <time>2018-07-12T09:22:28Z</time>
      </trkpt>
      <trkpt lat="46.07637" lon="4.74895">
        <ele>171</ele>
        <time>2018-07-12T09:22:29Z</time>
      </trkpt>
      <trkpt lat="46.07641" lon="4.74899">
        <ele>171</ele>
        <time>2018-07-12T09:22:30Z</time>
      </trkpt>
      <trkpt lat="46.07648" lon="4.74903">
        <ele>171</ele>
        <time>2018-07-12T09:22:31Z</time>
      </trkpt>
      <trkpt lat="46.07654" lon="4.74907">
        <ele>172</ele>
        <time>2018-07-12T09:22:32Z</time>
      </trkpt>
      <trkpt lat="46.0766" lon="4.74911">
        <ele>172</ele>
        <time>2018-07-12T09:22:33Z</time>
      </trkpt>
      <trkpt lat="46.07664" lon="4.74916">
        <ele>172</ele>
        <time>2018-07-12T09:22:34Z</time>
      </trkpt>
      <trkpt lat="46.07668" lon="4.7492">
        <ele>172</ele>
        <time>2018-07-12T09:22:35Z</time>
      </trkpt>
      <trkpt lat="46.07673" lon="4.74922">
        <ele>172</ele>
        <time>2018-07-12T09:22:36Z</time>
      </trkpt>
      <trkpt lat="46.07675" lon="4.74928">
        <ele>172</ele>
        <time>2018-07-12T09:22:37Z</time>
      </trkpt>
      <trkpt lat="46.0768" lon="4.74933">
        <ele>172</ele>
        <time>2018-07-12T09:22:38Z</time>
      </trkpt>
      <trkpt lat="46.07682" lon="4.74938">
        <ele>172</ele>
        <time>2018-07-12T09:22:39Z</time>
      </trkpt>
      <trkpt lat="46.07686" lon="4.74942">
        <ele>172</ele>
        <time>2018-07-12T09:22:40Z</time>
      </trkpt>
      <trkpt lat="46.07691" lon="4.74948">
        <ele>172</ele>
        <time>2018-07-12T09:22:41Z</time>
      </trkpt>
      <trkpt lat="46.07695" lon="4.74954">
        <ele>172</ele>
        <time>2018-07-12T09:22:42Z</time>
      </trkpt>
      <trkpt lat="46.07699" lon="4.74957">
        <ele>172</ele>
        <time>2018-07-12T09:22:43Z</time>
      </trkpt>
      <trkpt lat="46.07705" lon="4.74961">
        <ele>172</ele>
        <time>2018-07-12T09:22:44Z</time>
      </trkpt>
      <trkpt lat="46.07712" lon="4.74964">
        <ele>172</ele>
        <time>2018-07-12T09:22:45Z</time>
      </trkpt>
      <trkpt lat="46.07718" lon="4.74968">
        <ele>172</ele>
        <time>2018-07-12T09:22:46Z</time>
      </trkpt>
      <trkpt lat="46.07722" lon="4.74974">
        <ele>172</ele>
        <time>2018-07-12T09:22:47Z</time>
      </trkpt>
      <trkpt lat="46.07729" lon="4.74978">
        <ele>172</ele>
        <time>2018-07-12T09:22:48Z</time>
      </trkpt>
      <trkpt lat="46.07733" lon="4.74981">
        <ele>172</ele>
        <time>2018-07-12T09:22:49Z</time>
      </trkpt>
      <trkpt lat="46.07739" lon="4.74985">
        <ele>173</ele>
        <time>2018-07-12T09:22:50Z</time>
      </trkpt>
      <trkpt lat="46.07743" lon="4.74989">
        <ele>173</ele>
        <time>2018-07-12T09:22:51Z</time>
      </trkpt>
      <trkpt lat="46.07749" lon="4.74993">
        <ele>173</ele>
        <time>2018-07-12T09:22:52Z</time>
      </trkpt>
      <trkpt lat="46.07754" lon="4.74999">
        <ele>173</ele>
        <time>2018-07-12T09:22:53Z</time>
      </trkpt>
      <trkpt lat="46.07759" lon="4.75003">
        <ele>172</ele>
        <time>2018-07-12T09:22:54Z</time>
      </trkpt>
      <trkpt lat="46.07765" lon="4.75007">
        <ele>172</ele>
        <time>2018-07-12T09:22:55Z</time>
      </trkpt>
      <trkpt lat="46.07769" lon="4.7501">
        <ele>172</ele>
        <time>2018-07-12T09:22:56Z</time>
      </trkpt>
      <trkpt lat="46.07774" lon="4.75014">
        <ele>172</ele>
        <time>2018-07-12T09:22:57Z</time>
      </trkpt>
      <trkpt lat="46.07779" lon="4.75018">
        <ele>172</ele>
        <time>2018-07-12T09:22:58Z</time>
      </trkpt>
      <trkpt lat="46.07783" lon="4.75021">
        <ele>172</ele>
        <time>2018-07-12T09:22:59Z</time>
      </trkpt>
      <trkpt lat="46.07787" lon="4.75025">
        <ele>172</ele>
        <time>2018-07-12T09:23:00Z</time>
      </trkpt>
      <trkpt lat="46.07791" lon="4.75029">
        <ele>172</ele>
        <time>2018-07-12T09:23:01Z</time>
      </trkpt>
      <trkpt lat="46.07796" lon="4.75034">
        <ele>171</ele>
        <time>2018-07-12T09:23:02Z</time>
      </trkpt>
      <trkpt lat="46.078" lon="4.75037">
        <ele>171</ele>
        <time>2018-07-12T09:23:03Z</time>
      </trkpt>
      <trkpt lat="46.07804" lon="4.75042">
        <ele>171</ele>
        <time>2018-07-12T09:23:04Z</time>
      </trkpt>
      <trkpt lat="46.0781" lon="4.75046">
        <ele>171</ele>
        <time>2018-07-12T09:23:05Z</time>
      </trkpt>
      <trkpt lat="46.07816" lon="4.75049">
        <ele>171</ele>
        <time>2018-07-12T09:23:06Z</time>
      </trkpt>
      <trkpt lat="46.07823" lon="4.75058">
        <ele>171</ele>
        <time>2018-07-12T09:23:08Z</time>
      </trkpt>
      <trkpt lat="46.07824" lon="4.75062">
        <ele>171</ele>
        <time>2018-07-12T09:23:09Z</time>
      </trkpt>
      <trkpt lat="46.07828" lon="4.75068">
        <ele>171</ele>
        <time>2018-07-12T09:23:10Z</time>
      </trkpt>
      <trkpt lat="46.0783" lon="4.75074">
        <ele>171</ele>
        <time>2018-07-12T09:23:11Z</time>
      </trkpt>
      <trkpt lat="46.07835" lon="4.75077">
        <ele>171</ele>
        <time>2018-07-12T09:23:12Z</time>
      </trkpt>
      <trkpt lat="46.07839" lon="4.75084">
        <ele>171</ele>
        <time>2018-07-12T09:23:13Z</time>
      </trkpt>
      <trkpt lat="46.07841" lon="4.75091">
        <ele>171</ele>
        <time>2018-07-12T09:23:14Z</time>
      </trkpt>
      <trkpt lat="46.07846" lon="4.75098">
        <ele>171</ele>
        <time>2018-07-12T09:23:15Z</time>
      </trkpt>
      <trkpt lat="46.07849" lon="4.75104">
        <ele>171</ele>
        <time>2018-07-12T09:23:16Z</time>
      </trkpt>
      <trkpt lat="46.07853" lon="4.75111">
        <ele>171</ele>
        <time>2018-07-12T09:23:17Z</time>
      </trkpt>
      <trkpt lat="46.07857" lon="4.75117">
        <ele>171</ele>
        <time>2018-07-12T09:23:18Z</time>
      </trkpt>
      <trkpt lat="46.07859" lon="4.75123">
        <ele>171</ele>
        <time>2018-07-12T09:23:19Z</time>
      </trkpt>
      <trkpt lat="46.07862" lon="4.75128">
        <ele>171</ele>
        <time>2018-07-12T09:23:20Z</time>
      </trkpt>
      <trkpt lat="46.07864" lon="4.75134">
        <ele>171</ele>
        <time>2018-07-12T09:23:21Z</time>
      </trkpt>
      <trkpt lat="46.07868" lon="4.7514">
        <ele>171</ele>
        <time>2018-07-12T09:23:22Z</time>
      </trkpt>
      <trkpt lat="46.07872" lon="4.75145">
        <ele>171</ele>
        <time>2018-07-12T09:23:23Z</time>
      </trkpt>
      <trkpt lat="46.07875" lon="4.75151">
        <ele>171</ele>
        <time>2018-07-12T09:23:24Z</time>
      </trkpt>
      <trkpt lat="46.07879" lon="4.75156">
        <ele>171</ele>
        <time>2018-07-12T09:23:25Z</time>
      </trkpt>
      <trkpt lat="46.07882" lon="4.75162">
        <ele>171</ele>
        <time>2018-07-12T09:23:26Z</time>
      </trkpt>
      <trkpt lat="46.07886" lon="4.75167">
        <ele>171</ele>
        <time>2018-07-12T09:23:27Z</time>
      </trkpt>
      <trkpt lat="46.07889" lon="4.75173">
        <ele>171</ele>
        <time>2018-07-12T09:23:28Z</time>
      </trkpt>
      <trkpt lat="46.07893" lon="4.75179">
        <ele>171</ele>
        <time>2018-07-12T09:23:29Z</time>
      </trkpt>
      <trkpt lat="46.07896" lon="4.75186">
        <ele>171</ele>
        <time>2018-07-12T09:23:30Z</time>
      </trkpt>
      <trkpt lat="46.07899" lon="4.75193">
        <ele>171</ele>
        <time>2018-07-12T09:23:31Z</time>
      </trkpt>
      <trkpt lat="46.07902" lon="4.75199">
        <ele>171</ele>
        <time>2018-07-12T09:23:32Z</time>
      </trkpt>
      <trkpt lat="46.07906" lon="4.75205">
        <ele>171</ele>
        <time>2018-07-12T09:23:33Z</time>
      </trkpt>
      <trkpt lat="46.07911" lon="4.75212">
        <ele>171</ele>
        <time>2018-07-12T09:23:34Z</time>
      </trkpt>
      <trkpt lat="46.07915" lon="4.75219">
        <ele>171</ele>
        <time>2018-07-12T09:23:35Z</time>
      </trkpt>
      <trkpt lat="46.07918" lon="4.75229">
        <ele>170</ele>
        <time>2018-07-12T09:23:37Z</time>
      </trkpt>
      <trkpt lat="46.07921" lon="4.75236">
        <ele>170</ele>
        <time>2018-07-12T09:23:38Z</time>
      </trkpt>
      <trkpt lat="46.07925" lon="4.75242">
        <ele>170</ele>
        <time>2018-07-12T09:23:39Z</time>
      </trkpt>
      <trkpt lat="46.07928" lon="4.75248">
        <ele>170</ele>
        <time>2018-07-12T09:23:40Z</time>
      </trkpt>
      <trkpt lat="46.07931" lon="4.75254">
        <ele>170</ele>
        <time>2018-07-12T09:23:41Z</time>
      </trkpt>
      <trkpt lat="46.07935" lon="4.75262">
        <ele>170</ele>
        <time>2018-07-12T09:23:42Z</time>
      </trkpt>
      <trkpt lat="46.07938" lon="4.75268">
        <ele>169</ele>
        <time>2018-07-12T09:23:43Z</time>
      </trkpt>
      <trkpt lat="46.07942" lon="4.75275">
        <ele>169</ele>
        <time>2018-07-12T09:23:44Z</time>
      </trkpt>
      <trkpt lat="46.07946" lon="4.75282">
        <ele>169</ele>
        <time>2018-07-12T09:23:45Z</time>
      </trkpt>
      <trkpt lat="46.07949" lon="4.75288">
        <ele>169</ele>
        <time>2018-07-12T09:23:46Z</time>
      </trkpt>
      <trkpt lat="46.07953" lon="4.75295">
        <ele>169</ele>
        <time>2018-07-12T09:23:47Z</time>
      </trkpt>
      <trkpt lat="46.07956" lon="4.75302">
        <ele>169</ele>
        <time>2018-07-12T09:23:48Z</time>
      </trkpt>
      <trkpt lat="46.07959" lon="4.75309">
        <ele>169</ele>
        <time>2018-07-12T09:23:49Z</time>
      </trkpt>
      <trkpt lat="46.07962" lon="4.75315">
        <ele>169</ele>
        <time>2018-07-12T09:23:50Z</time>
      </trkpt>
      <trkpt lat="46.07966" lon="4.75321">
        <ele>169</ele>
        <time>2018-07-12T09:23:51Z</time>
      </trkpt>
      <trkpt lat="46.07969" lon="4.75327">
        <ele>169</ele>
        <time>2018-07-12T09:23:52Z</time>
      </trkpt>
      <trkpt lat="46.07972" lon="4.75334">
        <ele>168</ele>
        <time>2018-07-12T09:23:53Z</time>
      </trkpt>
      <trkpt lat="46.07977" lon="4.75341">
        <ele>168</ele>
        <time>2018-07-12T09:23:54Z</time>
      </trkpt>
      <trkpt lat="46.0798" lon="4.75348">
        <ele>168</ele>
        <time>2018-07-12T09:23:55Z</time>
      </trkpt>
      <trkpt lat="46.07983" lon="4.75355">
        <ele>168</ele>
        <time>2018-07-12T09:23:56Z</time>
      </trkpt>
      <trkpt lat="46.07986" lon="4.75361">
        <ele>168</ele>
        <time>2018-07-12T09:23:57Z</time>
      </trkpt>
      <trkpt lat="46.07992" lon="4.75367">
        <ele>168</ele>
        <time>2018-07-12T09:23:58Z</time>
      </trkpt>
      <trkpt lat="46.07994" lon="4.75374">
        <ele>168</ele>
        <time>2018-07-12T09:23:59Z</time>
      </trkpt>
      <trkpt lat="46.07996" lon="4.7538">
        <ele>168</ele>
        <time>2018-07-12T09:24:00Z</time>
      </trkpt>
      <trkpt lat="46.08" lon="4.75389">
        <ele>167</ele>
        <time>2018-07-12T09:24:02Z</time>
      </trkpt>
      <trkpt lat="46.08003" lon="4.75394">
        <ele>167</ele>
        <time>2018-07-12T09:24:03Z</time>
      </trkpt>
      <trkpt lat="46.08006" lon="4.75404">
        <ele>166</ele>
        <time>2018-07-12T09:24:06Z</time>
      </trkpt>
      <trkpt lat="46.08007" lon="4.75407">
        <ele>166</ele>
        <time>2018-07-12T09:24:07Z</time>
      </trkpt>
      <trkpt lat="46.08008" lon="4.75411">
        <ele>166</ele>
        <time>2018-07-12T09:24:08Z</time>
      </trkpt>
      <trkpt lat="46.08012" lon="4.75422">
        <ele>166</ele>
        <time>2018-07-12T09:24:09Z</time>
      </trkpt>
      <trkpt lat="46.08015" lon="4.75426">
        <ele>166</ele>
        <time>2018-07-12T09:24:10Z</time>
      </trkpt>
      <trkpt lat="46.08019" lon="4.7543">
        <ele>166</ele>
        <time>2018-07-12T09:24:11Z</time>
      </trkpt>
      <trkpt lat="46.08022" lon="4.75433">
        <ele>166</ele>
        <time>2018-07-12T09:24:13Z</time>
      </trkpt>
      <trkpt lat="46.08026" lon="4.7544">
        <ele>166</ele>
        <time>2018-07-12T09:24:14Z</time>
      </trkpt>
      <trkpt lat="46.08031" lon="4.7545">
        <ele>166</ele>
        <time>2018-07-12T09:24:16Z</time>
      </trkpt>
      <trkpt lat="46.08032" lon="4.75453">
        <ele>166</ele>
        <time>2018-07-12T09:24:17Z</time>
      </trkpt>
      <trkpt lat="46.08033" lon="4.75456">
        <ele>166</ele>
        <time>2018-07-12T09:24:18Z</time>
      </trkpt>
      <trkpt lat="46.08037" lon="4.75465">
        <ele>166</ele>
        <time>2018-07-12T09:24:19Z</time>
      </trkpt>
      <trkpt lat="46.08041" lon="4.75475">
        <ele>166</ele>
        <time>2018-07-12T09:24:22Z</time>
      </trkpt>
      <trkpt lat="46.08044" lon="4.75484">
        <ele>166</ele>
        <time>2018-07-12T09:24:23Z</time>
      </trkpt>
      <trkpt lat="46.08046" lon="4.7549">
        <ele>166</ele>
        <time>2018-07-12T09:24:24Z</time>
      </trkpt>
      <trkpt lat="46.08048" lon="4.75496">
        <ele>166</ele>
        <time>2018-07-12T09:24:25Z</time>
      </trkpt>
      <trkpt lat="46.0805" lon="4.75502">
        <ele>167</ele>
        <time>2018-07-12T09:24:27Z</time>
      </trkpt>
      <trkpt lat="46.08052" lon="4.75511">
        <ele>167</ele>
        <time>2018-07-12T09:24:28Z</time>
      </trkpt>
      <trkpt lat="46.08054" lon="4.75521">
        <ele>168</ele>
        <time>2018-07-12T09:24:29Z</time>
      </trkpt>
      <trkpt lat="46.08057" lon="4.75527">
        <ele>168</ele>
        <time>2018-07-12T09:24:30Z</time>
      </trkpt>
      <trkpt lat="46.08059" lon="4.75532">
        <ele>168</ele>
        <time>2018-07-12T09:24:31Z</time>
      </trkpt>
      <trkpt lat="46.08064" lon="4.75538">
        <ele>168</ele>
        <time>2018-07-12T09:24:32Z</time>
      </trkpt>
      <trkpt lat="46.08067" lon="4.75545">
        <ele>169</ele>
        <time>2018-07-12T09:24:33Z</time>
      </trkpt>
      <trkpt lat="46.0807" lon="4.75551">
        <ele>169</ele>
        <time>2018-07-12T09:24:34Z</time>
      </trkpt>
      <trkpt lat="46.08075" lon="4.75561">
        <ele>170</ele>
        <time>2018-07-12T09:24:36Z</time>
      </trkpt>
      <trkpt lat="46.08076" lon="4.75563">
        <ele>170</ele>
        <time>2018-07-12T09:24:37Z</time>
      </trkpt>
      <trkpt lat="46.0808" lon="4.75572">
        <ele>172</ele>
        <time>2018-07-12T09:24:38Z</time>
      </trkpt>
      <trkpt lat="46.08081" lon="4.75574">
        <ele>172</ele>
        <time>2018-07-12T09:24:39Z</time>
      </trkpt>
      <trkpt lat="46.08082" lon="4.75583">
        <ele>174</ele>
        <time>2018-07-12T09:24:44Z</time>
      </trkpt>
      <trkpt lat="46.08078" lon="4.75591">
        <ele>174</ele>
        <time>2018-07-12T09:24:45Z</time>
      </trkpt>
      <trkpt lat="46.08076" lon="4.75593">
        <ele>174</ele>
        <time>2018-07-12T09:24:47Z</time>
      </trkpt>
      <trkpt lat="46.08071" lon="4.75599">
        <ele>173</ele>
        <time>2018-07-12T09:24:48Z</time>
      </trkpt>
      <trkpt lat="46.08067" lon="4.75606">
        <ele>173</ele>
        <time>2018-07-12T09:24:50Z</time>
      </trkpt>
      <trkpt lat="46.08059" lon="4.75612">
        <ele>173</ele>
        <time>2018-07-12T09:24:51Z</time>
      </trkpt>
      <trkpt lat="46.08054" lon="4.7561">
        <ele>173</ele>
        <time>2018-07-12T09:24:56Z</time>
      </trkpt>
      <trkpt lat="46.08048" lon="4.75613">
        <ele>173</ele>
        <time>2018-07-12T09:24:57Z</time>
      </trkpt>
      <trkpt lat="46.08044" lon="4.75617">
        <ele>173</ele>
        <time>2018-07-12T09:25:02Z</time>
      </trkpt>
      <trkpt lat="46.08043" lon="4.75618">
        <ele>173</ele>
        <time>2018-07-12T09:25:03Z</time>
      </trkpt>
      <trkpt lat="46.08049" lon="4.75619">
        <ele>173</ele>
        <time>2018-07-12T09:26:03Z</time>
      </trkpt>
      <trkpt lat="46.08049" lon="4.75619">
        <ele>173</ele>
        <time>2018-07-12T09:26:04Z</time>
      </trkpt>
      <trkpt lat="46.0805" lon="4.75619">
        <ele>173</ele>
        <time>2018-07-12T09:30:21Z</time>
      </trkpt>
      <trkpt lat="46.0805" lon="4.75619">
        <ele>173</ele>
        <time>2018-07-12T09:30:22Z</time>
      </trkpt>
      <trkpt lat="46.08052" lon="4.75618">
        <ele>173</ele>
        <time>2018-07-12T09:34:10Z</time>
      </trkpt>
      <trkpt lat="46.08052" lon="4.75618">
        <ele>173</ele>
        <time>2018-07-12T09:34:11Z</time>
      </trkpt>
      <trkpt lat="46.08055" lon="4.75617">
        <ele>173</ele>
        <time>2018-07-12T09:34:41Z</time>
      </trkpt>
      <trkpt lat="46.08061" lon="4.75614">
        <ele>173</ele>
        <time>2018-07-12T09:34:47.867Z</time>
      </trkpt>
      <trkpt lat="46.08055" lon="4.75617">
        <ele>173</ele>
        <time>2018-07-12T09:35:13Z</time>
      </trkpt>
      <trkpt lat="46.08046" lon="4.75626">
        <ele>173</ele>
        <time>2018-07-12T09:35:22Z</time>
      </trkpt>
      <trkpt lat="46.08054" lon="4.75619">
        <ele>173</ele>
        <time>2018-07-12T09:35:42.812Z</time>
      </trkpt>
      <trkpt lat="46.08054" lon="4.75618">
        <ele>173</ele>
        <time>2018-07-12T09:35:43Z</time>
      </trkpt>
      <trkpt lat="46.08054" lon="4.75617">
        <ele>173</ele>
        <time>2018-07-12T09:35:48Z</time>
      </trkpt>
      <trkpt lat="46.08054" lon="4.75617">
        <ele>173</ele>
        <time>2018-07-12T09:35:49Z</time>
      </trkpt>
      <trkpt lat="46.08053" lon="4.75617">
        <ele>173</ele>
        <time>2018-07-12T09:35:50Z</time>
      </trkpt>
      <trkpt lat="46.08049" lon="4.75618">
        <ele>173</ele>
        <time>2018-07-12T09:35:57Z</time>
      </trkpt>
      <trkpt lat="46.08043" lon="4.75638">
        <ele>173</ele>
        <time>2018-07-12T09:36:03.556Z</time>
      </trkpt>
      <trkpt lat="46.08047" lon="4.7563">
        <ele>173</ele>
        <time>2018-07-12T09:36:04Z</time>
      </trkpt>
      <trkpt lat="46.08049" lon="4.75627">
        <ele>173</ele>
        <time>2018-07-12T09:36:05Z</time>
      </trkpt>
      <trkpt lat="46.08052" lon="4.75622">
        <ele>173</ele>
        <time>2018-07-12T09:36:28Z</time>
      </trkpt>
      <trkpt lat="46.08031" lon="4.75639">
        <ele>173</ele>
        <time>2018-07-12T09:36:37Z</time>
      </trkpt>
      <trkpt lat="46.08024" lon="4.7564">
        <ele>173</ele>
        <time>2018-07-12T09:36:40.11Z</time>
      </trkpt>
      <trkpt lat="46.08021" lon="4.75641">
        <ele>173</ele>
        <time>2018-07-12T09:36:40Z</time>
      </trkpt>
      <trkpt lat="46.08015" lon="4.75646">
        <ele>174</ele>
        <time>2018-07-12T09:36:42Z</time>
      </trkpt>
      <trkpt lat="46.08012" lon="4.75648">
        <ele>174</ele>
        <time>2018-07-12T09:36:43Z</time>
      </trkpt>
      <trkpt lat="46.08001" lon="4.75658">
        <ele>175</ele>
        <time>2018-07-12T09:36:44Z</time>
      </trkpt>
      <trkpt lat="46.07996" lon="4.75662">
        <ele>174</ele>
        <time>2018-07-12T09:36:45Z</time>
      </trkpt>
      <trkpt lat="46.07992" lon="4.75667">
        <ele>175</ele>
        <time>2018-07-12T09:36:46Z</time>
      </trkpt>
      <trkpt lat="46.07989" lon="4.75672">
        <ele>175</ele>
        <time>2018-07-12T09:36:47Z</time>
      </trkpt>
      <trkpt lat="46.07985" lon="4.75677">
        <ele>174</ele>
        <time>2018-07-12T09:36:48Z</time>
      </trkpt>
      <trkpt lat="46.07981" lon="4.75682">
        <ele>174</ele>
        <time>2018-07-12T09:36:49Z</time>
      </trkpt>
      <trkpt lat="46.07977" lon="4.75686">
        <ele>174</ele>
        <time>2018-07-12T09:36:50Z</time>
      </trkpt>
      <trkpt lat="46.07973" lon="4.7569">
        <ele>173</ele>
        <time>2018-07-12T09:36:51Z</time>
      </trkpt>
      <trkpt lat="46.0797" lon="4.75694">
        <ele>173</ele>
        <time>2018-07-12T09:36:52Z</time>
      </trkpt>
      <trkpt lat="46.07963" lon="4.75703">
        <ele>173</ele>
        <time>2018-07-12T09:36:54Z</time>
      </trkpt>
      <trkpt lat="46.0796" lon="4.75707">
        <ele>173</ele>
        <time>2018-07-12T09:36:55Z</time>
      </trkpt>
      <trkpt lat="46.07957" lon="4.75711">
        <ele>173</ele>
        <time>2018-07-12T09:36:56Z</time>
      </trkpt>
      <trkpt lat="46.07952" lon="4.75717">
        <ele>173</ele>
        <time>2018-07-12T09:36:57Z</time>
      </trkpt>
      <trkpt lat="46.07948" lon="4.75723">
        <ele>173</ele>
        <time>2018-07-12T09:36:58Z</time>
      </trkpt>
      <trkpt lat="46.07945" lon="4.75727">
        <ele>173</ele>
        <time>2018-07-12T09:36:59Z</time>
      </trkpt>
      <trkpt lat="46.07938" lon="4.75735">
        <ele>173</ele>
        <time>2018-07-12T09:37:01Z</time>
      </trkpt>
      <trkpt lat="46.07935" lon="4.75739">
        <ele>173</ele>
        <time>2018-07-12T09:37:02Z</time>
      </trkpt>
      <trkpt lat="46.07929" lon="4.75747">
        <ele>173</ele>
        <time>2018-07-12T09:37:04Z</time>
      </trkpt>
      <trkpt lat="46.07926" lon="4.75751">
        <ele>174</ele>
        <time>2018-07-12T09:37:05Z</time>
      </trkpt>
      <trkpt lat="46.0792" lon="4.75758">
        <ele>174</ele>
        <time>2018-07-12T09:37:07Z</time>
      </trkpt>
      <trkpt lat="46.07916" lon="4.75762">
        <ele>172</ele>
        <time>2018-07-12T09:37:08Z</time>
      </trkpt>
      <trkpt lat="46.0791" lon="4.75769">
        <ele>172</ele>
        <time>2018-07-12T09:37:10Z</time>
      </trkpt>
      <trkpt lat="46.07906" lon="4.75772">
        <ele>172</ele>
        <time>2018-07-12T09:37:11Z</time>
      </trkpt>
      <trkpt lat="46.07901" lon="4.75777">
        <ele>172</ele>
        <time>2018-07-12T09:37:13Z</time>
      </trkpt>
      <trkpt lat="46.07896" lon="4.75781">
        <ele>172</ele>
        <time>2018-07-12T09:37:14Z</time>
      </trkpt>
      <trkpt lat="46.07889" lon="4.75787">
        <ele>172</ele>
        <time>2018-07-12T09:37:16Z</time>
      </trkpt>
      <trkpt lat="46.07885" lon="4.7579">
        <ele>172</ele>
        <time>2018-07-12T09:37:17Z</time>
      </trkpt>
      <trkpt lat="46.07878" lon="4.75795">
        <ele>172</ele>
        <time>2018-07-12T09:37:19Z</time>
      </trkpt>
      <trkpt lat="46.07876" lon="4.75796">
        <ele>172</ele>
        <time>2018-07-12T09:37:20Z</time>
      </trkpt>
      <trkpt lat="46.07869" lon="4.75803">
        <ele>172</ele>
        <time>2018-07-12T09:38:17Z</time>
      </trkpt>
      <trkpt lat="46.07868" lon="4.75803">
        <ele>172</ele>
        <time>2018-07-12T09:38:18Z</time>
      </trkpt>
      <trkpt lat="46.07861" lon="4.75809">
        <ele>172</ele>
        <time>2018-07-12T09:38:23Z</time>
      </trkpt>
      <trkpt lat="46.0786" lon="4.7581">
        <ele>172</ele>
        <time>2018-07-12T09:38:24Z</time>
      </trkpt>
      <trkpt lat="46.07858" lon="4.75813">
        <ele>172</ele>
        <time>2018-07-12T09:38:25Z</time>
      </trkpt>
      <trkpt lat="46.07852" lon="4.75821">
        <ele>172</ele>
        <time>2018-07-12T09:38:26Z</time>
      </trkpt>
      <trkpt lat="46.07845" lon="4.75827">
        <ele>172</ele>
        <time>2018-07-12T09:38:28Z</time>
      </trkpt>
      <trkpt lat="46.07842" lon="4.7583">
        <ele>173</ele>
        <time>2018-07-12T09:38:29Z</time>
      </trkpt>
      <trkpt lat="46.07838" lon="4.75835">
        <ele>173</ele>
        <time>2018-07-12T09:38:30Z</time>
      </trkpt>
      <trkpt lat="46.07834" lon="4.75838">
        <ele>173</ele>
        <time>2018-07-12T09:38:31Z</time>
      </trkpt>
      <trkpt lat="46.07828" lon="4.75846">
        <ele>173</ele>
        <time>2018-07-12T09:38:33Z</time>
      </trkpt>
      <trkpt lat="46.07824" lon="4.75851">
        <ele>173</ele>
        <time>2018-07-12T09:38:34Z</time>
      </trkpt>
      <trkpt lat="46.0782" lon="4.75854">
        <ele>173</ele>
        <time>2018-07-12T09:38:35Z</time>
      </trkpt>
      <trkpt lat="46.07815" lon="4.75858">
        <ele>172</ele>
        <time>2018-07-12T09:38:36Z</time>
      </trkpt>
      <trkpt lat="46.07811" lon="4.75863">
        <ele>172</ele>
        <time>2018-07-12T09:38:37Z</time>
      </trkpt>
      <trkpt lat="46.07807" lon="4.75867">
        <ele>172</ele>
        <time>2018-07-12T09:38:38Z</time>
      </trkpt>
      <trkpt lat="46.07803" lon="4.75872">
        <ele>172</ele>
        <time>2018-07-12T09:38:39Z</time>
      </trkpt>
      <trkpt lat="46.07799" lon="4.75875">
        <ele>172</ele>
        <time>2018-07-12T09:38:40Z</time>
      </trkpt>
      <trkpt lat="46.07795" lon="4.75878">
        <ele>172</ele>
        <time>2018-07-12T09:38:41Z</time>
      </trkpt>
      <trkpt lat="46.07792" lon="4.75882">
        <ele>172</ele>
        <time>2018-07-12T09:38:42Z</time>
      </trkpt>
      <trkpt lat="46.07787" lon="4.75886">
        <ele>173</ele>
        <time>2018-07-12T09:38:43Z</time>
      </trkpt>
      <trkpt lat="46.07783" lon="4.7589">
        <ele>173</ele>
        <time>2018-07-12T09:38:44Z</time>
      </trkpt>
      <trkpt lat="46.07776" lon="4.75898">
        <ele>173</ele>
        <time>2018-07-12T09:38:46Z</time>
      </trkpt>
      <trkpt lat="46.07772" lon="4.759">
        <ele>173</ele>
        <time>2018-07-12T09:38:47Z</time>
      </trkpt>
      <trkpt lat="46.07764" lon="4.75905">
        <ele>173</ele>
        <time>2018-07-12T09:38:49Z</time>
      </trkpt>
      <trkpt lat="46.07759" lon="4.7591">
        <ele>173</ele>
        <time>2018-07-12T09:38:50Z</time>
      </trkpt>
      <trkpt lat="46.07755" lon="4.75913">
        <ele>174</ele>
        <time>2018-07-12T09:38:51Z</time>
      </trkpt>
      <trkpt lat="46.07751" lon="4.75917">
        <ele>174</ele>
        <time>2018-07-12T09:38:52Z</time>
      </trkpt>
      <trkpt lat="46.07747" lon="4.75921">
        <ele>174</ele>
        <time>2018-07-12T09:38:53Z</time>
      </trkpt>
      <trkpt lat="46.07743" lon="4.75924">
        <ele>173</ele>
        <time>2018-07-12T09:38:54Z</time>
      </trkpt>
      <trkpt lat="46.07735" lon="4.7593">
        <ele>173</ele>
        <time>2018-07-12T09:38:56Z</time>
      </trkpt>
      <trkpt lat="46.07731" lon="4.75933">
        <ele>173</ele>
        <time>2018-07-12T09:38:57Z</time>
      </trkpt>
      <trkpt lat="46.07727" lon="4.75936">
        <ele>173</ele>
        <time>2018-07-12T09:38:58Z</time>
      </trkpt>
      <trkpt lat="46.07723" lon="4.7594">
        <ele>173</ele>
        <time>2018-07-12T09:38:59Z</time>
      </trkpt>
      <trkpt lat="46.07719" lon="4.75942">
        <ele>173</ele>
        <time>2018-07-12T09:39:00Z</time>
      </trkpt>
      <trkpt lat="46.07714" lon="4.75946">
        <ele>172</ele>
        <time>2018-07-12T09:39:01Z</time>
      </trkpt>
      <trkpt lat="46.07709" lon="4.7595">
        <ele>172</ele>
        <time>2018-07-12T09:39:02Z</time>
      </trkpt>
      <trkpt lat="46.07706" lon="4.75954">
        <ele>172</ele>
        <time>2018-07-12T09:39:03Z</time>
      </trkpt>
      <trkpt lat="46.07702" lon="4.75959">
        <ele>172</ele>
        <time>2018-07-12T09:39:04Z</time>
      </trkpt>
      <trkpt lat="46.07697" lon="4.75961">
        <ele>172</ele>
        <time>2018-07-12T09:39:05Z</time>
      </trkpt>
      <trkpt lat="46.07693" lon="4.75965">
        <ele>172</ele>
        <time>2018-07-12T09:39:06Z</time>
      </trkpt>
      <trkpt lat="46.07688" lon="4.75968">
        <ele>172</ele>
        <time>2018-07-12T09:39:07Z</time>
      </trkpt>
      <trkpt lat="46.07681" lon="4.75972">
        <ele>172</ele>
        <time>2018-07-12T09:39:09Z</time>
      </trkpt>
      <trkpt lat="46.07677" lon="4.75975">
        <ele>172</ele>
        <time>2018-07-12T09:39:10Z</time>
      </trkpt>
      <trkpt lat="46.07668" lon="4.75978">
        <ele>172</ele>
        <time>2018-07-12T09:39:12Z</time>
      </trkpt>
      <trkpt lat="46.07665" lon="4.75981">
        <ele>170</ele>
        <time>2018-07-12T09:39:13Z</time>
      </trkpt>
      <trkpt lat="46.07661" lon="4.75984">
        <ele>171</ele>
        <time>2018-07-12T09:39:14Z</time>
      </trkpt>
      <trkpt lat="46.07657" lon="4.75988">
        <ele>171</ele>
        <time>2018-07-12T09:39:15Z</time>
      </trkpt>
      <trkpt lat="46.0765" lon="4.75994">
        <ele>171</ele>
        <time>2018-07-12T09:39:17Z</time>
      </trkpt>
      <trkpt lat="46.07649" lon="4.76001">
        <ele>172</ele>
        <time>2018-07-12T09:39:18Z</time>
      </trkpt>
      <trkpt lat="46.07647" lon="4.76011">
        <ele>172</ele>
        <time>2018-07-12T09:39:22Z</time>
      </trkpt>
      <trkpt lat="46.07649" lon="4.76022">
        <ele>172</ele>
        <time>2018-07-12T09:39:23Z</time>
      </trkpt>
      <trkpt lat="46.07651" lon="4.7603">
        <ele>172</ele>
        <time>2018-07-12T09:39:25Z</time>
      </trkpt>
      <trkpt lat="46.07652" lon="4.76034">
        <ele>172</ele>
        <time>2018-07-12T09:39:26Z</time>
      </trkpt>
      <trkpt lat="46.07656" lon="4.76045">
        <ele>172</ele>
        <time>2018-07-12T09:39:28Z</time>
      </trkpt>
      <trkpt lat="46.07659" lon="4.76049">
        <ele>172</ele>
        <time>2018-07-12T09:39:29Z</time>
      </trkpt>
      <trkpt lat="46.07661" lon="4.76059">
        <ele>172</ele>
        <time>2018-07-12T09:39:31Z</time>
      </trkpt>
      <trkpt lat="46.07663" lon="4.76062">
        <ele>172</ele>
        <time>2018-07-12T09:39:32Z</time>
      </trkpt>
      <trkpt lat="46.07668" lon="4.76072">
        <ele>174</ele>
        <time>2018-07-12T09:39:34Z</time>
      </trkpt>
      <trkpt lat="46.0767" lon="4.76078">
        <ele>173</ele>
        <time>2018-07-12T09:39:35Z</time>
      </trkpt>
      <trkpt lat="46.07674" lon="4.76087">
        <ele>173</ele>
        <time>2018-07-12T09:39:38Z</time>
      </trkpt>
      <trkpt lat="46.07675" lon="4.76089">
        <ele>173</ele>
        <time>2018-07-12T09:39:39Z</time>
      </trkpt>
      <trkpt lat="46.07676" lon="4.76099">
        <ele>173</ele>
        <time>2018-07-12T09:39:42Z</time>
      </trkpt>
      <trkpt lat="46.07672" lon="4.76109">
        <ele>173</ele>
        <time>2018-07-12T09:39:43Z</time>
      </trkpt>
      <trkpt lat="46.07666" lon="4.76116">
        <ele>172</ele>
        <time>2018-07-12T09:39:45Z</time>
      </trkpt>
      <trkpt lat="46.07661" lon="4.7612">
        <ele>172</ele>
        <time>2018-07-12T09:39:46Z</time>
      </trkpt>
      <trkpt lat="46.07658" lon="4.76125">
        <ele>172</ele>
        <time>2018-07-12T09:39:47Z</time>
      </trkpt>
      <trkpt lat="46.07654" lon="4.76129">
        <ele>172</ele>
        <time>2018-07-12T09:39:48Z</time>
      </trkpt>
      <trkpt lat="46.0765" lon="4.76135">
        <ele>172</ele>
        <time>2018-07-12T09:39:49Z</time>
      </trkpt>
      <trkpt lat="46.07647" lon="4.7614">
        <ele>172</ele>
        <time>2018-07-12T09:39:50Z</time>
      </trkpt>
      <trkpt lat="46.07642" lon="4.76144">
        <ele>172</ele>
        <time>2018-07-12T09:39:51Z</time>
      </trkpt>
      <trkpt lat="46.07639" lon="4.7615">
        <ele>172</ele>
        <time>2018-07-12T09:39:52Z</time>
      </trkpt>
      <trkpt lat="46.07637" lon="4.76157">
        <ele>172</ele>
        <time>2018-07-12T09:39:53Z</time>
      </trkpt>
      <trkpt lat="46.07632" lon="4.76162">
        <ele>172</ele>
        <time>2018-07-12T09:39:54Z</time>
      </trkpt>
      <trkpt lat="46.07627" lon="4.76166">
        <ele>172</ele>
        <time>2018-07-12T09:39:55Z</time>
      </trkpt>
      <trkpt lat="46.07622" lon="4.76172">
        <ele>173</ele>
        <time>2018-07-12T09:39:56Z</time>
      </trkpt>
      <trkpt lat="46.07616" lon="4.76177">
        <ele>173</ele>
        <time>2018-07-12T09:39:57Z</time>
      </trkpt>
      <trkpt lat="46.07611" lon="4.76182">
        <ele>173</ele>
        <time>2018-07-12T09:39:58Z</time>
      </trkpt>
      <trkpt lat="46.07606" lon="4.76186">
        <ele>173</ele>
        <time>2018-07-12T09:39:59Z</time>
      </trkpt>
      <trkpt lat="46.07601" lon="4.76191">
        <ele>173</ele>
        <time>2018-07-12T09:40:00Z</time>
      </trkpt>
      <trkpt lat="46.07595" lon="4.76196">
        <ele>173</ele>
        <time>2018-07-12T09:40:01Z</time>
      </trkpt>
      <trkpt lat="46.0759" lon="4.76202">
        <ele>173</ele>
        <time>2018-07-12T09:40:02Z</time>
      </trkpt>
      <trkpt lat="46.07584" lon="4.76207">
        <ele>173</ele>
        <time>2018-07-12T09:40:03Z</time>
      </trkpt>
      <trkpt lat="46.07579" lon="4.76212">
        <ele>173</ele>
        <time>2018-07-12T09:40:04Z</time>
      </trkpt>
      <trkpt lat="46.07574" lon="4.76218">
        <ele>173</ele>
        <time>2018-07-12T09:40:05Z</time>
      </trkpt>
      <trkpt lat="46.07569" lon="4.76223">
        <ele>173</ele>
        <time>2018-07-12T09:40:06Z</time>
      </trkpt>
      <trkpt lat="46.07564" lon="4.76229">
        <ele>173</ele>
        <time>2018-07-12T09:40:07Z</time>
      </trkpt>
      <trkpt lat="46.0756" lon="4.76234">
        <ele>173</ele>
        <time>2018-07-12T09:40:08Z</time>
      </trkpt>
      <trkpt lat="46.07554" lon="4.7624">
        <ele>173</ele>
        <time>2018-07-12T09:40:09Z</time>
      </trkpt>
      <trkpt lat="46.0755" lon="4.76245">
        <ele>173</ele>
        <time>2018-07-12T09:40:10Z</time>
      </trkpt>
      <trkpt lat="46.07546" lon="4.76249">
        <ele>173</ele>
        <time>2018-07-12T09:40:11Z</time>
      </trkpt>
      <trkpt lat="46.07542" lon="4.76252">
        <ele>174</ele>
        <time>2018-07-12T09:40:12Z</time>
      </trkpt>
      <trkpt lat="46.07537" lon="4.76257">
        <ele>174</ele>
        <time>2018-07-12T09:40:13Z</time>
      </trkpt>
      <trkpt lat="46.07532" lon="4.76264">
        <ele>174</ele>
        <time>2018-07-12T09:40:14Z</time>
      </trkpt>
      <trkpt lat="46.07528" lon="4.76269">
        <ele>174</ele>
        <time>2018-07-12T09:40:15Z</time>
      </trkpt>
      <trkpt lat="46.07523" lon="4.76274">
        <ele>174</ele>
        <time>2018-07-12T09:40:16Z</time>
      </trkpt>
      <trkpt lat="46.07519" lon="4.76277">
        <ele>174</ele>
        <time>2018-07-12T09:40:17Z</time>
      </trkpt>
      <trkpt lat="46.07515" lon="4.76284">
        <ele>174</ele>
        <time>2018-07-12T09:40:18Z</time>
      </trkpt>
      <trkpt lat="46.0751" lon="4.76289">
        <ele>174</ele>
        <time>2018-07-12T09:40:19Z</time>
      </trkpt>
      <trkpt lat="46.07507" lon="4.76295">
        <ele>174</ele>
        <time>2018-07-12T09:40:20Z</time>
      </trkpt>
      <trkpt lat="46.07502" lon="4.763">
        <ele>174</ele>
        <time>2018-07-12T09:40:21Z</time>
      </trkpt>
      <trkpt lat="46.07498" lon="4.76304">
        <ele>173</ele>
        <time>2018-07-12T09:40:22Z</time>
      </trkpt>
      <trkpt lat="46.07493" lon="4.76307">
        <ele>173</ele>
        <time>2018-07-12T09:40:23Z</time>
      </trkpt>
      <trkpt lat="46.07487" lon="4.7631">
        <ele>173</ele>
        <time>2018-07-12T09:40:24Z</time>
      </trkpt>
      <trkpt lat="46.07478" lon="4.76313">
        <ele>173</ele>
        <time>2018-07-12T09:40:26Z</time>
      </trkpt>
      <trkpt lat="46.07473" lon="4.76315">
        <ele>172</ele>
        <time>2018-07-12T09:40:27Z</time>
      </trkpt>
      <trkpt lat="46.07468" lon="4.7632">
        <ele>172</ele>
        <time>2018-07-12T09:40:28Z</time>
      </trkpt>
      <trkpt lat="46.07464" lon="4.76327">
        <ele>172</ele>
        <time>2018-07-12T09:40:29Z</time>
      </trkpt>
      <trkpt lat="46.07462" lon="4.76335">
        <ele>172</ele>
        <time>2018-07-12T09:40:30Z</time>
      </trkpt>
      <trkpt lat="46.07459" lon="4.76342">
        <ele>172</ele>
        <time>2018-07-12T09:40:31Z</time>
      </trkpt>
      <trkpt lat="46.07455" lon="4.76348">
        <ele>172</ele>
        <time>2018-07-12T09:40:32Z</time>
      </trkpt>
      <trkpt lat="46.07451" lon="4.76352">
        <ele>172</ele>
        <time>2018-07-12T09:40:33Z</time>
      </trkpt>
      <trkpt lat="46.07446" lon="4.76357">
        <ele>172</ele>
        <time>2018-07-12T09:40:34Z</time>
      </trkpt>
      <trkpt lat="46.07441" lon="4.76362">
        <ele>171</ele>
        <time>2018-07-12T09:40:35Z</time>
      </trkpt>
      <trkpt lat="46.07437" lon="4.76367">
        <ele>171</ele>
        <time>2018-07-12T09:40:36Z</time>
      </trkpt>
      <trkpt lat="46.07433" lon="4.76374">
        <ele>171</ele>
        <time>2018-07-12T09:40:37Z</time>
      </trkpt>
      <trkpt lat="46.07428" lon="4.76379">
        <ele>171</ele>
        <time>2018-07-12T09:40:38Z</time>
      </trkpt>
      <trkpt lat="46.07426" lon="4.76387">
        <ele>171</ele>
        <time>2018-07-12T09:40:39Z</time>
      </trkpt>
      <trkpt lat="46.07421" lon="4.76392">
        <ele>171</ele>
        <time>2018-07-12T09:40:40Z</time>
      </trkpt>
      <trkpt lat="46.07416" lon="4.76399">
        <ele>171</ele>
        <time>2018-07-12T09:40:41Z</time>
      </trkpt>
      <trkpt lat="46.07411" lon="4.76404">
        <ele>171</ele>
        <time>2018-07-12T09:40:42Z</time>
      </trkpt>
      <trkpt lat="46.07406" lon="4.76409">
        <ele>171</ele>
        <time>2018-07-12T09:40:43Z</time>
      </trkpt>
      <trkpt lat="46.07401" lon="4.76414">
        <ele>171</ele>
        <time>2018-07-12T09:40:44Z</time>
      </trkpt>
      <trkpt lat="46.07397" lon="4.76418">
        <ele>171</ele>
        <time>2018-07-12T09:40:45Z</time>
      </trkpt>
      <trkpt lat="46.07392" lon="4.76423">
        <ele>171</ele>
        <time>2018-07-12T09:40:46Z</time>
      </trkpt>
      <trkpt lat="46.07388" lon="4.76428">
        <ele>171</ele>
        <time>2018-07-12T09:40:47Z</time>
      </trkpt>
      <trkpt lat="46.07382" lon="4.76434">
        <ele>171</ele>
        <time>2018-07-12T09:40:48Z</time>
      </trkpt>
      <trkpt lat="46.07377" lon="4.76438">
        <ele>171</ele>
        <time>2018-07-12T09:40:49Z</time>
      </trkpt>
      <trkpt lat="46.07374" lon="4.76445">
        <ele>171</ele>
        <time>2018-07-12T09:40:50Z</time>
      </trkpt>
      <trkpt lat="46.0737" lon="4.76452">
        <ele>171</ele>
        <time>2018-07-12T09:40:51Z</time>
      </trkpt>
      <trkpt lat="46.07365" lon="4.76457">
        <ele>171</ele>
        <time>2018-07-12T09:40:52Z</time>
      </trkpt>
      <trkpt lat="46.0736" lon="4.76463">
        <ele>171</ele>
        <time>2018-07-12T09:40:53Z</time>
      </trkpt>
      <trkpt lat="46.07356" lon="4.76468">
        <ele>171</ele>
        <time>2018-07-12T09:40:54Z</time>
      </trkpt>
      <trkpt lat="46.0735" lon="4.76475">
        <ele>171</ele>
        <time>2018-07-12T09:40:55Z</time>
      </trkpt>
      <trkpt lat="46.07345" lon="4.76481">
        <ele>171</ele>
        <time>2018-07-12T09:40:56Z</time>
      </trkpt>
      <trkpt lat="46.0734" lon="4.76487">
        <ele>170</ele>
        <time>2018-07-12T09:40:57Z</time>
      </trkpt>
      <trkpt lat="46.07334" lon="4.76491">
        <ele>170</ele>
        <time>2018-07-12T09:40:58Z</time>
      </trkpt>
      <trkpt lat="46.07327" lon="4.76496">
        <ele>170</ele>
        <time>2018-07-12T09:40:59Z</time>
      </trkpt>
      <trkpt lat="46.07322" lon="4.76501">
        <ele>170</ele>
        <time>2018-07-12T09:41:00Z</time>
      </trkpt>
      <trkpt lat="46.07318" lon="4.76505">
        <ele>170</ele>
        <time>2018-07-12T09:41:01Z</time>
      </trkpt>
      <trkpt lat="46.07312" lon="4.7651">
        <ele>170</ele>
        <time>2018-07-12T09:41:02Z</time>
      </trkpt>
      <trkpt lat="46.07308" lon="4.76515">
        <ele>170</ele>
        <time>2018-07-12T09:41:03Z</time>
      </trkpt>
      <trkpt lat="46.07302" lon="4.76522">
        <ele>170</ele>
        <time>2018-07-12T09:41:04Z</time>
      </trkpt>
      <trkpt lat="46.07299" lon="4.76526">
        <ele>170</ele>
        <time>2018-07-12T09:41:05Z</time>
      </trkpt>
      <trkpt lat="46.07295" lon="4.76531">
        <ele>170</ele>
        <time>2018-07-12T09:41:06Z</time>
      </trkpt>
      <trkpt lat="46.07292" lon="4.76536">
        <ele>170</ele>
        <time>2018-07-12T09:41:07Z</time>
      </trkpt>
      <trkpt lat="46.07285" lon="4.76539">
        <ele>170</ele>
        <time>2018-07-12T09:41:08Z</time>
      </trkpt>
      <trkpt lat="46.07279" lon="4.76544">
        <ele>170</ele>
        <time>2018-07-12T09:41:09Z</time>
      </trkpt>
      <trkpt lat="46.07275" lon="4.76549">
        <ele>170</ele>
        <time>2018-07-12T09:41:10Z</time>
      </trkpt>
      <trkpt lat="46.07269" lon="4.76555">
        <ele>170</ele>
        <time>2018-07-12T09:41:11Z</time>
      </trkpt>
      <trkpt lat="46.07262" lon="4.76562">
        <ele>170</ele>
        <time>2018-07-12T09:41:12Z</time>
      </trkpt>
      <trkpt lat="46.07257" lon="4.76568">
        <ele>170</ele>
        <time>2018-07-12T09:41:13Z</time>
      </trkpt>
      <trkpt lat="46.07254" lon="4.76575">
        <ele>170</ele>
        <time>2018-07-12T09:41:14Z</time>
      </trkpt>
      <trkpt lat="46.07247" lon="4.76582">
        <ele>170</ele>
        <time>2018-07-12T09:41:15Z</time>
      </trkpt>
      <trkpt lat="46.07242" lon="4.76588">
        <ele>170</ele>
        <time>2018-07-12T09:41:16Z</time>
      </trkpt>
      <trkpt lat="46.07237" lon="4.76594">
        <ele>170</ele>
        <time>2018-07-12T09:41:17Z</time>
      </trkpt>
      <trkpt lat="46.07232" lon="4.766">
        <ele>170</ele>
        <time>2018-07-12T09:41:18Z</time>
      </trkpt>
      <trkpt lat="46.07227" lon="4.76606">
        <ele>170</ele>
        <time>2018-07-12T09:41:19Z</time>
      </trkpt>
      <trkpt lat="46.07222" lon="4.76612">
        <ele>170</ele>
        <time>2018-07-12T09:41:20Z</time>
      </trkpt>
      <trkpt lat="46.07219" lon="4.76618">
        <ele>170</ele>
        <time>2018-07-12T09:41:21Z</time>
      </trkpt>
      <trkpt lat="46.07214" lon="4.76624">
        <ele>170</ele>
        <time>2018-07-12T09:41:22Z</time>
      </trkpt>
      <trkpt lat="46.07209" lon="4.76631">
        <ele>171</ele>
        <time>2018-07-12T09:41:23Z</time>
      </trkpt>
      <trkpt lat="46.07204" lon="4.76637">
        <ele>170</ele>
        <time>2018-07-12T09:41:24Z</time>
      </trkpt>
      <trkpt lat="46.072" lon="4.76644">
        <ele>170</ele>
        <time>2018-07-12T09:41:25Z</time>
      </trkpt>
      <trkpt lat="46.07195" lon="4.76651">
        <ele>170</ele>
        <time>2018-07-12T09:41:26Z</time>
      </trkpt>
      <trkpt lat="46.07191" lon="4.76658">
        <ele>170</ele>
        <time>2018-07-12T09:41:27Z</time>
      </trkpt>
      <trkpt lat="46.07186" lon="4.76665">
        <ele>170</ele>
        <time>2018-07-12T09:41:28Z</time>
      </trkpt>
      <trkpt lat="46.07183" lon="4.76675">
        <ele>170</ele>
        <time>2018-07-12T09:41:29Z</time>
      </trkpt>
      <trkpt lat="46.0718" lon="4.7668">
        <ele>170</ele>
        <time>2018-07-12T09:41:30Z</time>
      </trkpt>
      <trkpt lat="46.07178" lon="4.76689">
        <ele>170</ele>
        <time>2018-07-12T09:41:31Z</time>
      </trkpt>
      <trkpt lat="46.07174" lon="4.76695">
        <ele>171</ele>
        <time>2018-07-12T09:41:32Z</time>
      </trkpt>
      <trkpt lat="46.0717" lon="4.76702">
        <ele>171</ele>
        <time>2018-07-12T09:41:33Z</time>
      </trkpt>
      <trkpt lat="46.07166" lon="4.76709">
        <ele>170</ele>
        <time>2018-07-12T09:41:34Z</time>
      </trkpt>
      <trkpt lat="46.07163" lon="4.76716">
        <ele>170</ele>
        <time>2018-07-12T09:41:35Z</time>
      </trkpt>
      <trkpt lat="46.07159" lon="4.76721">
        <ele>170</ele>
        <time>2018-07-12T09:41:36Z</time>
      </trkpt>
      <trkpt lat="46.07156" lon="4.7673">
        <ele>171</ele>
        <time>2018-07-12T09:41:37Z</time>
      </trkpt>
      <trkpt lat="46.07152" lon="4.76738">
        <ele>171</ele>
        <time>2018-07-12T09:41:38Z</time>
      </trkpt>
      <trkpt lat="46.07147" lon="4.76744">
        <ele>171</ele>
        <time>2018-07-12T09:41:39Z</time>
      </trkpt>
      <trkpt lat="46.07143" lon="4.76752">
        <ele>171</ele>
        <time>2018-07-12T09:41:40Z</time>
      </trkpt>
      <trkpt lat="46.0714" lon="4.7676">
        <ele>171</ele>
        <time>2018-07-12T09:41:41Z</time>
      </trkpt>
      <trkpt lat="46.07136" lon="4.76767">
        <ele>171</ele>
        <time>2018-07-12T09:41:42Z</time>
      </trkpt>
      <trkpt lat="46.07133" lon="4.76775">
        <ele>171</ele>
        <time>2018-07-12T09:41:43Z</time>
      </trkpt>
      <trkpt lat="46.0713" lon="4.76785">
        <ele>171</ele>
        <time>2018-07-12T09:41:44Z</time>
      </trkpt>
      <trkpt lat="46.07126" lon="4.76793">
        <ele>172</ele>
        <time>2018-07-12T09:41:45Z</time>
      </trkpt>
      <trkpt lat="46.07123" lon="4.768">
        <ele>172</ele>
        <time>2018-07-12T09:41:46Z</time>
      </trkpt>
      <trkpt lat="46.07118" lon="4.76806">
        <ele>172</ele>
        <time>2018-07-12T09:41:47Z</time>
      </trkpt>
      <trkpt lat="46.07116" lon="4.76813">
        <ele>172</ele>
        <time>2018-07-12T09:41:48Z</time>
      </trkpt>
      <trkpt lat="46.07112" lon="4.76822">
        <ele>172</ele>
        <time>2018-07-12T09:41:49Z</time>
      </trkpt>
      <trkpt lat="46.07108" lon="4.76828">
        <ele>172</ele>
        <time>2018-07-12T09:41:50Z</time>
      </trkpt>
      <trkpt lat="46.07105" lon="4.76837">
        <ele>173</ele>
        <time>2018-07-12T09:41:51Z</time>
      </trkpt>
      <trkpt lat="46.07101" lon="4.76844">
        <ele>172</ele>
        <time>2018-07-12T09:41:52Z</time>
      </trkpt>
      <trkpt lat="46.07097" lon="4.7685">
        <ele>173</ele>
        <time>2018-07-12T09:41:53Z</time>
      </trkpt>
      <trkpt lat="46.07094" lon="4.76857">
        <ele>173</ele>
        <time>2018-07-12T09:41:54Z</time>
      </trkpt>
      <trkpt lat="46.0709" lon="4.76864">
        <ele>173</ele>
        <time>2018-07-12T09:41:55Z</time>
      </trkpt>
      <trkpt lat="46.07086" lon="4.76871">
        <ele>173</ele>
        <time>2018-07-12T09:41:56Z</time>
      </trkpt>
      <trkpt lat="46.07083" lon="4.76877">
        <ele>172</ele>
        <time>2018-07-12T09:41:57Z</time>
      </trkpt>
      <trkpt lat="46.07079" lon="4.76883">
        <ele>172</ele>
        <time>2018-07-12T09:41:58Z</time>
      </trkpt>
      <trkpt lat="46.07076" lon="4.76889">
        <ele>172</ele>
        <time>2018-07-12T09:41:59Z</time>
      </trkpt>
      <trkpt lat="46.07072" lon="4.76895">
        <ele>172</ele>
        <time>2018-07-12T09:42:00Z</time>
      </trkpt>
      <trkpt lat="46.07069" lon="4.76901">
        <ele>172</ele>
        <time>2018-07-12T09:42:01Z</time>
      </trkpt>
      <trkpt lat="46.07065" lon="4.76907">
        <ele>172</ele>
        <time>2018-07-12T09:42:02Z</time>
      </trkpt>
      <trkpt lat="46.07061" lon="4.76912">
        <ele>172</ele>
        <time>2018-07-12T09:42:03Z</time>
      </trkpt>
      <trkpt lat="46.07057" lon="4.76921">
        <ele>173</ele>
        <time>2018-07-12T09:42:04Z</time>
      </trkpt>
      <trkpt lat="46.07054" lon="4.76928">
        <ele>173</ele>
        <time>2018-07-12T09:42:05Z</time>
      </trkpt>
      <trkpt lat="46.07051" lon="4.76936">
        <ele>173</ele>
        <time>2018-07-12T09:42:06Z</time>
      </trkpt>
      <trkpt lat="46.07047" lon="4.76942">
        <ele>173</ele>
        <time>2018-07-12T09:42:07Z</time>
      </trkpt>
      <trkpt lat="46.07043" lon="4.76949">
        <ele>173</ele>
        <time>2018-07-12T09:42:08Z</time>
      </trkpt>
      <trkpt lat="46.0704" lon="4.76957">
        <ele>173</ele>
        <time>2018-07-12T09:42:09Z</time>
      </trkpt>
      <trkpt lat="46.07037" lon="4.76964">
        <ele>173</ele>
        <time>2018-07-12T09:42:10Z</time>
      </trkpt>
      <trkpt lat="46.07034" lon="4.7697">
        <ele>173</ele>
        <time>2018-07-12T09:42:11Z</time>
      </trkpt>
      <trkpt lat="46.0703" lon="4.76976">
        <ele>173</ele>
        <time>2018-07-12T09:42:12Z</time>
      </trkpt>
      <trkpt lat="46.07028" lon="4.76982">
        <ele>173</ele>
        <time>2018-07-12T09:42:13Z</time>
      </trkpt>
      <trkpt lat="46.07025" lon="4.76988">
        <ele>173</ele>
        <time>2018-07-12T09:42:14Z</time>
      </trkpt>
      <trkpt lat="46.07023" lon="4.76998">
        <ele>173</ele>
        <time>2018-07-12T09:42:15Z</time>
      </trkpt>
      <trkpt lat="46.07016" lon="4.77006">
        <ele>174</ele>
        <time>2018-07-12T09:42:17Z</time>
      </trkpt>
      <trkpt lat="46.07012" lon="4.77012">
        <ele>174</ele>
        <time>2018-07-12T09:42:18Z</time>
      </trkpt>
      <trkpt lat="46.07009" lon="4.77019">
        <ele>174</ele>
        <time>2018-07-12T09:42:19Z</time>
      </trkpt>
      <trkpt lat="46.07008" lon="4.77026">
        <ele>174</ele>
        <time>2018-07-12T09:42:20Z</time>
      </trkpt>
      <trkpt lat="46.07004" lon="4.77033">
        <ele>174</ele>
        <time>2018-07-12T09:42:21Z</time>
      </trkpt>
      <trkpt lat="46.07002" lon="4.77039">
        <ele>174</ele>
        <time>2018-07-12T09:42:22Z</time>
      </trkpt>
      <trkpt lat="46.06999" lon="4.77045">
        <ele>173</ele>
        <time>2018-07-12T09:42:23Z</time>
      </trkpt>
      <trkpt lat="46.06996" lon="4.77051">
        <ele>173</ele>
        <time>2018-07-12T09:42:24Z</time>
      </trkpt>
      <trkpt lat="46.06993" lon="4.77056">
        <ele>173</ele>
        <time>2018-07-12T09:42:25Z</time>
      </trkpt>
      <trkpt lat="46.0699" lon="4.77062">
        <ele>174</ele>
        <time>2018-07-12T09:42:26Z</time>
      </trkpt>
      <trkpt lat="46.06986" lon="4.77067">
        <ele>174</ele>
        <time>2018-07-12T09:42:27Z</time>
      </trkpt>
      <trkpt lat="46.06983" lon="4.77071">
        <ele>174</ele>
        <time>2018-07-12T09:42:28Z</time>
      </trkpt>
      <trkpt lat="46.06975" lon="4.77074">
        <ele>173</ele>
        <time>2018-07-12T09:42:30Z</time>
      </trkpt>
      <trkpt lat="46.06968" lon="4.77075">
        <ele>173</ele>
        <time>2018-07-12T09:42:31Z</time>
      </trkpt>
      <trkpt lat="46.06961" lon="4.77075">
        <ele>173</ele>
        <time>2018-07-12T09:42:32Z</time>
      </trkpt>
      <trkpt lat="46.06954" lon="4.77076">
        <ele>173</ele>
        <time>2018-07-12T09:42:33Z</time>
      </trkpt>
      <trkpt lat="46.06946" lon="4.77074">
        <ele>173</ele>
        <time>2018-07-12T09:42:34Z</time>
      </trkpt>
      <trkpt lat="46.06939" lon="4.77074">
        <ele>173</ele>
        <time>2018-07-12T09:42:35Z</time>
      </trkpt>
      <trkpt lat="46.06932" lon="4.77073">
        <ele>173</ele>
        <time>2018-07-12T09:42:36Z</time>
      </trkpt>
      <trkpt lat="46.06924" lon="4.77073">
        <ele>173</ele>
        <time>2018-07-12T09:42:37Z</time>
      </trkpt>
      <trkpt lat="46.06918" lon="4.77073">
        <ele>173</ele>
        <time>2018-07-12T09:42:38Z</time>
      </trkpt>
      <trkpt lat="46.06911" lon="4.77071">
        <ele>173</ele>
        <time>2018-07-12T09:42:39Z</time>
      </trkpt>
      <trkpt lat="46.06904" lon="4.77071">
        <ele>173</ele>
        <time>2018-07-12T09:42:40Z</time>
      </trkpt>
      <trkpt lat="46.06898" lon="4.77071">
        <ele>173</ele>
        <time>2018-07-12T09:42:41Z</time>
      </trkpt>
      <trkpt lat="46.06892" lon="4.77071">
        <ele>173</ele>
        <time>2018-07-12T09:42:42Z</time>
      </trkpt>
      <trkpt lat="46.06887" lon="4.7707">
        <ele>173</ele>
        <time>2018-07-12T09:42:43Z</time>
      </trkpt>
      <trkpt lat="46.06881" lon="4.77072">
        <ele>173</ele>
        <time>2018-07-12T09:42:44Z</time>
      </trkpt>
      <trkpt lat="46.06875" lon="4.77072">
        <ele>173</ele>
        <time>2018-07-12T09:42:45Z</time>
      </trkpt>
      <trkpt lat="46.06868" lon="4.77073">
        <ele>173</ele>
        <time>2018-07-12T09:42:46Z</time>
      </trkpt>
      <trkpt lat="46.0686" lon="4.77076">
        <ele>173</ele>
        <time>2018-07-12T09:42:47Z</time>
      </trkpt>
      <trkpt lat="46.06855" lon="4.77077">
        <ele>173</ele>
        <time>2018-07-12T09:42:48Z</time>
      </trkpt>
      <trkpt lat="46.06849" lon="4.7708">
        <ele>173</ele>
        <time>2018-07-12T09:42:49Z</time>
      </trkpt>
      <trkpt lat="46.06842" lon="4.77083">
        <ele>173</ele>
        <time>2018-07-12T09:42:50Z</time>
      </trkpt>
      <trkpt lat="46.06836" lon="4.77087">
        <ele>173</ele>
        <time>2018-07-12T09:42:51Z</time>
      </trkpt>
      <trkpt lat="46.06829" lon="4.77091">
        <ele>173</ele>
        <time>2018-07-12T09:42:52Z</time>
      </trkpt>
      <trkpt lat="46.06823" lon="4.77096">
        <ele>173</ele>
        <time>2018-07-12T09:42:53Z</time>
      </trkpt>
      <trkpt lat="46.06818" lon="4.771">
        <ele>173</ele>
        <time>2018-07-12T09:42:54Z</time>
      </trkpt>
      <trkpt lat="46.06813" lon="4.77104">
        <ele>172</ele>
        <time>2018-07-12T09:42:55Z</time>
      </trkpt>
      <trkpt lat="46.06808" lon="4.77109">
        <ele>172</ele>
        <time>2018-07-12T09:42:56Z</time>
      </trkpt>
      <trkpt lat="46.06803" lon="4.77114">
        <ele>172</ele>
        <time>2018-07-12T09:42:57Z</time>
      </trkpt>
      <trkpt lat="46.06798" lon="4.77118">
        <ele>172</ele>
        <time>2018-07-12T09:42:58Z</time>
      </trkpt>
      <trkpt lat="46.06793" lon="4.77124">
        <ele>172</ele>
        <time>2018-07-12T09:42:59Z</time>
      </trkpt>
      <trkpt lat="46.06787" lon="4.7713">
        <ele>172</ele>
        <time>2018-07-12T09:43:00Z</time>
      </trkpt>
      <trkpt lat="46.06782" lon="4.77136">
        <ele>172</ele>
        <time>2018-07-12T09:43:01Z</time>
      </trkpt>
      <trkpt lat="46.06777" lon="4.77142">
        <ele>172</ele>
        <time>2018-07-12T09:43:02Z</time>
      </trkpt>
      <trkpt lat="46.06772" lon="4.77147">
        <ele>172</ele>
        <time>2018-07-12T09:43:03Z</time>
      </trkpt>
      <trkpt lat="46.06767" lon="4.77154">
        <ele>172</ele>
        <time>2018-07-12T09:43:04Z</time>
      </trkpt>
      <trkpt lat="46.06761" lon="4.7716">
        <ele>172</ele>
        <time>2018-07-12T09:43:05Z</time>
      </trkpt>
      <trkpt lat="46.06756" lon="4.77165">
        <ele>172</ele>
        <time>2018-07-12T09:43:06Z</time>
      </trkpt>
      <trkpt lat="46.06751" lon="4.77168">
        <ele>172</ele>
        <time>2018-07-12T09:43:07Z</time>
      </trkpt>
      <trkpt lat="46.06745" lon="4.77173">
        <ele>172</ele>
        <time>2018-07-12T09:43:08Z</time>
      </trkpt>
      <trkpt lat="46.06738" lon="4.77177">
        <ele>172</ele>
        <time>2018-07-12T09:43:09Z</time>
      </trkpt>
      <trkpt lat="46.06731" lon="4.77182">
        <ele>172</ele>
        <time>2018-07-12T09:43:10Z</time>
      </trkpt>
      <trkpt lat="46.06725" lon="4.77186">
        <ele>172</ele>
        <time>2018-07-12T09:43:11Z</time>
      </trkpt>
      <trkpt lat="46.06719" lon="4.77189">
        <ele>172</ele>
        <time>2018-07-12T09:43:12Z</time>
      </trkpt>
      <trkpt lat="46.06712" lon="4.77192">
        <ele>172</ele>
        <time>2018-07-12T09:43:13Z</time>
      </trkpt>
      <trkpt lat="46.06707" lon="4.77193">
        <ele>172</ele>
        <time>2018-07-12T09:43:14Z</time>
      </trkpt>
      <trkpt lat="46.06701" lon="4.77195">
        <ele>172</ele>
        <time>2018-07-12T09:43:15Z</time>
      </trkpt>
      <trkpt lat="46.06695" lon="4.77196">
        <ele>172</ele>
        <time>2018-07-12T09:43:16Z</time>
      </trkpt>
      <trkpt lat="46.0669" lon="4.77199">
        <ele>172</ele>
        <time>2018-07-12T09:43:17Z</time>
      </trkpt>
      <trkpt lat="46.06686" lon="4.77203">
        <ele>172</ele>
        <time>2018-07-12T09:43:18Z</time>
      </trkpt>
      <trkpt lat="46.06684" lon="4.7721">
        <ele>172</ele>
        <time>2018-07-12T09:43:19Z</time>
      </trkpt>
      <trkpt lat="46.06683" lon="4.77219">
        <ele>172</ele>
        <time>2018-07-12T09:43:20Z</time>
      </trkpt>
      <trkpt lat="46.06682" lon="4.77225">
        <ele>172</ele>
        <time>2018-07-12T09:43:21Z</time>
      </trkpt>
      <trkpt lat="46.06681" lon="4.77232">
        <ele>172</ele>
        <time>2018-07-12T09:43:22Z</time>
      </trkpt>
      <trkpt lat="46.06679" lon="4.77244">
        <ele>173</ele>
        <time>2018-07-12T09:43:23Z</time>
      </trkpt>
      <trkpt lat="46.06678" lon="4.77251">
        <ele>173</ele>
        <time>2018-07-12T09:43:24Z</time>
      </trkpt>
      <trkpt lat="46.06675" lon="4.77259">
        <ele>173</ele>
        <time>2018-07-12T09:43:25Z</time>
      </trkpt>
      <trkpt lat="46.06672" lon="4.77264">
        <ele>173</ele>
        <time>2018-07-12T09:43:26Z</time>
      </trkpt>
      <trkpt lat="46.06669" lon="4.77272">
        <ele>173</ele>
        <time>2018-07-12T09:43:27Z</time>
      </trkpt>
      <trkpt lat="46.06666" lon="4.77277">
        <ele>174</ele>
        <time>2018-07-12T09:43:28Z</time>
      </trkpt>
      <trkpt lat="46.06663" lon="4.77282">
        <ele>174</ele>
        <time>2018-07-12T09:43:29Z</time>
      </trkpt>
      <trkpt lat="46.0666" lon="4.77289">
        <ele>174</ele>
        <time>2018-07-12T09:43:30Z</time>
      </trkpt>
      <trkpt lat="46.06657" lon="4.77296">
        <ele>174</ele>
        <time>2018-07-12T09:43:31Z</time>
      </trkpt>
      <trkpt lat="46.06654" lon="4.77301">
        <ele>174</ele>
        <time>2018-07-12T09:43:32Z</time>
      </trkpt>
      <trkpt lat="46.06652" lon="4.77311">
        <ele>174</ele>
        <time>2018-07-12T09:43:33Z</time>
      </trkpt>
      <trkpt lat="46.06649" lon="4.77317">
        <ele>174</ele>
        <time>2018-07-12T09:43:34Z</time>
      </trkpt>
      <trkpt lat="46.06645" lon="4.77324">
        <ele>174</ele>
        <time>2018-07-12T09:43:35Z</time>
      </trkpt>
      <trkpt lat="46.06644" lon="4.77331">
        <ele>174</ele>
        <time>2018-07-12T09:43:36Z</time>
      </trkpt>
      <trkpt lat="46.06641" lon="4.77337">
        <ele>175</ele>
        <time>2018-07-12T09:43:37Z</time>
      </trkpt>
      <trkpt lat="46.06637" lon="4.77342">
        <ele>176</ele>
        <time>2018-07-12T09:43:38Z</time>
      </trkpt>
      <trkpt lat="46.06634" lon="4.77349">
        <ele>176</ele>
        <time>2018-07-12T09:43:39Z</time>
      </trkpt>
      <trkpt lat="46.06632" lon="4.77357">
        <ele>176</ele>
        <time>2018-07-12T09:43:40Z</time>
      </trkpt>
      <trkpt lat="46.06629" lon="4.77365">
        <ele>176</ele>
        <time>2018-07-12T09:43:41Z</time>
      </trkpt>
      <trkpt lat="46.06625" lon="4.77373">
        <ele>176</ele>
        <time>2018-07-12T09:43:42Z</time>
      </trkpt>
      <trkpt lat="46.06625" lon="4.77379">
        <ele>176</ele>
        <time>2018-07-12T09:43:43Z</time>
      </trkpt>
      <trkpt lat="46.06622" lon="4.77388">
        <ele>176</ele>
        <time>2018-07-12T09:43:44Z</time>
      </trkpt>
      <trkpt lat="46.0662" lon="4.77394">
        <ele>177</ele>
        <time>2018-07-12T09:43:45Z</time>
      </trkpt>
      <trkpt lat="46.06618" lon="4.77402">
        <ele>177</ele>
        <time>2018-07-12T09:43:46Z</time>
      </trkpt>
      <trkpt lat="46.06614" lon="4.77407">
        <ele>177</ele>
        <time>2018-07-12T09:43:47Z</time>
      </trkpt>
      <trkpt lat="46.06612" lon="4.77414">
        <ele>177</ele>
        <time>2018-07-12T09:43:48Z</time>
      </trkpt>
      <trkpt lat="46.06609" lon="4.77421">
        <ele>179</ele>
        <time>2018-07-12T09:43:49Z</time>
      </trkpt>
      <trkpt lat="46.06605" lon="4.77429">
        <ele>179</ele>
        <time>2018-07-12T09:43:50Z</time>
      </trkpt>
      <trkpt lat="46.06603" lon="4.77437">
        <ele>179</ele>
        <time>2018-07-12T09:43:51Z</time>
      </trkpt>
      <trkpt lat="46.06602" lon="4.77444">
        <ele>180</ele>
        <time>2018-07-12T09:43:52Z</time>
      </trkpt>
      <trkpt lat="46.06599" lon="4.77452">
        <ele>180</ele>
        <time>2018-07-12T09:43:53Z</time>
      </trkpt>
      <trkpt lat="46.06598" lon="4.7746">
        <ele>180</ele>
        <time>2018-07-12T09:43:54Z</time>
      </trkpt>
      <trkpt lat="46.06598" lon="4.77467">
        <ele>180</ele>
        <time>2018-07-12T09:43:55Z</time>
      </trkpt>
      <trkpt lat="46.06601" lon="4.77478">
        <ele>181</ele>
        <time>2018-07-12T09:43:57Z</time>
      </trkpt>
      <trkpt lat="46.06604" lon="4.77483">
        <ele>181</ele>
        <time>2018-07-12T09:43:58Z</time>
      </trkpt>
      <trkpt lat="46.06608" lon="4.7749">
        <ele>181</ele>
        <time>2018-07-12T09:43:59Z</time>
      </trkpt>
      <trkpt lat="46.06611" lon="4.77496">
        <ele>181</ele>
        <time>2018-07-12T09:44:00Z</time>
      </trkpt>
      <trkpt lat="46.06618" lon="4.77504">
        <ele>183</ele>
        <time>2018-07-12T09:44:02Z</time>
      </trkpt>
      <trkpt lat="46.06621" lon="4.77507">
        <ele>182</ele>
        <time>2018-07-12T09:44:03Z</time>
      </trkpt>
      <trkpt lat="46.06622" lon="4.77511">
        <ele>182</ele>
        <time>2018-07-12T09:44:04Z</time>
      </trkpt>
      <trkpt lat="46.06626" lon="4.77519">
        <ele>182</ele>
        <time>2018-07-12T09:44:05Z</time>
      </trkpt>
      <trkpt lat="46.06628" lon="4.77529">
        <ele>182</ele>
        <time>2018-07-12T09:44:07Z</time>
      </trkpt>
      <trkpt lat="46.06629" lon="4.77534">
        <ele>183</ele>
        <time>2018-07-12T09:44:08Z</time>
      </trkpt>
      <trkpt lat="46.06632" lon="4.77541">
        <ele>183</ele>
        <time>2018-07-12T09:44:10Z</time>
      </trkpt>
      <trkpt lat="46.06633" lon="4.77549">
        <ele>183</ele>
        <time>2018-07-12T09:44:11Z</time>
      </trkpt>
      <trkpt lat="46.06635" lon="4.77557">
        <ele>183</ele>
        <time>2018-07-12T09:44:14Z</time>
      </trkpt>
      <trkpt lat="46.06637" lon="4.77567">
        <ele>183</ele>
        <time>2018-07-12T09:44:15Z</time>
      </trkpt>
      <trkpt lat="46.06638" lon="4.7758">
        <ele>183</ele>
        <time>2018-07-12T09:44:18Z</time>
      </trkpt>
      <trkpt lat="46.06638" lon="4.77582">
        <ele>183</ele>
        <time>2018-07-12T09:44:19Z</time>
      </trkpt>
      <trkpt lat="46.06636" lon="4.77594">
        <ele>184</ele>
        <time>2018-07-12T09:44:22Z</time>
      </trkpt>
      <trkpt lat="46.06636" lon="4.77598">
        <ele>185</ele>
        <time>2018-07-12T09:44:23Z</time>
      </trkpt>
      <trkpt lat="46.06635" lon="4.77608">
        <ele>185</ele>
        <time>2018-07-12T09:44:26Z</time>
      </trkpt>
      <trkpt lat="46.06634" lon="4.77611">
        <ele>185</ele>
        <time>2018-07-12T09:44:27Z</time>
      </trkpt>
      <trkpt lat="46.06633" lon="4.77619">
        <ele>185</ele>
        <time>2018-07-12T09:44:29Z</time>
      </trkpt>
      <trkpt lat="46.06632" lon="4.77624">
        <ele>185</ele>
        <time>2018-07-12T09:44:30Z</time>
      </trkpt>
      <trkpt lat="46.0663" lon="4.77633">
        <ele>185</ele>
        <time>2018-07-12T09:44:32Z</time>
      </trkpt>
      <trkpt lat="46.06629" lon="4.77638">
        <ele>185</ele>
        <time>2018-07-12T09:44:33Z</time>
      </trkpt>
      <trkpt lat="46.06626" lon="4.77646">
        <ele>185</ele>
        <time>2018-07-12T09:44:35Z</time>
      </trkpt>
      <trkpt lat="46.06625" lon="4.7765">
        <ele>185</ele>
        <time>2018-07-12T09:44:36Z</time>
      </trkpt>
      <trkpt lat="46.06622" lon="4.77658">
        <ele>185</ele>
        <time>2018-07-12T09:44:38Z</time>
      </trkpt>
      <trkpt lat="46.06619" lon="4.77662">
        <ele>185</ele>
        <time>2018-07-12T09:44:39Z</time>
      </trkpt>
      <trkpt lat="46.06613" lon="4.7767">
        <ele>187</ele>
        <time>2018-07-12T09:44:42Z</time>
      </trkpt>
      <trkpt lat="46.06603" lon="4.77678">
        <ele>187</ele>
        <time>2018-07-12T09:44:43Z</time>
      </trkpt>
      <trkpt lat="46.06595" lon="4.77681">
        <ele>187</ele>
        <time>2018-07-12T09:44:45Z</time>
      </trkpt>
      <trkpt lat="46.06593" lon="4.77682">
        <ele>187</ele>
        <time>2018-07-12T09:44:46Z</time>
      </trkpt>
      <trkpt lat="46.06587" lon="4.77685">
        <ele>187</ele>
        <time>2018-07-12T09:44:49Z</time>
      </trkpt>
      <trkpt lat="46.06584" lon="4.77687">
        <ele>187</ele>
        <time>2018-07-12T09:44:50Z</time>
      </trkpt>
      <trkpt lat="46.06575" lon="4.77692">
        <ele>188</ele>
        <time>2018-07-12T09:44:51Z</time>
      </trkpt>
      <trkpt lat="46.06569" lon="4.77696">
        <ele>188</ele>
        <time>2018-07-12T09:44:53Z</time>
      </trkpt>
      <trkpt lat="46.06564" lon="4.77701">
        <ele>189</ele>
        <time>2018-07-12T09:44:54Z</time>
      </trkpt>
      <trkpt lat="46.06557" lon="4.77708">
        <ele>189</ele>
        <time>2018-07-12T09:44:56Z</time>
      </trkpt>
      <trkpt lat="46.06554" lon="4.77714">
        <ele>189</ele>
        <time>2018-07-12T09:44:57Z</time>
      </trkpt>
      <trkpt lat="46.0655" lon="4.77719">
        <ele>189</ele>
        <time>2018-07-12T09:44:58Z</time>
      </trkpt>
      <trkpt lat="46.06546" lon="4.77723">
        <ele>189</ele>
        <time>2018-07-12T09:44:59Z</time>
      </trkpt>
      <trkpt lat="46.06544" lon="4.77728">
        <ele>189</ele>
        <time>2018-07-12T09:45:01Z</time>
      </trkpt>
      <trkpt lat="46.06539" lon="4.77735">
        <ele>190</ele>
        <time>2018-07-12T09:45:02Z</time>
      </trkpt>
      <trkpt lat="46.06536" lon="4.77743">
        <ele>190</ele>
        <time>2018-07-12T09:45:04Z</time>
      </trkpt>
      <trkpt lat="46.06532" lon="4.7775">
        <ele>191</ele>
        <time>2018-07-12T09:45:05Z</time>
      </trkpt>
      <trkpt lat="46.06528" lon="4.77761">
        <ele>192</ele>
        <time>2018-07-12T09:45:08Z</time>
      </trkpt>
      <trkpt lat="46.06524" lon="4.77768">
        <ele>192</ele>
        <time>2018-07-12T09:45:09Z</time>
      </trkpt>
      <trkpt lat="46.0652" lon="4.77773">
        <ele>192</ele>
        <time>2018-07-12T09:45:10Z</time>
      </trkpt>
      <trkpt lat="46.06519" lon="4.77779">
        <ele>192</ele>
        <time>2018-07-12T09:45:11Z</time>
      </trkpt>
      <trkpt lat="46.06514" lon="4.77788">
        <ele>192</ele>
        <time>2018-07-12T09:45:13Z</time>
      </trkpt>
      <trkpt lat="46.06511" lon="4.77794">
        <ele>192</ele>
        <time>2018-07-12T09:45:14Z</time>
      </trkpt>
      <trkpt lat="46.06506" lon="4.77804">
        <ele>192</ele>
        <time>2018-07-12T09:45:16Z</time>
      </trkpt>
      <trkpt lat="46.06504" lon="4.77809">
        <ele>192</ele>
        <time>2018-07-12T09:45:17Z</time>
      </trkpt>
      <trkpt lat="46.06499" lon="4.77819">
        <ele>192</ele>
        <time>2018-07-12T09:45:19Z</time>
      </trkpt>
      <trkpt lat="46.06496" lon="4.77823">
        <ele>192</ele>
        <time>2018-07-12T09:45:20Z</time>
      </trkpt>
      <trkpt lat="46.06492" lon="4.77832">
        <ele>192</ele>
        <time>2018-07-12T09:45:23Z</time>
      </trkpt>
      <trkpt lat="46.0649" lon="4.77836">
        <ele>192</ele>
        <time>2018-07-12T09:45:24Z</time>
      </trkpt>
      <trkpt lat="46.06486" lon="4.77847">
        <ele>192</ele>
        <time>2018-07-12T09:45:27Z</time>
      </trkpt>
      <trkpt lat="46.06485" lon="4.77851">
        <ele>192</ele>
        <time>2018-07-12T09:45:28Z</time>
      </trkpt>
      <trkpt lat="46.06482" lon="4.77858">
        <ele>192</ele>
        <time>2018-07-12T09:45:30Z</time>
      </trkpt>
      <trkpt lat="46.0648" lon="4.77862">
        <ele>192</ele>
        <time>2018-07-12T09:45:31Z</time>
      </trkpt>
      <trkpt lat="46.06476" lon="4.77873">
        <ele>193</ele>
        <time>2018-07-12T09:45:34Z</time>
      </trkpt>
      <trkpt lat="46.06474" lon="4.77877">
        <ele>193</ele>
        <time>2018-07-12T09:45:35Z</time>
      </trkpt>
      <trkpt lat="46.06471" lon="4.77885">
        <ele>193</ele>
        <time>2018-07-12T09:45:37Z</time>
      </trkpt>
      <trkpt lat="46.0647" lon="4.77889">
        <ele>193</ele>
        <time>2018-07-12T09:45:38Z</time>
      </trkpt>
      <trkpt lat="46.06467" lon="4.77897">
        <ele>193</ele>
        <time>2018-07-12T09:45:40Z</time>
      </trkpt>
      <trkpt lat="46.06466" lon="4.77901">
        <ele>193</ele>
        <time>2018-07-12T09:45:41Z</time>
      </trkpt>
      <trkpt lat="46.06463" lon="4.77909">
        <ele>193</ele>
        <time>2018-07-12T09:45:43Z</time>
      </trkpt>
      <trkpt lat="46.06462" lon="4.77913">
        <ele>193</ele>
        <time>2018-07-12T09:45:44Z</time>
      </trkpt>
      <trkpt lat="46.0646" lon="4.77921">
        <ele>194</ele>
        <time>2018-07-12T09:45:46Z</time>
      </trkpt>
      <trkpt lat="46.06458" lon="4.77925">
        <ele>194</ele>
        <time>2018-07-12T09:45:47Z</time>
      </trkpt>
      <trkpt lat="46.06456" lon="4.77934">
        <ele>195</ele>
        <time>2018-07-12T09:45:49Z</time>
      </trkpt>
      <trkpt lat="46.06455" lon="4.77939">
        <ele>195</ele>
        <time>2018-07-12T09:45:50Z</time>
      </trkpt>
      <trkpt lat="46.06452" lon="4.77953">
        <ele>195</ele>
        <time>2018-07-12T09:45:51Z</time>
      </trkpt>
      <trkpt lat="46.06451" lon="4.77966">
        <ele>195</ele>
        <time>2018-07-12T09:45:55Z</time>
      </trkpt>
      <trkpt lat="46.06451" lon="4.77969">
        <ele>195</ele>
        <time>2018-07-12T09:45:56Z</time>
      </trkpt>
      <trkpt lat="46.06449" lon="4.7798">
        <ele>195</ele>
        <time>2018-07-12T09:45:59Z</time>
      </trkpt>
      <trkpt lat="46.06448" lon="4.77985">
        <ele>195</ele>
        <time>2018-07-12T09:46:00Z</time>
      </trkpt>
      <trkpt lat="46.06446" lon="4.77996">
        <ele>195</ele>
        <time>2018-07-12T09:46:03Z</time>
      </trkpt>
      <trkpt lat="46.06445" lon="4.78001">
        <ele>197</ele>
        <time>2018-07-12T09:46:04Z</time>
      </trkpt>
      <trkpt lat="46.06443" lon="4.78009">
        <ele>197</ele>
        <time>2018-07-12T09:46:06Z</time>
      </trkpt>
      <trkpt lat="46.06441" lon="4.78013">
        <ele>197</ele>
        <time>2018-07-12T09:46:07Z</time>
      </trkpt>
      <trkpt lat="46.06436" lon="4.78024">
        <ele>198</ele>
        <time>2018-07-12T09:46:08Z</time>
      </trkpt>
      <trkpt lat="46.06431" lon="4.7803">
        <ele>198</ele>
        <time>2018-07-12T09:46:11Z</time>
      </trkpt>
      <trkpt lat="46.06429" lon="4.78033">
        <ele>198</ele>
        <time>2018-07-12T09:46:12Z</time>
      </trkpt>
      <trkpt lat="46.06427" lon="4.78035">
        <ele>198</ele>
        <time>2018-07-12T09:46:13Z</time>
      </trkpt>
      <trkpt lat="46.0642" lon="4.78044">
        <ele>198</ele>
        <time>2018-07-12T09:46:14Z</time>
      </trkpt>
      <trkpt lat="46.06415" lon="4.78054">
        <ele>198</ele>
        <time>2018-07-12T09:46:16Z</time>
      </trkpt>
      <trkpt lat="46.06412" lon="4.78058">
        <ele>198</ele>
        <time>2018-07-12T09:46:17Z</time>
      </trkpt>
      <trkpt lat="46.06411" lon="4.78067">
        <ele>198</ele>
        <time>2018-07-12T09:46:18Z</time>
      </trkpt>
      <trkpt lat="46.06408" lon="4.78072">
        <ele>198</ele>
        <time>2018-07-12T09:46:19Z</time>
      </trkpt>
      <trkpt lat="46.06406" lon="4.78078">
        <ele>198</ele>
        <time>2018-07-12T09:46:20Z</time>
      </trkpt>
      <trkpt lat="46.06403" lon="4.78085">
        <ele>200</ele>
        <time>2018-07-12T09:46:21Z</time>
      </trkpt>
      <trkpt lat="46.06402" lon="4.78092">
        <ele>200</ele>
        <time>2018-07-12T09:46:22Z</time>
      </trkpt>
      <trkpt lat="46.064" lon="4.78098">
        <ele>200</ele>
        <time>2018-07-12T09:46:23Z</time>
      </trkpt>
      <trkpt lat="46.06398" lon="4.78108">
        <ele>200</ele>
        <time>2018-07-12T09:46:25Z</time>
      </trkpt>
      <trkpt lat="46.06396" lon="4.78112">
        <ele>200</ele>
        <time>2018-07-12T09:46:26Z</time>
      </trkpt>
      <trkpt lat="46.06393" lon="4.78123">
        <ele>201</ele>
        <time>2018-07-12T09:46:28Z</time>
      </trkpt>
      <trkpt lat="46.06392" lon="4.78125">
        <ele>201</ele>
        <time>2018-07-12T09:46:29Z</time>
      </trkpt>
      <trkpt lat="46.0639" lon="4.78135">
        <ele>201</ele>
        <time>2018-07-12T09:46:31Z</time>
      </trkpt>
      <trkpt lat="46.06389" lon="4.7814">
        <ele>201</ele>
        <time>2018-07-12T09:46:32Z</time>
      </trkpt>
      <trkpt lat="46.06389" lon="4.78146">
        <ele>201</ele>
        <time>2018-07-12T09:46:33Z</time>
      </trkpt>
      <trkpt lat="46.0639" lon="4.78154">
        <ele>201</ele>
        <time>2018-07-12T09:46:34Z</time>
      </trkpt>
      <trkpt lat="46.0639" lon="4.78165">
        <ele>202</ele>
        <time>2018-07-12T09:46:36Z</time>
      </trkpt>
      <trkpt lat="46.0639" lon="4.78171">
        <ele>204</ele>
        <time>2018-07-12T09:46:37Z</time>
      </trkpt>
      <trkpt lat="46.06389" lon="4.78177">
        <ele>204</ele>
        <time>2018-07-12T09:46:39Z</time>
      </trkpt>
      <trkpt lat="46.06388" lon="4.78186">
        <ele>204</ele>
        <time>2018-07-12T09:46:40Z</time>
      </trkpt>
      <trkpt lat="46.06387" lon="4.78196">
        <ele>204</ele>
        <time>2018-07-12T09:46:42Z</time>
      </trkpt>
      <trkpt lat="46.06385" lon="4.78201">
        <ele>204</ele>
        <time>2018-07-12T09:46:43Z</time>
      </trkpt>
      <trkpt lat="46.0638" lon="4.78211">
        <ele>204</ele>
        <time>2018-07-12T09:46:45Z</time>
      </trkpt>
      <trkpt lat="46.06379" lon="4.78213">
        <ele>204</ele>
        <time>2018-07-12T09:46:46Z</time>
      </trkpt>
      <trkpt lat="46.06372" lon="4.78221">
        <ele>205</ele>
        <time>2018-07-12T09:46:48Z</time>
      </trkpt>
      <trkpt lat="46.0637" lon="4.78222">
        <ele>205</ele>
        <time>2018-07-12T09:46:49Z</time>
      </trkpt>
      <trkpt lat="46.06366" lon="4.78226">
        <ele>205</ele>
        <time>2018-07-12T09:46:51Z</time>
      </trkpt>
      <trkpt lat="46.0636" lon="4.78232">
        <ele>205</ele>
        <time>2018-07-12T09:46:52Z</time>
      </trkpt>
      <trkpt lat="46.06357" lon="4.78236">
        <ele>205</ele>
        <time>2018-07-12T09:46:54Z</time>
      </trkpt>
      <trkpt lat="46.06353" lon="4.78241">
        <ele>205</ele>
        <time>2018-07-12T09:46:55Z</time>
      </trkpt>
      <trkpt lat="46.06346" lon="4.78245">
        <ele>205</ele>
        <time>2018-07-12T09:46:57Z</time>
      </trkpt>
      <trkpt lat="46.06342" lon="4.78245">
        <ele>205</ele>
        <time>2018-07-12T09:46:58Z</time>
      </trkpt>
      <trkpt lat="46.06334" lon="4.78243">
        <ele>206</ele>
        <time>2018-07-12T09:47:00Z</time>
      </trkpt>
      <trkpt lat="46.0633" lon="4.78241">
        <ele>206</ele>
        <time>2018-07-12T09:47:01Z</time>
      </trkpt>
      <trkpt lat="46.06321" lon="4.78236">
        <ele>206</ele>
        <time>2018-07-12T09:47:03Z</time>
      </trkpt>
      <trkpt lat="46.06318" lon="4.78234">
        <ele>206</ele>
        <time>2018-07-12T09:47:04Z</time>
      </trkpt>
      <trkpt lat="46.0631" lon="4.78227">
        <ele>205</ele>
        <time>2018-07-12T09:47:06Z</time>
      </trkpt>
      <trkpt lat="46.06306" lon="4.78224">
        <ele>205</ele>
        <time>2018-07-12T09:47:07Z</time>
      </trkpt>
      <trkpt lat="46.06303" lon="4.78221">
        <ele>205</ele>
        <time>2018-07-12T09:47:08Z</time>
      </trkpt>
      <trkpt lat="46.06298" lon="4.78218">
        <ele>205</ele>
        <time>2018-07-12T09:47:09Z</time>
      </trkpt>
      <trkpt lat="46.06294" lon="4.78215">
        <ele>205</ele>
        <time>2018-07-12T09:47:10Z</time>
      </trkpt>
      <trkpt lat="46.06289" lon="4.78211">
        <ele>205</ele>
        <time>2018-07-12T09:47:11Z</time>
      </trkpt>
      <trkpt lat="46.06285" lon="4.78208">
        <ele>205</ele>
        <time>2018-07-12T09:47:12Z</time>
      </trkpt>
      <trkpt lat="46.06281" lon="4.78205">
        <ele>205</ele>
        <time>2018-07-12T09:47:13Z</time>
      </trkpt>
      <trkpt lat="46.06274" lon="4.782">
        <ele>205</ele>
        <time>2018-07-12T09:47:15Z</time>
      </trkpt>
      <trkpt lat="46.06267" lon="4.78198">
        <ele>205</ele>
        <time>2018-07-12T09:47:16Z</time>
      </trkpt>
      <trkpt lat="46.06259" lon="4.78193">
        <ele>205</ele>
        <time>2018-07-12T09:47:18Z</time>
      </trkpt>
      <trkpt lat="46.06255" lon="4.78191">
        <ele>205</ele>
        <time>2018-07-12T09:47:19Z</time>
      </trkpt>
      <trkpt lat="46.06251" lon="4.78188">
        <ele>205</ele>
        <time>2018-07-12T09:47:20Z</time>
      </trkpt>
      <trkpt lat="46.06247" lon="4.78186">
        <ele>206</ele>
        <time>2018-07-12T09:47:21Z</time>
      </trkpt>
      <trkpt lat="46.0624" lon="4.78179">
        <ele>206</ele>
        <time>2018-07-12T09:47:23Z</time>
      </trkpt>
      <trkpt lat="46.06236" lon="4.78177">
        <ele>206</ele>
        <time>2018-07-12T09:47:24Z</time>
      </trkpt>
      <trkpt lat="46.06231" lon="4.78171">
        <ele>206</ele>
        <time>2018-07-12T09:47:26Z</time>
      </trkpt>
      <trkpt lat="46.06227" lon="4.78168">
        <ele>206</ele>
        <time>2018-07-12T09:47:27Z</time>
      </trkpt>
      <trkpt lat="46.06223" lon="4.78164">
        <ele>205</ele>
        <time>2018-07-12T09:47:28Z</time>
      </trkpt>
      <trkpt lat="46.06218" lon="4.78162">
        <ele>205</ele>
        <time>2018-07-12T09:47:29Z</time>
      </trkpt>
      <trkpt lat="46.06214" lon="4.78159">
        <ele>205</ele>
        <time>2018-07-12T09:47:30Z</time>
      </trkpt>
      <trkpt lat="46.06209" lon="4.78156">
        <ele>205</ele>
        <time>2018-07-12T09:47:31Z</time>
      </trkpt>
      <trkpt lat="46.06205" lon="4.78154">
        <ele>205</ele>
        <time>2018-07-12T09:47:32Z</time>
      </trkpt>
      <trkpt lat="46.06201" lon="4.78151">
        <ele>205</ele>
        <time>2018-07-12T09:47:33Z</time>
      </trkpt>
      <trkpt lat="46.06193" lon="4.78145">
        <ele>205</ele>
        <time>2018-07-12T09:47:35Z</time>
      </trkpt>
      <trkpt lat="46.06191" lon="4.78141">
        <ele>206</ele>
        <time>2018-07-12T09:47:36Z</time>
      </trkpt>
      <trkpt lat="46.06187" lon="4.78139">
        <ele>206</ele>
        <time>2018-07-12T09:47:37Z</time>
      </trkpt>
      <trkpt lat="46.06183" lon="4.78136">
        <ele>206</ele>
        <time>2018-07-12T09:47:38Z</time>
      </trkpt>
      <trkpt lat="46.06177" lon="4.78133">
        <ele>206</ele>
        <time>2018-07-12T09:47:40Z</time>
      </trkpt>
      <trkpt lat="46.06172" lon="4.78131">
        <ele>206</ele>
        <time>2018-07-12T09:47:41Z</time>
      </trkpt>
      <trkpt lat="46.06166" lon="4.78128">
        <ele>208</ele>
        <time>2018-07-12T09:47:43Z</time>
      </trkpt>
      <trkpt lat="46.06162" lon="4.78125">
        <ele>208</ele>
        <time>2018-07-12T09:47:44Z</time>
      </trkpt>
      <trkpt lat="46.06156" lon="4.7812">
        <ele>208</ele>
        <time>2018-07-12T09:47:46Z</time>
      </trkpt>
      <trkpt lat="46.06152" lon="4.78117">
        <ele>208</ele>
        <time>2018-07-12T09:47:47Z</time>
      </trkpt>
      <trkpt lat="46.06145" lon="4.78112">
        <ele>208</ele>
        <time>2018-07-12T09:47:50Z</time>
      </trkpt>
      <trkpt lat="46.06139" lon="4.78106">
        <ele>208</ele>
        <time>2018-07-12T09:47:51Z</time>
      </trkpt>
      <trkpt lat="46.06133" lon="4.78099">
        <ele>209</ele>
        <time>2018-07-12T09:47:53Z</time>
      </trkpt>
      <trkpt lat="46.06129" lon="4.78095">
        <ele>209</ele>
        <time>2018-07-12T09:47:54Z</time>
      </trkpt>
      <trkpt lat="46.06123" lon="4.78088">
        <ele>209</ele>
        <time>2018-07-12T09:47:56Z</time>
      </trkpt>
      <trkpt lat="46.0612" lon="4.78084">
        <ele>209</ele>
        <time>2018-07-12T09:47:57Z</time>
      </trkpt>
      <trkpt lat="46.06114" lon="4.78077">
        <ele>210</ele>
        <time>2018-07-12T09:47:59Z</time>
      </trkpt>
      <trkpt lat="46.0611" lon="4.78073">
        <ele>210</ele>
        <time>2018-07-12T09:48:00Z</time>
      </trkpt>
      <trkpt lat="46.06107" lon="4.78068">
        <ele>210</ele>
        <time>2018-07-12T09:48:01Z</time>
      </trkpt>
      <trkpt lat="46.06103" lon="4.78064">
        <ele>210</ele>
        <time>2018-07-12T09:48:02Z</time>
      </trkpt>
      <trkpt lat="46.06098" lon="4.78056">
        <ele>210</ele>
        <time>2018-07-12T09:48:04Z</time>
      </trkpt>
      <trkpt lat="46.06094" lon="4.78052">
        <ele>210</ele>
        <time>2018-07-12T09:48:05Z</time>
      </trkpt>
      <trkpt lat="46.06086" lon="4.78047">
        <ele>210</ele>
        <time>2018-07-12T09:48:07Z</time>
      </trkpt>
      <trkpt lat="46.06079" lon="4.78043">
        <ele>211</ele>
        <time>2018-07-12T09:48:08Z</time>
      </trkpt>
      <trkpt lat="46.06073" lon="4.7804">
        <ele>211</ele>
        <time>2018-07-12T09:48:09Z</time>
      </trkpt>
      <trkpt lat="46.06072" lon="4.78034">
        <ele>211</ele>
        <time>2018-07-12T09:48:10Z</time>
      </trkpt>
      <trkpt lat="46.06068" lon="4.7803">
        <ele>211</ele>
        <time>2018-07-12T09:48:11Z</time>
      </trkpt>
      <trkpt lat="46.06064" lon="4.78027">
        <ele>211</ele>
        <time>2018-07-12T09:48:12Z</time>
      </trkpt>
      <trkpt lat="46.06061" lon="4.78023">
        <ele>211</ele>
        <time>2018-07-12T09:48:13Z</time>
      </trkpt>
      <trkpt lat="46.06057" lon="4.78019">
        <ele>211</ele>
        <time>2018-07-12T09:48:14Z</time>
      </trkpt>
      <trkpt lat="46.06052" lon="4.78014">
        <ele>211</ele>
        <time>2018-07-12T09:48:15Z</time>
      </trkpt>
      <trkpt lat="46.06049" lon="4.78009">
        <ele>211</ele>
        <time>2018-07-12T09:48:16Z</time>
      </trkpt>
      <trkpt lat="46.06042" lon="4.78001">
        <ele>211</ele>
        <time>2018-07-12T09:48:18Z</time>
      </trkpt>
      <trkpt lat="46.06039" lon="4.77996">
        <ele>211</ele>
        <time>2018-07-12T09:48:19Z</time>
      </trkpt>
      <trkpt lat="46.06035" lon="4.77992">
        <ele>211</ele>
        <time>2018-07-12T09:48:20Z</time>
      </trkpt>
      <trkpt lat="46.06031" lon="4.77987">
        <ele>211</ele>
        <time>2018-07-12T09:48:21Z</time>
      </trkpt>
      <trkpt lat="46.06024" lon="4.77979">
        <ele>211</ele>
        <time>2018-07-12T09:48:23Z</time>
      </trkpt>
      <trkpt lat="46.0602" lon="4.77975">
        <ele>211</ele>
        <time>2018-07-12T09:48:24Z</time>
      </trkpt>
      <trkpt lat="46.06015" lon="4.77971">
        <ele>211</ele>
        <time>2018-07-12T09:48:25Z</time>
      </trkpt>
      <trkpt lat="46.0601" lon="4.77967">
        <ele>211</ele>
        <time>2018-07-12T09:48:26Z</time>
      </trkpt>
      <trkpt lat="46.06006" lon="4.77963">
        <ele>211</ele>
        <time>2018-07-12T09:48:27Z</time>
      </trkpt>
      <trkpt lat="46.06" lon="4.77957">
        <ele>212</ele>
        <time>2018-07-12T09:48:28Z</time>
      </trkpt>
      <trkpt lat="46.05995" lon="4.77948">
        <ele>212</ele>
        <time>2018-07-12T09:48:30Z</time>
      </trkpt>
      <trkpt lat="46.05991" lon="4.77942">
        <ele>212</ele>
        <time>2018-07-12T09:48:31Z</time>
      </trkpt>
      <trkpt lat="46.05986" lon="4.77932">
        <ele>212</ele>
        <time>2018-07-12T09:48:33Z</time>
      </trkpt>
      <trkpt lat="46.05985" lon="4.77925">
        <ele>212</ele>
        <time>2018-07-12T09:48:34Z</time>
      </trkpt>
      <trkpt lat="46.05983" lon="4.77918">
        <ele>212</ele>
        <time>2018-07-12T09:48:35Z</time>
      </trkpt>
      <trkpt lat="46.05981" lon="4.77912">
        <ele>211</ele>
        <time>2018-07-12T09:48:36Z</time>
      </trkpt>
      <trkpt lat="46.05979" lon="4.77906">
        <ele>211</ele>
        <time>2018-07-12T09:48:37Z</time>
      </trkpt>
      <trkpt lat="46.05976" lon="4.77901">
        <ele>211</ele>
        <time>2018-07-12T09:48:38Z</time>
      </trkpt>
      <trkpt lat="46.05973" lon="4.77897">
        <ele>211</ele>
        <time>2018-07-12T09:48:39Z</time>
      </trkpt>
      <trkpt lat="46.05968" lon="4.77893">
        <ele>211</ele>
        <time>2018-07-12T09:48:40Z</time>
      </trkpt>
      <trkpt lat="46.05966" lon="4.77887">
        <ele>211</ele>
        <time>2018-07-12T09:48:41Z</time>
      </trkpt>
      <trkpt lat="46.05965" lon="4.77879">
        <ele>211</ele>
        <time>2018-07-12T09:48:42Z</time>
      </trkpt>
      <trkpt lat="46.05964" lon="4.77874">
        <ele>211</ele>
        <time>2018-07-12T09:48:43Z</time>
      </trkpt>
      <trkpt lat="46.0596" lon="4.77867">
        <ele>211</ele>
        <time>2018-07-12T09:48:44Z</time>
      </trkpt>
      <trkpt lat="46.05956" lon="4.77863">
        <ele>211</ele>
        <time>2018-07-12T09:48:45Z</time>
      </trkpt>
      <trkpt lat="46.05952" lon="4.77857">
        <ele>211</ele>
        <time>2018-07-12T09:48:46Z</time>
      </trkpt>
      <trkpt lat="46.05949" lon="4.77851">
        <ele>211</ele>
        <time>2018-07-12T09:48:47Z</time>
      </trkpt>
      <trkpt lat="46.05947" lon="4.77847">
        <ele>211</ele>
        <time>2018-07-12T09:48:48Z</time>
      </trkpt>
      <trkpt lat="46.05944" lon="4.77841">
        <ele>211</ele>
        <time>2018-07-12T09:48:49Z</time>
      </trkpt>
      <trkpt lat="46.05941" lon="4.77834">
        <ele>211</ele>
        <time>2018-07-12T09:48:50Z</time>
      </trkpt>
      <trkpt lat="46.05938" lon="4.77829">
        <ele>210</ele>
        <time>2018-07-12T09:48:51Z</time>
      </trkpt>
      <trkpt lat="46.05935" lon="4.77824">
        <ele>210</ele>
        <time>2018-07-12T09:48:52Z</time>
      </trkpt>
      <trkpt lat="46.05931" lon="4.77818">
        <ele>210</ele>
        <time>2018-07-12T09:48:53Z</time>
      </trkpt>
      <trkpt lat="46.05927" lon="4.77812">
        <ele>210</ele>
        <time>2018-07-12T09:48:54Z</time>
      </trkpt>
      <trkpt lat="46.05923" lon="4.77807">
        <ele>210</ele>
        <time>2018-07-12T09:48:55Z</time>
      </trkpt>
      <trkpt lat="46.0592" lon="4.77801">
        <ele>210</ele>
        <time>2018-07-12T09:48:56Z</time>
      </trkpt>
      <trkpt lat="46.05916" lon="4.77793">
        <ele>210</ele>
        <time>2018-07-12T09:48:57Z</time>
      </trkpt>
      <trkpt lat="46.05912" lon="4.77785">
        <ele>210</ele>
        <time>2018-07-12T09:48:58Z</time>
      </trkpt>
      <trkpt lat="46.0591" lon="4.77778">
        <ele>210</ele>
        <time>2018-07-12T09:48:59Z</time>
      </trkpt>
      <trkpt lat="46.05907" lon="4.7777">
        <ele>209</ele>
        <time>2018-07-12T09:49:00Z</time>
      </trkpt>
      <trkpt lat="46.05904" lon="4.77762">
        <ele>209</ele>
        <time>2018-07-12T09:49:01Z</time>
      </trkpt>
      <trkpt lat="46.05901" lon="4.77756">
        <ele>209</ele>
        <time>2018-07-12T09:49:02Z</time>
      </trkpt>
      <trkpt lat="46.05901" lon="4.77749">
        <ele>209</ele>
        <time>2018-07-12T09:49:03Z</time>
      </trkpt>
      <trkpt lat="46.05899" lon="4.7774">
        <ele>209</ele>
        <time>2018-07-12T09:49:04Z</time>
      </trkpt>
      <trkpt lat="46.05898" lon="4.77732">
        <ele>209</ele>
        <time>2018-07-12T09:49:05Z</time>
      </trkpt>
      <trkpt lat="46.05898" lon="4.77723">
        <ele>209</ele>
        <time>2018-07-12T09:49:06Z</time>
      </trkpt>
      <trkpt lat="46.05897" lon="4.77715">
        <ele>208</ele>
        <time>2018-07-12T09:49:07Z</time>
      </trkpt>
      <trkpt lat="46.05894" lon="4.77706">
        <ele>208</ele>
        <time>2018-07-12T09:49:08Z</time>
      </trkpt>
      <trkpt lat="46.05893" lon="4.77697">
        <ele>208</ele>
        <time>2018-07-12T09:49:09Z</time>
      </trkpt>
      <trkpt lat="46.05891" lon="4.77688">
        <ele>208</ele>
        <time>2018-07-12T09:49:10Z</time>
      </trkpt>
      <trkpt lat="46.05883" lon="4.77679">
        <ele>208</ele>
        <time>2018-07-12T09:49:11Z</time>
      </trkpt>
      <trkpt lat="46.0588" lon="4.7767">
        <ele>208</ele>
        <time>2018-07-12T09:49:12Z</time>
      </trkpt>
      <trkpt lat="46.05877" lon="4.77665">
        <ele>208</ele>
        <time>2018-07-12T09:49:13Z</time>
      </trkpt>
      <trkpt lat="46.05873" lon="4.77658">
        <ele>208</ele>
        <time>2018-07-12T09:49:14Z</time>
      </trkpt>
      <trkpt lat="46.0587" lon="4.77651">
        <ele>208</ele>
        <time>2018-07-12T09:49:15Z</time>
      </trkpt>
      <trkpt lat="46.05867" lon="4.77647">
        <ele>208</ele>
        <time>2018-07-12T09:49:16Z</time>
      </trkpt>
      <trkpt lat="46.0586" lon="4.77642">
        <ele>208</ele>
        <time>2018-07-12T09:49:17Z</time>
      </trkpt>
      <trkpt lat="46.05855" lon="4.77637">
        <ele>208</ele>
        <time>2018-07-12T09:49:18Z</time>
      </trkpt>
      <trkpt lat="46.0585" lon="4.77633">
        <ele>208</ele>
        <time>2018-07-12T09:49:19Z</time>
      </trkpt>
      <trkpt lat="46.05845" lon="4.77627">
        <ele>208</ele>
        <time>2018-07-12T09:49:20Z</time>
      </trkpt>
      <trkpt lat="46.05841" lon="4.77622">
        <ele>208</ele>
        <time>2018-07-12T09:49:21Z</time>
      </trkpt>
      <trkpt lat="46.05836" lon="4.77617">
        <ele>208</ele>
        <time>2018-07-12T09:49:22Z</time>
      </trkpt>
      <trkpt lat="46.0583" lon="4.77611">
        <ele>209</ele>
        <time>2018-07-12T09:49:23Z</time>
      </trkpt>
      <trkpt lat="46.05826" lon="4.77604">
        <ele>208</ele>
        <time>2018-07-12T09:49:24Z</time>
      </trkpt>
      <trkpt lat="46.05821" lon="4.77599">
        <ele>208</ele>
        <time>2018-07-12T09:49:25Z</time>
      </trkpt>
      <trkpt lat="46.05816" lon="4.77592">
        <ele>208</ele>
        <time>2018-07-12T09:49:26Z</time>
      </trkpt>
      <trkpt lat="46.05811" lon="4.77587">
        <ele>208</ele>
        <time>2018-07-12T09:49:27Z</time>
      </trkpt>
      <trkpt lat="46.05806" lon="4.77581">
        <ele>208</ele>
        <time>2018-07-12T09:49:28Z</time>
      </trkpt>
      <trkpt lat="46.05802" lon="4.77576">
        <ele>208</ele>
        <time>2018-07-12T09:49:29Z</time>
      </trkpt>
      <trkpt lat="46.05798" lon="4.77571">
        <ele>208</ele>
        <time>2018-07-12T09:49:30Z</time>
      </trkpt>
      <trkpt lat="46.05793" lon="4.77567">
        <ele>208</ele>
        <time>2018-07-12T09:49:31Z</time>
      </trkpt>
      <trkpt lat="46.05789" lon="4.77562">
        <ele>208</ele>
        <time>2018-07-12T09:49:32Z</time>
      </trkpt>
      <trkpt lat="46.05784" lon="4.77556">
        <ele>208</ele>
        <time>2018-07-12T09:49:33Z</time>
      </trkpt>
      <trkpt lat="46.05781" lon="4.77551">
        <ele>208</ele>
        <time>2018-07-12T09:49:34Z</time>
      </trkpt>
      <trkpt lat="46.05778" lon="4.77546">
        <ele>208</ele>
        <time>2018-07-12T09:49:35Z</time>
      </trkpt>
      <trkpt lat="46.05775" lon="4.77538">
        <ele>208</ele>
        <time>2018-07-12T09:49:36Z</time>
      </trkpt>
      <trkpt lat="46.05774" lon="4.77531">
        <ele>208</ele>
        <time>2018-07-12T09:49:37Z</time>
      </trkpt>
      <trkpt lat="46.05771" lon="4.77526">
        <ele>208</ele>
        <time>2018-07-12T09:49:38Z</time>
      </trkpt>
      <trkpt lat="46.05767" lon="4.77519">
        <ele>208</ele>
        <time>2018-07-12T09:49:39Z</time>
      </trkpt>
      <trkpt lat="46.05762" lon="4.77513">
        <ele>208</ele>
        <time>2018-07-12T09:49:40Z</time>
      </trkpt>
      <trkpt lat="46.05758" lon="4.77508">
        <ele>208</ele>
        <time>2018-07-12T09:49:41Z</time>
      </trkpt>
      <trkpt lat="46.05754" lon="4.77503">
        <ele>208</ele>
        <time>2018-07-12T09:49:42Z</time>
      </trkpt>
      <trkpt lat="46.0575" lon="4.77497">
        <ele>208</ele>
        <time>2018-07-12T09:49:43Z</time>
      </trkpt>
      <trkpt lat="46.05745" lon="4.77491">
        <ele>208</ele>
        <time>2018-07-12T09:49:44Z</time>
      </trkpt>
      <trkpt lat="46.05741" lon="4.77485">
        <ele>207</ele>
        <time>2018-07-12T09:49:45Z</time>
      </trkpt>
      <trkpt lat="46.05735" lon="4.77479">
        <ele>207</ele>
        <time>2018-07-12T09:49:46Z</time>
      </trkpt>
      <trkpt lat="46.0573" lon="4.77473">
        <ele>207</ele>
        <time>2018-07-12T09:49:47Z</time>
      </trkpt>
      <trkpt lat="46.05723" lon="4.77468">
        <ele>207</ele>
        <time>2018-07-12T09:49:48Z</time>
      </trkpt>
      <trkpt lat="46.05718" lon="4.77463">
        <ele>207</ele>
        <time>2018-07-12T09:49:49Z</time>
      </trkpt>
      <trkpt lat="46.05712" lon="4.77458">
        <ele>207</ele>
        <time>2018-07-12T09:49:50Z</time>
      </trkpt>
      <trkpt lat="46.05707" lon="4.77453">
        <ele>207</ele>
        <time>2018-07-12T09:49:51Z</time>
      </trkpt>
      <trkpt lat="46.05696" lon="4.7745">
        <ele>207</ele>
        <time>2018-07-12T09:49:52Z</time>
      </trkpt>
      <trkpt lat="46.05688" lon="4.77446">
        <ele>206</ele>
        <time>2018-07-12T09:49:53Z</time>
      </trkpt>
      <trkpt lat="46.05681" lon="4.77441">
        <ele>206</ele>
        <time>2018-07-12T09:49:54Z</time>
      </trkpt>
      <trkpt lat="46.05676" lon="4.77436">
        <ele>206</ele>
        <time>2018-07-12T09:49:55Z</time>
      </trkpt>
      <trkpt lat="46.0567" lon="4.7743">
        <ele>206</ele>
        <time>2018-07-12T09:49:56Z</time>
      </trkpt>
      <trkpt lat="46.05666" lon="4.77424">
        <ele>205</ele>
        <time>2018-07-12T09:49:57Z</time>
      </trkpt>
      <trkpt lat="46.05661" lon="4.77417">
        <ele>205</ele>
        <time>2018-07-12T09:49:58Z</time>
      </trkpt>
      <trkpt lat="46.05656" lon="4.77412">
        <ele>204</ele>
        <time>2018-07-12T09:49:59Z</time>
      </trkpt>
      <trkpt lat="46.05651" lon="4.77407">
        <ele>204</ele>
        <time>2018-07-12T09:50:00Z</time>
      </trkpt>
      <trkpt lat="46.05645" lon="4.774">
        <ele>204</ele>
        <time>2018-07-12T09:50:01Z</time>
      </trkpt>
      <trkpt lat="46.05634" lon="4.77394">
        <ele>203</ele>
        <time>2018-07-12T09:50:02Z</time>
      </trkpt>
      <trkpt lat="46.05628" lon="4.77387">
        <ele>203</ele>
        <time>2018-07-12T09:50:03Z</time>
      </trkpt>
      <trkpt lat="46.0562" lon="4.77383">
        <ele>203</ele>
        <time>2018-07-12T09:50:04Z</time>
      </trkpt>
      <trkpt lat="46.05613" lon="4.77376">
        <ele>203</ele>
        <time>2018-07-12T09:50:05Z</time>
      </trkpt>
      <trkpt lat="46.05606" lon="4.77371">
        <ele>202</ele>
        <time>2018-07-12T09:50:06Z</time>
      </trkpt>
      <trkpt lat="46.05596" lon="4.77369">
        <ele>202</ele>
        <time>2018-07-12T09:50:07Z</time>
      </trkpt>
      <trkpt lat="46.0559" lon="4.77363">
        <ele>202</ele>
        <time>2018-07-12T09:50:08Z</time>
      </trkpt>
      <trkpt lat="46.05583" lon="4.77358">
        <ele>201</ele>
        <time>2018-07-12T09:50:09Z</time>
      </trkpt>
      <trkpt lat="46.05574" lon="4.77352">
        <ele>201</ele>
        <time>2018-07-12T09:50:10Z</time>
      </trkpt>
      <trkpt lat="46.05566" lon="4.77347">
        <ele>201</ele>
        <time>2018-07-12T09:50:11Z</time>
      </trkpt>
      <trkpt lat="46.05558" lon="4.77342">
        <ele>201</ele>
        <time>2018-07-12T09:50:12Z</time>
      </trkpt>
      <trkpt lat="46.0555" lon="4.77337">
        <ele>201</ele>
        <time>2018-07-12T09:50:13Z</time>
      </trkpt>
      <trkpt lat="46.05543" lon="4.77332">
        <ele>200</ele>
        <time>2018-07-12T09:50:14Z</time>
      </trkpt>
      <trkpt lat="46.05536" lon="4.77328">
        <ele>200</ele>
        <time>2018-07-12T09:50:15Z</time>
      </trkpt>
      <trkpt lat="46.05528" lon="4.77323">
        <ele>200</ele>
        <time>2018-07-12T09:50:16Z</time>
      </trkpt>
      <trkpt lat="46.05519" lon="4.77319">
        <ele>200</ele>
        <time>2018-07-12T09:50:17Z</time>
      </trkpt>
      <trkpt lat="46.05512" lon="4.77315">
        <ele>200</ele>
        <time>2018-07-12T09:50:18Z</time>
      </trkpt>
      <trkpt lat="46.05504" lon="4.7731">
        <ele>200</ele>
        <time>2018-07-12T09:50:19Z</time>
      </trkpt>
      <trkpt lat="46.05496" lon="4.77305">
        <ele>201</ele>
        <time>2018-07-12T09:50:20Z</time>
      </trkpt>
      <trkpt lat="46.05489" lon="4.77301">
        <ele>201</ele>
        <time>2018-07-12T09:50:21Z</time>
      </trkpt>
      <trkpt lat="46.05482" lon="4.77296">
        <ele>201</ele>
        <time>2018-07-12T09:50:22Z</time>
      </trkpt>
      <trkpt lat="46.05476" lon="4.77292">
        <ele>201</ele>
        <time>2018-07-12T09:50:23Z</time>
      </trkpt>
      <trkpt lat="46.05469" lon="4.77289">
        <ele>201</ele>
        <time>2018-07-12T09:50:24Z</time>
      </trkpt>
      <trkpt lat="46.05463" lon="4.77285">
        <ele>201</ele>
        <time>2018-07-12T09:50:25Z</time>
      </trkpt>
      <trkpt lat="46.05457" lon="4.77282">
        <ele>201</ele>
        <time>2018-07-12T09:50:26Z</time>
      </trkpt>
      <trkpt lat="46.05452" lon="4.77279">
        <ele>201</ele>
        <time>2018-07-12T09:50:27Z</time>
      </trkpt>
      <trkpt lat="46.05445" lon="4.77277">
        <ele>201</ele>
        <time>2018-07-12T09:50:28Z</time>
      </trkpt>
      <trkpt lat="46.05438" lon="4.77274">
        <ele>201</ele>
        <time>2018-07-12T09:50:29Z</time>
      </trkpt>
      <trkpt lat="46.05432" lon="4.77271">
        <ele>201</ele>
        <time>2018-07-12T09:50:30Z</time>
      </trkpt>
      <trkpt lat="46.05425" lon="4.77269">
        <ele>201</ele>
        <time>2018-07-12T09:50:31Z</time>
      </trkpt>
      <trkpt lat="46.05416" lon="4.77267">
        <ele>203</ele>
        <time>2018-07-12T09:50:32Z</time>
      </trkpt>
      <trkpt lat="46.05409" lon="4.77264">
        <ele>203</ele>
        <time>2018-07-12T09:50:33Z</time>
      </trkpt>
      <trkpt lat="46.05402" lon="4.77263">
        <ele>203</ele>
        <time>2018-07-12T09:50:34Z</time>
      </trkpt>
      <trkpt lat="46.05396" lon="4.7726">
        <ele>203</ele>
        <time>2018-07-12T09:50:35Z</time>
      </trkpt>
      <trkpt lat="46.05392" lon="4.77257">
        <ele>203</ele>
        <time>2018-07-12T09:50:36Z</time>
      </trkpt>
      <trkpt lat="46.05386" lon="4.77253">
        <ele>203</ele>
        <time>2018-07-12T09:50:37Z</time>
      </trkpt>
      <trkpt lat="46.05381" lon="4.7725">
        <ele>203</ele>
        <time>2018-07-12T09:50:38Z</time>
      </trkpt>
      <trkpt lat="46.05373" lon="4.77245">
        <ele>203</ele>
        <time>2018-07-12T09:50:40Z</time>
      </trkpt>
      <trkpt lat="46.05367" lon="4.77241">
        <ele>203</ele>
        <time>2018-07-12T09:50:41Z</time>
      </trkpt>
      <trkpt lat="46.05362" lon="4.77238">
        <ele>203</ele>
        <time>2018-07-12T09:50:42Z</time>
      </trkpt>
      <trkpt lat="46.05356" lon="4.77237">
        <ele>204</ele>
        <time>2018-07-12T09:50:43Z</time>
      </trkpt>
      <trkpt lat="46.05353" lon="4.7723">
        <ele>204</ele>
        <time>2018-07-12T09:50:44Z</time>
      </trkpt>
      <trkpt lat="46.05349" lon="4.77227">
        <ele>204</ele>
        <time>2018-07-12T09:50:45Z</time>
      </trkpt>
      <trkpt lat="46.05345" lon="4.77222">
        <ele>204</ele>
        <time>2018-07-12T09:50:46Z</time>
      </trkpt>
      <trkpt lat="46.05339" lon="4.77218">
        <ele>204</ele>
        <time>2018-07-12T09:50:47Z</time>
      </trkpt>
      <trkpt lat="46.05336" lon="4.77214">
        <ele>204</ele>
        <time>2018-07-12T09:50:48Z</time>
      </trkpt>
      <trkpt lat="46.05331" lon="4.77211">
        <ele>206</ele>
        <time>2018-07-12T09:50:49Z</time>
      </trkpt>
      <trkpt lat="46.05326" lon="4.77206">
        <ele>205</ele>
        <time>2018-07-12T09:50:50Z</time>
      </trkpt>
      <trkpt lat="46.05322" lon="4.77202">
        <ele>205</ele>
        <time>2018-07-12T09:50:51Z</time>
      </trkpt>
      <trkpt lat="46.05318" lon="4.77198">
        <ele>205</ele>
        <time>2018-07-12T09:50:52Z</time>
      </trkpt>
      <trkpt lat="46.05314" lon="4.77195">
        <ele>205</ele>
        <time>2018-07-12T09:50:53Z</time>
      </trkpt>
      <trkpt lat="46.05309" lon="4.7719">
        <ele>205</ele>
        <time>2018-07-12T09:50:54Z</time>
      </trkpt>
      <trkpt lat="46.05304" lon="4.77184">
        <ele>205</ele>
        <time>2018-07-12T09:50:55Z</time>
      </trkpt>
      <trkpt lat="46.05299" lon="4.77179">
        <ele>205</ele>
        <time>2018-07-12T09:50:56Z</time>
      </trkpt>
      <trkpt lat="46.05295" lon="4.77174">
        <ele>205</ele>
        <time>2018-07-12T09:50:57Z</time>
      </trkpt>
      <trkpt lat="46.0529" lon="4.77169">
        <ele>205</ele>
        <time>2018-07-12T09:50:58Z</time>
      </trkpt>
      <trkpt lat="46.05286" lon="4.77163">
        <ele>204</ele>
        <time>2018-07-12T09:50:59Z</time>
      </trkpt>
      <trkpt lat="46.05282" lon="4.77158">
        <ele>204</ele>
        <time>2018-07-12T09:51:00Z</time>
      </trkpt>
      <trkpt lat="46.05277" lon="4.77153">
        <ele>204</ele>
        <time>2018-07-12T09:51:01Z</time>
      </trkpt>
      <trkpt lat="46.05273" lon="4.77148">
        <ele>204</ele>
        <time>2018-07-12T09:51:02Z</time>
      </trkpt>
      <trkpt lat="46.0527" lon="4.77141">
        <ele>204</ele>
        <time>2018-07-12T09:51:03Z</time>
      </trkpt>
      <trkpt lat="46.05264" lon="4.77134">
        <ele>204</ele>
        <time>2018-07-12T09:51:04Z</time>
      </trkpt>
      <trkpt lat="46.05259" lon="4.77129">
        <ele>204</ele>
        <time>2018-07-12T09:51:05Z</time>
      </trkpt>
      <trkpt lat="46.05254" lon="4.77125">
        <ele>204</ele>
        <time>2018-07-12T09:51:06Z</time>
      </trkpt>
      <trkpt lat="46.05249" lon="4.77121">
        <ele>204</ele>
        <time>2018-07-12T09:51:07Z</time>
      </trkpt>
      <trkpt lat="46.05243" lon="4.77118">
        <ele>204</ele>
        <time>2018-07-12T09:51:08Z</time>
      </trkpt>
      <trkpt lat="46.05237" lon="4.77115">
        <ele>203</ele>
        <time>2018-07-12T09:51:09Z</time>
      </trkpt>
      <trkpt lat="46.05233" lon="4.77111">
        <ele>203</ele>
        <time>2018-07-12T09:51:10Z</time>
      </trkpt>
      <trkpt lat="46.05229" lon="4.77106">
        <ele>203</ele>
        <time>2018-07-12T09:51:11Z</time>
      </trkpt>
      <trkpt lat="46.05226" lon="4.771">
        <ele>203</ele>
        <time>2018-07-12T09:51:12Z</time>
      </trkpt>
      <trkpt lat="46.05224" lon="4.77094">
        <ele>203</ele>
        <time>2018-07-12T09:51:13Z</time>
      </trkpt>
      <trkpt lat="46.05222" lon="4.77088">
        <ele>203</ele>
        <time>2018-07-12T09:51:14Z</time>
      </trkpt>
      <trkpt lat="46.0522" lon="4.77081">
        <ele>201</ele>
        <time>2018-07-12T09:51:15Z</time>
      </trkpt>
      <trkpt lat="46.05217" lon="4.77073">
        <ele>201</ele>
        <time>2018-07-12T09:51:16Z</time>
      </trkpt>
      <trkpt lat="46.05215" lon="4.77065">
        <ele>201</ele>
        <time>2018-07-12T09:51:17Z</time>
      </trkpt>
      <trkpt lat="46.05212" lon="4.77057">
        <ele>201</ele>
        <time>2018-07-12T09:51:18Z</time>
      </trkpt>
      <trkpt lat="46.05209" lon="4.77049">
        <ele>201</ele>
        <time>2018-07-12T09:51:19Z</time>
      </trkpt>
      <trkpt lat="46.05207" lon="4.77042">
        <ele>200</ele>
        <time>2018-07-12T09:51:20Z</time>
      </trkpt>
      <trkpt lat="46.05204" lon="4.77034">
        <ele>200</ele>
        <time>2018-07-12T09:51:21Z</time>
      </trkpt>
      <trkpt lat="46.05203" lon="4.77026">
        <ele>200</ele>
        <time>2018-07-12T09:51:22Z</time>
      </trkpt>
      <trkpt lat="46.05201" lon="4.77019">
        <ele>200</ele>
        <time>2018-07-12T09:51:23Z</time>
      </trkpt>
      <trkpt lat="46.05198" lon="4.7701">
        <ele>200</ele>
        <time>2018-07-12T09:51:24Z</time>
      </trkpt>
      <trkpt lat="46.05195" lon="4.77001">
        <ele>200</ele>
        <time>2018-07-12T09:51:25Z</time>
      </trkpt>
      <trkpt lat="46.05191" lon="4.76993">
        <ele>198</ele>
        <time>2018-07-12T09:51:26Z</time>
      </trkpt>
      <trkpt lat="46.05189" lon="4.76983">
        <ele>198</ele>
        <time>2018-07-12T09:51:27Z</time>
      </trkpt>
      <trkpt lat="46.05186" lon="4.76974">
        <ele>198</ele>
        <time>2018-07-12T09:51:28Z</time>
      </trkpt>
      <trkpt lat="46.05183" lon="4.76965">
        <ele>198</ele>
        <time>2018-07-12T09:51:29Z</time>
      </trkpt>
      <trkpt lat="46.05179" lon="4.76956">
        <ele>197</ele>
        <time>2018-07-12T09:51:30Z</time>
      </trkpt>
      <trkpt lat="46.05175" lon="4.76947">
        <ele>197</ele>
        <time>2018-07-12T09:51:31Z</time>
      </trkpt>
      <trkpt lat="46.05171" lon="4.76939">
        <ele>197</ele>
        <time>2018-07-12T09:51:32Z</time>
      </trkpt>
      <trkpt lat="46.05166" lon="4.76931">
        <ele>196</ele>
        <time>2018-07-12T09:51:33Z</time>
      </trkpt>
      <trkpt lat="46.05162" lon="4.76923">
        <ele>196</ele>
        <time>2018-07-12T09:51:34Z</time>
      </trkpt>
      <trkpt lat="46.05157" lon="4.76914">
        <ele>196</ele>
        <time>2018-07-12T09:51:35Z</time>
      </trkpt>
      <trkpt lat="46.05152" lon="4.76906">
        <ele>195</ele>
        <time>2018-07-12T09:51:36Z</time>
      </trkpt>
      <trkpt lat="46.05147" lon="4.76897">
        <ele>195</ele>
        <time>2018-07-12T09:51:37Z</time>
      </trkpt>
      <trkpt lat="46.05143" lon="4.76888">
        <ele>195</ele>
        <time>2018-07-12T09:51:38Z</time>
      </trkpt>
      <trkpt lat="46.05139" lon="4.76881">
        <ele>195</ele>
        <time>2018-07-12T09:51:39Z</time>
      </trkpt>
      <trkpt lat="46.05135" lon="4.7687">
        <ele>195</ele>
        <time>2018-07-12T09:51:40Z</time>
      </trkpt>
      <trkpt lat="46.05128" lon="4.7686">
        <ele>195</ele>
        <time>2018-07-12T09:51:41Z</time>
      </trkpt>
      <trkpt lat="46.05124" lon="4.76851">
        <ele>195</ele>
        <time>2018-07-12T09:51:42Z</time>
      </trkpt>
      <trkpt lat="46.0512" lon="4.76842">
        <ele>195</ele>
        <time>2018-07-12T09:51:43Z</time>
      </trkpt>
      <trkpt lat="46.05116" lon="4.76833">
        <ele>194</ele>
        <time>2018-07-12T09:51:44Z</time>
      </trkpt>
      <trkpt lat="46.05113" lon="4.76825">
        <ele>194</ele>
        <time>2018-07-12T09:51:45Z</time>
      </trkpt>
      <trkpt lat="46.0511" lon="4.76815">
        <ele>194</ele>
        <time>2018-07-12T09:51:46Z</time>
      </trkpt>
      <trkpt lat="46.05107" lon="4.76806">
        <ele>194</ele>
        <time>2018-07-12T09:51:47Z</time>
      </trkpt>
      <trkpt lat="46.05104" lon="4.76795">
        <ele>194</ele>
        <time>2018-07-12T09:51:48Z</time>
      </trkpt>
      <trkpt lat="46.05102" lon="4.76786">
        <ele>194</ele>
        <time>2018-07-12T09:51:49Z</time>
      </trkpt>
      <trkpt lat="46.051" lon="4.76776">
        <ele>194</ele>
        <time>2018-07-12T09:51:50Z</time>
      </trkpt>
      <trkpt lat="46.05098" lon="4.76768">
        <ele>194</ele>
        <time>2018-07-12T09:51:51Z</time>
      </trkpt>
      <trkpt lat="46.05094" lon="4.76758">
        <ele>194</ele>
        <time>2018-07-12T09:51:52Z</time>
      </trkpt>
      <trkpt lat="46.05092" lon="4.76748">
        <ele>194</ele>
        <time>2018-07-12T09:51:53Z</time>
      </trkpt>
      <trkpt lat="46.05091" lon="4.76739">
        <ele>193</ele>
        <time>2018-07-12T09:51:54Z</time>
      </trkpt>
      <trkpt lat="46.05091" lon="4.76729">
        <ele>193</ele>
        <time>2018-07-12T09:51:55Z</time>
      </trkpt>
      <trkpt lat="46.0509" lon="4.76721">
        <ele>193</ele>
        <time>2018-07-12T09:51:56Z</time>
      </trkpt>
      <trkpt lat="46.05089" lon="4.76711">
        <ele>193</ele>
        <time>2018-07-12T09:51:57Z</time>
      </trkpt>
      <trkpt lat="46.05087" lon="4.76701">
        <ele>193</ele>
        <time>2018-07-12T09:51:58Z</time>
      </trkpt>
      <trkpt lat="46.05085" lon="4.76691">
        <ele>193</ele>
        <time>2018-07-12T09:51:59Z</time>
      </trkpt>
      <trkpt lat="46.05085" lon="4.76681">
        <ele>193</ele>
        <time>2018-07-12T09:52:00Z</time>
      </trkpt>
      <trkpt lat="46.05084" lon="4.76673">
        <ele>193</ele>
        <time>2018-07-12T09:52:01Z</time>
      </trkpt>
      <trkpt lat="46.05083" lon="4.76664">
        <ele>193</ele>
        <time>2018-07-12T09:52:02Z</time>
      </trkpt>
      <trkpt lat="46.05084" lon="4.76656">
        <ele>192</ele>
        <time>2018-07-12T09:52:03Z</time>
      </trkpt>
      <trkpt lat="46.05081" lon="4.76648">
        <ele>192</ele>
        <time>2018-07-12T09:52:04Z</time>
      </trkpt>
      <trkpt lat="46.0508" lon="4.76642">
        <ele>192</ele>
        <time>2018-07-12T09:52:05Z</time>
      </trkpt>
      <trkpt lat="46.0508" lon="4.76629">
        <ele>192</ele>
        <time>2018-07-12T09:52:08Z</time>
      </trkpt>
      <trkpt lat="46.0508" lon="4.76626">
        <ele>192</ele>
        <time>2018-07-12T09:52:09Z</time>
      </trkpt>
      <trkpt lat="46.05075" lon="4.76615">
        <ele>191</ele>
        <time>2018-07-12T09:52:23Z</time>
      </trkpt>
      <trkpt lat="46.05075" lon="4.76612">
        <ele>191</ele>
        <time>2018-07-12T09:52:24Z</time>
      </trkpt>
      <trkpt lat="46.0507" lon="4.76605">
        <ele>191</ele>
        <time>2018-07-12T09:52:28Z</time>
      </trkpt>
      <trkpt lat="46.05068" lon="4.76603">
        <ele>191</ele>
        <time>2018-07-12T09:52:29Z</time>
      </trkpt>
      <trkpt lat="46.0506" lon="4.76597">
        <ele>191</ele>
        <time>2018-07-12T09:52:30Z</time>
      </trkpt>
      <trkpt lat="46.05056" lon="4.76593">
        <ele>191</ele>
        <time>2018-07-12T09:52:31Z</time>
      </trkpt>
      <trkpt lat="46.05052" lon="4.7659">
        <ele>191</ele>
        <time>2018-07-12T09:52:32Z</time>
      </trkpt>
      <trkpt lat="46.05045" lon="4.76581">
        <ele>190</ele>
        <time>2018-07-12T09:52:34Z</time>
      </trkpt>
      <trkpt lat="46.05039" lon="4.76577">
        <ele>190</ele>
        <time>2018-07-12T09:52:35Z</time>
      </trkpt>
      <trkpt lat="46.05034" lon="4.76573">
        <ele>190</ele>
        <time>2018-07-12T09:52:36Z</time>
      </trkpt>
      <trkpt lat="46.05029" lon="4.76569">
        <ele>190</ele>
        <time>2018-07-12T09:52:37Z</time>
      </trkpt>
      <trkpt lat="46.05024" lon="4.76566">
        <ele>190</ele>
        <time>2018-07-12T09:52:38Z</time>
      </trkpt>
      <trkpt lat="46.0502" lon="4.76565">
        <ele>190</ele>
        <time>2018-07-12T09:52:39Z</time>
      </trkpt>
      <trkpt lat="46.05012" lon="4.7656">
        <ele>190</ele>
        <time>2018-07-12T09:52:41Z</time>
      </trkpt>
      <trkpt lat="46.0501" lon="4.76553">
        <ele>190</ele>
        <time>2018-07-12T09:52:42Z</time>
      </trkpt>
      <trkpt lat="46.05007" lon="4.76546">
        <ele>190</ele>
        <time>2018-07-12T09:52:43Z</time>
      </trkpt>
      <trkpt lat="46.05004" lon="4.7654">
        <ele>190</ele>
        <time>2018-07-12T09:52:44Z</time>
      </trkpt>
      <trkpt lat="46.05002" lon="4.76533">
        <ele>190</ele>
        <time>2018-07-12T09:52:45Z</time>
      </trkpt>
      <trkpt lat="46.04999" lon="4.76528">
        <ele>191</ele>
        <time>2018-07-12T09:52:46Z</time>
      </trkpt>
      <trkpt lat="46.04996" lon="4.76521">
        <ele>191</ele>
        <time>2018-07-12T09:52:47Z</time>
      </trkpt>
      <trkpt lat="46.04992" lon="4.76516">
        <ele>191</ele>
        <time>2018-07-12T09:52:48Z</time>
      </trkpt>
      <trkpt lat="46.04989" lon="4.7651">
        <ele>191</ele>
        <time>2018-07-12T09:52:49Z</time>
      </trkpt>
      <trkpt lat="46.04986" lon="4.76504">
        <ele>191</ele>
        <time>2018-07-12T09:52:50Z</time>
      </trkpt>
      <trkpt lat="46.04983" lon="4.76497">
        <ele>190</ele>
        <time>2018-07-12T09:52:51Z</time>
      </trkpt>
      <trkpt lat="46.0498" lon="4.7649">
        <ele>190</ele>
        <time>2018-07-12T09:52:52Z</time>
      </trkpt>
      <trkpt lat="46.04979" lon="4.76482">
        <ele>191</ele>
        <time>2018-07-12T09:52:53Z</time>
      </trkpt>
      <trkpt lat="46.04977" lon="4.76475">
        <ele>191</ele>
        <time>2018-07-12T09:52:54Z</time>
      </trkpt>
      <trkpt lat="46.04974" lon="4.76467">
        <ele>191</ele>
        <time>2018-07-12T09:52:55Z</time>
      </trkpt>
      <trkpt lat="46.04972" lon="4.76459">
        <ele>190</ele>
        <time>2018-07-12T09:52:56Z</time>
      </trkpt>
      <trkpt lat="46.0497" lon="4.76453">
        <ele>190</ele>
        <time>2018-07-12T09:52:57Z</time>
      </trkpt>
      <trkpt lat="46.04968" lon="4.76447">
        <ele>190</ele>
        <time>2018-07-12T09:52:58Z</time>
      </trkpt>
      <trkpt lat="46.04966" lon="4.76442">
        <ele>190</ele>
        <time>2018-07-12T09:52:59Z</time>
      </trkpt>
      <trkpt lat="46.04961" lon="4.76437">
        <ele>190</ele>
        <time>2018-07-12T09:53:00Z</time>
      </trkpt>
      <trkpt lat="46.04956" lon="4.76433">
        <ele>191</ele>
        <time>2018-07-12T09:53:01Z</time>
      </trkpt>
      <trkpt lat="46.04952" lon="4.7643">
        <ele>191</ele>
        <time>2018-07-12T09:53:02Z</time>
      </trkpt>
      <trkpt lat="46.04947" lon="4.76429">
        <ele>191</ele>
        <time>2018-07-12T09:53:03Z</time>
      </trkpt>
      <trkpt lat="46.04943" lon="4.76429">
        <ele>191</ele>
        <time>2018-07-12T09:53:04Z</time>
      </trkpt>
      <trkpt lat="46.04935" lon="4.7643">
        <ele>191</ele>
        <time>2018-07-12T09:53:06Z</time>
      </trkpt>
      <trkpt lat="46.04931" lon="4.76433">
        <ele>191</ele>
        <time>2018-07-12T09:53:07Z</time>
      </trkpt>
      <trkpt lat="46.04926" lon="4.76434">
        <ele>191</ele>
        <time>2018-07-12T09:53:08Z</time>
      </trkpt>
      <trkpt lat="46.0492" lon="4.76435">
        <ele>191</ele>
        <time>2018-07-12T09:53:09Z</time>
      </trkpt>
      <trkpt lat="46.04915" lon="4.76439">
        <ele>193</ele>
        <time>2018-07-12T09:53:11Z</time>
      </trkpt>
      <trkpt lat="46.04908" lon="4.76439">
        <ele>193</ele>
        <time>2018-07-12T09:53:12Z</time>
      </trkpt>
      <trkpt lat="46.04902" lon="4.76439">
        <ele>193</ele>
        <time>2018-07-12T09:53:13Z</time>
      </trkpt>
      <trkpt lat="46.04895" lon="4.76439">
        <ele>193</ele>
        <time>2018-07-12T09:53:14Z</time>
      </trkpt>
      <trkpt lat="46.0489" lon="4.7644">
        <ele>193</ele>
        <time>2018-07-12T09:53:15Z</time>
      </trkpt>
      <trkpt lat="46.04884" lon="4.76441">
        <ele>193</ele>
        <time>2018-07-12T09:53:16Z</time>
      </trkpt>
      <trkpt lat="46.04879" lon="4.76441">
        <ele>193</ele>
        <time>2018-07-12T09:53:17Z</time>
      </trkpt>
      <trkpt lat="46.04874" lon="4.7644">
        <ele>193</ele>
        <time>2018-07-12T09:53:18Z</time>
      </trkpt>
      <trkpt lat="46.04869" lon="4.76439">
        <ele>193</ele>
        <time>2018-07-12T09:53:19Z</time>
      </trkpt>
      <trkpt lat="46.04863" lon="4.76439">
        <ele>193</ele>
        <time>2018-07-12T09:53:20Z</time>
      </trkpt>
      <trkpt lat="46.04854" lon="4.76437">
        <ele>193</ele>
        <time>2018-07-12T09:53:22Z</time>
      </trkpt>
      <trkpt lat="46.04848" lon="4.76436">
        <ele>194</ele>
        <time>2018-07-12T09:53:23Z</time>
      </trkpt>
      <trkpt lat="46.04844" lon="4.76436">
        <ele>194</ele>
        <time>2018-07-12T09:53:24Z</time>
      </trkpt>
      <trkpt lat="46.04838" lon="4.76435">
        <ele>194</ele>
        <time>2018-07-12T09:53:25Z</time>
      </trkpt>
      <trkpt lat="46.04831" lon="4.76435">
        <ele>193</ele>
        <time>2018-07-12T09:53:26Z</time>
      </trkpt>
      <trkpt lat="46.04827" lon="4.76434">
        <ele>193</ele>
        <time>2018-07-12T09:53:27Z</time>
      </trkpt>
      <trkpt lat="46.04822" lon="4.76435">
        <ele>193</ele>
        <time>2018-07-12T09:53:28Z</time>
      </trkpt>
      <trkpt lat="46.04816" lon="4.76431">
        <ele>193</ele>
        <time>2018-07-12T09:53:29Z</time>
      </trkpt>
      <trkpt lat="46.04811" lon="4.7643">
        <ele>193</ele>
        <time>2018-07-12T09:53:30Z</time>
      </trkpt>
      <trkpt lat="46.04806" lon="4.76429">
        <ele>193</ele>
        <time>2018-07-12T09:53:31Z</time>
      </trkpt>
      <trkpt lat="46.04801" lon="4.76428">
        <ele>193</ele>
        <time>2018-07-12T09:53:32Z</time>
      </trkpt>
      <trkpt lat="46.04797" lon="4.76428">
        <ele>193</ele>
        <time>2018-07-12T09:53:33Z</time>
      </trkpt>
      <trkpt lat="46.04793" lon="4.76431">
        <ele>193</ele>
        <time>2018-07-12T09:53:34Z</time>
      </trkpt>
      <trkpt lat="46.04786" lon="4.76435">
        <ele>192</ele>
        <time>2018-07-12T09:53:35Z</time>
      </trkpt>
      <trkpt lat="46.0478" lon="4.76439">
        <ele>192</ele>
        <time>2018-07-12T09:53:37Z</time>
      </trkpt>
      <trkpt lat="46.04775" lon="4.76446">
        <ele>192</ele>
        <time>2018-07-12T09:53:38Z</time>
      </trkpt>
      <trkpt lat="46.0477" lon="4.76451">
        <ele>192</ele>
        <time>2018-07-12T09:53:39Z</time>
      </trkpt>
      <trkpt lat="46.04764" lon="4.76455">
        <ele>192</ele>
        <time>2018-07-12T09:53:40Z</time>
      </trkpt>
      <trkpt lat="46.04759" lon="4.76459">
        <ele>192</ele>
        <time>2018-07-12T09:53:41Z</time>
      </trkpt>
      <trkpt lat="46.04755" lon="4.76463">
        <ele>192</ele>
        <time>2018-07-12T09:53:42Z</time>
      </trkpt>
      <trkpt lat="46.04749" lon="4.76466">
        <ele>190</ele>
        <time>2018-07-12T09:53:43Z</time>
      </trkpt>
      <trkpt lat="46.04744" lon="4.7647">
        <ele>190</ele>
        <time>2018-07-12T09:53:44Z</time>
      </trkpt>
      <trkpt lat="46.04739" lon="4.76475">
        <ele>190</ele>
        <time>2018-07-12T09:53:45Z</time>
      </trkpt>
      <trkpt lat="46.04733" lon="4.76478">
        <ele>189</ele>
        <time>2018-07-12T09:53:46Z</time>
      </trkpt>
      <trkpt lat="46.04727" lon="4.76478">
        <ele>189</ele>
        <time>2018-07-12T09:53:47Z</time>
      </trkpt>
      <trkpt lat="46.04722" lon="4.76482">
        <ele>189</ele>
        <time>2018-07-12T09:53:48Z</time>
      </trkpt>
      <trkpt lat="46.04716" lon="4.76483">
        <ele>189</ele>
        <time>2018-07-12T09:53:49Z</time>
      </trkpt>
      <trkpt lat="46.0471" lon="4.76483">
        <ele>189</ele>
        <time>2018-07-12T09:53:50Z</time>
      </trkpt>
      <trkpt lat="46.04706" lon="4.76484">
        <ele>189</ele>
        <time>2018-07-12T09:53:51Z</time>
      </trkpt>
      <trkpt lat="46.04701" lon="4.76484">
        <ele>188</ele>
        <time>2018-07-12T09:53:52Z</time>
      </trkpt>
      <trkpt lat="46.04696" lon="4.76487">
        <ele>188</ele>
        <time>2018-07-12T09:53:54Z</time>
      </trkpt>
      <trkpt lat="46.04688" lon="4.76491">
        <ele>188</ele>
        <time>2018-07-12T09:53:55Z</time>
      </trkpt>
      <trkpt lat="46.04683" lon="4.76494">
        <ele>187</ele>
        <time>2018-07-12T09:53:57.15Z</time>
      </trkpt>
      <trkpt lat="46.04677" lon="4.76497">
        <ele>187</ele>
        <time>2018-07-12T09:53:57Z</time>
      </trkpt>
      <trkpt lat="46.04673" lon="4.765">
        <ele>186</ele>
        <time>2018-07-12T09:53:58Z</time>
      </trkpt>
      <trkpt lat="46.04666" lon="4.76504">
        <ele>186</ele>
        <time>2018-07-12T09:53:59Z</time>
      </trkpt>
      <trkpt lat="46.04661" lon="4.76507">
        <ele>186</ele>
        <time>2018-07-12T09:54:00Z</time>
      </trkpt>
      <trkpt lat="46.04655" lon="4.76507">
        <ele>186</ele>
        <time>2018-07-12T09:54:01Z</time>
      </trkpt>
      <trkpt lat="46.04648" lon="4.76508">
        <ele>186</ele>
        <time>2018-07-12T09:54:02Z</time>
      </trkpt>
      <trkpt lat="46.04642" lon="4.7651">
        <ele>186</ele>
        <time>2018-07-12T09:54:03Z</time>
      </trkpt>
      <trkpt lat="46.0464" lon="4.76515">
        <ele>186</ele>
        <time>2018-07-12T09:54:04Z</time>
      </trkpt>
      <trkpt lat="46.04633" lon="4.76517">
        <ele>186</ele>
        <time>2018-07-12T09:54:05Z</time>
      </trkpt>
      <trkpt lat="46.04627" lon="4.76519">
        <ele>186</ele>
        <time>2018-07-12T09:54:06Z</time>
      </trkpt>
      <trkpt lat="46.0462" lon="4.76521">
        <ele>186</ele>
        <time>2018-07-12T09:54:07Z</time>
      </trkpt>
      <trkpt lat="46.04615" lon="4.76523">
        <ele>186</ele>
        <time>2018-07-12T09:54:08Z</time>
      </trkpt>
      <trkpt lat="46.04611" lon="4.76526">
        <ele>186</ele>
        <time>2018-07-12T09:54:09Z</time>
      </trkpt>
      <trkpt lat="46.04604" lon="4.76529">
        <ele>186</ele>
        <time>2018-07-12T09:54:10Z</time>
      </trkpt>
      <trkpt lat="46.04599" lon="4.76531">
        <ele>186</ele>
        <time>2018-07-12T09:54:11Z</time>
      </trkpt>
      <trkpt lat="46.04591" lon="4.76533">
        <ele>186</ele>
        <time>2018-07-12T09:54:13Z</time>
      </trkpt>
      <trkpt lat="46.04586" lon="4.76536">
        <ele>186</ele>
        <time>2018-07-12T09:54:14Z</time>
      </trkpt>
      <trkpt lat="46.04582" lon="4.76537">
        <ele>187</ele>
        <time>2018-07-12T09:54:15Z</time>
      </trkpt>
      <trkpt lat="46.04576" lon="4.76538">
        <ele>187</ele>
        <time>2018-07-12T09:54:16Z</time>
      </trkpt>
      <trkpt lat="46.04568" lon="4.76542">
        <ele>187</ele>
        <time>2018-07-12T09:54:18Z</time>
      </trkpt>
      <trkpt lat="46.04564" lon="4.76542">
        <ele>187</ele>
        <time>2018-07-12T09:54:19Z</time>
      </trkpt>
      <trkpt lat="46.04559" lon="4.76542">
        <ele>188</ele>
        <time>2018-07-12T09:54:20Z</time>
      </trkpt>
      <trkpt lat="46.04552" lon="4.76545">
        <ele>188</ele>
        <time>2018-07-12T09:54:21Z</time>
      </trkpt>
      <trkpt lat="46.04547" lon="4.76547">
        <ele>188</ele>
        <time>2018-07-12T09:54:22Z</time>
      </trkpt>
      <trkpt lat="46.04542" lon="4.76549">
        <ele>188</ele>
        <time>2018-07-12T09:54:23Z</time>
      </trkpt>
      <trkpt lat="46.0454" lon="4.76549">
        <ele>188</ele>
        <time>2018-07-12T09:54:24Z</time>
      </trkpt>
      <trkpt lat="46.04533" lon="4.76551">
        <ele>188</ele>
        <time>2018-07-12T09:54:25Z</time>
      </trkpt>
      <trkpt lat="46.04531" lon="4.76551">
        <ele>188</ele>
        <time>2018-07-12T09:54:26Z</time>
      </trkpt>
      <trkpt lat="46.04523" lon="4.76553">
        <ele>189</ele>
        <time>2018-07-12T09:54:27Z</time>
      </trkpt>
      <trkpt lat="46.04518" lon="4.76554">
        <ele>189</ele>
        <time>2018-07-12T09:54:28Z</time>
      </trkpt>
      <trkpt lat="46.04513" lon="4.76554">
        <ele>189</ele>
        <time>2018-07-12T09:54:29Z</time>
      </trkpt>
      <trkpt lat="46.04509" lon="4.76555">
        <ele>189</ele>
        <time>2018-07-12T09:54:32Z</time>
      </trkpt>
      <trkpt lat="46.04498" lon="4.76556">
        <ele>192</ele>
        <time>2018-07-12T09:54:33Z</time>
      </trkpt>
      <trkpt lat="46.04491" lon="4.76555">
        <ele>193</ele>
        <time>2018-07-12T09:54:35Z</time>
      </trkpt>
      <trkpt lat="46.04485" lon="4.76555">
        <ele>193</ele>
        <time>2018-07-12T09:54:36Z</time>
      </trkpt>
      <trkpt lat="46.04477" lon="4.76556">
        <ele>193</ele>
        <time>2018-07-12T09:54:38Z</time>
      </trkpt>
      <trkpt lat="46.04474" lon="4.76557">
        <ele>193</ele>
        <time>2018-07-12T09:54:39Z</time>
      </trkpt>
      <trkpt lat="46.04466" lon="4.76559">
        <ele>193</ele>
        <time>2018-07-12T09:54:41Z</time>
      </trkpt>
      <trkpt lat="46.04461" lon="4.76559">
        <ele>194</ele>
        <time>2018-07-12T09:54:42Z</time>
      </trkpt>
      <trkpt lat="46.04456" lon="4.76558">
        <ele>194</ele>
        <time>2018-07-12T09:54:43Z</time>
      </trkpt>
      <trkpt lat="46.0445" lon="4.7656">
        <ele>194</ele>
        <time>2018-07-12T09:54:44Z</time>
      </trkpt>
      <trkpt lat="46.04446" lon="4.76563">
        <ele>195</ele>
        <time>2018-07-12T09:54:45Z</time>
      </trkpt>
      <trkpt lat="46.04441" lon="4.76563">
        <ele>195</ele>
        <time>2018-07-12T09:54:46Z</time>
      </trkpt>
      <trkpt lat="46.04436" lon="4.76562">
        <ele>195</ele>
        <time>2018-07-12T09:54:47Z</time>
      </trkpt>
      <trkpt lat="46.04432" lon="4.76563">
        <ele>195</ele>
        <time>2018-07-12T09:54:48Z</time>
      </trkpt>
      <trkpt lat="46.04427" lon="4.76563">
        <ele>196</ele>
        <time>2018-07-12T09:54:49Z</time>
      </trkpt>
      <trkpt lat="46.04422" lon="4.76562">
        <ele>196</ele>
        <time>2018-07-12T09:54:50Z</time>
      </trkpt>
      <trkpt lat="46.04416" lon="4.76562">
        <ele>197</ele>
        <time>2018-07-12T09:54:51Z</time>
      </trkpt>
      <trkpt lat="46.04411" lon="4.76567">
        <ele>198</ele>
        <time>2018-07-12T09:54:52Z</time>
      </trkpt>
      <trkpt lat="46.04406" lon="4.76567">
        <ele>198</ele>
        <time>2018-07-12T09:54:53Z</time>
      </trkpt>
      <trkpt lat="46.04402" lon="4.76568">
        <ele>198</ele>
        <time>2018-07-12T09:54:54Z</time>
      </trkpt>
      <trkpt lat="46.04393" lon="4.76571">
        <ele>197</ele>
        <time>2018-07-12T09:54:56Z</time>
      </trkpt>
      <trkpt lat="46.04388" lon="4.76572">
        <ele>197</ele>
        <time>2018-07-12T09:54:57Z</time>
      </trkpt>
      <trkpt lat="46.04379" lon="4.76573">
        <ele>197</ele>
        <time>2018-07-12T09:54:59Z</time>
      </trkpt>
      <trkpt lat="46.04375" lon="4.76574">
        <ele>197</ele>
        <time>2018-07-12T09:55:00Z</time>
      </trkpt>
      <trkpt lat="46.0437" lon="4.76575">
        <ele>197</ele>
        <time>2018-07-12T09:55:01Z</time>
      </trkpt>
      <trkpt lat="46.04365" lon="4.76576">
        <ele>197</ele>
        <time>2018-07-12T09:55:02Z</time>
      </trkpt>
      <trkpt lat="46.04361" lon="4.76576">
        <ele>197</ele>
        <time>2018-07-12T09:55:03Z</time>
      </trkpt>
      <trkpt lat="46.04356" lon="4.76576">
        <ele>198</ele>
        <time>2018-07-12T09:55:04Z</time>
      </trkpt>
      <trkpt lat="46.04347" lon="4.76576">
        <ele>198</ele>
        <time>2018-07-12T09:55:06Z</time>
      </trkpt>
      <trkpt lat="46.04343" lon="4.76575">
        <ele>198</ele>
        <time>2018-07-12T09:55:07Z</time>
      </trkpt>
      <trkpt lat="46.04336" lon="4.76573">
        <ele>198</ele>
        <time>2018-07-12T09:55:09Z</time>
      </trkpt>
      <trkpt lat="46.04332" lon="4.76574">
        <ele>198</ele>
        <time>2018-07-12T09:55:10Z</time>
      </trkpt>
      <trkpt lat="46.04324" lon="4.76571">
        <ele>198</ele>
        <time>2018-07-12T09:55:13Z</time>
      </trkpt>
      <trkpt lat="46.04317" lon="4.76573">
        <ele>197</ele>
        <time>2018-07-12T09:55:14Z</time>
      </trkpt>
      <trkpt lat="46.04309" lon="4.76574">
        <ele>197</ele>
        <time>2018-07-12T09:55:16Z</time>
      </trkpt>
      <trkpt lat="46.04305" lon="4.76574">
        <ele>197</ele>
        <time>2018-07-12T09:55:17Z</time>
      </trkpt>
      <trkpt lat="46.04297" lon="4.76574">
        <ele>197</ele>
        <time>2018-07-12T09:55:19Z</time>
      </trkpt>
      <trkpt lat="46.04292" lon="4.76576">
        <ele>197</ele>
        <time>2018-07-12T09:55:20Z</time>
      </trkpt>
      <trkpt lat="46.04286" lon="4.76577">
        <ele>197</ele>
        <time>2018-07-12T09:55:23Z</time>
      </trkpt>
      <trkpt lat="46.04276" lon="4.7658">
        <ele>197</ele>
        <time>2018-07-12T09:55:24Z</time>
      </trkpt>
      <trkpt lat="46.04271" lon="4.76579">
        <ele>197</ele>
        <time>2018-07-12T09:55:25Z</time>
      </trkpt>
      <trkpt lat="46.04266" lon="4.76579">
        <ele>197</ele>
        <time>2018-07-12T09:55:26Z</time>
      </trkpt>
      <trkpt lat="46.04258" lon="4.76581">
        <ele>197</ele>
        <time>2018-07-12T09:55:28Z</time>
      </trkpt>
      <trkpt lat="46.04255" lon="4.76581">
        <ele>197</ele>
        <time>2018-07-12T09:55:29Z</time>
      </trkpt>
      <trkpt lat="46.04248" lon="4.76582">
        <ele>197</ele>
        <time>2018-07-12T09:55:30Z</time>
      </trkpt>
      <trkpt lat="46.04244" lon="4.76583">
        <ele>197</ele>
        <time>2018-07-12T09:55:31Z</time>
      </trkpt>
      <trkpt lat="46.04236" lon="4.76583">
        <ele>197</ele>
        <time>2018-07-12T09:55:33Z</time>
      </trkpt>
      <trkpt lat="46.0423" lon="4.76584">
        <ele>198</ele>
        <time>2018-07-12T09:55:34Z</time>
      </trkpt>
      <trkpt lat="46.04226" lon="4.76584">
        <ele>198</ele>
        <time>2018-07-12T09:55:35Z</time>
      </trkpt>
      <trkpt lat="46.0422" lon="4.76586">
        <ele>198</ele>
        <time>2018-07-12T09:55:36Z</time>
      </trkpt>
      <trkpt lat="46.04216" lon="4.76588">
        <ele>198</ele>
        <time>2018-07-12T09:55:37Z</time>
      </trkpt>
      <trkpt lat="46.04211" lon="4.7659">
        <ele>198</ele>
        <time>2018-07-12T09:55:38Z</time>
      </trkpt>
      <trkpt lat="46.04202" lon="4.76592">
        <ele>198</ele>
        <time>2018-07-12T09:55:40Z</time>
      </trkpt>
      <trkpt lat="46.04198" lon="4.76593">
        <ele>198</ele>
        <time>2018-07-12T09:55:41Z</time>
      </trkpt>
      <trkpt lat="46.0419" lon="4.76596">
        <ele>198</ele>
        <time>2018-07-12T09:55:43Z</time>
      </trkpt>
      <trkpt lat="46.04185" lon="4.766">
        <ele>198</ele>
        <time>2018-07-12T09:55:44Z</time>
      </trkpt>
      <trkpt lat="46.04178" lon="4.76603">
        <ele>198</ele>
        <time>2018-07-12T09:55:46Z</time>
      </trkpt>
      <trkpt lat="46.04173" lon="4.76609">
        <ele>198</ele>
        <time>2018-07-12T09:55:47Z</time>
      </trkpt>
      <trkpt lat="46.0417" lon="4.76614">
        <ele>198</ele>
        <time>2018-07-12T09:55:48Z</time>
      </trkpt>
      <trkpt lat="46.04165" lon="4.76617">
        <ele>199</ele>
        <time>2018-07-12T09:55:49Z</time>
      </trkpt>
      <trkpt lat="46.04159" lon="4.76621">
        <ele>199</ele>
        <time>2018-07-12T09:55:51Z</time>
      </trkpt>
      <trkpt lat="46.04154" lon="4.76626">
        <ele>200</ele>
        <time>2018-07-12T09:55:52Z</time>
      </trkpt>
      <trkpt lat="46.04149" lon="4.76629">
        <ele>200</ele>
        <time>2018-07-12T09:55:53Z</time>
      </trkpt>
      <trkpt lat="46.04146" lon="4.76633">
        <ele>200</ele>
        <time>2018-07-12T09:55:54Z</time>
      </trkpt>
      <trkpt lat="46.04141" lon="4.76636">
        <ele>200</ele>
        <time>2018-07-12T09:55:55Z</time>
      </trkpt>
      <trkpt lat="46.04137" lon="4.76639">
        <ele>200</ele>
        <time>2018-07-12T09:55:56Z</time>
      </trkpt>
      <trkpt lat="46.04133" lon="4.76643">
        <ele>200</ele>
        <time>2018-07-12T09:55:57Z</time>
      </trkpt>
      <trkpt lat="46.04128" lon="4.76647">
        <ele>200</ele>
        <time>2018-07-12T09:55:58Z</time>
      </trkpt>
      <trkpt lat="46.04123" lon="4.76649">
        <ele>200</ele>
        <time>2018-07-12T09:55:59Z</time>
      </trkpt>
      <trkpt lat="46.04118" lon="4.7665">
        <ele>200</ele>
        <time>2018-07-12T09:56:00Z</time>
      </trkpt>
      <trkpt lat="46.04109" lon="4.76653">
        <ele>200</ele>
        <time>2018-07-12T09:56:02Z</time>
      </trkpt>
      <trkpt lat="46.04105" lon="4.76654">
        <ele>200</ele>
        <time>2018-07-12T09:56:03Z</time>
      </trkpt>
      <trkpt lat="46.041" lon="4.76654">
        <ele>201</ele>
        <time>2018-07-12T09:56:04Z</time>
      </trkpt>
      <trkpt lat="46.04096" lon="4.76655">
        <ele>201</ele>
        <time>2018-07-12T09:56:05Z</time>
      </trkpt>
      <trkpt lat="46.04092" lon="4.76655">
        <ele>201</ele>
        <time>2018-07-12T09:56:06Z</time>
      </trkpt>
      <trkpt lat="46.04086" lon="4.76656">
        <ele>201</ele>
        <time>2018-07-12T09:56:07Z</time>
      </trkpt>
      <trkpt lat="46.04078" lon="4.76658">
        <ele>202</ele>
        <time>2018-07-12T09:56:09Z</time>
      </trkpt>
      <trkpt lat="46.04073" lon="4.76659">
        <ele>201</ele>
        <time>2018-07-12T09:56:10Z</time>
      </trkpt>
      <trkpt lat="46.04067" lon="4.7666">
        <ele>201</ele>
        <time>2018-07-12T09:56:12Z</time>
      </trkpt>
      <trkpt lat="46.04061" lon="4.76663">
        <ele>201</ele>
        <time>2018-07-12T09:56:13Z</time>
      </trkpt>
      <trkpt lat="46.0405" lon="4.76661">
        <ele>201</ele>
        <time>2018-07-12T09:56:14Z</time>
      </trkpt>
      <trkpt lat="46.04043" lon="4.76665">
        <ele>201</ele>
        <time>2018-07-12T09:56:16Z</time>
      </trkpt>
      <trkpt lat="46.04039" lon="4.76666">
        <ele>201</ele>
        <time>2018-07-12T09:56:17Z</time>
      </trkpt>
      <trkpt lat="46.04032" lon="4.76672">
        <ele>202</ele>
        <time>2018-07-12T09:56:19Z</time>
      </trkpt>
      <trkpt lat="46.04029" lon="4.76672">
        <ele>202</ele>
        <time>2018-07-12T09:56:20Z</time>
      </trkpt>
      <trkpt lat="46.04024" lon="4.76674">
        <ele>202</ele>
        <time>2018-07-12T09:56:21Z</time>
      </trkpt>
      <trkpt lat="46.04019" lon="4.76672">
        <ele>202</ele>
        <time>2018-07-12T09:56:22Z</time>
      </trkpt>
      <trkpt lat="46.04012" lon="4.76672">
        <ele>202</ele>
        <time>2018-07-12T09:56:24Z</time>
      </trkpt>
      <trkpt lat="46.0401" lon="4.76672">
        <ele>202</ele>
        <time>2018-07-12T09:56:25Z</time>
      </trkpt>
      <trkpt lat="46.04003" lon="4.76674">
        <ele>202</ele>
        <time>2018-07-12T09:56:26Z</time>
      </trkpt>
      <trkpt lat="46.03999" lon="4.76675">
        <ele>202</ele>
        <time>2018-07-12T09:56:27Z</time>
      </trkpt>
      <trkpt lat="46.03994" lon="4.76675">
        <ele>203</ele>
        <time>2018-07-12T09:56:28Z</time>
      </trkpt>
      <trkpt lat="46.0399" lon="4.76676">
        <ele>203</ele>
        <time>2018-07-12T09:56:29Z</time>
      </trkpt>
      <trkpt lat="46.03985" lon="4.76677">
        <ele>203</ele>
        <time>2018-07-12T09:56:30Z</time>
      </trkpt>
      <trkpt lat="46.0398" lon="4.76675">
        <ele>203</ele>
        <time>2018-07-12T09:56:31Z</time>
      </trkpt>
      <trkpt lat="46.03974" lon="4.76677">
        <ele>203</ele>
        <time>2018-07-12T09:56:32Z</time>
      </trkpt>
      <trkpt lat="46.03969" lon="4.76678">
        <ele>203</ele>
        <time>2018-07-12T09:56:33Z</time>
      </trkpt>
      <trkpt lat="46.03964" lon="4.76678">
        <ele>203</ele>
        <time>2018-07-12T09:56:34Z</time>
      </trkpt>
      <trkpt lat="46.03959" lon="4.76679">
        <ele>204</ele>
        <time>2018-07-12T09:56:35Z</time>
      </trkpt>
      <trkpt lat="46.03954" lon="4.7668">
        <ele>204</ele>
        <time>2018-07-12T09:56:36Z</time>
      </trkpt>
      <trkpt lat="46.03949" lon="4.76681">
        <ele>204</ele>
        <time>2018-07-12T09:56:37Z</time>
      </trkpt>
      <trkpt lat="46.03944" lon="4.76682">
        <ele>204</ele>
        <time>2018-07-12T09:56:38Z</time>
      </trkpt>
      <trkpt lat="46.03938" lon="4.76683">
        <ele>204</ele>
        <time>2018-07-12T09:56:39Z</time>
      </trkpt>
      <trkpt lat="46.03936" lon="4.7669">
        <ele>204</ele>
        <time>2018-07-12T09:56:40Z</time>
      </trkpt>
      <trkpt lat="46.03932" lon="4.76693">
        <ele>204</ele>
        <time>2018-07-12T09:56:41Z</time>
      </trkpt>
      <trkpt lat="46.03928" lon="4.76695">
        <ele>204</ele>
        <time>2018-07-12T09:56:42Z</time>
      </trkpt>
      <trkpt lat="46.03923" lon="4.76696">
        <ele>204</ele>
        <time>2018-07-12T09:56:43Z</time>
      </trkpt>
      <trkpt lat="46.03917" lon="4.76697">
        <ele>204</ele>
        <time>2018-07-12T09:56:44Z</time>
      </trkpt>
      <trkpt lat="46.03913" lon="4.767">
        <ele>205</ele>
        <time>2018-07-12T09:56:45Z</time>
      </trkpt>
      <trkpt lat="46.03907" lon="4.767">
        <ele>205</ele>
        <time>2018-07-12T09:56:46Z</time>
      </trkpt>
      <trkpt lat="46.03902" lon="4.76701">
        <ele>205</ele>
        <time>2018-07-12T09:56:47Z</time>
      </trkpt>
      <trkpt lat="46.03897" lon="4.76701">
        <ele>205</ele>
        <time>2018-07-12T09:56:48Z</time>
      </trkpt>
      <trkpt lat="46.03892" lon="4.76702">
        <ele>205</ele>
        <time>2018-07-12T09:56:49Z</time>
      </trkpt>
      <trkpt lat="46.03887" lon="4.76704">
        <ele>205</ele>
        <time>2018-07-12T09:56:50Z</time>
      </trkpt>
      <trkpt lat="46.03881" lon="4.76705">
        <ele>205</ele>
        <time>2018-07-12T09:56:51Z</time>
      </trkpt>
      <trkpt lat="46.03876" lon="4.76705">
        <ele>205</ele>
        <time>2018-07-12T09:56:52Z</time>
      </trkpt>
      <trkpt lat="46.03871" lon="4.76707">
        <ele>205</ele>
        <time>2018-07-12T09:56:53Z</time>
      </trkpt>
      <trkpt lat="46.03867" lon="4.76708">
        <ele>205</ele>
        <time>2018-07-12T09:56:54Z</time>
      </trkpt>
      <trkpt lat="46.03862" lon="4.7671">
        <ele>205</ele>
        <time>2018-07-12T09:56:55Z</time>
      </trkpt>
      <trkpt lat="46.03853" lon="4.76713">
        <ele>205</ele>
        <time>2018-07-12T09:56:57Z</time>
      </trkpt>
      <trkpt lat="46.03849" lon="4.76718">
        <ele>205</ele>
        <time>2018-07-12T09:56:58Z</time>
      </trkpt>
      <trkpt lat="46.03841" lon="4.76716">
        <ele>205</ele>
        <time>2018-07-12T09:57:00Z</time>
      </trkpt>
      <trkpt lat="46.03836" lon="4.76717">
        <ele>205</ele>
        <time>2018-07-12T09:57:01Z</time>
      </trkpt>
      <trkpt lat="46.03832" lon="4.76717">
        <ele>205</ele>
        <time>2018-07-12T09:57:02Z</time>
      </trkpt>
      <trkpt lat="46.03827" lon="4.76717">
        <ele>205</ele>
        <time>2018-07-12T09:57:03Z</time>
      </trkpt>
      <trkpt lat="46.03822" lon="4.76716">
        <ele>205</ele>
        <time>2018-07-12T09:57:04Z</time>
      </trkpt>
      <trkpt lat="46.03817" lon="4.76715">
        <ele>205</ele>
        <time>2018-07-12T09:57:05Z</time>
      </trkpt>
      <trkpt lat="46.03812" lon="4.76716">
        <ele>205</ele>
        <time>2018-07-12T09:57:06Z</time>
      </trkpt>
      <trkpt lat="46.03807" lon="4.76716">
        <ele>205</ele>
        <time>2018-07-12T09:57:07Z</time>
      </trkpt>
      <trkpt lat="46.03799" lon="4.76717">
        <ele>205</ele>
        <time>2018-07-12T09:57:09Z</time>
      </trkpt>
      <trkpt lat="46.03795" lon="4.76717">
        <ele>205</ele>
        <time>2018-07-12T09:57:10Z</time>
      </trkpt>
      <trkpt lat="46.03789" lon="4.76718">
        <ele>205</ele>
        <time>2018-07-12T09:57:11Z</time>
      </trkpt>
      <trkpt lat="46.03785" lon="4.76718">
        <ele>205</ele>
        <time>2018-07-12T09:57:12Z</time>
      </trkpt>
      <trkpt lat="46.03779" lon="4.76717">
        <ele>205</ele>
        <time>2018-07-12T09:57:13Z</time>
      </trkpt>
      <trkpt lat="46.03774" lon="4.76716">
        <ele>205</ele>
        <time>2018-07-12T09:57:14Z</time>
      </trkpt>
      <trkpt lat="46.03767" lon="4.76716">
        <ele>205</ele>
        <time>2018-07-12T09:57:15Z</time>
      </trkpt>
      <trkpt lat="46.03762" lon="4.76714">
        <ele>205</ele>
        <time>2018-07-12T09:57:16Z</time>
      </trkpt>
      <trkpt lat="46.03757" lon="4.76711">
        <ele>205</ele>
        <time>2018-07-12T09:57:17Z</time>
      </trkpt>
      <trkpt lat="46.03751" lon="4.76709">
        <ele>205</ele>
        <time>2018-07-12T09:57:18Z</time>
      </trkpt>
      <trkpt lat="46.03744" lon="4.76707">
        <ele>205</ele>
        <time>2018-07-12T09:57:19Z</time>
      </trkpt>
      <trkpt lat="46.03738" lon="4.76704">
        <ele>205</ele>
        <time>2018-07-12T09:57:20Z</time>
      </trkpt>
      <trkpt lat="46.03733" lon="4.76701">
        <ele>205</ele>
        <time>2018-07-12T09:57:21Z</time>
      </trkpt>
      <trkpt lat="46.03728" lon="4.76699">
        <ele>205</ele>
        <time>2018-07-12T09:57:22Z</time>
      </trkpt>
      <trkpt lat="46.03724" lon="4.76697">
        <ele>205</ele>
        <time>2018-07-12T09:57:23Z</time>
      </trkpt>
      <trkpt lat="46.03718" lon="4.76693">
        <ele>205</ele>
        <time>2018-07-12T09:57:24Z</time>
      </trkpt>
      <trkpt lat="46.03712" lon="4.7669">
        <ele>205</ele>
        <time>2018-07-12T09:57:25Z</time>
      </trkpt>
      <trkpt lat="46.03708" lon="4.76687">
        <ele>205</ele>
        <time>2018-07-12T09:57:26Z</time>
      </trkpt>
      <trkpt lat="46.03703" lon="4.76683">
        <ele>205</ele>
        <time>2018-07-12T09:57:27Z</time>
      </trkpt>
      <trkpt lat="46.03698" lon="4.76676">
        <ele>205</ele>
        <time>2018-07-12T09:57:28Z</time>
      </trkpt>
      <trkpt lat="46.03692" lon="4.76669">
        <ele>205</ele>
        <time>2018-07-12T09:57:29Z</time>
      </trkpt>
      <trkpt lat="46.03688" lon="4.76662">
        <ele>204</ele>
        <time>2018-07-12T09:57:30Z</time>
      </trkpt>
      <trkpt lat="46.03684" lon="4.76653">
        <ele>204</ele>
        <time>2018-07-12T09:57:31Z</time>
      </trkpt>
      <trkpt lat="46.03684" lon="4.76641">
        <ele>204</ele>
        <time>2018-07-12T09:57:32Z</time>
      </trkpt>
      <trkpt lat="46.03685" lon="4.76633">
        <ele>203</ele>
        <time>2018-07-12T09:57:33Z</time>
      </trkpt>
      <trkpt lat="46.03683" lon="4.76623">
        <ele>203</ele>
        <time>2018-07-12T09:57:34Z</time>
      </trkpt>
      <trkpt lat="46.03682" lon="4.76614">
        <ele>203</ele>
        <time>2018-07-12T09:57:35Z</time>
      </trkpt>
      <trkpt lat="46.0368" lon="4.76604">
        <ele>203</ele>
        <time>2018-07-12T09:57:36Z</time>
      </trkpt>
      <trkpt lat="46.03677" lon="4.76597">
        <ele>203</ele>
        <time>2018-07-12T09:57:37Z</time>
      </trkpt>
      <trkpt lat="46.03674" lon="4.76591">
        <ele>203</ele>
        <time>2018-07-12T09:57:38Z</time>
      </trkpt>
      <trkpt lat="46.03669" lon="4.76585">
        <ele>202</ele>
        <time>2018-07-12T09:57:39Z</time>
      </trkpt>
      <trkpt lat="46.03662" lon="4.76579">
        <ele>202</ele>
        <time>2018-07-12T09:57:40Z</time>
      </trkpt>
      <trkpt lat="46.03655" lon="4.76574">
        <ele>201</ele>
        <time>2018-07-12T09:57:41Z</time>
      </trkpt>
      <trkpt lat="46.03652" lon="4.76566">
        <ele>201</ele>
        <time>2018-07-12T09:57:42Z</time>
      </trkpt>
      <trkpt lat="46.03647" lon="4.76558">
        <ele>201</ele>
        <time>2018-07-12T09:57:43Z</time>
      </trkpt>
      <trkpt lat="46.03645" lon="4.7655">
        <ele>200</ele>
        <time>2018-07-12T09:57:44Z</time>
      </trkpt>
      <trkpt lat="46.03641" lon="4.76541">
        <ele>200</ele>
        <time>2018-07-12T09:57:45Z</time>
      </trkpt>
      <trkpt lat="46.03638" lon="4.76531">
        <ele>200</ele>
        <time>2018-07-12T09:57:46Z</time>
      </trkpt>
      <trkpt lat="46.03636" lon="4.76523">
        <ele>200</ele>
        <time>2018-07-12T09:57:47Z</time>
      </trkpt>
      <trkpt lat="46.03631" lon="4.76515">
        <ele>200</ele>
        <time>2018-07-12T09:57:48Z</time>
      </trkpt>
      <trkpt lat="46.03626" lon="4.76506">
        <ele>200</ele>
        <time>2018-07-12T09:57:49Z</time>
      </trkpt>
      <trkpt lat="46.03621" lon="4.76498">
        <ele>199</ele>
        <time>2018-07-12T09:57:50Z</time>
      </trkpt>
      <trkpt lat="46.03617" lon="4.76494">
        <ele>199</ele>
        <time>2018-07-12T09:57:51Z</time>
      </trkpt>
      <trkpt lat="46.03612" lon="4.76486">
        <ele>199</ele>
        <time>2018-07-12T09:57:52Z</time>
      </trkpt>
      <trkpt lat="46.03607" lon="4.76478">
        <ele>199</ele>
        <time>2018-07-12T09:57:53Z</time>
      </trkpt>
      <trkpt lat="46.03603" lon="4.7647">
        <ele>199</ele>
        <time>2018-07-12T09:57:54Z</time>
      </trkpt>
      <trkpt lat="46.03599" lon="4.76461">
        <ele>199</ele>
        <time>2018-07-12T09:57:55Z</time>
      </trkpt>
      <trkpt lat="46.03595" lon="4.76451">
        <ele>199</ele>
        <time>2018-07-12T09:57:56Z</time>
      </trkpt>
      <trkpt lat="46.03591" lon="4.76442">
        <ele>199</ele>
        <time>2018-07-12T09:57:57Z</time>
      </trkpt>
      <trkpt lat="46.03596" lon="4.76434">
        <ele>199</ele>
        <time>2018-07-12T09:57:58Z</time>
      </trkpt>
      <trkpt lat="46.03597" lon="4.76423">
        <ele>199</ele>
        <time>2018-07-12T09:57:59Z</time>
      </trkpt>
      <trkpt lat="46.03599" lon="4.76412">
        <ele>198</ele>
        <time>2018-07-12T09:58:00Z</time>
      </trkpt>
      <trkpt lat="46.03601" lon="4.76403">
        <ele>198</ele>
        <time>2018-07-12T09:58:01Z</time>
      </trkpt>
      <trkpt lat="46.03603" lon="4.76391">
        <ele>197</ele>
        <time>2018-07-12T09:58:02Z</time>
      </trkpt>
      <trkpt lat="46.03605" lon="4.76383">
        <ele>197</ele>
        <time>2018-07-12T09:58:03Z</time>
      </trkpt>
      <trkpt lat="46.03606" lon="4.76373">
        <ele>197</ele>
        <time>2018-07-12T09:58:04Z</time>
      </trkpt>
      <trkpt lat="46.03606" lon="4.76362">
        <ele>196</ele>
        <time>2018-07-12T09:58:05Z</time>
      </trkpt>
      <trkpt lat="46.03609" lon="4.7635">
        <ele>196</ele>
        <time>2018-07-12T09:58:06Z</time>
      </trkpt>
      <trkpt lat="46.0361" lon="4.76338">
        <ele>196</ele>
        <time>2018-07-12T09:58:07Z</time>
      </trkpt>
      <trkpt lat="46.03611" lon="4.76327">
        <ele>195</ele>
        <time>2018-07-12T09:58:08Z</time>
      </trkpt>
      <trkpt lat="46.03612" lon="4.76316">
        <ele>195</ele>
        <time>2018-07-12T09:58:09Z</time>
      </trkpt>
      <trkpt lat="46.03611" lon="4.76306">
        <ele>195</ele>
        <time>2018-07-12T09:58:10Z</time>
      </trkpt>
      <trkpt lat="46.03614" lon="4.76295">
        <ele>195</ele>
        <time>2018-07-12T09:58:11Z</time>
      </trkpt>
      <trkpt lat="46.03614" lon="4.76287">
        <ele>194</ele>
        <time>2018-07-12T09:58:12Z</time>
      </trkpt>
      <trkpt lat="46.03616" lon="4.76276">
        <ele>194</ele>
        <time>2018-07-12T09:58:13Z</time>
      </trkpt>
      <trkpt lat="46.03617" lon="4.76266">
        <ele>194</ele>
        <time>2018-07-12T09:58:14Z</time>
      </trkpt>
      <trkpt lat="46.03618" lon="4.76256">
        <ele>194</ele>
        <time>2018-07-12T09:58:15Z</time>
      </trkpt>
      <trkpt lat="46.0362" lon="4.76247">
        <ele>193</ele>
        <time>2018-07-12T09:58:16Z</time>
      </trkpt>
      <trkpt lat="46.03621" lon="4.76236">
        <ele>193</ele>
        <time>2018-07-12T09:58:17Z</time>
      </trkpt>
      <trkpt lat="46.03623" lon="4.76225">
        <ele>193</ele>
        <time>2018-07-12T09:58:18Z</time>
      </trkpt>
      <trkpt lat="46.03625" lon="4.76215">
        <ele>193</ele>
        <time>2018-07-12T09:58:19Z</time>
      </trkpt>
      <trkpt lat="46.03627" lon="4.76206">
        <ele>193</ele>
        <time>2018-07-12T09:58:20Z</time>
      </trkpt>
      <trkpt lat="46.03628" lon="4.76197">
        <ele>193</ele>
        <time>2018-07-12T09:58:21Z</time>
      </trkpt>
      <trkpt lat="46.03629" lon="4.76187">
        <ele>193</ele>
        <time>2018-07-12T09:58:22Z</time>
      </trkpt>
      <trkpt lat="46.0363" lon="4.76177">
        <ele>192</ele>
        <time>2018-07-12T09:58:23Z</time>
      </trkpt>
      <trkpt lat="46.0363" lon="4.76166">
        <ele>192</ele>
        <time>2018-07-12T09:58:24Z</time>
      </trkpt>
      <trkpt lat="46.03631" lon="4.76156">
        <ele>192</ele>
        <time>2018-07-12T09:58:25Z</time>
      </trkpt>
      <trkpt lat="46.0363" lon="4.76146">
        <ele>192</ele>
        <time>2018-07-12T09:58:26Z</time>
      </trkpt>
      <trkpt lat="46.0363" lon="4.76138">
        <ele>192</ele>
        <time>2018-07-12T09:58:27Z</time>
      </trkpt>
      <trkpt lat="46.03632" lon="4.76131">
        <ele>192</ele>
        <time>2018-07-12T09:58:28Z</time>
      </trkpt>
      <trkpt lat="46.03632" lon="4.76122">
        <ele>192</ele>
        <time>2018-07-12T09:58:29Z</time>
      </trkpt>
      <trkpt lat="46.0363" lon="4.76114">
        <ele>192</ele>
        <time>2018-07-12T09:58:30Z</time>
      </trkpt>
      <trkpt lat="46.03629" lon="4.76106">
        <ele>192</ele>
        <time>2018-07-12T09:58:31Z</time>
      </trkpt>
      <trkpt lat="46.03627" lon="4.76097">
        <ele>192</ele>
        <time>2018-07-12T09:58:32Z</time>
      </trkpt>
      <trkpt lat="46.03626" lon="4.76089">
        <ele>192</ele>
        <time>2018-07-12T09:58:33Z</time>
      </trkpt>
      <trkpt lat="46.03625" lon="4.7608">
        <ele>191</ele>
        <time>2018-07-12T09:58:34Z</time>
      </trkpt>
      <trkpt lat="46.03624" lon="4.76072">
        <ele>191</ele>
        <time>2018-07-12T09:58:35Z</time>
      </trkpt>
      <trkpt lat="46.03622" lon="4.76063">
        <ele>191</ele>
        <time>2018-07-12T09:58:36Z</time>
      </trkpt>
      <trkpt lat="46.03619" lon="4.76054">
        <ele>191</ele>
        <time>2018-07-12T09:58:37Z</time>
      </trkpt>
      <trkpt lat="46.03616" lon="4.76045">
        <ele>191</ele>
        <time>2018-07-12T09:58:38Z</time>
      </trkpt>
      <trkpt lat="46.03613" lon="4.76036">
        <ele>191</ele>
        <time>2018-07-12T09:58:39Z</time>
      </trkpt>
      <trkpt lat="46.0361" lon="4.76027">
        <ele>191</ele>
        <time>2018-07-12T09:58:40Z</time>
      </trkpt>
      <trkpt lat="46.03606" lon="4.76018">
        <ele>191</ele>
        <time>2018-07-12T09:58:41Z</time>
      </trkpt>
      <trkpt lat="46.03603" lon="4.76009">
        <ele>191</ele>
        <time>2018-07-12T09:58:42Z</time>
      </trkpt>
      <trkpt lat="46.036" lon="4.75999">
        <ele>190</ele>
        <time>2018-07-12T09:58:43Z</time>
      </trkpt>
      <trkpt lat="46.03597" lon="4.75991">
        <ele>190</ele>
        <time>2018-07-12T09:58:44Z</time>
      </trkpt>
      <trkpt lat="46.03595" lon="4.75984">
        <ele>190</ele>
        <time>2018-07-12T09:58:45Z</time>
      </trkpt>
      <trkpt lat="46.0359" lon="4.75975">
        <ele>190</ele>
        <time>2018-07-12T09:58:46Z</time>
      </trkpt>
      <trkpt lat="46.03586" lon="4.75966">
        <ele>190</ele>
        <time>2018-07-12T09:58:47Z</time>
      </trkpt>
      <trkpt lat="46.03582" lon="4.75958">
        <ele>190</ele>
        <time>2018-07-12T09:58:48Z</time>
      </trkpt>
      <trkpt lat="46.03578" lon="4.75949">
        <ele>190</ele>
        <time>2018-07-12T09:58:49Z</time>
      </trkpt>
      <trkpt lat="46.03577" lon="4.7594">
        <ele>190</ele>
        <time>2018-07-12T09:58:50Z</time>
      </trkpt>
      <trkpt lat="46.03574" lon="4.75933">
        <ele>190</ele>
        <time>2018-07-12T09:58:51Z</time>
      </trkpt>
      <trkpt lat="46.0357" lon="4.75924">
        <ele>189</ele>
        <time>2018-07-12T09:58:52Z</time>
      </trkpt>
      <trkpt lat="46.03568" lon="4.75916">
        <ele>189</ele>
        <time>2018-07-12T09:58:53Z</time>
      </trkpt>
      <trkpt lat="46.03565" lon="4.75907">
        <ele>189</ele>
        <time>2018-07-12T09:58:54Z</time>
      </trkpt>
      <trkpt lat="46.03561" lon="4.75899">
        <ele>189</ele>
        <time>2018-07-12T09:58:55Z</time>
      </trkpt>
      <trkpt lat="46.03557" lon="4.75892">
        <ele>189</ele>
        <time>2018-07-12T09:58:56Z</time>
      </trkpt>
      <trkpt lat="46.03554" lon="4.75885">
        <ele>189</ele>
        <time>2018-07-12T09:58:57Z</time>
      </trkpt>
      <trkpt lat="46.03554" lon="4.75879">
        <ele>189</ele>
        <time>2018-07-12T09:58:58Z</time>
      </trkpt>
      <trkpt lat="46.03549" lon="4.75871">
        <ele>189</ele>
        <time>2018-07-12T09:58:59Z</time>
      </trkpt>
      <trkpt lat="46.03546" lon="4.75863">
        <ele>189</ele>
        <time>2018-07-12T09:59:00Z</time>
      </trkpt>
      <trkpt lat="46.03542" lon="4.75857">
        <ele>190</ele>
        <time>2018-07-12T09:59:01Z</time>
      </trkpt>
      <trkpt lat="46.03538" lon="4.75849">
        <ele>190</ele>
        <time>2018-07-12T09:59:02Z</time>
      </trkpt>
      <trkpt lat="46.03535" lon="4.75841">
        <ele>190</ele>
        <time>2018-07-12T09:59:03Z</time>
      </trkpt>
      <trkpt lat="46.0353" lon="4.75834">
        <ele>190</ele>
        <time>2018-07-12T09:59:04Z</time>
      </trkpt>
      <trkpt lat="46.03526" lon="4.75827">
        <ele>189</ele>
        <time>2018-07-12T09:59:05Z</time>
      </trkpt>
      <trkpt lat="46.03523" lon="4.75819">
        <ele>189</ele>
        <time>2018-07-12T09:59:06Z</time>
      </trkpt>
      <trkpt lat="46.03521" lon="4.7581">
        <ele>189</ele>
        <time>2018-07-12T09:59:07Z</time>
      </trkpt>
      <trkpt lat="46.03517" lon="4.75802">
        <ele>189</ele>
        <time>2018-07-12T09:59:08Z</time>
      </trkpt>
      <trkpt lat="46.03513" lon="4.75793">
        <ele>189</ele>
        <time>2018-07-12T09:59:09Z</time>
      </trkpt>
      <trkpt lat="46.03508" lon="4.75785">
        <ele>189</ele>
        <time>2018-07-12T09:59:10Z</time>
      </trkpt>
      <trkpt lat="46.03505" lon="4.75777">
        <ele>189</ele>
        <time>2018-07-12T09:59:11Z</time>
      </trkpt>
      <trkpt lat="46.03502" lon="4.75772">
        <ele>189</ele>
        <time>2018-07-12T09:59:12Z</time>
      </trkpt>
      <trkpt lat="46.03499" lon="4.75764">
        <ele>189</ele>
        <time>2018-07-12T09:59:13Z</time>
      </trkpt>
      <trkpt lat="46.03499" lon="4.75756">
        <ele>189</ele>
        <time>2018-07-12T09:59:14Z</time>
      </trkpt>
      <trkpt lat="46.03496" lon="4.75748">
        <ele>189</ele>
        <time>2018-07-12T09:59:15Z</time>
      </trkpt>
      <trkpt lat="46.03493" lon="4.75742">
        <ele>189</ele>
        <time>2018-07-12T09:59:16Z</time>
      </trkpt>
      <trkpt lat="46.0349" lon="4.75734">
        <ele>189</ele>
        <time>2018-07-12T09:59:17Z</time>
      </trkpt>
      <trkpt lat="46.03486" lon="4.75725">
        <ele>189</ele>
        <time>2018-07-12T09:59:18Z</time>
      </trkpt>
      <trkpt lat="46.03484" lon="4.75718">
        <ele>189</ele>
        <time>2018-07-12T09:59:19Z</time>
      </trkpt>
      <trkpt lat="46.03482" lon="4.75712">
        <ele>189</ele>
        <time>2018-07-12T09:59:20Z</time>
      </trkpt>
      <trkpt lat="46.0348" lon="4.75704">
        <ele>189</ele>
        <time>2018-07-12T09:59:21Z</time>
      </trkpt>
      <trkpt lat="46.03475" lon="4.75698">
        <ele>189</ele>
        <time>2018-07-12T09:59:22Z</time>
      </trkpt>
      <trkpt lat="46.03472" lon="4.7569">
        <ele>189</ele>
        <time>2018-07-12T09:59:23Z</time>
      </trkpt>
      <trkpt lat="46.03469" lon="4.75682">
        <ele>189</ele>
        <time>2018-07-12T09:59:24Z</time>
      </trkpt>
      <trkpt lat="46.03466" lon="4.75675">
        <ele>189</ele>
        <time>2018-07-12T09:59:25Z</time>
      </trkpt>
      <trkpt lat="46.03463" lon="4.75666">
        <ele>188</ele>
        <time>2018-07-12T09:59:26Z</time>
      </trkpt>
      <trkpt lat="46.03459" lon="4.7566">
        <ele>188</ele>
        <time>2018-07-12T09:59:27Z</time>
      </trkpt>
      <trkpt lat="46.03457" lon="4.75653">
        <ele>188</ele>
        <time>2018-07-12T09:59:28Z</time>
      </trkpt>
      <trkpt lat="46.03453" lon="4.75643">
        <ele>188</ele>
        <time>2018-07-12T09:59:30Z</time>
      </trkpt>
      <trkpt lat="46.03452" lon="4.7564">
        <ele>188</ele>
        <time>2018-07-12T09:59:31Z</time>
      </trkpt>
      <trkpt lat="46.03447" lon="4.7563">
        <ele>188</ele>
        <time>2018-07-12T09:59:35Z</time>
      </trkpt>
      <trkpt lat="46.03446" lon="4.75627">
        <ele>188</ele>
        <time>2018-07-12T09:59:36Z</time>
      </trkpt>
      <trkpt lat="46.03441" lon="4.75621">
        <ele>188</ele>
        <time>2018-07-12T09:59:37Z</time>
      </trkpt>
      <trkpt lat="46.03437" lon="4.75619">
        <ele>188</ele>
        <time>2018-07-12T09:59:38Z</time>
      </trkpt>
      <trkpt lat="46.03433" lon="4.75619">
        <ele>188</ele>
        <time>2018-07-12T09:59:39Z</time>
      </trkpt>
      <trkpt lat="46.03426" lon="4.7562">
        <ele>188</ele>
        <time>2018-07-12T09:59:40Z</time>
      </trkpt>
      <trkpt lat="46.03421" lon="4.75622">
        <ele>188</ele>
        <time>2018-07-12T09:59:41Z</time>
      </trkpt>
      <trkpt lat="46.03414" lon="4.75623">
        <ele>188</ele>
        <time>2018-07-12T09:59:42Z</time>
      </trkpt>
      <trkpt lat="46.03409" lon="4.75626">
        <ele>188</ele>
        <time>2018-07-12T09:59:43Z</time>
      </trkpt>
      <trkpt lat="46.03403" lon="4.75628">
        <ele>188</ele>
        <time>2018-07-12T09:59:44Z</time>
      </trkpt>
      <trkpt lat="46.03396" lon="4.75631">
        <ele>188</ele>
        <time>2018-07-12T09:59:45Z</time>
      </trkpt>
      <trkpt lat="46.03389" lon="4.75631">
        <ele>188</ele>
        <time>2018-07-12T09:59:46Z</time>
      </trkpt>
      <trkpt lat="46.03383" lon="4.75633">
        <ele>188</ele>
        <time>2018-07-12T09:59:47Z</time>
      </trkpt>
      <trkpt lat="46.03377" lon="4.75636">
        <ele>188</ele>
        <time>2018-07-12T09:59:48Z</time>
      </trkpt>
      <trkpt lat="46.0337" lon="4.75634">
        <ele>188</ele>
        <time>2018-07-12T09:59:49Z</time>
      </trkpt>
      <trkpt lat="46.03363" lon="4.75634">
        <ele>188</ele>
        <time>2018-07-12T09:59:50Z</time>
      </trkpt>
      <trkpt lat="46.03357" lon="4.75632">
        <ele>188</ele>
        <time>2018-07-12T09:59:51Z</time>
      </trkpt>
      <trkpt lat="46.0335" lon="4.75632">
        <ele>188</ele>
        <time>2018-07-12T09:59:52Z</time>
      </trkpt>
      <trkpt lat="46.03343" lon="4.75632">
        <ele>188</ele>
        <time>2018-07-12T09:59:53Z</time>
      </trkpt>
      <trkpt lat="46.03338" lon="4.75633">
        <ele>188</ele>
        <time>2018-07-12T09:59:54Z</time>
      </trkpt>
      <trkpt lat="46.03332" lon="4.75632">
        <ele>189</ele>
        <time>2018-07-12T09:59:55Z</time>
      </trkpt>
      <trkpt lat="46.03327" lon="4.75633">
        <ele>189</ele>
        <time>2018-07-12T09:59:56Z</time>
      </trkpt>
      <trkpt lat="46.03321" lon="4.75634">
        <ele>189</ele>
        <time>2018-07-12T09:59:57Z</time>
      </trkpt>
      <trkpt lat="46.03314" lon="4.75633">
        <ele>189</ele>
        <time>2018-07-12T09:59:58Z</time>
      </trkpt>
      <trkpt lat="46.03308" lon="4.75632">
        <ele>189</ele>
        <time>2018-07-12T09:59:59Z</time>
      </trkpt>
      <trkpt lat="46.03303" lon="4.75632">
        <ele>189</ele>
        <time>2018-07-12T10:00:00Z</time>
      </trkpt>
      <trkpt lat="46.03295" lon="4.75634">
        <ele>189</ele>
        <time>2018-07-12T10:00:01Z</time>
      </trkpt>
      <trkpt lat="46.0329" lon="4.75635">
        <ele>190</ele>
        <time>2018-07-12T10:00:02Z</time>
      </trkpt>
      <trkpt lat="46.03286" lon="4.75641">
        <ele>190</ele>
        <time>2018-07-12T10:00:03Z</time>
      </trkpt>
      <trkpt lat="46.03281" lon="4.75646">
        <ele>190</ele>
        <time>2018-07-12T10:00:04Z</time>
      </trkpt>
      <trkpt lat="46.03276" lon="4.7565">
        <ele>191</ele>
        <time>2018-07-12T10:00:05Z</time>
      </trkpt>
      <trkpt lat="46.0327" lon="4.75655">
        <ele>191</ele>
        <time>2018-07-12T10:00:06Z</time>
      </trkpt>
      <trkpt lat="46.03264" lon="4.7566">
        <ele>192</ele>
        <time>2018-07-12T10:00:07Z</time>
      </trkpt>
      <trkpt lat="46.03259" lon="4.75663">
        <ele>193</ele>
        <time>2018-07-12T10:00:08Z</time>
      </trkpt>
      <trkpt lat="46.0325" lon="4.75665">
        <ele>195</ele>
        <time>2018-07-12T10:00:09Z</time>
      </trkpt>
      <trkpt lat="46.03245" lon="4.75667">
        <ele>195</ele>
        <time>2018-07-12T10:00:10Z</time>
      </trkpt>
      <trkpt lat="46.03236" lon="4.75669">
        <ele>194</ele>
        <time>2018-07-12T10:00:11Z</time>
      </trkpt>
      <trkpt lat="46.03231" lon="4.7567">
        <ele>194</ele>
        <time>2018-07-12T10:00:12Z</time>
      </trkpt>
      <trkpt lat="46.03225" lon="4.7567">
        <ele>194</ele>
        <time>2018-07-12T10:00:13Z</time>
      </trkpt>
      <trkpt lat="46.03221" lon="4.75671">
        <ele>194</ele>
        <time>2018-07-12T10:00:14Z</time>
      </trkpt>
      <trkpt lat="46.03216" lon="4.75673">
        <ele>193</ele>
        <time>2018-07-12T10:00:15Z</time>
      </trkpt>
      <trkpt lat="46.03209" lon="4.75674">
        <ele>193</ele>
        <time>2018-07-12T10:00:16Z</time>
      </trkpt>
      <trkpt lat="46.03203" lon="4.75675">
        <ele>192</ele>
        <time>2018-07-12T10:00:17Z</time>
      </trkpt>
      <trkpt lat="46.03196" lon="4.75676">
        <ele>192</ele>
        <time>2018-07-12T10:00:18Z</time>
      </trkpt>
      <trkpt lat="46.03189" lon="4.75678">
        <ele>191</ele>
        <time>2018-07-12T10:00:19Z</time>
      </trkpt>
      <trkpt lat="46.03183" lon="4.75676">
        <ele>191</ele>
        <time>2018-07-12T10:00:20Z</time>
      </trkpt>
      <trkpt lat="46.03176" lon="4.75676">
        <ele>190</ele>
        <time>2018-07-12T10:00:21Z</time>
      </trkpt>
      <trkpt lat="46.03171" lon="4.7568">
        <ele>190</ele>
        <time>2018-07-12T10:00:22Z</time>
      </trkpt>
      <trkpt lat="46.03165" lon="4.75678">
        <ele>188</ele>
        <time>2018-07-12T10:00:23Z</time>
      </trkpt>
      <trkpt lat="46.03159" lon="4.75679">
        <ele>188</ele>
        <time>2018-07-12T10:00:24Z</time>
      </trkpt>
      <trkpt lat="46.03153" lon="4.75681">
        <ele>187</ele>
        <time>2018-07-12T10:00:25Z</time>
      </trkpt>
      <trkpt lat="46.03147" lon="4.75681">
        <ele>187</ele>
        <time>2018-07-12T10:00:26Z</time>
      </trkpt>
      <trkpt lat="46.03141" lon="4.75682">
        <ele>187</ele>
        <time>2018-07-12T10:00:27Z</time>
      </trkpt>
      <trkpt lat="46.03134" lon="4.75682">
        <ele>187</ele>
        <time>2018-07-12T10:00:28Z</time>
      </trkpt>
      <trkpt lat="46.03127" lon="4.75682">
        <ele>187</ele>
        <time>2018-07-12T10:00:29Z</time>
      </trkpt>
      <trkpt lat="46.0312" lon="4.75681">
        <ele>186</ele>
        <time>2018-07-12T10:00:30Z</time>
      </trkpt>
      <trkpt lat="46.03114" lon="4.75683">
        <ele>186</ele>
        <time>2018-07-12T10:00:31Z</time>
      </trkpt>
      <trkpt lat="46.03107" lon="4.75684">
        <ele>186</ele>
        <time>2018-07-12T10:00:32Z</time>
      </trkpt>
      <trkpt lat="46.03101" lon="4.75686">
        <ele>186</ele>
        <time>2018-07-12T10:00:33Z</time>
      </trkpt>
      <trkpt lat="46.03094" lon="4.75686">
        <ele>185</ele>
        <time>2018-07-12T10:00:34Z</time>
      </trkpt>
      <trkpt lat="46.03086" lon="4.75687">
        <ele>185</ele>
        <time>2018-07-12T10:00:35Z</time>
      </trkpt>
      <trkpt lat="46.03079" lon="4.75686">
        <ele>184</ele>
        <time>2018-07-12T10:00:36Z</time>
      </trkpt>
      <trkpt lat="46.03073" lon="4.75688">
        <ele>184</ele>
        <time>2018-07-12T10:00:37Z</time>
      </trkpt>
      <trkpt lat="46.03065" lon="4.75688">
        <ele>184</ele>
        <time>2018-07-12T10:00:38Z</time>
      </trkpt>
      <trkpt lat="46.03058" lon="4.75689">
        <ele>184</ele>
        <time>2018-07-12T10:00:39Z</time>
      </trkpt>
      <trkpt lat="46.03052" lon="4.75691">
        <ele>184</ele>
        <time>2018-07-12T10:00:40Z</time>
      </trkpt>
      <trkpt lat="46.03046" lon="4.75693">
        <ele>184</ele>
        <time>2018-07-12T10:00:41Z</time>
      </trkpt>
      <trkpt lat="46.03039" lon="4.75696">
        <ele>184</ele>
        <time>2018-07-12T10:00:42Z</time>
      </trkpt>
      <trkpt lat="46.03032" lon="4.75699">
        <ele>184</ele>
        <time>2018-07-12T10:00:43Z</time>
      </trkpt>
      <trkpt lat="46.03026" lon="4.75701">
        <ele>184</ele>
        <time>2018-07-12T10:00:44Z</time>
      </trkpt>
      <trkpt lat="46.03017" lon="4.75706">
        <ele>184</ele>
        <time>2018-07-12T10:00:45Z</time>
      </trkpt>
      <trkpt lat="46.03009" lon="4.75708">
        <ele>184</ele>
        <time>2018-07-12T10:00:46Z</time>
      </trkpt>
      <trkpt lat="46.03002" lon="4.7571">
        <ele>184</ele>
        <time>2018-07-12T10:00:47Z</time>
      </trkpt>
      <trkpt lat="46.02994" lon="4.75715">
        <ele>183</ele>
        <time>2018-07-12T10:00:48Z</time>
      </trkpt>
      <trkpt lat="46.02987" lon="4.75718">
        <ele>183</ele>
        <time>2018-07-12T10:00:49Z</time>
      </trkpt>
      <trkpt lat="46.0298" lon="4.7572">
        <ele>183</ele>
        <time>2018-07-12T10:00:50Z</time>
      </trkpt>
      <trkpt lat="46.02975" lon="4.75722">
        <ele>183</ele>
        <time>2018-07-12T10:00:51Z</time>
      </trkpt>
      <trkpt lat="46.02967" lon="4.75723">
        <ele>183</ele>
        <time>2018-07-12T10:00:52Z</time>
      </trkpt>
      <trkpt lat="46.02961" lon="4.75724">
        <ele>183</ele>
        <time>2018-07-12T10:00:53Z</time>
      </trkpt>
      <trkpt lat="46.02954" lon="4.75727">
        <ele>183</ele>
        <time>2018-07-12T10:00:54Z</time>
      </trkpt>
      <trkpt lat="46.02946" lon="4.75727">
        <ele>183</ele>
        <time>2018-07-12T10:00:55Z</time>
      </trkpt>
      <trkpt lat="46.0294" lon="4.75729">
        <ele>183</ele>
        <time>2018-07-12T10:00:56Z</time>
      </trkpt>
      <trkpt lat="46.02933" lon="4.75729">
        <ele>183</ele>
        <time>2018-07-12T10:00:57Z</time>
      </trkpt>
      <trkpt lat="46.02926" lon="4.7573">
        <ele>183</ele>
        <time>2018-07-12T10:00:58Z</time>
      </trkpt>
      <trkpt lat="46.02919" lon="4.75731">
        <ele>183</ele>
        <time>2018-07-12T10:00:59Z</time>
      </trkpt>
      <trkpt lat="46.02913" lon="4.75732">
        <ele>183</ele>
        <time>2018-07-12T10:01:00Z</time>
      </trkpt>
      <trkpt lat="46.02907" lon="4.75734">
        <ele>183</ele>
        <time>2018-07-12T10:01:01Z</time>
      </trkpt>
      <trkpt lat="46.02901" lon="4.75735">
        <ele>183</ele>
        <time>2018-07-12T10:01:02Z</time>
      </trkpt>
      <trkpt lat="46.02895" lon="4.75736">
        <ele>183</ele>
        <time>2018-07-12T10:01:03Z</time>
      </trkpt>
      <trkpt lat="46.02888" lon="4.75737">
        <ele>183</ele>
        <time>2018-07-12T10:01:04Z</time>
      </trkpt>
      <trkpt lat="46.02882" lon="4.75739">
        <ele>184</ele>
        <time>2018-07-12T10:01:05Z</time>
      </trkpt>
      <trkpt lat="46.02876" lon="4.75744">
        <ele>184</ele>
        <time>2018-07-12T10:01:06Z</time>
      </trkpt>
      <trkpt lat="46.02871" lon="4.75752">
        <ele>186</ele>
        <time>2018-07-12T10:01:07Z</time>
      </trkpt>
      <trkpt lat="46.02864" lon="4.75755">
        <ele>186</ele>
        <time>2018-07-12T10:01:08Z</time>
      </trkpt>
      <trkpt lat="46.02855" lon="4.75744">
        <ele>185</ele>
        <time>2018-07-12T10:01:09Z</time>
      </trkpt>
      <trkpt lat="46.02847" lon="4.75744">
        <ele>185</ele>
        <time>2018-07-12T10:01:10Z</time>
      </trkpt>
      <trkpt lat="46.02841" lon="4.75743">
        <ele>186</ele>
        <time>2018-07-12T10:01:11Z</time>
      </trkpt>
      <trkpt lat="46.02833" lon="4.75742">
        <ele>186</ele>
        <time>2018-07-12T10:01:12Z</time>
      </trkpt>
      <trkpt lat="46.02826" lon="4.7574">
        <ele>185</ele>
        <time>2018-07-12T10:01:13Z</time>
      </trkpt>
      <trkpt lat="46.02819" lon="4.75738">
        <ele>185</ele>
        <time>2018-07-12T10:01:14Z</time>
      </trkpt>
      <trkpt lat="46.02812" lon="4.75737">
        <ele>184</ele>
        <time>2018-07-12T10:01:15Z</time>
      </trkpt>
      <trkpt lat="46.02804" lon="4.75736">
        <ele>184</ele>
        <time>2018-07-12T10:01:16Z</time>
      </trkpt>
      <trkpt lat="46.02799" lon="4.75742">
        <ele>184</ele>
        <time>2018-07-12T10:01:17Z</time>
      </trkpt>
      <trkpt lat="46.02792" lon="4.75743">
        <ele>184</ele>
        <time>2018-07-12T10:01:18Z</time>
      </trkpt>
      <trkpt lat="46.02785" lon="4.75739">
        <ele>184</ele>
        <time>2018-07-12T10:01:19Z</time>
      </trkpt>
      <trkpt lat="46.02777" lon="4.75736">
        <ele>184</ele>
        <time>2018-07-12T10:01:20Z</time>
      </trkpt>
      <trkpt lat="46.02771" lon="4.75736">
        <ele>184</ele>
        <time>2018-07-12T10:01:21Z</time>
      </trkpt>
      <trkpt lat="46.02765" lon="4.75735">
        <ele>184</ele>
        <time>2018-07-12T10:01:22Z</time>
      </trkpt>
      <trkpt lat="46.02758" lon="4.75735">
        <ele>184</ele>
        <time>2018-07-12T10:01:23Z</time>
      </trkpt>
      <trkpt lat="46.02752" lon="4.75735">
        <ele>185</ele>
        <time>2018-07-12T10:01:24Z</time>
      </trkpt>
      <trkpt lat="46.02747" lon="4.75734">
        <ele>184</ele>
        <time>2018-07-12T10:01:25Z</time>
      </trkpt>
      <trkpt lat="46.02743" lon="4.75736">
        <ele>184</ele>
        <time>2018-07-12T10:01:26Z</time>
      </trkpt>
      <trkpt lat="46.02737" lon="4.75735">
        <ele>183</ele>
        <time>2018-07-12T10:01:27Z</time>
      </trkpt>
      <trkpt lat="46.02731" lon="4.75735">
        <ele>183</ele>
        <time>2018-07-12T10:01:28Z</time>
      </trkpt>
      <trkpt lat="46.02727" lon="4.75737">
        <ele>183</ele>
        <time>2018-07-12T10:01:29Z</time>
      </trkpt>
      <trkpt lat="46.02722" lon="4.75739">
        <ele>183</ele>
        <time>2018-07-12T10:01:30Z</time>
      </trkpt>
      <trkpt lat="46.02716" lon="4.7574">
        <ele>182</ele>
        <time>2018-07-12T10:01:31Z</time>
      </trkpt>
      <trkpt lat="46.0271" lon="4.75741">
        <ele>182</ele>
        <time>2018-07-12T10:01:32Z</time>
      </trkpt>
      <trkpt lat="46.02707" lon="4.75745">
        <ele>182</ele>
        <time>2018-07-12T10:01:33Z</time>
      </trkpt>
      <trkpt lat="46.02702" lon="4.75747">
        <ele>182</ele>
        <time>2018-07-12T10:01:34Z</time>
      </trkpt>
      <trkpt lat="46.02695" lon="4.75748">
        <ele>182</ele>
        <time>2018-07-12T10:01:35Z</time>
      </trkpt>
      <trkpt lat="46.0269" lon="4.75749">
        <ele>182</ele>
        <time>2018-07-12T10:01:36Z</time>
      </trkpt>
      <trkpt lat="46.02684" lon="4.75751">
        <ele>183</ele>
        <time>2018-07-12T10:01:37Z</time>
      </trkpt>
      <trkpt lat="46.02679" lon="4.75752">
        <ele>183</ele>
        <time>2018-07-12T10:01:38Z</time>
      </trkpt>
      <trkpt lat="46.02673" lon="4.75754">
        <ele>182</ele>
        <time>2018-07-12T10:01:39Z</time>
      </trkpt>
      <trkpt lat="46.02669" lon="4.75756">
        <ele>182</ele>
        <time>2018-07-12T10:01:40Z</time>
      </trkpt>
      <trkpt lat="46.02664" lon="4.75757">
        <ele>182</ele>
        <time>2018-07-12T10:01:41Z</time>
      </trkpt>
      <trkpt lat="46.02658" lon="4.75757">
        <ele>182</ele>
        <time>2018-07-12T10:01:42Z</time>
      </trkpt>
      <trkpt lat="46.02654" lon="4.75757">
        <ele>182</ele>
        <time>2018-07-12T10:01:43Z</time>
      </trkpt>
      <trkpt lat="46.02647" lon="4.75754">
        <ele>182</ele>
        <time>2018-07-12T10:01:45Z</time>
      </trkpt>
      <trkpt lat="46.02639" lon="4.75752">
        <ele>182</ele>
        <time>2018-07-12T10:01:46Z</time>
      </trkpt>
      <trkpt lat="46.02632" lon="4.75749">
        <ele>182</ele>
        <time>2018-07-12T10:01:48Z</time>
      </trkpt>
      <trkpt lat="46.02629" lon="4.75749">
        <ele>182</ele>
        <time>2018-07-12T10:01:49Z</time>
      </trkpt>
      <trkpt lat="46.02623" lon="4.75745">
        <ele>182</ele>
        <time>2018-07-12T10:01:52Z</time>
      </trkpt>
      <trkpt lat="46.02615" lon="4.75741">
        <ele>182</ele>
        <time>2018-07-12T10:01:53Z</time>
      </trkpt>
      <trkpt lat="46.02607" lon="4.7574">
        <ele>183</ele>
        <time>2018-07-12T10:01:57Z</time>
      </trkpt>
      <trkpt lat="46.02604" lon="4.7574">
        <ele>183</ele>
        <time>2018-07-12T10:01:58Z</time>
      </trkpt>
      <trkpt lat="46.02595" lon="4.75739">
        <ele>183</ele>
        <time>2018-07-12T10:02:01Z</time>
      </trkpt>
      <trkpt lat="46.02592" lon="4.75739">
        <ele>183</ele>
        <time>2018-07-12T10:02:02Z</time>
      </trkpt>
      <trkpt lat="46.02586" lon="4.75738">
        <ele>183</ele>
        <time>2018-07-12T10:02:04Z</time>
      </trkpt>
      <trkpt lat="46.02583" lon="4.75738">
        <ele>184</ele>
        <time>2018-07-12T10:02:05Z</time>
      </trkpt>
      <trkpt lat="46.02577" lon="4.75738">
        <ele>184</ele>
        <time>2018-07-12T10:02:07Z</time>
      </trkpt>
      <trkpt lat="46.02574" lon="4.75738">
        <ele>185</ele>
        <time>2018-07-12T10:02:08Z</time>
      </trkpt>
      <trkpt lat="46.02567" lon="4.75737">
        <ele>185</ele>
        <time>2018-07-12T10:02:10Z</time>
      </trkpt>
      <trkpt lat="46.02564" lon="4.75737">
        <ele>185</ele>
        <time>2018-07-12T10:02:11Z</time>
      </trkpt>
      <trkpt lat="46.02556" lon="4.75737">
        <ele>186</ele>
        <time>2018-07-12T10:02:13Z</time>
      </trkpt>
      <trkpt lat="46.02553" lon="4.75737">
        <ele>186</ele>
        <time>2018-07-12T10:02:14Z</time>
      </trkpt>
      <trkpt lat="46.02546" lon="4.75736">
        <ele>186</ele>
        <time>2018-07-12T10:02:16Z</time>
      </trkpt>
      <trkpt lat="46.02543" lon="4.75736">
        <ele>186</ele>
        <time>2018-07-12T10:02:17Z</time>
      </trkpt>
      <trkpt lat="46.02534" lon="4.75737">
        <ele>187</ele>
        <time>2018-07-12T10:02:20Z</time>
      </trkpt>
      <trkpt lat="46.02532" lon="4.75737">
        <ele>187</ele>
        <time>2018-07-12T10:02:21Z</time>
      </trkpt>
      <trkpt lat="46.02526" lon="4.75739">
        <ele>187</ele>
        <time>2018-07-12T10:02:22Z</time>
      </trkpt>
      <trkpt lat="46.02522" lon="4.7574">
        <ele>187</ele>
        <time>2018-07-12T10:02:23Z</time>
      </trkpt>
      <trkpt lat="46.02516" lon="4.75742">
        <ele>188</ele>
        <time>2018-07-12T10:02:25Z</time>
      </trkpt>
      <trkpt lat="46.02513" lon="4.75743">
        <ele>188</ele>
        <time>2018-07-12T10:02:26Z</time>
      </trkpt>
      <trkpt lat="46.02507" lon="4.75746">
        <ele>189</ele>
        <time>2018-07-12T10:02:28Z</time>
      </trkpt>
      <trkpt lat="46.02504" lon="4.75747">
        <ele>189</ele>
        <time>2018-07-12T10:02:29Z</time>
      </trkpt>
      <trkpt lat="46.02497" lon="4.7575">
        <ele>190</ele>
        <time>2018-07-12T10:02:31Z</time>
      </trkpt>
      <trkpt lat="46.02494" lon="4.75751">
        <ele>190</ele>
        <time>2018-07-12T10:02:32Z</time>
      </trkpt>
      <trkpt lat="46.02488" lon="4.75755">
        <ele>190</ele>
        <time>2018-07-12T10:02:34Z</time>
      </trkpt>
      <trkpt lat="46.02486" lon="4.75757">
        <ele>190</ele>
        <time>2018-07-12T10:02:35Z</time>
      </trkpt>
      <trkpt lat="46.02483" lon="4.75759">
        <ele>191</ele>
        <time>2018-07-12T10:02:36Z</time>
      </trkpt>
      <trkpt lat="46.02473" lon="4.75765">
        <ele>191</ele>
        <time>2018-07-12T10:02:37Z</time>
      </trkpt>
      <trkpt lat="46.02466" lon="4.7577">
        <ele>191</ele>
        <time>2018-07-12T10:02:40Z</time>
      </trkpt>
      <trkpt lat="46.02464" lon="4.75771">
        <ele>191</ele>
        <time>2018-07-12T10:02:41Z</time>
      </trkpt>
      <trkpt lat="46.02457" lon="4.75775">
        <ele>191</ele>
        <time>2018-07-12T10:02:44Z</time>
      </trkpt>
      <trkpt lat="46.02454" lon="4.75777">
        <ele>191</ele>
        <time>2018-07-12T10:02:45Z</time>
      </trkpt>
      <trkpt lat="46.02446" lon="4.75781">
        <ele>191</ele>
        <time>2018-07-12T10:02:48Z</time>
      </trkpt>
      <trkpt lat="46.02443" lon="4.75783">
        <ele>191</ele>
        <time>2018-07-12T10:02:49Z</time>
      </trkpt>
      <trkpt lat="46.0244" lon="4.75784">
        <ele>191</ele>
        <time>2018-07-12T10:02:50Z</time>
      </trkpt>
      <trkpt lat="46.0243" lon="4.75789">
        <ele>191</ele>
        <time>2018-07-12T10:02:51Z</time>
      </trkpt>
      <trkpt lat="46.02423" lon="4.75793">
        <ele>192</ele>
        <time>2018-07-12T10:02:53Z</time>
      </trkpt>
      <trkpt lat="46.02419" lon="4.75795">
        <ele>192</ele>
        <time>2018-07-12T10:02:54Z</time>
      </trkpt>
      <trkpt lat="46.02412" lon="4.75799">
        <ele>192</ele>
        <time>2018-07-12T10:02:56Z</time>
      </trkpt>
      <trkpt lat="46.02408" lon="4.75801">
        <ele>192</ele>
        <time>2018-07-12T10:02:57Z</time>
      </trkpt>
      <trkpt lat="46.02402" lon="4.75807">
        <ele>192</ele>
        <time>2018-07-12T10:02:59Z</time>
      </trkpt>
      <trkpt lat="46.02399" lon="4.75809">
        <ele>192</ele>
        <time>2018-07-12T10:03:00Z</time>
      </trkpt>
      <trkpt lat="46.02393" lon="4.75814">
        <ele>192</ele>
        <time>2018-07-12T10:03:02Z</time>
      </trkpt>
      <trkpt lat="46.0239" lon="4.75816">
        <ele>192</ele>
        <time>2018-07-12T10:03:03Z</time>
      </trkpt>
      <trkpt lat="46.02383" lon="4.75821">
        <ele>192</ele>
        <time>2018-07-12T10:03:05Z</time>
      </trkpt>
      <trkpt lat="46.02379" lon="4.75823">
        <ele>192</ele>
        <time>2018-07-12T10:03:06Z</time>
      </trkpt>
      <trkpt lat="46.02371" lon="4.75829">
        <ele>192</ele>
        <time>2018-07-12T10:03:08Z</time>
      </trkpt>
      <trkpt lat="46.02367" lon="4.75832">
        <ele>192</ele>
        <time>2018-07-12T10:03:09Z</time>
      </trkpt>
      <trkpt lat="46.0236" lon="4.75838">
        <ele>193</ele>
        <time>2018-07-12T10:03:11Z</time>
      </trkpt>
      <trkpt lat="46.02356" lon="4.75841">
        <ele>193</ele>
        <time>2018-07-12T10:03:12Z</time>
      </trkpt>
      <trkpt lat="46.0235" lon="4.75847">
        <ele>193</ele>
        <time>2018-07-12T10:03:14Z</time>
      </trkpt>
      <trkpt lat="46.02346" lon="4.7585">
        <ele>193</ele>
        <time>2018-07-12T10:03:15Z</time>
      </trkpt>
      <trkpt lat="46.0234" lon="4.75858">
        <ele>193</ele>
        <time>2018-07-12T10:03:17Z</time>
      </trkpt>
      <trkpt lat="46.02337" lon="4.75862">
        <ele>193</ele>
        <time>2018-07-12T10:03:18Z</time>
      </trkpt>
      <trkpt lat="46.02333" lon="4.75866">
        <ele>193</ele>
        <time>2018-07-12T10:03:19Z</time>
      </trkpt>
      <trkpt lat="46.02328" lon="4.75869">
        <ele>193</ele>
        <time>2018-07-12T10:03:20Z</time>
      </trkpt>
      <trkpt lat="46.02321" lon="4.75876">
        <ele>193</ele>
        <time>2018-07-12T10:03:22Z</time>
      </trkpt>
      <trkpt lat="46.02317" lon="4.75875">
        <ele>193</ele>
        <time>2018-07-12T10:03:23Z</time>
      </trkpt>
      <trkpt lat="46.02311" lon="4.75875">
        <ele>193</ele>
        <time>2018-07-12T10:03:24Z</time>
      </trkpt>
      <trkpt lat="46.02307" lon="4.75879">
        <ele>193</ele>
        <time>2018-07-12T10:03:25Z</time>
      </trkpt>
      <trkpt lat="46.02302" lon="4.75879">
        <ele>193</ele>
        <time>2018-07-12T10:03:27Z</time>
      </trkpt>
      <trkpt lat="46.02298" lon="4.75884">
        <ele>193</ele>
        <time>2018-07-12T10:03:28Z</time>
      </trkpt>
      <trkpt lat="46.02292" lon="4.75889">
        <ele>193</ele>
        <time>2018-07-12T10:03:29Z</time>
      </trkpt>
      <trkpt lat="46.02286" lon="4.75893">
        <ele>193</ele>
        <time>2018-07-12T10:03:30Z</time>
      </trkpt>
      <trkpt lat="46.02281" lon="4.75899">
        <ele>193</ele>
        <time>2018-07-12T10:03:31Z</time>
      </trkpt>
      <trkpt lat="46.02277" lon="4.75905">
        <ele>193</ele>
        <time>2018-07-12T10:03:32Z</time>
      </trkpt>
      <trkpt lat="46.02272" lon="4.7591">
        <ele>193</ele>
        <time>2018-07-12T10:03:33Z</time>
      </trkpt>
      <trkpt lat="46.02267" lon="4.75917">
        <ele>193</ele>
        <time>2018-07-12T10:03:34Z</time>
      </trkpt>
      <trkpt lat="46.02262" lon="4.75919">
        <ele>193</ele>
        <time>2018-07-12T10:03:35Z</time>
      </trkpt>
      <trkpt lat="46.02255" lon="4.75924">
        <ele>193</ele>
        <time>2018-07-12T10:03:36Z</time>
      </trkpt>
      <trkpt lat="46.0225" lon="4.75929">
        <ele>193</ele>
        <time>2018-07-12T10:03:37Z</time>
      </trkpt>
      <trkpt lat="46.02245" lon="4.75934">
        <ele>193</ele>
        <time>2018-07-12T10:03:38Z</time>
      </trkpt>
      <trkpt lat="46.02239" lon="4.7594">
        <ele>193</ele>
        <time>2018-07-12T10:03:39Z</time>
      </trkpt>
      <trkpt lat="46.02233" lon="4.75946">
        <ele>193</ele>
        <time>2018-07-12T10:03:40Z</time>
      </trkpt>
      <trkpt lat="46.02228" lon="4.75951">
        <ele>193</ele>
        <time>2018-07-12T10:03:41Z</time>
      </trkpt>
      <trkpt lat="46.02223" lon="4.75956">
        <ele>193</ele>
        <time>2018-07-12T10:03:42Z</time>
      </trkpt>
      <trkpt lat="46.02217" lon="4.75961">
        <ele>192</ele>
        <time>2018-07-12T10:03:43Z</time>
      </trkpt>
      <trkpt lat="46.02212" lon="4.75967">
        <ele>192</ele>
        <time>2018-07-12T10:03:44Z</time>
      </trkpt>
      <trkpt lat="46.02206" lon="4.75972">
        <ele>192</ele>
        <time>2018-07-12T10:03:45Z</time>
      </trkpt>
      <trkpt lat="46.02201" lon="4.75976">
        <ele>192</ele>
        <time>2018-07-12T10:03:46Z</time>
      </trkpt>
      <trkpt lat="46.02195" lon="4.75982">
        <ele>192</ele>
        <time>2018-07-12T10:03:47Z</time>
      </trkpt>
      <trkpt lat="46.02189" lon="4.75987">
        <ele>192</ele>
        <time>2018-07-12T10:03:48Z</time>
      </trkpt>
      <trkpt lat="46.02183" lon="4.75993">
        <ele>192</ele>
        <time>2018-07-12T10:03:49Z</time>
      </trkpt>
      <trkpt lat="46.02177" lon="4.75998">
        <ele>192</ele>
        <time>2018-07-12T10:03:50Z</time>
      </trkpt>
      <trkpt lat="46.0217" lon="4.76006">
        <ele>192</ele>
        <time>2018-07-12T10:03:52Z</time>
      </trkpt>
      <trkpt lat="46.02166" lon="4.76009">
        <ele>192</ele>
        <time>2018-07-12T10:03:53Z</time>
      </trkpt>
      <trkpt lat="46.02162" lon="4.76012">
        <ele>193</ele>
        <time>2018-07-12T10:03:54Z</time>
      </trkpt>
      <trkpt lat="46.02157" lon="4.76016">
        <ele>193</ele>
        <time>2018-07-12T10:03:55Z</time>
      </trkpt>
      <trkpt lat="46.02153" lon="4.7602">
        <ele>193</ele>
        <time>2018-07-12T10:03:56Z</time>
      </trkpt>
      <trkpt lat="46.02147" lon="4.76025">
        <ele>193</ele>
        <time>2018-07-12T10:03:57Z</time>
      </trkpt>
      <trkpt lat="46.02142" lon="4.76031">
        <ele>193</ele>
        <time>2018-07-12T10:03:58Z</time>
      </trkpt>
      <trkpt lat="46.02137" lon="4.76035">
        <ele>193</ele>
        <time>2018-07-12T10:03:59Z</time>
      </trkpt>
      <trkpt lat="46.02132" lon="4.76039">
        <ele>193</ele>
        <time>2018-07-12T10:04:00Z</time>
      </trkpt>
      <trkpt lat="46.02131" lon="4.76051">
        <ele>194</ele>
        <time>2018-07-12T10:04:01Z</time>
      </trkpt>
      <trkpt lat="46.02126" lon="4.76056">
        <ele>194</ele>
        <time>2018-07-12T10:04:02Z</time>
      </trkpt>
      <trkpt lat="46.02122" lon="4.76061">
        <ele>194</ele>
        <time>2018-07-12T10:04:03Z</time>
      </trkpt>
      <trkpt lat="46.02117" lon="4.76064">
        <ele>194</ele>
        <time>2018-07-12T10:04:04Z</time>
      </trkpt>
      <trkpt lat="46.02112" lon="4.76067">
        <ele>194</ele>
        <time>2018-07-12T10:04:05Z</time>
      </trkpt>
      <trkpt lat="46.02107" lon="4.76069">
        <ele>194</ele>
        <time>2018-07-12T10:04:06Z</time>
      </trkpt>
      <trkpt lat="46.02103" lon="4.76072">
        <ele>195</ele>
        <time>2018-07-12T10:04:07Z</time>
      </trkpt>
      <trkpt lat="46.02099" lon="4.76075">
        <ele>195</ele>
        <time>2018-07-12T10:04:08Z</time>
      </trkpt>
      <trkpt lat="46.02093" lon="4.76078">
        <ele>195</ele>
        <time>2018-07-12T10:04:09Z</time>
      </trkpt>
      <trkpt lat="46.02088" lon="4.76079">
        <ele>195</ele>
        <time>2018-07-12T10:04:10Z</time>
      </trkpt>
      <trkpt lat="46.02083" lon="4.7608">
        <ele>196</ele>
        <time>2018-07-12T10:04:11Z</time>
      </trkpt>
      <trkpt lat="46.02081" lon="4.76081">
        <ele>196</ele>
        <time>2018-07-12T10:04:12Z</time>
      </trkpt>
      <trkpt lat="46.02074" lon="4.76083">
        <ele>196</ele>
        <time>2018-07-12T10:04:13Z</time>
      </trkpt>
      <trkpt lat="46.02069" lon="4.76085">
        <ele>196</ele>
        <time>2018-07-12T10:04:14Z</time>
      </trkpt>
      <trkpt lat="46.02062" lon="4.76088">
        <ele>197</ele>
        <time>2018-07-12T10:04:15Z</time>
      </trkpt>
      <trkpt lat="46.02058" lon="4.76089">
        <ele>197</ele>
        <time>2018-07-12T10:04:16Z</time>
      </trkpt>
      <trkpt lat="46.02053" lon="4.76091">
        <ele>197</ele>
        <time>2018-07-12T10:04:17Z</time>
      </trkpt>
      <trkpt lat="46.02047" lon="4.76093">
        <ele>197</ele>
        <time>2018-07-12T10:04:18Z</time>
      </trkpt>
      <trkpt lat="46.02042" lon="4.76095">
        <ele>197</ele>
        <time>2018-07-12T10:04:19Z</time>
      </trkpt>
      <trkpt lat="46.02037" lon="4.76097">
        <ele>197</ele>
        <time>2018-07-12T10:04:20Z</time>
      </trkpt>
      <trkpt lat="46.02032" lon="4.76098">
        <ele>197</ele>
        <time>2018-07-12T10:04:21Z</time>
      </trkpt>
      <trkpt lat="46.02028" lon="4.76099">
        <ele>197</ele>
        <time>2018-07-12T10:04:22Z</time>
      </trkpt>
      <trkpt lat="46.02023" lon="4.76102">
        <ele>197</ele>
        <time>2018-07-12T10:04:23Z</time>
      </trkpt>
      <trkpt lat="46.02015" lon="4.76103">
        <ele>197</ele>
        <time>2018-07-12T10:04:25Z</time>
      </trkpt>
      <trkpt lat="46.0201" lon="4.76103">
        <ele>197</ele>
        <time>2018-07-12T10:04:26Z</time>
      </trkpt>
      <trkpt lat="46.02006" lon="4.76106">
        <ele>197</ele>
        <time>2018-07-12T10:04:27Z</time>
      </trkpt>
      <trkpt lat="46.02002" lon="4.76108">
        <ele>197</ele>
        <time>2018-07-12T10:04:28Z</time>
      </trkpt>
      <trkpt lat="46.01994" lon="4.76111">
        <ele>198</ele>
        <time>2018-07-12T10:04:30Z</time>
      </trkpt>
      <trkpt lat="46.01988" lon="4.76113">
        <ele>198</ele>
        <time>2018-07-12T10:04:31Z</time>
      </trkpt>
      <trkpt lat="46.01983" lon="4.76114">
        <ele>198</ele>
        <time>2018-07-12T10:04:32Z</time>
      </trkpt>
      <trkpt lat="46.01979" lon="4.76114">
        <ele>198</ele>
        <time>2018-07-12T10:04:33Z</time>
      </trkpt>
      <trkpt lat="46.01971" lon="4.76115">
        <ele>198</ele>
        <time>2018-07-12T10:04:35Z</time>
      </trkpt>
      <trkpt lat="46.01968" lon="4.76113">
        <ele>198</ele>
        <time>2018-07-12T10:04:36Z</time>
      </trkpt>
      <trkpt lat="46.01963" lon="4.76115">
        <ele>198</ele>
        <time>2018-07-12T10:04:37Z</time>
      </trkpt>
      <trkpt lat="46.01959" lon="4.76114">
        <ele>198</ele>
        <time>2018-07-12T10:04:38Z</time>
      </trkpt>
      <trkpt lat="46.01952" lon="4.76115">
        <ele>198</ele>
        <time>2018-07-12T10:04:40Z</time>
      </trkpt>
      <trkpt lat="46.01948" lon="4.76113">
        <ele>198</ele>
        <time>2018-07-12T10:04:41Z</time>
      </trkpt>
      <trkpt lat="46.0194" lon="4.76116">
        <ele>198</ele>
        <time>2018-07-12T10:04:43Z</time>
      </trkpt>
      <trkpt lat="46.01936" lon="4.76116">
        <ele>198</ele>
        <time>2018-07-12T10:04:44Z</time>
      </trkpt>
      <trkpt lat="46.01929" lon="4.76121">
        <ele>198</ele>
        <time>2018-07-12T10:04:45Z</time>
      </trkpt>
      <trkpt lat="46.01924" lon="4.76125">
        <ele>199</ele>
        <time>2018-07-12T10:04:46Z</time>
      </trkpt>
      <trkpt lat="46.01918" lon="4.76125">
        <ele>199</ele>
        <time>2018-07-12T10:04:47Z</time>
      </trkpt>
      <trkpt lat="46.01912" lon="4.76128">
        <ele>199</ele>
        <time>2018-07-12T10:04:48Z</time>
      </trkpt>
      <trkpt lat="46.01906" lon="4.76129">
        <ele>199</ele>
        <time>2018-07-12T10:04:49Z</time>
      </trkpt>
      <trkpt lat="46.019" lon="4.76131">
        <ele>199</ele>
        <time>2018-07-12T10:04:50Z</time>
      </trkpt>
      <trkpt lat="46.01892" lon="4.7613">
        <ele>199</ele>
        <time>2018-07-12T10:04:52Z</time>
      </trkpt>
      <trkpt lat="46.01886" lon="4.76131">
        <ele>199</ele>
        <time>2018-07-12T10:04:53Z</time>
      </trkpt>
      <trkpt lat="46.01882" lon="4.76131">
        <ele>199</ele>
        <time>2018-07-12T10:04:54Z</time>
      </trkpt>
      <trkpt lat="46.01877" lon="4.76132">
        <ele>199</ele>
        <time>2018-07-12T10:04:55Z</time>
      </trkpt>
      <trkpt lat="46.01869" lon="4.76129">
        <ele>199</ele>
        <time>2018-07-12T10:04:57Z</time>
      </trkpt>
      <trkpt lat="46.01862" lon="4.76127">
        <ele>199</ele>
        <time>2018-07-12T10:04:58Z</time>
      </trkpt>
      <trkpt lat="46.01857" lon="4.76127">
        <ele>199</ele>
        <time>2018-07-12T10:04:59Z</time>
      </trkpt>
      <trkpt lat="46.01853" lon="4.76127">
        <ele>199</ele>
        <time>2018-07-12T10:05:00Z</time>
      </trkpt>
      <trkpt lat="46.01846" lon="4.76129">
        <ele>199</ele>
        <time>2018-07-12T10:05:01Z</time>
      </trkpt>
      <trkpt lat="46.0184" lon="4.76127">
        <ele>199</ele>
        <time>2018-07-12T10:05:02Z</time>
      </trkpt>
      <trkpt lat="46.01836" lon="4.76127">
        <ele>199</ele>
        <time>2018-07-12T10:05:03Z</time>
      </trkpt>
      <trkpt lat="46.0183" lon="4.76128">
        <ele>198</ele>
        <time>2018-07-12T10:05:04Z</time>
      </trkpt>
      <trkpt lat="46.01825" lon="4.76132">
        <ele>198</ele>
        <time>2018-07-12T10:05:05Z</time>
      </trkpt>
      <trkpt lat="46.01819" lon="4.76132">
        <ele>198</ele>
        <time>2018-07-12T10:05:06Z</time>
      </trkpt>
      <trkpt lat="46.01813" lon="4.76131">
        <ele>198</ele>
        <time>2018-07-12T10:05:07Z</time>
      </trkpt>
      <trkpt lat="46.01807" lon="4.7613">
        <ele>198</ele>
        <time>2018-07-12T10:05:08Z</time>
      </trkpt>
      <trkpt lat="46.01801" lon="4.76129">
        <ele>198</ele>
        <time>2018-07-12T10:05:09Z</time>
      </trkpt>
      <trkpt lat="46.01795" lon="4.76127">
        <ele>198</ele>
        <time>2018-07-12T10:05:10Z</time>
      </trkpt>
      <trkpt lat="46.0179" lon="4.76127">
        <ele>198</ele>
        <time>2018-07-12T10:05:11Z</time>
      </trkpt>
      <trkpt lat="46.01784" lon="4.76126">
        <ele>198</ele>
        <time>2018-07-12T10:05:12Z</time>
      </trkpt>
      <trkpt lat="46.01779" lon="4.76126">
        <ele>198</ele>
        <time>2018-07-12T10:05:13Z</time>
      </trkpt>
      <trkpt lat="46.01774" lon="4.76125">
        <ele>198</ele>
        <time>2018-07-12T10:05:14Z</time>
      </trkpt>
      <trkpt lat="46.01769" lon="4.76126">
        <ele>198</ele>
        <time>2018-07-12T10:05:15Z</time>
      </trkpt>
      <trkpt lat="46.01764" lon="4.76125">
        <ele>198</ele>
        <time>2018-07-12T10:05:16Z</time>
      </trkpt>
      <trkpt lat="46.01759" lon="4.76124">
        <ele>198</ele>
        <time>2018-07-12T10:05:17Z</time>
      </trkpt>
      <trkpt lat="46.01754" lon="4.76122">
        <ele>198</ele>
        <time>2018-07-12T10:05:18Z</time>
      </trkpt>
      <trkpt lat="46.01748" lon="4.7612">
        <ele>197</ele>
        <time>2018-07-12T10:05:19Z</time>
      </trkpt>
      <trkpt lat="46.01743" lon="4.7612">
        <ele>197</ele>
        <time>2018-07-12T10:05:20Z</time>
      </trkpt>
      <trkpt lat="46.01738" lon="4.7612">
        <ele>197</ele>
        <time>2018-07-12T10:05:21Z</time>
      </trkpt>
      <trkpt lat="46.01733" lon="4.76122">
        <ele>197</ele>
        <time>2018-07-12T10:05:22Z</time>
      </trkpt>
      <trkpt lat="46.01728" lon="4.76123">
        <ele>197</ele>
        <time>2018-07-12T10:05:23Z</time>
      </trkpt>
      <trkpt lat="46.01725" lon="4.76128">
        <ele>197</ele>
        <time>2018-07-12T10:05:24Z</time>
      </trkpt>
      <trkpt lat="46.01721" lon="4.76129">
        <ele>197</ele>
        <time>2018-07-12T10:05:25Z</time>
      </trkpt>
      <trkpt lat="46.01715" lon="4.76123">
        <ele>197</ele>
        <time>2018-07-12T10:05:26Z</time>
      </trkpt>
      <trkpt lat="46.01711" lon="4.76123">
        <ele>197</ele>
        <time>2018-07-12T10:05:27Z</time>
      </trkpt>
      <trkpt lat="46.01704" lon="4.76122">
        <ele>198</ele>
        <time>2018-07-12T10:05:28Z</time>
      </trkpt>
      <trkpt lat="46.01695" lon="4.76123">
        <ele>198</ele>
        <time>2018-07-12T10:05:30Z</time>
      </trkpt>
      <trkpt lat="46.01689" lon="4.76121">
        <ele>198</ele>
        <time>2018-07-12T10:05:31Z</time>
      </trkpt>
      <trkpt lat="46.01682" lon="4.76119">
        <ele>198</ele>
        <time>2018-07-12T10:05:32Z</time>
      </trkpt>
      <trkpt lat="46.01676" lon="4.76118">
        <ele>198</ele>
        <time>2018-07-12T10:05:33Z</time>
      </trkpt>
      <trkpt lat="46.01671" lon="4.76115">
        <ele>198</ele>
        <time>2018-07-12T10:05:35.388Z</time>
      </trkpt>
      <trkpt lat="46.01666" lon="4.76114">
        <ele>199</ele>
        <time>2018-07-12T10:05:35Z</time>
      </trkpt>
      <trkpt lat="46.0166" lon="4.76114">
        <ele>199</ele>
        <time>2018-07-12T10:05:36Z</time>
      </trkpt>
      <trkpt lat="46.01656" lon="4.76116">
        <ele>199</ele>
        <time>2018-07-12T10:05:37Z</time>
      </trkpt>
      <trkpt lat="46.01651" lon="4.76114">
        <ele>199</ele>
        <time>2018-07-12T10:05:38Z</time>
      </trkpt>
      <trkpt lat="46.01645" lon="4.76115">
        <ele>199</ele>
        <time>2018-07-12T10:05:39Z</time>
      </trkpt>
      <trkpt lat="46.01639" lon="4.76115">
        <ele>199</ele>
        <time>2018-07-12T10:05:40Z</time>
      </trkpt>
      <trkpt lat="46.01636" lon="4.76115">
        <ele>199</ele>
        <time>2018-07-12T10:05:41Z</time>
      </trkpt>
      <trkpt lat="46.01631" lon="4.76114">
        <ele>199</ele>
        <time>2018-07-12T10:05:42Z</time>
      </trkpt>
      <trkpt lat="46.01626" lon="4.76114">
        <ele>199</ele>
        <time>2018-07-12T10:05:43Z</time>
      </trkpt>
      <trkpt lat="46.01621" lon="4.76114">
        <ele>200</ele>
        <time>2018-07-12T10:05:44Z</time>
      </trkpt>
      <trkpt lat="46.01614" lon="4.76113">
        <ele>200</ele>
        <time>2018-07-12T10:05:45Z</time>
      </trkpt>
      <trkpt lat="46.01608" lon="4.76111">
        <ele>200</ele>
        <time>2018-07-12T10:05:46Z</time>
      </trkpt>
      <trkpt lat="46.01603" lon="4.76109">
        <ele>200</ele>
        <time>2018-07-12T10:05:47Z</time>
      </trkpt>
      <trkpt lat="46.01597" lon="4.76108">
        <ele>200</ele>
        <time>2018-07-12T10:05:48Z</time>
      </trkpt>
      <trkpt lat="46.01593" lon="4.76108">
        <ele>200</ele>
        <time>2018-07-12T10:05:49Z</time>
      </trkpt>
      <trkpt lat="46.01588" lon="4.76106">
        <ele>200</ele>
        <time>2018-07-12T10:05:50Z</time>
      </trkpt>
      <trkpt lat="46.01584" lon="4.76105">
        <ele>200</ele>
        <time>2018-07-12T10:05:51Z</time>
      </trkpt>
      <trkpt lat="46.01579" lon="4.76104">
        <ele>202</ele>
        <time>2018-07-12T10:05:52Z</time>
      </trkpt>
      <trkpt lat="46.01574" lon="4.76103">
        <ele>202</ele>
        <time>2018-07-12T10:05:53Z</time>
      </trkpt>
      <trkpt lat="46.01567" lon="4.76099">
        <ele>202</ele>
        <time>2018-07-12T10:05:55Z</time>
      </trkpt>
      <trkpt lat="46.01562" lon="4.76097">
        <ele>202</ele>
        <time>2018-07-12T10:05:56Z</time>
      </trkpt>
      <trkpt lat="46.01554" lon="4.76092">
        <ele>202</ele>
        <time>2018-07-12T10:05:58Z</time>
      </trkpt>
      <trkpt lat="46.01549" lon="4.76092">
        <ele>202</ele>
        <time>2018-07-12T10:05:59Z</time>
      </trkpt>
      <trkpt lat="46.01544" lon="4.76088">
        <ele>202</ele>
        <time>2018-07-12T10:06:00Z</time>
      </trkpt>
      <trkpt lat="46.01539" lon="4.76087">
        <ele>202</ele>
        <time>2018-07-12T10:06:01Z</time>
      </trkpt>
      <trkpt lat="46.01534" lon="4.76086">
        <ele>202</ele>
        <time>2018-07-12T10:06:02Z</time>
      </trkpt>
      <trkpt lat="46.01528" lon="4.76085">
        <ele>202</ele>
        <time>2018-07-12T10:06:03Z</time>
      </trkpt>
      <trkpt lat="46.01522" lon="4.76084">
        <ele>203</ele>
        <time>2018-07-12T10:06:04Z</time>
      </trkpt>
      <trkpt lat="46.01515" lon="4.76083">
        <ele>202</ele>
        <time>2018-07-12T10:06:05Z</time>
      </trkpt>
      <trkpt lat="46.0151" lon="4.7608">
        <ele>202</ele>
        <time>2018-07-12T10:06:06Z</time>
      </trkpt>
      <trkpt lat="46.01505" lon="4.76079">
        <ele>203</ele>
        <time>2018-07-12T10:06:07Z</time>
      </trkpt>
      <trkpt lat="46.01499" lon="4.76076">
        <ele>203</ele>
        <time>2018-07-12T10:06:08Z</time>
      </trkpt>
      <trkpt lat="46.01493" lon="4.76076">
        <ele>203</ele>
        <time>2018-07-12T10:06:09Z</time>
      </trkpt>
      <trkpt lat="46.01487" lon="4.76074">
        <ele>203</ele>
        <time>2018-07-12T10:06:10Z</time>
      </trkpt>
      <trkpt lat="46.01482" lon="4.76075">
        <ele>203</ele>
        <time>2018-07-12T10:06:11Z</time>
      </trkpt>
      <trkpt lat="46.01476" lon="4.76073">
        <ele>203</ele>
        <time>2018-07-12T10:06:12Z</time>
      </trkpt>
      <trkpt lat="46.01471" lon="4.76074">
        <ele>203</ele>
        <time>2018-07-12T10:06:13Z</time>
      </trkpt>
      <trkpt lat="46.01465" lon="4.76072">
        <ele>203</ele>
        <time>2018-07-12T10:06:14Z</time>
      </trkpt>
      <trkpt lat="46.01459" lon="4.76071">
        <ele>203</ele>
        <time>2018-07-12T10:06:15Z</time>
      </trkpt>
      <trkpt lat="46.01454" lon="4.76069">
        <ele>203</ele>
        <time>2018-07-12T10:06:16Z</time>
      </trkpt>
      <trkpt lat="46.01448" lon="4.76067">
        <ele>203</ele>
        <time>2018-07-12T10:06:17Z</time>
      </trkpt>
      <trkpt lat="46.01444" lon="4.76065">
        <ele>203</ele>
        <time>2018-07-12T10:06:18Z</time>
      </trkpt>
      <trkpt lat="46.01438" lon="4.76063">
        <ele>203</ele>
        <time>2018-07-12T10:06:19Z</time>
      </trkpt>
      <trkpt lat="46.01433" lon="4.7606">
        <ele>203</ele>
        <time>2018-07-12T10:06:20Z</time>
      </trkpt>
      <trkpt lat="46.01429" lon="4.76057">
        <ele>203</ele>
        <time>2018-07-12T10:06:21Z</time>
      </trkpt>
      <trkpt lat="46.01423" lon="4.76054">
        <ele>203</ele>
        <time>2018-07-12T10:06:22Z</time>
      </trkpt>
      <trkpt lat="46.01419" lon="4.76049">
        <ele>204</ele>
        <time>2018-07-12T10:06:23Z</time>
      </trkpt>
      <trkpt lat="46.01415" lon="4.76045">
        <ele>203</ele>
        <time>2018-07-12T10:06:24Z</time>
      </trkpt>
      <trkpt lat="46.0141" lon="4.76042">
        <ele>204</ele>
        <time>2018-07-12T10:06:25Z</time>
      </trkpt>
      <trkpt lat="46.01405" lon="4.7604">
        <ele>204</ele>
        <time>2018-07-12T10:06:26Z</time>
      </trkpt>
      <trkpt lat="46.014" lon="4.76039">
        <ele>203</ele>
        <time>2018-07-12T10:06:27Z</time>
      </trkpt>
      <trkpt lat="46.01394" lon="4.76037">
        <ele>203</ele>
        <time>2018-07-12T10:06:28Z</time>
      </trkpt>
      <trkpt lat="46.01389" lon="4.76037">
        <ele>203</ele>
        <time>2018-07-12T10:06:29Z</time>
      </trkpt>
      <trkpt lat="46.01384" lon="4.76038">
        <ele>203</ele>
        <time>2018-07-12T10:06:30Z</time>
      </trkpt>
      <trkpt lat="46.01379" lon="4.76039">
        <ele>203</ele>
        <time>2018-07-12T10:06:31Z</time>
      </trkpt>
      <trkpt lat="46.01373" lon="4.76041">
        <ele>203</ele>
        <time>2018-07-12T10:06:32Z</time>
      </trkpt>
      <trkpt lat="46.01369" lon="4.76042">
        <ele>203</ele>
        <time>2018-07-12T10:06:33Z</time>
      </trkpt>
      <trkpt lat="46.01364" lon="4.76042">
        <ele>203</ele>
        <time>2018-07-12T10:06:34Z</time>
      </trkpt>
      <trkpt lat="46.01359" lon="4.76045">
        <ele>203</ele>
        <time>2018-07-12T10:06:35Z</time>
      </trkpt>
      <trkpt lat="46.01353" lon="4.76047">
        <ele>203</ele>
        <time>2018-07-12T10:06:36Z</time>
      </trkpt>
      <trkpt lat="46.01348" lon="4.76049">
        <ele>203</ele>
        <time>2018-07-12T10:06:37Z</time>
      </trkpt>
      <trkpt lat="46.01343" lon="4.76051">
        <ele>203</ele>
        <time>2018-07-12T10:06:38Z</time>
      </trkpt>
      <trkpt lat="46.01336" lon="4.76052">
        <ele>203</ele>
        <time>2018-07-12T10:06:39Z</time>
      </trkpt>
      <trkpt lat="46.0133" lon="4.76053">
        <ele>203</ele>
        <time>2018-07-12T10:06:40Z</time>
      </trkpt>
      <trkpt lat="46.01325" lon="4.76056">
        <ele>203</ele>
        <time>2018-07-12T10:06:41Z</time>
      </trkpt>
      <trkpt lat="46.0132" lon="4.76056">
        <ele>203</ele>
        <time>2018-07-12T10:06:42Z</time>
      </trkpt>
      <trkpt lat="46.01315" lon="4.76057">
        <ele>203</ele>
        <time>2018-07-12T10:06:43Z</time>
      </trkpt>
      <trkpt lat="46.0131" lon="4.76059">
        <ele>203</ele>
        <time>2018-07-12T10:06:44Z</time>
      </trkpt>
      <trkpt lat="46.01303" lon="4.76061">
        <ele>203</ele>
        <time>2018-07-12T10:06:45Z</time>
      </trkpt>
      <trkpt lat="46.01298" lon="4.76062">
        <ele>203</ele>
        <time>2018-07-12T10:06:46Z</time>
      </trkpt>
      <trkpt lat="46.01292" lon="4.76063">
        <ele>204</ele>
        <time>2018-07-12T10:06:47Z</time>
      </trkpt>
      <trkpt lat="46.01287" lon="4.76065">
        <ele>204</ele>
        <time>2018-07-12T10:06:48Z</time>
      </trkpt>
      <trkpt lat="46.01282" lon="4.76067">
        <ele>204</ele>
        <time>2018-07-12T10:06:49Z</time>
      </trkpt>
      <trkpt lat="46.01277" lon="4.76068">
        <ele>204</ele>
        <time>2018-07-12T10:06:50Z</time>
      </trkpt>
      <trkpt lat="46.01272" lon="4.76069">
        <ele>204</ele>
        <time>2018-07-12T10:06:51Z</time>
      </trkpt>
      <trkpt lat="46.01266" lon="4.7607">
        <ele>204</ele>
        <time>2018-07-12T10:06:52Z</time>
      </trkpt>
      <trkpt lat="46.01262" lon="4.7607">
        <ele>204</ele>
        <time>2018-07-12T10:06:53Z</time>
      </trkpt>
      <trkpt lat="46.01258" lon="4.7607">
        <ele>204</ele>
        <time>2018-07-12T10:06:54Z</time>
      </trkpt>
      <trkpt lat="46.01253" lon="4.7607">
        <ele>204</ele>
        <time>2018-07-12T10:06:55Z</time>
      </trkpt>
      <trkpt lat="46.01248" lon="4.7607">
        <ele>205</ele>
        <time>2018-07-12T10:06:56Z</time>
      </trkpt>
      <trkpt lat="46.01243" lon="4.76069">
        <ele>205</ele>
        <time>2018-07-12T10:06:57Z</time>
      </trkpt>
      <trkpt lat="46.01238" lon="4.76068">
        <ele>205</ele>
        <time>2018-07-12T10:06:58Z</time>
      </trkpt>
      <trkpt lat="46.01234" lon="4.76068">
        <ele>205</ele>
        <time>2018-07-12T10:06:59Z</time>
      </trkpt>
      <trkpt lat="46.01229" lon="4.76068">
        <ele>205</ele>
        <time>2018-07-12T10:07:00Z</time>
      </trkpt>
      <trkpt lat="46.01225" lon="4.76068">
        <ele>206</ele>
        <time>2018-07-12T10:07:01Z</time>
      </trkpt>
      <trkpt lat="46.0122" lon="4.76067">
        <ele>206</ele>
        <time>2018-07-12T10:07:02Z</time>
      </trkpt>
      <trkpt lat="46.01215" lon="4.76066">
        <ele>206</ele>
        <time>2018-07-12T10:07:03Z</time>
      </trkpt>
      <trkpt lat="46.0121" lon="4.76063">
        <ele>206</ele>
        <time>2018-07-12T10:07:04Z</time>
      </trkpt>
      <trkpt lat="46.01206" lon="4.76062">
        <ele>206</ele>
        <time>2018-07-12T10:07:05Z</time>
      </trkpt>
      <trkpt lat="46.01197" lon="4.76059">
        <ele>206</ele>
        <time>2018-07-12T10:07:07Z</time>
      </trkpt>
      <trkpt lat="46.01192" lon="4.76059">
        <ele>206</ele>
        <time>2018-07-12T10:07:08Z</time>
      </trkpt>
      <trkpt lat="46.01188" lon="4.76055">
        <ele>206</ele>
        <time>2018-07-12T10:07:09Z</time>
      </trkpt>
      <trkpt lat="46.01183" lon="4.76053">
        <ele>207</ele>
        <time>2018-07-12T10:07:10Z</time>
      </trkpt>
      <trkpt lat="46.01179" lon="4.76049">
        <ele>207</ele>
        <time>2018-07-12T10:07:11Z</time>
      </trkpt>
      <trkpt lat="46.01174" lon="4.76048">
        <ele>207</ele>
        <time>2018-07-12T10:07:12Z</time>
      </trkpt>
      <trkpt lat="46.01169" lon="4.76047">
        <ele>207</ele>
        <time>2018-07-12T10:07:13Z</time>
      </trkpt>
      <trkpt lat="46.01165" lon="4.76044">
        <ele>208</ele>
        <time>2018-07-12T10:07:14Z</time>
      </trkpt>
      <trkpt lat="46.0116" lon="4.76043">
        <ele>208</ele>
        <time>2018-07-12T10:07:15Z</time>
      </trkpt>
      <trkpt lat="46.01155" lon="4.76044">
        <ele>208</ele>
        <time>2018-07-12T10:07:16Z</time>
      </trkpt>
      <trkpt lat="46.01149" lon="4.76044">
        <ele>208</ele>
        <time>2018-07-12T10:07:17Z</time>
      </trkpt>
      <trkpt lat="46.01144" lon="4.76046">
        <ele>208</ele>
        <time>2018-07-12T10:07:18Z</time>
      </trkpt>
      <trkpt lat="46.01139" lon="4.76049">
        <ele>208</ele>
        <time>2018-07-12T10:07:19Z</time>
      </trkpt>
      <trkpt lat="46.01134" lon="4.76051">
        <ele>208</ele>
        <time>2018-07-12T10:07:20Z</time>
      </trkpt>
      <trkpt lat="46.01129" lon="4.76051">
        <ele>208</ele>
        <time>2018-07-12T10:07:21Z</time>
      </trkpt>
      <trkpt lat="46.01123" lon="4.7605">
        <ele>208</ele>
        <time>2018-07-12T10:07:22Z</time>
      </trkpt>
      <trkpt lat="46.01118" lon="4.76052">
        <ele>208</ele>
        <time>2018-07-12T10:07:23Z</time>
      </trkpt>
      <trkpt lat="46.01113" lon="4.76053">
        <ele>208</ele>
        <time>2018-07-12T10:07:24Z</time>
      </trkpt>
      <trkpt lat="46.01105" lon="4.76055">
        <ele>208</ele>
        <time>2018-07-12T10:07:26Z</time>
      </trkpt>
      <trkpt lat="46.01101" lon="4.76056">
        <ele>208</ele>
        <time>2018-07-12T10:07:27Z</time>
      </trkpt>
      <trkpt lat="46.01096" lon="4.76057">
        <ele>208</ele>
        <time>2018-07-12T10:07:28Z</time>
      </trkpt>
      <trkpt lat="46.01091" lon="4.76059">
        <ele>208</ele>
        <time>2018-07-12T10:07:29Z</time>
      </trkpt>
      <trkpt lat="46.01082" lon="4.7606">
        <ele>209</ele>
        <time>2018-07-12T10:07:31Z</time>
      </trkpt>
      <trkpt lat="46.01077" lon="4.76061">
        <ele>209</ele>
        <time>2018-07-12T10:07:32Z</time>
      </trkpt>
      <trkpt lat="46.01069" lon="4.76063">
        <ele>209</ele>
        <time>2018-07-12T10:07:34Z</time>
      </trkpt>
      <trkpt lat="46.01068" lon="4.76063">
        <ele>209</ele>
        <time>2018-07-12T10:07:35Z</time>
      </trkpt>
      <trkpt lat="46.01061" lon="4.76065">
        <ele>209</ele>
        <time>2018-07-12T10:07:36Z</time>
      </trkpt>
      <trkpt lat="46.01056" lon="4.76065">
        <ele>210</ele>
        <time>2018-07-12T10:07:37Z</time>
      </trkpt>
      <trkpt lat="46.0105" lon="4.76065">
        <ele>210</ele>
        <time>2018-07-12T10:07:38Z</time>
      </trkpt>
      <trkpt lat="46.01046" lon="4.76066">
        <ele>210</ele>
        <time>2018-07-12T10:07:39Z</time>
      </trkpt>
      <trkpt lat="46.01041" lon="4.76066">
        <ele>210</ele>
        <time>2018-07-12T10:07:40Z</time>
      </trkpt>
      <trkpt lat="46.01037" lon="4.76065">
        <ele>210</ele>
        <time>2018-07-12T10:07:41Z</time>
      </trkpt>
      <trkpt lat="46.01032" lon="4.76064">
        <ele>210</ele>
        <time>2018-07-12T10:07:42Z</time>
      </trkpt>
      <trkpt lat="46.01027" lon="4.76063">
        <ele>210</ele>
        <time>2018-07-12T10:07:43Z</time>
      </trkpt>
      <trkpt lat="46.01022" lon="4.76065">
        <ele>210</ele>
        <time>2018-07-12T10:07:44Z</time>
      </trkpt>
      <trkpt lat="46.01018" lon="4.76066">
        <ele>210</ele>
        <time>2018-07-12T10:07:45Z</time>
      </trkpt>
      <trkpt lat="46.01011" lon="4.76067">
        <ele>211</ele>
        <time>2018-07-12T10:07:46Z</time>
      </trkpt>
      <trkpt lat="46.01007" lon="4.76068">
        <ele>211</ele>
        <time>2018-07-12T10:07:47Z</time>
      </trkpt>
      <trkpt lat="46.01002" lon="4.76068">
        <ele>211</ele>
        <time>2018-07-12T10:07:48Z</time>
      </trkpt>
      <trkpt lat="46.00998" lon="4.76069">
        <ele>212</ele>
        <time>2018-07-12T10:07:49Z</time>
      </trkpt>
      <trkpt lat="46.00994" lon="4.76068">
        <ele>212</ele>
        <time>2018-07-12T10:07:50Z</time>
      </trkpt>
      <trkpt lat="46.00989" lon="4.7607">
        <ele>212</ele>
        <time>2018-07-12T10:07:51Z</time>
      </trkpt>
      <trkpt lat="46.0098" lon="4.76071">
        <ele>212</ele>
        <time>2018-07-12T10:07:53Z</time>
      </trkpt>
      <trkpt lat="46.00976" lon="4.76071">
        <ele>212</ele>
        <time>2018-07-12T10:07:54Z</time>
      </trkpt>
      <trkpt lat="46.00969" lon="4.76073">
        <ele>212</ele>
        <time>2018-07-12T10:07:56Z</time>
      </trkpt>
      <trkpt lat="46.00965" lon="4.76076">
        <ele>212</ele>
        <time>2018-07-12T10:07:57Z</time>
      </trkpt>
      <trkpt lat="46.0096" lon="4.76077">
        <ele>212</ele>
        <time>2018-07-12T10:07:58Z</time>
      </trkpt>
      <trkpt lat="46.00955" lon="4.76078">
        <ele>212</ele>
        <time>2018-07-12T10:07:59Z</time>
      </trkpt>
      <trkpt lat="46.00947" lon="4.76079">
        <ele>212</ele>
        <time>2018-07-12T10:08:01Z</time>
      </trkpt>
      <trkpt lat="46.00942" lon="4.7608">
        <ele>212</ele>
        <time>2018-07-12T10:08:02Z</time>
      </trkpt>
      <trkpt lat="46.00934" lon="4.76082">
        <ele>212</ele>
        <time>2018-07-12T10:08:04Z</time>
      </trkpt>
      <trkpt lat="46.00931" lon="4.76085">
        <ele>213</ele>
        <time>2018-07-12T10:08:05Z</time>
      </trkpt>
      <trkpt lat="46.00923" lon="4.76086">
        <ele>213</ele>
        <time>2018-07-12T10:08:07Z</time>
      </trkpt>
      <trkpt lat="46.00918" lon="4.76087">
        <ele>213</ele>
        <time>2018-07-12T10:08:08Z</time>
      </trkpt>
      <trkpt lat="46.0091" lon="4.76089">
        <ele>214</ele>
        <time>2018-07-12T10:08:10Z</time>
      </trkpt>
      <trkpt lat="46.00906" lon="4.76089">
        <ele>214</ele>
        <time>2018-07-12T10:08:11Z</time>
      </trkpt>
      <trkpt lat="46.00898" lon="4.7609">
        <ele>214</ele>
        <time>2018-07-12T10:08:13Z</time>
      </trkpt>
      <trkpt lat="46.00895" lon="4.76091">
        <ele>214</ele>
        <time>2018-07-12T10:08:14Z</time>
      </trkpt>
      <trkpt lat="46.00886" lon="4.76092">
        <ele>215</ele>
        <time>2018-07-12T10:08:16Z</time>
      </trkpt>
      <trkpt lat="46.00883" lon="4.76094">
        <ele>215</ele>
        <time>2018-07-12T10:08:17Z</time>
      </trkpt>
      <trkpt lat="46.00874" lon="4.76097">
        <ele>215</ele>
        <time>2018-07-12T10:08:19Z</time>
      </trkpt>
      <trkpt lat="46.00871" lon="4.76099">
        <ele>215</ele>
        <time>2018-07-12T10:08:20Z</time>
      </trkpt>
      <trkpt lat="46.00863" lon="4.76101">
        <ele>215</ele>
        <time>2018-07-12T10:08:22Z</time>
      </trkpt>
      <trkpt lat="46.00859" lon="4.76102">
        <ele>215</ele>
        <time>2018-07-12T10:08:23Z</time>
      </trkpt>
      <trkpt lat="46.00851" lon="4.76105">
        <ele>215</ele>
        <time>2018-07-12T10:08:25Z</time>
      </trkpt>
      <trkpt lat="46.00848" lon="4.76106">
        <ele>216</ele>
        <time>2018-07-12T10:08:26Z</time>
      </trkpt>
      <trkpt lat="46.0084" lon="4.76108">
        <ele>216</ele>
        <time>2018-07-12T10:08:28Z</time>
      </trkpt>
      <trkpt lat="46.00838" lon="4.76109">
        <ele>216</ele>
        <time>2018-07-12T10:08:29Z</time>
      </trkpt>
      <trkpt lat="46.00833" lon="4.76109">
        <ele>218</ele>
        <time>2018-07-12T10:08:31Z</time>
      </trkpt>
      <trkpt lat="46.00826" lon="4.7611">
        <ele>218</ele>
        <time>2018-07-12T10:08:32Z</time>
      </trkpt>
      <trkpt lat="46.00818" lon="4.76111">
        <ele>218</ele>
        <time>2018-07-12T10:08:34Z</time>
      </trkpt>
      <trkpt lat="46.00817" lon="4.76112">
        <ele>218</ele>
        <time>2018-07-12T10:08:35Z</time>
      </trkpt>
      <trkpt lat="46.00809" lon="4.76112">
        <ele>218</ele>
        <time>2018-07-12T10:08:38Z</time>
      </trkpt>
      <trkpt lat="46.00801" lon="4.76114">
        <ele>218</ele>
        <time>2018-07-12T10:08:39Z</time>
      </trkpt>
      <trkpt lat="46.00793" lon="4.76116">
        <ele>219</ele>
        <time>2018-07-12T10:08:41Z</time>
      </trkpt>
      <trkpt lat="46.0079" lon="4.76116">
        <ele>219</ele>
        <time>2018-07-12T10:08:42Z</time>
      </trkpt>
      <trkpt lat="46.00786" lon="4.76117">
        <ele>219</ele>
        <time>2018-07-12T10:08:44Z</time>
      </trkpt>
      <trkpt lat="46.0078" lon="4.76118">
        <ele>219</ele>
        <time>2018-07-12T10:08:45Z</time>
      </trkpt>
      <trkpt lat="46.00771" lon="4.76119">
        <ele>219</ele>
        <time>2018-07-12T10:08:49Z</time>
      </trkpt>
      <trkpt lat="46.00768" lon="4.76119">
        <ele>219</ele>
        <time>2018-07-12T10:08:50Z</time>
      </trkpt>
      <trkpt lat="46.00762" lon="4.76119">
        <ele>219</ele>
        <time>2018-07-12T10:08:52Z</time>
      </trkpt>
      <trkpt lat="46.00759" lon="4.7612">
        <ele>219</ele>
        <time>2018-07-12T10:08:53Z</time>
      </trkpt>
      <trkpt lat="46.00752" lon="4.76121">
        <ele>220</ele>
        <time>2018-07-12T10:08:55Z</time>
      </trkpt>
      <trkpt lat="46.00749" lon="4.76121">
        <ele>223</ele>
        <time>2018-07-12T10:08:56Z</time>
      </trkpt>
      <trkpt lat="46.00743" lon="4.7612">
        <ele>223</ele>
        <time>2018-07-12T10:08:58Z</time>
      </trkpt>
      <trkpt lat="46.00739" lon="4.7612">
        <ele>223</ele>
        <time>2018-07-12T10:08:59Z</time>
      </trkpt>
      <trkpt lat="46.00733" lon="4.76119">
        <ele>223</ele>
        <time>2018-07-12T10:09:01Z</time>
      </trkpt>
      <trkpt lat="46.00729" lon="4.76119">
        <ele>224</ele>
        <time>2018-07-12T10:09:02Z</time>
      </trkpt>
      <trkpt lat="46.00722" lon="4.7612">
        <ele>224</ele>
        <time>2018-07-12T10:09:04Z</time>
      </trkpt>
      <trkpt lat="46.00719" lon="4.7612">
        <ele>224</ele>
        <time>2018-07-12T10:09:05Z</time>
      </trkpt>
      <trkpt lat="46.0071" lon="4.7612">
        <ele>224</ele>
        <time>2018-07-12T10:09:08Z</time>
      </trkpt>
      <trkpt lat="46.00707" lon="4.7612">
        <ele>224</ele>
        <time>2018-07-12T10:09:09Z</time>
      </trkpt>
      <trkpt lat="46.00699" lon="4.76119">
        <ele>225</ele>
        <time>2018-07-12T10:09:12Z</time>
      </trkpt>
      <trkpt lat="46.00697" lon="4.76119">
        <ele>225</ele>
        <time>2018-07-12T10:09:13Z</time>
      </trkpt>
      <trkpt lat="46.0069" lon="4.76119">
        <ele>225</ele>
        <time>2018-07-12T10:09:16Z</time>
      </trkpt>
      <trkpt lat="46.00687" lon="4.76119">
        <ele>225</ele>
        <time>2018-07-12T10:09:17Z</time>
      </trkpt>
      <trkpt lat="46.00685" lon="4.76119">
        <ele>225</ele>
        <time>2018-07-12T10:09:18Z</time>
      </trkpt>
      <trkpt lat="46.00677" lon="4.7612">
        <ele>226</ele>
        <time>2018-07-12T10:09:19Z</time>
      </trkpt>
      <trkpt lat="46.00668" lon="4.76123">
        <ele>226</ele>
        <time>2018-07-12T10:09:25Z</time>
      </trkpt>
      <trkpt lat="46.00666" lon="4.76124">
        <ele>228</ele>
        <time>2018-07-12T10:09:26Z</time>
      </trkpt>
      <trkpt lat="46.00658" lon="4.76125">
        <ele>228</ele>
        <time>2018-07-12T10:09:31Z</time>
      </trkpt>
      <trkpt lat="46.00656" lon="4.76125">
        <ele>228</ele>
        <time>2018-07-12T10:09:32Z</time>
      </trkpt>
      <trkpt lat="46.00647" lon="4.76121">
        <ele>228</ele>
        <time>2018-07-12T10:09:37Z</time>
      </trkpt>
      <trkpt lat="46.00645" lon="4.7612">
        <ele>228</ele>
        <time>2018-07-12T10:09:38Z</time>
      </trkpt>
      <trkpt lat="46.00638" lon="4.76115">
        <ele>228</ele>
        <time>2018-07-12T10:09:43Z</time>
      </trkpt>
      <trkpt lat="46.00636" lon="4.76114">
        <ele>228</ele>
        <time>2018-07-12T10:09:44Z</time>
      </trkpt>
      <trkpt lat="46.00629" lon="4.76111">
        <ele>227</ele>
        <time>2018-07-12T10:09:47Z</time>
      </trkpt>
      <trkpt lat="46.00627" lon="4.76112">
        <ele>227</ele>
        <time>2018-07-12T10:09:48Z</time>
      </trkpt>
      <trkpt lat="46.00623" lon="4.76121">
        <ele>228</ele>
        <time>2018-07-12T10:09:51Z</time>
      </trkpt>
      <trkpt lat="46.00622" lon="4.76125">
        <ele>228</ele>
        <time>2018-07-12T10:09:52Z</time>
      </trkpt>
      <trkpt lat="46.00623" lon="4.76135">
        <ele>228</ele>
        <time>2018-07-12T10:09:54Z</time>
      </trkpt>
      <trkpt lat="46.00623" lon="4.7614">
        <ele>228</ele>
        <time>2018-07-12T10:09:55Z</time>
      </trkpt>
      <trkpt lat="46.00624" lon="4.7615">
        <ele>228</ele>
        <time>2018-07-12T10:09:57Z</time>
      </trkpt>
      <trkpt lat="46.00624" lon="4.76154">
        <ele>228</ele>
        <time>2018-07-12T10:09:58Z</time>
      </trkpt>
      <trkpt lat="46.00624" lon="4.76164">
        <ele>228</ele>
        <time>2018-07-12T10:10:00Z</time>
      </trkpt>
      <trkpt lat="46.00624" lon="4.76179">
        <ele>230</ele>
        <time>2018-07-12T10:10:01Z</time>
      </trkpt>
      <trkpt lat="46.00623" lon="4.7619">
        <ele>230</ele>
        <time>2018-07-12T10:10:05Z</time>
      </trkpt>
      <trkpt lat="46.00623" lon="4.76193">
        <ele>230</ele>
        <time>2018-07-12T10:10:06Z</time>
      </trkpt>
      <trkpt lat="46.00617" lon="4.76201">
        <ele>230</ele>
        <time>2018-07-12T10:10:09Z</time>
      </trkpt>
      <trkpt lat="46.00609" lon="4.76203">
        <ele>230</ele>
        <time>2018-07-12T10:10:10Z</time>
      </trkpt>
      <trkpt lat="46.00601" lon="4.76198">
        <ele>230</ele>
        <time>2018-07-12T10:10:12Z</time>
      </trkpt>
      <trkpt lat="46.00596" lon="4.76193">
        <ele>230</ele>
        <time>2018-07-12T10:10:13Z</time>
      </trkpt>
      <trkpt lat="46.00592" lon="4.7619">
        <ele>230</ele>
        <time>2018-07-12T10:10:14Z</time>
      </trkpt>
      <trkpt lat="46.00585" lon="4.76188">
        <ele>230</ele>
        <time>2018-07-12T10:10:15Z</time>
      </trkpt>
      <trkpt lat="46.00578" lon="4.76185">
        <ele>230</ele>
        <time>2018-07-12T10:10:16Z</time>
      </trkpt>
      <trkpt lat="46.00571" lon="4.76184">
        <ele>230</ele>
        <time>2018-07-12T10:10:17Z</time>
      </trkpt>
      <trkpt lat="46.00565" lon="4.76181">
        <ele>230</ele>
        <time>2018-07-12T10:10:18Z</time>
      </trkpt>
      <trkpt lat="46.00558" lon="4.76178">
        <ele>230</ele>
        <time>2018-07-12T10:10:19Z</time>
      </trkpt>
      <trkpt lat="46.0055" lon="4.76175">
        <ele>230</ele>
        <time>2018-07-12T10:10:20Z</time>
      </trkpt>
      <trkpt lat="46.00543" lon="4.76171">
        <ele>230</ele>
        <time>2018-07-12T10:10:21Z</time>
      </trkpt>
      <trkpt lat="46.00535" lon="4.76166">
        <ele>228</ele>
        <time>2018-07-12T10:10:22Z</time>
      </trkpt>
      <trkpt lat="46.00528" lon="4.7616">
        <ele>228</ele>
        <time>2018-07-12T10:10:23Z</time>
      </trkpt>
      <trkpt lat="46.0052" lon="4.76153">
        <ele>228</ele>
        <time>2018-07-12T10:10:24Z</time>
      </trkpt>
      <trkpt lat="46.00513" lon="4.76146">
        <ele>228</ele>
        <time>2018-07-12T10:10:25Z</time>
      </trkpt>
      <trkpt lat="46.00506" lon="4.76138">
        <ele>227</ele>
        <time>2018-07-12T10:10:26Z</time>
      </trkpt>
      <trkpt lat="46.00498" lon="4.7613">
        <ele>227</ele>
        <time>2018-07-12T10:10:27Z</time>
      </trkpt>
      <trkpt lat="46.00491" lon="4.76122">
        <ele>227</ele>
        <time>2018-07-12T10:10:28Z</time>
      </trkpt>
      <trkpt lat="46.00483" lon="4.76113">
        <ele>227</ele>
        <time>2018-07-12T10:10:29Z</time>
      </trkpt>
      <trkpt lat="46.00475" lon="4.76104">
        <ele>227</ele>
        <time>2018-07-12T10:10:30Z</time>
      </trkpt>
      <trkpt lat="46.00468" lon="4.76097">
        <ele>227</ele>
        <time>2018-07-12T10:10:31Z</time>
      </trkpt>
      <trkpt lat="46.0046" lon="4.76089">
        <ele>227</ele>
        <time>2018-07-12T10:10:32Z</time>
      </trkpt>
      <trkpt lat="46.00452" lon="4.76082">
        <ele>224</ele>
        <time>2018-07-12T10:10:33Z</time>
      </trkpt>
      <trkpt lat="46.00443" lon="4.76078">
        <ele>224</ele>
        <time>2018-07-12T10:10:34Z</time>
      </trkpt>
      <trkpt lat="46.00433" lon="4.76075">
        <ele>224</ele>
        <time>2018-07-12T10:10:35Z</time>
      </trkpt>
      <trkpt lat="46.00426" lon="4.76073">
        <ele>225</ele>
        <time>2018-07-12T10:10:36Z</time>
      </trkpt>
      <trkpt lat="46.00419" lon="4.7607">
        <ele>225</ele>
        <time>2018-07-12T10:10:37Z</time>
      </trkpt>
      <trkpt lat="46.0041" lon="4.76069">
        <ele>226</ele>
        <time>2018-07-12T10:10:38Z</time>
      </trkpt>
      <trkpt lat="46.00403" lon="4.76069">
        <ele>226</ele>
        <time>2018-07-12T10:10:39Z</time>
      </trkpt>
      <trkpt lat="46.00397" lon="4.76069">
        <ele>226</ele>
        <time>2018-07-12T10:10:40Z</time>
      </trkpt>
      <trkpt lat="46.00391" lon="4.76068">
        <ele>226</ele>
        <time>2018-07-12T10:10:41Z</time>
      </trkpt>
      <trkpt lat="46.00384" lon="4.76072">
        <ele>226</ele>
        <time>2018-07-12T10:10:42Z</time>
      </trkpt>
      <trkpt lat="46.00381" lon="4.7607">
        <ele>226</ele>
        <time>2018-07-12T10:10:43Z</time>
      </trkpt>
      <trkpt lat="46.00375" lon="4.76068">
        <ele>226</ele>
        <time>2018-07-12T10:10:44Z</time>
      </trkpt>
      <trkpt lat="46.00368" lon="4.76067">
        <ele>226</ele>
        <time>2018-07-12T10:10:45Z</time>
      </trkpt>
      <trkpt lat="46.00366" lon="4.76064">
        <ele>226</ele>
        <time>2018-07-12T10:10:46Z</time>
      </trkpt>
      <trkpt lat="46.00369" lon="4.76053">
        <ele>226</ele>
        <time>2018-07-12T10:10:47Z</time>
      </trkpt>
      <trkpt lat="46.00374" lon="4.76044">
        <ele>225</ele>
        <time>2018-07-12T10:10:48Z</time>
      </trkpt>
      <trkpt lat="46.00375" lon="4.76037">
        <ele>225</ele>
        <time>2018-07-12T10:10:49Z</time>
      </trkpt>
      <trkpt lat="46.00382" lon="4.76032">
        <ele>225</ele>
        <time>2018-07-12T10:10:50Z</time>
      </trkpt>
      <trkpt lat="46.0039" lon="4.76029">
        <ele>225</ele>
        <time>2018-07-12T10:10:51Z</time>
      </trkpt>
      <trkpt lat="46.00394" lon="4.76026">
        <ele>224</ele>
        <time>2018-07-12T10:10:52Z</time>
      </trkpt>
      <trkpt lat="46.00401" lon="4.7602">
        <ele>224</ele>
        <time>2018-07-12T10:10:53Z</time>
      </trkpt>
      <trkpt lat="46.00408" lon="4.76015">
        <ele>223</ele>
        <time>2018-07-12T10:10:54Z</time>
      </trkpt>
      <trkpt lat="46.00414" lon="4.76009">
        <ele>222</ele>
        <time>2018-07-12T10:10:55Z</time>
      </trkpt>
      <trkpt lat="46.00421" lon="4.76001">
        <ele>221</ele>
        <time>2018-07-12T10:10:56Z</time>
      </trkpt>
      <trkpt lat="46.00428" lon="4.75995">
        <ele>220</ele>
        <time>2018-07-12T10:10:57Z</time>
      </trkpt>
      <trkpt lat="46.00436" lon="4.75992">
        <ele>220</ele>
        <time>2018-07-12T10:10:58Z</time>
      </trkpt>
      <trkpt lat="46.0044" lon="4.75978">
        <ele>219</ele>
        <time>2018-07-12T10:10:59Z</time>
      </trkpt>
      <trkpt lat="46.00444" lon="4.75969">
        <ele>219</ele>
        <time>2018-07-12T10:11:00Z</time>
      </trkpt>
      <trkpt lat="46.0045" lon="4.75956">
        <ele>219</ele>
        <time>2018-07-12T10:11:01Z</time>
      </trkpt>
      <trkpt lat="46.00449" lon="4.75942">
        <ele>219</ele>
        <time>2018-07-12T10:11:02Z</time>
      </trkpt>
      <trkpt lat="46.00448" lon="4.75929">
        <ele>218</ele>
        <time>2018-07-12T10:11:03Z</time>
      </trkpt>
      <trkpt lat="46.00443" lon="4.75917">
        <ele>217</ele>
        <time>2018-07-12T10:11:04Z</time>
      </trkpt>
      <trkpt lat="46.0044" lon="4.75906">
        <ele>217</ele>
        <time>2018-07-12T10:11:05Z</time>
      </trkpt>
      <trkpt lat="46.00434" lon="4.75896">
        <ele>217</ele>
        <time>2018-07-12T10:11:06Z</time>
      </trkpt>
      <trkpt lat="46.00429" lon="4.75885">
        <ele>217</ele>
        <time>2018-07-12T10:11:07Z</time>
      </trkpt>
      <trkpt lat="46.00424" lon="4.75873">
        <ele>217</ele>
        <time>2018-07-12T10:11:08Z</time>
      </trkpt>
      <trkpt lat="46.0042" lon="4.75861">
        <ele>216</ele>
        <time>2018-07-12T10:11:09Z</time>
      </trkpt>
      <trkpt lat="46.00414" lon="4.7585">
        <ele>214</ele>
        <time>2018-07-12T10:11:10Z</time>
      </trkpt>
      <trkpt lat="46.00408" lon="4.75839">
        <ele>214</ele>
        <time>2018-07-12T10:11:11Z</time>
      </trkpt>
      <trkpt lat="46.00404" lon="4.75829">
        <ele>213</ele>
        <time>2018-07-12T10:11:12Z</time>
      </trkpt>
      <trkpt lat="46.00395" lon="4.75818">
        <ele>213</ele>
        <time>2018-07-12T10:11:13Z</time>
      </trkpt>
      <trkpt lat="46.00388" lon="4.75807">
        <ele>213</ele>
        <time>2018-07-12T10:11:14Z</time>
      </trkpt>
      <trkpt lat="46.00382" lon="4.75795">
        <ele>213</ele>
        <time>2018-07-12T10:11:15Z</time>
      </trkpt>
      <trkpt lat="46.00375" lon="4.75784">
        <ele>213</ele>
        <time>2018-07-12T10:11:16Z</time>
      </trkpt>
      <trkpt lat="46.0037" lon="4.75775">
        <ele>213</ele>
        <time>2018-07-12T10:11:17Z</time>
      </trkpt>
      <trkpt lat="46.00364" lon="4.75765">
        <ele>212</ele>
        <time>2018-07-12T10:11:18Z</time>
      </trkpt>
      <trkpt lat="46.00357" lon="4.75755">
        <ele>211</ele>
        <time>2018-07-12T10:11:19Z</time>
      </trkpt>
      <trkpt lat="46.00347" lon="4.75745">
        <ele>210</ele>
        <time>2018-07-12T10:11:20Z</time>
      </trkpt>
      <trkpt lat="46.0034" lon="4.75734">
        <ele>210</ele>
        <time>2018-07-12T10:11:21Z</time>
      </trkpt>
      <trkpt lat="46.00333" lon="4.75722">
        <ele>208</ele>
        <time>2018-07-12T10:11:22Z</time>
      </trkpt>
      <trkpt lat="46.00326" lon="4.75711">
        <ele>208</ele>
        <time>2018-07-12T10:11:23Z</time>
      </trkpt>
      <trkpt lat="46.00318" lon="4.757">
        <ele>208</ele>
        <time>2018-07-12T10:11:24Z</time>
      </trkpt>
      <trkpt lat="46.0031" lon="4.75689">
        <ele>208</ele>
        <time>2018-07-12T10:11:25Z</time>
      </trkpt>
      <trkpt lat="46.00304" lon="4.75679">
        <ele>208</ele>
        <time>2018-07-12T10:11:26Z</time>
      </trkpt>
      <trkpt lat="46.00297" lon="4.75669">
        <ele>208</ele>
        <time>2018-07-12T10:11:27Z</time>
      </trkpt>
      <trkpt lat="46.0029" lon="4.75658">
        <ele>206</ele>
        <time>2018-07-12T10:11:28Z</time>
      </trkpt>
      <trkpt lat="46.00282" lon="4.75644">
        <ele>207</ele>
        <time>2018-07-12T10:11:29Z</time>
      </trkpt>
      <trkpt lat="46.00275" lon="4.75633">
        <ele>206</ele>
        <time>2018-07-12T10:11:30Z</time>
      </trkpt>
      <trkpt lat="46.00264" lon="4.75621">
        <ele>206</ele>
        <time>2018-07-12T10:11:31Z</time>
      </trkpt>
      <trkpt lat="46.00256" lon="4.7561">
        <ele>206</ele>
        <time>2018-07-12T10:11:32Z</time>
      </trkpt>
      <trkpt lat="46.00249" lon="4.756">
        <ele>209</ele>
        <time>2018-07-12T10:11:33Z</time>
      </trkpt>
      <trkpt lat="46.00242" lon="4.75588">
        <ele>208</ele>
        <time>2018-07-12T10:11:34Z</time>
      </trkpt>
      <trkpt lat="46.00234" lon="4.75576">
        <ele>206</ele>
        <time>2018-07-12T10:11:35Z</time>
      </trkpt>
      <trkpt lat="46.00228" lon="4.75563">
        <ele>206</ele>
        <time>2018-07-12T10:11:36Z</time>
      </trkpt>
      <trkpt lat="46.00222" lon="4.75549">
        <ele>206</ele>
        <time>2018-07-12T10:11:37Z</time>
      </trkpt>
      <trkpt lat="46.00219" lon="4.75533">
        <ele>205</ele>
        <time>2018-07-12T10:11:38Z</time>
      </trkpt>
      <trkpt lat="46.00216" lon="4.75518">
        <ele>204</ele>
        <time>2018-07-12T10:11:39Z</time>
      </trkpt>
      <trkpt lat="46.00213" lon="4.75503">
        <ele>204</ele>
        <time>2018-07-12T10:11:40Z</time>
      </trkpt>
      <trkpt lat="46.00215" lon="4.75484">
        <ele>198</ele>
        <time>2018-07-12T10:11:41Z</time>
      </trkpt>
      <trkpt lat="46.00216" lon="4.75468">
        <ele>198</ele>
        <time>2018-07-12T10:11:42Z</time>
      </trkpt>
      <trkpt lat="46.00214" lon="4.75453">
        <ele>197</ele>
        <time>2018-07-12T10:11:43Z</time>
      </trkpt>
      <trkpt lat="46.00214" lon="4.75437">
        <ele>197</ele>
        <time>2018-07-12T10:11:44Z</time>
      </trkpt>
      <trkpt lat="46.00212" lon="4.75419">
        <ele>196</ele>
        <time>2018-07-12T10:11:45Z</time>
      </trkpt>
      <trkpt lat="46.00212" lon="4.75403">
        <ele>192</ele>
        <time>2018-07-12T10:11:46Z</time>
      </trkpt>
      <trkpt lat="46.00212" lon="4.75386">
        <ele>192</ele>
        <time>2018-07-12T10:11:47Z</time>
      </trkpt>
      <trkpt lat="46.00212" lon="4.7537">
        <ele>191</ele>
        <time>2018-07-12T10:11:48Z</time>
      </trkpt>
      <trkpt lat="46.00213" lon="4.75354">
        <ele>191</ele>
        <time>2018-07-12T10:11:49Z</time>
      </trkpt>
      <trkpt lat="46.00214" lon="4.75337">
        <ele>190</ele>
        <time>2018-07-12T10:11:50Z</time>
      </trkpt>
      <trkpt lat="46.00213" lon="4.7532">
        <ele>186</ele>
        <time>2018-07-12T10:11:51Z</time>
      </trkpt>
      <trkpt lat="46.00213" lon="4.75304">
        <ele>185</ele>
        <time>2018-07-12T10:11:52Z</time>
      </trkpt>
      <trkpt lat="46.00212" lon="4.75287">
        <ele>185</ele>
        <time>2018-07-12T10:11:53Z</time>
      </trkpt>
      <trkpt lat="46.00213" lon="4.75273">
        <ele>184</ele>
        <time>2018-07-12T10:11:54Z</time>
      </trkpt>
      <trkpt lat="46.00213" lon="4.75259">
        <ele>184</ele>
        <time>2018-07-12T10:11:55Z</time>
      </trkpt>
      <trkpt lat="46.00212" lon="4.75246">
        <ele>180</ele>
        <time>2018-07-12T10:11:56Z</time>
      </trkpt>
      <trkpt lat="46.00213" lon="4.75234">
        <ele>180</ele>
        <time>2018-07-12T10:11:57Z</time>
      </trkpt>
      <trkpt lat="46.00212" lon="4.75222">
        <ele>180</ele>
        <time>2018-07-12T10:11:58Z</time>
      </trkpt>
      <trkpt lat="46.00213" lon="4.75212">
        <ele>180</ele>
        <time>2018-07-12T10:11:59Z</time>
      </trkpt>
      <trkpt lat="46.00212" lon="4.75201">
        <ele>179</ele>
        <time>2018-07-12T10:12:00Z</time>
      </trkpt>
      <trkpt lat="46.00214" lon="4.75189">
        <ele>179</ele>
        <time>2018-07-12T10:12:01Z</time>
      </trkpt>
      <trkpt lat="46.00215" lon="4.75178">
        <ele>179</ele>
        <time>2018-07-12T10:12:02Z</time>
      </trkpt>
      <trkpt lat="46.00214" lon="4.7517">
        <ele>179</ele>
        <time>2018-07-12T10:12:03Z</time>
      </trkpt>
      <trkpt lat="46.00214" lon="4.75162">
        <ele>177</ele>
        <time>2018-07-12T10:12:04Z</time>
      </trkpt>
      <trkpt lat="46.00213" lon="4.75153">
        <ele>177</ele>
        <time>2018-07-12T10:12:05Z</time>
      </trkpt>
      <trkpt lat="46.00212" lon="4.75146">
        <ele>177</ele>
        <time>2018-07-12T10:12:06Z</time>
      </trkpt>
      <trkpt lat="46.00213" lon="4.75134">
        <ele>176</ele>
        <time>2018-07-12T10:12:09Z</time>
      </trkpt>
      <trkpt lat="46.00214" lon="4.75131">
        <ele>176</ele>
        <time>2018-07-12T10:12:10Z</time>
      </trkpt>
      <trkpt lat="46.00216" lon="4.75118">
        <ele>176</ele>
        <time>2018-07-12T10:12:17Z</time>
      </trkpt>
      <trkpt lat="46.00216" lon="4.75118">
        <ele>176</ele>
        <time>2018-07-12T10:12:18Z</time>
      </trkpt>
      <trkpt lat="46.00212" lon="4.75109">
        <ele>176</ele>
        <time>2018-07-12T10:12:24Z</time>
      </trkpt>
      <trkpt lat="46.00204" lon="4.75104">
        <ele>176</ele>
        <time>2018-07-12T10:12:25Z</time>
      </trkpt>
      <trkpt lat="46.00198" lon="4.75105">
        <ele>176</ele>
        <time>2018-07-12T10:12:26Z</time>
      </trkpt>
      <trkpt lat="46.00192" lon="4.75105">
        <ele>176</ele>
        <time>2018-07-12T10:12:27Z</time>
      </trkpt>
      <trkpt lat="46.00187" lon="4.75106">
        <ele>176</ele>
        <time>2018-07-12T10:12:28Z</time>
      </trkpt>
      <trkpt lat="46.00181" lon="4.75105">
        <ele>176</ele>
        <time>2018-07-12T10:12:29Z</time>
      </trkpt>
      <trkpt lat="46.00172" lon="4.75104">
        <ele>176</ele>
        <time>2018-07-12T10:12:31Z</time>
      </trkpt>
      <trkpt lat="46.00167" lon="4.75105">
        <ele>176</ele>
        <time>2018-07-12T10:12:32Z</time>
      </trkpt>
      <trkpt lat="46.00161" lon="4.75105">
        <ele>175</ele>
        <time>2018-07-12T10:12:33Z</time>
      </trkpt>
      <trkpt lat="46.00156" lon="4.75104">
        <ele>175</ele>
        <time>2018-07-12T10:12:34Z</time>
      </trkpt>
      <trkpt lat="46.00148" lon="4.75105">
        <ele>175</ele>
        <time>2018-07-12T10:12:35Z</time>
      </trkpt>
      <trkpt lat="46.00142" lon="4.75103">
        <ele>175</ele>
        <time>2018-07-12T10:12:36Z</time>
      </trkpt>
      <trkpt lat="46.00135" lon="4.75106">
        <ele>175</ele>
        <time>2018-07-12T10:12:37Z</time>
      </trkpt>
      <trkpt lat="46.00129" lon="4.75105">
        <ele>175</ele>
        <time>2018-07-12T10:12:38Z</time>
      </trkpt>
      <trkpt lat="46.00124" lon="4.75104">
        <ele>175</ele>
        <time>2018-07-12T10:12:39Z</time>
      </trkpt>
      <trkpt lat="46.00119" lon="4.75103">
        <ele>175</ele>
        <time>2018-07-12T10:12:40Z</time>
      </trkpt>
      <trkpt lat="46.00113" lon="4.75102">
        <ele>175</ele>
        <time>2018-07-12T10:12:41Z</time>
      </trkpt>
      <trkpt lat="46.00108" lon="4.75102">
        <ele>175</ele>
        <time>2018-07-12T10:12:42Z</time>
      </trkpt>
      <trkpt lat="46.00102" lon="4.75096">
        <ele>174</ele>
        <time>2018-07-12T10:12:43Z</time>
      </trkpt>
      <trkpt lat="46.00094" lon="4.75099">
        <ele>174</ele>
        <time>2018-07-12T10:12:44Z</time>
      </trkpt>
      <trkpt lat="46.00089" lon="4.75098">
        <ele>174</ele>
        <time>2018-07-12T10:12:45Z</time>
      </trkpt>
      <trkpt lat="46.00082" lon="4.751">
        <ele>174</ele>
        <time>2018-07-12T10:12:46Z</time>
      </trkpt>
      <trkpt lat="46.00076" lon="4.75099">
        <ele>174</ele>
        <time>2018-07-12T10:12:47Z</time>
      </trkpt>
      <trkpt lat="46.0007" lon="4.75098">
        <ele>174</ele>
        <time>2018-07-12T10:12:48Z</time>
      </trkpt>
      <trkpt lat="46.00065" lon="4.75099">
        <ele>174</ele>
        <time>2018-07-12T10:12:49Z</time>
      </trkpt>
      <trkpt lat="46.0006" lon="4.75101">
        <ele>174</ele>
        <time>2018-07-12T10:12:50Z</time>
      </trkpt>
      <trkpt lat="46.00054" lon="4.751">
        <ele>174</ele>
        <time>2018-07-12T10:12:51Z</time>
      </trkpt>
      <trkpt lat="46.00048" lon="4.75102">
        <ele>174</ele>
        <time>2018-07-12T10:12:52Z</time>
      </trkpt>
      <trkpt lat="46.00042" lon="4.75104">
        <ele>174</ele>
        <time>2018-07-12T10:12:53Z</time>
      </trkpt>
      <trkpt lat="46.00035" lon="4.75106">
        <ele>174</ele>
        <time>2018-07-12T10:12:54Z</time>
      </trkpt>
      <trkpt lat="46.0003" lon="4.75106">
        <ele>174</ele>
        <time>2018-07-12T10:12:55Z</time>
      </trkpt>
      <trkpt lat="46.00024" lon="4.75107">
        <ele>174</ele>
        <time>2018-07-12T10:12:56Z</time>
      </trkpt>
      <trkpt lat="46.00018" lon="4.75108">
        <ele>174</ele>
        <time>2018-07-12T10:12:57Z</time>
      </trkpt>
      <trkpt lat="46.00011" lon="4.7511">
        <ele>174</ele>
        <time>2018-07-12T10:12:58Z</time>
      </trkpt>
      <trkpt lat="46.00005" lon="4.7511">
        <ele>174</ele>
        <time>2018-07-12T10:12:59Z</time>
      </trkpt>
      <trkpt lat="46" lon="4.75113">
        <ele>173</ele>
        <time>2018-07-12T10:13:00Z</time>
      </trkpt>
      <trkpt lat="45.99993" lon="4.75118">
        <ele>173</ele>
        <time>2018-07-12T10:13:01Z</time>
      </trkpt>
      <trkpt lat="45.99987" lon="4.75121">
        <ele>173</ele>
        <time>2018-07-12T10:13:02Z</time>
      </trkpt>
      <trkpt lat="45.99979" lon="4.75123">
        <ele>173</ele>
        <time>2018-07-12T10:13:03Z</time>
      </trkpt>
      <trkpt lat="45.99973" lon="4.75127">
        <ele>173</ele>
        <time>2018-07-12T10:13:04Z</time>
      </trkpt>
      <trkpt lat="45.99966" lon="4.75129">
        <ele>173</ele>
        <time>2018-07-12T10:13:05Z</time>
      </trkpt>
      <trkpt lat="45.9996" lon="4.75132">
        <ele>173</ele>
        <time>2018-07-12T10:13:06Z</time>
      </trkpt>
      <trkpt lat="45.99953" lon="4.75134">
        <ele>173</ele>
        <time>2018-07-12T10:13:07Z</time>
      </trkpt>
      <trkpt lat="45.99946" lon="4.75137">
        <ele>173</ele>
        <time>2018-07-12T10:13:08Z</time>
      </trkpt>
      <trkpt lat="45.9994" lon="4.75141">
        <ele>173</ele>
        <time>2018-07-12T10:13:09Z</time>
      </trkpt>
      <trkpt lat="45.99933" lon="4.75143">
        <ele>173</ele>
        <time>2018-07-12T10:13:10Z</time>
      </trkpt>
      <trkpt lat="45.99927" lon="4.75146">
        <ele>173</ele>
        <time>2018-07-12T10:13:11Z</time>
      </trkpt>
      <trkpt lat="45.9992" lon="4.7515">
        <ele>173</ele>
        <time>2018-07-12T10:13:12Z</time>
      </trkpt>
      <trkpt lat="45.99914" lon="4.75152">
        <ele>172</ele>
        <time>2018-07-12T10:13:13Z</time>
      </trkpt>
      <trkpt lat="45.9991" lon="4.75153">
        <ele>172</ele>
        <time>2018-07-12T10:13:14Z</time>
      </trkpt>
      <trkpt lat="45.99904" lon="4.75157">
        <ele>172</ele>
        <time>2018-07-12T10:13:15Z</time>
      </trkpt>
      <trkpt lat="45.99898" lon="4.7516">
        <ele>172</ele>
        <time>2018-07-12T10:13:16Z</time>
      </trkpt>
      <trkpt lat="45.99892" lon="4.75163">
        <ele>172</ele>
        <time>2018-07-12T10:13:17Z</time>
      </trkpt>
      <trkpt lat="45.99887" lon="4.75166">
        <ele>172</ele>
        <time>2018-07-12T10:13:18Z</time>
      </trkpt>
      <trkpt lat="45.99882" lon="4.7517">
        <ele>174</ele>
        <time>2018-07-12T10:13:19Z</time>
      </trkpt>
      <trkpt lat="45.99876" lon="4.75172">
        <ele>174</ele>
        <time>2018-07-12T10:13:20Z</time>
      </trkpt>
      <trkpt lat="45.9987" lon="4.75175">
        <ele>174</ele>
        <time>2018-07-12T10:13:21Z</time>
      </trkpt>
      <trkpt lat="45.99865" lon="4.75177">
        <ele>174</ele>
        <time>2018-07-12T10:13:22Z</time>
      </trkpt>
      <trkpt lat="45.99861" lon="4.75178">
        <ele>174</ele>
        <time>2018-07-12T10:13:23Z</time>
      </trkpt>
      <trkpt lat="45.99856" lon="4.75181">
        <ele>174</ele>
        <time>2018-07-12T10:13:24Z</time>
      </trkpt>
      <trkpt lat="45.99848" lon="4.75183">
        <ele>174</ele>
        <time>2018-07-12T10:13:25Z</time>
      </trkpt>
      <trkpt lat="45.99842" lon="4.75185">
        <ele>174</ele>
        <time>2018-07-12T10:13:26Z</time>
      </trkpt>
      <trkpt lat="45.99836" lon="4.75188">
        <ele>174</ele>
        <time>2018-07-12T10:13:27Z</time>
      </trkpt>
      <trkpt lat="45.99831" lon="4.75189">
        <ele>173</ele>
        <time>2018-07-12T10:13:28Z</time>
      </trkpt>
      <trkpt lat="45.99825" lon="4.75191">
        <ele>174</ele>
        <time>2018-07-12T10:13:29Z</time>
      </trkpt>
      <trkpt lat="45.99819" lon="4.75194">
        <ele>174</ele>
        <time>2018-07-12T10:13:30Z</time>
      </trkpt>
      <trkpt lat="45.99811" lon="4.75201">
        <ele>174</ele>
        <time>2018-07-12T10:13:31Z</time>
      </trkpt>
      <trkpt lat="45.99804" lon="4.75203">
        <ele>174</ele>
        <time>2018-07-12T10:13:32Z</time>
      </trkpt>
      <trkpt lat="45.99797" lon="4.75207">
        <ele>174</ele>
        <time>2018-07-12T10:13:33Z</time>
      </trkpt>
      <trkpt lat="45.99791" lon="4.75209">
        <ele>174</ele>
        <time>2018-07-12T10:13:34Z</time>
      </trkpt>
      <trkpt lat="45.99786" lon="4.75214">
        <ele>174</ele>
        <time>2018-07-12T10:13:35Z</time>
      </trkpt>
      <trkpt lat="45.9978" lon="4.75216">
        <ele>174</ele>
        <time>2018-07-12T10:13:36Z</time>
      </trkpt>
      <trkpt lat="45.99774" lon="4.75217">
        <ele>175</ele>
        <time>2018-07-12T10:13:37Z</time>
      </trkpt>
      <trkpt lat="45.99768" lon="4.75221">
        <ele>175</ele>
        <time>2018-07-12T10:13:38Z</time>
      </trkpt>
      <trkpt lat="45.99763" lon="4.75224">
        <ele>175</ele>
        <time>2018-07-12T10:13:39Z</time>
      </trkpt>
      <trkpt lat="45.99757" lon="4.75227">
        <ele>175</ele>
        <time>2018-07-12T10:13:40Z</time>
      </trkpt>
      <trkpt lat="45.99752" lon="4.75231">
        <ele>175</ele>
        <time>2018-07-12T10:13:41Z</time>
      </trkpt>
      <trkpt lat="45.99746" lon="4.75235">
        <ele>175</ele>
        <time>2018-07-12T10:13:42Z</time>
      </trkpt>
      <trkpt lat="45.9974" lon="4.75236">
        <ele>175</ele>
        <time>2018-07-12T10:13:43Z</time>
      </trkpt>
      <trkpt lat="45.99736" lon="4.75237">
        <ele>175</ele>
        <time>2018-07-12T10:13:44Z</time>
      </trkpt>
      <trkpt lat="45.9973" lon="4.7524">
        <ele>175</ele>
        <time>2018-07-12T10:13:45Z</time>
      </trkpt>
      <trkpt lat="45.99727" lon="4.75244">
        <ele>175</ele>
        <time>2018-07-12T10:13:46Z</time>
      </trkpt>
      <trkpt lat="45.9972" lon="4.75247">
        <ele>174</ele>
        <time>2018-07-12T10:13:47Z</time>
      </trkpt>
      <trkpt lat="45.99715" lon="4.75249">
        <ele>174</ele>
        <time>2018-07-12T10:13:48Z</time>
      </trkpt>
      <trkpt lat="45.99708" lon="4.75253">
        <ele>176</ele>
        <time>2018-07-12T10:13:49Z</time>
      </trkpt>
      <trkpt lat="45.99701" lon="4.75258">
        <ele>176</ele>
        <time>2018-07-12T10:13:50Z</time>
      </trkpt>
      <trkpt lat="45.99696" lon="4.75261">
        <ele>176</ele>
        <time>2018-07-12T10:13:51Z</time>
      </trkpt>
      <trkpt lat="45.9969" lon="4.75262">
        <ele>176</ele>
        <time>2018-07-12T10:13:52Z</time>
      </trkpt>
      <trkpt lat="45.99685" lon="4.75264">
        <ele>176</ele>
        <time>2018-07-12T10:13:53Z</time>
      </trkpt>
      <trkpt lat="45.9968" lon="4.75266">
        <ele>175</ele>
        <time>2018-07-12T10:13:54Z</time>
      </trkpt>
      <trkpt lat="45.99675" lon="4.75271">
        <ele>175</ele>
        <time>2018-07-12T10:13:55Z</time>
      </trkpt>
      <trkpt lat="45.99669" lon="4.75273">
        <ele>175</ele>
        <time>2018-07-12T10:13:56Z</time>
      </trkpt>
      <trkpt lat="45.99664" lon="4.75275">
        <ele>174</ele>
        <time>2018-07-12T10:13:57Z</time>
      </trkpt>
      <trkpt lat="45.9966" lon="4.75275">
        <ele>174</ele>
        <time>2018-07-12T10:13:58Z</time>
      </trkpt>
      <trkpt lat="45.99654" lon="4.75276">
        <ele>174</ele>
        <time>2018-07-12T10:13:59Z</time>
      </trkpt>
      <trkpt lat="45.99649" lon="4.75278">
        <ele>174</ele>
        <time>2018-07-12T10:14:00Z</time>
      </trkpt>
      <trkpt lat="45.99644" lon="4.75277">
        <ele>174</ele>
        <time>2018-07-12T10:14:01Z</time>
      </trkpt>
      <trkpt lat="45.99638" lon="4.75275">
        <ele>174</ele>
        <time>2018-07-12T10:14:02Z</time>
      </trkpt>
      <trkpt lat="45.99635" lon="4.75272">
        <ele>174</ele>
        <time>2018-07-12T10:14:03Z</time>
      </trkpt>
      <trkpt lat="45.99631" lon="4.75271">
        <ele>174</ele>
        <time>2018-07-12T10:14:04Z</time>
      </trkpt>
      <trkpt lat="45.99626" lon="4.75269">
        <ele>174</ele>
        <time>2018-07-12T10:14:05Z</time>
      </trkpt>
      <trkpt lat="45.99622" lon="4.7527">
        <ele>174</ele>
        <time>2018-07-12T10:14:06Z</time>
      </trkpt>
      <trkpt lat="45.99617" lon="4.75271">
        <ele>174</ele>
        <time>2018-07-12T10:14:07Z</time>
      </trkpt>
      <trkpt lat="45.99609" lon="4.75274">
        <ele>173</ele>
        <time>2018-07-12T10:14:09Z</time>
      </trkpt>
      <trkpt lat="45.99606" lon="4.75274">
        <ele>173</ele>
        <time>2018-07-12T10:14:10Z</time>
      </trkpt>
      <trkpt lat="45.99598" lon="4.75274">
        <ele>173</ele>
        <time>2018-07-12T10:14:12Z</time>
      </trkpt>
      <trkpt lat="45.99593" lon="4.75272">
        <ele>173</ele>
        <time>2018-07-12T10:14:13Z</time>
      </trkpt>
      <trkpt lat="45.9959" lon="4.75269">
        <ele>173</ele>
        <time>2018-07-12T10:14:14Z</time>
      </trkpt>
      <trkpt lat="45.99583" lon="4.75267">
        <ele>173</ele>
        <time>2018-07-12T10:14:15Z</time>
      </trkpt>
      <trkpt lat="45.99579" lon="4.75265">
        <ele>172</ele>
        <time>2018-07-12T10:14:16Z</time>
      </trkpt>
      <trkpt lat="45.99573" lon="4.75265">
        <ele>172</ele>
        <time>2018-07-12T10:14:17Z</time>
      </trkpt>
      <trkpt lat="45.99568" lon="4.75265">
        <ele>172</ele>
        <time>2018-07-12T10:14:18Z</time>
      </trkpt>
      <trkpt lat="45.99563" lon="4.75268">
        <ele>172</ele>
        <time>2018-07-12T10:14:19Z</time>
      </trkpt>
      <trkpt lat="45.99558" lon="4.75274">
        <ele>172</ele>
        <time>2018-07-12T10:14:20Z</time>
      </trkpt>
      <trkpt lat="45.99554" lon="4.75279">
        <ele>172</ele>
        <time>2018-07-12T10:14:21Z</time>
      </trkpt>
      <trkpt lat="45.9955" lon="4.75284">
        <ele>172</ele>
        <time>2018-07-12T10:14:22Z</time>
      </trkpt>
      <trkpt lat="45.99546" lon="4.75289">
        <ele>172</ele>
        <time>2018-07-12T10:14:23Z</time>
      </trkpt>
      <trkpt lat="45.9954" lon="4.75292">
        <ele>172</ele>
        <time>2018-07-12T10:14:24Z</time>
      </trkpt>
      <trkpt lat="45.99533" lon="4.75293">
        <ele>172</ele>
        <time>2018-07-12T10:14:25Z</time>
      </trkpt>
      <trkpt lat="45.99527" lon="4.75295">
        <ele>172</ele>
        <time>2018-07-12T10:14:26Z</time>
      </trkpt>
      <trkpt lat="45.99521" lon="4.75297">
        <ele>172</ele>
        <time>2018-07-12T10:14:27Z</time>
      </trkpt>
      <trkpt lat="45.99516" lon="4.75298">
        <ele>172</ele>
        <time>2018-07-12T10:14:28Z</time>
      </trkpt>
      <trkpt lat="45.9951" lon="4.75299">
        <ele>172</ele>
        <time>2018-07-12T10:14:29Z</time>
      </trkpt>
      <trkpt lat="45.99504" lon="4.75302">
        <ele>172</ele>
        <time>2018-07-12T10:14:30Z</time>
      </trkpt>
      <trkpt lat="45.99498" lon="4.75303">
        <ele>171</ele>
        <time>2018-07-12T10:14:31Z</time>
      </trkpt>
      <trkpt lat="45.99492" lon="4.75305">
        <ele>171</ele>
        <time>2018-07-12T10:14:32Z</time>
      </trkpt>
      <trkpt lat="45.99486" lon="4.75305">
        <ele>171</ele>
        <time>2018-07-12T10:14:33Z</time>
      </trkpt>
      <trkpt lat="45.99482" lon="4.75304">
        <ele>171</ele>
        <time>2018-07-12T10:14:34Z</time>
      </trkpt>
      <trkpt lat="45.99476" lon="4.75305">
        <ele>171</ele>
        <time>2018-07-12T10:14:35Z</time>
      </trkpt>
      <trkpt lat="45.99472" lon="4.75304">
        <ele>171</ele>
        <time>2018-07-12T10:14:36Z</time>
      </trkpt>
      <trkpt lat="45.99466" lon="4.75305">
        <ele>171</ele>
        <time>2018-07-12T10:14:37Z</time>
      </trkpt>
      <trkpt lat="45.99459" lon="4.75306">
        <ele>171</ele>
        <time>2018-07-12T10:14:38Z</time>
      </trkpt>
      <trkpt lat="45.99454" lon="4.75305">
        <ele>171</ele>
        <time>2018-07-12T10:14:39Z</time>
      </trkpt>
      <trkpt lat="45.99447" lon="4.75306">
        <ele>171</ele>
        <time>2018-07-12T10:14:40Z</time>
      </trkpt>
      <trkpt lat="45.99441" lon="4.75307">
        <ele>171</ele>
        <time>2018-07-12T10:14:41Z</time>
      </trkpt>
      <trkpt lat="45.99436" lon="4.7531">
        <ele>171</ele>
        <time>2018-07-12T10:14:42Z</time>
      </trkpt>
      <trkpt lat="45.99429" lon="4.7531">
        <ele>171</ele>
        <time>2018-07-12T10:14:43Z</time>
      </trkpt>
      <trkpt lat="45.99424" lon="4.75312">
        <ele>171</ele>
        <time>2018-07-12T10:14:44Z</time>
      </trkpt>
      <trkpt lat="45.99418" lon="4.75314">
        <ele>171</ele>
        <time>2018-07-12T10:14:45Z</time>
      </trkpt>
      <trkpt lat="45.99412" lon="4.75316">
        <ele>170</ele>
        <time>2018-07-12T10:14:46Z</time>
      </trkpt>
      <trkpt lat="45.99408" lon="4.75318">
        <ele>170</ele>
        <time>2018-07-12T10:14:47Z</time>
      </trkpt>
      <trkpt lat="45.99402" lon="4.75322">
        <ele>170</ele>
        <time>2018-07-12T10:14:48Z</time>
      </trkpt>
      <trkpt lat="45.99396" lon="4.75326">
        <ele>170</ele>
        <time>2018-07-12T10:14:49Z</time>
      </trkpt>
      <trkpt lat="45.99391" lon="4.7533">
        <ele>170</ele>
        <time>2018-07-12T10:14:50Z</time>
      </trkpt>
      <trkpt lat="45.99384" lon="4.75337">
        <ele>171</ele>
        <time>2018-07-12T10:14:51Z</time>
      </trkpt>
      <trkpt lat="45.99379" lon="4.75343">
        <ele>172</ele>
        <time>2018-07-12T10:14:52Z</time>
      </trkpt>
      <trkpt lat="45.99373" lon="4.7535">
        <ele>172</ele>
        <time>2018-07-12T10:14:53Z</time>
      </trkpt>
      <trkpt lat="45.9937" lon="4.75357">
        <ele>172</ele>
        <time>2018-07-12T10:14:54Z</time>
      </trkpt>
      <trkpt lat="45.99366" lon="4.75364">
        <ele>172</ele>
        <time>2018-07-12T10:14:55Z</time>
      </trkpt>
      <trkpt lat="45.99362" lon="4.75372">
        <ele>172</ele>
        <time>2018-07-12T10:14:56Z</time>
      </trkpt>
      <trkpt lat="45.99358" lon="4.75379">
        <ele>172</ele>
        <time>2018-07-12T10:14:57Z</time>
      </trkpt>
      <trkpt lat="45.99355" lon="4.75388">
        <ele>172</ele>
        <time>2018-07-12T10:14:58Z</time>
      </trkpt>
      <trkpt lat="45.99352" lon="4.75395">
        <ele>173</ele>
        <time>2018-07-12T10:14:59Z</time>
      </trkpt>
      <trkpt lat="45.99348" lon="4.75402">
        <ele>173</ele>
        <time>2018-07-12T10:15:00Z</time>
      </trkpt>
      <trkpt lat="45.99347" lon="4.7541">
        <ele>173</ele>
        <time>2018-07-12T10:15:01Z</time>
      </trkpt>
      <trkpt lat="45.99346" lon="4.75416">
        <ele>173</ele>
        <time>2018-07-12T10:15:02Z</time>
      </trkpt>
      <trkpt lat="45.99343" lon="4.75425">
        <ele>175</ele>
        <time>2018-07-12T10:15:03Z</time>
      </trkpt>
      <trkpt lat="45.99341" lon="4.75434">
        <ele>175</ele>
        <time>2018-07-12T10:15:04Z</time>
      </trkpt>
      <trkpt lat="45.99338" lon="4.75443">
        <ele>176</ele>
        <time>2018-07-12T10:15:05Z</time>
      </trkpt>
      <trkpt lat="45.99334" lon="4.75452">
        <ele>176</ele>
        <time>2018-07-12T10:15:06Z</time>
      </trkpt>
      <trkpt lat="45.99331" lon="4.75461">
        <ele>174</ele>
        <time>2018-07-12T10:15:07Z</time>
      </trkpt>
      <trkpt lat="45.99329" lon="4.75468">
        <ele>174</ele>
        <time>2018-07-12T10:15:08Z</time>
      </trkpt>
      <trkpt lat="45.99325" lon="4.75475">
        <ele>174</ele>
        <time>2018-07-12T10:15:09Z</time>
      </trkpt>
      <trkpt lat="45.99322" lon="4.75481">
        <ele>175</ele>
        <time>2018-07-12T10:15:10Z</time>
      </trkpt>
      <trkpt lat="45.99317" lon="4.75488">
        <ele>175</ele>
        <time>2018-07-12T10:15:11Z</time>
      </trkpt>
      <trkpt lat="45.99312" lon="4.75494">
        <ele>175</ele>
        <time>2018-07-12T10:15:12Z</time>
      </trkpt>
      <trkpt lat="45.99307" lon="4.75501">
        <ele>177</ele>
        <time>2018-07-12T10:15:13Z</time>
      </trkpt>
      <trkpt lat="45.99302" lon="4.75508">
        <ele>177</ele>
        <time>2018-07-12T10:15:14Z</time>
      </trkpt>
      <trkpt lat="45.99297" lon="4.75514">
        <ele>177</ele>
        <time>2018-07-12T10:15:15Z</time>
      </trkpt>
      <trkpt lat="45.99295" lon="4.75521">
        <ele>177</ele>
        <time>2018-07-12T10:15:16Z</time>
      </trkpt>
      <trkpt lat="45.99289" lon="4.75526">
        <ele>177</ele>
        <time>2018-07-12T10:15:17Z</time>
      </trkpt>
      <trkpt lat="45.99285" lon="4.75531">
        <ele>177</ele>
        <time>2018-07-12T10:15:18Z</time>
      </trkpt>
      <trkpt lat="45.99279" lon="4.75531">
        <ele>176</ele>
        <time>2018-07-12T10:15:19Z</time>
      </trkpt>
      <trkpt lat="45.99274" lon="4.75535">
        <ele>176</ele>
        <time>2018-07-12T10:15:20Z</time>
      </trkpt>
      <trkpt lat="45.99269" lon="4.7554">
        <ele>176</ele>
        <time>2018-07-12T10:15:21Z</time>
      </trkpt>
      <trkpt lat="45.99263" lon="4.75544">
        <ele>176</ele>
        <time>2018-07-12T10:15:22Z</time>
      </trkpt>
      <trkpt lat="45.99257" lon="4.75548">
        <ele>177</ele>
        <time>2018-07-12T10:15:23Z</time>
      </trkpt>
      <trkpt lat="45.99251" lon="4.75551">
        <ele>177</ele>
        <time>2018-07-12T10:15:24Z</time>
      </trkpt>
      <trkpt lat="45.99246" lon="4.75554">
        <ele>175</ele>
        <time>2018-07-12T10:15:25Z</time>
      </trkpt>
      <trkpt lat="45.9924" lon="4.75559">
        <ele>175</ele>
        <time>2018-07-12T10:15:26Z</time>
      </trkpt>
      <trkpt lat="45.99235" lon="4.75562">
        <ele>175</ele>
        <time>2018-07-12T10:15:27Z</time>
      </trkpt>
      <trkpt lat="45.99229" lon="4.75565">
        <ele>175</ele>
        <time>2018-07-12T10:15:28Z</time>
      </trkpt>
      <trkpt lat="45.99224" lon="4.75568">
        <ele>175</ele>
        <time>2018-07-12T10:15:29Z</time>
      </trkpt>
      <trkpt lat="45.99219" lon="4.75572">
        <ele>175</ele>
        <time>2018-07-12T10:15:30Z</time>
      </trkpt>
      <trkpt lat="45.99214" lon="4.75575">
        <ele>175</ele>
        <time>2018-07-12T10:15:31Z</time>
      </trkpt>
      <trkpt lat="45.99211" lon="4.75584">
        <ele>178</ele>
        <time>2018-07-12T10:15:32Z</time>
      </trkpt>
      <trkpt lat="45.99206" lon="4.75587">
        <ele>178</ele>
        <time>2018-07-12T10:15:33Z</time>
      </trkpt>
      <trkpt lat="45.99201" lon="4.7559">
        <ele>178</ele>
        <time>2018-07-12T10:15:34Z</time>
      </trkpt>
      <trkpt lat="45.99195" lon="4.75593">
        <ele>178</ele>
        <time>2018-07-12T10:15:35Z</time>
      </trkpt>
      <trkpt lat="45.99191" lon="4.75596">
        <ele>178</ele>
        <time>2018-07-12T10:15:36Z</time>
      </trkpt>
      <trkpt lat="45.99185" lon="4.75599">
        <ele>178</ele>
        <time>2018-07-12T10:15:37Z</time>
      </trkpt>
      <trkpt lat="45.9918" lon="4.75602">
        <ele>178</ele>
        <time>2018-07-12T10:15:38Z</time>
      </trkpt>
      <trkpt lat="45.99175" lon="4.75604">
        <ele>177</ele>
        <time>2018-07-12T10:15:39Z</time>
      </trkpt>
      <trkpt lat="45.9917" lon="4.75602">
        <ele>177</ele>
        <time>2018-07-12T10:15:40Z</time>
      </trkpt>
      <trkpt lat="45.99165" lon="4.75603">
        <ele>176</ele>
        <time>2018-07-12T10:15:41Z</time>
      </trkpt>
      <trkpt lat="45.99161" lon="4.75606">
        <ele>176</ele>
        <time>2018-07-12T10:15:42Z</time>
      </trkpt>
      <trkpt lat="45.99154" lon="4.75606">
        <ele>176</ele>
        <time>2018-07-12T10:15:43Z</time>
      </trkpt>
      <trkpt lat="45.99149" lon="4.75607">
        <ele>176</ele>
        <time>2018-07-12T10:15:44Z</time>
      </trkpt>
      <trkpt lat="45.99143" lon="4.75607">
        <ele>176</ele>
        <time>2018-07-12T10:15:45Z</time>
      </trkpt>
      <trkpt lat="45.99137" lon="4.75607">
        <ele>176</ele>
        <time>2018-07-12T10:15:46Z</time>
      </trkpt>
      <trkpt lat="45.9913" lon="4.75613">
        <ele>177</ele>
        <time>2018-07-12T10:15:47Z</time>
      </trkpt>
      <trkpt lat="45.99126" lon="4.75621">
        <ele>177</ele>
        <time>2018-07-12T10:15:48Z</time>
      </trkpt>
      <trkpt lat="45.99122" lon="4.75629">
        <ele>177</ele>
        <time>2018-07-12T10:15:49Z</time>
      </trkpt>
      <trkpt lat="45.99118" lon="4.75636">
        <ele>177</ele>
        <time>2018-07-12T10:15:50Z</time>
      </trkpt>
      <trkpt lat="45.99114" lon="4.75643">
        <ele>178</ele>
        <time>2018-07-12T10:15:51Z</time>
      </trkpt>
      <trkpt lat="45.99107" lon="4.75648">
        <ele>178</ele>
        <time>2018-07-12T10:15:52Z</time>
      </trkpt>
      <trkpt lat="45.99101" lon="4.75653">
        <ele>178</ele>
        <time>2018-07-12T10:15:53Z</time>
      </trkpt>
      <trkpt lat="45.99096" lon="4.7566">
        <ele>179</ele>
        <time>2018-07-12T10:15:54Z</time>
      </trkpt>
      <trkpt lat="45.9909" lon="4.75661">
        <ele>179</ele>
        <time>2018-07-12T10:15:55Z</time>
      </trkpt>
      <trkpt lat="45.99084" lon="4.75662">
        <ele>179</ele>
        <time>2018-07-12T10:15:56Z</time>
      </trkpt>
      <trkpt lat="45.99078" lon="4.75664">
        <ele>179</ele>
        <time>2018-07-12T10:15:57Z</time>
      </trkpt>
      <trkpt lat="45.99073" lon="4.75665">
        <ele>179</ele>
        <time>2018-07-12T10:15:58Z</time>
      </trkpt>
      <trkpt lat="45.99066" lon="4.75664">
        <ele>178</ele>
        <time>2018-07-12T10:15:59Z</time>
      </trkpt>
      <trkpt lat="45.9906" lon="4.75664">
        <ele>178</ele>
        <time>2018-07-12T10:16:00Z</time>
      </trkpt>
      <trkpt lat="45.99053" lon="4.75663">
        <ele>178</ele>
        <time>2018-07-12T10:16:01Z</time>
      </trkpt>
      <trkpt lat="45.99046" lon="4.75662">
        <ele>178</ele>
        <time>2018-07-12T10:16:02Z</time>
      </trkpt>
      <trkpt lat="45.99039" lon="4.75661">
        <ele>178</ele>
        <time>2018-07-12T10:16:03Z</time>
      </trkpt>
      <trkpt lat="45.99033" lon="4.75662">
        <ele>178</ele>
        <time>2018-07-12T10:16:04Z</time>
      </trkpt>
      <trkpt lat="45.99027" lon="4.75661">
        <ele>178</ele>
        <time>2018-07-12T10:16:05Z</time>
      </trkpt>
      <trkpt lat="45.9902" lon="4.7566">
        <ele>178</ele>
        <time>2018-07-12T10:16:06Z</time>
      </trkpt>
      <trkpt lat="45.99014" lon="4.75658">
        <ele>178</ele>
        <time>2018-07-12T10:16:07Z</time>
      </trkpt>
      <trkpt lat="45.99007" lon="4.75661">
        <ele>179</ele>
        <time>2018-07-12T10:16:08Z</time>
      </trkpt>
      <trkpt lat="45.99001" lon="4.75661">
        <ele>179</ele>
        <time>2018-07-12T10:16:09Z</time>
      </trkpt>
      <trkpt lat="45.98994" lon="4.7566">
        <ele>179</ele>
        <time>2018-07-12T10:16:10Z</time>
      </trkpt>
      <trkpt lat="45.98988" lon="4.75661">
        <ele>178</ele>
        <time>2018-07-12T10:16:11Z</time>
      </trkpt>
      <trkpt lat="45.98981" lon="4.7566">
        <ele>178</ele>
        <time>2018-07-12T10:16:12Z</time>
      </trkpt>
      <trkpt lat="45.98975" lon="4.75663">
        <ele>177</ele>
        <time>2018-07-12T10:16:13Z</time>
      </trkpt>
      <trkpt lat="45.9897" lon="4.75663">
        <ele>177</ele>
        <time>2018-07-12T10:16:14Z</time>
      </trkpt>
      <trkpt lat="45.98964" lon="4.75665">
        <ele>177</ele>
        <time>2018-07-12T10:16:15Z</time>
      </trkpt>
      <trkpt lat="45.98959" lon="4.75666">
        <ele>177</ele>
        <time>2018-07-12T10:16:16Z</time>
      </trkpt>
      <trkpt lat="45.98954" lon="4.75672">
        <ele>181</ele>
        <time>2018-07-12T10:16:17Z</time>
      </trkpt>
      <trkpt lat="45.98949" lon="4.75674">
        <ele>181</ele>
        <time>2018-07-12T10:16:18Z</time>
      </trkpt>
      <trkpt lat="45.98944" lon="4.75681">
        <ele>181</ele>
        <time>2018-07-12T10:16:19Z</time>
      </trkpt>
      <trkpt lat="45.98939" lon="4.75683">
        <ele>181</ele>
        <time>2018-07-12T10:16:20Z</time>
      </trkpt>
      <trkpt lat="45.98934" lon="4.75685">
        <ele>181</ele>
        <time>2018-07-12T10:16:21Z</time>
      </trkpt>
      <trkpt lat="45.98928" lon="4.75687">
        <ele>180</ele>
        <time>2018-07-12T10:16:22Z</time>
      </trkpt>
      <trkpt lat="45.98923" lon="4.7569">
        <ele>180</ele>
        <time>2018-07-12T10:16:23Z</time>
      </trkpt>
      <trkpt lat="45.98918" lon="4.75692">
        <ele>181</ele>
        <time>2018-07-12T10:16:24Z</time>
      </trkpt>
      <trkpt lat="45.98912" lon="4.75694">
        <ele>179</ele>
        <time>2018-07-12T10:16:25Z</time>
      </trkpt>
      <trkpt lat="45.98905" lon="4.75698">
        <ele>180</ele>
        <time>2018-07-12T10:16:26Z</time>
      </trkpt>
      <trkpt lat="45.989" lon="4.757">
        <ele>180</ele>
        <time>2018-07-12T10:16:27Z</time>
      </trkpt>
      <trkpt lat="45.98894" lon="4.75702">
        <ele>180</ele>
        <time>2018-07-12T10:16:28Z</time>
      </trkpt>
      <trkpt lat="45.98888" lon="4.75703">
        <ele>180</ele>
        <time>2018-07-12T10:16:29Z</time>
      </trkpt>
      <trkpt lat="45.98882" lon="4.75706">
        <ele>180</ele>
        <time>2018-07-12T10:16:30Z</time>
      </trkpt>
      <trkpt lat="45.98876" lon="4.75708">
        <ele>180</ele>
        <time>2018-07-12T10:16:31Z</time>
      </trkpt>
      <trkpt lat="45.9887" lon="4.75709">
        <ele>180</ele>
        <time>2018-07-12T10:16:32Z</time>
      </trkpt>
      <trkpt lat="45.98864" lon="4.75709">
        <ele>180</ele>
        <time>2018-07-12T10:16:33Z</time>
      </trkpt>
      <trkpt lat="45.98856" lon="4.75712">
        <ele>180</ele>
        <time>2018-07-12T10:16:34Z</time>
      </trkpt>
      <trkpt lat="45.9885" lon="4.75714">
        <ele>180</ele>
        <time>2018-07-12T10:16:35Z</time>
      </trkpt>
      <trkpt lat="45.98845" lon="4.75716">
        <ele>180</ele>
        <time>2018-07-12T10:16:36Z</time>
      </trkpt>
      <trkpt lat="45.98838" lon="4.75717">
        <ele>180</ele>
        <time>2018-07-12T10:16:37Z</time>
      </trkpt>
      <trkpt lat="45.98832" lon="4.75718">
        <ele>179</ele>
        <time>2018-07-12T10:16:38Z</time>
      </trkpt>
      <trkpt lat="45.98825" lon="4.7572">
        <ele>179</ele>
        <time>2018-07-12T10:16:39Z</time>
      </trkpt>
      <trkpt lat="45.98819" lon="4.75721">
        <ele>179</ele>
        <time>2018-07-12T10:16:40Z</time>
      </trkpt>
      <trkpt lat="45.98812" lon="4.7572">
        <ele>179</ele>
        <time>2018-07-12T10:16:41Z</time>
      </trkpt>
      <trkpt lat="45.98805" lon="4.75721">
        <ele>179</ele>
        <time>2018-07-12T10:16:42Z</time>
      </trkpt>
      <trkpt lat="45.98799" lon="4.75722">
        <ele>179</ele>
        <time>2018-07-12T10:16:43Z</time>
      </trkpt>
      <trkpt lat="45.98792" lon="4.75723">
        <ele>178</ele>
        <time>2018-07-12T10:16:44Z</time>
      </trkpt>
      <trkpt lat="45.98787" lon="4.75728">
        <ele>178</ele>
        <time>2018-07-12T10:16:45Z</time>
      </trkpt>
      <trkpt lat="45.98781" lon="4.75723">
        <ele>178</ele>
        <time>2018-07-12T10:16:46Z</time>
      </trkpt>
      <trkpt lat="45.98775" lon="4.75723">
        <ele>178</ele>
        <time>2018-07-12T10:16:47Z</time>
      </trkpt>
      <trkpt lat="45.98767" lon="4.7572">
        <ele>178</ele>
        <time>2018-07-12T10:16:49Z</time>
      </trkpt>
      <trkpt lat="45.98763" lon="4.7572">
        <ele>178</ele>
        <time>2018-07-12T10:16:50Z</time>
      </trkpt>
      <trkpt lat="45.98758" lon="4.7573">
        <ele>178</ele>
        <time>2018-07-12T10:16:52Z</time>
      </trkpt>
      <trkpt lat="45.98757" lon="4.75735">
        <ele>178</ele>
        <time>2018-07-12T10:16:53Z</time>
      </trkpt>
      <trkpt lat="45.9876" lon="4.75747">
        <ele>178</ele>
        <time>2018-07-12T10:16:55Z</time>
      </trkpt>
      <trkpt lat="45.9876" lon="4.75754">
        <ele>179</ele>
        <time>2018-07-12T10:16:56Z</time>
      </trkpt>
      <trkpt lat="45.9876" lon="4.75761">
        <ele>179</ele>
        <time>2018-07-12T10:16:57Z</time>
      </trkpt>
      <trkpt lat="45.98759" lon="4.75768">
        <ele>179</ele>
        <time>2018-07-12T10:16:58Z</time>
      </trkpt>
      <trkpt lat="45.98758" lon="4.75775">
        <ele>179</ele>
        <time>2018-07-12T10:16:59Z</time>
      </trkpt>
      <trkpt lat="45.98758" lon="4.75783">
        <ele>179</ele>
        <time>2018-07-12T10:17:00Z</time>
      </trkpt>
      <trkpt lat="45.98757" lon="4.7579">
        <ele>179</ele>
        <time>2018-07-12T10:17:01Z</time>
      </trkpt>
      <trkpt lat="45.98755" lon="4.75796">
        <ele>179</ele>
        <time>2018-07-12T10:17:02Z</time>
      </trkpt>
      <trkpt lat="45.98753" lon="4.75803">
        <ele>179</ele>
        <time>2018-07-12T10:17:03Z</time>
      </trkpt>
      <trkpt lat="45.98752" lon="4.7581">
        <ele>179</ele>
        <time>2018-07-12T10:17:04Z</time>
      </trkpt>
      <trkpt lat="45.9875" lon="4.75822">
        <ele>178</ele>
        <time>2018-07-12T10:17:06Z</time>
      </trkpt>
      <trkpt lat="45.98748" lon="4.75829">
        <ele>178</ele>
        <time>2018-07-12T10:17:07Z</time>
      </trkpt>
      <trkpt lat="45.98748" lon="4.75839">
        <ele>178</ele>
        <time>2018-07-12T10:17:08Z</time>
      </trkpt>
      <trkpt lat="45.98747" lon="4.75847">
        <ele>178</ele>
        <time>2018-07-12T10:17:09Z</time>
      </trkpt>
      <trkpt lat="45.98746" lon="4.75855">
        <ele>179</ele>
        <time>2018-07-12T10:17:10Z</time>
      </trkpt>
      <trkpt lat="45.98745" lon="4.75863">
        <ele>179</ele>
        <time>2018-07-12T10:17:11Z</time>
      </trkpt>
      <trkpt lat="45.98744" lon="4.75869">
        <ele>179</ele>
        <time>2018-07-12T10:17:12Z</time>
      </trkpt>
      <trkpt lat="45.98742" lon="4.75876">
        <ele>179</ele>
        <time>2018-07-12T10:17:13Z</time>
      </trkpt>
      <trkpt lat="45.98741" lon="4.75883">
        <ele>179</ele>
        <time>2018-07-12T10:17:14Z</time>
      </trkpt>
      <trkpt lat="45.9874" lon="4.75891">
        <ele>179</ele>
        <time>2018-07-12T10:17:15Z</time>
      </trkpt>
      <trkpt lat="45.9874" lon="4.75899">
        <ele>179</ele>
        <time>2018-07-12T10:17:16Z</time>
      </trkpt>
      <trkpt lat="45.98739" lon="4.75905">
        <ele>180</ele>
        <time>2018-07-12T10:17:17Z</time>
      </trkpt>
      <trkpt lat="45.98738" lon="4.75912">
        <ele>180</ele>
        <time>2018-07-12T10:17:18Z</time>
      </trkpt>
      <trkpt lat="45.98736" lon="4.7592">
        <ele>180</ele>
        <time>2018-07-12T10:17:19Z</time>
      </trkpt>
      <trkpt lat="45.98735" lon="4.75927">
        <ele>180</ele>
        <time>2018-07-12T10:17:20Z</time>
      </trkpt>
      <trkpt lat="45.98734" lon="4.75933">
        <ele>180</ele>
        <time>2018-07-12T10:17:21Z</time>
      </trkpt>
      <trkpt lat="45.98732" lon="4.75944">
        <ele>180</ele>
        <time>2018-07-12T10:17:23Z</time>
      </trkpt>
      <trkpt lat="45.98732" lon="4.75951">
        <ele>180</ele>
        <time>2018-07-12T10:17:24Z</time>
      </trkpt>
      <trkpt lat="45.98731" lon="4.75957">
        <ele>180</ele>
        <time>2018-07-12T10:17:25Z</time>
      </trkpt>
      <trkpt lat="45.9873" lon="4.75964">
        <ele>181</ele>
        <time>2018-07-12T10:17:26Z</time>
      </trkpt>
      <trkpt lat="45.9873" lon="4.75971">
        <ele>181</ele>
        <time>2018-07-12T10:17:27Z</time>
      </trkpt>
      <trkpt lat="45.98729" lon="4.75978">
        <ele>181</ele>
        <time>2018-07-12T10:17:28Z</time>
      </trkpt>
      <trkpt lat="45.98728" lon="4.75985">
        <ele>181</ele>
        <time>2018-07-12T10:17:29Z</time>
      </trkpt>
      <trkpt lat="45.98728" lon="4.75993">
        <ele>181</ele>
        <time>2018-07-12T10:17:30Z</time>
      </trkpt>
      <trkpt lat="45.98729" lon="4.76001">
        <ele>181</ele>
        <time>2018-07-12T10:17:31Z</time>
      </trkpt>
      <trkpt lat="45.98728" lon="4.76008">
        <ele>181</ele>
        <time>2018-07-12T10:17:32Z</time>
      </trkpt>
      <trkpt lat="45.98727" lon="4.76016">
        <ele>181</ele>
        <time>2018-07-12T10:17:33Z</time>
      </trkpt>
      <trkpt lat="45.98726" lon="4.76022">
        <ele>182</ele>
        <time>2018-07-12T10:17:34Z</time>
      </trkpt>
      <trkpt lat="45.98726" lon="4.76028">
        <ele>182</ele>
        <time>2018-07-12T10:17:35Z</time>
      </trkpt>
      <trkpt lat="45.98725" lon="4.76036">
        <ele>182</ele>
        <time>2018-07-12T10:17:36Z</time>
      </trkpt>
      <trkpt lat="45.98723" lon="4.76042">
        <ele>182</ele>
        <time>2018-07-12T10:17:37Z</time>
      </trkpt>
      <trkpt lat="45.98722" lon="4.76048">
        <ele>182</ele>
        <time>2018-07-12T10:17:38Z</time>
      </trkpt>
      <trkpt lat="45.98722" lon="4.76056">
        <ele>182</ele>
        <time>2018-07-12T10:17:39Z</time>
      </trkpt>
      <trkpt lat="45.98721" lon="4.76063">
        <ele>182</ele>
        <time>2018-07-12T10:17:40Z</time>
      </trkpt>
      <trkpt lat="45.98721" lon="4.7607">
        <ele>182</ele>
        <time>2018-07-12T10:17:41Z</time>
      </trkpt>
      <trkpt lat="45.9872" lon="4.76076">
        <ele>182</ele>
        <time>2018-07-12T10:17:42Z</time>
      </trkpt>
      <trkpt lat="45.98719" lon="4.76083">
        <ele>182</ele>
        <time>2018-07-12T10:17:43Z</time>
      </trkpt>
      <trkpt lat="45.98718" lon="4.7609">
        <ele>183</ele>
        <time>2018-07-12T10:17:44Z</time>
      </trkpt>
      <trkpt lat="45.98716" lon="4.76102">
        <ele>183</ele>
        <time>2018-07-12T10:17:46Z</time>
      </trkpt>
      <trkpt lat="45.98716" lon="4.7611">
        <ele>183</ele>
        <time>2018-07-12T10:17:47Z</time>
      </trkpt>
      <trkpt lat="45.98715" lon="4.76117">
        <ele>183</ele>
        <time>2018-07-12T10:17:48Z</time>
      </trkpt>
      <trkpt lat="45.98715" lon="4.76123">
        <ele>183</ele>
        <time>2018-07-12T10:17:49Z</time>
      </trkpt>
      <trkpt lat="45.98715" lon="4.7613">
        <ele>183</ele>
        <time>2018-07-12T10:17:50Z</time>
      </trkpt>
      <trkpt lat="45.98715" lon="4.76138">
        <ele>183</ele>
        <time>2018-07-12T10:17:51Z</time>
      </trkpt>
      <trkpt lat="45.98714" lon="4.76145">
        <ele>183</ele>
        <time>2018-07-12T10:17:52Z</time>
      </trkpt>
      <trkpt lat="45.98713" lon="4.76152">
        <ele>183</ele>
        <time>2018-07-12T10:17:53Z</time>
      </trkpt>
      <trkpt lat="45.98713" lon="4.76161">
        <ele>184</ele>
        <time>2018-07-12T10:17:54Z</time>
      </trkpt>
      <trkpt lat="45.98713" lon="4.76167">
        <ele>184</ele>
        <time>2018-07-12T10:17:55Z</time>
      </trkpt>
      <trkpt lat="45.98711" lon="4.76179">
        <ele>184</ele>
        <time>2018-07-12T10:17:57Z</time>
      </trkpt>
      <trkpt lat="45.98711" lon="4.76187">
        <ele>184</ele>
        <time>2018-07-12T10:17:58Z</time>
      </trkpt>
      <trkpt lat="45.9871" lon="4.76194">
        <ele>184</ele>
        <time>2018-07-12T10:17:59Z</time>
      </trkpt>
      <trkpt lat="45.98709" lon="4.76201">
        <ele>184</ele>
        <time>2018-07-12T10:18:00Z</time>
      </trkpt>
      <trkpt lat="45.98708" lon="4.76207">
        <ele>184</ele>
        <time>2018-07-12T10:18:01Z</time>
      </trkpt>
      <trkpt lat="45.98708" lon="4.76214">
        <ele>184</ele>
        <time>2018-07-12T10:18:02Z</time>
      </trkpt>
      <trkpt lat="45.98708" lon="4.76221">
        <ele>184</ele>
        <time>2018-07-12T10:18:03Z</time>
      </trkpt>
      <trkpt lat="45.98706" lon="4.76227">
        <ele>184</ele>
        <time>2018-07-12T10:18:04Z</time>
      </trkpt>
      <trkpt lat="45.98703" lon="4.76232">
        <ele>184</ele>
        <time>2018-07-12T10:18:05Z</time>
      </trkpt>
      <trkpt lat="45.98699" lon="4.76236">
        <ele>184</ele>
        <time>2018-07-12T10:18:06Z</time>
      </trkpt>
      <trkpt lat="45.98692" lon="4.76239">
        <ele>184</ele>
        <time>2018-07-12T10:18:07Z</time>
      </trkpt>
      <trkpt lat="45.98687" lon="4.76238">
        <ele>184</ele>
        <time>2018-07-12T10:18:08Z</time>
      </trkpt>
      <trkpt lat="45.98682" lon="4.76238">
        <ele>184</ele>
        <time>2018-07-12T10:18:09Z</time>
      </trkpt>
      <trkpt lat="45.98677" lon="4.76235">
        <ele>184</ele>
        <time>2018-07-12T10:18:10Z</time>
      </trkpt>
      <trkpt lat="45.98672" lon="4.76234">
        <ele>184</ele>
        <time>2018-07-12T10:18:11Z</time>
      </trkpt>
      <trkpt lat="45.98666" lon="4.76232">
        <ele>184</ele>
        <time>2018-07-12T10:18:12Z</time>
      </trkpt>
      <trkpt lat="45.98662" lon="4.76231">
        <ele>185</ele>
        <time>2018-07-12T10:18:13Z</time>
      </trkpt>
      <trkpt lat="45.98656" lon="4.7623">
        <ele>185</ele>
        <time>2018-07-12T10:18:14Z</time>
      </trkpt>
      <trkpt lat="45.98651" lon="4.76229">
        <ele>185</ele>
        <time>2018-07-12T10:18:15Z</time>
      </trkpt>
      <trkpt lat="45.98644" lon="4.76228">
        <ele>185</ele>
        <time>2018-07-12T10:18:16Z</time>
      </trkpt>
      <trkpt lat="45.98639" lon="4.76227">
        <ele>185</ele>
        <time>2018-07-12T10:18:17Z</time>
      </trkpt>
      <trkpt lat="45.98634" lon="4.76225">
        <ele>186</ele>
        <time>2018-07-12T10:18:18Z</time>
      </trkpt>
      <trkpt lat="45.98627" lon="4.76219">
        <ele>186</ele>
        <time>2018-07-12T10:18:20Z</time>
      </trkpt>
      <trkpt lat="45.98626" lon="4.76218">
        <ele>186</ele>
        <time>2018-07-12T10:18:21Z</time>
      </trkpt>
      <trkpt lat="45.98617" lon="4.76215">
        <ele>186</ele>
        <time>2018-07-12T10:18:26Z</time>
      </trkpt>
      <trkpt lat="45.98617" lon="4.76215">
        <ele>186</ele>
        <time>2018-07-12T10:18:27Z</time>
      </trkpt>
      <trkpt lat="45.98608" lon="4.76216">
        <ele>187</ele>
        <time>2018-07-12T10:18:47Z</time>
      </trkpt>
      <trkpt lat="45.98607" lon="4.76217">
        <ele>187</ele>
        <time>2018-07-12T10:18:48Z</time>
      </trkpt>
      <trkpt lat="45.98603" lon="4.76226">
        <ele>187</ele>
        <time>2018-07-12T10:18:52Z</time>
      </trkpt>
      <trkpt lat="45.98602" lon="4.7623">
        <ele>187</ele>
        <time>2018-07-12T10:18:53Z</time>
      </trkpt>
      <trkpt lat="45.98602" lon="4.76234">
        <ele>187</ele>
        <time>2018-07-12T10:18:54Z</time>
      </trkpt>
      <trkpt lat="45.98601" lon="4.76248">
        <ele>187</ele>
        <time>2018-07-12T10:18:55Z</time>
      </trkpt>
      <trkpt lat="45.98602" lon="4.7626">
        <ele>187</ele>
        <time>2018-07-12T10:18:57Z</time>
      </trkpt>
      <trkpt lat="45.98602" lon="4.76267">
        <ele>187</ele>
        <time>2018-07-12T10:18:58Z</time>
      </trkpt>
      <trkpt lat="45.98602" lon="4.76274">
        <ele>187</ele>
        <time>2018-07-12T10:18:59Z</time>
      </trkpt>
      <trkpt lat="45.98604" lon="4.76283">
        <ele>187</ele>
        <time>2018-07-12T10:19:00Z</time>
      </trkpt>
      <trkpt lat="45.98604" lon="4.7629">
        <ele>187</ele>
        <time>2018-07-12T10:19:01Z</time>
      </trkpt>
      <trkpt lat="45.98604" lon="4.76299">
        <ele>187</ele>
        <time>2018-07-12T10:19:02Z</time>
      </trkpt>
      <trkpt lat="45.98603" lon="4.76305">
        <ele>187</ele>
        <time>2018-07-12T10:19:03Z</time>
      </trkpt>
      <trkpt lat="45.98599" lon="4.7631">
        <ele>187</ele>
        <time>2018-07-12T10:19:04Z</time>
      </trkpt>
      <trkpt lat="45.98599" lon="4.76317">
        <ele>187</ele>
        <time>2018-07-12T10:19:05Z</time>
      </trkpt>
      <trkpt lat="45.98599" lon="4.76323">
        <ele>188</ele>
        <time>2018-07-12T10:19:06Z</time>
      </trkpt>
      <trkpt lat="45.98599" lon="4.76335">
        <ele>188</ele>
        <time>2018-07-12T10:19:08Z</time>
      </trkpt>
      <trkpt lat="45.98599" lon="4.76341">
        <ele>188</ele>
        <time>2018-07-12T10:19:09Z</time>
      </trkpt>
      <trkpt lat="45.98603" lon="4.76351">
        <ele>188</ele>
        <time>2018-07-12T10:19:11Z</time>
      </trkpt>
      <trkpt lat="45.98605" lon="4.76356">
        <ele>188</ele>
        <time>2018-07-12T10:19:12Z</time>
      </trkpt>
      <trkpt lat="45.9861" lon="4.76367">
        <ele>188</ele>
        <time>2018-07-12T10:19:14Z</time>
      </trkpt>
      <trkpt lat="45.98612" lon="4.76373">
        <ele>188</ele>
        <time>2018-07-12T10:19:15Z</time>
      </trkpt>
      <trkpt lat="45.98616" lon="4.76382">
        <ele>188</ele>
        <time>2018-07-12T10:19:17Z</time>
      </trkpt>
      <trkpt lat="45.98617" lon="4.76387">
        <ele>188</ele>
        <time>2018-07-12T10:19:18Z</time>
      </trkpt>
      <trkpt lat="45.9862" lon="4.76393">
        <ele>188</ele>
        <time>2018-07-12T10:19:19Z</time>
      </trkpt>
      <trkpt lat="45.98622" lon="4.764">
        <ele>188</ele>
        <time>2018-07-12T10:19:20Z</time>
      </trkpt>
      <trkpt lat="45.98625" lon="4.76405">
        <ele>188</ele>
        <time>2018-07-12T10:19:21Z</time>
      </trkpt>
      <trkpt lat="45.98629" lon="4.7641">
        <ele>188</ele>
        <time>2018-07-12T10:19:22Z</time>
      </trkpt>
      <trkpt lat="45.98632" lon="4.76414">
        <ele>188</ele>
        <time>2018-07-12T10:19:23Z</time>
      </trkpt>
      <trkpt lat="45.98636" lon="4.76418">
        <ele>189</ele>
        <time>2018-07-12T10:19:24Z</time>
      </trkpt>
      <trkpt lat="45.98643" lon="4.76425">
        <ele>188</ele>
        <time>2018-07-12T10:19:26Z</time>
      </trkpt>
      <trkpt lat="45.98648" lon="4.76428">
        <ele>188</ele>
        <time>2018-07-12T10:19:27Z</time>
      </trkpt>
      <trkpt lat="45.98652" lon="4.7643">
        <ele>188</ele>
        <time>2018-07-12T10:19:28Z</time>
      </trkpt>
      <trkpt lat="45.98656" lon="4.76433">
        <ele>188</ele>
        <time>2018-07-12T10:19:29Z</time>
      </trkpt>
      <trkpt lat="45.98661" lon="4.76437">
        <ele>188</ele>
        <time>2018-07-12T10:19:30Z</time>
      </trkpt>
      <trkpt lat="45.98666" lon="4.7644">
        <ele>188</ele>
        <time>2018-07-12T10:19:31Z</time>
      </trkpt>
      <trkpt lat="45.98673" lon="4.76446">
        <ele>187</ele>
        <time>2018-07-12T10:19:33Z</time>
      </trkpt>
      <trkpt lat="45.98676" lon="4.76451">
        <ele>187</ele>
        <time>2018-07-12T10:19:34Z</time>
      </trkpt>
      <trkpt lat="45.9868" lon="4.76454">
        <ele>187</ele>
        <time>2018-07-12T10:19:35Z</time>
      </trkpt>
      <trkpt lat="45.98685" lon="4.76458">
        <ele>187</ele>
        <time>2018-07-12T10:19:36Z</time>
      </trkpt>
      <trkpt lat="45.9869" lon="4.76464">
        <ele>187</ele>
        <time>2018-07-12T10:19:37Z</time>
      </trkpt>
      <trkpt lat="45.98695" lon="4.76469">
        <ele>187</ele>
        <time>2018-07-12T10:19:38Z</time>
      </trkpt>
      <trkpt lat="45.987" lon="4.76473">
        <ele>187</ele>
        <time>2018-07-12T10:19:39Z</time>
      </trkpt>
      <trkpt lat="45.98706" lon="4.76477">
        <ele>187</ele>
        <time>2018-07-12T10:19:40Z</time>
      </trkpt>
      <trkpt lat="45.9871" lon="4.76482">
        <ele>187</ele>
        <time>2018-07-12T10:19:41Z</time>
      </trkpt>
      <trkpt lat="45.98715" lon="4.76486">
        <ele>187</ele>
        <time>2018-07-12T10:19:42Z</time>
      </trkpt>
      <trkpt lat="45.98718" lon="4.76491">
        <ele>187</ele>
        <time>2018-07-12T10:19:43Z</time>
      </trkpt>
      <trkpt lat="45.98723" lon="4.76494">
        <ele>187</ele>
        <time>2018-07-12T10:19:44Z</time>
      </trkpt>
      <trkpt lat="45.98727" lon="4.76497">
        <ele>188</ele>
        <time>2018-07-12T10:19:45Z</time>
      </trkpt>
      <trkpt lat="45.98731" lon="4.765">
        <ele>188</ele>
        <time>2018-07-12T10:19:46Z</time>
      </trkpt>
      <trkpt lat="45.98737" lon="4.76508">
        <ele>188</ele>
        <time>2018-07-12T10:19:48Z</time>
      </trkpt>
      <trkpt lat="45.98742" lon="4.76511">
        <ele>188</ele>
        <time>2018-07-12T10:19:49Z</time>
      </trkpt>
      <trkpt lat="45.98748" lon="4.7652">
        <ele>188</ele>
        <time>2018-07-12T10:19:51Z</time>
      </trkpt>
      <trkpt lat="45.98752" lon="4.76524">
        <ele>190</ele>
        <time>2018-07-12T10:19:52Z</time>
      </trkpt>
      <trkpt lat="45.98756" lon="4.76528">
        <ele>190</ele>
        <time>2018-07-12T10:19:53Z</time>
      </trkpt>
      <trkpt lat="45.9876" lon="4.76532">
        <ele>190</ele>
        <time>2018-07-12T10:19:54Z</time>
      </trkpt>
      <trkpt lat="45.98768" lon="4.76537">
        <ele>191</ele>
        <time>2018-07-12T10:19:56Z</time>
      </trkpt>
      <trkpt lat="45.98771" lon="4.76542">
        <ele>191</ele>
        <time>2018-07-12T10:19:57Z</time>
      </trkpt>
      <trkpt lat="45.98777" lon="4.76548">
        <ele>191</ele>
        <time>2018-07-12T10:19:59Z</time>
      </trkpt>
      <trkpt lat="45.98781" lon="4.76552">
        <ele>191</ele>
        <time>2018-07-12T10:20:00Z</time>
      </trkpt>
      <trkpt lat="45.98784" lon="4.76556">
        <ele>191</ele>
        <time>2018-07-12T10:20:01Z</time>
      </trkpt>
      <trkpt lat="45.98788" lon="4.7656">
        <ele>191</ele>
        <time>2018-07-12T10:20:02Z</time>
      </trkpt>
      <trkpt lat="45.98794" lon="4.76567">
        <ele>192</ele>
        <time>2018-07-12T10:20:04Z</time>
      </trkpt>
      <trkpt lat="45.98798" lon="4.76571">
        <ele>192</ele>
        <time>2018-07-12T10:20:05Z</time>
      </trkpt>
      <trkpt lat="45.98804" lon="4.76579">
        <ele>192</ele>
        <time>2018-07-12T10:20:07Z</time>
      </trkpt>
      <trkpt lat="45.98807" lon="4.76582">
        <ele>193</ele>
        <time>2018-07-12T10:20:08Z</time>
      </trkpt>
      <trkpt lat="45.98813" lon="4.76588">
        <ele>193</ele>
        <time>2018-07-12T10:20:10Z</time>
      </trkpt>
      <trkpt lat="45.98816" lon="4.76591">
        <ele>193</ele>
        <time>2018-07-12T10:20:11Z</time>
      </trkpt>
      <trkpt lat="45.98823" lon="4.76599">
        <ele>193</ele>
        <time>2018-07-12T10:20:13Z</time>
      </trkpt>
      <trkpt lat="45.98826" lon="4.76602">
        <ele>193</ele>
        <time>2018-07-12T10:20:14Z</time>
      </trkpt>
      <trkpt lat="45.98832" lon="4.76609">
        <ele>193</ele>
        <time>2018-07-12T10:20:16Z</time>
      </trkpt>
      <trkpt lat="45.98835" lon="4.76612">
        <ele>196</ele>
        <time>2018-07-12T10:20:17Z</time>
      </trkpt>
      <trkpt lat="45.98841" lon="4.76619">
        <ele>196</ele>
        <time>2018-07-12T10:20:19Z</time>
      </trkpt>
      <trkpt lat="45.98844" lon="4.76623">
        <ele>196</ele>
        <time>2018-07-12T10:20:20Z</time>
      </trkpt>
      <trkpt lat="45.9885" lon="4.7663">
        <ele>196</ele>
        <time>2018-07-12T10:20:22Z</time>
      </trkpt>
      <trkpt lat="45.98854" lon="4.76633">
        <ele>196</ele>
        <time>2018-07-12T10:20:23Z</time>
      </trkpt>
      <trkpt lat="45.98861" lon="4.7664">
        <ele>196</ele>
        <time>2018-07-12T10:20:25Z</time>
      </trkpt>
      <trkpt lat="45.98864" lon="4.76644">
        <ele>196</ele>
        <time>2018-07-12T10:20:26Z</time>
      </trkpt>
      <trkpt lat="45.98868" lon="4.76648">
        <ele>196</ele>
        <time>2018-07-12T10:20:27Z</time>
      </trkpt>
      <trkpt lat="45.98871" lon="4.76652">
        <ele>196</ele>
        <time>2018-07-12T10:20:28Z</time>
      </trkpt>
      <trkpt lat="45.98875" lon="4.76656">
        <ele>196</ele>
        <time>2018-07-12T10:20:29Z</time>
      </trkpt>
      <trkpt lat="45.9888" lon="4.76659">
        <ele>196</ele>
        <time>2018-07-12T10:20:30Z</time>
      </trkpt>
      <trkpt lat="45.98886" lon="4.76666">
        <ele>196</ele>
        <time>2018-07-12T10:20:32Z</time>
      </trkpt>
      <trkpt lat="45.98889" lon="4.76669">
        <ele>194</ele>
        <time>2018-07-12T10:20:33Z</time>
      </trkpt>
      <trkpt lat="45.98896" lon="4.76675">
        <ele>195</ele>
        <time>2018-07-12T10:20:35Z</time>
      </trkpt>
      <trkpt lat="45.98899" lon="4.7668">
        <ele>195</ele>
        <time>2018-07-12T10:20:36Z</time>
      </trkpt>
      <trkpt lat="45.98904" lon="4.76684">
        <ele>195</ele>
        <time>2018-07-12T10:20:37Z</time>
      </trkpt>
      <trkpt lat="45.98908" lon="4.76688">
        <ele>195</ele>
        <time>2018-07-12T10:20:38Z</time>
      </trkpt>
      <trkpt lat="45.98911" lon="4.76692">
        <ele>195</ele>
        <time>2018-07-12T10:20:39Z</time>
      </trkpt>
      <trkpt lat="45.98915" lon="4.76696">
        <ele>194</ele>
        <time>2018-07-12T10:20:40Z</time>
      </trkpt>
      <trkpt lat="45.98921" lon="4.76702">
        <ele>198</ele>
        <time>2018-07-12T10:20:42Z</time>
      </trkpt>
      <trkpt lat="45.98924" lon="4.76705">
        <ele>198</ele>
        <time>2018-07-12T10:20:43Z</time>
      </trkpt>
      <trkpt lat="45.98931" lon="4.76712">
        <ele>198</ele>
        <time>2018-07-12T10:20:45Z</time>
      </trkpt>
      <trkpt lat="45.98934" lon="4.76715">
        <ele>197</ele>
        <time>2018-07-12T10:20:46Z</time>
      </trkpt>
      <trkpt lat="45.9894" lon="4.76723">
        <ele>197</ele>
        <time>2018-07-12T10:20:48Z</time>
      </trkpt>
      <trkpt lat="45.98943" lon="4.76727">
        <ele>197</ele>
        <time>2018-07-12T10:20:49Z</time>
      </trkpt>
      <trkpt lat="45.9895" lon="4.76734">
        <ele>198</ele>
        <time>2018-07-12T10:20:51Z</time>
      </trkpt>
      <trkpt lat="45.98953" lon="4.76737">
        <ele>198</ele>
        <time>2018-07-12T10:20:52Z</time>
      </trkpt>
      <trkpt lat="45.98958" lon="4.7674">
        <ele>198</ele>
        <time>2018-07-12T10:20:53Z</time>
      </trkpt>
      <trkpt lat="45.98962" lon="4.76745">
        <ele>198</ele>
        <time>2018-07-12T10:20:54Z</time>
      </trkpt>
      <trkpt lat="45.98966" lon="4.76749">
        <ele>198</ele>
        <time>2018-07-12T10:20:55Z</time>
      </trkpt>
      <trkpt lat="45.98969" lon="4.76752">
        <ele>196</ele>
        <time>2018-07-12T10:20:56Z</time>
      </trkpt>
      <trkpt lat="45.98972" lon="4.76756">
        <ele>196</ele>
        <time>2018-07-12T10:20:57Z</time>
      </trkpt>
      <trkpt lat="45.98976" lon="4.76761">
        <ele>197</ele>
        <time>2018-07-12T10:20:58Z</time>
      </trkpt>
      <trkpt lat="45.98981" lon="4.76771">
        <ele>197</ele>
        <time>2018-07-12T10:21:00Z</time>
      </trkpt>
      <trkpt lat="45.98984" lon="4.76775">
        <ele>197</ele>
        <time>2018-07-12T10:21:01Z</time>
      </trkpt>
      <trkpt lat="45.98987" lon="4.76785">
        <ele>197</ele>
        <time>2018-07-12T10:21:03Z</time>
      </trkpt>
      <trkpt lat="45.9899" lon="4.76791">
        <ele>196</ele>
        <time>2018-07-12T10:21:04Z</time>
      </trkpt>
      <trkpt lat="45.98994" lon="4.76801">
        <ele>197</ele>
        <time>2018-07-12T10:21:06Z</time>
      </trkpt>
      <trkpt lat="45.98996" lon="4.76807">
        <ele>197</ele>
        <time>2018-07-12T10:21:07Z</time>
      </trkpt>
      <trkpt lat="45.98998" lon="4.76814">
        <ele>197</ele>
        <time>2018-07-12T10:21:08Z</time>
      </trkpt>
      <trkpt lat="45.99001" lon="4.76819">
        <ele>200</ele>
        <time>2018-07-12T10:21:09Z</time>
      </trkpt>
      <trkpt lat="45.99003" lon="4.76826">
        <ele>199</ele>
        <time>2018-07-12T10:21:10Z</time>
      </trkpt>
      <trkpt lat="45.99006" lon="4.76831">
        <ele>199</ele>
        <time>2018-07-12T10:21:11Z</time>
      </trkpt>
      <trkpt lat="45.99011" lon="4.76841">
        <ele>199</ele>
        <time>2018-07-12T10:21:13Z</time>
      </trkpt>
      <trkpt lat="45.99014" lon="4.76845">
        <ele>199</ele>
        <time>2018-07-12T10:21:14Z</time>
      </trkpt>
      <trkpt lat="45.99019" lon="4.76855">
        <ele>199</ele>
        <time>2018-07-12T10:21:16Z</time>
      </trkpt>
      <trkpt lat="45.9902" lon="4.76857">
        <ele>199</ele>
        <time>2018-07-12T10:21:17Z</time>
      </trkpt>
      <trkpt lat="45.99023" lon="4.76865">
        <ele>199</ele>
        <time>2018-07-12T10:21:18Z</time>
      </trkpt>
      <trkpt lat="45.99027" lon="4.7687">
        <ele>199</ele>
        <time>2018-07-12T10:21:19Z</time>
      </trkpt>
      <trkpt lat="45.99032" lon="4.7688">
        <ele>199</ele>
        <time>2018-07-12T10:21:21Z</time>
      </trkpt>
      <trkpt lat="45.99035" lon="4.76886">
        <ele>199</ele>
        <time>2018-07-12T10:21:22Z</time>
      </trkpt>
      <trkpt lat="45.99038" lon="4.76892">
        <ele>199</ele>
        <time>2018-07-12T10:21:23Z</time>
      </trkpt>
      <trkpt lat="45.99041" lon="4.76898">
        <ele>199</ele>
        <time>2018-07-12T10:21:24Z</time>
      </trkpt>
      <trkpt lat="45.99043" lon="4.76904">
        <ele>199</ele>
        <time>2018-07-12T10:21:25Z</time>
      </trkpt>
      <trkpt lat="45.99045" lon="4.76909">
        <ele>199</ele>
        <time>2018-07-12T10:21:26Z</time>
      </trkpt>
      <trkpt lat="45.99049" lon="4.7692">
        <ele>198</ele>
        <time>2018-07-12T10:21:28Z</time>
      </trkpt>
      <trkpt lat="45.99052" lon="4.76924">
        <ele>198</ele>
        <time>2018-07-12T10:21:29Z</time>
      </trkpt>
      <trkpt lat="45.99056" lon="4.7693">
        <ele>198</ele>
        <time>2018-07-12T10:21:30Z</time>
      </trkpt>
      <trkpt lat="45.9906" lon="4.76935">
        <ele>198</ele>
        <time>2018-07-12T10:21:31Z</time>
      </trkpt>
      <trkpt lat="45.99063" lon="4.76941">
        <ele>198</ele>
        <time>2018-07-12T10:21:32Z</time>
      </trkpt>
      <trkpt lat="45.99066" lon="4.76948">
        <ele>198</ele>
        <time>2018-07-12T10:21:33Z</time>
      </trkpt>
      <trkpt lat="45.99069" lon="4.76954">
        <ele>198</ele>
        <time>2018-07-12T10:21:34Z</time>
      </trkpt>
      <trkpt lat="45.99072" lon="4.76959">
        <ele>198</ele>
        <time>2018-07-12T10:21:35Z</time>
      </trkpt>
      <trkpt lat="45.99075" lon="4.76965">
        <ele>198</ele>
        <time>2018-07-12T10:21:36Z</time>
      </trkpt>
      <trkpt lat="45.99077" lon="4.76971">
        <ele>198</ele>
        <time>2018-07-12T10:21:37Z</time>
      </trkpt>
      <trkpt lat="45.99082" lon="4.7698">
        <ele>198</ele>
        <time>2018-07-12T10:21:39Z</time>
      </trkpt>
      <trkpt lat="45.99084" lon="4.76985">
        <ele>201</ele>
        <time>2018-07-12T10:21:40Z</time>
      </trkpt>
      <trkpt lat="45.99087" lon="4.7699">
        <ele>201</ele>
        <time>2018-07-12T10:21:41Z</time>
      </trkpt>
      <trkpt lat="45.99092" lon="4.76995">
        <ele>201</ele>
        <time>2018-07-12T10:21:42Z</time>
      </trkpt>
      <trkpt lat="45.99094" lon="4.77">
        <ele>201</ele>
        <time>2018-07-12T10:21:43Z</time>
      </trkpt>
      <trkpt lat="45.99097" lon="4.77005">
        <ele>201</ele>
        <time>2018-07-12T10:21:44Z</time>
      </trkpt>
      <trkpt lat="45.99102" lon="4.77009">
        <ele>201</ele>
        <time>2018-07-12T10:21:45Z</time>
      </trkpt>
      <trkpt lat="45.99104" lon="4.77014">
        <ele>201</ele>
        <time>2018-07-12T10:21:46Z</time>
      </trkpt>
      <trkpt lat="45.99107" lon="4.77019">
        <ele>202</ele>
        <time>2018-07-12T10:21:47Z</time>
      </trkpt>
      <trkpt lat="45.9911" lon="4.77024">
        <ele>202</ele>
        <time>2018-07-12T10:21:48Z</time>
      </trkpt>
      <trkpt lat="45.99113" lon="4.77032">
        <ele>202</ele>
        <time>2018-07-12T10:21:49Z</time>
      </trkpt>
      <trkpt lat="45.99116" lon="4.77038">
        <ele>202</ele>
        <time>2018-07-12T10:21:50Z</time>
      </trkpt>
      <trkpt lat="45.99118" lon="4.77044">
        <ele>202</ele>
        <time>2018-07-12T10:21:51Z</time>
      </trkpt>
      <trkpt lat="45.9912" lon="4.77051">
        <ele>202</ele>
        <time>2018-07-12T10:21:52Z</time>
      </trkpt>
      <trkpt lat="45.99122" lon="4.77056">
        <ele>202</ele>
        <time>2018-07-12T10:21:53Z</time>
      </trkpt>
      <trkpt lat="45.99122" lon="4.77064">
        <ele>202</ele>
        <time>2018-07-12T10:21:54Z</time>
      </trkpt>
      <trkpt lat="45.99124" lon="4.7707">
        <ele>202</ele>
        <time>2018-07-12T10:21:55Z</time>
      </trkpt>
      <trkpt lat="45.99126" lon="4.77076">
        <ele>202</ele>
        <time>2018-07-12T10:21:56Z</time>
      </trkpt>
      <trkpt lat="45.99129" lon="4.77088">
        <ele>201</ele>
        <time>2018-07-12T10:21:58Z</time>
      </trkpt>
      <trkpt lat="45.99132" lon="4.77093">
        <ele>201</ele>
        <time>2018-07-12T10:21:59Z</time>
      </trkpt>
      <trkpt lat="45.99134" lon="4.77099">
        <ele>201</ele>
        <time>2018-07-12T10:22:00Z</time>
      </trkpt>
      <trkpt lat="45.99134" lon="4.77106">
        <ele>201</ele>
        <time>2018-07-12T10:22:01Z</time>
      </trkpt>
      <trkpt lat="45.99137" lon="4.77118">
        <ele>201</ele>
        <time>2018-07-12T10:22:03Z</time>
      </trkpt>
      <trkpt lat="45.99137" lon="4.7712">
        <ele>201</ele>
        <time>2018-07-12T10:22:04Z</time>
      </trkpt>
      <trkpt lat="45.99141" lon="4.77131">
        <ele>201</ele>
        <time>2018-07-12T10:22:06Z</time>
      </trkpt>
      <trkpt lat="45.99142" lon="4.77137">
        <ele>201</ele>
        <time>2018-07-12T10:22:07Z</time>
      </trkpt>
      <trkpt lat="45.99143" lon="4.77144">
        <ele>201</ele>
        <time>2018-07-12T10:22:08Z</time>
      </trkpt>
      <trkpt lat="45.99144" lon="4.7715">
        <ele>201</ele>
        <time>2018-07-12T10:22:09Z</time>
      </trkpt>
      <trkpt lat="45.99148" lon="4.77159">
        <ele>201</ele>
        <time>2018-07-12T10:22:10Z</time>
      </trkpt>
      <trkpt lat="45.99149" lon="4.77164">
        <ele>201</ele>
        <time>2018-07-12T10:22:11Z</time>
      </trkpt>
      <trkpt lat="45.99151" lon="4.7717">
        <ele>200</ele>
        <time>2018-07-12T10:22:12Z</time>
      </trkpt>
      <trkpt lat="45.9915" lon="4.77177">
        <ele>200</ele>
        <time>2018-07-12T10:22:13Z</time>
      </trkpt>
      <trkpt lat="45.99151" lon="4.77183">
        <ele>200</ele>
        <time>2018-07-12T10:22:14Z</time>
      </trkpt>
      <trkpt lat="45.99155" lon="4.7719">
        <ele>200</ele>
        <time>2018-07-12T10:22:15Z</time>
      </trkpt>
      <trkpt lat="45.99157" lon="4.77198">
        <ele>200</ele>
        <time>2018-07-12T10:22:17Z</time>
      </trkpt>
      <trkpt lat="45.99158" lon="4.77205">
        <ele>200</ele>
        <time>2018-07-12T10:22:18Z</time>
      </trkpt>
      <trkpt lat="45.99159" lon="4.77213">
        <ele>200</ele>
        <time>2018-07-12T10:22:19Z</time>
      </trkpt>
      <trkpt lat="45.99158" lon="4.77219">
        <ele>200</ele>
        <time>2018-07-12T10:22:20Z</time>
      </trkpt>
      <trkpt lat="45.99161" lon="4.77228">
        <ele>200</ele>
        <time>2018-07-12T10:22:21Z</time>
      </trkpt>
      <trkpt lat="45.99161" lon="4.77233">
        <ele>200</ele>
        <time>2018-07-12T10:22:22Z</time>
      </trkpt>
      <trkpt lat="45.99162" lon="4.77246">
        <ele>200</ele>
        <time>2018-07-12T10:22:24Z</time>
      </trkpt>
      <trkpt lat="45.99153" lon="4.77251">
        <ele>200</ele>
        <time>2018-07-12T10:22:25Z</time>
      </trkpt>
      <trkpt lat="45.99153" lon="4.77257">
        <ele>200</ele>
        <time>2018-07-12T10:22:26Z</time>
      </trkpt>
      <trkpt lat="45.99153" lon="4.77264">
        <ele>200</ele>
        <time>2018-07-12T10:22:27Z</time>
      </trkpt>
      <trkpt lat="45.99154" lon="4.77271">
        <ele>200</ele>
        <time>2018-07-12T10:22:28Z</time>
      </trkpt>
      <trkpt lat="45.99154" lon="4.77278">
        <ele>200</ele>
        <time>2018-07-12T10:22:29Z</time>
      </trkpt>
      <trkpt lat="45.99154" lon="4.77285">
        <ele>200</ele>
        <time>2018-07-12T10:22:30Z</time>
      </trkpt>
      <trkpt lat="45.99154" lon="4.77293">
        <ele>200</ele>
        <time>2018-07-12T10:22:31Z</time>
      </trkpt>
      <trkpt lat="45.99156" lon="4.77305">
        <ele>200</ele>
        <time>2018-07-12T10:22:33Z</time>
      </trkpt>
      <trkpt lat="45.99156" lon="4.7731">
        <ele>200</ele>
        <time>2018-07-12T10:22:34Z</time>
      </trkpt>
      <trkpt lat="45.99156" lon="4.77322">
        <ele>201</ele>
        <time>2018-07-12T10:22:36Z</time>
      </trkpt>
      <trkpt lat="45.99156" lon="4.77325">
        <ele>201</ele>
        <time>2018-07-12T10:22:37Z</time>
      </trkpt>
      <trkpt lat="45.99155" lon="4.77333">
        <ele>201</ele>
        <time>2018-07-12T10:22:38Z</time>
      </trkpt>
      <trkpt lat="45.99154" lon="4.7734">
        <ele>201</ele>
        <time>2018-07-12T10:22:39Z</time>
      </trkpt>
      <trkpt lat="45.99147" lon="4.77347">
        <ele>201</ele>
        <time>2018-07-12T10:22:41Z</time>
      </trkpt>
      <trkpt lat="45.99142" lon="4.77347">
        <ele>201</ele>
        <time>2018-07-12T10:22:42Z</time>
      </trkpt>
      <trkpt lat="45.99137" lon="4.77349">
        <ele>201</ele>
        <time>2018-07-12T10:22:43Z</time>
      </trkpt>
      <trkpt lat="45.99132" lon="4.7735">
        <ele>201</ele>
        <time>2018-07-12T10:22:44Z</time>
      </trkpt>
      <trkpt lat="45.99127" lon="4.7735">
        <ele>201</ele>
        <time>2018-07-12T10:22:45Z</time>
      </trkpt>
      <trkpt lat="45.99123" lon="4.77351">
        <ele>201</ele>
        <time>2018-07-12T10:22:46Z</time>
      </trkpt>
      <trkpt lat="45.99118" lon="4.77353">
        <ele>201</ele>
        <time>2018-07-12T10:22:47Z</time>
      </trkpt>
      <trkpt lat="45.99113" lon="4.77353">
        <ele>201</ele>
        <time>2018-07-12T10:22:48Z</time>
      </trkpt>
      <trkpt lat="45.99108" lon="4.77354">
        <ele>201</ele>
        <time>2018-07-12T10:22:49Z</time>
      </trkpt>
      <trkpt lat="45.99103" lon="4.77355">
        <ele>201</ele>
        <time>2018-07-12T10:22:50Z</time>
      </trkpt>
      <trkpt lat="45.99097" lon="4.77355">
        <ele>201</ele>
        <time>2018-07-12T10:22:51Z</time>
      </trkpt>
      <trkpt lat="45.99094" lon="4.77356">
        <ele>201</ele>
        <time>2018-07-12T10:22:52Z</time>
      </trkpt>
      <trkpt lat="45.99088" lon="4.77354">
        <ele>201</ele>
        <time>2018-07-12T10:22:53Z</time>
      </trkpt>
      <trkpt lat="45.99084" lon="4.77353">
        <ele>201</ele>
        <time>2018-07-12T10:22:54Z</time>
      </trkpt>
      <trkpt lat="45.99076" lon="4.77352">
        <ele>200</ele>
        <time>2018-07-12T10:22:56Z</time>
      </trkpt>
      <trkpt lat="45.99071" lon="4.77352">
        <ele>200</ele>
        <time>2018-07-12T10:22:57Z</time>
      </trkpt>
      <trkpt lat="45.99066" lon="4.77353">
        <ele>200</ele>
        <time>2018-07-12T10:22:58Z</time>
      </trkpt>
      <trkpt lat="45.9906" lon="4.77358">
        <ele>200</ele>
        <time>2018-07-12T10:22:59Z</time>
      </trkpt>
      <trkpt lat="45.99053" lon="4.7736">
        <ele>200</ele>
        <time>2018-07-12T10:23:01Z</time>
      </trkpt>
      <trkpt lat="45.99049" lon="4.77361">
        <ele>200</ele>
        <time>2018-07-12T10:23:02Z</time>
      </trkpt>
      <trkpt lat="45.99044" lon="4.77362">
        <ele>200</ele>
        <time>2018-07-12T10:23:03Z</time>
      </trkpt>
      <trkpt lat="45.99039" lon="4.77362">
        <ele>200</ele>
        <time>2018-07-12T10:23:04Z</time>
      </trkpt>
      <trkpt lat="45.99034" lon="4.77363">
        <ele>200</ele>
        <time>2018-07-12T10:23:05Z</time>
      </trkpt>
      <trkpt lat="45.9903" lon="4.77366">
        <ele>200</ele>
        <time>2018-07-12T10:23:06Z</time>
      </trkpt>
      <trkpt lat="45.99025" lon="4.77369">
        <ele>200</ele>
        <time>2018-07-12T10:23:07Z</time>
      </trkpt>
      <trkpt lat="45.99021" lon="4.77372">
        <ele>200</ele>
        <time>2018-07-12T10:23:08Z</time>
      </trkpt>
      <trkpt lat="45.99017" lon="4.77375">
        <ele>200</ele>
        <time>2018-07-12T10:23:09Z</time>
      </trkpt>
      <trkpt lat="45.99012" lon="4.77377">
        <ele>201</ele>
        <time>2018-07-12T10:23:10Z</time>
      </trkpt>
      <trkpt lat="45.99008" lon="4.77381">
        <ele>201</ele>
        <time>2018-07-12T10:23:11Z</time>
      </trkpt>
      <trkpt lat="45.99003" lon="4.77383">
        <ele>201</ele>
        <time>2018-07-12T10:23:12Z</time>
      </trkpt>
      <trkpt lat="45.98999" lon="4.77383">
        <ele>202</ele>
        <time>2018-07-12T10:23:13Z</time>
      </trkpt>
      <trkpt lat="45.98994" lon="4.77385">
        <ele>202</ele>
        <time>2018-07-12T10:23:14Z</time>
      </trkpt>
      <trkpt lat="45.98989" lon="4.77388">
        <ele>202</ele>
        <time>2018-07-12T10:23:15Z</time>
      </trkpt>
      <trkpt lat="45.98984" lon="4.77391">
        <ele>202</ele>
        <time>2018-07-12T10:23:16Z</time>
      </trkpt>
      <trkpt lat="45.98979" lon="4.77393">
        <ele>202</ele>
        <time>2018-07-12T10:23:17Z</time>
      </trkpt>
      <trkpt lat="45.98975" lon="4.77395">
        <ele>202</ele>
        <time>2018-07-12T10:23:18Z</time>
      </trkpt>
      <trkpt lat="45.98967" lon="4.774">
        <ele>202</ele>
        <time>2018-07-12T10:23:20Z</time>
      </trkpt>
      <trkpt lat="45.98963" lon="4.77402">
        <ele>202</ele>
        <time>2018-07-12T10:23:21Z</time>
      </trkpt>
      <trkpt lat="45.98956" lon="4.77407">
        <ele>203</ele>
        <time>2018-07-12T10:23:23Z</time>
      </trkpt>
      <trkpt lat="45.98951" lon="4.77408">
        <ele>203</ele>
        <time>2018-07-12T10:23:24Z</time>
      </trkpt>
      <trkpt lat="45.98942" lon="4.77409">
        <ele>203</ele>
        <time>2018-07-12T10:23:26Z</time>
      </trkpt>
      <trkpt lat="45.98939" lon="4.77411">
        <ele>203</ele>
        <time>2018-07-12T10:23:27Z</time>
      </trkpt>
      <trkpt lat="45.98932" lon="4.77413">
        <ele>204</ele>
        <time>2018-07-12T10:23:29Z</time>
      </trkpt>
      <trkpt lat="45.98927" lon="4.77416">
        <ele>204</ele>
        <time>2018-07-12T10:23:30Z</time>
      </trkpt>
      <trkpt lat="45.98919" lon="4.77421">
        <ele>205</ele>
        <time>2018-07-12T10:23:34Z</time>
      </trkpt>
      <trkpt lat="45.98916" lon="4.77423">
        <ele>206</ele>
        <time>2018-07-12T10:23:35Z</time>
      </trkpt>
      <trkpt lat="45.98908" lon="4.77426">
        <ele>206</ele>
        <time>2018-07-12T10:23:38Z</time>
      </trkpt>
      <trkpt lat="45.98906" lon="4.77427">
        <ele>207</ele>
        <time>2018-07-12T10:23:39Z</time>
      </trkpt>
      <trkpt lat="45.98898" lon="4.7743">
        <ele>207</ele>
        <time>2018-07-12T10:23:42Z</time>
      </trkpt>
      <trkpt lat="45.98895" lon="4.77431">
        <ele>207</ele>
        <time>2018-07-12T10:23:43Z</time>
      </trkpt>
      <trkpt lat="45.98887" lon="4.77435">
        <ele>208</ele>
        <time>2018-07-12T10:23:46Z</time>
      </trkpt>
      <trkpt lat="45.98885" lon="4.77436">
        <ele>208</ele>
        <time>2018-07-12T10:23:47Z</time>
      </trkpt>
      <trkpt lat="45.98877" lon="4.77439">
        <ele>208</ele>
        <time>2018-07-12T10:23:50Z</time>
      </trkpt>
      <trkpt lat="45.98875" lon="4.7744">
        <ele>208</ele>
        <time>2018-07-12T10:23:51Z</time>
      </trkpt>
      <trkpt lat="45.98868" lon="4.77443">
        <ele>209</ele>
        <time>2018-07-12T10:23:54Z</time>
      </trkpt>
      <trkpt lat="45.98866" lon="4.77444">
        <ele>209</ele>
        <time>2018-07-12T10:23:55Z</time>
      </trkpt>
      <trkpt lat="45.98857" lon="4.77448">
        <ele>209</ele>
        <time>2018-07-12T10:23:59Z</time>
      </trkpt>
      <trkpt lat="45.98856" lon="4.77449">
        <ele>209</ele>
        <time>2018-07-12T10:24:00Z</time>
      </trkpt>
      <trkpt lat="45.98848" lon="4.77453">
        <ele>209</ele>
        <time>2018-07-12T10:24:04Z</time>
      </trkpt>
      <trkpt lat="45.98846" lon="4.77454">
        <ele>209</ele>
        <time>2018-07-12T10:24:05Z</time>
      </trkpt>
      <trkpt lat="45.98839" lon="4.77457">
        <ele>210</ele>
        <time>2018-07-12T10:24:09Z</time>
      </trkpt>
      <trkpt lat="45.98837" lon="4.77458">
        <ele>210</ele>
        <time>2018-07-12T10:24:10Z</time>
      </trkpt>
      <trkpt lat="45.98831" lon="4.77464">
        <ele>212</ele>
        <time>2018-07-12T10:24:14Z</time>
      </trkpt>
      <trkpt lat="45.98829" lon="4.77466">
        <ele>212</ele>
        <time>2018-07-12T10:24:15Z</time>
      </trkpt>
      <trkpt lat="45.98827" lon="4.77479">
        <ele>213</ele>
        <time>2018-07-12T10:24:20Z</time>
      </trkpt>
      <trkpt lat="45.98827" lon="4.7748">
        <ele>213</ele>
        <time>2018-07-12T10:24:21Z</time>
      </trkpt>
      <trkpt lat="45.98821" lon="4.7749">
        <ele>214</ele>
        <time>2018-07-12T10:24:43Z</time>
      </trkpt>
      <trkpt lat="45.98821" lon="4.77492">
        <ele>214</ele>
        <time>2018-07-12T10:24:44Z</time>
      </trkpt>
      <trkpt lat="45.98818" lon="4.775">
        <ele>214</ele>
        <time>2018-07-12T10:24:48Z</time>
      </trkpt>
      <trkpt lat="45.98817" lon="4.77501">
        <ele>216</ele>
        <time>2018-07-12T10:24:49Z</time>
      </trkpt>
      <trkpt lat="45.98816" lon="4.77505">
        <ele>216</ele>
        <time>2018-07-12T10:24:55Z</time>
      </trkpt>
      <trkpt lat="45.98816" lon="4.77505">
        <ele>216</ele>
        <time>2018-07-12T10:24:56Z</time>
      </trkpt>
      <trkpt lat="45.98812" lon="4.77516">
        <ele>216</ele>
        <time>2018-07-12T10:25:13Z</time>
      </trkpt>
      <trkpt lat="45.98811" lon="4.77518">
        <ele>216</ele>
        <time>2018-07-12T10:25:14Z</time>
      </trkpt>
      <trkpt lat="45.98805" lon="4.77527">
        <ele>217</ele>
        <time>2018-07-12T10:25:19Z</time>
      </trkpt>
      <trkpt lat="45.98804" lon="4.77529">
        <ele>217</ele>
        <time>2018-07-12T10:25:20Z</time>
      </trkpt>
      <trkpt lat="45.98799" lon="4.77536">
        <ele>217</ele>
        <time>2018-07-12T10:25:23Z</time>
      </trkpt>
      <trkpt lat="45.98797" lon="4.77539">
        <ele>217</ele>
        <time>2018-07-12T10:25:24Z</time>
      </trkpt>
      <trkpt lat="45.98791" lon="4.77546">
        <ele>217</ele>
        <time>2018-07-12T10:25:27Z</time>
      </trkpt>
      <trkpt lat="45.98789" lon="4.77548">
        <ele>217</ele>
        <time>2018-07-12T10:25:28Z</time>
      </trkpt>
      <trkpt lat="45.98784" lon="4.77554">
        <ele>218</ele>
        <time>2018-07-12T10:25:31Z</time>
      </trkpt>
      <trkpt lat="45.98782" lon="4.77556">
        <ele>218</ele>
        <time>2018-07-12T10:25:32Z</time>
      </trkpt>
      <trkpt lat="45.98775" lon="4.77564">
        <ele>218</ele>
        <time>2018-07-12T10:25:35Z</time>
      </trkpt>
      <trkpt lat="45.98773" lon="4.77566">
        <ele>218</ele>
        <time>2018-07-12T10:25:36Z</time>
      </trkpt>
      <trkpt lat="45.98767" lon="4.77574">
        <ele>219</ele>
        <time>2018-07-12T10:25:39Z</time>
      </trkpt>
      <trkpt lat="45.98765" lon="4.77576">
        <ele>219</ele>
        <time>2018-07-12T10:25:40Z</time>
      </trkpt>
      <trkpt lat="45.9876" lon="4.77582">
        <ele>219</ele>
        <time>2018-07-12T10:25:42Z</time>
      </trkpt>
      <trkpt lat="45.98753" lon="4.77589">
        <ele>220</ele>
        <time>2018-07-12T10:25:43Z</time>
      </trkpt>
      <trkpt lat="45.98745" lon="4.77596">
        <ele>221</ele>
        <time>2018-07-12T10:25:47Z</time>
      </trkpt>
      <trkpt lat="45.98743" lon="4.77598">
        <ele>222</ele>
        <time>2018-07-12T10:25:48Z</time>
      </trkpt>
      <trkpt lat="45.98737" lon="4.77605">
        <ele>222</ele>
        <time>2018-07-12T10:25:51Z</time>
      </trkpt>
      <trkpt lat="45.98734" lon="4.77608">
        <ele>222</ele>
        <time>2018-07-12T10:25:52Z</time>
      </trkpt>
      <trkpt lat="45.98727" lon="4.77615">
        <ele>223</ele>
        <time>2018-07-12T10:25:55Z</time>
      </trkpt>
      <trkpt lat="45.98725" lon="4.77618">
        <ele>223</ele>
        <time>2018-07-12T10:25:56Z</time>
      </trkpt>
      <trkpt lat="45.98719" lon="4.77624">
        <ele>223</ele>
        <time>2018-07-12T10:25:59Z</time>
      </trkpt>
      <trkpt lat="45.98716" lon="4.77627">
        <ele>223</ele>
        <time>2018-07-12T10:26:00Z</time>
      </trkpt>
      <trkpt lat="45.9871" lon="4.77633">
        <ele>224</ele>
        <time>2018-07-12T10:26:03Z</time>
      </trkpt>
      <trkpt lat="45.98708" lon="4.77634">
        <ele>224</ele>
        <time>2018-07-12T10:26:04Z</time>
      </trkpt>
      <trkpt lat="45.98702" lon="4.7764">
        <ele>224</ele>
        <time>2018-07-12T10:26:07Z</time>
      </trkpt>
      <trkpt lat="45.987" lon="4.77642">
        <ele>224</ele>
        <time>2018-07-12T10:26:08Z</time>
      </trkpt>
      <trkpt lat="45.98693" lon="4.77648">
        <ele>225</ele>
        <time>2018-07-12T10:26:11Z</time>
      </trkpt>
      <trkpt lat="45.98691" lon="4.7765">
        <ele>225</ele>
        <time>2018-07-12T10:26:12Z</time>
      </trkpt>
      <trkpt lat="45.98684" lon="4.77657">
        <ele>225</ele>
        <time>2018-07-12T10:26:15Z</time>
      </trkpt>
      <trkpt lat="45.98682" lon="4.77659">
        <ele>226</ele>
        <time>2018-07-12T10:26:16Z</time>
      </trkpt>
      <trkpt lat="45.98677" lon="4.77665">
        <ele>226</ele>
        <time>2018-07-12T10:26:18Z</time>
      </trkpt>
      <trkpt lat="45.98675" lon="4.77668">
        <ele>228</ele>
        <time>2018-07-12T10:26:19Z</time>
      </trkpt>
      <trkpt lat="45.9867" lon="4.77676">
        <ele>228</ele>
        <time>2018-07-12T10:26:23Z</time>
      </trkpt>
      <trkpt lat="45.98668" lon="4.77678">
        <ele>228</ele>
        <time>2018-07-12T10:26:24Z</time>
      </trkpt>
      <trkpt lat="45.98662" lon="4.77686">
        <ele>229</ele>
        <time>2018-07-12T10:26:28Z</time>
      </trkpt>
      <trkpt lat="45.9866" lon="4.77687">
        <ele>229</ele>
        <time>2018-07-12T10:26:29Z</time>
      </trkpt>
      <trkpt lat="45.98653" lon="4.77693">
        <ele>230</ele>
        <time>2018-07-12T10:26:32Z</time>
      </trkpt>
      <trkpt lat="45.98651" lon="4.77694">
        <ele>230</ele>
        <time>2018-07-12T10:26:33Z</time>
      </trkpt>
      <trkpt lat="45.98645" lon="4.777">
        <ele>230</ele>
        <time>2018-07-12T10:26:36Z</time>
      </trkpt>
      <trkpt lat="45.98643" lon="4.77701">
        <ele>230</ele>
        <time>2018-07-12T10:26:37Z</time>
      </trkpt>
      <trkpt lat="45.98637" lon="4.77707">
        <ele>230</ele>
        <time>2018-07-12T10:26:40Z</time>
      </trkpt>
      <trkpt lat="45.98635" lon="4.77709">
        <ele>230</ele>
        <time>2018-07-12T10:26:41Z</time>
      </trkpt>
      <trkpt lat="45.98629" lon="4.77715">
        <ele>231</ele>
        <time>2018-07-12T10:26:44Z</time>
      </trkpt>
      <trkpt lat="45.98627" lon="4.77717">
        <ele>231</ele>
        <time>2018-07-12T10:26:45Z</time>
      </trkpt>
      <trkpt lat="45.98619" lon="4.77722">
        <ele>231</ele>
        <time>2018-07-12T10:26:49Z</time>
      </trkpt>
      <trkpt lat="45.98617" lon="4.77724">
        <ele>231</ele>
        <time>2018-07-12T10:26:50Z</time>
      </trkpt>
      <trkpt lat="45.98611" lon="4.77728">
        <ele>231</ele>
        <time>2018-07-12T10:26:53Z</time>
      </trkpt>
      <trkpt lat="45.98609" lon="4.77729">
        <ele>231</ele>
        <time>2018-07-12T10:26:54Z</time>
      </trkpt>
      <trkpt lat="45.98602" lon="4.77732">
        <ele>231</ele>
        <time>2018-07-12T10:26:57Z</time>
      </trkpt>
      <trkpt lat="45.98599" lon="4.77733">
        <ele>231</ele>
        <time>2018-07-12T10:26:58Z</time>
      </trkpt>
      <trkpt lat="45.98591" lon="4.77736">
        <ele>232</ele>
        <time>2018-07-12T10:27:04Z</time>
      </trkpt>
      <trkpt lat="45.9859" lon="4.77735">
        <ele>232</ele>
        <time>2018-07-12T10:27:05Z</time>
      </trkpt>
      <trkpt lat="45.98582" lon="4.77735">
        <ele>233</ele>
        <time>2018-07-12T10:27:19Z</time>
      </trkpt>
      <trkpt lat="45.9858" lon="4.77735">
        <ele>233</ele>
        <time>2018-07-12T10:27:20Z</time>
      </trkpt>
      <trkpt lat="45.98572" lon="4.77736">
        <ele>233</ele>
        <time>2018-07-12T10:27:27Z</time>
      </trkpt>
      <trkpt lat="45.9857" lon="4.77738">
        <ele>233</ele>
        <time>2018-07-12T10:27:28Z</time>
      </trkpt>
      <trkpt lat="45.98564" lon="4.77743">
        <ele>233</ele>
        <time>2018-07-12T10:27:31Z</time>
      </trkpt>
      <trkpt lat="45.98562" lon="4.77745">
        <ele>233</ele>
        <time>2018-07-12T10:27:32Z</time>
      </trkpt>
      <trkpt lat="45.9856" lon="4.77747">
        <ele>233</ele>
        <time>2018-07-12T10:27:33Z</time>
      </trkpt>
      <trkpt lat="45.98551" lon="4.77755">
        <ele>235</ele>
        <time>2018-07-12T10:27:34Z</time>
      </trkpt>
      <trkpt lat="45.98544" lon="4.7776">
        <ele>235</ele>
        <time>2018-07-12T10:27:37Z</time>
      </trkpt>
      <trkpt lat="45.98542" lon="4.77761">
        <ele>235</ele>
        <time>2018-07-12T10:27:38Z</time>
      </trkpt>
      <trkpt lat="45.98535" lon="4.77764">
        <ele>236</ele>
        <time>2018-07-12T10:27:42Z</time>
      </trkpt>
      <trkpt lat="45.98534" lon="4.77764">
        <ele>236</ele>
        <time>2018-07-12T10:27:43Z</time>
      </trkpt>
      <trkpt lat="45.98525" lon="4.77766">
        <ele>236</ele>
        <time>2018-07-12T10:27:50Z</time>
      </trkpt>
      <trkpt lat="45.98524" lon="4.77766">
        <ele>236</ele>
        <time>2018-07-12T10:27:51Z</time>
      </trkpt>
      <trkpt lat="45.98517" lon="4.77772">
        <ele>236</ele>
        <time>2018-07-12T10:27:56Z</time>
      </trkpt>
      <trkpt lat="45.98516" lon="4.77774">
        <ele>236</ele>
        <time>2018-07-12T10:27:57Z</time>
      </trkpt>
      <trkpt lat="45.9851" lon="4.77782">
        <ele>236</ele>
        <time>2018-07-12T10:28:02Z</time>
      </trkpt>
      <trkpt lat="45.98503" lon="4.77785">
        <ele>236</ele>
        <time>2018-07-12T10:28:03Z</time>
      </trkpt>
      <trkpt lat="45.98496" lon="4.77788">
        <ele>238</ele>
        <time>2018-07-12T10:28:06Z</time>
      </trkpt>
      <trkpt lat="45.98494" lon="4.77789">
        <ele>238</ele>
        <time>2018-07-12T10:28:07Z</time>
      </trkpt>
      <trkpt lat="45.98488" lon="4.77793">
        <ele>238</ele>
        <time>2018-07-12T10:28:10Z</time>
      </trkpt>
      <trkpt lat="45.98485" lon="4.77793">
        <ele>238</ele>
        <time>2018-07-12T10:28:11Z</time>
      </trkpt>
      <trkpt lat="45.98477" lon="4.77795">
        <ele>238</ele>
        <time>2018-07-12T10:28:14Z</time>
      </trkpt>
      <trkpt lat="45.98474" lon="4.77797">
        <ele>238</ele>
        <time>2018-07-12T10:28:15Z</time>
      </trkpt>
      <trkpt lat="45.9847" lon="4.77798">
        <ele>238</ele>
        <time>2018-07-12T10:28:16Z</time>
      </trkpt>
      <trkpt lat="45.9846" lon="4.77803">
        <ele>239</ele>
        <time>2018-07-12T10:28:17Z</time>
      </trkpt>
      <trkpt lat="45.98453" lon="4.77807">
        <ele>239</ele>
        <time>2018-07-12T10:28:20Z</time>
      </trkpt>
      <trkpt lat="45.98447" lon="4.7781">
        <ele>239</ele>
        <time>2018-07-12T10:28:21Z</time>
      </trkpt>
      <trkpt lat="45.98439" lon="4.77813">
        <ele>239</ele>
        <time>2018-07-12T10:28:23Z</time>
      </trkpt>
      <trkpt lat="45.98437" lon="4.77814">
        <ele>239</ele>
        <time>2018-07-12T10:28:24Z</time>
      </trkpt>
      <trkpt lat="45.98432" lon="4.77816">
        <ele>240</ele>
        <time>2018-07-12T10:28:25Z</time>
      </trkpt>
      <trkpt lat="45.98428" lon="4.77818">
        <ele>240</ele>
        <time>2018-07-12T10:28:26Z</time>
      </trkpt>
      <trkpt lat="45.9842" lon="4.77821">
        <ele>240</ele>
        <time>2018-07-12T10:28:28Z</time>
      </trkpt>
      <trkpt lat="45.98416" lon="4.77823">
        <ele>241</ele>
        <time>2018-07-12T10:28:29Z</time>
      </trkpt>
      <trkpt lat="45.9841" lon="4.77826">
        <ele>241</ele>
        <time>2018-07-12T10:28:32Z</time>
      </trkpt>
      <trkpt lat="45.98403" lon="4.77831">
        <ele>241</ele>
        <time>2018-07-12T10:28:33Z</time>
      </trkpt>
      <trkpt lat="45.98395" lon="4.77833">
        <ele>241</ele>
        <time>2018-07-12T10:28:35Z</time>
      </trkpt>
      <trkpt lat="45.98391" lon="4.77833">
        <ele>241</ele>
        <time>2018-07-12T10:28:36Z</time>
      </trkpt>
      <trkpt lat="45.98382" lon="4.77837">
        <ele>242</ele>
        <time>2018-07-12T10:28:38Z</time>
      </trkpt>
      <trkpt lat="45.98378" lon="4.77839">
        <ele>242</ele>
        <time>2018-07-12T10:28:39Z</time>
      </trkpt>
      <trkpt lat="45.9837" lon="4.77843">
        <ele>242</ele>
        <time>2018-07-12T10:28:41Z</time>
      </trkpt>
      <trkpt lat="45.98368" lon="4.77846">
        <ele>242</ele>
        <time>2018-07-12T10:28:42Z</time>
      </trkpt>
      <trkpt lat="45.98361" lon="4.77848">
        <ele>242</ele>
        <time>2018-07-12T10:28:44Z</time>
      </trkpt>
      <trkpt lat="45.98357" lon="4.7785">
        <ele>242</ele>
        <time>2018-07-12T10:28:45Z</time>
      </trkpt>
      <trkpt lat="45.98348" lon="4.77851">
        <ele>242</ele>
        <time>2018-07-12T10:28:47Z</time>
      </trkpt>
      <trkpt lat="45.98343" lon="4.77852">
        <ele>242</ele>
        <time>2018-07-12T10:28:48Z</time>
      </trkpt>
      <trkpt lat="45.98339" lon="4.77852">
        <ele>242</ele>
        <time>2018-07-12T10:28:49Z</time>
      </trkpt>
      <trkpt lat="45.98334" lon="4.77852">
        <ele>242</ele>
        <time>2018-07-12T10:28:50Z</time>
      </trkpt>
      <trkpt lat="45.98329" lon="4.77852">
        <ele>243</ele>
        <time>2018-07-12T10:28:51Z</time>
      </trkpt>
      <trkpt lat="45.98323" lon="4.77851">
        <ele>243</ele>
        <time>2018-07-12T10:28:52Z</time>
      </trkpt>
      <trkpt lat="45.98319" lon="4.77852">
        <ele>243</ele>
        <time>2018-07-12T10:28:53Z</time>
      </trkpt>
      <trkpt lat="45.98311" lon="4.77849">
        <ele>243</ele>
        <time>2018-07-12T10:28:54Z</time>
      </trkpt>
      <trkpt lat="45.9831" lon="4.7785">
        <ele>243</ele>
        <time>2018-07-12T10:28:57Z</time>
      </trkpt>
      <trkpt lat="45.98301" lon="4.77852">
        <ele>243</ele>
        <time>2018-07-12T10:28:58Z</time>
      </trkpt>
      <trkpt lat="45.98298" lon="4.77855">
        <ele>243</ele>
        <time>2018-07-12T10:29:00Z</time>
      </trkpt>
      <trkpt lat="45.9829" lon="4.77862">
        <ele>243</ele>
        <time>2018-07-12T10:29:01Z</time>
      </trkpt>
      <trkpt lat="45.98283" lon="4.77863">
        <ele>244</ele>
        <time>2018-07-12T10:29:02Z</time>
      </trkpt>
      <trkpt lat="45.98279" lon="4.77867">
        <ele>244</ele>
        <time>2018-07-12T10:29:03Z</time>
      </trkpt>
      <trkpt lat="45.98271" lon="4.7787">
        <ele>244</ele>
        <time>2018-07-12T10:29:05Z</time>
      </trkpt>
      <trkpt lat="45.9827" lon="4.77871">
        <ele>244</ele>
        <time>2018-07-12T10:29:06Z</time>
      </trkpt>
      <trkpt lat="45.98264" lon="4.77874">
        <ele>244</ele>
        <time>2018-07-12T10:29:07Z</time>
      </trkpt>
      <trkpt lat="45.9826" lon="4.77878">
        <ele>244</ele>
        <time>2018-07-12T10:29:08Z</time>
      </trkpt>
      <trkpt lat="45.98256" lon="4.77882">
        <ele>244</ele>
        <time>2018-07-12T10:29:09Z</time>
      </trkpt>
      <trkpt lat="45.98252" lon="4.77884">
        <ele>244</ele>
        <time>2018-07-12T10:29:10Z</time>
      </trkpt>
      <trkpt lat="45.98243" lon="4.77887">
        <ele>244</ele>
        <time>2018-07-12T10:29:12Z</time>
      </trkpt>
      <trkpt lat="45.98239" lon="4.77889">
        <ele>244</ele>
        <time>2018-07-12T10:29:13Z</time>
      </trkpt>
      <trkpt lat="45.98232" lon="4.77889">
        <ele>244</ele>
        <time>2018-07-12T10:29:15Z</time>
      </trkpt>
      <trkpt lat="45.98228" lon="4.7789">
        <ele>244</ele>
        <time>2018-07-12T10:29:16Z</time>
      </trkpt>
      <trkpt lat="45.98219" lon="4.77893">
        <ele>244</ele>
        <time>2018-07-12T10:29:18Z</time>
      </trkpt>
      <trkpt lat="45.98216" lon="4.77893">
        <ele>244</ele>
        <time>2018-07-12T10:29:19Z</time>
      </trkpt>
      <trkpt lat="45.98207" lon="4.77896">
        <ele>244</ele>
        <time>2018-07-12T10:29:21Z</time>
      </trkpt>
      <trkpt lat="45.98203" lon="4.77897">
        <ele>244</ele>
        <time>2018-07-12T10:29:22Z</time>
      </trkpt>
      <trkpt lat="45.98198" lon="4.77899">
        <ele>244</ele>
        <time>2018-07-12T10:29:23Z</time>
      </trkpt>
      <trkpt lat="45.98194" lon="4.77901">
        <ele>244</ele>
        <time>2018-07-12T10:29:24Z</time>
      </trkpt>
      <trkpt lat="45.98189" lon="4.77904">
        <ele>244</ele>
        <time>2018-07-12T10:29:25Z</time>
      </trkpt>
      <trkpt lat="45.98184" lon="4.77907">
        <ele>245</ele>
        <time>2018-07-12T10:29:26Z</time>
      </trkpt>
      <trkpt lat="45.98176" lon="4.77911">
        <ele>245</ele>
        <time>2018-07-12T10:29:28Z</time>
      </trkpt>
      <trkpt lat="45.98172" lon="4.77912">
        <ele>245</ele>
        <time>2018-07-12T10:29:29Z</time>
      </trkpt>
      <trkpt lat="45.98167" lon="4.77914">
        <ele>245</ele>
        <time>2018-07-12T10:29:30Z</time>
      </trkpt>
      <trkpt lat="45.98163" lon="4.77917">
        <ele>245</ele>
        <time>2018-07-12T10:29:31Z</time>
      </trkpt>
      <trkpt lat="45.98158" lon="4.77918">
        <ele>245</ele>
        <time>2018-07-12T10:29:32Z</time>
      </trkpt>
      <trkpt lat="45.98153" lon="4.7792">
        <ele>245</ele>
        <time>2018-07-12T10:29:33Z</time>
      </trkpt>
      <trkpt lat="45.98148" lon="4.77922">
        <ele>246</ele>
        <time>2018-07-12T10:29:34Z</time>
      </trkpt>
      <trkpt lat="45.98143" lon="4.77923">
        <ele>246</ele>
        <time>2018-07-12T10:29:35Z</time>
      </trkpt>
      <trkpt lat="45.98137" lon="4.77923">
        <ele>246</ele>
        <time>2018-07-12T10:29:36Z</time>
      </trkpt>
      <trkpt lat="45.98134" lon="4.77928">
        <ele>246</ele>
        <time>2018-07-12T10:29:37Z</time>
      </trkpt>
      <trkpt lat="45.98129" lon="4.7793">
        <ele>246</ele>
        <time>2018-07-12T10:29:38Z</time>
      </trkpt>
      <trkpt lat="45.98124" lon="4.77931">
        <ele>246</ele>
        <time>2018-07-12T10:29:39Z</time>
      </trkpt>
      <trkpt lat="45.98119" lon="4.77933">
        <ele>246</ele>
        <time>2018-07-12T10:29:40Z</time>
      </trkpt>
      <trkpt lat="45.98115" lon="4.77933">
        <ele>246</ele>
        <time>2018-07-12T10:29:41Z</time>
      </trkpt>
      <trkpt lat="45.98107" lon="4.77934">
        <ele>246</ele>
        <time>2018-07-12T10:29:43Z</time>
      </trkpt>
      <trkpt lat="45.98102" lon="4.77935">
        <ele>246</ele>
        <time>2018-07-12T10:29:44Z</time>
      </trkpt>
      <trkpt lat="45.98096" lon="4.77938">
        <ele>246</ele>
        <time>2018-07-12T10:29:45Z</time>
      </trkpt>
      <trkpt lat="45.98092" lon="4.77938">
        <ele>246</ele>
        <time>2018-07-12T10:29:46Z</time>
      </trkpt>
      <trkpt lat="45.98086" lon="4.77939">
        <ele>246</ele>
        <time>2018-07-12T10:29:47Z</time>
      </trkpt>
      <trkpt lat="45.98082" lon="4.77942">
        <ele>247</ele>
        <time>2018-07-12T10:29:48Z</time>
      </trkpt>
      <trkpt lat="45.98077" lon="4.77942">
        <ele>247</ele>
        <time>2018-07-12T10:29:49Z</time>
      </trkpt>
      <trkpt lat="45.98071" lon="4.77944">
        <ele>247</ele>
        <time>2018-07-12T10:29:50Z</time>
      </trkpt>
      <trkpt lat="45.98063" lon="4.77948">
        <ele>247</ele>
        <time>2018-07-12T10:29:52Z</time>
      </trkpt>
      <trkpt lat="45.98057" lon="4.77948">
        <ele>247</ele>
        <time>2018-07-12T10:29:53Z</time>
      </trkpt>
      <trkpt lat="45.98052" lon="4.7795">
        <ele>247</ele>
        <time>2018-07-12T10:29:54Z</time>
      </trkpt>
      <trkpt lat="45.98046" lon="4.7795">
        <ele>247</ele>
        <time>2018-07-12T10:29:55Z</time>
      </trkpt>
      <trkpt lat="45.98039" lon="4.77951">
        <ele>247</ele>
        <time>2018-07-12T10:29:56Z</time>
      </trkpt>
      <trkpt lat="45.98033" lon="4.77952">
        <ele>247</ele>
        <time>2018-07-12T10:29:57Z</time>
      </trkpt>
      <trkpt lat="45.98027" lon="4.77954">
        <ele>247</ele>
        <time>2018-07-12T10:29:58Z</time>
      </trkpt>
      <trkpt lat="45.98021" lon="4.77956">
        <ele>247</ele>
        <time>2018-07-12T10:29:59Z</time>
      </trkpt>
      <trkpt lat="45.98015" lon="4.77958">
        <ele>247</ele>
        <time>2018-07-12T10:30:00Z</time>
      </trkpt>
      <trkpt lat="45.98009" lon="4.77957">
        <ele>247</ele>
        <time>2018-07-12T10:30:01Z</time>
      </trkpt>
      <trkpt lat="45.98005" lon="4.77958">
        <ele>247</ele>
        <time>2018-07-12T10:30:02Z</time>
      </trkpt>
      <trkpt lat="45.98" lon="4.77958">
        <ele>246</ele>
        <time>2018-07-12T10:30:03Z</time>
      </trkpt>
      <trkpt lat="45.97995" lon="4.77957">
        <ele>246</ele>
        <time>2018-07-12T10:30:04Z</time>
      </trkpt>
      <trkpt lat="45.97989" lon="4.77958">
        <ele>246</ele>
        <time>2018-07-12T10:30:05Z</time>
      </trkpt>
      <trkpt lat="45.97984" lon="4.77958">
        <ele>246</ele>
        <time>2018-07-12T10:30:06Z</time>
      </trkpt>
      <trkpt lat="45.97978" lon="4.7796">
        <ele>246</ele>
        <time>2018-07-12T10:30:07Z</time>
      </trkpt>
      <trkpt lat="45.97973" lon="4.77961">
        <ele>246</ele>
        <time>2018-07-12T10:30:08Z</time>
      </trkpt>
      <trkpt lat="45.97967" lon="4.77963">
        <ele>246</ele>
        <time>2018-07-12T10:30:09Z</time>
      </trkpt>
      <trkpt lat="45.97962" lon="4.77963">
        <ele>246</ele>
        <time>2018-07-12T10:30:10Z</time>
      </trkpt>
      <trkpt lat="45.97956" lon="4.77963">
        <ele>246</ele>
        <time>2018-07-12T10:30:11Z</time>
      </trkpt>
      <trkpt lat="45.9795" lon="4.77965">
        <ele>246</ele>
        <time>2018-07-12T10:30:12Z</time>
      </trkpt>
      <trkpt lat="45.97944" lon="4.77964">
        <ele>246</ele>
        <time>2018-07-12T10:30:13Z</time>
      </trkpt>
      <trkpt lat="45.97939" lon="4.77967">
        <ele>246</ele>
        <time>2018-07-12T10:30:14Z</time>
      </trkpt>
      <trkpt lat="45.97932" lon="4.77966">
        <ele>246</ele>
        <time>2018-07-12T10:30:15Z</time>
      </trkpt>
      <trkpt lat="45.97927" lon="4.77966">
        <ele>246</ele>
        <time>2018-07-12T10:30:16Z</time>
      </trkpt>
      <trkpt lat="45.97921" lon="4.77968">
        <ele>246</ele>
        <time>2018-07-12T10:30:17Z</time>
      </trkpt>
      <trkpt lat="45.97915" lon="4.77969">
        <ele>246</ele>
        <time>2018-07-12T10:30:18Z</time>
      </trkpt>
      <trkpt lat="45.97909" lon="4.77971">
        <ele>246</ele>
        <time>2018-07-12T10:30:19Z</time>
      </trkpt>
      <trkpt lat="45.97904" lon="4.77971">
        <ele>246</ele>
        <time>2018-07-12T10:30:20Z</time>
      </trkpt>
      <trkpt lat="45.97899" lon="4.77972">
        <ele>246</ele>
        <time>2018-07-12T10:30:21Z</time>
      </trkpt>
      <trkpt lat="45.97894" lon="4.77973">
        <ele>246</ele>
        <time>2018-07-12T10:30:22Z</time>
      </trkpt>
      <trkpt lat="45.97888" lon="4.77976">
        <ele>246</ele>
        <time>2018-07-12T10:30:23Z</time>
      </trkpt>
      <trkpt lat="45.97882" lon="4.77978">
        <ele>246</ele>
        <time>2018-07-12T10:30:24Z</time>
      </trkpt>
      <trkpt lat="45.97876" lon="4.7798">
        <ele>246</ele>
        <time>2018-07-12T10:30:25Z</time>
      </trkpt>
      <trkpt lat="45.9787" lon="4.77981">
        <ele>246</ele>
        <time>2018-07-12T10:30:26Z</time>
      </trkpt>
      <trkpt lat="45.97865" lon="4.77984">
        <ele>246</ele>
        <time>2018-07-12T10:30:27Z</time>
      </trkpt>
      <trkpt lat="45.9786" lon="4.77985">
        <ele>246</ele>
        <time>2018-07-12T10:30:28Z</time>
      </trkpt>
      <trkpt lat="45.97856" lon="4.77987">
        <ele>246</ele>
        <time>2018-07-12T10:30:29Z</time>
      </trkpt>
      <trkpt lat="45.9785" lon="4.77989">
        <ele>246</ele>
        <time>2018-07-12T10:30:30Z</time>
      </trkpt>
      <trkpt lat="45.97845" lon="4.77991">
        <ele>246</ele>
        <time>2018-07-12T10:30:31Z</time>
      </trkpt>
      <trkpt lat="45.9784" lon="4.77993">
        <ele>246</ele>
        <time>2018-07-12T10:30:32Z</time>
      </trkpt>
      <trkpt lat="45.97834" lon="4.77995">
        <ele>246</ele>
        <time>2018-07-12T10:30:33Z</time>
      </trkpt>
      <trkpt lat="45.9783" lon="4.77997">
        <ele>246</ele>
        <time>2018-07-12T10:30:34Z</time>
      </trkpt>
      <trkpt lat="45.97824" lon="4.77999">
        <ele>246</ele>
        <time>2018-07-12T10:30:35Z</time>
      </trkpt>
      <trkpt lat="45.97818" lon="4.78002">
        <ele>246</ele>
        <time>2018-07-12T10:30:36Z</time>
      </trkpt>
      <trkpt lat="45.97812" lon="4.78005">
        <ele>246</ele>
        <time>2018-07-12T10:30:37Z</time>
      </trkpt>
      <trkpt lat="45.97806" lon="4.78008">
        <ele>246</ele>
        <time>2018-07-12T10:30:38Z</time>
      </trkpt>
      <trkpt lat="45.978" lon="4.78011">
        <ele>246</ele>
        <time>2018-07-12T10:30:39Z</time>
      </trkpt>
      <trkpt lat="45.97795" lon="4.78012">
        <ele>246</ele>
        <time>2018-07-12T10:30:40Z</time>
      </trkpt>
      <trkpt lat="45.97789" lon="4.78013">
        <ele>246</ele>
        <time>2018-07-12T10:30:41Z</time>
      </trkpt>
      <trkpt lat="45.97783" lon="4.78016">
        <ele>246</ele>
        <time>2018-07-12T10:30:42Z</time>
      </trkpt>
      <trkpt lat="45.97777" lon="4.78019">
        <ele>246</ele>
        <time>2018-07-12T10:30:43Z</time>
      </trkpt>
      <trkpt lat="45.97771" lon="4.78021">
        <ele>246</ele>
        <time>2018-07-12T10:30:44Z</time>
      </trkpt>
      <trkpt lat="45.97765" lon="4.78025">
        <ele>246</ele>
        <time>2018-07-12T10:30:45Z</time>
      </trkpt>
      <trkpt lat="45.97757" lon="4.78024">
        <ele>246</ele>
        <time>2018-07-12T10:30:47Z</time>
      </trkpt>
      <trkpt lat="45.97752" lon="4.78027">
        <ele>246</ele>
        <time>2018-07-12T10:30:48Z</time>
      </trkpt>
      <trkpt lat="45.97743" lon="4.78029">
        <ele>247</ele>
        <time>2018-07-12T10:30:50Z</time>
      </trkpt>
      <trkpt lat="45.97736" lon="4.78033">
        <ele>247</ele>
        <time>2018-07-12T10:30:51Z</time>
      </trkpt>
      <trkpt lat="45.9773" lon="4.78034">
        <ele>247</ele>
        <time>2018-07-12T10:30:52Z</time>
      </trkpt>
      <trkpt lat="45.97722" lon="4.78039">
        <ele>247</ele>
        <time>2018-07-12T10:30:53Z</time>
      </trkpt>
      <trkpt lat="45.97714" lon="4.78047">
        <ele>247</ele>
        <time>2018-07-12T10:30:54Z</time>
      </trkpt>
      <trkpt lat="45.97709" lon="4.78048">
        <ele>247</ele>
        <time>2018-07-12T10:30:55Z</time>
      </trkpt>
      <trkpt lat="45.97703" lon="4.78051">
        <ele>247</ele>
        <time>2018-07-12T10:30:56Z</time>
      </trkpt>
      <trkpt lat="45.97698" lon="4.78054">
        <ele>247</ele>
        <time>2018-07-12T10:30:57Z</time>
      </trkpt>
      <trkpt lat="45.97692" lon="4.78056">
        <ele>247</ele>
        <time>2018-07-12T10:30:58Z</time>
      </trkpt>
      <trkpt lat="45.97687" lon="4.78059">
        <ele>247</ele>
        <time>2018-07-12T10:30:59Z</time>
      </trkpt>
      <trkpt lat="45.97682" lon="4.78061">
        <ele>248</ele>
        <time>2018-07-12T10:31:00Z</time>
      </trkpt>
      <trkpt lat="45.97678" lon="4.78062">
        <ele>248</ele>
        <time>2018-07-12T10:31:01Z</time>
      </trkpt>
      <trkpt lat="45.97672" lon="4.78064">
        <ele>248</ele>
        <time>2018-07-12T10:31:02Z</time>
      </trkpt>
      <trkpt lat="45.97667" lon="4.78068">
        <ele>248</ele>
        <time>2018-07-12T10:31:03Z</time>
      </trkpt>
      <trkpt lat="45.97662" lon="4.78071">
        <ele>248</ele>
        <time>2018-07-12T10:31:04Z</time>
      </trkpt>
      <trkpt lat="45.97657" lon="4.78073">
        <ele>248</ele>
        <time>2018-07-12T10:31:05Z</time>
      </trkpt>
      <trkpt lat="45.97653" lon="4.78075">
        <ele>247</ele>
        <time>2018-07-12T10:31:06Z</time>
      </trkpt>
      <trkpt lat="45.97649" lon="4.78078">
        <ele>247</ele>
        <time>2018-07-12T10:31:07Z</time>
      </trkpt>
      <trkpt lat="45.97645" lon="4.78081">
        <ele>247</ele>
        <time>2018-07-12T10:31:08Z</time>
      </trkpt>
      <trkpt lat="45.97641" lon="4.78084">
        <ele>247</ele>
        <time>2018-07-12T10:31:09Z</time>
      </trkpt>
      <trkpt lat="45.97637" lon="4.78088">
        <ele>247</ele>
        <time>2018-07-12T10:31:10Z</time>
      </trkpt>
      <trkpt lat="45.97637" lon="4.78095">
        <ele>247</ele>
        <time>2018-07-12T10:31:11Z</time>
      </trkpt>
      <trkpt lat="45.97633" lon="4.78101">
        <ele>247</ele>
        <time>2018-07-12T10:31:12Z</time>
      </trkpt>
      <trkpt lat="45.97628" lon="4.78111">
        <ele>246</ele>
        <time>2018-07-12T10:31:14Z</time>
      </trkpt>
      <trkpt lat="45.97623" lon="4.78116">
        <ele>246</ele>
        <time>2018-07-12T10:31:15Z</time>
      </trkpt>
      <trkpt lat="45.97618" lon="4.7812">
        <ele>246</ele>
        <time>2018-07-12T10:31:16Z</time>
      </trkpt>
      <trkpt lat="45.97614" lon="4.78127">
        <ele>246</ele>
        <time>2018-07-12T10:31:17Z</time>
      </trkpt>
      <trkpt lat="45.97609" lon="4.78132">
        <ele>245</ele>
        <time>2018-07-12T10:31:18Z</time>
      </trkpt>
      <trkpt lat="45.97604" lon="4.78135">
        <ele>245</ele>
        <time>2018-07-12T10:31:19Z</time>
      </trkpt>
      <trkpt lat="45.97601" lon="4.7814">
        <ele>245</ele>
        <time>2018-07-12T10:31:20Z</time>
      </trkpt>
      <trkpt lat="45.97597" lon="4.78144">
        <ele>245</ele>
        <time>2018-07-12T10:31:21Z</time>
      </trkpt>
      <trkpt lat="45.97592" lon="4.78149">
        <ele>244</ele>
        <time>2018-07-12T10:31:22Z</time>
      </trkpt>
      <trkpt lat="45.97586" lon="4.78156">
        <ele>243</ele>
        <time>2018-07-12T10:31:23Z</time>
      </trkpt>
      <trkpt lat="45.9758" lon="4.78162">
        <ele>242</ele>
        <time>2018-07-12T10:31:24Z</time>
      </trkpt>
      <trkpt lat="45.97573" lon="4.78168">
        <ele>241</ele>
        <time>2018-07-12T10:31:25Z</time>
      </trkpt>
      <trkpt lat="45.97566" lon="4.78175">
        <ele>240</ele>
        <time>2018-07-12T10:31:26Z</time>
      </trkpt>
      <trkpt lat="45.97559" lon="4.78184">
        <ele>239</ele>
        <time>2018-07-12T10:31:27Z</time>
      </trkpt>
      <trkpt lat="45.97549" lon="4.78196">
        <ele>239</ele>
        <time>2018-07-12T10:31:28Z</time>
      </trkpt>
      <trkpt lat="45.97541" lon="4.78205">
        <ele>239</ele>
        <time>2018-07-12T10:31:29Z</time>
      </trkpt>
      <trkpt lat="45.97534" lon="4.78219">
        <ele>238</ele>
        <time>2018-07-12T10:31:30Z</time>
      </trkpt>
      <trkpt lat="45.97525" lon="4.78227">
        <ele>238</ele>
        <time>2018-07-12T10:31:31Z</time>
      </trkpt>
      <trkpt lat="45.97516" lon="4.78236">
        <ele>237</ele>
        <time>2018-07-12T10:31:32Z</time>
      </trkpt>
      <trkpt lat="45.97507" lon="4.78245">
        <ele>237</ele>
        <time>2018-07-12T10:31:33Z</time>
      </trkpt>
      <trkpt lat="45.97499" lon="4.78254">
        <ele>236</ele>
        <time>2018-07-12T10:31:34Z</time>
      </trkpt>
      <trkpt lat="45.97489" lon="4.78263">
        <ele>235</ele>
        <time>2018-07-12T10:31:35Z</time>
      </trkpt>
      <trkpt lat="45.97481" lon="4.78271">
        <ele>235</ele>
        <time>2018-07-12T10:31:36Z</time>
      </trkpt>
      <trkpt lat="45.97473" lon="4.78281">
        <ele>235</ele>
        <time>2018-07-12T10:31:37Z</time>
      </trkpt>
      <trkpt lat="45.97468" lon="4.78289">
        <ele>234</ele>
        <time>2018-07-12T10:31:38Z</time>
      </trkpt>
      <trkpt lat="45.9746" lon="4.78298">
        <ele>234</ele>
        <time>2018-07-12T10:31:39Z</time>
      </trkpt>
      <trkpt lat="45.97452" lon="4.78306">
        <ele>234</ele>
        <time>2018-07-12T10:31:40Z</time>
      </trkpt>
      <trkpt lat="45.97444" lon="4.78314">
        <ele>234</ele>
        <time>2018-07-12T10:31:41Z</time>
      </trkpt>
      <trkpt lat="45.97436" lon="4.78323">
        <ele>234</ele>
        <time>2018-07-12T10:31:42Z</time>
      </trkpt>
      <trkpt lat="45.97429" lon="4.78331">
        <ele>233</ele>
        <time>2018-07-12T10:31:43Z</time>
      </trkpt>
      <trkpt lat="45.97424" lon="4.78337">
        <ele>233</ele>
        <time>2018-07-12T10:31:44Z</time>
      </trkpt>
      <trkpt lat="45.97417" lon="4.78343">
        <ele>233</ele>
        <time>2018-07-12T10:31:45Z</time>
      </trkpt>
      <trkpt lat="45.97411" lon="4.7835">
        <ele>233</ele>
        <time>2018-07-12T10:31:46Z</time>
      </trkpt>
      <trkpt lat="45.97406" lon="4.78357">
        <ele>233</ele>
        <time>2018-07-12T10:31:47Z</time>
      </trkpt>
      <trkpt lat="45.97401" lon="4.78363">
        <ele>233</ele>
        <time>2018-07-12T10:31:48Z</time>
      </trkpt>
      <trkpt lat="45.97395" lon="4.78368">
        <ele>233</ele>
        <time>2018-07-12T10:31:49Z</time>
      </trkpt>
      <trkpt lat="45.9739" lon="4.78374">
        <ele>233</ele>
        <time>2018-07-12T10:31:50Z</time>
      </trkpt>
      <trkpt lat="45.97385" lon="4.78379">
        <ele>233</ele>
        <time>2018-07-12T10:31:51Z</time>
      </trkpt>
      <trkpt lat="45.97381" lon="4.78384">
        <ele>233</ele>
        <time>2018-07-12T10:31:52Z</time>
      </trkpt>
      <trkpt lat="45.97377" lon="4.78388">
        <ele>233</ele>
        <time>2018-07-12T10:31:53Z</time>
      </trkpt>
      <trkpt lat="45.97372" lon="4.78391">
        <ele>233</ele>
        <time>2018-07-12T10:31:54Z</time>
      </trkpt>
      <trkpt lat="45.97368" lon="4.78395">
        <ele>233</ele>
        <time>2018-07-12T10:31:55Z</time>
      </trkpt>
      <trkpt lat="45.97364" lon="4.78398">
        <ele>233</ele>
        <time>2018-07-12T10:31:56Z</time>
      </trkpt>
      <trkpt lat="45.97358" lon="4.78403">
        <ele>233</ele>
        <time>2018-07-12T10:31:58Z</time>
      </trkpt>
      <trkpt lat="45.97355" lon="4.78406">
        <ele>232</ele>
        <time>2018-07-12T10:31:59Z</time>
      </trkpt>
      <trkpt lat="45.97348" lon="4.78404">
        <ele>232</ele>
        <time>2018-07-12T10:32:00Z</time>
      </trkpt>
      <trkpt lat="45.97343" lon="4.784">
        <ele>232</ele>
        <time>2018-07-12T10:32:01Z</time>
      </trkpt>
      <trkpt lat="45.97338" lon="4.78394">
        <ele>232</ele>
        <time>2018-07-12T10:32:02Z</time>
      </trkpt>
      <trkpt lat="45.97333" lon="4.78389">
        <ele>233</ele>
        <time>2018-07-12T10:32:03Z</time>
      </trkpt>
      <trkpt lat="45.9733" lon="4.78383">
        <ele>232</ele>
        <time>2018-07-12T10:32:04Z</time>
      </trkpt>
      <trkpt lat="45.97326" lon="4.78377">
        <ele>232</ele>
        <time>2018-07-12T10:32:05Z</time>
      </trkpt>
      <trkpt lat="45.97322" lon="4.78373">
        <ele>232</ele>
        <time>2018-07-12T10:32:06Z</time>
      </trkpt>
      <trkpt lat="45.97318" lon="4.78369">
        <ele>232</ele>
        <time>2018-07-12T10:32:07Z</time>
      </trkpt>
      <trkpt lat="45.97315" lon="4.78364">
        <ele>232</ele>
        <time>2018-07-12T10:32:08Z</time>
      </trkpt>
      <trkpt lat="45.9731" lon="4.7836">
        <ele>232</ele>
        <time>2018-07-12T10:32:09Z</time>
      </trkpt>
      <trkpt lat="45.97306" lon="4.78355">
        <ele>232</ele>
        <time>2018-07-12T10:32:10Z</time>
      </trkpt>
      <trkpt lat="45.97301" lon="4.78349">
        <ele>232</ele>
        <time>2018-07-12T10:32:11Z</time>
      </trkpt>
      <trkpt lat="45.97298" lon="4.78344">
        <ele>232</ele>
        <time>2018-07-12T10:32:12Z</time>
      </trkpt>
      <trkpt lat="45.97294" lon="4.78339">
        <ele>232</ele>
        <time>2018-07-12T10:32:13Z</time>
      </trkpt>
      <trkpt lat="45.9729" lon="4.78333">
        <ele>232</ele>
        <time>2018-07-12T10:32:14Z</time>
      </trkpt>
      <trkpt lat="45.97286" lon="4.78327">
        <ele>232</ele>
        <time>2018-07-12T10:32:15Z</time>
      </trkpt>
      <trkpt lat="45.97283" lon="4.78322">
        <ele>232</ele>
        <time>2018-07-12T10:32:16Z</time>
      </trkpt>
      <trkpt lat="45.9728" lon="4.78317">
        <ele>232</ele>
        <time>2018-07-12T10:32:17Z</time>
      </trkpt>
      <trkpt lat="45.97275" lon="4.78311">
        <ele>232</ele>
        <time>2018-07-12T10:32:18Z</time>
      </trkpt>
      <trkpt lat="45.97269" lon="4.78304">
        <ele>232</ele>
        <time>2018-07-12T10:32:19Z</time>
      </trkpt>
      <trkpt lat="45.97265" lon="4.78298">
        <ele>232</ele>
        <time>2018-07-12T10:32:20Z</time>
      </trkpt>
      <trkpt lat="45.97259" lon="4.78291">
        <ele>232</ele>
        <time>2018-07-12T10:32:21Z</time>
      </trkpt>
      <trkpt lat="45.97254" lon="4.78283">
        <ele>232</ele>
        <time>2018-07-12T10:32:22Z</time>
      </trkpt>
      <trkpt lat="45.9725" lon="4.78276">
        <ele>231</ele>
        <time>2018-07-12T10:32:23Z</time>
      </trkpt>
      <trkpt lat="45.97247" lon="4.78271">
        <ele>231</ele>
        <time>2018-07-12T10:32:24Z</time>
      </trkpt>
      <trkpt lat="45.97243" lon="4.78263">
        <ele>231</ele>
        <time>2018-07-12T10:32:25Z</time>
      </trkpt>
      <trkpt lat="45.97239" lon="4.78256">
        <ele>231</ele>
        <time>2018-07-12T10:32:26Z</time>
      </trkpt>
      <trkpt lat="45.97234" lon="4.7825">
        <ele>231</ele>
        <time>2018-07-12T10:32:27Z</time>
      </trkpt>
      <trkpt lat="45.9723" lon="4.78245">
        <ele>231</ele>
        <time>2018-07-12T10:32:28Z</time>
      </trkpt>
      <trkpt lat="45.97225" lon="4.78243">
        <ele>231</ele>
        <time>2018-07-12T10:32:29Z</time>
      </trkpt>
      <trkpt lat="45.97219" lon="4.78243">
        <ele>231</ele>
        <time>2018-07-12T10:32:30Z</time>
      </trkpt>
      <trkpt lat="45.97214" lon="4.78246">
        <ele>231</ele>
        <time>2018-07-12T10:32:31Z</time>
      </trkpt>
      <trkpt lat="45.97209" lon="4.7825">
        <ele>231</ele>
        <time>2018-07-12T10:32:32Z</time>
      </trkpt>
      <trkpt lat="45.97204" lon="4.78253">
        <ele>230</ele>
        <time>2018-07-12T10:32:33Z</time>
      </trkpt>
      <trkpt lat="45.972" lon="4.78257">
        <ele>230</ele>
        <time>2018-07-12T10:32:34Z</time>
      </trkpt>
      <trkpt lat="45.97195" lon="4.78262">
        <ele>230</ele>
        <time>2018-07-12T10:32:35Z</time>
      </trkpt>
      <trkpt lat="45.9719" lon="4.78266">
        <ele>230</ele>
        <time>2018-07-12T10:32:36Z</time>
      </trkpt>
      <trkpt lat="45.97185" lon="4.78269">
        <ele>230</ele>
        <time>2018-07-12T10:32:37Z</time>
      </trkpt>
      <trkpt lat="45.97179" lon="4.78274">
        <ele>230</ele>
        <time>2018-07-12T10:32:38Z</time>
      </trkpt>
      <trkpt lat="45.97174" lon="4.78278">
        <ele>230</ele>
        <time>2018-07-12T10:32:39Z</time>
      </trkpt>
      <trkpt lat="45.97169" lon="4.78283">
        <ele>230</ele>
        <time>2018-07-12T10:32:40Z</time>
      </trkpt>
      <trkpt lat="45.97163" lon="4.78289">
        <ele>230</ele>
        <time>2018-07-12T10:32:41Z</time>
      </trkpt>
      <trkpt lat="45.97158" lon="4.78293">
        <ele>230</ele>
        <time>2018-07-12T10:32:42Z</time>
      </trkpt>
      <trkpt lat="45.97152" lon="4.78296">
        <ele>230</ele>
        <time>2018-07-12T10:32:43Z</time>
      </trkpt>
      <trkpt lat="45.97147" lon="4.78301">
        <ele>230</ele>
        <time>2018-07-12T10:32:44Z</time>
      </trkpt>
      <trkpt lat="45.97141" lon="4.78304">
        <ele>230</ele>
        <time>2018-07-12T10:32:45Z</time>
      </trkpt>
      <trkpt lat="45.97137" lon="4.78308">
        <ele>230</ele>
        <time>2018-07-12T10:32:46Z</time>
      </trkpt>
      <trkpt lat="45.97132" lon="4.78312">
        <ele>230</ele>
        <time>2018-07-12T10:32:47Z</time>
      </trkpt>
      <trkpt lat="45.97126" lon="4.78315">
        <ele>230</ele>
        <time>2018-07-12T10:32:48Z</time>
      </trkpt>
      <trkpt lat="45.9712" lon="4.78319">
        <ele>231</ele>
        <time>2018-07-12T10:32:49Z</time>
      </trkpt>
      <trkpt lat="45.97114" lon="4.78327">
        <ele>231</ele>
        <time>2018-07-12T10:32:50Z</time>
      </trkpt>
      <trkpt lat="45.97109" lon="4.78331">
        <ele>231</ele>
        <time>2018-07-12T10:32:51Z</time>
      </trkpt>
      <trkpt lat="45.97102" lon="4.78335">
        <ele>231</ele>
        <time>2018-07-12T10:32:52Z</time>
      </trkpt>
      <trkpt lat="45.97097" lon="4.7834">
        <ele>231</ele>
        <time>2018-07-12T10:32:53Z</time>
      </trkpt>
      <trkpt lat="45.9709" lon="4.78343">
        <ele>231</ele>
        <time>2018-07-12T10:32:54Z</time>
      </trkpt>
      <trkpt lat="45.97084" lon="4.78348">
        <ele>231</ele>
        <time>2018-07-12T10:32:55Z</time>
      </trkpt>
      <trkpt lat="45.97081" lon="4.78351">
        <ele>230</ele>
        <time>2018-07-12T10:32:56Z</time>
      </trkpt>
      <trkpt lat="45.97075" lon="4.78355">
        <ele>230</ele>
        <time>2018-07-12T10:32:57Z</time>
      </trkpt>
      <trkpt lat="45.9707" lon="4.78359">
        <ele>230</ele>
        <time>2018-07-12T10:32:58Z</time>
      </trkpt>
      <trkpt lat="45.97064" lon="4.78364">
        <ele>230</ele>
        <time>2018-07-12T10:32:59Z</time>
      </trkpt>
      <trkpt lat="45.97058" lon="4.78368">
        <ele>230</ele>
        <time>2018-07-12T10:33:00Z</time>
      </trkpt>
      <trkpt lat="45.97051" lon="4.78375">
        <ele>229</ele>
        <time>2018-07-12T10:33:01Z</time>
      </trkpt>
      <trkpt lat="45.97049" lon="4.78379">
        <ele>229</ele>
        <time>2018-07-12T10:33:02Z</time>
      </trkpt>
      <trkpt lat="45.97043" lon="4.78384">
        <ele>229</ele>
        <time>2018-07-12T10:33:03Z</time>
      </trkpt>
      <trkpt lat="45.9704" lon="4.7839">
        <ele>229</ele>
        <time>2018-07-12T10:33:04Z</time>
      </trkpt>
      <trkpt lat="45.97034" lon="4.78396">
        <ele>229</ele>
        <time>2018-07-12T10:33:05Z</time>
      </trkpt>
      <trkpt lat="45.97028" lon="4.78403">
        <ele>229</ele>
        <time>2018-07-12T10:33:06Z</time>
      </trkpt>
      <trkpt lat="45.97021" lon="4.78408">
        <ele>228</ele>
        <time>2018-07-12T10:33:07Z</time>
      </trkpt>
      <trkpt lat="45.97015" lon="4.78413">
        <ele>228</ele>
        <time>2018-07-12T10:33:08Z</time>
      </trkpt>
      <trkpt lat="45.97008" lon="4.78417">
        <ele>227</ele>
        <time>2018-07-12T10:33:09Z</time>
      </trkpt>
      <trkpt lat="45.97001" lon="4.78423">
        <ele>227</ele>
        <time>2018-07-12T10:33:10Z</time>
      </trkpt>
      <trkpt lat="45.96994" lon="4.78427">
        <ele>225</ele>
        <time>2018-07-12T10:33:11Z</time>
      </trkpt>
      <trkpt lat="45.96986" lon="4.78428">
        <ele>225</ele>
        <time>2018-07-12T10:33:12Z</time>
      </trkpt>
      <trkpt lat="45.96978" lon="4.78429">
        <ele>224</ele>
        <time>2018-07-12T10:33:13Z</time>
      </trkpt>
      <trkpt lat="45.9697" lon="4.78429">
        <ele>223</ele>
        <time>2018-07-12T10:33:14Z</time>
      </trkpt>
      <trkpt lat="45.96963" lon="4.7843">
        <ele>223</ele>
        <time>2018-07-12T10:33:15Z</time>
      </trkpt>
      <trkpt lat="45.96954" lon="4.78431">
        <ele>222</ele>
        <time>2018-07-12T10:33:16Z</time>
      </trkpt>
      <trkpt lat="45.96947" lon="4.78432">
        <ele>222</ele>
        <time>2018-07-12T10:33:17Z</time>
      </trkpt>
      <trkpt lat="45.9694" lon="4.78436">
        <ele>222</ele>
        <time>2018-07-12T10:33:18Z</time>
      </trkpt>
      <trkpt lat="45.96933" lon="4.78439">
        <ele>221</ele>
        <time>2018-07-12T10:33:19Z</time>
      </trkpt>
      <trkpt lat="45.96929" lon="4.78446">
        <ele>221</ele>
        <time>2018-07-12T10:33:20Z</time>
      </trkpt>
      <trkpt lat="45.96923" lon="4.78454">
        <ele>221</ele>
        <time>2018-07-12T10:33:21Z</time>
      </trkpt>
      <trkpt lat="45.96917" lon="4.78463">
        <ele>220</ele>
        <time>2018-07-12T10:33:22Z</time>
      </trkpt>
      <trkpt lat="45.9691" lon="4.78471">
        <ele>214</ele>
        <time>2018-07-12T10:33:23Z</time>
      </trkpt>
      <trkpt lat="45.96907" lon="4.7848">
        <ele>214</ele>
        <time>2018-07-12T10:33:24Z</time>
      </trkpt>
      <trkpt lat="45.969" lon="4.78489">
        <ele>213</ele>
        <time>2018-07-12T10:33:25Z</time>
      </trkpt>
      <trkpt lat="45.96894" lon="4.78497">
        <ele>213</ele>
        <time>2018-07-12T10:33:26Z</time>
      </trkpt>
      <trkpt lat="45.96887" lon="4.78505">
        <ele>209</ele>
        <time>2018-07-12T10:33:27Z</time>
      </trkpt>
      <trkpt lat="45.96881" lon="4.78513">
        <ele>209</ele>
        <time>2018-07-12T10:33:28Z</time>
      </trkpt>
      <trkpt lat="45.96875" lon="4.78521">
        <ele>208</ele>
        <time>2018-07-12T10:33:29Z</time>
      </trkpt>
      <trkpt lat="45.96869" lon="4.78528">
        <ele>208</ele>
        <time>2018-07-12T10:33:30Z</time>
      </trkpt>
      <trkpt lat="45.96864" lon="4.78535">
        <ele>207</ele>
        <time>2018-07-12T10:33:31Z</time>
      </trkpt>
      <trkpt lat="45.96858" lon="4.78539">
        <ele>207</ele>
        <time>2018-07-12T10:33:32Z</time>
      </trkpt>
      <trkpt lat="45.96852" lon="4.78545">
        <ele>207</ele>
        <time>2018-07-12T10:33:33Z</time>
      </trkpt>
      <trkpt lat="45.96848" lon="4.7855">
        <ele>206</ele>
        <time>2018-07-12T10:33:34Z</time>
      </trkpt>
      <trkpt lat="45.96844" lon="4.78555">
        <ele>206</ele>
        <time>2018-07-12T10:33:35Z</time>
      </trkpt>
      <trkpt lat="45.96838" lon="4.78558">
        <ele>206</ele>
        <time>2018-07-12T10:33:37Z</time>
      </trkpt>
      <trkpt lat="45.96833" lon="4.78563">
        <ele>205</ele>
        <time>2018-07-12T10:33:38Z</time>
      </trkpt>
      <trkpt lat="45.96826" lon="4.78569">
        <ele>203</ele>
        <time>2018-07-12T10:33:40Z</time>
      </trkpt>
      <trkpt lat="45.96823" lon="4.78571">
        <ele>203</ele>
        <time>2018-07-12T10:33:41Z</time>
      </trkpt>
      <trkpt lat="45.96819" lon="4.78572">
        <ele>203</ele>
        <time>2018-07-12T10:33:42Z</time>
      </trkpt>
      <trkpt lat="45.96813" lon="4.78568">
        <ele>203</ele>
        <time>2018-07-12T10:33:43Z</time>
      </trkpt>
      <trkpt lat="45.96807" lon="4.7856">
        <ele>203</ele>
        <time>2018-07-12T10:33:45Z</time>
      </trkpt>
      <trkpt lat="45.96803" lon="4.78554">
        <ele>203</ele>
        <time>2018-07-12T10:33:46Z</time>
      </trkpt>
      <trkpt lat="45.96799" lon="4.78548">
        <ele>203</ele>
        <time>2018-07-12T10:33:47Z</time>
      </trkpt>
      <trkpt lat="45.96795" lon="4.78541">
        <ele>203</ele>
        <time>2018-07-12T10:33:48Z</time>
      </trkpt>
      <trkpt lat="45.96791" lon="4.78535">
        <ele>203</ele>
        <time>2018-07-12T10:33:49Z</time>
      </trkpt>
      <trkpt lat="45.96788" lon="4.78529">
        <ele>203</ele>
        <time>2018-07-12T10:33:50Z</time>
      </trkpt>
      <trkpt lat="45.96781" lon="4.78521">
        <ele>203</ele>
        <time>2018-07-12T10:33:51Z</time>
      </trkpt>
      <trkpt lat="45.96777" lon="4.78514">
        <ele>203</ele>
        <time>2018-07-12T10:33:52Z</time>
      </trkpt>
      <trkpt lat="45.96771" lon="4.78507">
        <ele>203</ele>
        <time>2018-07-12T10:33:53Z</time>
      </trkpt>
      <trkpt lat="45.96768" lon="4.78501">
        <ele>203</ele>
        <time>2018-07-12T10:33:54Z</time>
      </trkpt>
      <trkpt lat="45.96763" lon="4.78496">
        <ele>204</ele>
        <time>2018-07-12T10:33:55Z</time>
      </trkpt>
      <trkpt lat="45.96758" lon="4.78491">
        <ele>204</ele>
        <time>2018-07-12T10:33:56Z</time>
      </trkpt>
      <trkpt lat="45.96754" lon="4.78486">
        <ele>204</ele>
        <time>2018-07-12T10:33:57Z</time>
      </trkpt>
      <trkpt lat="45.96749" lon="4.7848">
        <ele>203</ele>
        <time>2018-07-12T10:33:58Z</time>
      </trkpt>
      <trkpt lat="45.96745" lon="4.78475">
        <ele>203</ele>
        <time>2018-07-12T10:33:59Z</time>
      </trkpt>
      <trkpt lat="45.96741" lon="4.7847">
        <ele>203</ele>
        <time>2018-07-12T10:34:00Z</time>
      </trkpt>
      <trkpt lat="45.96736" lon="4.78467">
        <ele>203</ele>
        <time>2018-07-12T10:34:01Z</time>
      </trkpt>
      <trkpt lat="45.96731" lon="4.78462">
        <ele>203</ele>
        <time>2018-07-12T10:34:02Z</time>
      </trkpt>
      <trkpt lat="45.96726" lon="4.78458">
        <ele>203</ele>
        <time>2018-07-12T10:34:03Z</time>
      </trkpt>
      <trkpt lat="45.9672" lon="4.78455">
        <ele>203</ele>
        <time>2018-07-12T10:34:04Z</time>
      </trkpt>
      <trkpt lat="45.96715" lon="4.78451">
        <ele>203</ele>
        <time>2018-07-12T10:34:05Z</time>
      </trkpt>
      <trkpt lat="45.96709" lon="4.78447">
        <ele>203</ele>
        <time>2018-07-12T10:34:06Z</time>
      </trkpt>
      <trkpt lat="45.96706" lon="4.78441">
        <ele>203</ele>
        <time>2018-07-12T10:34:07Z</time>
      </trkpt>
      <trkpt lat="45.96701" lon="4.78436">
        <ele>203</ele>
        <time>2018-07-12T10:34:08Z</time>
      </trkpt>
      <trkpt lat="45.96698" lon="4.7843">
        <ele>203</ele>
        <time>2018-07-12T10:34:09Z</time>
      </trkpt>
      <trkpt lat="45.96693" lon="4.78426">
        <ele>202</ele>
        <time>2018-07-12T10:34:10Z</time>
      </trkpt>
      <trkpt lat="45.9669" lon="4.78422">
        <ele>202</ele>
        <time>2018-07-12T10:34:11Z</time>
      </trkpt>
      <trkpt lat="45.96686" lon="4.78417">
        <ele>202</ele>
        <time>2018-07-12T10:34:12Z</time>
      </trkpt>
      <trkpt lat="45.96681" lon="4.78413">
        <ele>203</ele>
        <time>2018-07-12T10:34:13Z</time>
      </trkpt>
      <trkpt lat="45.96677" lon="4.78408">
        <ele>203</ele>
        <time>2018-07-12T10:34:14Z</time>
      </trkpt>
      <trkpt lat="45.96673" lon="4.78402">
        <ele>204</ele>
        <time>2018-07-12T10:34:15Z</time>
      </trkpt>
      <trkpt lat="45.96669" lon="4.78397">
        <ele>204</ele>
        <time>2018-07-12T10:34:16Z</time>
      </trkpt>
      <trkpt lat="45.96664" lon="4.78392">
        <ele>201</ele>
        <time>2018-07-12T10:34:17Z</time>
      </trkpt>
      <trkpt lat="45.9666" lon="4.78385">
        <ele>201</ele>
        <time>2018-07-12T10:34:18Z</time>
      </trkpt>
      <trkpt lat="45.96655" lon="4.78381">
        <ele>201</ele>
        <time>2018-07-12T10:34:19Z</time>
      </trkpt>
      <trkpt lat="45.96651" lon="4.78375">
        <ele>202</ele>
        <time>2018-07-12T10:34:20Z</time>
      </trkpt>
      <trkpt lat="45.96646" lon="4.7837">
        <ele>202</ele>
        <time>2018-07-12T10:34:21Z</time>
      </trkpt>
      <trkpt lat="45.96638" lon="4.78366">
        <ele>201</ele>
        <time>2018-07-12T10:34:22Z</time>
      </trkpt>
      <trkpt lat="45.96632" lon="4.78361">
        <ele>201</ele>
        <time>2018-07-12T10:34:23Z</time>
      </trkpt>
      <trkpt lat="45.96627" lon="4.78357">
        <ele>201</ele>
        <time>2018-07-12T10:34:24Z</time>
      </trkpt>
      <trkpt lat="45.96623" lon="4.78353">
        <ele>201</ele>
        <time>2018-07-12T10:34:25Z</time>
      </trkpt>
      <trkpt lat="45.96618" lon="4.78349">
        <ele>201</ele>
        <time>2018-07-12T10:34:26Z</time>
      </trkpt>
      <trkpt lat="45.96613" lon="4.78345">
        <ele>200</ele>
        <time>2018-07-12T10:34:27Z</time>
      </trkpt>
      <trkpt lat="45.96608" lon="4.78339">
        <ele>200</ele>
        <time>2018-07-12T10:34:28Z</time>
      </trkpt>
      <trkpt lat="45.96603" lon="4.78335">
        <ele>200</ele>
        <time>2018-07-12T10:34:29Z</time>
      </trkpt>
      <trkpt lat="45.96597" lon="4.78331">
        <ele>202</ele>
        <time>2018-07-12T10:34:30Z</time>
      </trkpt>
      <trkpt lat="45.96592" lon="4.78325">
        <ele>201</ele>
        <time>2018-07-12T10:34:31Z</time>
      </trkpt>
      <trkpt lat="45.96586" lon="4.7832">
        <ele>202</ele>
        <time>2018-07-12T10:34:32Z</time>
      </trkpt>
      <trkpt lat="45.96582" lon="4.78315">
        <ele>199</ele>
        <time>2018-07-12T10:34:33Z</time>
      </trkpt>
      <trkpt lat="45.96577" lon="4.7831">
        <ele>199</ele>
        <time>2018-07-12T10:34:34Z</time>
      </trkpt>
      <trkpt lat="45.96572" lon="4.78306">
        <ele>200</ele>
        <time>2018-07-12T10:34:35Z</time>
      </trkpt>
      <trkpt lat="45.96567" lon="4.783">
        <ele>200</ele>
        <time>2018-07-12T10:34:36Z</time>
      </trkpt>
      <trkpt lat="45.96562" lon="4.78295">
        <ele>200</ele>
        <time>2018-07-12T10:34:37Z</time>
      </trkpt>
      <trkpt lat="45.96557" lon="4.78289">
        <ele>200</ele>
        <time>2018-07-12T10:34:38Z</time>
      </trkpt>
      <trkpt lat="45.96552" lon="4.78284">
        <ele>200</ele>
        <time>2018-07-12T10:34:39Z</time>
      </trkpt>
      <trkpt lat="45.96548" lon="4.78277">
        <ele>200</ele>
        <time>2018-07-12T10:34:40Z</time>
      </trkpt>
      <trkpt lat="45.96544" lon="4.78271">
        <ele>200</ele>
        <time>2018-07-12T10:34:41Z</time>
      </trkpt>
      <trkpt lat="45.96541" lon="4.78266">
        <ele>200</ele>
        <time>2018-07-12T10:34:42Z</time>
      </trkpt>
      <trkpt lat="45.96537" lon="4.78261">
        <ele>200</ele>
        <time>2018-07-12T10:34:43Z</time>
      </trkpt>
      <trkpt lat="45.96533" lon="4.78254">
        <ele>200</ele>
        <time>2018-07-12T10:34:44Z</time>
      </trkpt>
      <trkpt lat="45.96531" lon="4.78248">
        <ele>204</ele>
        <time>2018-07-12T10:34:45Z</time>
      </trkpt>
      <trkpt lat="45.96527" lon="4.78241">
        <ele>204</ele>
        <time>2018-07-12T10:34:46Z</time>
      </trkpt>
      <trkpt lat="45.96521" lon="4.78234">
        <ele>204</ele>
        <time>2018-07-12T10:34:47Z</time>
      </trkpt>
      <trkpt lat="45.96518" lon="4.78227">
        <ele>204</ele>
        <time>2018-07-12T10:34:48Z</time>
      </trkpt>
      <trkpt lat="45.96513" lon="4.7822">
        <ele>204</ele>
        <time>2018-07-12T10:34:49Z</time>
      </trkpt>
      <trkpt lat="45.96509" lon="4.78212">
        <ele>205</ele>
        <time>2018-07-12T10:34:50Z</time>
      </trkpt>
      <trkpt lat="45.96505" lon="4.78205">
        <ele>205</ele>
        <time>2018-07-12T10:34:51Z</time>
      </trkpt>
      <trkpt lat="45.96499" lon="4.782">
        <ele>200</ele>
        <time>2018-07-12T10:34:52Z</time>
      </trkpt>
      <trkpt lat="45.96492" lon="4.78196">
        <ele>201</ele>
        <time>2018-07-12T10:34:53Z</time>
      </trkpt>
      <trkpt lat="45.96487" lon="4.78193">
        <ele>201</ele>
        <time>2018-07-12T10:34:54Z</time>
      </trkpt>
      <trkpt lat="45.96482" lon="4.7819">
        <ele>201</ele>
        <time>2018-07-12T10:34:55Z</time>
      </trkpt>
      <trkpt lat="45.96476" lon="4.78187">
        <ele>201</ele>
        <time>2018-07-12T10:34:56Z</time>
      </trkpt>
      <trkpt lat="45.96471" lon="4.78184">
        <ele>200</ele>
        <time>2018-07-12T10:34:57Z</time>
      </trkpt>
      <trkpt lat="45.96466" lon="4.7818">
        <ele>200</ele>
        <time>2018-07-12T10:34:58Z</time>
      </trkpt>
      <trkpt lat="45.96461" lon="4.78176">
        <ele>200</ele>
        <time>2018-07-12T10:34:59Z</time>
      </trkpt>
      <trkpt lat="45.96455" lon="4.78171">
        <ele>200</ele>
        <time>2018-07-12T10:35:00Z</time>
      </trkpt>
      <trkpt lat="45.96451" lon="4.78166">
        <ele>204</ele>
        <time>2018-07-12T10:35:01Z</time>
      </trkpt>
      <trkpt lat="45.96447" lon="4.78161">
        <ele>203</ele>
        <time>2018-07-12T10:35:02Z</time>
      </trkpt>
      <trkpt lat="45.96442" lon="4.78158">
        <ele>203</ele>
        <time>2018-07-12T10:35:03Z</time>
      </trkpt>
      <trkpt lat="45.96437" lon="4.78154">
        <ele>203</ele>
        <time>2018-07-12T10:35:04Z</time>
      </trkpt>
      <trkpt lat="45.96431" lon="4.7815">
        <ele>202</ele>
        <time>2018-07-12T10:35:05Z</time>
      </trkpt>
      <trkpt lat="45.96426" lon="4.78144">
        <ele>203</ele>
        <time>2018-07-12T10:35:06Z</time>
      </trkpt>
      <trkpt lat="45.96419" lon="4.7814">
        <ele>203</ele>
        <time>2018-07-12T10:35:07Z</time>
      </trkpt>
      <trkpt lat="45.96414" lon="4.78136">
        <ele>199</ele>
        <time>2018-07-12T10:35:08Z</time>
      </trkpt>
      <trkpt lat="45.96408" lon="4.78131">
        <ele>199</ele>
        <time>2018-07-12T10:35:09Z</time>
      </trkpt>
      <trkpt lat="45.96401" lon="4.78127">
        <ele>199</ele>
        <time>2018-07-12T10:35:10Z</time>
      </trkpt>
      <trkpt lat="45.96397" lon="4.78123">
        <ele>200</ele>
        <time>2018-07-12T10:35:11Z</time>
      </trkpt>
      <trkpt lat="45.96392" lon="4.78119">
        <ele>200</ele>
        <time>2018-07-12T10:35:12Z</time>
      </trkpt>
      <trkpt lat="45.96387" lon="4.78109">
        <ele>200</ele>
        <time>2018-07-12T10:35:14Z</time>
      </trkpt>
      <trkpt lat="45.96383" lon="4.78105">
        <ele>200</ele>
        <time>2018-07-12T10:35:15Z</time>
      </trkpt>
      <trkpt lat="45.96379" lon="4.781">
        <ele>200</ele>
        <time>2018-07-12T10:35:16Z</time>
      </trkpt>
      <trkpt lat="45.96374" lon="4.78097">
        <ele>200</ele>
        <time>2018-07-12T10:35:17Z</time>
      </trkpt>
      <trkpt lat="45.96373" lon="4.7809">
        <ele>200</ele>
        <time>2018-07-12T10:35:18Z</time>
      </trkpt>
      <trkpt lat="45.96367" lon="4.78086">
        <ele>199</ele>
        <time>2018-07-12T10:35:19Z</time>
      </trkpt>
      <trkpt lat="45.96361" lon="4.78081">
        <ele>202</ele>
        <time>2018-07-12T10:35:20Z</time>
      </trkpt>
      <trkpt lat="45.96356" lon="4.78076">
        <ele>202</ele>
        <time>2018-07-12T10:35:21Z</time>
      </trkpt>
      <trkpt lat="45.96349" lon="4.78071">
        <ele>201</ele>
        <time>2018-07-12T10:35:22Z</time>
      </trkpt>
      <trkpt lat="45.96343" lon="4.78065">
        <ele>201</ele>
        <time>2018-07-12T10:35:23Z</time>
      </trkpt>
      <trkpt lat="45.96339" lon="4.78058">
        <ele>202</ele>
        <time>2018-07-12T10:35:24Z</time>
      </trkpt>
      <trkpt lat="45.96333" lon="4.78052">
        <ele>199</ele>
        <time>2018-07-12T10:35:25Z</time>
      </trkpt>
      <trkpt lat="45.96327" lon="4.78046">
        <ele>199</ele>
        <time>2018-07-12T10:35:26Z</time>
      </trkpt>
      <trkpt lat="45.96321" lon="4.78039">
        <ele>199</ele>
        <time>2018-07-12T10:35:27Z</time>
      </trkpt>
      <trkpt lat="45.96319" lon="4.78033">
        <ele>200</ele>
        <time>2018-07-12T10:35:28Z</time>
      </trkpt>
      <trkpt lat="45.96314" lon="4.78025">
        <ele>200</ele>
        <time>2018-07-12T10:35:29Z</time>
      </trkpt>
      <trkpt lat="45.96309" lon="4.78019">
        <ele>200</ele>
        <time>2018-07-12T10:35:30Z</time>
      </trkpt>
      <trkpt lat="45.96304" lon="4.78013">
        <ele>200</ele>
        <time>2018-07-12T10:35:31Z</time>
      </trkpt>
      <trkpt lat="45.96297" lon="4.78008">
        <ele>199</ele>
        <time>2018-07-12T10:35:32Z</time>
      </trkpt>
      <trkpt lat="45.96292" lon="4.78002">
        <ele>199</ele>
        <time>2018-07-12T10:35:33Z</time>
      </trkpt>
      <trkpt lat="45.96287" lon="4.77997">
        <ele>204</ele>
        <time>2018-07-12T10:35:34Z</time>
      </trkpt>
      <trkpt lat="45.96283" lon="4.77993">
        <ele>203</ele>
        <time>2018-07-12T10:35:35Z</time>
      </trkpt>
      <trkpt lat="45.96278" lon="4.77988">
        <ele>203</ele>
        <time>2018-07-12T10:35:36Z</time>
      </trkpt>
      <trkpt lat="45.96274" lon="4.77984">
        <ele>203</ele>
        <time>2018-07-12T10:35:37Z</time>
      </trkpt>
      <trkpt lat="45.9627" lon="4.77981">
        <ele>203</ele>
        <time>2018-07-12T10:35:38Z</time>
      </trkpt>
      <trkpt lat="45.96265" lon="4.77975">
        <ele>203</ele>
        <time>2018-07-12T10:35:39Z</time>
      </trkpt>
      <trkpt lat="45.96252" lon="4.77974">
        <ele>203</ele>
        <time>2018-07-12T10:35:40Z</time>
      </trkpt>
      <trkpt lat="45.96246" lon="4.77967">
        <ele>199</ele>
        <time>2018-07-12T10:35:41Z</time>
      </trkpt>
      <trkpt lat="45.96238" lon="4.77962">
        <ele>199</ele>
        <time>2018-07-12T10:35:42Z</time>
      </trkpt>
      <trkpt lat="45.96235" lon="4.77952">
        <ele>199</ele>
        <time>2018-07-12T10:35:44Z</time>
      </trkpt>
      <trkpt lat="45.96233" lon="4.77947">
        <ele>200</ele>
        <time>2018-07-12T10:35:45Z</time>
      </trkpt>
      <trkpt lat="45.96229" lon="4.77942">
        <ele>200</ele>
        <time>2018-07-12T10:35:46Z</time>
      </trkpt>
      <trkpt lat="45.96226" lon="4.77937">
        <ele>200</ele>
        <time>2018-07-12T10:35:47Z</time>
      </trkpt>
      <trkpt lat="45.96223" lon="4.77931">
        <ele>200</ele>
        <time>2018-07-12T10:35:48Z</time>
      </trkpt>
      <trkpt lat="45.9622" lon="4.77924">
        <ele>200</ele>
        <time>2018-07-12T10:35:49Z</time>
      </trkpt>
      <trkpt lat="45.96215" lon="4.77917">
        <ele>200</ele>
        <time>2018-07-12T10:35:50Z</time>
      </trkpt>
      <trkpt lat="45.96211" lon="4.7791">
        <ele>203</ele>
        <time>2018-07-12T10:35:51Z</time>
      </trkpt>
      <trkpt lat="45.96207" lon="4.77903">
        <ele>202</ele>
        <time>2018-07-12T10:35:52Z</time>
      </trkpt>
      <trkpt lat="45.96202" lon="4.77896">
        <ele>202</ele>
        <time>2018-07-12T10:35:53Z</time>
      </trkpt>
      <trkpt lat="45.96198" lon="4.77889">
        <ele>202</ele>
        <time>2018-07-12T10:35:54Z</time>
      </trkpt>
      <trkpt lat="45.96193" lon="4.77882">
        <ele>202</ele>
        <time>2018-07-12T10:35:55Z</time>
      </trkpt>
      <trkpt lat="45.96189" lon="4.77875">
        <ele>202</ele>
        <time>2018-07-12T10:35:56Z</time>
      </trkpt>
      <trkpt lat="45.96185" lon="4.77868">
        <ele>201</ele>
        <time>2018-07-12T10:35:57Z</time>
      </trkpt>
      <trkpt lat="45.96181" lon="4.77861">
        <ele>201</ele>
        <time>2018-07-12T10:35:58Z</time>
      </trkpt>
      <trkpt lat="45.96176" lon="4.77854">
        <ele>201</ele>
        <time>2018-07-12T10:35:59Z</time>
      </trkpt>
      <trkpt lat="45.96171" lon="4.77846">
        <ele>201</ele>
        <time>2018-07-12T10:36:00Z</time>
      </trkpt>
      <trkpt lat="45.96168" lon="4.77841">
        <ele>200</ele>
        <time>2018-07-12T10:36:01Z</time>
      </trkpt>
      <trkpt lat="45.96164" lon="4.77834">
        <ele>198</ele>
        <time>2018-07-12T10:36:02Z</time>
      </trkpt>
      <trkpt lat="45.9616" lon="4.77827">
        <ele>198</ele>
        <time>2018-07-12T10:36:03Z</time>
      </trkpt>
      <trkpt lat="45.96155" lon="4.7782">
        <ele>198</ele>
        <time>2018-07-12T10:36:04Z</time>
      </trkpt>
      <trkpt lat="45.96151" lon="4.77814">
        <ele>198</ele>
        <time>2018-07-12T10:36:05Z</time>
      </trkpt>
      <trkpt lat="45.96148" lon="4.77807">
        <ele>198</ele>
        <time>2018-07-12T10:36:06Z</time>
      </trkpt>
      <trkpt lat="45.96143" lon="4.778">
        <ele>198</ele>
        <time>2018-07-12T10:36:07Z</time>
      </trkpt>
      <trkpt lat="45.96141" lon="4.77795">
        <ele>198</ele>
        <time>2018-07-12T10:36:08Z</time>
      </trkpt>
      <trkpt lat="45.96135" lon="4.77789">
        <ele>198</ele>
        <time>2018-07-12T10:36:09Z</time>
      </trkpt>
      <trkpt lat="45.96132" lon="4.77782">
        <ele>198</ele>
        <time>2018-07-12T10:36:10Z</time>
      </trkpt>
      <trkpt lat="45.96128" lon="4.77776">
        <ele>198</ele>
        <time>2018-07-12T10:36:11Z</time>
      </trkpt>
      <trkpt lat="45.96125" lon="4.7777">
        <ele>198</ele>
        <time>2018-07-12T10:36:12Z</time>
      </trkpt>
      <trkpt lat="45.9612" lon="4.77764">
        <ele>197</ele>
        <time>2018-07-12T10:36:13Z</time>
      </trkpt>
      <trkpt lat="45.96116" lon="4.77757">
        <ele>197</ele>
        <time>2018-07-12T10:36:14Z</time>
      </trkpt>
      <trkpt lat="45.96111" lon="4.7775">
        <ele>197</ele>
        <time>2018-07-12T10:36:15Z</time>
      </trkpt>
      <trkpt lat="45.96107" lon="4.77743">
        <ele>199</ele>
        <time>2018-07-12T10:36:16Z</time>
      </trkpt>
      <trkpt lat="45.96103" lon="4.77736">
        <ele>199</ele>
        <time>2018-07-12T10:36:17Z</time>
      </trkpt>
      <trkpt lat="45.96099" lon="4.77729">
        <ele>199</ele>
        <time>2018-07-12T10:36:18Z</time>
      </trkpt>
      <trkpt lat="45.96095" lon="4.7772">
        <ele>199</ele>
        <time>2018-07-12T10:36:19Z</time>
      </trkpt>
      <trkpt lat="45.96092" lon="4.77712">
        <ele>200</ele>
        <time>2018-07-12T10:36:20Z</time>
      </trkpt>
      <trkpt lat="45.96083" lon="4.77703">
        <ele>197</ele>
        <time>2018-07-12T10:36:21Z</time>
      </trkpt>
      <trkpt lat="45.9608" lon="4.77696">
        <ele>197</ele>
        <time>2018-07-12T10:36:22Z</time>
      </trkpt>
      <trkpt lat="45.96076" lon="4.77689">
        <ele>198</ele>
        <time>2018-07-12T10:36:23Z</time>
      </trkpt>
      <trkpt lat="45.96071" lon="4.77682">
        <ele>198</ele>
        <time>2018-07-12T10:36:24Z</time>
      </trkpt>
      <trkpt lat="45.96066" lon="4.77675">
        <ele>198</ele>
        <time>2018-07-12T10:36:25Z</time>
      </trkpt>
      <trkpt lat="45.96062" lon="4.77668">
        <ele>198</ele>
        <time>2018-07-12T10:36:26Z</time>
      </trkpt>
      <trkpt lat="45.96057" lon="4.77661">
        <ele>200</ele>
        <time>2018-07-12T10:36:27Z</time>
      </trkpt>
      <trkpt lat="45.96052" lon="4.77655">
        <ele>200</ele>
        <time>2018-07-12T10:36:28Z</time>
      </trkpt>
      <trkpt lat="45.96047" lon="4.7765">
        <ele>200</ele>
        <time>2018-07-12T10:36:29Z</time>
      </trkpt>
      <trkpt lat="45.96042" lon="4.77644">
        <ele>199</ele>
        <time>2018-07-12T10:36:30Z</time>
      </trkpt>
      <trkpt lat="45.96038" lon="4.77638">
        <ele>199</ele>
        <time>2018-07-12T10:36:31Z</time>
      </trkpt>
      <trkpt lat="45.96033" lon="4.77632">
        <ele>199</ele>
        <time>2018-07-12T10:36:32Z</time>
      </trkpt>
      <trkpt lat="45.9603" lon="4.77627">
        <ele>199</ele>
        <time>2018-07-12T10:36:33Z</time>
      </trkpt>
      <trkpt lat="45.96025" lon="4.77621">
        <ele>199</ele>
        <time>2018-07-12T10:36:34Z</time>
      </trkpt>
      <trkpt lat="45.96021" lon="4.77615">
        <ele>199</ele>
        <time>2018-07-12T10:36:35Z</time>
      </trkpt>
      <trkpt lat="45.96015" lon="4.77609">
        <ele>199</ele>
        <time>2018-07-12T10:36:36Z</time>
      </trkpt>
      <trkpt lat="45.9601" lon="4.77604">
        <ele>199</ele>
        <time>2018-07-12T10:36:37Z</time>
      </trkpt>
      <trkpt lat="45.96006" lon="4.776">
        <ele>198</ele>
        <time>2018-07-12T10:36:38Z</time>
      </trkpt>
      <trkpt lat="45.96002" lon="4.77596">
        <ele>198</ele>
        <time>2018-07-12T10:36:39Z</time>
      </trkpt>
      <trkpt lat="45.96" lon="4.7759">
        <ele>196</ele>
        <time>2018-07-12T10:36:40Z</time>
      </trkpt>
      <trkpt lat="45.95996" lon="4.77583">
        <ele>197</ele>
        <time>2018-07-12T10:36:41Z</time>
      </trkpt>
      <trkpt lat="45.95993" lon="4.77576">
        <ele>196</ele>
        <time>2018-07-12T10:36:42Z</time>
      </trkpt>
      <trkpt lat="45.9599" lon="4.77569">
        <ele>196</ele>
        <time>2018-07-12T10:36:43Z</time>
      </trkpt>
      <trkpt lat="45.95987" lon="4.77563">
        <ele>196</ele>
        <time>2018-07-12T10:36:44Z</time>
      </trkpt>
      <trkpt lat="45.95983" lon="4.77556">
        <ele>196</ele>
        <time>2018-07-12T10:36:45Z</time>
      </trkpt>
      <trkpt lat="45.9598" lon="4.7755">
        <ele>196</ele>
        <time>2018-07-12T10:36:46Z</time>
      </trkpt>
      <trkpt lat="45.95979" lon="4.77544">
        <ele>196</ele>
        <time>2018-07-12T10:36:47Z</time>
      </trkpt>
      <trkpt lat="45.95977" lon="4.77538">
        <ele>196</ele>
        <time>2018-07-12T10:36:48Z</time>
      </trkpt>
      <trkpt lat="45.95974" lon="4.77531">
        <ele>196</ele>
        <time>2018-07-12T10:36:49Z</time>
      </trkpt>
      <trkpt lat="45.95972" lon="4.77522">
        <ele>196</ele>
        <time>2018-07-12T10:36:50Z</time>
      </trkpt>
      <trkpt lat="45.95969" lon="4.77515">
        <ele>196</ele>
        <time>2018-07-12T10:36:51Z</time>
      </trkpt>
      <trkpt lat="45.95966" lon="4.77508">
        <ele>196</ele>
        <time>2018-07-12T10:36:52Z</time>
      </trkpt>
      <trkpt lat="45.95963" lon="4.77501">
        <ele>195</ele>
        <time>2018-07-12T10:36:53Z</time>
      </trkpt>
      <trkpt lat="45.95959" lon="4.77492">
        <ele>196</ele>
        <time>2018-07-12T10:36:54Z</time>
      </trkpt>
      <trkpt lat="45.95955" lon="4.77484">
        <ele>196</ele>
        <time>2018-07-12T10:36:55Z</time>
      </trkpt>
      <trkpt lat="45.95951" lon="4.77476">
        <ele>196</ele>
        <time>2018-07-12T10:36:56Z</time>
      </trkpt>
      <trkpt lat="45.95947" lon="4.77467">
        <ele>196</ele>
        <time>2018-07-12T10:36:57Z</time>
      </trkpt>
      <trkpt lat="45.95944" lon="4.77457">
        <ele>196</ele>
        <time>2018-07-12T10:36:58Z</time>
      </trkpt>
      <trkpt lat="45.95941" lon="4.77447">
        <ele>196</ele>
        <time>2018-07-12T10:36:59Z</time>
      </trkpt>
      <trkpt lat="45.95936" lon="4.77438">
        <ele>195</ele>
        <time>2018-07-12T10:37:00Z</time>
      </trkpt>
      <trkpt lat="45.95934" lon="4.77427">
        <ele>195</ele>
        <time>2018-07-12T10:37:01Z</time>
      </trkpt>
      <trkpt lat="45.95932" lon="4.77417">
        <ele>195</ele>
        <time>2018-07-12T10:37:02Z</time>
      </trkpt>
      <trkpt lat="45.95928" lon="4.77409">
        <ele>195</ele>
        <time>2018-07-12T10:37:03Z</time>
      </trkpt>
      <trkpt lat="45.95925" lon="4.774">
        <ele>196</ele>
        <time>2018-07-12T10:37:04Z</time>
      </trkpt>
      <trkpt lat="45.95922" lon="4.77392">
        <ele>196</ele>
        <time>2018-07-12T10:37:05Z</time>
      </trkpt>
      <trkpt lat="45.95918" lon="4.77384">
        <ele>196</ele>
        <time>2018-07-12T10:37:06Z</time>
      </trkpt>
      <trkpt lat="45.95914" lon="4.77375">
        <ele>193</ele>
        <time>2018-07-12T10:37:07Z</time>
      </trkpt>
      <trkpt lat="45.95911" lon="4.77365">
        <ele>193</ele>
        <time>2018-07-12T10:37:08Z</time>
      </trkpt>
      <trkpt lat="45.95907" lon="4.77357">
        <ele>193</ele>
        <time>2018-07-12T10:37:09Z</time>
      </trkpt>
      <trkpt lat="45.95905" lon="4.77347">
        <ele>193</ele>
        <time>2018-07-12T10:37:10Z</time>
      </trkpt>
      <trkpt lat="45.95904" lon="4.77337">
        <ele>194</ele>
        <time>2018-07-12T10:37:11Z</time>
      </trkpt>
      <trkpt lat="45.95901" lon="4.7733">
        <ele>194</ele>
        <time>2018-07-12T10:37:12Z</time>
      </trkpt>
      <trkpt lat="45.95899" lon="4.77322">
        <ele>194</ele>
        <time>2018-07-12T10:37:13Z</time>
      </trkpt>
      <trkpt lat="45.95895" lon="4.77314">
        <ele>193</ele>
        <time>2018-07-12T10:37:14Z</time>
      </trkpt>
      <trkpt lat="45.95891" lon="4.77307">
        <ele>193</ele>
        <time>2018-07-12T10:37:15Z</time>
      </trkpt>
      <trkpt lat="45.9589" lon="4.77299">
        <ele>193</ele>
        <time>2018-07-12T10:37:16Z</time>
      </trkpt>
      <trkpt lat="45.95887" lon="4.77289">
        <ele>193</ele>
        <time>2018-07-12T10:37:17Z</time>
      </trkpt>
      <trkpt lat="45.95884" lon="4.77279">
        <ele>193</ele>
        <time>2018-07-12T10:37:18Z</time>
      </trkpt>
      <trkpt lat="45.95882" lon="4.7727">
        <ele>193</ele>
        <time>2018-07-12T10:37:19Z</time>
      </trkpt>
      <trkpt lat="45.9588" lon="4.77258">
        <ele>193</ele>
        <time>2018-07-12T10:37:20Z</time>
      </trkpt>
      <trkpt lat="45.95879" lon="4.77249">
        <ele>193</ele>
        <time>2018-07-12T10:37:21Z</time>
      </trkpt>
      <trkpt lat="45.95877" lon="4.77239">
        <ele>193</ele>
        <time>2018-07-12T10:37:22Z</time>
      </trkpt>
      <trkpt lat="45.95875" lon="4.77229">
        <ele>193</ele>
        <time>2018-07-12T10:37:23Z</time>
      </trkpt>
      <trkpt lat="45.95873" lon="4.77219">
        <ele>193</ele>
        <time>2018-07-12T10:37:24Z</time>
      </trkpt>
      <trkpt lat="45.95871" lon="4.7721">
        <ele>193</ele>
        <time>2018-07-12T10:37:25Z</time>
      </trkpt>
      <trkpt lat="45.9587" lon="4.77201">
        <ele>193</ele>
        <time>2018-07-12T10:37:26Z</time>
      </trkpt>
      <trkpt lat="45.95868" lon="4.77191">
        <ele>193</ele>
        <time>2018-07-12T10:37:27Z</time>
      </trkpt>
      <trkpt lat="45.95865" lon="4.77182">
        <ele>192</ele>
        <time>2018-07-12T10:37:28Z</time>
      </trkpt>
      <trkpt lat="45.95863" lon="4.77173">
        <ele>192</ele>
        <time>2018-07-12T10:37:29Z</time>
      </trkpt>
      <trkpt lat="45.9586" lon="4.77165">
        <ele>193</ele>
        <time>2018-07-12T10:37:30Z</time>
      </trkpt>
      <trkpt lat="45.95858" lon="4.77156">
        <ele>193</ele>
        <time>2018-07-12T10:37:31Z</time>
      </trkpt>
      <trkpt lat="45.95856" lon="4.77147">
        <ele>193</ele>
        <time>2018-07-12T10:37:32Z</time>
      </trkpt>
      <trkpt lat="45.95853" lon="4.77139">
        <ele>193</ele>
        <time>2018-07-12T10:37:33Z</time>
      </trkpt>
      <trkpt lat="45.95848" lon="4.77131">
        <ele>193</ele>
        <time>2018-07-12T10:37:34Z</time>
      </trkpt>
      <trkpt lat="45.95847" lon="4.77123">
        <ele>193</ele>
        <time>2018-07-12T10:37:35Z</time>
      </trkpt>
      <trkpt lat="45.95844" lon="4.77114">
        <ele>193</ele>
        <time>2018-07-12T10:37:36Z</time>
      </trkpt>
      <trkpt lat="45.95843" lon="4.77106">
        <ele>193</ele>
        <time>2018-07-12T10:37:37Z</time>
      </trkpt>
      <trkpt lat="45.95838" lon="4.77096">
        <ele>193</ele>
        <time>2018-07-12T10:37:38Z</time>
      </trkpt>
      <trkpt lat="45.95838" lon="4.77088">
        <ele>192</ele>
        <time>2018-07-12T10:37:39Z</time>
      </trkpt>
      <trkpt lat="45.95835" lon="4.77079">
        <ele>192</ele>
        <time>2018-07-12T10:37:40Z</time>
      </trkpt>
      <trkpt lat="45.95831" lon="4.7707">
        <ele>191</ele>
        <time>2018-07-12T10:37:41Z</time>
      </trkpt>
      <trkpt lat="45.95827" lon="4.77062">
        <ele>191</ele>
        <time>2018-07-12T10:37:42Z</time>
      </trkpt>
      <trkpt lat="45.95824" lon="4.77054">
        <ele>190</ele>
        <time>2018-07-12T10:37:43Z</time>
      </trkpt>
      <trkpt lat="45.95821" lon="4.77046">
        <ele>190</ele>
        <time>2018-07-12T10:37:44Z</time>
      </trkpt>
      <trkpt lat="45.95818" lon="4.77039">
        <ele>190</ele>
        <time>2018-07-12T10:37:45Z</time>
      </trkpt>
      <trkpt lat="45.95814" lon="4.77031">
        <ele>190</ele>
        <time>2018-07-12T10:37:46Z</time>
      </trkpt>
      <trkpt lat="45.95811" lon="4.77024">
        <ele>190</ele>
        <time>2018-07-12T10:37:47Z</time>
      </trkpt>
      <trkpt lat="45.95808" lon="4.77017">
        <ele>190</ele>
        <time>2018-07-12T10:37:48Z</time>
      </trkpt>
      <trkpt lat="45.9581" lon="4.77009">
        <ele>190</ele>
        <time>2018-07-12T10:37:49Z</time>
      </trkpt>
      <trkpt lat="45.95806" lon="4.77001">
        <ele>190</ele>
        <time>2018-07-12T10:37:50Z</time>
      </trkpt>
      <trkpt lat="45.95806" lon="4.76992">
        <ele>190</ele>
        <time>2018-07-12T10:37:51Z</time>
      </trkpt>
      <trkpt lat="45.95806" lon="4.76983">
        <ele>189</ele>
        <time>2018-07-12T10:37:52Z</time>
      </trkpt>
      <trkpt lat="45.95805" lon="4.76974">
        <ele>189</ele>
        <time>2018-07-12T10:37:53Z</time>
      </trkpt>
      <trkpt lat="45.95806" lon="4.76965">
        <ele>189</ele>
        <time>2018-07-12T10:37:54Z</time>
      </trkpt>
      <trkpt lat="45.95807" lon="4.76956">
        <ele>189</ele>
        <time>2018-07-12T10:37:55Z</time>
      </trkpt>
      <trkpt lat="45.95809" lon="4.76947">
        <ele>189</ele>
        <time>2018-07-12T10:37:56Z</time>
      </trkpt>
      <trkpt lat="45.95812" lon="4.7694">
        <ele>189</ele>
        <time>2018-07-12T10:37:57Z</time>
      </trkpt>
      <trkpt lat="45.95814" lon="4.76931">
        <ele>189</ele>
        <time>2018-07-12T10:37:58Z</time>
      </trkpt>
      <trkpt lat="45.95816" lon="4.76921">
        <ele>189</ele>
        <time>2018-07-12T10:37:59Z</time>
      </trkpt>
      <trkpt lat="45.95816" lon="4.76911">
        <ele>189</ele>
        <time>2018-07-12T10:38:00Z</time>
      </trkpt>
      <trkpt lat="45.95817" lon="4.76902">
        <ele>189</ele>
        <time>2018-07-12T10:38:01Z</time>
      </trkpt>
      <trkpt lat="45.95817" lon="4.76893">
        <ele>189</ele>
        <time>2018-07-12T10:38:02Z</time>
      </trkpt>
      <trkpt lat="45.9582" lon="4.76885">
        <ele>189</ele>
        <time>2018-07-12T10:38:03Z</time>
      </trkpt>
      <trkpt lat="45.95822" lon="4.76878">
        <ele>189</ele>
        <time>2018-07-12T10:38:04Z</time>
      </trkpt>
      <trkpt lat="45.95824" lon="4.7687">
        <ele>189</ele>
        <time>2018-07-12T10:38:05Z</time>
      </trkpt>
      <trkpt lat="45.95826" lon="4.76863">
        <ele>189</ele>
        <time>2018-07-12T10:38:06Z</time>
      </trkpt>
      <trkpt lat="45.95828" lon="4.76857">
        <ele>189</ele>
        <time>2018-07-12T10:38:07Z</time>
      </trkpt>
      <trkpt lat="45.95829" lon="4.7685">
        <ele>190</ele>
        <time>2018-07-12T10:38:08Z</time>
      </trkpt>
      <trkpt lat="45.95831" lon="4.76842">
        <ele>190</ele>
        <time>2018-07-12T10:38:09Z</time>
      </trkpt>
      <trkpt lat="45.9583" lon="4.76835">
        <ele>190</ele>
        <time>2018-07-12T10:38:10Z</time>
      </trkpt>
      <trkpt lat="45.95831" lon="4.76829">
        <ele>190</ele>
        <time>2018-07-12T10:38:11Z</time>
      </trkpt>
      <trkpt lat="45.95834" lon="4.76817">
        <ele>190</ele>
        <time>2018-07-12T10:38:13Z</time>
      </trkpt>
      <trkpt lat="45.95836" lon="4.76809">
        <ele>190</ele>
        <time>2018-07-12T10:38:14Z</time>
      </trkpt>
      <trkpt lat="45.95837" lon="4.76803">
        <ele>191</ele>
        <time>2018-07-12T10:38:15Z</time>
      </trkpt>
      <trkpt lat="45.95837" lon="4.76796">
        <ele>191</ele>
        <time>2018-07-12T10:38:16Z</time>
      </trkpt>
      <trkpt lat="45.95836" lon="4.76789">
        <ele>191</ele>
        <time>2018-07-12T10:38:17Z</time>
      </trkpt>
      <trkpt lat="45.95837" lon="4.76782">
        <ele>191</ele>
        <time>2018-07-12T10:38:18Z</time>
      </trkpt>
      <trkpt lat="45.95836" lon="4.76776">
        <ele>191</ele>
        <time>2018-07-12T10:38:19Z</time>
      </trkpt>
      <trkpt lat="45.95833" lon="4.76768">
        <ele>190</ele>
        <time>2018-07-12T10:38:20Z</time>
      </trkpt>
      <trkpt lat="45.95831" lon="4.76759">
        <ele>191</ele>
        <time>2018-07-12T10:38:21Z</time>
      </trkpt>
      <trkpt lat="45.95827" lon="4.7675">
        <ele>191</ele>
        <time>2018-07-12T10:38:22Z</time>
      </trkpt>
      <trkpt lat="45.95825" lon="4.76741">
        <ele>190</ele>
        <time>2018-07-12T10:38:23Z</time>
      </trkpt>
      <trkpt lat="45.95824" lon="4.76731">
        <ele>190</ele>
        <time>2018-07-12T10:38:24Z</time>
      </trkpt>
      <trkpt lat="45.95822" lon="4.76722">
        <ele>189</ele>
        <time>2018-07-12T10:38:25Z</time>
      </trkpt>
      <trkpt lat="45.95821" lon="4.76713">
        <ele>189</ele>
        <time>2018-07-12T10:38:26Z</time>
      </trkpt>
      <trkpt lat="45.95821" lon="4.76706">
        <ele>189</ele>
        <time>2018-07-12T10:38:27Z</time>
      </trkpt>
      <trkpt lat="45.95819" lon="4.76697">
        <ele>189</ele>
        <time>2018-07-12T10:38:28Z</time>
      </trkpt>
      <trkpt lat="45.95817" lon="4.76689">
        <ele>189</ele>
        <time>2018-07-12T10:38:29Z</time>
      </trkpt>
      <trkpt lat="45.95817" lon="4.76681">
        <ele>189</ele>
        <time>2018-07-12T10:38:30Z</time>
      </trkpt>
      <trkpt lat="45.95816" lon="4.76672">
        <ele>189</ele>
        <time>2018-07-12T10:38:31Z</time>
      </trkpt>
      <trkpt lat="45.95814" lon="4.76665">
        <ele>188</ele>
        <time>2018-07-12T10:38:32Z</time>
      </trkpt>
      <trkpt lat="45.95813" lon="4.76657">
        <ele>188</ele>
        <time>2018-07-12T10:38:33Z</time>
      </trkpt>
      <trkpt lat="45.95813" lon="4.76648">
        <ele>188</ele>
        <time>2018-07-12T10:38:34Z</time>
      </trkpt>
      <trkpt lat="45.95811" lon="4.76639">
        <ele>188</ele>
        <time>2018-07-12T10:38:35Z</time>
      </trkpt>
      <trkpt lat="45.95809" lon="4.76629">
        <ele>188</ele>
        <time>2018-07-12T10:38:36Z</time>
      </trkpt>
      <trkpt lat="45.95808" lon="4.7662">
        <ele>188</ele>
        <time>2018-07-12T10:38:37Z</time>
      </trkpt>
      <trkpt lat="45.95807" lon="4.7661">
        <ele>188</ele>
        <time>2018-07-12T10:38:38Z</time>
      </trkpt>
      <trkpt lat="45.95805" lon="4.766">
        <ele>188</ele>
        <time>2018-07-12T10:38:39Z</time>
      </trkpt>
      <trkpt lat="45.95802" lon="4.76589">
        <ele>187</ele>
        <time>2018-07-12T10:38:40Z</time>
      </trkpt>
      <trkpt lat="45.95799" lon="4.76579">
        <ele>187</ele>
        <time>2018-07-12T10:38:41Z</time>
      </trkpt>
      <trkpt lat="45.95798" lon="4.76569">
        <ele>187</ele>
        <time>2018-07-12T10:38:42Z</time>
      </trkpt>
      <trkpt lat="45.95796" lon="4.76559">
        <ele>187</ele>
        <time>2018-07-12T10:38:43Z</time>
      </trkpt>
      <trkpt lat="45.95792" lon="4.76549">
        <ele>187</ele>
        <time>2018-07-12T10:38:44Z</time>
      </trkpt>
      <trkpt lat="45.95791" lon="4.76539">
        <ele>187</ele>
        <time>2018-07-12T10:38:45Z</time>
      </trkpt>
      <trkpt lat="45.95789" lon="4.76529">
        <ele>187</ele>
        <time>2018-07-12T10:38:46Z</time>
      </trkpt>
      <trkpt lat="45.95788" lon="4.7652">
        <ele>187</ele>
        <time>2018-07-12T10:38:47Z</time>
      </trkpt>
      <trkpt lat="45.95786" lon="4.7651">
        <ele>187</ele>
        <time>2018-07-12T10:38:48Z</time>
      </trkpt>
      <trkpt lat="45.95784" lon="4.76501">
        <ele>186</ele>
        <time>2018-07-12T10:38:49Z</time>
      </trkpt>
      <trkpt lat="45.95785" lon="4.76491">
        <ele>186</ele>
        <time>2018-07-12T10:38:50Z</time>
      </trkpt>
      <trkpt lat="45.95785" lon="4.76483">
        <ele>186</ele>
        <time>2018-07-12T10:38:51Z</time>
      </trkpt>
      <trkpt lat="45.95784" lon="4.76474">
        <ele>186</ele>
        <time>2018-07-12T10:38:52Z</time>
      </trkpt>
      <trkpt lat="45.95781" lon="4.76464">
        <ele>186</ele>
        <time>2018-07-12T10:38:53Z</time>
      </trkpt>
      <trkpt lat="45.95779" lon="4.76455">
        <ele>186</ele>
        <time>2018-07-12T10:38:54Z</time>
      </trkpt>
      <trkpt lat="45.95774" lon="4.76445">
        <ele>186</ele>
        <time>2018-07-12T10:38:55Z</time>
      </trkpt>
      <trkpt lat="45.95774" lon="4.76435">
        <ele>186</ele>
        <time>2018-07-12T10:38:56Z</time>
      </trkpt>
      <trkpt lat="45.95774" lon="4.76427">
        <ele>186</ele>
        <time>2018-07-12T10:38:57Z</time>
      </trkpt>
      <trkpt lat="45.95772" lon="4.76417">
        <ele>186</ele>
        <time>2018-07-12T10:38:58Z</time>
      </trkpt>
      <trkpt lat="45.95772" lon="4.76409">
        <ele>186</ele>
        <time>2018-07-12T10:38:59Z</time>
      </trkpt>
      <trkpt lat="45.95772" lon="4.76401">
        <ele>186</ele>
        <time>2018-07-12T10:39:00Z</time>
      </trkpt>
      <trkpt lat="45.95771" lon="4.76393">
        <ele>186</ele>
        <time>2018-07-12T10:39:01Z</time>
      </trkpt>
      <trkpt lat="45.95771" lon="4.76384">
        <ele>186</ele>
        <time>2018-07-12T10:39:02Z</time>
      </trkpt>
      <trkpt lat="45.95769" lon="4.76376">
        <ele>186</ele>
        <time>2018-07-12T10:39:03Z</time>
      </trkpt>
      <trkpt lat="45.95768" lon="4.76368">
        <ele>186</ele>
        <time>2018-07-12T10:39:04Z</time>
      </trkpt>
      <trkpt lat="45.95769" lon="4.7636">
        <ele>186</ele>
        <time>2018-07-12T10:39:05Z</time>
      </trkpt>
      <trkpt lat="45.95769" lon="4.76351">
        <ele>186</ele>
        <time>2018-07-12T10:39:06Z</time>
      </trkpt>
      <trkpt lat="45.95769" lon="4.76342">
        <ele>186</ele>
        <time>2018-07-12T10:39:07Z</time>
      </trkpt>
      <trkpt lat="45.95769" lon="4.76333">
        <ele>185</ele>
        <time>2018-07-12T10:39:08Z</time>
      </trkpt>
      <trkpt lat="45.95769" lon="4.76323">
        <ele>185</ele>
        <time>2018-07-12T10:39:09Z</time>
      </trkpt>
      <trkpt lat="45.95768" lon="4.76313">
        <ele>185</ele>
        <time>2018-07-12T10:39:10Z</time>
      </trkpt>
      <trkpt lat="45.95767" lon="4.76305">
        <ele>186</ele>
        <time>2018-07-12T10:39:11Z</time>
      </trkpt>
      <trkpt lat="45.95766" lon="4.76295">
        <ele>186</ele>
        <time>2018-07-12T10:39:12Z</time>
      </trkpt>
      <trkpt lat="45.95767" lon="4.76286">
        <ele>186</ele>
        <time>2018-07-12T10:39:13Z</time>
      </trkpt>
      <trkpt lat="45.95766" lon="4.76277">
        <ele>186</ele>
        <time>2018-07-12T10:39:14Z</time>
      </trkpt>
      <trkpt lat="45.95766" lon="4.76268">
        <ele>185</ele>
        <time>2018-07-12T10:39:15Z</time>
      </trkpt>
      <trkpt lat="45.95768" lon="4.7626">
        <ele>185</ele>
        <time>2018-07-12T10:39:16Z</time>
      </trkpt>
      <trkpt lat="45.95769" lon="4.76252">
        <ele>185</ele>
        <time>2018-07-12T10:39:17Z</time>
      </trkpt>
      <trkpt lat="45.95769" lon="4.76243">
        <ele>186</ele>
        <time>2018-07-12T10:39:18Z</time>
      </trkpt>
      <trkpt lat="45.95766" lon="4.76234">
        <ele>186</ele>
        <time>2018-07-12T10:39:19Z</time>
      </trkpt>
      <trkpt lat="45.95765" lon="4.76226">
        <ele>186</ele>
        <time>2018-07-12T10:39:20Z</time>
      </trkpt>
      <trkpt lat="45.95764" lon="4.76216">
        <ele>186</ele>
        <time>2018-07-12T10:39:21Z</time>
      </trkpt>
      <trkpt lat="45.95763" lon="4.76206">
        <ele>186</ele>
        <time>2018-07-12T10:39:22Z</time>
      </trkpt>
      <trkpt lat="45.95763" lon="4.76197">
        <ele>186</ele>
        <time>2018-07-12T10:39:23Z</time>
      </trkpt>
      <trkpt lat="45.95762" lon="4.76188">
        <ele>186</ele>
        <time>2018-07-12T10:39:24Z</time>
      </trkpt>
      <trkpt lat="45.95762" lon="4.76178">
        <ele>185</ele>
        <time>2018-07-12T10:39:25Z</time>
      </trkpt>
      <trkpt lat="45.95761" lon="4.76169">
        <ele>185</ele>
        <time>2018-07-12T10:39:26Z</time>
      </trkpt>
      <trkpt lat="45.95761" lon="4.76159">
        <ele>186</ele>
        <time>2018-07-12T10:39:27Z</time>
      </trkpt>
      <trkpt lat="45.95757" lon="4.76149">
        <ele>186</ele>
        <time>2018-07-12T10:39:28Z</time>
      </trkpt>
      <trkpt lat="45.95757" lon="4.7614">
        <ele>186</ele>
        <time>2018-07-12T10:39:29Z</time>
      </trkpt>
      <trkpt lat="45.95754" lon="4.76131">
        <ele>186</ele>
        <time>2018-07-12T10:39:30Z</time>
      </trkpt>
      <trkpt lat="45.95752" lon="4.76122">
        <ele>186</ele>
        <time>2018-07-12T10:39:31Z</time>
      </trkpt>
      <trkpt lat="45.95751" lon="4.76112">
        <ele>186</ele>
        <time>2018-07-12T10:39:32Z</time>
      </trkpt>
      <trkpt lat="45.95749" lon="4.76103">
        <ele>184</ele>
        <time>2018-07-12T10:39:33Z</time>
      </trkpt>
      <trkpt lat="45.95748" lon="4.76096">
        <ele>185</ele>
        <time>2018-07-12T10:39:34Z</time>
      </trkpt>
      <trkpt lat="45.95746" lon="4.76087">
        <ele>185</ele>
        <time>2018-07-12T10:39:35Z</time>
      </trkpt>
      <trkpt lat="45.95743" lon="4.76079">
        <ele>185</ele>
        <time>2018-07-12T10:39:36Z</time>
      </trkpt>
      <trkpt lat="45.9574" lon="4.76071">
        <ele>185</ele>
        <time>2018-07-12T10:39:37Z</time>
      </trkpt>
      <trkpt lat="45.95736" lon="4.76062">
        <ele>184</ele>
        <time>2018-07-12T10:39:38Z</time>
      </trkpt>
      <trkpt lat="45.95733" lon="4.76054">
        <ele>184</ele>
        <time>2018-07-12T10:39:39Z</time>
      </trkpt>
      <trkpt lat="45.95727" lon="4.76046">
        <ele>184</ele>
        <time>2018-07-12T10:39:40Z</time>
      </trkpt>
      <trkpt lat="45.95724" lon="4.76037">
        <ele>184</ele>
        <time>2018-07-12T10:39:41Z</time>
      </trkpt>
      <trkpt lat="45.95721" lon="4.76029">
        <ele>184</ele>
        <time>2018-07-12T10:39:42Z</time>
      </trkpt>
      <trkpt lat="45.95718" lon="4.76021">
        <ele>184</ele>
        <time>2018-07-12T10:39:43Z</time>
      </trkpt>
      <trkpt lat="45.95714" lon="4.76013">
        <ele>184</ele>
        <time>2018-07-12T10:39:44Z</time>
      </trkpt>
      <trkpt lat="45.9571" lon="4.76006">
        <ele>184</ele>
        <time>2018-07-12T10:39:45Z</time>
      </trkpt>
      <trkpt lat="45.95707" lon="4.75998">
        <ele>185</ele>
        <time>2018-07-12T10:39:46Z</time>
      </trkpt>
      <trkpt lat="45.95704" lon="4.7599">
        <ele>185</ele>
        <time>2018-07-12T10:39:47Z</time>
      </trkpt>
      <trkpt lat="45.95702" lon="4.75981">
        <ele>185</ele>
        <time>2018-07-12T10:39:48Z</time>
      </trkpt>
      <trkpt lat="45.95698" lon="4.75972">
        <ele>185</ele>
        <time>2018-07-12T10:39:49Z</time>
      </trkpt>
      <trkpt lat="45.95694" lon="4.75963">
        <ele>185</ele>
        <time>2018-07-12T10:39:50Z</time>
      </trkpt>
      <trkpt lat="45.9569" lon="4.75954">
        <ele>185</ele>
        <time>2018-07-12T10:39:51Z</time>
      </trkpt>
      <trkpt lat="45.95687" lon="4.75946">
        <ele>185</ele>
        <time>2018-07-12T10:39:52Z</time>
      </trkpt>
      <trkpt lat="45.95683" lon="4.75938">
        <ele>185</ele>
        <time>2018-07-12T10:39:53Z</time>
      </trkpt>
      <trkpt lat="45.95679" lon="4.7593">
        <ele>185</ele>
        <time>2018-07-12T10:39:54Z</time>
      </trkpt>
      <trkpt lat="45.95675" lon="4.75923">
        <ele>184</ele>
        <time>2018-07-12T10:39:55Z</time>
      </trkpt>
      <trkpt lat="45.95672" lon="4.75915">
        <ele>185</ele>
        <time>2018-07-12T10:39:56Z</time>
      </trkpt>
      <trkpt lat="45.95669" lon="4.75905">
        <ele>185</ele>
        <time>2018-07-12T10:39:57Z</time>
      </trkpt>
      <trkpt lat="45.95667" lon="4.75897">
        <ele>184</ele>
        <time>2018-07-12T10:39:58Z</time>
      </trkpt>
      <trkpt lat="45.95664" lon="4.75889">
        <ele>184</ele>
        <time>2018-07-12T10:39:59Z</time>
      </trkpt>
      <trkpt lat="45.95661" lon="4.75881">
        <ele>184</ele>
        <time>2018-07-12T10:40:00Z</time>
      </trkpt>
      <trkpt lat="45.9566" lon="4.75872">
        <ele>184</ele>
        <time>2018-07-12T10:40:01Z</time>
      </trkpt>
      <trkpt lat="45.95658" lon="4.75864">
        <ele>184</ele>
        <time>2018-07-12T10:40:02Z</time>
      </trkpt>
      <trkpt lat="45.95656" lon="4.75854">
        <ele>184</ele>
        <time>2018-07-12T10:40:03Z</time>
      </trkpt>
      <trkpt lat="45.95654" lon="4.75845">
        <ele>185</ele>
        <time>2018-07-12T10:40:04Z</time>
      </trkpt>
      <trkpt lat="45.95652" lon="4.75834">
        <ele>185</ele>
        <time>2018-07-12T10:40:05Z</time>
      </trkpt>
      <trkpt lat="45.95651" lon="4.75826">
        <ele>185</ele>
        <time>2018-07-12T10:40:06Z</time>
      </trkpt>
      <trkpt lat="45.95648" lon="4.75818">
        <ele>185</ele>
        <time>2018-07-12T10:40:07Z</time>
      </trkpt>
      <trkpt lat="45.95646" lon="4.75809">
        <ele>185</ele>
        <time>2018-07-12T10:40:08Z</time>
      </trkpt>
      <trkpt lat="45.95645" lon="4.758">
        <ele>185</ele>
        <time>2018-07-12T10:40:09Z</time>
      </trkpt>
      <trkpt lat="45.95641" lon="4.75791">
        <ele>185</ele>
        <time>2018-07-12T10:40:10Z</time>
      </trkpt>
      <trkpt lat="45.9564" lon="4.75782">
        <ele>185</ele>
        <time>2018-07-12T10:40:11Z</time>
      </trkpt>
      <trkpt lat="45.95639" lon="4.75773">
        <ele>186</ele>
        <time>2018-07-12T10:40:12Z</time>
      </trkpt>
      <trkpt lat="45.95638" lon="4.75764">
        <ele>186</ele>
        <time>2018-07-12T10:40:13Z</time>
      </trkpt>
      <trkpt lat="45.95637" lon="4.75755">
        <ele>186</ele>
        <time>2018-07-12T10:40:14Z</time>
      </trkpt>
      <trkpt lat="45.95635" lon="4.75746">
        <ele>187</ele>
        <time>2018-07-12T10:40:15Z</time>
      </trkpt>
      <trkpt lat="45.95634" lon="4.75737">
        <ele>187</ele>
        <time>2018-07-12T10:40:16Z</time>
      </trkpt>
      <trkpt lat="45.95633" lon="4.75728">
        <ele>187</ele>
        <time>2018-07-12T10:40:17Z</time>
      </trkpt>
      <trkpt lat="45.95632" lon="4.75719">
        <ele>187</ele>
        <time>2018-07-12T10:40:18Z</time>
      </trkpt>
      <trkpt lat="45.95632" lon="4.75712">
        <ele>187</ele>
        <time>2018-07-12T10:40:19Z</time>
      </trkpt>
      <trkpt lat="45.95633" lon="4.75702">
        <ele>187</ele>
        <time>2018-07-12T10:40:20Z</time>
      </trkpt>
      <trkpt lat="45.95631" lon="4.75693">
        <ele>187</ele>
        <time>2018-07-12T10:40:21Z</time>
      </trkpt>
      <trkpt lat="45.95631" lon="4.75684">
        <ele>187</ele>
        <time>2018-07-12T10:40:22Z</time>
      </trkpt>
      <trkpt lat="45.95631" lon="4.75674">
        <ele>188</ele>
        <time>2018-07-12T10:40:23Z</time>
      </trkpt>
      <trkpt lat="45.95628" lon="4.75666">
        <ele>188</ele>
        <time>2018-07-12T10:40:24Z</time>
      </trkpt>
      <trkpt lat="45.95626" lon="4.75657">
        <ele>188</ele>
        <time>2018-07-12T10:40:25Z</time>
      </trkpt>
      <trkpt lat="45.95625" lon="4.75647">
        <ele>188</ele>
        <time>2018-07-12T10:40:26Z</time>
      </trkpt>
      <trkpt lat="45.95623" lon="4.75639">
        <ele>188</ele>
        <time>2018-07-12T10:40:27Z</time>
      </trkpt>
      <trkpt lat="45.95621" lon="4.75631">
        <ele>188</ele>
        <time>2018-07-12T10:40:28Z</time>
      </trkpt>
      <trkpt lat="45.9562" lon="4.75621">
        <ele>188</ele>
        <time>2018-07-12T10:40:29Z</time>
      </trkpt>
      <trkpt lat="45.95616" lon="4.75613">
        <ele>188</ele>
        <time>2018-07-12T10:40:30Z</time>
      </trkpt>
      <trkpt lat="45.95611" lon="4.75605">
        <ele>188</ele>
        <time>2018-07-12T10:40:31Z</time>
      </trkpt>
      <trkpt lat="45.95608" lon="4.75597">
        <ele>187</ele>
        <time>2018-07-12T10:40:32Z</time>
      </trkpt>
      <trkpt lat="45.95605" lon="4.75589">
        <ele>187</ele>
        <time>2018-07-12T10:40:33Z</time>
      </trkpt>
      <trkpt lat="45.95602" lon="4.75582">
        <ele>188</ele>
        <time>2018-07-12T10:40:34Z</time>
      </trkpt>
      <trkpt lat="45.956" lon="4.75573">
        <ele>188</ele>
        <time>2018-07-12T10:40:35Z</time>
      </trkpt>
      <trkpt lat="45.95597" lon="4.75565">
        <ele>188</ele>
        <time>2018-07-12T10:40:36Z</time>
      </trkpt>
      <trkpt lat="45.95595" lon="4.75556">
        <ele>188</ele>
        <time>2018-07-12T10:40:37Z</time>
      </trkpt>
      <trkpt lat="45.95591" lon="4.7555">
        <ele>189</ele>
        <time>2018-07-12T10:40:38Z</time>
      </trkpt>
      <trkpt lat="45.95586" lon="4.75543">
        <ele>189</ele>
        <time>2018-07-12T10:40:39Z</time>
      </trkpt>
      <trkpt lat="45.95581" lon="4.75538">
        <ele>186</ele>
        <time>2018-07-12T10:40:40Z</time>
      </trkpt>
      <trkpt lat="45.95576" lon="4.75533">
        <ele>186</ele>
        <time>2018-07-12T10:40:41Z</time>
      </trkpt>
      <trkpt lat="45.95571" lon="4.75528">
        <ele>187</ele>
        <time>2018-07-12T10:40:42Z</time>
      </trkpt>
      <trkpt lat="45.95566" lon="4.75523">
        <ele>187</ele>
        <time>2018-07-12T10:40:43Z</time>
      </trkpt>
      <trkpt lat="45.95561" lon="4.75518">
        <ele>187</ele>
        <time>2018-07-12T10:40:44Z</time>
      </trkpt>
      <trkpt lat="45.95557" lon="4.75513">
        <ele>186</ele>
        <time>2018-07-12T10:40:45Z</time>
      </trkpt>
      <trkpt lat="45.95552" lon="4.75508">
        <ele>186</ele>
        <time>2018-07-12T10:40:46Z</time>
      </trkpt>
      <trkpt lat="45.95548" lon="4.75502">
        <ele>186</ele>
        <time>2018-07-12T10:40:47Z</time>
      </trkpt>
      <trkpt lat="45.95545" lon="4.75496">
        <ele>187</ele>
        <time>2018-07-12T10:40:48Z</time>
      </trkpt>
      <trkpt lat="45.95542" lon="4.75488">
        <ele>187</ele>
        <time>2018-07-12T10:40:49Z</time>
      </trkpt>
      <trkpt lat="45.95542" lon="4.75481">
        <ele>187</ele>
        <time>2018-07-12T10:40:50Z</time>
      </trkpt>
      <trkpt lat="45.95542" lon="4.75474">
        <ele>187</ele>
        <time>2018-07-12T10:40:51Z</time>
      </trkpt>
      <trkpt lat="45.95541" lon="4.75466">
        <ele>187</ele>
        <time>2018-07-12T10:40:52Z</time>
      </trkpt>
      <trkpt lat="45.95538" lon="4.75458">
        <ele>187</ele>
        <time>2018-07-12T10:40:53Z</time>
      </trkpt>
      <trkpt lat="45.95533" lon="4.75452">
        <ele>187</ele>
        <time>2018-07-12T10:40:54Z</time>
      </trkpt>
      <trkpt lat="45.95529" lon="4.75446">
        <ele>187</ele>
        <time>2018-07-12T10:40:55Z</time>
      </trkpt>
      <trkpt lat="45.95523" lon="4.7544">
        <ele>187</ele>
        <time>2018-07-12T10:40:56Z</time>
      </trkpt>
      <trkpt lat="45.95518" lon="4.75432">
        <ele>187</ele>
        <time>2018-07-12T10:40:57Z</time>
      </trkpt>
      <trkpt lat="45.95516" lon="4.75424">
        <ele>186</ele>
        <time>2018-07-12T10:40:58Z</time>
      </trkpt>
      <trkpt lat="45.95512" lon="4.75416">
        <ele>187</ele>
        <time>2018-07-12T10:40:59Z</time>
      </trkpt>
      <trkpt lat="45.95508" lon="4.75408">
        <ele>187</ele>
        <time>2018-07-12T10:41:00Z</time>
      </trkpt>
      <trkpt lat="45.95505" lon="4.754">
        <ele>187</ele>
        <time>2018-07-12T10:41:01Z</time>
      </trkpt>
      <trkpt lat="45.95502" lon="4.75393">
        <ele>188</ele>
        <time>2018-07-12T10:41:02Z</time>
      </trkpt>
      <trkpt lat="45.955" lon="4.75385">
        <ele>185</ele>
        <time>2018-07-12T10:41:03Z</time>
      </trkpt>
      <trkpt lat="45.95497" lon="4.75377">
        <ele>185</ele>
        <time>2018-07-12T10:41:04Z</time>
      </trkpt>
      <trkpt lat="45.95493" lon="4.7537">
        <ele>186</ele>
        <time>2018-07-12T10:41:05Z</time>
      </trkpt>
      <trkpt lat="45.9549" lon="4.75361">
        <ele>186</ele>
        <time>2018-07-12T10:41:06Z</time>
      </trkpt>
      <trkpt lat="45.95486" lon="4.75354">
        <ele>186</ele>
        <time>2018-07-12T10:41:07Z</time>
      </trkpt>
      <trkpt lat="45.95482" lon="4.75347">
        <ele>186</ele>
        <time>2018-07-12T10:41:08Z</time>
      </trkpt>
      <trkpt lat="45.95477" lon="4.7534">
        <ele>186</ele>
        <time>2018-07-12T10:41:09Z</time>
      </trkpt>
      <trkpt lat="45.95473" lon="4.75333">
        <ele>188</ele>
        <time>2018-07-12T10:41:10Z</time>
      </trkpt>
      <trkpt lat="45.95471" lon="4.75326">
        <ele>188</ele>
        <time>2018-07-12T10:41:11Z</time>
      </trkpt>
      <trkpt lat="45.95466" lon="4.75321">
        <ele>188</ele>
        <time>2018-07-12T10:41:12Z</time>
      </trkpt>
      <trkpt lat="45.95463" lon="4.75315">
        <ele>188</ele>
        <time>2018-07-12T10:41:13Z</time>
      </trkpt>
      <trkpt lat="45.95459" lon="4.75308">
        <ele>188</ele>
        <time>2018-07-12T10:41:14Z</time>
      </trkpt>
      <trkpt lat="45.95456" lon="4.75301">
        <ele>188</ele>
        <time>2018-07-12T10:41:15Z</time>
      </trkpt>
      <trkpt lat="45.95453" lon="4.75295">
        <ele>188</ele>
        <time>2018-07-12T10:41:16Z</time>
      </trkpt>
      <trkpt lat="45.95449" lon="4.75288">
        <ele>188</ele>
        <time>2018-07-12T10:41:17Z</time>
      </trkpt>
      <trkpt lat="45.95446" lon="4.75282">
        <ele>188</ele>
        <time>2018-07-12T10:41:18Z</time>
      </trkpt>
      <trkpt lat="45.95442" lon="4.75275">
        <ele>189</ele>
        <time>2018-07-12T10:41:19Z</time>
      </trkpt>
      <trkpt lat="45.95439" lon="4.75268">
        <ele>189</ele>
        <time>2018-07-12T10:41:20Z</time>
      </trkpt>
      <trkpt lat="45.95435" lon="4.75261">
        <ele>189</ele>
        <time>2018-07-12T10:41:21Z</time>
      </trkpt>
      <trkpt lat="45.95432" lon="4.75255">
        <ele>189</ele>
        <time>2018-07-12T10:41:22Z</time>
      </trkpt>
      <trkpt lat="45.95429" lon="4.75248">
        <ele>190</ele>
        <time>2018-07-12T10:41:23Z</time>
      </trkpt>
      <trkpt lat="45.95426" lon="4.75242">
        <ele>190</ele>
        <time>2018-07-12T10:41:24Z</time>
      </trkpt>
      <trkpt lat="45.95423" lon="4.75236">
        <ele>190</ele>
        <time>2018-07-12T10:41:25Z</time>
      </trkpt>
      <trkpt lat="45.95419" lon="4.7523">
        <ele>190</ele>
        <time>2018-07-12T10:41:26Z</time>
      </trkpt>
      <trkpt lat="45.95417" lon="4.75222">
        <ele>189</ele>
        <time>2018-07-12T10:41:27Z</time>
      </trkpt>
      <trkpt lat="45.95413" lon="4.75215">
        <ele>189</ele>
        <time>2018-07-12T10:41:28Z</time>
      </trkpt>
      <trkpt lat="45.9541" lon="4.75208">
        <ele>189</ele>
        <time>2018-07-12T10:41:29Z</time>
      </trkpt>
      <trkpt lat="45.95407" lon="4.75203">
        <ele>189</ele>
        <time>2018-07-12T10:41:30Z</time>
      </trkpt>
      <trkpt lat="45.95405" lon="4.75198">
        <ele>189</ele>
        <time>2018-07-12T10:41:31Z</time>
      </trkpt>
      <trkpt lat="45.95402" lon="4.75192">
        <ele>189</ele>
        <time>2018-07-12T10:41:32Z</time>
      </trkpt>
      <trkpt lat="45.954" lon="4.75186">
        <ele>189</ele>
        <time>2018-07-12T10:41:33Z</time>
      </trkpt>
      <trkpt lat="45.95397" lon="4.7518">
        <ele>189</ele>
        <time>2018-07-12T10:41:34Z</time>
      </trkpt>
      <trkpt lat="45.95394" lon="4.75175">
        <ele>189</ele>
        <time>2018-07-12T10:41:35Z</time>
      </trkpt>
      <trkpt lat="45.95392" lon="4.75168">
        <ele>189</ele>
        <time>2018-07-12T10:41:36Z</time>
      </trkpt>
      <trkpt lat="45.95387" lon="4.75163">
        <ele>191</ele>
        <time>2018-07-12T10:41:37Z</time>
      </trkpt>
      <trkpt lat="45.95384" lon="4.75158">
        <ele>191</ele>
        <time>2018-07-12T10:41:38Z</time>
      </trkpt>
      <trkpt lat="45.95379" lon="4.75151">
        <ele>191</ele>
        <time>2018-07-12T10:41:39Z</time>
      </trkpt>
      <trkpt lat="45.95375" lon="4.75143">
        <ele>191</ele>
        <time>2018-07-12T10:41:40Z</time>
      </trkpt>
      <trkpt lat="45.95372" lon="4.75137">
        <ele>191</ele>
        <time>2018-07-12T10:41:41Z</time>
      </trkpt>
      <trkpt lat="45.95369" lon="4.75132">
        <ele>191</ele>
        <time>2018-07-12T10:41:42Z</time>
      </trkpt>
      <trkpt lat="45.95366" lon="4.75127">
        <ele>191</ele>
        <time>2018-07-12T10:41:43Z</time>
      </trkpt>
      <trkpt lat="45.95362" lon="4.75122">
        <ele>191</ele>
        <time>2018-07-12T10:41:44Z</time>
      </trkpt>
      <trkpt lat="45.95357" lon="4.75117">
        <ele>192</ele>
        <time>2018-07-12T10:41:45Z</time>
      </trkpt>
      <trkpt lat="45.95353" lon="4.75112">
        <ele>192</ele>
        <time>2018-07-12T10:41:46Z</time>
      </trkpt>
      <trkpt lat="45.9535" lon="4.75107">
        <ele>192</ele>
        <time>2018-07-12T10:41:47Z</time>
      </trkpt>
      <trkpt lat="45.95346" lon="4.75104">
        <ele>192</ele>
        <time>2018-07-12T10:41:48Z</time>
      </trkpt>
      <trkpt lat="45.95342" lon="4.75098">
        <ele>192</ele>
        <time>2018-07-12T10:41:49Z</time>
      </trkpt>
      <trkpt lat="45.95339" lon="4.75094">
        <ele>192</ele>
        <time>2018-07-12T10:41:50Z</time>
      </trkpt>
      <trkpt lat="45.95336" lon="4.75088">
        <ele>193</ele>
        <time>2018-07-12T10:41:51Z</time>
      </trkpt>
      <trkpt lat="45.95331" lon="4.75082">
        <ele>193</ele>
        <time>2018-07-12T10:41:52Z</time>
      </trkpt>
      <trkpt lat="45.95328" lon="4.75076">
        <ele>192</ele>
        <time>2018-07-12T10:41:53Z</time>
      </trkpt>
      <trkpt lat="45.95324" lon="4.75069">
        <ele>192</ele>
        <time>2018-07-12T10:41:54Z</time>
      </trkpt>
      <trkpt lat="45.95321" lon="4.75063">
        <ele>192</ele>
        <time>2018-07-12T10:41:55Z</time>
      </trkpt>
      <trkpt lat="45.95317" lon="4.75057">
        <ele>192</ele>
        <time>2018-07-12T10:41:56Z</time>
      </trkpt>
      <trkpt lat="45.95314" lon="4.75052">
        <ele>192</ele>
        <time>2018-07-12T10:41:57Z</time>
      </trkpt>
      <trkpt lat="45.9531" lon="4.75046">
        <ele>192</ele>
        <time>2018-07-12T10:41:58Z</time>
      </trkpt>
      <trkpt lat="45.95306" lon="4.7504">
        <ele>192</ele>
        <time>2018-07-12T10:41:59Z</time>
      </trkpt>
      <trkpt lat="45.95302" lon="4.75034">
        <ele>192</ele>
        <time>2018-07-12T10:42:00Z</time>
      </trkpt>
      <trkpt lat="45.95298" lon="4.75028">
        <ele>191</ele>
        <time>2018-07-12T10:42:01Z</time>
      </trkpt>
      <trkpt lat="45.95294" lon="4.75022">
        <ele>191</ele>
        <time>2018-07-12T10:42:02Z</time>
      </trkpt>
      <trkpt lat="45.95289" lon="4.75015">
        <ele>191</ele>
        <time>2018-07-12T10:42:03Z</time>
      </trkpt>
      <trkpt lat="45.95284" lon="4.7501">
        <ele>191</ele>
        <time>2018-07-12T10:42:04Z</time>
      </trkpt>
      <trkpt lat="45.95281" lon="4.75004">
        <ele>191</ele>
        <time>2018-07-12T10:42:05Z</time>
      </trkpt>
      <trkpt lat="45.95277" lon="4.74998">
        <ele>192</ele>
        <time>2018-07-12T10:42:06Z</time>
      </trkpt>
      <trkpt lat="45.95273" lon="4.74991">
        <ele>192</ele>
        <time>2018-07-12T10:42:07Z</time>
      </trkpt>
      <trkpt lat="45.9527" lon="4.74984">
        <ele>192</ele>
        <time>2018-07-12T10:42:08Z</time>
      </trkpt>
      <trkpt lat="45.95267" lon="4.74979">
        <ele>192</ele>
        <time>2018-07-12T10:42:09Z</time>
      </trkpt>
      <trkpt lat="45.95263" lon="4.74972">
        <ele>192</ele>
        <time>2018-07-12T10:42:10Z</time>
      </trkpt>
      <trkpt lat="45.95259" lon="4.74966">
        <ele>192</ele>
        <time>2018-07-12T10:42:11Z</time>
      </trkpt>
      <trkpt lat="45.95256" lon="4.7496">
        <ele>192</ele>
        <time>2018-07-12T10:42:12Z</time>
      </trkpt>
      <trkpt lat="45.95251" lon="4.74956">
        <ele>192</ele>
        <time>2018-07-12T10:42:13Z</time>
      </trkpt>
      <trkpt lat="45.95247" lon="4.7495">
        <ele>192</ele>
        <time>2018-07-12T10:42:14Z</time>
      </trkpt>
      <trkpt lat="45.95244" lon="4.74944">
        <ele>192</ele>
        <time>2018-07-12T10:42:15Z</time>
      </trkpt>
      <trkpt lat="45.9524" lon="4.74939">
        <ele>192</ele>
        <time>2018-07-12T10:42:16Z</time>
      </trkpt>
      <trkpt lat="45.95236" lon="4.74934">
        <ele>192</ele>
        <time>2018-07-12T10:42:17Z</time>
      </trkpt>
      <trkpt lat="45.95233" lon="4.74928">
        <ele>192</ele>
        <time>2018-07-12T10:42:18Z</time>
      </trkpt>
      <trkpt lat="45.95229" lon="4.74923">
        <ele>192</ele>
        <time>2018-07-12T10:42:19Z</time>
      </trkpt>
      <trkpt lat="45.95223" lon="4.74918">
        <ele>192</ele>
        <time>2018-07-12T10:42:20Z</time>
      </trkpt>
      <trkpt lat="45.9522" lon="4.74913">
        <ele>193</ele>
        <time>2018-07-12T10:42:21Z</time>
      </trkpt>
      <trkpt lat="45.95217" lon="4.74907">
        <ele>193</ele>
        <time>2018-07-12T10:42:22Z</time>
      </trkpt>
      <trkpt lat="45.95213" lon="4.74901">
        <ele>193</ele>
        <time>2018-07-12T10:42:23Z</time>
      </trkpt>
      <trkpt lat="45.95208" lon="4.74893">
        <ele>194</ele>
        <time>2018-07-12T10:42:24Z</time>
      </trkpt>
      <trkpt lat="45.95205" lon="4.74887">
        <ele>194</ele>
        <time>2018-07-12T10:42:25Z</time>
      </trkpt>
      <trkpt lat="45.95202" lon="4.74881">
        <ele>194</ele>
        <time>2018-07-12T10:42:26Z</time>
      </trkpt>
      <trkpt lat="45.95198" lon="4.74874">
        <ele>194</ele>
        <time>2018-07-12T10:42:27Z</time>
      </trkpt>
      <trkpt lat="45.95194" lon="4.74868">
        <ele>194</ele>
        <time>2018-07-12T10:42:28Z</time>
      </trkpt>
      <trkpt lat="45.95189" lon="4.74861">
        <ele>194</ele>
        <time>2018-07-12T10:42:29Z</time>
      </trkpt>
      <trkpt lat="45.95186" lon="4.74854">
        <ele>194</ele>
        <time>2018-07-12T10:42:30Z</time>
      </trkpt>
      <trkpt lat="45.95182" lon="4.74848">
        <ele>194</ele>
        <time>2018-07-12T10:42:31Z</time>
      </trkpt>
      <trkpt lat="45.95178" lon="4.74841">
        <ele>194</ele>
        <time>2018-07-12T10:42:32Z</time>
      </trkpt>
      <trkpt lat="45.95174" lon="4.74835">
        <ele>194</ele>
        <time>2018-07-12T10:42:33Z</time>
      </trkpt>
      <trkpt lat="45.9517" lon="4.74829">
        <ele>194</ele>
        <time>2018-07-12T10:42:34Z</time>
      </trkpt>
      <trkpt lat="45.95168" lon="4.74821">
        <ele>194</ele>
        <time>2018-07-12T10:42:35Z</time>
      </trkpt>
      <trkpt lat="45.95164" lon="4.74816">
        <ele>194</ele>
        <time>2018-07-12T10:42:36Z</time>
      </trkpt>
      <trkpt lat="45.95161" lon="4.7481">
        <ele>194</ele>
        <time>2018-07-12T10:42:37Z</time>
      </trkpt>
      <trkpt lat="45.95158" lon="4.74804">
        <ele>194</ele>
        <time>2018-07-12T10:42:38Z</time>
      </trkpt>
      <trkpt lat="45.95153" lon="4.74799">
        <ele>194</ele>
        <time>2018-07-12T10:42:39Z</time>
      </trkpt>
      <trkpt lat="45.95149" lon="4.74792">
        <ele>194</ele>
        <time>2018-07-12T10:42:40Z</time>
      </trkpt>
      <trkpt lat="45.95144" lon="4.74786">
        <ele>194</ele>
        <time>2018-07-12T10:42:41Z</time>
      </trkpt>
      <trkpt lat="45.9514" lon="4.74779">
        <ele>194</ele>
        <time>2018-07-12T10:42:42Z</time>
      </trkpt>
      <trkpt lat="45.95135" lon="4.74773">
        <ele>194</ele>
        <time>2018-07-12T10:42:43Z</time>
      </trkpt>
      <trkpt lat="45.95131" lon="4.74767">
        <ele>194</ele>
        <time>2018-07-12T10:42:44Z</time>
      </trkpt>
      <trkpt lat="45.95126" lon="4.74762">
        <ele>194</ele>
        <time>2018-07-12T10:42:45Z</time>
      </trkpt>
      <trkpt lat="45.95123" lon="4.74755">
        <ele>194</ele>
        <time>2018-07-12T10:42:46Z</time>
      </trkpt>
      <trkpt lat="45.95119" lon="4.74749">
        <ele>194</ele>
        <time>2018-07-12T10:42:47Z</time>
      </trkpt>
      <trkpt lat="45.95116" lon="4.74743">
        <ele>194</ele>
        <time>2018-07-12T10:42:48Z</time>
      </trkpt>
      <trkpt lat="45.95113" lon="4.74736">
        <ele>194</ele>
        <time>2018-07-12T10:42:49Z</time>
      </trkpt>
      <trkpt lat="45.9511" lon="4.74729">
        <ele>194</ele>
        <time>2018-07-12T10:42:50Z</time>
      </trkpt>
      <trkpt lat="45.95107" lon="4.74724">
        <ele>194</ele>
        <time>2018-07-12T10:42:51Z</time>
      </trkpt>
      <trkpt lat="45.95103" lon="4.74718">
        <ele>194</ele>
        <time>2018-07-12T10:42:52Z</time>
      </trkpt>
      <trkpt lat="45.951" lon="4.74712">
        <ele>194</ele>
        <time>2018-07-12T10:42:53Z</time>
      </trkpt>
      <trkpt lat="45.95096" lon="4.74707">
        <ele>194</ele>
        <time>2018-07-12T10:42:54Z</time>
      </trkpt>
      <trkpt lat="45.95092" lon="4.74701">
        <ele>194</ele>
        <time>2018-07-12T10:42:55Z</time>
      </trkpt>
      <trkpt lat="45.95088" lon="4.74695">
        <ele>194</ele>
        <time>2018-07-12T10:42:56Z</time>
      </trkpt>
      <trkpt lat="45.95084" lon="4.74689">
        <ele>195</ele>
        <time>2018-07-12T10:42:57Z</time>
      </trkpt>
      <trkpt lat="45.95081" lon="4.74681">
        <ele>194</ele>
        <time>2018-07-12T10:42:58Z</time>
      </trkpt>
      <trkpt lat="45.95077" lon="4.74674">
        <ele>194</ele>
        <time>2018-07-12T10:42:59Z</time>
      </trkpt>
      <trkpt lat="45.95072" lon="4.74667">
        <ele>194</ele>
        <time>2018-07-12T10:43:00Z</time>
      </trkpt>
      <trkpt lat="45.95069" lon="4.7466">
        <ele>195</ele>
        <time>2018-07-12T10:43:01Z</time>
      </trkpt>
      <trkpt lat="45.95065" lon="4.74652">
        <ele>195</ele>
        <time>2018-07-12T10:43:02Z</time>
      </trkpt>
      <trkpt lat="45.9506" lon="4.74643">
        <ele>194</ele>
        <time>2018-07-12T10:43:03Z</time>
      </trkpt>
      <trkpt lat="45.95056" lon="4.74635">
        <ele>194</ele>
        <time>2018-07-12T10:43:04Z</time>
      </trkpt>
      <trkpt lat="45.95052" lon="4.74626">
        <ele>194</ele>
        <time>2018-07-12T10:43:05Z</time>
      </trkpt>
      <trkpt lat="45.95047" lon="4.74618">
        <ele>194</ele>
        <time>2018-07-12T10:43:06Z</time>
      </trkpt>
      <trkpt lat="45.95043" lon="4.7461">
        <ele>194</ele>
        <time>2018-07-12T10:43:07Z</time>
      </trkpt>
      <trkpt lat="45.95038" lon="4.74603">
        <ele>194</ele>
        <time>2018-07-12T10:43:08Z</time>
      </trkpt>
      <trkpt lat="45.95034" lon="4.74595">
        <ele>194</ele>
        <time>2018-07-12T10:43:09Z</time>
      </trkpt>
      <trkpt lat="45.9503" lon="4.74588">
        <ele>194</ele>
        <time>2018-07-12T10:43:10Z</time>
      </trkpt>
      <trkpt lat="45.95027" lon="4.74581">
        <ele>194</ele>
        <time>2018-07-12T10:43:11Z</time>
      </trkpt>
      <trkpt lat="45.95023" lon="4.74574">
        <ele>194</ele>
        <time>2018-07-12T10:43:12Z</time>
      </trkpt>
      <trkpt lat="45.9502" lon="4.74567">
        <ele>194</ele>
        <time>2018-07-12T10:43:13Z</time>
      </trkpt>
      <trkpt lat="45.95016" lon="4.7456">
        <ele>194</ele>
        <time>2018-07-12T10:43:14Z</time>
      </trkpt>
      <trkpt lat="45.95012" lon="4.74552">
        <ele>194</ele>
        <time>2018-07-12T10:43:15Z</time>
      </trkpt>
      <trkpt lat="45.95006" lon="4.74544">
        <ele>194</ele>
        <time>2018-07-12T10:43:16Z</time>
      </trkpt>
      <trkpt lat="45.95" lon="4.74536">
        <ele>193</ele>
        <time>2018-07-12T10:43:17Z</time>
      </trkpt>
      <trkpt lat="45.94992" lon="4.74527">
        <ele>193</ele>
        <time>2018-07-12T10:43:18Z</time>
      </trkpt>
      <trkpt lat="45.94988" lon="4.74518">
        <ele>193</ele>
        <time>2018-07-12T10:43:19Z</time>
      </trkpt>
      <trkpt lat="45.94983" lon="4.74509">
        <ele>193</ele>
        <time>2018-07-12T10:43:20Z</time>
      </trkpt>
      <trkpt lat="45.94977" lon="4.74499">
        <ele>193</ele>
        <time>2018-07-12T10:43:21Z</time>
      </trkpt>
      <trkpt lat="45.94973" lon="4.74488">
        <ele>193</ele>
        <time>2018-07-12T10:43:22Z</time>
      </trkpt>
      <trkpt lat="45.94969" lon="4.74478">
        <ele>193</ele>
        <time>2018-07-12T10:43:23Z</time>
      </trkpt>
      <trkpt lat="45.94965" lon="4.74469">
        <ele>193</ele>
        <time>2018-07-12T10:43:24Z</time>
      </trkpt>
      <trkpt lat="45.9496" lon="4.74461">
        <ele>193</ele>
        <time>2018-07-12T10:43:25Z</time>
      </trkpt>
      <trkpt lat="45.94955" lon="4.7445">
        <ele>192</ele>
        <time>2018-07-12T10:43:26Z</time>
      </trkpt>
      <trkpt lat="45.94952" lon="4.74441">
        <ele>192</ele>
        <time>2018-07-12T10:43:27Z</time>
      </trkpt>
      <trkpt lat="45.94947" lon="4.74431">
        <ele>192</ele>
        <time>2018-07-12T10:43:28Z</time>
      </trkpt>
      <trkpt lat="45.94942" lon="4.74422">
        <ele>192</ele>
        <time>2018-07-12T10:43:29Z</time>
      </trkpt>
      <trkpt lat="45.94935" lon="4.74413">
        <ele>192</ele>
        <time>2018-07-12T10:43:30Z</time>
      </trkpt>
      <trkpt lat="45.9493" lon="4.74404">
        <ele>192</ele>
        <time>2018-07-12T10:43:31Z</time>
      </trkpt>
      <trkpt lat="45.94926" lon="4.74394">
        <ele>192</ele>
        <time>2018-07-12T10:43:32Z</time>
      </trkpt>
      <trkpt lat="45.94921" lon="4.74384">
        <ele>192</ele>
        <time>2018-07-12T10:43:33Z</time>
      </trkpt>
      <trkpt lat="45.94917" lon="4.74375">
        <ele>191</ele>
        <time>2018-07-12T10:43:34Z</time>
      </trkpt>
      <trkpt lat="45.94913" lon="4.74366">
        <ele>191</ele>
        <time>2018-07-12T10:43:35Z</time>
      </trkpt>
      <trkpt lat="45.9491" lon="4.74357">
        <ele>191</ele>
        <time>2018-07-12T10:43:36Z</time>
      </trkpt>
      <trkpt lat="45.94906" lon="4.74349">
        <ele>191</ele>
        <time>2018-07-12T10:43:37Z</time>
      </trkpt>
      <trkpt lat="45.94901" lon="4.74339">
        <ele>191</ele>
        <time>2018-07-12T10:43:38Z</time>
      </trkpt>
      <trkpt lat="45.94897" lon="4.74331">
        <ele>191</ele>
        <time>2018-07-12T10:43:39Z</time>
      </trkpt>
      <trkpt lat="45.94892" lon="4.74323">
        <ele>191</ele>
        <time>2018-07-12T10:43:40Z</time>
      </trkpt>
      <trkpt lat="45.94887" lon="4.74315">
        <ele>191</ele>
        <time>2018-07-12T10:43:41Z</time>
      </trkpt>
      <trkpt lat="45.94882" lon="4.74304">
        <ele>191</ele>
        <time>2018-07-12T10:43:42Z</time>
      </trkpt>
      <trkpt lat="45.94878" lon="4.74296">
        <ele>191</ele>
        <time>2018-07-12T10:43:43Z</time>
      </trkpt>
      <trkpt lat="45.94874" lon="4.74288">
        <ele>191</ele>
        <time>2018-07-12T10:43:44Z</time>
      </trkpt>
      <trkpt lat="45.9487" lon="4.74281">
        <ele>191</ele>
        <time>2018-07-12T10:43:45Z</time>
      </trkpt>
      <trkpt lat="45.94866" lon="4.74272">
        <ele>191</ele>
        <time>2018-07-12T10:43:46Z</time>
      </trkpt>
      <trkpt lat="45.94861" lon="4.74263">
        <ele>190</ele>
        <time>2018-07-12T10:43:47Z</time>
      </trkpt>
      <trkpt lat="45.94856" lon="4.74256">
        <ele>190</ele>
        <time>2018-07-12T10:43:48Z</time>
      </trkpt>
      <trkpt lat="45.94851" lon="4.74247">
        <ele>190</ele>
        <time>2018-07-12T10:43:49Z</time>
      </trkpt>
      <trkpt lat="45.94848" lon="4.74238">
        <ele>190</ele>
        <time>2018-07-12T10:43:50Z</time>
      </trkpt>
      <trkpt lat="45.94842" lon="4.74229">
        <ele>190</ele>
        <time>2018-07-12T10:43:51Z</time>
      </trkpt>
      <trkpt lat="45.94838" lon="4.7422">
        <ele>190</ele>
        <time>2018-07-12T10:43:52Z</time>
      </trkpt>
      <trkpt lat="45.94832" lon="4.74214">
        <ele>189</ele>
        <time>2018-07-12T10:43:53Z</time>
      </trkpt>
      <trkpt lat="45.94828" lon="4.74206">
        <ele>189</ele>
        <time>2018-07-12T10:43:54Z</time>
      </trkpt>
      <trkpt lat="45.94824" lon="4.74199">
        <ele>189</ele>
        <time>2018-07-12T10:43:55Z</time>
      </trkpt>
      <trkpt lat="45.9482" lon="4.74191">
        <ele>189</ele>
        <time>2018-07-12T10:43:56Z</time>
      </trkpt>
      <trkpt lat="45.94815" lon="4.74184">
        <ele>189</ele>
        <time>2018-07-12T10:43:57Z</time>
      </trkpt>
      <trkpt lat="45.94812" lon="4.74177">
        <ele>189</ele>
        <time>2018-07-12T10:43:58Z</time>
      </trkpt>
      <trkpt lat="45.94808" lon="4.7417">
        <ele>189</ele>
        <time>2018-07-12T10:43:59Z</time>
      </trkpt>
      <trkpt lat="45.94804" lon="4.74164">
        <ele>189</ele>
        <time>2018-07-12T10:44:00Z</time>
      </trkpt>
      <trkpt lat="45.94799" lon="4.74157">
        <ele>189</ele>
        <time>2018-07-12T10:44:01Z</time>
      </trkpt>
      <trkpt lat="45.94794" lon="4.74149">
        <ele>189</ele>
        <time>2018-07-12T10:44:02Z</time>
      </trkpt>
      <trkpt lat="45.9479" lon="4.74142">
        <ele>189</ele>
        <time>2018-07-12T10:44:03Z</time>
      </trkpt>
      <trkpt lat="45.94786" lon="4.74135">
        <ele>189</ele>
        <time>2018-07-12T10:44:04Z</time>
      </trkpt>
      <trkpt lat="45.94782" lon="4.74128">
        <ele>189</ele>
        <time>2018-07-12T10:44:05Z</time>
      </trkpt>
      <trkpt lat="45.94779" lon="4.74121">
        <ele>189</ele>
        <time>2018-07-12T10:44:06Z</time>
      </trkpt>
      <trkpt lat="45.94775" lon="4.74114">
        <ele>189</ele>
        <time>2018-07-12T10:44:07Z</time>
      </trkpt>
      <trkpt lat="45.94772" lon="4.74108">
        <ele>189</ele>
        <time>2018-07-12T10:44:08Z</time>
      </trkpt>
      <trkpt lat="45.94769" lon="4.74103">
        <ele>189</ele>
        <time>2018-07-12T10:44:09Z</time>
      </trkpt>
      <trkpt lat="45.94764" lon="4.74096">
        <ele>189</ele>
        <time>2018-07-12T10:44:10Z</time>
      </trkpt>
      <trkpt lat="45.9476" lon="4.7409">
        <ele>189</ele>
        <time>2018-07-12T10:44:11Z</time>
      </trkpt>
      <trkpt lat="45.94756" lon="4.74084">
        <ele>189</ele>
        <time>2018-07-12T10:44:12Z</time>
      </trkpt>
      <trkpt lat="45.94753" lon="4.74078">
        <ele>189</ele>
        <time>2018-07-12T10:44:13Z</time>
      </trkpt>
      <trkpt lat="45.94749" lon="4.74073">
        <ele>188</ele>
        <time>2018-07-12T10:44:14Z</time>
      </trkpt>
      <trkpt lat="45.94745" lon="4.74067">
        <ele>188</ele>
        <time>2018-07-12T10:44:15Z</time>
      </trkpt>
      <trkpt lat="45.9474" lon="4.74061">
        <ele>188</ele>
        <time>2018-07-12T10:44:16Z</time>
      </trkpt>
      <trkpt lat="45.94735" lon="4.74055">
        <ele>188</ele>
        <time>2018-07-12T10:44:17Z</time>
      </trkpt>
      <trkpt lat="45.94731" lon="4.74049">
        <ele>188</ele>
        <time>2018-07-12T10:44:18Z</time>
      </trkpt>
      <trkpt lat="45.94724" lon="4.74044">
        <ele>187</ele>
        <time>2018-07-12T10:44:19Z</time>
      </trkpt>
      <trkpt lat="45.9472" lon="4.74038">
        <ele>187</ele>
        <time>2018-07-12T10:44:20Z</time>
      </trkpt>
      <trkpt lat="45.94715" lon="4.74031">
        <ele>187</ele>
        <time>2018-07-12T10:44:21Z</time>
      </trkpt>
      <trkpt lat="45.94711" lon="4.74026">
        <ele>187</ele>
        <time>2018-07-12T10:44:22Z</time>
      </trkpt>
      <trkpt lat="45.94707" lon="4.7402">
        <ele>187</ele>
        <time>2018-07-12T10:44:23Z</time>
      </trkpt>
      <trkpt lat="45.94703" lon="4.74014">
        <ele>187</ele>
        <time>2018-07-12T10:44:24Z</time>
      </trkpt>
      <trkpt lat="45.947" lon="4.7401">
        <ele>187</ele>
        <time>2018-07-12T10:44:25Z</time>
      </trkpt>
      <trkpt lat="45.94696" lon="4.74005">
        <ele>187</ele>
        <time>2018-07-12T10:44:26Z</time>
      </trkpt>
      <trkpt lat="45.94692" lon="4.74">
        <ele>187</ele>
        <time>2018-07-12T10:44:27Z</time>
      </trkpt>
      <trkpt lat="45.94688" lon="4.73994">
        <ele>187</ele>
        <time>2018-07-12T10:44:28Z</time>
      </trkpt>
      <trkpt lat="45.94684" lon="4.73988">
        <ele>187</ele>
        <time>2018-07-12T10:44:29Z</time>
      </trkpt>
      <trkpt lat="45.94679" lon="4.73982">
        <ele>187</ele>
        <time>2018-07-12T10:44:30Z</time>
      </trkpt>
      <trkpt lat="45.94673" lon="4.73975">
        <ele>187</ele>
        <time>2018-07-12T10:44:31Z</time>
      </trkpt>
      <trkpt lat="45.94669" lon="4.73969">
        <ele>187</ele>
        <time>2018-07-12T10:44:32Z</time>
      </trkpt>
      <trkpt lat="45.94664" lon="4.73962">
        <ele>187</ele>
        <time>2018-07-12T10:44:33Z</time>
      </trkpt>
      <trkpt lat="45.9466" lon="4.73955">
        <ele>187</ele>
        <time>2018-07-12T10:44:34Z</time>
      </trkpt>
      <trkpt lat="45.94653" lon="4.73948">
        <ele>187</ele>
        <time>2018-07-12T10:44:35Z</time>
      </trkpt>
      <trkpt lat="45.94648" lon="4.73942">
        <ele>187</ele>
        <time>2018-07-12T10:44:36Z</time>
      </trkpt>
      <trkpt lat="45.94643" lon="4.73936">
        <ele>187</ele>
        <time>2018-07-12T10:44:37Z</time>
      </trkpt>
      <trkpt lat="45.94639" lon="4.73931">
        <ele>187</ele>
        <time>2018-07-12T10:44:38Z</time>
      </trkpt>
      <trkpt lat="45.94634" lon="4.73925">
        <ele>187</ele>
        <time>2018-07-12T10:44:39Z</time>
      </trkpt>
      <trkpt lat="45.94629" lon="4.7392">
        <ele>187</ele>
        <time>2018-07-12T10:44:40Z</time>
      </trkpt>
      <trkpt lat="45.94624" lon="4.73915">
        <ele>187</ele>
        <time>2018-07-12T10:44:41Z</time>
      </trkpt>
      <trkpt lat="45.94621" lon="4.73908">
        <ele>187</ele>
        <time>2018-07-12T10:44:42Z</time>
      </trkpt>
      <trkpt lat="45.94616" lon="4.73901">
        <ele>187</ele>
        <time>2018-07-12T10:44:43Z</time>
      </trkpt>
      <trkpt lat="45.94613" lon="4.73896">
        <ele>187</ele>
        <time>2018-07-12T10:44:44Z</time>
      </trkpt>
      <trkpt lat="45.94608" lon="4.7389">
        <ele>187</ele>
        <time>2018-07-12T10:44:45Z</time>
      </trkpt>
      <trkpt lat="45.94604" lon="4.73885">
        <ele>187</ele>
        <time>2018-07-12T10:44:46Z</time>
      </trkpt>
      <trkpt lat="45.94599" lon="4.73879">
        <ele>187</ele>
        <time>2018-07-12T10:44:47Z</time>
      </trkpt>
      <trkpt lat="45.94595" lon="4.73873">
        <ele>187</ele>
        <time>2018-07-12T10:44:48Z</time>
      </trkpt>
      <trkpt lat="45.9459" lon="4.73868">
        <ele>187</ele>
        <time>2018-07-12T10:44:49Z</time>
      </trkpt>
      <trkpt lat="45.94585" lon="4.73864">
        <ele>187</ele>
        <time>2018-07-12T10:44:50Z</time>
      </trkpt>
      <trkpt lat="45.94579" lon="4.73859">
        <ele>186</ele>
        <time>2018-07-12T10:44:51Z</time>
      </trkpt>
      <trkpt lat="45.94573" lon="4.73854">
        <ele>186</ele>
        <time>2018-07-12T10:44:52Z</time>
      </trkpt>
      <trkpt lat="45.94568" lon="4.73849">
        <ele>186</ele>
        <time>2018-07-12T10:44:53Z</time>
      </trkpt>
      <trkpt lat="45.94564" lon="4.73845">
        <ele>186</ele>
        <time>2018-07-12T10:44:54Z</time>
      </trkpt>
      <trkpt lat="45.94559" lon="4.7384">
        <ele>186</ele>
        <time>2018-07-12T10:44:55Z</time>
      </trkpt>
      <trkpt lat="45.94553" lon="4.73835">
        <ele>186</ele>
        <time>2018-07-12T10:44:56Z</time>
      </trkpt>
      <trkpt lat="45.94548" lon="4.7383">
        <ele>186</ele>
        <time>2018-07-12T10:44:57Z</time>
      </trkpt>
      <trkpt lat="45.94542" lon="4.73824">
        <ele>186</ele>
        <time>2018-07-12T10:44:58Z</time>
      </trkpt>
      <trkpt lat="45.94537" lon="4.73819">
        <ele>186</ele>
        <time>2018-07-12T10:44:59Z</time>
      </trkpt>
      <trkpt lat="45.94532" lon="4.73814">
        <ele>186</ele>
        <time>2018-07-12T10:45:00Z</time>
      </trkpt>
      <trkpt lat="45.94527" lon="4.73809">
        <ele>186</ele>
        <time>2018-07-12T10:45:01Z</time>
      </trkpt>
      <trkpt lat="45.94521" lon="4.73804">
        <ele>186</ele>
        <time>2018-07-12T10:45:02Z</time>
      </trkpt>
      <trkpt lat="45.94516" lon="4.73799">
        <ele>186</ele>
        <time>2018-07-12T10:45:03Z</time>
      </trkpt>
      <trkpt lat="45.9451" lon="4.73795">
        <ele>186</ele>
        <time>2018-07-12T10:45:04Z</time>
      </trkpt>
      <trkpt lat="45.94505" lon="4.73789">
        <ele>186</ele>
        <time>2018-07-12T10:45:05Z</time>
      </trkpt>
      <trkpt lat="45.94501" lon="4.73783">
        <ele>186</ele>
        <time>2018-07-12T10:45:06Z</time>
      </trkpt>
      <trkpt lat="45.94495" lon="4.73778">
        <ele>186</ele>
        <time>2018-07-12T10:45:07Z</time>
      </trkpt>
      <trkpt lat="45.94491" lon="4.73772">
        <ele>186</ele>
        <time>2018-07-12T10:45:08Z</time>
      </trkpt>
      <trkpt lat="45.94488" lon="4.73764">
        <ele>186</ele>
        <time>2018-07-12T10:45:09Z</time>
      </trkpt>
      <trkpt lat="45.94486" lon="4.73757">
        <ele>186</ele>
        <time>2018-07-12T10:45:10Z</time>
      </trkpt>
      <trkpt lat="45.94484" lon="4.73749">
        <ele>186</ele>
        <time>2018-07-12T10:45:11Z</time>
      </trkpt>
      <trkpt lat="45.94484" lon="4.7374">
        <ele>186</ele>
        <time>2018-07-12T10:45:12Z</time>
      </trkpt>
      <trkpt lat="45.94484" lon="4.73731">
        <ele>186</ele>
        <time>2018-07-12T10:45:13Z</time>
      </trkpt>
      <trkpt lat="45.94485" lon="4.73723">
        <ele>186</ele>
        <time>2018-07-12T10:45:14Z</time>
      </trkpt>
      <trkpt lat="45.94484" lon="4.73711">
        <ele>186</ele>
        <time>2018-07-12T10:45:15Z</time>
      </trkpt>
      <trkpt lat="45.94485" lon="4.73703">
        <ele>186</ele>
        <time>2018-07-12T10:45:16Z</time>
      </trkpt>
      <trkpt lat="45.94487" lon="4.73692">
        <ele>186</ele>
        <time>2018-07-12T10:45:17Z</time>
      </trkpt>
      <trkpt lat="45.9449" lon="4.73683">
        <ele>186</ele>
        <time>2018-07-12T10:45:18Z</time>
      </trkpt>
      <trkpt lat="45.94492" lon="4.73674">
        <ele>185</ele>
        <time>2018-07-12T10:45:19Z</time>
      </trkpt>
      <trkpt lat="45.94494" lon="4.73665">
        <ele>185</ele>
        <time>2018-07-12T10:45:20Z</time>
      </trkpt>
      <trkpt lat="45.94496" lon="4.73655">
        <ele>185</ele>
        <time>2018-07-12T10:45:21Z</time>
      </trkpt>
      <trkpt lat="45.94497" lon="4.73647">
        <ele>185</ele>
        <time>2018-07-12T10:45:22Z</time>
      </trkpt>
      <trkpt lat="45.94498" lon="4.73639">
        <ele>186</ele>
        <time>2018-07-12T10:45:23Z</time>
      </trkpt>
      <trkpt lat="45.94499" lon="4.7363">
        <ele>186</ele>
        <time>2018-07-12T10:45:24Z</time>
      </trkpt>
      <trkpt lat="45.94499" lon="4.7362">
        <ele>186</ele>
        <time>2018-07-12T10:45:25Z</time>
      </trkpt>
      <trkpt lat="45.945" lon="4.7361">
        <ele>186</ele>
        <time>2018-07-12T10:45:26Z</time>
      </trkpt>
      <trkpt lat="45.94501" lon="4.73602">
        <ele>184</ele>
        <time>2018-07-12T10:45:27Z</time>
      </trkpt>
      <trkpt lat="45.94502" lon="4.73593">
        <ele>185</ele>
        <time>2018-07-12T10:45:28Z</time>
      </trkpt>
      <trkpt lat="45.94501" lon="4.73582">
        <ele>185</ele>
        <time>2018-07-12T10:45:29Z</time>
      </trkpt>
      <trkpt lat="45.94502" lon="4.73573">
        <ele>184</ele>
        <time>2018-07-12T10:45:30Z</time>
      </trkpt>
      <trkpt lat="45.945" lon="4.73566">
        <ele>185</ele>
        <time>2018-07-12T10:45:31Z</time>
      </trkpt>
      <trkpt lat="45.94502" lon="4.73558">
        <ele>184</ele>
        <time>2018-07-12T10:45:32Z</time>
      </trkpt>
      <trkpt lat="45.94502" lon="4.73548">
        <ele>183</ele>
        <time>2018-07-12T10:45:33Z</time>
      </trkpt>
      <trkpt lat="45.94502" lon="4.73538">
        <ele>183</ele>
        <time>2018-07-12T10:45:34Z</time>
      </trkpt>
      <trkpt lat="45.94502" lon="4.73528">
        <ele>183</ele>
        <time>2018-07-12T10:45:35Z</time>
      </trkpt>
      <trkpt lat="45.94503" lon="4.73521">
        <ele>183</ele>
        <time>2018-07-12T10:45:36Z</time>
      </trkpt>
      <trkpt lat="45.94503" lon="4.73512">
        <ele>183</ele>
        <time>2018-07-12T10:45:37Z</time>
      </trkpt>
      <trkpt lat="45.94506" lon="4.73503">
        <ele>183</ele>
        <time>2018-07-12T10:45:38Z</time>
      </trkpt>
      <trkpt lat="45.94507" lon="4.73493">
        <ele>182</ele>
        <time>2018-07-12T10:45:39Z</time>
      </trkpt>
      <trkpt lat="45.94507" lon="4.73482">
        <ele>182</ele>
        <time>2018-07-12T10:45:40Z</time>
      </trkpt>
      <trkpt lat="45.94507" lon="4.73471">
        <ele>182</ele>
        <time>2018-07-12T10:45:41Z</time>
      </trkpt>
      <trkpt lat="45.94507" lon="4.73461">
        <ele>181</ele>
        <time>2018-07-12T10:45:42Z</time>
      </trkpt>
      <trkpt lat="45.94506" lon="4.7345">
        <ele>181</ele>
        <time>2018-07-12T10:45:43Z</time>
      </trkpt>
      <trkpt lat="45.94505" lon="4.73438">
        <ele>181</ele>
        <time>2018-07-12T10:45:44Z</time>
      </trkpt>
      <trkpt lat="45.94505" lon="4.73426">
        <ele>180</ele>
        <time>2018-07-12T10:45:45Z</time>
      </trkpt>
      <trkpt lat="45.94505" lon="4.73415">
        <ele>180</ele>
        <time>2018-07-12T10:45:46Z</time>
      </trkpt>
      <trkpt lat="45.94504" lon="4.73404">
        <ele>179</ele>
        <time>2018-07-12T10:45:47Z</time>
      </trkpt>
      <trkpt lat="45.94504" lon="4.73393">
        <ele>179</ele>
        <time>2018-07-12T10:45:48Z</time>
      </trkpt>
      <trkpt lat="45.94504" lon="4.73381">
        <ele>178</ele>
        <time>2018-07-12T10:45:49Z</time>
      </trkpt>
      <trkpt lat="45.94504" lon="4.7337">
        <ele>178</ele>
        <time>2018-07-12T10:45:50Z</time>
      </trkpt>
      <trkpt lat="45.94503" lon="4.73359">
        <ele>178</ele>
        <time>2018-07-12T10:45:51Z</time>
      </trkpt>
      <trkpt lat="45.94502" lon="4.73347">
        <ele>178</ele>
        <time>2018-07-12T10:45:52Z</time>
      </trkpt>
      <trkpt lat="45.94501" lon="4.73339">
        <ele>177</ele>
        <time>2018-07-12T10:45:53Z</time>
      </trkpt>
      <trkpt lat="45.94499" lon="4.73326">
        <ele>177</ele>
        <time>2018-07-12T10:45:54Z</time>
      </trkpt>
      <trkpt lat="45.94498" lon="4.73315">
        <ele>177</ele>
        <time>2018-07-12T10:45:55Z</time>
      </trkpt>
      <trkpt lat="45.94496" lon="4.73303">
        <ele>177</ele>
        <time>2018-07-12T10:45:56Z</time>
      </trkpt>
      <trkpt lat="45.94487" lon="4.7329">
        <ele>177</ele>
        <time>2018-07-12T10:45:57Z</time>
      </trkpt>
      <trkpt lat="45.94485" lon="4.73278">
        <ele>177</ele>
        <time>2018-07-12T10:45:58Z</time>
      </trkpt>
      <trkpt lat="45.94483" lon="4.73267">
        <ele>177</ele>
        <time>2018-07-12T10:45:59Z</time>
      </trkpt>
      <trkpt lat="45.94482" lon="4.73254">
        <ele>176</ele>
        <time>2018-07-12T10:46:00Z</time>
      </trkpt>
      <trkpt lat="45.94481" lon="4.73244">
        <ele>175</ele>
        <time>2018-07-12T10:46:01Z</time>
      </trkpt>
      <trkpt lat="45.9448" lon="4.73232">
        <ele>175</ele>
        <time>2018-07-12T10:46:02Z</time>
      </trkpt>
      <trkpt lat="45.94478" lon="4.7322">
        <ele>175</ele>
        <time>2018-07-12T10:46:03Z</time>
      </trkpt>
      <trkpt lat="45.94478" lon="4.73209">
        <ele>175</ele>
        <time>2018-07-12T10:46:04Z</time>
      </trkpt>
      <trkpt lat="45.94477" lon="4.73198">
        <ele>174</ele>
        <time>2018-07-12T10:46:05Z</time>
      </trkpt>
      <trkpt lat="45.94475" lon="4.73186">
        <ele>174</ele>
        <time>2018-07-12T10:46:06Z</time>
      </trkpt>
      <trkpt lat="45.94473" lon="4.73174">
        <ele>174</ele>
        <time>2018-07-12T10:46:07Z</time>
      </trkpt>
      <trkpt lat="45.94471" lon="4.73163">
        <ele>173</ele>
        <time>2018-07-12T10:46:08Z</time>
      </trkpt>
      <trkpt lat="45.94471" lon="4.73151">
        <ele>172</ele>
        <time>2018-07-12T10:46:09Z</time>
      </trkpt>
      <trkpt lat="45.94468" lon="4.7314">
        <ele>172</ele>
        <time>2018-07-12T10:46:10Z</time>
      </trkpt>
      <trkpt lat="45.94467" lon="4.7313">
        <ele>172</ele>
        <time>2018-07-12T10:46:11Z</time>
      </trkpt>
      <trkpt lat="45.94463" lon="4.73119">
        <ele>172</ele>
        <time>2018-07-12T10:46:12Z</time>
      </trkpt>
      <trkpt lat="45.94461" lon="4.7311">
        <ele>172</ele>
        <time>2018-07-12T10:46:13Z</time>
      </trkpt>
      <trkpt lat="45.94458" lon="4.73098">
        <ele>171</ele>
        <time>2018-07-12T10:46:14Z</time>
      </trkpt>
      <trkpt lat="45.94457" lon="4.73089">
        <ele>171</ele>
        <time>2018-07-12T10:46:15Z</time>
      </trkpt>
      <trkpt lat="45.94457" lon="4.7308">
        <ele>170</ele>
        <time>2018-07-12T10:46:16Z</time>
      </trkpt>
      <trkpt lat="45.94457" lon="4.73072">
        <ele>170</ele>
        <time>2018-07-12T10:46:17Z</time>
      </trkpt>
      <trkpt lat="45.94457" lon="4.73064">
        <ele>170</ele>
        <time>2018-07-12T10:46:18Z</time>
      </trkpt>
      <trkpt lat="45.94456" lon="4.73055">
        <ele>170</ele>
        <time>2018-07-12T10:46:19Z</time>
      </trkpt>
      <trkpt lat="45.94454" lon="4.73047">
        <ele>169</ele>
        <time>2018-07-12T10:46:20Z</time>
      </trkpt>
      <trkpt lat="45.94453" lon="4.73039">
        <ele>169</ele>
        <time>2018-07-12T10:46:21Z</time>
      </trkpt>
      <trkpt lat="45.94452" lon="4.73031">
        <ele>169</ele>
        <time>2018-07-12T10:46:22Z</time>
      </trkpt>
      <trkpt lat="45.94451" lon="4.73023">
        <ele>169</ele>
        <time>2018-07-12T10:46:23Z</time>
      </trkpt>
      <trkpt lat="45.9445" lon="4.73016">
        <ele>169</ele>
        <time>2018-07-12T10:46:24Z</time>
      </trkpt>
      <trkpt lat="45.94449" lon="4.73007">
        <ele>169</ele>
        <time>2018-07-12T10:46:25Z</time>
      </trkpt>
      <trkpt lat="45.94448" lon="4.73">
        <ele>167</ele>
        <time>2018-07-12T10:46:26Z</time>
      </trkpt>
      <trkpt lat="45.94452" lon="4.72994">
        <ele>167</ele>
        <time>2018-07-12T10:46:27Z</time>
      </trkpt>
      <trkpt lat="45.94451" lon="4.72987">
        <ele>167</ele>
        <time>2018-07-12T10:46:28Z</time>
      </trkpt>
      <trkpt lat="45.9445" lon="4.72979">
        <ele>167</ele>
        <time>2018-07-12T10:46:29Z</time>
      </trkpt>
      <trkpt lat="45.9445" lon="4.72972">
        <ele>167</ele>
        <time>2018-07-12T10:46:30Z</time>
      </trkpt>
      <trkpt lat="45.94447" lon="4.72964">
        <ele>167</ele>
        <time>2018-07-12T10:46:31Z</time>
      </trkpt>
      <trkpt lat="45.94446" lon="4.72957">
        <ele>167</ele>
        <time>2018-07-12T10:46:32Z</time>
      </trkpt>
      <trkpt lat="45.94446" lon="4.72949">
        <ele>167</ele>
        <time>2018-07-12T10:46:33Z</time>
      </trkpt>
      <trkpt lat="45.94443" lon="4.72942">
        <ele>167</ele>
        <time>2018-07-12T10:46:34Z</time>
      </trkpt>
      <trkpt lat="45.94442" lon="4.72935">
        <ele>167</ele>
        <time>2018-07-12T10:46:35Z</time>
      </trkpt>
      <trkpt lat="45.94441" lon="4.72927">
        <ele>167</ele>
        <time>2018-07-12T10:46:36Z</time>
      </trkpt>
      <trkpt lat="45.9444" lon="4.7292">
        <ele>167</ele>
        <time>2018-07-12T10:46:37Z</time>
      </trkpt>
      <trkpt lat="45.94438" lon="4.72908">
        <ele>166</ele>
        <time>2018-07-12T10:46:39Z</time>
      </trkpt>
      <trkpt lat="45.94438" lon="4.72901">
        <ele>166</ele>
        <time>2018-07-12T10:46:40Z</time>
      </trkpt>
      <trkpt lat="45.94438" lon="4.72895">
        <ele>166</ele>
        <time>2018-07-12T10:46:41Z</time>
      </trkpt>
      <trkpt lat="45.94437" lon="4.72886">
        <ele>166</ele>
        <time>2018-07-12T10:46:42Z</time>
      </trkpt>
      <trkpt lat="45.94436" lon="4.72879">
        <ele>166</ele>
        <time>2018-07-12T10:46:43Z</time>
      </trkpt>
      <trkpt lat="45.94435" lon="4.72872">
        <ele>166</ele>
        <time>2018-07-12T10:46:44Z</time>
      </trkpt>
      <trkpt lat="45.94432" lon="4.72865">
        <ele>166</ele>
        <time>2018-07-12T10:46:45Z</time>
      </trkpt>
      <trkpt lat="45.94431" lon="4.72858">
        <ele>166</ele>
        <time>2018-07-12T10:46:46Z</time>
      </trkpt>
      <trkpt lat="45.9443" lon="4.7285">
        <ele>166</ele>
        <time>2018-07-12T10:46:47Z</time>
      </trkpt>
      <trkpt lat="45.9443" lon="4.72841">
        <ele>166</ele>
        <time>2018-07-12T10:46:48Z</time>
      </trkpt>
      <trkpt lat="45.94428" lon="4.72832">
        <ele>166</ele>
        <time>2018-07-12T10:46:49Z</time>
      </trkpt>
      <trkpt lat="45.94427" lon="4.72823">
        <ele>167</ele>
        <time>2018-07-12T10:46:50Z</time>
      </trkpt>
      <trkpt lat="45.94426" lon="4.72813">
        <ele>167</ele>
        <time>2018-07-12T10:46:51Z</time>
      </trkpt>
      <trkpt lat="45.94425" lon="4.72804">
        <ele>167</ele>
        <time>2018-07-12T10:46:52Z</time>
      </trkpt>
      <trkpt lat="45.94425" lon="4.72795">
        <ele>168</ele>
        <time>2018-07-12T10:46:53Z</time>
      </trkpt>
      <trkpt lat="45.94423" lon="4.72784">
        <ele>168</ele>
        <time>2018-07-12T10:46:54Z</time>
      </trkpt>
      <trkpt lat="45.94423" lon="4.72774">
        <ele>169</ele>
        <time>2018-07-12T10:46:55Z</time>
      </trkpt>
      <trkpt lat="45.94422" lon="4.72764">
        <ele>169</ele>
        <time>2018-07-12T10:46:56Z</time>
      </trkpt>
      <trkpt lat="45.9442" lon="4.72753">
        <ele>170</ele>
        <time>2018-07-12T10:46:57Z</time>
      </trkpt>
      <trkpt lat="45.94419" lon="4.72742">
        <ele>171</ele>
        <time>2018-07-12T10:46:58Z</time>
      </trkpt>
      <trkpt lat="45.94418" lon="4.72732">
        <ele>171</ele>
        <time>2018-07-12T10:46:59Z</time>
      </trkpt>
      <trkpt lat="45.94416" lon="4.72722">
        <ele>172</ele>
        <time>2018-07-12T10:47:00Z</time>
      </trkpt>
      <trkpt lat="45.94414" lon="4.72711">
        <ele>172</ele>
        <time>2018-07-12T10:47:01Z</time>
      </trkpt>
      <trkpt lat="45.94413" lon="4.72701">
        <ele>172</ele>
        <time>2018-07-12T10:47:02Z</time>
      </trkpt>
      <trkpt lat="45.94413" lon="4.72689">
        <ele>173</ele>
        <time>2018-07-12T10:47:03Z</time>
      </trkpt>
      <trkpt lat="45.94411" lon="4.72678">
        <ele>173</ele>
        <time>2018-07-12T10:47:04Z</time>
      </trkpt>
      <trkpt lat="45.94409" lon="4.72668">
        <ele>173</ele>
        <time>2018-07-12T10:47:05Z</time>
      </trkpt>
      <trkpt lat="45.94408" lon="4.72657">
        <ele>174</ele>
        <time>2018-07-12T10:47:06Z</time>
      </trkpt>
      <trkpt lat="45.94407" lon="4.72647">
        <ele>174</ele>
        <time>2018-07-12T10:47:07Z</time>
      </trkpt>
      <trkpt lat="45.94406" lon="4.72636">
        <ele>174</ele>
        <time>2018-07-12T10:47:08Z</time>
      </trkpt>
      <trkpt lat="45.94406" lon="4.72625">
        <ele>174</ele>
        <time>2018-07-12T10:47:09Z</time>
      </trkpt>
      <trkpt lat="45.94405" lon="4.72617">
        <ele>173</ele>
        <time>2018-07-12T10:47:10Z</time>
      </trkpt>
      <trkpt lat="45.94405" lon="4.72607">
        <ele>173</ele>
        <time>2018-07-12T10:47:11Z</time>
      </trkpt>
      <trkpt lat="45.94405" lon="4.72599">
        <ele>173</ele>
        <time>2018-07-12T10:47:12Z</time>
      </trkpt>
      <trkpt lat="45.94403" lon="4.7259">
        <ele>173</ele>
        <time>2018-07-12T10:47:13Z</time>
      </trkpt>
      <trkpt lat="45.94404" lon="4.72583">
        <ele>173</ele>
        <time>2018-07-12T10:47:14Z</time>
      </trkpt>
      <trkpt lat="45.94403" lon="4.72575">
        <ele>173</ele>
        <time>2018-07-12T10:47:15Z</time>
      </trkpt>
      <trkpt lat="45.944" lon="4.72565">
        <ele>173</ele>
        <time>2018-07-12T10:47:16Z</time>
      </trkpt>
      <trkpt lat="45.94398" lon="4.72556">
        <ele>173</ele>
        <time>2018-07-12T10:47:17Z</time>
      </trkpt>
      <trkpt lat="45.94395" lon="4.72545">
        <ele>173</ele>
        <time>2018-07-12T10:47:18Z</time>
      </trkpt>
      <trkpt lat="45.94392" lon="4.72535">
        <ele>174</ele>
        <time>2018-07-12T10:47:19Z</time>
      </trkpt>
      <trkpt lat="45.94391" lon="4.72526">
        <ele>174</ele>
        <time>2018-07-12T10:47:20Z</time>
      </trkpt>
      <trkpt lat="45.94387" lon="4.72517">
        <ele>174</ele>
        <time>2018-07-12T10:47:21Z</time>
      </trkpt>
      <trkpt lat="45.94385" lon="4.72509">
        <ele>174</ele>
        <time>2018-07-12T10:47:22Z</time>
      </trkpt>
      <trkpt lat="45.94382" lon="4.725">
        <ele>174</ele>
        <time>2018-07-12T10:47:23Z</time>
      </trkpt>
      <trkpt lat="45.9438" lon="4.72494">
        <ele>173</ele>
        <time>2018-07-12T10:47:24Z</time>
      </trkpt>
      <trkpt lat="45.94377" lon="4.72484">
        <ele>173</ele>
        <time>2018-07-12T10:47:25Z</time>
      </trkpt>
      <trkpt lat="45.94373" lon="4.72475">
        <ele>173</ele>
        <time>2018-07-12T10:47:26Z</time>
      </trkpt>
      <trkpt lat="45.9437" lon="4.72468">
        <ele>173</ele>
        <time>2018-07-12T10:47:27Z</time>
      </trkpt>
      <trkpt lat="45.94367" lon="4.72459">
        <ele>173</ele>
        <time>2018-07-12T10:47:28Z</time>
      </trkpt>
      <trkpt lat="45.94363" lon="4.72451">
        <ele>173</ele>
        <time>2018-07-12T10:47:29Z</time>
      </trkpt>
      <trkpt lat="45.9436" lon="4.72444">
        <ele>173</ele>
        <time>2018-07-12T10:47:30Z</time>
      </trkpt>
      <trkpt lat="45.94355" lon="4.72434">
        <ele>173</ele>
        <time>2018-07-12T10:47:31Z</time>
      </trkpt>
      <trkpt lat="45.94351" lon="4.72426">
        <ele>173</ele>
        <time>2018-07-12T10:47:32Z</time>
      </trkpt>
      <trkpt lat="45.94348" lon="4.72416">
        <ele>173</ele>
        <time>2018-07-12T10:47:33Z</time>
      </trkpt>
      <trkpt lat="45.94346" lon="4.7241">
        <ele>173</ele>
        <time>2018-07-12T10:47:34Z</time>
      </trkpt>
      <trkpt lat="45.94342" lon="4.72402">
        <ele>173</ele>
        <time>2018-07-12T10:47:35Z</time>
      </trkpt>
      <trkpt lat="45.94337" lon="4.72395">
        <ele>172</ele>
        <time>2018-07-12T10:47:36Z</time>
      </trkpt>
      <trkpt lat="45.94333" lon="4.72385">
        <ele>172</ele>
        <time>2018-07-12T10:47:37Z</time>
      </trkpt>
      <trkpt lat="45.94329" lon="4.72377">
        <ele>172</ele>
        <time>2018-07-12T10:47:38Z</time>
      </trkpt>
      <trkpt lat="45.94325" lon="4.72366">
        <ele>172</ele>
        <time>2018-07-12T10:47:39Z</time>
      </trkpt>
      <trkpt lat="45.94321" lon="4.72358">
        <ele>172</ele>
        <time>2018-07-12T10:47:40Z</time>
      </trkpt>
      <trkpt lat="45.94319" lon="4.72348">
        <ele>172</ele>
        <time>2018-07-12T10:47:41Z</time>
      </trkpt>
      <trkpt lat="45.94315" lon="4.7234">
        <ele>172</ele>
        <time>2018-07-12T10:47:42Z</time>
      </trkpt>
      <trkpt lat="45.9431" lon="4.72335">
        <ele>172</ele>
        <time>2018-07-12T10:47:43Z</time>
      </trkpt>
      <trkpt lat="45.94306" lon="4.72327">
        <ele>171</ele>
        <time>2018-07-12T10:47:44Z</time>
      </trkpt>
      <trkpt lat="45.94302" lon="4.72319">
        <ele>171</ele>
        <time>2018-07-12T10:47:45Z</time>
      </trkpt>
      <trkpt lat="45.94298" lon="4.72312">
        <ele>171</ele>
        <time>2018-07-12T10:47:46Z</time>
      </trkpt>
      <trkpt lat="45.94295" lon="4.72304">
        <ele>171</ele>
        <time>2018-07-12T10:47:47Z</time>
      </trkpt>
      <trkpt lat="45.94291" lon="4.72297">
        <ele>171</ele>
        <time>2018-07-12T10:47:48Z</time>
      </trkpt>
      <trkpt lat="45.94289" lon="4.72289">
        <ele>171</ele>
        <time>2018-07-12T10:47:49Z</time>
      </trkpt>
      <trkpt lat="45.94287" lon="4.72283">
        <ele>171</ele>
        <time>2018-07-12T10:47:50Z</time>
      </trkpt>
      <trkpt lat="45.94283" lon="4.72274">
        <ele>171</ele>
        <time>2018-07-12T10:47:54Z</time>
      </trkpt>
      <trkpt lat="45.94282" lon="4.72272">
        <ele>171</ele>
        <time>2018-07-12T10:47:55Z</time>
      </trkpt>
      <trkpt lat="45.94276" lon="4.72265">
        <ele>171</ele>
        <time>2018-07-12T10:47:59Z</time>
      </trkpt>
      <trkpt lat="45.94269" lon="4.72264">
        <ele>171</ele>
        <time>2018-07-12T10:48:00Z</time>
      </trkpt>
      <trkpt lat="45.94262" lon="4.72272">
        <ele>171</ele>
        <time>2018-07-12T10:48:02Z</time>
      </trkpt>
      <trkpt lat="45.94259" lon="4.72275">
        <ele>171</ele>
        <time>2018-07-12T10:48:03Z</time>
      </trkpt>
      <trkpt lat="45.94255" lon="4.72278">
        <ele>171</ele>
        <time>2018-07-12T10:48:04Z</time>
      </trkpt>
      <trkpt lat="45.94251" lon="4.72281">
        <ele>171</ele>
        <time>2018-07-12T10:48:05Z</time>
      </trkpt>
      <trkpt lat="45.94246" lon="4.72283">
        <ele>171</ele>
        <time>2018-07-12T10:48:06Z</time>
      </trkpt>
      <trkpt lat="45.94241" lon="4.72285">
        <ele>171</ele>
        <time>2018-07-12T10:48:07Z</time>
      </trkpt>
      <trkpt lat="45.94236" lon="4.72287">
        <ele>171</ele>
        <time>2018-07-12T10:48:08Z</time>
      </trkpt>
      <trkpt lat="45.94231" lon="4.72288">
        <ele>171</ele>
        <time>2018-07-12T10:48:09Z</time>
      </trkpt>
      <trkpt lat="45.94226" lon="4.72289">
        <ele>171</ele>
        <time>2018-07-12T10:48:10Z</time>
      </trkpt>
      <trkpt lat="45.9422" lon="4.7229">
        <ele>171</ele>
        <time>2018-07-12T10:48:11Z</time>
      </trkpt>
      <trkpt lat="45.94214" lon="4.72291">
        <ele>171</ele>
        <time>2018-07-12T10:48:12Z</time>
      </trkpt>
      <trkpt lat="45.94208" lon="4.72291">
        <ele>171</ele>
        <time>2018-07-12T10:48:13Z</time>
      </trkpt>
      <trkpt lat="45.94201" lon="4.72292">
        <ele>171</ele>
        <time>2018-07-12T10:48:14Z</time>
      </trkpt>
      <trkpt lat="45.94195" lon="4.72291">
        <ele>171</ele>
        <time>2018-07-12T10:48:15Z</time>
      </trkpt>
      <trkpt lat="45.94189" lon="4.72291">
        <ele>171</ele>
        <time>2018-07-12T10:48:16Z</time>
      </trkpt>
      <trkpt lat="45.94183" lon="4.72292">
        <ele>171</ele>
        <time>2018-07-12T10:48:17Z</time>
      </trkpt>
      <trkpt lat="45.94177" lon="4.72293">
        <ele>171</ele>
        <time>2018-07-12T10:48:18Z</time>
      </trkpt>
      <trkpt lat="45.9417" lon="4.72291">
        <ele>171</ele>
        <time>2018-07-12T10:48:19Z</time>
      </trkpt>
      <trkpt lat="45.94165" lon="4.7229">
        <ele>171</ele>
        <time>2018-07-12T10:48:20Z</time>
      </trkpt>
      <trkpt lat="45.94159" lon="4.72291">
        <ele>171</ele>
        <time>2018-07-12T10:48:21Z</time>
      </trkpt>
      <trkpt lat="45.94154" lon="4.7229">
        <ele>171</ele>
        <time>2018-07-12T10:48:22Z</time>
      </trkpt>
      <trkpt lat="45.94148" lon="4.72286">
        <ele>171</ele>
        <time>2018-07-12T10:48:23Z</time>
      </trkpt>
      <trkpt lat="45.94143" lon="4.72282">
        <ele>171</ele>
        <time>2018-07-12T10:48:24Z</time>
      </trkpt>
      <trkpt lat="45.94138" lon="4.72282">
        <ele>171</ele>
        <time>2018-07-12T10:48:25Z</time>
      </trkpt>
      <trkpt lat="45.94132" lon="4.72279">
        <ele>171</ele>
        <time>2018-07-12T10:48:26Z</time>
      </trkpt>
      <trkpt lat="45.94128" lon="4.72275">
        <ele>171</ele>
        <time>2018-07-12T10:48:27Z</time>
      </trkpt>
      <trkpt lat="45.94123" lon="4.72273">
        <ele>171</ele>
        <time>2018-07-12T10:48:28Z</time>
      </trkpt>
      <trkpt lat="45.94117" lon="4.7227">
        <ele>171</ele>
        <time>2018-07-12T10:48:29Z</time>
      </trkpt>
      <trkpt lat="45.94111" lon="4.72267">
        <ele>171</ele>
        <time>2018-07-12T10:48:30Z</time>
      </trkpt>
      <trkpt lat="45.94105" lon="4.72266">
        <ele>171</ele>
        <time>2018-07-12T10:48:31Z</time>
      </trkpt>
      <trkpt lat="45.94098" lon="4.72266">
        <ele>171</ele>
        <time>2018-07-12T10:48:32Z</time>
      </trkpt>
      <trkpt lat="45.94092" lon="4.72268">
        <ele>171</ele>
        <time>2018-07-12T10:48:33Z</time>
      </trkpt>
      <trkpt lat="45.94087" lon="4.72269">
        <ele>171</ele>
        <time>2018-07-12T10:48:34Z</time>
      </trkpt>
      <trkpt lat="45.94081" lon="4.72271">
        <ele>171</ele>
        <time>2018-07-12T10:48:35Z</time>
      </trkpt>
      <trkpt lat="45.94076" lon="4.72276">
        <ele>171</ele>
        <time>2018-07-12T10:48:36Z</time>
      </trkpt>
      <trkpt lat="45.9407" lon="4.72279">
        <ele>171</ele>
        <time>2018-07-12T10:48:37Z</time>
      </trkpt>
      <trkpt lat="45.94065" lon="4.72286">
        <ele>171</ele>
        <time>2018-07-12T10:48:38Z</time>
      </trkpt>
      <trkpt lat="45.94062" lon="4.7229">
        <ele>171</ele>
        <time>2018-07-12T10:48:39Z</time>
      </trkpt>
      <trkpt lat="45.94057" lon="4.72296">
        <ele>171</ele>
        <time>2018-07-12T10:48:40Z</time>
      </trkpt>
      <trkpt lat="45.94052" lon="4.72301">
        <ele>171</ele>
        <time>2018-07-12T10:48:41Z</time>
      </trkpt>
      <trkpt lat="45.94047" lon="4.72308">
        <ele>171</ele>
        <time>2018-07-12T10:48:42Z</time>
      </trkpt>
      <trkpt lat="45.94042" lon="4.72315">
        <ele>171</ele>
        <time>2018-07-12T10:48:43Z</time>
      </trkpt>
      <trkpt lat="45.94037" lon="4.72321">
        <ele>171</ele>
        <time>2018-07-12T10:48:44Z</time>
      </trkpt>
      <trkpt lat="45.94032" lon="4.72328">
        <ele>171</ele>
        <time>2018-07-12T10:48:45Z</time>
      </trkpt>
      <trkpt lat="45.94026" lon="4.72333">
        <ele>171</ele>
        <time>2018-07-12T10:48:46Z</time>
      </trkpt>
      <trkpt lat="45.94021" lon="4.72338">
        <ele>171</ele>
        <time>2018-07-12T10:48:47Z</time>
      </trkpt>
      <trkpt lat="45.94016" lon="4.72344">
        <ele>171</ele>
        <time>2018-07-12T10:48:48Z</time>
      </trkpt>
      <trkpt lat="45.94013" lon="4.72351">
        <ele>171</ele>
        <time>2018-07-12T10:48:49Z</time>
      </trkpt>
      <trkpt lat="45.94009" lon="4.72358">
        <ele>171</ele>
        <time>2018-07-12T10:48:50Z</time>
      </trkpt>
      <trkpt lat="45.94004" lon="4.72364">
        <ele>171</ele>
        <time>2018-07-12T10:48:51Z</time>
      </trkpt>
      <trkpt lat="45.94001" lon="4.72371">
        <ele>171</ele>
        <time>2018-07-12T10:48:52Z</time>
      </trkpt>
      <trkpt lat="45.93996" lon="4.72376">
        <ele>171</ele>
        <time>2018-07-12T10:48:53Z</time>
      </trkpt>
      <trkpt lat="45.93992" lon="4.72381">
        <ele>171</ele>
        <time>2018-07-12T10:48:54Z</time>
      </trkpt>
      <trkpt lat="45.93987" lon="4.72387">
        <ele>171</ele>
        <time>2018-07-12T10:48:55Z</time>
      </trkpt>
      <trkpt lat="45.93982" lon="4.72393">
        <ele>171</ele>
        <time>2018-07-12T10:48:56Z</time>
      </trkpt>
      <trkpt lat="45.93977" lon="4.72396">
        <ele>171</ele>
        <time>2018-07-12T10:48:57Z</time>
      </trkpt>
      <trkpt lat="45.93973" lon="4.72409">
        <ele>171</ele>
        <time>2018-07-12T10:48:58Z</time>
      </trkpt>
      <trkpt lat="45.93968" lon="4.72414">
        <ele>171</ele>
        <time>2018-07-12T10:48:59Z</time>
      </trkpt>
      <trkpt lat="45.93963" lon="4.72418">
        <ele>171</ele>
        <time>2018-07-12T10:49:00Z</time>
      </trkpt>
      <trkpt lat="45.93961" lon="4.72424">
        <ele>171</ele>
        <time>2018-07-12T10:49:01Z</time>
      </trkpt>
      <trkpt lat="45.93957" lon="4.7243">
        <ele>171</ele>
        <time>2018-07-12T10:49:02Z</time>
      </trkpt>
      <trkpt lat="45.93952" lon="4.72434">
        <ele>171</ele>
        <time>2018-07-12T10:49:03Z</time>
      </trkpt>
      <trkpt lat="45.93947" lon="4.72439">
        <ele>171</ele>
        <time>2018-07-12T10:49:04Z</time>
      </trkpt>
      <trkpt lat="45.93943" lon="4.72445">
        <ele>171</ele>
        <time>2018-07-12T10:49:05Z</time>
      </trkpt>
      <trkpt lat="45.93938" lon="4.72448">
        <ele>171</ele>
        <time>2018-07-12T10:49:06Z</time>
      </trkpt>
      <trkpt lat="45.93936" lon="4.72453">
        <ele>171</ele>
        <time>2018-07-12T10:49:07Z</time>
      </trkpt>
      <trkpt lat="45.9393" lon="4.72455">
        <ele>171</ele>
        <time>2018-07-12T10:49:08Z</time>
      </trkpt>
      <trkpt lat="45.93926" lon="4.72461">
        <ele>171</ele>
        <time>2018-07-12T10:49:09Z</time>
      </trkpt>
      <trkpt lat="45.93921" lon="4.72466">
        <ele>171</ele>
        <time>2018-07-12T10:49:10Z</time>
      </trkpt>
      <trkpt lat="45.93917" lon="4.72471">
        <ele>171</ele>
        <time>2018-07-12T10:49:11Z</time>
      </trkpt>
      <trkpt lat="45.93912" lon="4.72478">
        <ele>172</ele>
        <time>2018-07-12T10:49:12Z</time>
      </trkpt>
      <trkpt lat="45.93907" lon="4.72483">
        <ele>172</ele>
        <time>2018-07-12T10:49:13Z</time>
      </trkpt>
      <trkpt lat="45.93903" lon="4.72484">
        <ele>172</ele>
        <time>2018-07-12T10:49:14Z</time>
      </trkpt>
      <trkpt lat="45.93899" lon="4.7249">
        <ele>172</ele>
        <time>2018-07-12T10:49:15Z</time>
      </trkpt>
      <trkpt lat="45.93895" lon="4.72493">
        <ele>172</ele>
        <time>2018-07-12T10:49:16Z</time>
      </trkpt>
      <trkpt lat="45.9389" lon="4.72496">
        <ele>172</ele>
        <time>2018-07-12T10:49:17Z</time>
      </trkpt>
      <trkpt lat="45.93886" lon="4.72503">
        <ele>173</ele>
        <time>2018-07-12T10:49:18Z</time>
      </trkpt>
      <trkpt lat="45.93882" lon="4.72507">
        <ele>173</ele>
        <time>2018-07-12T10:49:19Z</time>
      </trkpt>
      <trkpt lat="45.93877" lon="4.72511">
        <ele>173</ele>
        <time>2018-07-12T10:49:20Z</time>
      </trkpt>
      <trkpt lat="45.93871" lon="4.72512">
        <ele>173</ele>
        <time>2018-07-12T10:49:21Z</time>
      </trkpt>
      <trkpt lat="45.93866" lon="4.72513">
        <ele>173</ele>
        <time>2018-07-12T10:49:22Z</time>
      </trkpt>
      <trkpt lat="45.93861" lon="4.72512">
        <ele>173</ele>
        <time>2018-07-12T10:49:23Z</time>
      </trkpt>
      <trkpt lat="45.93857" lon="4.7251">
        <ele>173</ele>
        <time>2018-07-12T10:49:24Z</time>
      </trkpt>
      <trkpt lat="45.9384" lon="4.72503">
        <ele>174</ele>
        <time>2018-07-12T10:49:28Z</time>
      </trkpt>
      <trkpt lat="45.93836" lon="4.72501">
        <ele>174</ele>
        <time>2018-07-12T10:49:29Z</time>
      </trkpt>
      <trkpt lat="45.93828" lon="4.72494">
        <ele>173</ele>
        <time>2018-07-12T10:49:30Z</time>
      </trkpt>
      <trkpt lat="45.93822" lon="4.72478">
        <ele>173</ele>
        <time>2018-07-12T10:49:31Z</time>
      </trkpt>
      <trkpt lat="45.93816" lon="4.72469">
        <ele>172</ele>
        <time>2018-07-12T10:49:33Z</time>
      </trkpt>
      <trkpt lat="45.93813" lon="4.72466">
        <ele>172</ele>
        <time>2018-07-12T10:49:34Z</time>
      </trkpt>
      <trkpt lat="45.93807" lon="4.72462">
        <ele>172</ele>
        <time>2018-07-12T10:49:35Z</time>
      </trkpt>
      <trkpt lat="45.93804" lon="4.72456">
        <ele>172</ele>
        <time>2018-07-12T10:49:36Z</time>
      </trkpt>
      <trkpt lat="45.93799" lon="4.72449">
        <ele>172</ele>
        <time>2018-07-12T10:49:37Z</time>
      </trkpt>
      <trkpt lat="45.93796" lon="4.72446">
        <ele>172</ele>
        <time>2018-07-12T10:49:38Z</time>
      </trkpt>
      <trkpt lat="45.93789" lon="4.72441">
        <ele>172</ele>
        <time>2018-07-12T10:49:39Z</time>
      </trkpt>
      <trkpt lat="45.93783" lon="4.72435">
        <ele>172</ele>
        <time>2018-07-12T10:49:40Z</time>
      </trkpt>
      <trkpt lat="45.93779" lon="4.7243">
        <ele>172</ele>
        <time>2018-07-12T10:49:41Z</time>
      </trkpt>
      <trkpt lat="45.93775" lon="4.72424">
        <ele>171</ele>
        <time>2018-07-12T10:49:42Z</time>
      </trkpt>
      <trkpt lat="45.9377" lon="4.72421">
        <ele>171</ele>
        <time>2018-07-12T10:49:43Z</time>
      </trkpt>
      <trkpt lat="45.93766" lon="4.72417">
        <ele>171</ele>
        <time>2018-07-12T10:49:44Z</time>
      </trkpt>
      <trkpt lat="45.93761" lon="4.72412">
        <ele>171</ele>
        <time>2018-07-12T10:49:45Z</time>
      </trkpt>
      <trkpt lat="45.93756" lon="4.72407">
        <ele>171</ele>
        <time>2018-07-12T10:49:46Z</time>
      </trkpt>
      <trkpt lat="45.93752" lon="4.72402">
        <ele>171</ele>
        <time>2018-07-12T10:49:47Z</time>
      </trkpt>
      <trkpt lat="45.93748" lon="4.72397">
        <ele>171</ele>
        <time>2018-07-12T10:49:48Z</time>
      </trkpt>
      <trkpt lat="45.93744" lon="4.72392">
        <ele>171</ele>
        <time>2018-07-12T10:49:49Z</time>
      </trkpt>
      <trkpt lat="45.9374" lon="4.72387">
        <ele>171</ele>
        <time>2018-07-12T10:49:50Z</time>
      </trkpt>
      <trkpt lat="45.93732" lon="4.72383">
        <ele>171</ele>
        <time>2018-07-12T10:49:52Z</time>
      </trkpt>
      <trkpt lat="45.93726" lon="4.72379">
        <ele>171</ele>
        <time>2018-07-12T10:49:53Z</time>
      </trkpt>
      <trkpt lat="45.93723" lon="4.72374">
        <ele>172</ele>
        <time>2018-07-12T10:49:54Z</time>
      </trkpt>
      <trkpt lat="45.93719" lon="4.7237">
        <ele>172</ele>
        <time>2018-07-12T10:49:55Z</time>
      </trkpt>
      <trkpt lat="45.93711" lon="4.72365">
        <ele>172</ele>
        <time>2018-07-12T10:49:57Z</time>
      </trkpt>
      <trkpt lat="45.9371" lon="4.72365">
        <ele>172</ele>
        <time>2018-07-12T10:49:58Z</time>
      </trkpt>
      <trkpt lat="45.93702" lon="4.72358">
        <ele>171</ele>
        <time>2018-07-12T10:49:59Z</time>
      </trkpt>
      <trkpt lat="45.93693" lon="4.72351">
        <ele>171</ele>
        <time>2018-07-12T10:50:01Z</time>
      </trkpt>
      <trkpt lat="45.9369" lon="4.72347">
        <ele>171</ele>
        <time>2018-07-12T10:50:02Z</time>
      </trkpt>
      <trkpt lat="45.9368" lon="4.72338">
        <ele>171</ele>
        <time>2018-07-12T10:50:04Z</time>
      </trkpt>
      <trkpt lat="45.93673" lon="4.72332">
        <ele>171</ele>
        <time>2018-07-12T10:50:05Z</time>
      </trkpt>
      <trkpt lat="45.93669" lon="4.72328">
        <ele>171</ele>
        <time>2018-07-12T10:50:06Z</time>
      </trkpt>
      <trkpt lat="45.93666" lon="4.7232">
        <ele>172</ele>
        <time>2018-07-12T10:50:07Z</time>
      </trkpt>
      <trkpt lat="45.93662" lon="4.72317">
        <ele>172</ele>
        <time>2018-07-12T10:50:08Z</time>
      </trkpt>
      <trkpt lat="45.93656" lon="4.72313">
        <ele>172</ele>
        <time>2018-07-12T10:50:09Z</time>
      </trkpt>
      <trkpt lat="45.93652" lon="4.72309">
        <ele>172</ele>
        <time>2018-07-12T10:50:10Z</time>
      </trkpt>
      <trkpt lat="45.93646" lon="4.72302">
        <ele>172</ele>
        <time>2018-07-12T10:50:12Z</time>
      </trkpt>
      <trkpt lat="45.93641" lon="4.72298">
        <ele>172</ele>
        <time>2018-07-12T10:50:13Z</time>
      </trkpt>
      <trkpt lat="45.93634" lon="4.72294">
        <ele>172</ele>
        <time>2018-07-12T10:50:14Z</time>
      </trkpt>
      <trkpt lat="45.9363" lon="4.72291">
        <ele>172</ele>
        <time>2018-07-12T10:50:15Z</time>
      </trkpt>
      <trkpt lat="45.93625" lon="4.72286">
        <ele>172</ele>
        <time>2018-07-12T10:50:16Z</time>
      </trkpt>
      <trkpt lat="45.93621" lon="4.72281">
        <ele>172</ele>
        <time>2018-07-12T10:50:17Z</time>
      </trkpt>
      <trkpt lat="45.93616" lon="4.72276">
        <ele>172</ele>
        <time>2018-07-12T10:50:18Z</time>
      </trkpt>
      <trkpt lat="45.93611" lon="4.72271">
        <ele>172</ele>
        <time>2018-07-12T10:50:19Z</time>
      </trkpt>
      <trkpt lat="45.93607" lon="4.72267">
        <ele>172</ele>
        <time>2018-07-12T10:50:20Z</time>
      </trkpt>
      <trkpt lat="45.93603" lon="4.72261">
        <ele>173</ele>
        <time>2018-07-12T10:50:21Z</time>
      </trkpt>
      <trkpt lat="45.93596" lon="4.72256">
        <ele>173</ele>
        <time>2018-07-12T10:50:23Z</time>
      </trkpt>
      <trkpt lat="45.93593" lon="4.72254">
        <ele>173</ele>
        <time>2018-07-12T10:50:24Z</time>
      </trkpt>
      <trkpt lat="45.93585" lon="4.72248">
        <ele>173</ele>
        <time>2018-07-12T10:50:26Z</time>
      </trkpt>
      <trkpt lat="45.93583" lon="4.72248">
        <ele>173</ele>
        <time>2018-07-12T10:50:27Z</time>
      </trkpt>
      <trkpt lat="45.93577" lon="4.7224">
        <ele>173</ele>
        <time>2018-07-12T10:50:28Z</time>
      </trkpt>
      <trkpt lat="45.93573" lon="4.72234">
        <ele>173</ele>
        <time>2018-07-12T10:50:29Z</time>
      </trkpt>
      <trkpt lat="45.93567" lon="4.7223">
        <ele>173</ele>
        <time>2018-07-12T10:50:31Z</time>
      </trkpt>
      <trkpt lat="45.93565" lon="4.72228">
        <ele>173</ele>
        <time>2018-07-12T10:50:32Z</time>
      </trkpt>
      <trkpt lat="45.93558" lon="4.72222">
        <ele>173</ele>
        <time>2018-07-12T10:50:38Z</time>
      </trkpt>
      <trkpt lat="45.93557" lon="4.72221">
        <ele>173</ele>
        <time>2018-07-12T10:50:39Z</time>
      </trkpt>
      <trkpt lat="45.93549" lon="4.7222">
        <ele>172</ele>
        <time>2018-07-12T10:50:44Z</time>
      </trkpt>
      <trkpt lat="45.93547" lon="4.72222">
        <ele>172</ele>
        <time>2018-07-12T10:50:45Z</time>
      </trkpt>
      <trkpt lat="45.93543" lon="4.72229">
        <ele>172</ele>
        <time>2018-07-12T10:50:48Z</time>
      </trkpt>
      <trkpt lat="45.93541" lon="4.72232">
        <ele>172</ele>
        <time>2018-07-12T10:50:49Z</time>
      </trkpt>
      <trkpt lat="45.93536" lon="4.72243">
        <ele>172</ele>
        <time>2018-07-12T10:50:52Z</time>
      </trkpt>
      <trkpt lat="45.93535" lon="4.72246">
        <ele>172</ele>
        <time>2018-07-12T10:50:53Z</time>
      </trkpt>
      <trkpt lat="45.93531" lon="4.72254">
        <ele>172</ele>
        <time>2018-07-12T10:50:55Z</time>
      </trkpt>
      <trkpt lat="45.9353" lon="4.72258">
        <ele>172</ele>
        <time>2018-07-12T10:50:56Z</time>
      </trkpt>
      <trkpt lat="45.93528" lon="4.72262">
        <ele>172</ele>
        <time>2018-07-12T10:50:57Z</time>
      </trkpt>
      <trkpt lat="45.93522" lon="4.72275">
        <ele>172</ele>
        <time>2018-07-12T10:50:58Z</time>
      </trkpt>
      <trkpt lat="45.9352" lon="4.7228">
        <ele>172</ele>
        <time>2018-07-12T10:50:59Z</time>
      </trkpt>
      <trkpt lat="45.93517" lon="4.72287">
        <ele>172</ele>
        <time>2018-07-12T10:51:00Z</time>
      </trkpt>
      <trkpt lat="45.93514" lon="4.72294">
        <ele>172</ele>
        <time>2018-07-12T10:51:01Z</time>
      </trkpt>
      <trkpt lat="45.9351" lon="4.723">
        <ele>172</ele>
        <time>2018-07-12T10:51:02Z</time>
      </trkpt>
      <trkpt lat="45.93506" lon="4.72304">
        <ele>173</ele>
        <time>2018-07-12T10:51:03Z</time>
      </trkpt>
      <trkpt lat="45.93502" lon="4.72312">
        <ele>173</ele>
        <time>2018-07-12T10:51:04Z</time>
      </trkpt>
      <trkpt lat="45.93498" lon="4.72318">
        <ele>173</ele>
        <time>2018-07-12T10:51:05Z</time>
      </trkpt>
      <trkpt lat="45.93494" lon="4.72325">
        <ele>173</ele>
        <time>2018-07-12T10:51:06Z</time>
      </trkpt>
      <trkpt lat="45.9349" lon="4.72332">
        <ele>173</ele>
        <time>2018-07-12T10:51:07Z</time>
      </trkpt>
      <trkpt lat="45.93485" lon="4.72339">
        <ele>173</ele>
        <time>2018-07-12T10:51:08Z</time>
      </trkpt>
      <trkpt lat="45.9348" lon="4.72344">
        <ele>173</ele>
        <time>2018-07-12T10:51:09Z</time>
      </trkpt>
      <trkpt lat="45.93474" lon="4.7235">
        <ele>173</ele>
        <time>2018-07-12T10:51:10Z</time>
      </trkpt>
      <trkpt lat="45.93469" lon="4.72356">
        <ele>173</ele>
        <time>2018-07-12T10:51:11Z</time>
      </trkpt>
      <trkpt lat="45.93466" lon="4.72363">
        <ele>173</ele>
        <time>2018-07-12T10:51:12Z</time>
      </trkpt>
      <trkpt lat="45.93462" lon="4.7237">
        <ele>173</ele>
        <time>2018-07-12T10:51:13Z</time>
      </trkpt>
      <trkpt lat="45.93458" lon="4.72375">
        <ele>173</ele>
        <time>2018-07-12T10:51:14Z</time>
      </trkpt>
      <trkpt lat="45.93454" lon="4.7238">
        <ele>173</ele>
        <time>2018-07-12T10:51:15Z</time>
      </trkpt>
      <trkpt lat="45.93448" lon="4.72385">
        <ele>173</ele>
        <time>2018-07-12T10:51:16Z</time>
      </trkpt>
      <trkpt lat="45.93443" lon="4.72391">
        <ele>173</ele>
        <time>2018-07-12T10:51:17Z</time>
      </trkpt>
      <trkpt lat="45.93438" lon="4.72393">
        <ele>173</ele>
        <time>2018-07-12T10:51:18Z</time>
      </trkpt>
      <trkpt lat="45.93433" lon="4.72396">
        <ele>173</ele>
        <time>2018-07-12T10:51:19Z</time>
      </trkpt>
      <trkpt lat="45.93428" lon="4.72399">
        <ele>174</ele>
        <time>2018-07-12T10:51:20Z</time>
      </trkpt>
      <trkpt lat="45.93422" lon="4.72403">
        <ele>174</ele>
        <time>2018-07-12T10:51:21Z</time>
      </trkpt>
      <trkpt lat="45.93417" lon="4.72404">
        <ele>174</ele>
        <time>2018-07-12T10:51:22Z</time>
      </trkpt>
      <trkpt lat="45.93411" lon="4.72405">
        <ele>174</ele>
        <time>2018-07-12T10:51:23Z</time>
      </trkpt>
      <trkpt lat="45.93406" lon="4.72404">
        <ele>174</ele>
        <time>2018-07-12T10:51:24Z</time>
      </trkpt>
      <trkpt lat="45.934" lon="4.72405">
        <ele>174</ele>
        <time>2018-07-12T10:51:25Z</time>
      </trkpt>
      <trkpt lat="45.93395" lon="4.72406">
        <ele>174</ele>
        <time>2018-07-12T10:51:26Z</time>
      </trkpt>
      <trkpt lat="45.93391" lon="4.72407">
        <ele>174</ele>
        <time>2018-07-12T10:51:27Z</time>
      </trkpt>
      <trkpt lat="45.93386" lon="4.72412">
        <ele>174</ele>
        <time>2018-07-12T10:51:28Z</time>
      </trkpt>
      <trkpt lat="45.93383" lon="4.72417">
        <ele>173</ele>
        <time>2018-07-12T10:51:29Z</time>
      </trkpt>
      <trkpt lat="45.93384" lon="4.72425">
        <ele>173</ele>
        <time>2018-07-12T10:51:30Z</time>
      </trkpt>
      <trkpt lat="45.93384" lon="4.7243">
        <ele>173</ele>
        <time>2018-07-12T10:51:31Z</time>
      </trkpt>
      <trkpt lat="45.93385" lon="4.7244">
        <ele>173</ele>
        <time>2018-07-12T10:51:32Z</time>
      </trkpt>
      <trkpt lat="45.93387" lon="4.72447">
        <ele>173</ele>
        <time>2018-07-12T10:51:33Z</time>
      </trkpt>
      <trkpt lat="45.93388" lon="4.72455">
        <ele>173</ele>
        <time>2018-07-12T10:51:34Z</time>
      </trkpt>
      <trkpt lat="45.93384" lon="4.72464">
        <ele>173</ele>
        <time>2018-07-12T10:51:35Z</time>
      </trkpt>
      <trkpt lat="45.93381" lon="4.7247">
        <ele>173</ele>
        <time>2018-07-12T10:51:36Z</time>
      </trkpt>
      <trkpt lat="45.93377" lon="4.72475">
        <ele>173</ele>
        <time>2018-07-12T10:51:37Z</time>
      </trkpt>
      <trkpt lat="45.93374" lon="4.72481">
        <ele>173</ele>
        <time>2018-07-12T10:51:38Z</time>
      </trkpt>
      <trkpt lat="45.93371" lon="4.72486">
        <ele>173</ele>
        <time>2018-07-12T10:51:39Z</time>
      </trkpt>
      <trkpt lat="45.93366" lon="4.72492">
        <ele>173</ele>
        <time>2018-07-12T10:51:40Z</time>
      </trkpt>
      <trkpt lat="45.93361" lon="4.72495">
        <ele>173</ele>
        <time>2018-07-12T10:51:41Z</time>
      </trkpt>
      <trkpt lat="45.93356" lon="4.72502">
        <ele>172</ele>
        <time>2018-07-12T10:51:42Z</time>
      </trkpt>
      <trkpt lat="45.93354" lon="4.72507">
        <ele>172</ele>
        <time>2018-07-12T10:51:43Z</time>
      </trkpt>
      <trkpt lat="45.9335" lon="4.72512">
        <ele>172</ele>
        <time>2018-07-12T10:51:44Z</time>
      </trkpt>
      <trkpt lat="45.93344" lon="4.72517">
        <ele>172</ele>
        <time>2018-07-12T10:51:45Z</time>
      </trkpt>
      <trkpt lat="45.93338" lon="4.72524">
        <ele>172</ele>
        <time>2018-07-12T10:51:46Z</time>
      </trkpt>
      <trkpt lat="45.93335" lon="4.72527">
        <ele>172</ele>
        <time>2018-07-12T10:51:47Z</time>
      </trkpt>
      <trkpt lat="45.9333" lon="4.72531">
        <ele>172</ele>
        <time>2018-07-12T10:51:48Z</time>
      </trkpt>
      <trkpt lat="45.93327" lon="4.72535">
        <ele>172</ele>
        <time>2018-07-12T10:51:49Z</time>
      </trkpt>
      <trkpt lat="45.93322" lon="4.7254">
        <ele>172</ele>
        <time>2018-07-12T10:51:50Z</time>
      </trkpt>
      <trkpt lat="45.93317" lon="4.72544">
        <ele>172</ele>
        <time>2018-07-12T10:51:51Z</time>
      </trkpt>
      <trkpt lat="45.93313" lon="4.7255">
        <ele>172</ele>
        <time>2018-07-12T10:51:52Z</time>
      </trkpt>
      <trkpt lat="45.93309" lon="4.72556">
        <ele>172</ele>
        <time>2018-07-12T10:51:53Z</time>
      </trkpt>
      <trkpt lat="45.93305" lon="4.72562">
        <ele>172</ele>
        <time>2018-07-12T10:51:54Z</time>
      </trkpt>
      <trkpt lat="45.933" lon="4.72569">
        <ele>171</ele>
        <time>2018-07-12T10:51:55Z</time>
      </trkpt>
      <trkpt lat="45.93294" lon="4.72575">
        <ele>171</ele>
        <time>2018-07-12T10:51:56Z</time>
      </trkpt>
      <trkpt lat="45.93288" lon="4.72582">
        <ele>171</ele>
        <time>2018-07-12T10:51:57Z</time>
      </trkpt>
      <trkpt lat="45.93283" lon="4.72587">
        <ele>170</ele>
        <time>2018-07-12T10:51:58Z</time>
      </trkpt>
      <trkpt lat="45.93277" lon="4.72594">
        <ele>170</ele>
        <time>2018-07-12T10:51:59Z</time>
      </trkpt>
      <trkpt lat="45.93272" lon="4.72599">
        <ele>170</ele>
        <time>2018-07-12T10:52:00Z</time>
      </trkpt>
      <trkpt lat="45.93265" lon="4.72606">
        <ele>170</ele>
        <time>2018-07-12T10:52:01Z</time>
      </trkpt>
      <trkpt lat="45.93262" lon="4.72612">
        <ele>170</ele>
        <time>2018-07-12T10:52:02Z</time>
      </trkpt>
      <trkpt lat="45.93257" lon="4.72617">
        <ele>170</ele>
        <time>2018-07-12T10:52:03Z</time>
      </trkpt>
      <trkpt lat="45.93253" lon="4.72622">
        <ele>170</ele>
        <time>2018-07-12T10:52:04Z</time>
      </trkpt>
      <trkpt lat="45.93247" lon="4.72628">
        <ele>170</ele>
        <time>2018-07-12T10:52:05Z</time>
      </trkpt>
      <trkpt lat="45.93242" lon="4.72634">
        <ele>170</ele>
        <time>2018-07-12T10:52:06Z</time>
      </trkpt>
      <trkpt lat="45.93237" lon="4.72642">
        <ele>170</ele>
        <time>2018-07-12T10:52:07Z</time>
      </trkpt>
      <trkpt lat="45.93231" lon="4.72648">
        <ele>170</ele>
        <time>2018-07-12T10:52:08Z</time>
      </trkpt>
      <trkpt lat="45.93227" lon="4.72654">
        <ele>170</ele>
        <time>2018-07-12T10:52:09Z</time>
      </trkpt>
      <trkpt lat="45.93223" lon="4.72658">
        <ele>170</ele>
        <time>2018-07-12T10:52:10Z</time>
      </trkpt>
      <trkpt lat="45.93219" lon="4.72664">
        <ele>170</ele>
        <time>2018-07-12T10:52:11Z</time>
      </trkpt>
      <trkpt lat="45.93214" lon="4.7267">
        <ele>169</ele>
        <time>2018-07-12T10:52:12Z</time>
      </trkpt>
      <trkpt lat="45.93208" lon="4.72674">
        <ele>169</ele>
        <time>2018-07-12T10:52:13Z</time>
      </trkpt>
      <trkpt lat="45.93203" lon="4.72679">
        <ele>169</ele>
        <time>2018-07-12T10:52:14Z</time>
      </trkpt>
      <trkpt lat="45.93199" lon="4.72686">
        <ele>169</ele>
        <time>2018-07-12T10:52:15Z</time>
      </trkpt>
      <trkpt lat="45.93195" lon="4.72691">
        <ele>169</ele>
        <time>2018-07-12T10:52:16Z</time>
      </trkpt>
      <trkpt lat="45.9319" lon="4.72697">
        <ele>169</ele>
        <time>2018-07-12T10:52:17Z</time>
      </trkpt>
      <trkpt lat="45.93185" lon="4.72704">
        <ele>169</ele>
        <time>2018-07-12T10:52:18Z</time>
      </trkpt>
      <trkpt lat="45.9318" lon="4.7271">
        <ele>169</ele>
        <time>2018-07-12T10:52:19Z</time>
      </trkpt>
      <trkpt lat="45.93176" lon="4.72716">
        <ele>170</ele>
        <time>2018-07-12T10:52:20Z</time>
      </trkpt>
      <trkpt lat="45.93171" lon="4.72722">
        <ele>170</ele>
        <time>2018-07-12T10:52:21Z</time>
      </trkpt>
      <trkpt lat="45.93166" lon="4.72728">
        <ele>170</ele>
        <time>2018-07-12T10:52:22Z</time>
      </trkpt>
      <trkpt lat="45.9316" lon="4.72733">
        <ele>170</ele>
        <time>2018-07-12T10:52:23Z</time>
      </trkpt>
      <trkpt lat="45.93154" lon="4.72739">
        <ele>170</ele>
        <time>2018-07-12T10:52:24Z</time>
      </trkpt>
      <trkpt lat="45.93149" lon="4.72743">
        <ele>170</ele>
        <time>2018-07-12T10:52:25Z</time>
      </trkpt>
      <trkpt lat="45.93144" lon="4.72749">
        <ele>170</ele>
        <time>2018-07-12T10:52:26Z</time>
      </trkpt>
      <trkpt lat="45.9314" lon="4.72755">
        <ele>171</ele>
        <time>2018-07-12T10:52:27Z</time>
      </trkpt>
      <trkpt lat="45.93135" lon="4.72763">
        <ele>171</ele>
        <time>2018-07-12T10:52:28Z</time>
      </trkpt>
      <trkpt lat="45.9313" lon="4.72769">
        <ele>171</ele>
        <time>2018-07-12T10:52:29Z</time>
      </trkpt>
      <trkpt lat="45.93125" lon="4.72775">
        <ele>171</ele>
        <time>2018-07-12T10:52:30Z</time>
      </trkpt>
      <trkpt lat="45.9312" lon="4.72782">
        <ele>171</ele>
        <time>2018-07-12T10:52:31Z</time>
      </trkpt>
      <trkpt lat="45.93115" lon="4.72788">
        <ele>171</ele>
        <time>2018-07-12T10:52:32Z</time>
      </trkpt>
      <trkpt lat="45.93111" lon="4.72794">
        <ele>171</ele>
        <time>2018-07-12T10:52:33Z</time>
      </trkpt>
      <trkpt lat="45.93106" lon="4.72802">
        <ele>171</ele>
        <time>2018-07-12T10:52:34Z</time>
      </trkpt>
      <trkpt lat="45.93101" lon="4.72807">
        <ele>171</ele>
        <time>2018-07-12T10:52:35Z</time>
      </trkpt>
      <trkpt lat="45.93096" lon="4.72813">
        <ele>172</ele>
        <time>2018-07-12T10:52:36Z</time>
      </trkpt>
      <trkpt lat="45.93091" lon="4.72819">
        <ele>172</ele>
        <time>2018-07-12T10:52:37Z</time>
      </trkpt>
      <trkpt lat="45.93085" lon="4.72824">
        <ele>172</ele>
        <time>2018-07-12T10:52:38Z</time>
      </trkpt>
      <trkpt lat="45.93081" lon="4.7283">
        <ele>173</ele>
        <time>2018-07-12T10:52:39Z</time>
      </trkpt>
      <trkpt lat="45.93043" lon="4.72868">
        <ele>172</ele>
        <time>2018-07-12T10:52:47Z</time>
      </trkpt>
      <trkpt lat="45.93039" lon="4.72873">
        <ele>172</ele>
        <time>2018-07-12T10:52:48Z</time>
      </trkpt>
      <trkpt lat="45.93035" lon="4.7288">
        <ele>172</ele>
        <time>2018-07-12T10:52:49Z</time>
      </trkpt>
      <trkpt lat="45.93032" lon="4.72884">
        <ele>172</ele>
        <time>2018-07-12T10:52:50Z</time>
      </trkpt>
      <trkpt lat="45.93027" lon="4.7289">
        <ele>172</ele>
        <time>2018-07-12T10:52:51Z</time>
      </trkpt>
      <trkpt lat="45.93022" lon="4.72897">
        <ele>172</ele>
        <time>2018-07-12T10:52:52Z</time>
      </trkpt>
      <trkpt lat="45.93018" lon="4.72903">
        <ele>172</ele>
        <time>2018-07-12T10:52:53Z</time>
      </trkpt>
      <trkpt lat="45.93014" lon="4.72909">
        <ele>171</ele>
        <time>2018-07-12T10:52:54Z</time>
      </trkpt>
      <trkpt lat="45.93009" lon="4.72916">
        <ele>171</ele>
        <time>2018-07-12T10:52:55Z</time>
      </trkpt>
      <trkpt lat="45.93005" lon="4.72924">
        <ele>170</ele>
        <time>2018-07-12T10:52:56Z</time>
      </trkpt>
      <trkpt lat="45.93" lon="4.72928">
        <ele>170</ele>
        <time>2018-07-12T10:52:57Z</time>
      </trkpt>
      <trkpt lat="45.92996" lon="4.72933">
        <ele>171</ele>
        <time>2018-07-12T10:52:58Z</time>
      </trkpt>
      <trkpt lat="45.92992" lon="4.72938">
        <ele>171</ele>
        <time>2018-07-12T10:52:59Z</time>
      </trkpt>
      <trkpt lat="45.92988" lon="4.72946">
        <ele>171</ele>
        <time>2018-07-12T10:53:00Z</time>
      </trkpt>
      <trkpt lat="45.92983" lon="4.72951">
        <ele>171</ele>
        <time>2018-07-12T10:53:01Z</time>
      </trkpt>
      <trkpt lat="45.9298" lon="4.72956">
        <ele>171</ele>
        <time>2018-07-12T10:53:02Z</time>
      </trkpt>
      <trkpt lat="45.92975" lon="4.72961">
        <ele>171</ele>
        <time>2018-07-12T10:53:03Z</time>
      </trkpt>
      <trkpt lat="45.92973" lon="4.72967">
        <ele>171</ele>
        <time>2018-07-12T10:53:04Z</time>
      </trkpt>
      <trkpt lat="45.92969" lon="4.72972">
        <ele>171</ele>
        <time>2018-07-12T10:53:05Z</time>
      </trkpt>
      <trkpt lat="45.92965" lon="4.72976">
        <ele>171</ele>
        <time>2018-07-12T10:53:06Z</time>
      </trkpt>
      <trkpt lat="45.92961" lon="4.72982">
        <ele>171</ele>
        <time>2018-07-12T10:53:07Z</time>
      </trkpt>
      <trkpt lat="45.92956" lon="4.72989">
        <ele>171</ele>
        <time>2018-07-12T10:53:08Z</time>
      </trkpt>
      <trkpt lat="45.92951" lon="4.72994">
        <ele>171</ele>
        <time>2018-07-12T10:53:09Z</time>
      </trkpt>
      <trkpt lat="45.92946" lon="4.73">
        <ele>171</ele>
        <time>2018-07-12T10:53:10Z</time>
      </trkpt>
      <trkpt lat="45.92941" lon="4.73004">
        <ele>171</ele>
        <time>2018-07-12T10:53:11Z</time>
      </trkpt>
      <trkpt lat="45.92936" lon="4.73009">
        <ele>171</ele>
        <time>2018-07-12T10:53:12Z</time>
      </trkpt>
      <trkpt lat="45.92931" lon="4.73014">
        <ele>171</ele>
        <time>2018-07-12T10:53:13Z</time>
      </trkpt>
      <trkpt lat="45.92926" lon="4.73019">
        <ele>171</ele>
        <time>2018-07-12T10:53:14Z</time>
      </trkpt>
      <trkpt lat="45.92922" lon="4.73025">
        <ele>171</ele>
        <time>2018-07-12T10:53:15Z</time>
      </trkpt>
      <trkpt lat="45.92918" lon="4.7303">
        <ele>172</ele>
        <time>2018-07-12T10:53:16Z</time>
      </trkpt>
      <trkpt lat="45.92914" lon="4.73038">
        <ele>172</ele>
        <time>2018-07-12T10:53:17Z</time>
      </trkpt>
      <trkpt lat="45.92909" lon="4.73043">
        <ele>172</ele>
        <time>2018-07-12T10:53:18Z</time>
      </trkpt>
      <trkpt lat="45.92905" lon="4.73048">
        <ele>172</ele>
        <time>2018-07-12T10:53:19Z</time>
      </trkpt>
      <trkpt lat="45.929" lon="4.73049">
        <ele>172</ele>
        <time>2018-07-12T10:53:20Z</time>
      </trkpt>
      <trkpt lat="45.92896" lon="4.73055">
        <ele>172</ele>
        <time>2018-07-12T10:53:21Z</time>
      </trkpt>
      <trkpt lat="45.92891" lon="4.73064">
        <ele>172</ele>
        <time>2018-07-12T10:53:23Z</time>
      </trkpt>
      <trkpt lat="45.92888" lon="4.73069">
        <ele>172</ele>
        <time>2018-07-12T10:53:24Z</time>
      </trkpt>
      <trkpt lat="45.92884" lon="4.73074">
        <ele>172</ele>
        <time>2018-07-12T10:53:25Z</time>
      </trkpt>
      <trkpt lat="45.92882" lon="4.7308">
        <ele>172</ele>
        <time>2018-07-12T10:53:26Z</time>
      </trkpt>
      <trkpt lat="45.92877" lon="4.73084">
        <ele>172</ele>
        <time>2018-07-12T10:53:27Z</time>
      </trkpt>
      <trkpt lat="45.92874" lon="4.7309">
        <ele>172</ele>
        <time>2018-07-12T10:53:28Z</time>
      </trkpt>
      <trkpt lat="45.92868" lon="4.731">
        <ele>172</ele>
        <time>2018-07-12T10:53:30Z</time>
      </trkpt>
      <trkpt lat="45.92864" lon="4.73106">
        <ele>171</ele>
        <time>2018-07-12T10:53:31Z</time>
      </trkpt>
      <trkpt lat="45.92857" lon="4.73111">
        <ele>171</ele>
        <time>2018-07-12T10:53:33Z</time>
      </trkpt>
      <trkpt lat="45.92852" lon="4.73108">
        <ele>171</ele>
        <time>2018-07-12T10:53:34Z</time>
      </trkpt>
      <trkpt lat="45.92847" lon="4.731">
        <ele>171</ele>
        <time>2018-07-12T10:53:36Z</time>
      </trkpt>
      <trkpt lat="45.92846" lon="4.73094">
        <ele>171</ele>
        <time>2018-07-12T10:53:37Z</time>
      </trkpt>
      <trkpt lat="45.92846" lon="4.73086">
        <ele>171</ele>
        <time>2018-07-12T10:53:38Z</time>
      </trkpt>
      <trkpt lat="45.92845" lon="4.73078">
        <ele>171</ele>
        <time>2018-07-12T10:53:39Z</time>
      </trkpt>
      <trkpt lat="45.92844" lon="4.7307">
        <ele>171</ele>
        <time>2018-07-12T10:53:40Z</time>
      </trkpt>
      <trkpt lat="45.92843" lon="4.73062">
        <ele>171</ele>
        <time>2018-07-12T10:53:41Z</time>
      </trkpt>
      <trkpt lat="45.92842" lon="4.73054">
        <ele>171</ele>
        <time>2018-07-12T10:53:42Z</time>
      </trkpt>
      <trkpt lat="45.92841" lon="4.73046">
        <ele>171</ele>
        <time>2018-07-12T10:53:43Z</time>
      </trkpt>
      <trkpt lat="45.9284" lon="4.73039">
        <ele>171</ele>
        <time>2018-07-12T10:53:44Z</time>
      </trkpt>
      <trkpt lat="45.92838" lon="4.73032">
        <ele>171</ele>
        <time>2018-07-12T10:53:45Z</time>
      </trkpt>
      <trkpt lat="45.92837" lon="4.73024">
        <ele>171</ele>
        <time>2018-07-12T10:53:46Z</time>
      </trkpt>
      <trkpt lat="45.92838" lon="4.73017">
        <ele>171</ele>
        <time>2018-07-12T10:53:47Z</time>
      </trkpt>
      <trkpt lat="45.92836" lon="4.7301">
        <ele>171</ele>
        <time>2018-07-12T10:53:48Z</time>
      </trkpt>
      <trkpt lat="45.92837" lon="4.73002">
        <ele>170</ele>
        <time>2018-07-12T10:53:49Z</time>
      </trkpt>
      <trkpt lat="45.92836" lon="4.72996">
        <ele>170</ele>
        <time>2018-07-12T10:53:50Z</time>
      </trkpt>
      <trkpt lat="45.92834" lon="4.72989">
        <ele>170</ele>
        <time>2018-07-12T10:53:51Z</time>
      </trkpt>
      <trkpt lat="45.92834" lon="4.72983">
        <ele>171</ele>
        <time>2018-07-12T10:53:52Z</time>
      </trkpt>
      <trkpt lat="45.92831" lon="4.72975">
        <ele>170</ele>
        <time>2018-07-12T10:53:53Z</time>
      </trkpt>
      <trkpt lat="45.9283" lon="4.72962">
        <ele>170</ele>
        <time>2018-07-12T10:53:55Z</time>
      </trkpt>
      <trkpt lat="45.92829" lon="4.72956">
        <ele>170</ele>
        <time>2018-07-12T10:53:56Z</time>
      </trkpt>
      <trkpt lat="45.92828" lon="4.72943">
        <ele>170</ele>
        <time>2018-07-12T10:53:58Z</time>
      </trkpt>
      <trkpt lat="45.92826" lon="4.72936">
        <ele>170</ele>
        <time>2018-07-12T10:53:59Z</time>
      </trkpt>
      <trkpt lat="45.92825" lon="4.72929">
        <ele>170</ele>
        <time>2018-07-12T10:54:00Z</time>
      </trkpt>
      <trkpt lat="45.92825" lon="4.72923">
        <ele>170</ele>
        <time>2018-07-12T10:54:01Z</time>
      </trkpt>
      <trkpt lat="45.92825" lon="4.72917">
        <ele>170</ele>
        <time>2018-07-12T10:54:02Z</time>
      </trkpt>
      <trkpt lat="45.92824" lon="4.7291">
        <ele>170</ele>
        <time>2018-07-12T10:54:03Z</time>
      </trkpt>
      <trkpt lat="45.92823" lon="4.72902">
        <ele>170</ele>
        <time>2018-07-12T10:54:04Z</time>
      </trkpt>
      <trkpt lat="45.92822" lon="4.72895">
        <ele>170</ele>
        <time>2018-07-12T10:54:05Z</time>
      </trkpt>
      <trkpt lat="45.92821" lon="4.72888">
        <ele>170</ele>
        <time>2018-07-12T10:54:06Z</time>
      </trkpt>
      <trkpt lat="45.92819" lon="4.7288">
        <ele>170</ele>
        <time>2018-07-12T10:54:07Z</time>
      </trkpt>
      <trkpt lat="45.92818" lon="4.72874">
        <ele>170</ele>
        <time>2018-07-12T10:54:08Z</time>
      </trkpt>
      <trkpt lat="45.92816" lon="4.72867">
        <ele>170</ele>
        <time>2018-07-12T10:54:09Z</time>
      </trkpt>
      <trkpt lat="45.92808" lon="4.72858">
        <ele>170</ele>
        <time>2018-07-12T10:54:10Z</time>
      </trkpt>
      <trkpt lat="45.92806" lon="4.7285">
        <ele>170</ele>
        <time>2018-07-12T10:54:11Z</time>
      </trkpt>
      <trkpt lat="45.92806" lon="4.72842">
        <ele>170</ele>
        <time>2018-07-12T10:54:12Z</time>
      </trkpt>
      <trkpt lat="45.92805" lon="4.72833">
        <ele>171</ele>
        <time>2018-07-12T10:54:13Z</time>
      </trkpt>
      <trkpt lat="45.92804" lon="4.72826">
        <ele>171</ele>
        <time>2018-07-12T10:54:14Z</time>
      </trkpt>
      <trkpt lat="45.92802" lon="4.72818">
        <ele>170</ele>
        <time>2018-07-12T10:54:15Z</time>
      </trkpt>
      <trkpt lat="45.92801" lon="4.7281">
        <ele>170</ele>
        <time>2018-07-12T10:54:16Z</time>
      </trkpt>
      <trkpt lat="45.92799" lon="4.72803">
        <ele>170</ele>
        <time>2018-07-12T10:54:17Z</time>
      </trkpt>
      <trkpt lat="45.92797" lon="4.72796">
        <ele>171</ele>
        <time>2018-07-12T10:54:18Z</time>
      </trkpt>
      <trkpt lat="45.92792" lon="4.72788">
        <ele>171</ele>
        <time>2018-07-12T10:54:21Z</time>
      </trkpt>
      <trkpt lat="45.92788" lon="4.7279">
        <ele>170</ele>
        <time>2018-07-12T10:54:22Z</time>
      </trkpt>
      <trkpt lat="45.92781" lon="4.72796">
        <ele>170</ele>
        <time>2018-07-12T10:54:24Z</time>
      </trkpt>
      <trkpt lat="45.92776" lon="4.72799">
        <ele>170</ele>
        <time>2018-07-12T10:54:25Z</time>
      </trkpt>
      <trkpt lat="45.92772" lon="4.728">
        <ele>170</ele>
        <time>2018-07-12T10:54:26Z</time>
      </trkpt>
      <trkpt lat="45.92767" lon="4.72802">
        <ele>170</ele>
        <time>2018-07-12T10:54:27Z</time>
      </trkpt>
      <trkpt lat="45.92762" lon="4.72809">
        <ele>170</ele>
        <time>2018-07-12T10:54:28Z</time>
      </trkpt>
      <trkpt lat="45.92757" lon="4.72813">
        <ele>170</ele>
        <time>2018-07-12T10:54:29Z</time>
      </trkpt>
      <trkpt lat="45.92753" lon="4.72816">
        <ele>170</ele>
        <time>2018-07-12T10:54:30Z</time>
      </trkpt>
      <trkpt lat="45.92748" lon="4.7282">
        <ele>169</ele>
        <time>2018-07-12T10:54:31Z</time>
      </trkpt>
      <trkpt lat="45.92742" lon="4.72826">
        <ele>169</ele>
        <time>2018-07-12T10:54:32Z</time>
      </trkpt>
      <trkpt lat="45.92737" lon="4.72829">
        <ele>169</ele>
        <time>2018-07-12T10:54:33Z</time>
      </trkpt>
      <trkpt lat="45.92732" lon="4.72833">
        <ele>169</ele>
        <time>2018-07-12T10:54:34Z</time>
      </trkpt>
      <trkpt lat="45.92727" lon="4.72837">
        <ele>169</ele>
        <time>2018-07-12T10:54:35Z</time>
      </trkpt>
      <trkpt lat="45.92723" lon="4.72841">
        <ele>169</ele>
        <time>2018-07-12T10:54:36Z</time>
      </trkpt>
      <trkpt lat="45.92718" lon="4.72845">
        <ele>169</ele>
        <time>2018-07-12T10:54:37Z</time>
      </trkpt>
      <trkpt lat="45.92713" lon="4.72849">
        <ele>169</ele>
        <time>2018-07-12T10:54:38Z</time>
      </trkpt>
      <trkpt lat="45.92708" lon="4.72853">
        <ele>169</ele>
        <time>2018-07-12T10:54:39Z</time>
      </trkpt>
      <trkpt lat="45.92702" lon="4.72856">
        <ele>169</ele>
        <time>2018-07-12T10:54:40Z</time>
      </trkpt>
      <trkpt lat="45.92696" lon="4.7286">
        <ele>169</ele>
        <time>2018-07-12T10:54:41Z</time>
      </trkpt>
      <trkpt lat="45.9269" lon="4.72864">
        <ele>169</ele>
        <time>2018-07-12T10:54:42Z</time>
      </trkpt>
      <trkpt lat="45.92685" lon="4.72867">
        <ele>169</ele>
        <time>2018-07-12T10:54:43Z</time>
      </trkpt>
      <trkpt lat="45.92682" lon="4.72878">
        <ele>170</ele>
        <time>2018-07-12T10:54:44Z</time>
      </trkpt>
      <trkpt lat="45.92677" lon="4.72881">
        <ele>170</ele>
        <time>2018-07-12T10:54:45Z</time>
      </trkpt>
      <trkpt lat="45.92672" lon="4.72885">
        <ele>170</ele>
        <time>2018-07-12T10:54:46Z</time>
      </trkpt>
      <trkpt lat="45.92668" lon="4.72888">
        <ele>170</ele>
        <time>2018-07-12T10:54:47Z</time>
      </trkpt>
      <trkpt lat="45.92663" lon="4.72892">
        <ele>170</ele>
        <time>2018-07-12T10:54:48Z</time>
      </trkpt>
      <trkpt lat="45.9266" lon="4.72896">
        <ele>170</ele>
        <time>2018-07-12T10:54:49Z</time>
      </trkpt>
      <trkpt lat="45.92656" lon="4.72899">
        <ele>170</ele>
        <time>2018-07-12T10:54:50Z</time>
      </trkpt>
      <trkpt lat="45.92651" lon="4.72903">
        <ele>170</ele>
        <time>2018-07-12T10:54:51Z</time>
      </trkpt>
      <trkpt lat="45.92647" lon="4.72907">
        <ele>170</ele>
        <time>2018-07-12T10:54:52Z</time>
      </trkpt>
      <trkpt lat="45.92642" lon="4.72911">
        <ele>169</ele>
        <time>2018-07-12T10:54:53Z</time>
      </trkpt>
      <trkpt lat="45.92637" lon="4.72915">
        <ele>169</ele>
        <time>2018-07-12T10:54:54Z</time>
      </trkpt>
      <trkpt lat="45.92631" lon="4.72918">
        <ele>170</ele>
        <time>2018-07-12T10:54:55Z</time>
      </trkpt>
      <trkpt lat="45.92626" lon="4.72923">
        <ele>170</ele>
        <time>2018-07-12T10:54:56Z</time>
      </trkpt>
      <trkpt lat="45.9262" lon="4.72925">
        <ele>169</ele>
        <time>2018-07-12T10:54:57Z</time>
      </trkpt>
      <trkpt lat="45.92615" lon="4.72931">
        <ele>169</ele>
        <time>2018-07-12T10:54:58Z</time>
      </trkpt>
      <trkpt lat="45.9261" lon="4.72938">
        <ele>169</ele>
        <time>2018-07-12T10:54:59Z</time>
      </trkpt>
      <trkpt lat="45.92605" lon="4.72945">
        <ele>169</ele>
        <time>2018-07-12T10:55:00Z</time>
      </trkpt>
      <trkpt lat="45.926" lon="4.72951">
        <ele>169</ele>
        <time>2018-07-12T10:55:01Z</time>
      </trkpt>
      <trkpt lat="45.92596" lon="4.72955">
        <ele>169</ele>
        <time>2018-07-12T10:55:02Z</time>
      </trkpt>
      <trkpt lat="45.92592" lon="4.7296">
        <ele>169</ele>
        <time>2018-07-12T10:55:03Z</time>
      </trkpt>
      <trkpt lat="45.92586" lon="4.72965">
        <ele>169</ele>
        <time>2018-07-12T10:55:04Z</time>
      </trkpt>
      <trkpt lat="45.92581" lon="4.7297">
        <ele>169</ele>
        <time>2018-07-12T10:55:05Z</time>
      </trkpt>
      <trkpt lat="45.92575" lon="4.72972">
        <ele>169</ele>
        <time>2018-07-12T10:55:06Z</time>
      </trkpt>
      <trkpt lat="45.9257" lon="4.72977">
        <ele>169</ele>
        <time>2018-07-12T10:55:07Z</time>
      </trkpt>
      <trkpt lat="45.92565" lon="4.72981">
        <ele>169</ele>
        <time>2018-07-12T10:55:08Z</time>
      </trkpt>
      <trkpt lat="45.9256" lon="4.72986">
        <ele>169</ele>
        <time>2018-07-12T10:55:09Z</time>
      </trkpt>
      <trkpt lat="45.92554" lon="4.72993">
        <ele>169</ele>
        <time>2018-07-12T10:55:10Z</time>
      </trkpt>
      <trkpt lat="45.92548" lon="4.72998">
        <ele>169</ele>
        <time>2018-07-12T10:55:11Z</time>
      </trkpt>
      <trkpt lat="45.92544" lon="4.73003">
        <ele>169</ele>
        <time>2018-07-12T10:55:12Z</time>
      </trkpt>
      <trkpt lat="45.92538" lon="4.73007">
        <ele>169</ele>
        <time>2018-07-12T10:55:13Z</time>
      </trkpt>
      <trkpt lat="45.92532" lon="4.73011">
        <ele>169</ele>
        <time>2018-07-12T10:55:14Z</time>
      </trkpt>
      <trkpt lat="45.92528" lon="4.73016">
        <ele>169</ele>
        <time>2018-07-12T10:55:15Z</time>
      </trkpt>
      <trkpt lat="45.92523" lon="4.73019">
        <ele>169</ele>
        <time>2018-07-12T10:55:16Z</time>
      </trkpt>
      <trkpt lat="45.92518" lon="4.73023">
        <ele>169</ele>
        <time>2018-07-12T10:55:17Z</time>
      </trkpt>
      <trkpt lat="45.92513" lon="4.73027">
        <ele>169</ele>
        <time>2018-07-12T10:55:18Z</time>
      </trkpt>
      <trkpt lat="45.92511" lon="4.73037">
        <ele>169</ele>
        <time>2018-07-12T10:55:19Z</time>
      </trkpt>
      <trkpt lat="45.92506" lon="4.73043">
        <ele>170</ele>
        <time>2018-07-12T10:55:20Z</time>
      </trkpt>
      <trkpt lat="45.925" lon="4.73049">
        <ele>170</ele>
        <time>2018-07-12T10:55:21Z</time>
      </trkpt>
      <trkpt lat="45.92495" lon="4.73052">
        <ele>170</ele>
        <time>2018-07-12T10:55:22Z</time>
      </trkpt>
      <trkpt lat="45.92491" lon="4.73057">
        <ele>170</ele>
        <time>2018-07-12T10:55:23Z</time>
      </trkpt>
      <trkpt lat="45.92485" lon="4.73061">
        <ele>170</ele>
        <time>2018-07-12T10:55:24Z</time>
      </trkpt>
      <trkpt lat="45.92479" lon="4.73066">
        <ele>170</ele>
        <time>2018-07-12T10:55:25Z</time>
      </trkpt>
      <trkpt lat="45.92474" lon="4.7307">
        <ele>170</ele>
        <time>2018-07-12T10:55:26Z</time>
      </trkpt>
      <trkpt lat="45.92469" lon="4.73075">
        <ele>170</ele>
        <time>2018-07-12T10:55:27Z</time>
      </trkpt>
      <trkpt lat="45.92464" lon="4.73079">
        <ele>170</ele>
        <time>2018-07-12T10:55:28Z</time>
      </trkpt>
      <trkpt lat="45.92458" lon="4.73085">
        <ele>170</ele>
        <time>2018-07-12T10:55:29Z</time>
      </trkpt>
      <trkpt lat="45.92453" lon="4.73088">
        <ele>170</ele>
        <time>2018-07-12T10:55:30Z</time>
      </trkpt>
      <trkpt lat="45.92449" lon="4.73092">
        <ele>170</ele>
        <time>2018-07-12T10:55:31Z</time>
      </trkpt>
      <trkpt lat="45.92444" lon="4.73097">
        <ele>170</ele>
        <time>2018-07-12T10:55:32Z</time>
      </trkpt>
      <trkpt lat="45.92439" lon="4.73101">
        <ele>170</ele>
        <time>2018-07-12T10:55:33Z</time>
      </trkpt>
      <trkpt lat="45.92436" lon="4.73106">
        <ele>170</ele>
        <time>2018-07-12T10:55:34Z</time>
      </trkpt>
      <trkpt lat="45.92431" lon="4.73109">
        <ele>170</ele>
        <time>2018-07-12T10:55:35Z</time>
      </trkpt>
      <trkpt lat="45.92426" lon="4.73112">
        <ele>170</ele>
        <time>2018-07-12T10:55:36Z</time>
      </trkpt>
      <trkpt lat="45.92421" lon="4.73116">
        <ele>170</ele>
        <time>2018-07-12T10:55:37Z</time>
      </trkpt>
      <trkpt lat="45.92415" lon="4.73123">
        <ele>171</ele>
        <time>2018-07-12T10:55:39Z</time>
      </trkpt>
      <trkpt lat="45.92411" lon="4.73129">
        <ele>171</ele>
        <time>2018-07-12T10:55:40Z</time>
      </trkpt>
      <trkpt lat="45.92408" lon="4.7314">
        <ele>171</ele>
        <time>2018-07-12T10:55:42Z</time>
      </trkpt>
      <trkpt lat="45.92409" lon="4.73148">
        <ele>171</ele>
        <time>2018-07-12T10:55:43Z</time>
      </trkpt>
      <trkpt lat="45.92409" lon="4.73155">
        <ele>170</ele>
        <time>2018-07-12T10:55:44Z</time>
      </trkpt>
      <trkpt lat="45.92408" lon="4.73162">
        <ele>170</ele>
        <time>2018-07-12T10:55:45Z</time>
      </trkpt>
      <trkpt lat="45.92408" lon="4.73171">
        <ele>170</ele>
        <time>2018-07-12T10:55:46Z</time>
      </trkpt>
      <trkpt lat="45.92408" lon="4.73179">
        <ele>171</ele>
        <time>2018-07-12T10:55:47Z</time>
      </trkpt>
      <trkpt lat="45.92408" lon="4.73187">
        <ele>171</ele>
        <time>2018-07-12T10:55:48Z</time>
      </trkpt>
      <trkpt lat="45.92408" lon="4.73193">
        <ele>171</ele>
        <time>2018-07-12T10:55:49Z</time>
      </trkpt>
      <trkpt lat="45.92409" lon="4.73201">
        <ele>171</ele>
        <time>2018-07-12T10:55:50Z</time>
      </trkpt>
      <trkpt lat="45.9241" lon="4.73211">
        <ele>171</ele>
        <time>2018-07-12T10:55:51Z</time>
      </trkpt>
      <trkpt lat="45.9241" lon="4.73219">
        <ele>171</ele>
        <time>2018-07-12T10:55:52Z</time>
      </trkpt>
      <trkpt lat="45.92411" lon="4.73228">
        <ele>171</ele>
        <time>2018-07-12T10:55:53Z</time>
      </trkpt>
      <trkpt lat="45.92411" lon="4.73237">
        <ele>171</ele>
        <time>2018-07-12T10:55:54Z</time>
      </trkpt>
      <trkpt lat="45.92411" lon="4.73244">
        <ele>171</ele>
        <time>2018-07-12T10:55:55Z</time>
      </trkpt>
      <trkpt lat="45.92411" lon="4.73251">
        <ele>171</ele>
        <time>2018-07-12T10:55:56Z</time>
      </trkpt>
      <trkpt lat="45.92412" lon="4.73259">
        <ele>171</ele>
        <time>2018-07-12T10:55:57Z</time>
      </trkpt>
      <trkpt lat="45.92413" lon="4.73267">
        <ele>171</ele>
        <time>2018-07-12T10:55:58Z</time>
      </trkpt>
      <trkpt lat="45.92413" lon="4.73276">
        <ele>171</ele>
        <time>2018-07-12T10:55:59Z</time>
      </trkpt>
      <trkpt lat="45.92414" lon="4.73284">
        <ele>171</ele>
        <time>2018-07-12T10:56:00Z</time>
      </trkpt>
      <trkpt lat="45.92415" lon="4.73293">
        <ele>171</ele>
        <time>2018-07-12T10:56:01Z</time>
      </trkpt>
      <trkpt lat="45.92414" lon="4.73302">
        <ele>171</ele>
        <time>2018-07-12T10:56:02Z</time>
      </trkpt>
      <trkpt lat="45.92415" lon="4.73311">
        <ele>171</ele>
        <time>2018-07-12T10:56:03Z</time>
      </trkpt>
      <trkpt lat="45.92415" lon="4.7332">
        <ele>171</ele>
        <time>2018-07-12T10:56:04Z</time>
      </trkpt>
      <trkpt lat="45.92416" lon="4.73329">
        <ele>171</ele>
        <time>2018-07-12T10:56:05Z</time>
      </trkpt>
      <trkpt lat="45.92417" lon="4.73338">
        <ele>171</ele>
        <time>2018-07-12T10:56:06Z</time>
      </trkpt>
      <trkpt lat="45.92418" lon="4.73346">
        <ele>171</ele>
        <time>2018-07-12T10:56:07Z</time>
      </trkpt>
      <trkpt lat="45.92419" lon="4.73355">
        <ele>171</ele>
        <time>2018-07-12T10:56:08Z</time>
      </trkpt>
      <trkpt lat="45.9242" lon="4.73363">
        <ele>172</ele>
        <time>2018-07-12T10:56:09Z</time>
      </trkpt>
      <trkpt lat="45.9242" lon="4.73371">
        <ele>172</ele>
        <time>2018-07-12T10:56:10Z</time>
      </trkpt>
      <trkpt lat="45.92423" lon="4.73381">
        <ele>172</ele>
        <time>2018-07-12T10:56:11Z</time>
      </trkpt>
      <trkpt lat="45.92424" lon="4.73389">
        <ele>172</ele>
        <time>2018-07-12T10:56:12Z</time>
      </trkpt>
      <trkpt lat="45.92425" lon="4.73397">
        <ele>172</ele>
        <time>2018-07-12T10:56:13Z</time>
      </trkpt>
      <trkpt lat="45.92428" lon="4.73404">
        <ele>172</ele>
        <time>2018-07-12T10:56:14Z</time>
      </trkpt>
      <trkpt lat="45.92431" lon="4.7341">
        <ele>172</ele>
        <time>2018-07-12T10:56:15Z</time>
      </trkpt>
      <trkpt lat="45.92437" lon="4.73413">
        <ele>172</ele>
        <time>2018-07-12T10:56:16Z</time>
      </trkpt>
      <trkpt lat="45.92441" lon="4.73416">
        <ele>172</ele>
        <time>2018-07-12T10:56:17Z</time>
      </trkpt>
      <trkpt lat="45.92446" lon="4.73419">
        <ele>173</ele>
        <time>2018-07-12T10:56:18Z</time>
      </trkpt>
      <trkpt lat="45.9245" lon="4.73421">
        <ele>173</ele>
        <time>2018-07-12T10:56:19Z</time>
      </trkpt>
      <trkpt lat="45.92457" lon="4.73428">
        <ele>173</ele>
        <time>2018-07-12T10:56:21Z</time>
      </trkpt>
      <trkpt lat="45.9246" lon="4.73434">
        <ele>173</ele>
        <time>2018-07-12T10:56:22Z</time>
      </trkpt>
      <trkpt lat="45.92462" lon="4.7344">
        <ele>173</ele>
        <time>2018-07-12T10:56:23Z</time>
      </trkpt>
      <trkpt lat="45.92463" lon="4.73447">
        <ele>173</ele>
        <time>2018-07-12T10:56:24Z</time>
      </trkpt>
      <trkpt lat="45.92465" lon="4.73458">
        <ele>173</ele>
        <time>2018-07-12T10:56:26Z</time>
      </trkpt>
      <trkpt lat="45.92465" lon="4.73465">
        <ele>173</ele>
        <time>2018-07-12T10:56:27Z</time>
      </trkpt>
      <trkpt lat="45.92464" lon="4.73474">
        <ele>173</ele>
        <time>2018-07-12T10:56:28Z</time>
      </trkpt>
      <trkpt lat="45.92463" lon="4.7348">
        <ele>173</ele>
        <time>2018-07-12T10:56:29Z</time>
      </trkpt>
      <trkpt lat="45.92464" lon="4.73486">
        <ele>173</ele>
        <time>2018-07-12T10:56:30Z</time>
      </trkpt>
      <trkpt lat="45.92464" lon="4.73493">
        <ele>173</ele>
        <time>2018-07-12T10:56:31Z</time>
      </trkpt>
      <trkpt lat="45.92463" lon="4.735">
        <ele>174</ele>
        <time>2018-07-12T10:56:32Z</time>
      </trkpt>
      <trkpt lat="45.92464" lon="4.73506">
        <ele>174</ele>
        <time>2018-07-12T10:56:33Z</time>
      </trkpt>
      <trkpt lat="45.92466" lon="4.73514">
        <ele>174</ele>
        <time>2018-07-12T10:56:34Z</time>
      </trkpt>
      <trkpt lat="45.92466" lon="4.73521">
        <ele>174</ele>
        <time>2018-07-12T10:56:35Z</time>
      </trkpt>
      <trkpt lat="45.92466" lon="4.73529">
        <ele>174</ele>
        <time>2018-07-12T10:56:36Z</time>
      </trkpt>
      <trkpt lat="45.92466" lon="4.73536">
        <ele>174</ele>
        <time>2018-07-12T10:56:37Z</time>
      </trkpt>
      <trkpt lat="45.92465" lon="4.73548">
        <ele>173</ele>
        <time>2018-07-12T10:56:39Z</time>
      </trkpt>
      <trkpt lat="45.92465" lon="4.73555">
        <ele>173</ele>
        <time>2018-07-12T10:56:40Z</time>
      </trkpt>
      <trkpt lat="45.92465" lon="4.73563">
        <ele>173</ele>
        <time>2018-07-12T10:56:41Z</time>
      </trkpt>
      <trkpt lat="45.92466" lon="4.7357">
        <ele>173</ele>
        <time>2018-07-12T10:56:42Z</time>
      </trkpt>
      <trkpt lat="45.92467" lon="4.73578">
        <ele>173</ele>
        <time>2018-07-12T10:56:43Z</time>
      </trkpt>
      <trkpt lat="45.92467" lon="4.73584">
        <ele>174</ele>
        <time>2018-07-12T10:56:44Z</time>
      </trkpt>
      <trkpt lat="45.92468" lon="4.73593">
        <ele>174</ele>
        <time>2018-07-12T10:56:45Z</time>
      </trkpt>
      <trkpt lat="45.92469" lon="4.73602">
        <ele>174</ele>
        <time>2018-07-12T10:56:46Z</time>
      </trkpt>
      <trkpt lat="45.9247" lon="4.7361">
        <ele>174</ele>
        <time>2018-07-12T10:56:47Z</time>
      </trkpt>
      <trkpt lat="45.9247" lon="4.73618">
        <ele>174</ele>
        <time>2018-07-12T10:56:48Z</time>
      </trkpt>
      <trkpt lat="45.9247" lon="4.73624">
        <ele>174</ele>
        <time>2018-07-12T10:56:49Z</time>
      </trkpt>
      <trkpt lat="45.92469" lon="4.73631">
        <ele>174</ele>
        <time>2018-07-12T10:56:50Z</time>
      </trkpt>
      <trkpt lat="45.92468" lon="4.73638">
        <ele>174</ele>
        <time>2018-07-12T10:56:51Z</time>
      </trkpt>
      <trkpt lat="45.92466" lon="4.73643">
        <ele>174</ele>
        <time>2018-07-12T10:56:52Z</time>
      </trkpt>
      <trkpt lat="45.92469" lon="4.73653">
        <ele>174</ele>
        <time>2018-07-12T10:56:54Z</time>
      </trkpt>
      <trkpt lat="45.9247" lon="4.73656">
        <ele>174</ele>
        <time>2018-07-12T10:56:55Z</time>
      </trkpt>
      <trkpt lat="45.92469" lon="4.7367">
        <ele>174</ele>
        <time>2018-07-12T10:56:56Z</time>
      </trkpt>
      <trkpt lat="45.92468" lon="4.73681">
        <ele>174</ele>
        <time>2018-07-12T10:56:57Z</time>
      </trkpt>
      <trkpt lat="45.92468" lon="4.73687">
        <ele>174</ele>
        <time>2018-07-12T10:56:58Z</time>
      </trkpt>
      <trkpt lat="45.92463" lon="4.73698">
        <ele>174</ele>
        <time>2018-07-12T10:57:03Z</time>
      </trkpt>
      <trkpt lat="45.92463" lon="4.73699">
        <ele>174</ele>
        <time>2018-07-12T10:57:04Z</time>
      </trkpt>
      <trkpt lat="45.92458" lon="4.73708">
        <ele>174</ele>
        <time>2018-07-12T10:57:46.177Z</time>
      </trkpt>
    </trkseg>
  </trk>
</gpx>